<?xml version="1.0" encoding="UTF-8"?>
<gpx version="1.1" creator="https://www.youtrack.es" xsi:schemaLocation="http://www.topografix.com/GPX/1/1 http://www.topografix.com/GPX/1/1/gpx.xsd http://www.garmin.com/xmlschemas/GpxExtensions/v3 http://www.garmin.com/xmlschemas/GpxExtensionsv3.xsd http://www.garmin.com/xmlschemas/TrackPointExtension/v1 http://www.garmin.com/xmlschemas/TrackPointExtensionv1.xsd" xmlns:gpxtpx="http://www.garmin.com/xmlschemas/TrackPointExtension/v1" xmlns:gpxx="http://www.garmin.com/xmlschemas/GpxExtensions/v3" xmlns:xsi="http://www.w3.org/2001/XMLSchema-instance">
  <metadata>
    <link href="https://www.youtrack.es">
      <text>YouTrack.es</text>
    </link>
    <time>2026-05-08T23:08:22Z</time>
  </metadata>
  <trk>
    <src>https://www.youtrack.es</src>
    <link href="https://www.youtrack.es/ruta/15114-david-perez-pino-2020-08-17-15-46-13">
      <text>YouTrack.es</text>
    </link>
    <trkseg>
      <trkpt lat="38.90308" lon="1.408375">
        <ele>17.0</ele>
        <time>2020-08-17T15:46:14.368Z</time>
      </trkpt>
      <trkpt lat="38.90308" lon="1.408375">
        <ele>17.0</ele>
        <time>2020-08-17T15:46:15.384Z</time>
      </trkpt>
      <trkpt lat="38.90305167" lon="1.40832">
        <ele>17.0</ele>
        <time>2020-08-17T15:46:16.396Z</time>
      </trkpt>
      <trkpt lat="38.90305167" lon="1.40832">
        <ele>17.0</ele>
        <time>2020-08-17T15:46:17.387Z</time>
      </trkpt>
      <trkpt lat="38.90308167" lon="1.40827167">
        <ele>16.0</ele>
        <time>2020-08-17T15:46:18.378Z</time>
      </trkpt>
      <trkpt lat="38.90311167" lon="1.40828667">
        <ele>16.0</ele>
        <time>2020-08-17T15:46:19.375Z</time>
      </trkpt>
      <trkpt lat="38.90311167" lon="1.40828667">
        <ele>16.0</ele>
        <time>2020-08-17T15:46:20.370Z</time>
      </trkpt>
      <trkpt lat="38.90313333" lon="1.40835">
        <ele>16.0</ele>
        <time>2020-08-17T15:46:21.387Z</time>
      </trkpt>
      <trkpt lat="38.90313333" lon="1.40835">
        <ele>16.0</ele>
        <time>2020-08-17T15:46:22.371Z</time>
      </trkpt>
      <trkpt lat="38.90316333" lon="1.40844">
        <ele>17.0</ele>
        <time>2020-08-17T15:46:23.376Z</time>
      </trkpt>
      <trkpt lat="38.90316333" lon="1.40844">
        <ele>17.0</ele>
        <time>2020-08-17T15:46:24.370Z</time>
      </trkpt>
      <trkpt lat="38.90319167" lon="1.40855333">
        <ele>17.0</ele>
        <time>2020-08-17T15:46:25.374Z</time>
      </trkpt>
      <trkpt lat="38.90319167" lon="1.40855333">
        <ele>17.0</ele>
        <time>2020-08-17T15:46:26.369Z</time>
      </trkpt>
      <trkpt lat="38.903215" lon="1.40867833">
        <ele>17.0</ele>
        <time>2020-08-17T15:46:27.374Z</time>
      </trkpt>
      <trkpt lat="38.903215" lon="1.40867833">
        <ele>17.0</ele>
        <time>2020-08-17T15:46:28.368Z</time>
      </trkpt>
      <trkpt lat="38.90324833" lon="1.408805">
        <ele>16.0</ele>
        <time>2020-08-17T15:46:29.374Z</time>
      </trkpt>
      <trkpt lat="38.90324833" lon="1.408805">
        <ele>16.0</ele>
        <time>2020-08-17T15:46:30.368Z</time>
      </trkpt>
      <trkpt lat="38.903275" lon="1.40893333">
        <ele>15.0</ele>
        <time>2020-08-17T15:46:31.374Z</time>
      </trkpt>
      <trkpt lat="38.903275" lon="1.40893333">
        <ele>15.0</ele>
        <time>2020-08-17T15:46:32.368Z</time>
      </trkpt>
      <trkpt lat="38.90330167" lon="1.40906833">
        <ele>15.0</ele>
        <time>2020-08-17T15:46:33.374Z</time>
      </trkpt>
      <trkpt lat="38.903315" lon="1.409135">
        <ele>14.0</ele>
        <time>2020-08-17T15:46:34.373Z</time>
      </trkpt>
      <trkpt lat="38.90333" lon="1.40920167">
        <ele>14.0</ele>
        <time>2020-08-17T15:46:35.377Z</time>
      </trkpt>
      <trkpt lat="38.90333" lon="1.40920167">
        <ele>14.0</ele>
        <time>2020-08-17T15:46:36.371Z</time>
      </trkpt>
      <trkpt lat="38.90335667" lon="1.40929333">
        <ele>13.0</ele>
        <time>2020-08-17T15:46:37.374Z</time>
      </trkpt>
      <trkpt lat="38.90335667" lon="1.40929333">
        <ele>13.0</ele>
        <time>2020-08-17T15:46:38.370Z</time>
      </trkpt>
      <trkpt lat="38.903385" lon="1.40932667">
        <ele>12.0</ele>
        <time>2020-08-17T15:46:39.374Z</time>
      </trkpt>
      <trkpt lat="38.903385" lon="1.40932667">
        <ele>12.0</ele>
        <time>2020-08-17T15:46:40.375Z</time>
      </trkpt>
      <trkpt lat="38.90341167" lon="1.40933">
        <ele>12.0</ele>
        <time>2020-08-17T15:46:41.378Z</time>
      </trkpt>
      <trkpt lat="38.90343667" lon="1.409325">
        <ele>12.0</ele>
        <time>2020-08-17T15:46:42.374Z</time>
      </trkpt>
      <trkpt lat="38.90343667" lon="1.409325">
        <ele>12.0</ele>
        <time>2020-08-17T15:46:43.372Z</time>
      </trkpt>
      <trkpt lat="38.90350833" lon="1.409325">
        <ele>13.0</ele>
        <time>2020-08-17T15:46:44.375Z</time>
      </trkpt>
      <trkpt lat="38.90350833" lon="1.409325">
        <ele>13.0</ele>
        <time>2020-08-17T15:46:45.372Z</time>
      </trkpt>
      <trkpt lat="38.90358667" lon="1.40928833">
        <ele>14.0</ele>
        <time>2020-08-17T15:46:46.373Z</time>
      </trkpt>
      <trkpt lat="38.90362667" lon="1.40926833">
        <ele>14.0</ele>
        <time>2020-08-17T15:46:47.370Z</time>
      </trkpt>
      <trkpt lat="38.90362667" lon="1.40926833">
        <ele>14.0</ele>
        <time>2020-08-17T15:46:48.368Z</time>
      </trkpt>
      <trkpt lat="38.90371667" lon="1.409235">
        <ele>15.0</ele>
        <time>2020-08-17T15:46:49.373Z</time>
      </trkpt>
      <trkpt lat="38.90371667" lon="1.409235">
        <ele>15.0</ele>
        <time>2020-08-17T15:46:50.368Z</time>
      </trkpt>
      <trkpt lat="38.90380833" lon="1.40919833">
        <ele>16.0</ele>
        <time>2020-08-17T15:46:51.374Z</time>
      </trkpt>
      <trkpt lat="38.90380833" lon="1.40919833">
        <ele>16.0</ele>
        <time>2020-08-17T15:46:52.370Z</time>
      </trkpt>
      <trkpt lat="38.90389833" lon="1.40917167">
        <ele>16.0</ele>
        <time>2020-08-17T15:46:53.389Z</time>
      </trkpt>
      <trkpt lat="38.90389833" lon="1.40917167">
        <ele>16.0</ele>
        <time>2020-08-17T15:46:54.375Z</time>
      </trkpt>
      <trkpt lat="38.90397667" lon="1.40915167">
        <ele>18.0</ele>
        <time>2020-08-17T15:46:55.374Z</time>
      </trkpt>
      <trkpt lat="38.90397667" lon="1.40915167">
        <ele>18.0</ele>
        <time>2020-08-17T15:46:56.369Z</time>
      </trkpt>
      <trkpt lat="38.90405833" lon="1.40916333">
        <ele>20.0</ele>
        <time>2020-08-17T15:46:57.389Z</time>
      </trkpt>
      <trkpt lat="38.90405833" lon="1.40916333">
        <ele>20.0</ele>
        <time>2020-08-17T15:46:58.370Z</time>
      </trkpt>
      <trkpt lat="38.90412" lon="1.40917667">
        <ele>20.0</ele>
        <time>2020-08-17T15:46:59.389Z</time>
      </trkpt>
      <trkpt lat="38.90415" lon="1.40919833">
        <ele>22.0</ele>
        <time>2020-08-17T15:47:00.389Z</time>
      </trkpt>
      <trkpt lat="38.90415" lon="1.40919833">
        <ele>22.0</ele>
        <time>2020-08-17T15:47:01.370Z</time>
      </trkpt>
      <trkpt lat="38.90419333" lon="1.40931667">
        <ele>21.0</ele>
        <time>2020-08-17T15:47:02.373Z</time>
      </trkpt>
      <trkpt lat="38.90419333" lon="1.40931667">
        <ele>21.0</ele>
        <time>2020-08-17T15:47:03.368Z</time>
      </trkpt>
      <trkpt lat="38.90420333" lon="1.40945">
        <ele>20.0</ele>
        <time>2020-08-17T15:47:04.387Z</time>
      </trkpt>
      <trkpt lat="38.90421" lon="1.40952167">
        <ele>20.0</ele>
        <time>2020-08-17T15:47:05.375Z</time>
      </trkpt>
      <trkpt lat="38.90421" lon="1.40952167">
        <ele>20.0</ele>
        <time>2020-08-17T15:47:06.368Z</time>
      </trkpt>
      <trkpt lat="38.90423833" lon="1.40966">
        <ele>20.0</ele>
        <time>2020-08-17T15:47:07.388Z</time>
      </trkpt>
      <trkpt lat="38.90423833" lon="1.40966">
        <ele>20.0</ele>
        <time>2020-08-17T15:47:08.368Z</time>
      </trkpt>
      <trkpt lat="38.90426667" lon="1.40980667">
        <ele>19.0</ele>
        <time>2020-08-17T15:47:09.388Z</time>
      </trkpt>
      <trkpt lat="38.90428333" lon="1.40987833">
        <ele>19.0</ele>
        <time>2020-08-17T15:47:10.372Z</time>
      </trkpt>
      <trkpt lat="38.9043" lon="1.40995">
        <ele>19.0</ele>
        <time>2020-08-17T15:47:11.376Z</time>
      </trkpt>
      <trkpt lat="38.9043" lon="1.40995">
        <ele>19.0</ele>
        <time>2020-08-17T15:47:12.368Z</time>
      </trkpt>
      <trkpt lat="38.90432667" lon="1.410095">
        <ele>19.0</ele>
        <time>2020-08-17T15:47:13.387Z</time>
      </trkpt>
      <trkpt lat="38.90432667" lon="1.410095">
        <ele>19.0</ele>
        <time>2020-08-17T15:47:14.371Z</time>
      </trkpt>
      <trkpt lat="38.90435333" lon="1.410245">
        <ele>18.0</ele>
        <time>2020-08-17T15:47:15.375Z</time>
      </trkpt>
      <trkpt lat="38.90435333" lon="1.410245">
        <ele>18.0</ele>
        <time>2020-08-17T15:47:16.369Z</time>
      </trkpt>
      <trkpt lat="38.904385" lon="1.41039">
        <ele>18.0</ele>
        <time>2020-08-17T15:47:17.389Z</time>
      </trkpt>
      <trkpt lat="38.904385" lon="1.41039">
        <ele>18.0</ele>
        <time>2020-08-17T15:47:18.370Z</time>
      </trkpt>
      <trkpt lat="38.904425" lon="1.410535">
        <ele>18.0</ele>
        <time>2020-08-17T15:47:19.375Z</time>
      </trkpt>
      <trkpt lat="38.904425" lon="1.410535">
        <ele>18.0</ele>
        <time>2020-08-17T15:47:20.369Z</time>
      </trkpt>
      <trkpt lat="38.90445333" lon="1.41068667">
        <ele>18.0</ele>
        <time>2020-08-17T15:47:21.389Z</time>
      </trkpt>
      <trkpt lat="38.90445333" lon="1.41068667">
        <ele>18.0</ele>
        <time>2020-08-17T15:47:22.370Z</time>
      </trkpt>
      <trkpt lat="38.90448333" lon="1.41083833">
        <ele>18.0</ele>
        <time>2020-08-17T15:47:23.389Z</time>
      </trkpt>
      <trkpt lat="38.90448333" lon="1.41083833">
        <ele>18.0</ele>
        <time>2020-08-17T15:47:24.370Z</time>
      </trkpt>
      <trkpt lat="38.90451167" lon="1.41099">
        <ele>17.0</ele>
        <time>2020-08-17T15:47:25.374Z</time>
      </trkpt>
      <trkpt lat="38.90451167" lon="1.41099">
        <ele>17.0</ele>
        <time>2020-08-17T15:47:26.369Z</time>
      </trkpt>
      <trkpt lat="38.90454333" lon="1.411145">
        <ele>17.0</ele>
        <time>2020-08-17T15:47:27.374Z</time>
      </trkpt>
      <trkpt lat="38.90454333" lon="1.411145">
        <ele>17.0</ele>
        <time>2020-08-17T15:47:28.368Z</time>
      </trkpt>
      <trkpt lat="38.90457667" lon="1.41130667">
        <ele>17.0</ele>
        <time>2020-08-17T15:47:29.388Z</time>
      </trkpt>
      <trkpt lat="38.90457667" lon="1.41130667">
        <ele>17.0</ele>
        <time>2020-08-17T15:47:30.372Z</time>
      </trkpt>
      <trkpt lat="38.90461" lon="1.411475">
        <ele>16.0</ele>
        <time>2020-08-17T15:47:31.373Z</time>
      </trkpt>
      <trkpt lat="38.90462833" lon="1.41156">
        <ele>16.0</ele>
        <time>2020-08-17T15:47:32.374Z</time>
      </trkpt>
      <trkpt lat="38.90462833" lon="1.41156">
        <ele>16.0</ele>
        <time>2020-08-17T15:47:33.367Z</time>
      </trkpt>
      <trkpt lat="38.90466" lon="1.41173333">
        <ele>16.0</ele>
        <time>2020-08-17T15:47:34.389Z</time>
      </trkpt>
      <trkpt lat="38.90466" lon="1.41173333">
        <ele>16.0</ele>
        <time>2020-08-17T15:47:35.372Z</time>
      </trkpt>
      <trkpt lat="38.90469333" lon="1.41190833">
        <ele>15.0</ele>
        <time>2020-08-17T15:47:36.393Z</time>
      </trkpt>
      <trkpt lat="38.90469333" lon="1.41190833">
        <ele>15.0</ele>
        <time>2020-08-17T15:47:37.398Z</time>
      </trkpt>
      <trkpt lat="38.90472833" lon="1.41208833">
        <ele>15.0</ele>
        <time>2020-08-17T15:47:38.365Z</time>
      </trkpt>
      <trkpt lat="38.90472833" lon="1.41208833">
        <ele>15.0</ele>
        <time>2020-08-17T15:47:39.371Z</time>
      </trkpt>
      <trkpt lat="38.90476667" lon="1.41227167">
        <ele>15.0</ele>
        <time>2020-08-17T15:47:40.374Z</time>
      </trkpt>
      <trkpt lat="38.904785" lon="1.41236333">
        <ele>15.0</ele>
        <time>2020-08-17T15:47:41.377Z</time>
      </trkpt>
      <trkpt lat="38.904785" lon="1.41236333">
        <ele>15.0</ele>
        <time>2020-08-17T15:47:42.369Z</time>
      </trkpt>
      <trkpt lat="38.90482167" lon="1.41254667">
        <ele>14.0</ele>
        <time>2020-08-17T15:47:43.395Z</time>
      </trkpt>
      <trkpt lat="38.90482167" lon="1.41254667">
        <ele>14.0</ele>
        <time>2020-08-17T15:47:44.375Z</time>
      </trkpt>
      <trkpt lat="38.90485833" lon="1.41273167">
        <ele>14.0</ele>
        <time>2020-08-17T15:47:45.369Z</time>
      </trkpt>
      <trkpt lat="38.90487667" lon="1.41282667">
        <ele>14.0</ele>
        <time>2020-08-17T15:47:46.389Z</time>
      </trkpt>
      <trkpt lat="38.90487667" lon="1.41282667">
        <ele>14.0</ele>
        <time>2020-08-17T15:47:47.373Z</time>
      </trkpt>
      <trkpt lat="38.904915" lon="1.413015">
        <ele>13.0</ele>
        <time>2020-08-17T15:47:48.377Z</time>
      </trkpt>
      <trkpt lat="38.90493333" lon="1.41311">
        <ele>13.0</ele>
        <time>2020-08-17T15:47:49.374Z</time>
      </trkpt>
      <trkpt lat="38.90493333" lon="1.41311">
        <ele>13.0</ele>
        <time>2020-08-17T15:47:50.369Z</time>
      </trkpt>
      <trkpt lat="38.90497167" lon="1.41329833">
        <ele>13.0</ele>
        <time>2020-08-17T15:47:51.388Z</time>
      </trkpt>
      <trkpt lat="38.90497167" lon="1.41329833">
        <ele>13.0</ele>
        <time>2020-08-17T15:47:52.396Z</time>
      </trkpt>
      <trkpt lat="38.90501167" lon="1.41349">
        <ele>13.0</ele>
        <time>2020-08-17T15:47:53.378Z</time>
      </trkpt>
      <trkpt lat="38.90501167" lon="1.41349">
        <ele>13.0</ele>
        <time>2020-08-17T15:47:54.382Z</time>
      </trkpt>
      <trkpt lat="38.90505667" lon="1.41368167">
        <ele>14.0</ele>
        <time>2020-08-17T15:47:55.374Z</time>
      </trkpt>
      <trkpt lat="38.90505667" lon="1.41368167">
        <ele>14.0</ele>
        <time>2020-08-17T15:47:56.370Z</time>
      </trkpt>
      <trkpt lat="38.90509667" lon="1.41387667">
        <ele>14.0</ele>
        <time>2020-08-17T15:47:57.364Z</time>
      </trkpt>
      <trkpt lat="38.90509667" lon="1.41387667">
        <ele>14.0</ele>
        <time>2020-08-17T15:47:58.385Z</time>
      </trkpt>
      <trkpt lat="38.90513667" lon="1.41407833">
        <ele>13.0</ele>
        <time>2020-08-17T15:47:59.377Z</time>
      </trkpt>
      <trkpt lat="38.90513667" lon="1.41407833">
        <ele>13.0</ele>
        <time>2020-08-17T15:48:00.366Z</time>
      </trkpt>
      <trkpt lat="38.90517833" lon="1.41428167">
        <ele>13.0</ele>
        <time>2020-08-17T15:48:01.389Z</time>
      </trkpt>
      <trkpt lat="38.90517833" lon="1.41428167">
        <ele>13.0</ele>
        <time>2020-08-17T15:48:02.370Z</time>
      </trkpt>
      <trkpt lat="38.90522" lon="1.41449167">
        <ele>12.0</ele>
        <time>2020-08-17T15:48:03.389Z</time>
      </trkpt>
      <trkpt lat="38.90522" lon="1.41449167">
        <ele>12.0</ele>
        <time>2020-08-17T15:48:04.370Z</time>
      </trkpt>
      <trkpt lat="38.905265" lon="1.41470167">
        <ele>12.0</ele>
        <time>2020-08-17T15:48:05.381Z</time>
      </trkpt>
      <trkpt lat="38.905265" lon="1.41470167">
        <ele>12.0</ele>
        <time>2020-08-17T15:48:06.368Z</time>
      </trkpt>
      <trkpt lat="38.90530833" lon="1.414915">
        <ele>12.0</ele>
        <time>2020-08-17T15:48:07.389Z</time>
      </trkpt>
      <trkpt lat="38.90530833" lon="1.414915">
        <ele>12.0</ele>
        <time>2020-08-17T15:48:08.369Z</time>
      </trkpt>
      <trkpt lat="38.90534667" lon="1.41511333">
        <ele>11.0</ele>
        <time>2020-08-17T15:48:09.389Z</time>
      </trkpt>
      <trkpt lat="38.90534667" lon="1.41511333">
        <ele>11.0</ele>
        <time>2020-08-17T15:48:10.381Z</time>
      </trkpt>
      <trkpt lat="38.90538" lon="1.41525667">
        <ele>11.0</ele>
        <time>2020-08-17T15:48:11.374Z</time>
      </trkpt>
      <trkpt lat="38.90538" lon="1.41525667">
        <ele>11.0</ele>
        <time>2020-08-17T15:48:12.369Z</time>
      </trkpt>
      <trkpt lat="38.90539667" lon="1.41536667">
        <ele>11.0</ele>
        <time>2020-08-17T15:48:13.388Z</time>
      </trkpt>
      <trkpt lat="38.90539667" lon="1.41536667">
        <ele>11.0</ele>
        <time>2020-08-17T15:48:14.371Z</time>
      </trkpt>
      <trkpt lat="38.90542" lon="1.41545667">
        <ele>11.0</ele>
        <time>2020-08-17T15:48:15.374Z</time>
      </trkpt>
      <trkpt lat="38.90542667" lon="1.41550167">
        <ele>11.0</ele>
        <time>2020-08-17T15:48:16.375Z</time>
      </trkpt>
      <trkpt lat="38.90543167" lon="1.415545">
        <ele>11.0</ele>
        <time>2020-08-17T15:48:17.378Z</time>
      </trkpt>
      <trkpt lat="38.90543167" lon="1.415545">
        <ele>11.0</ele>
        <time>2020-08-17T15:48:18.369Z</time>
      </trkpt>
      <trkpt lat="38.90544333" lon="1.415605">
        <ele>10.0</ele>
        <time>2020-08-17T15:48:19.389Z</time>
      </trkpt>
      <trkpt lat="38.90544333" lon="1.415605">
        <ele>10.0</ele>
        <time>2020-08-17T15:48:20.399Z</time>
      </trkpt>
      <trkpt lat="38.90545333" lon="1.415645">
        <ele>11.0</ele>
        <time>2020-08-17T15:48:21.382Z</time>
      </trkpt>
      <trkpt lat="38.90545333" lon="1.415645">
        <ele>11.0</ele>
        <time>2020-08-17T15:48:22.370Z</time>
      </trkpt>
      <trkpt lat="38.90545333" lon="1.41565667">
        <ele>11.0</ele>
        <time>2020-08-17T15:48:23.390Z</time>
      </trkpt>
      <trkpt lat="38.90545333" lon="1.41565667">
        <ele>11.0</ele>
        <time>2020-08-17T15:48:24.371Z</time>
      </trkpt>
      <trkpt lat="38.90545333" lon="1.41565333">
        <ele>11.0</ele>
        <time>2020-08-17T15:48:25.376Z</time>
      </trkpt>
      <trkpt lat="38.905465" lon="1.41567">
        <ele>14.0</ele>
        <time>2020-08-17T15:48:36.854Z</time>
      </trkpt>
      <trkpt lat="38.905465" lon="1.41567">
        <ele>14.0</ele>
        <time>2020-08-17T15:48:37.845Z</time>
      </trkpt>
      <trkpt lat="38.90548167" lon="1.41575167">
        <ele>14.0</ele>
        <time>2020-08-17T15:48:38.848Z</time>
      </trkpt>
      <trkpt lat="38.90548167" lon="1.41575167">
        <ele>14.0</ele>
        <time>2020-08-17T15:48:39.863Z</time>
      </trkpt>
      <trkpt lat="38.905505" lon="1.415885">
        <ele>14.0</ele>
        <time>2020-08-17T15:48:40.850Z</time>
      </trkpt>
      <trkpt lat="38.905505" lon="1.415885">
        <ele>14.0</ele>
        <time>2020-08-17T15:48:41.873Z</time>
      </trkpt>
      <trkpt lat="38.90553667" lon="1.41604333">
        <ele>14.0</ele>
        <time>2020-08-17T15:48:42.862Z</time>
      </trkpt>
      <trkpt lat="38.90553667" lon="1.41604333">
        <ele>14.0</ele>
        <time>2020-08-17T15:48:43.845Z</time>
      </trkpt>
      <trkpt lat="38.90556833" lon="1.41621">
        <ele>13.0</ele>
        <time>2020-08-17T15:48:44.864Z</time>
      </trkpt>
      <trkpt lat="38.90556833" lon="1.41621">
        <ele>13.0</ele>
        <time>2020-08-17T15:48:45.845Z</time>
      </trkpt>
      <trkpt lat="38.905605" lon="1.41638667">
        <ele>13.0</ele>
        <time>2020-08-17T15:48:46.865Z</time>
      </trkpt>
      <trkpt lat="38.90562333" lon="1.41647833">
        <ele>13.0</ele>
        <time>2020-08-17T15:48:47.848Z</time>
      </trkpt>
      <trkpt lat="38.90564" lon="1.41657333">
        <ele>13.0</ele>
        <time>2020-08-17T15:48:48.865Z</time>
      </trkpt>
      <trkpt lat="38.90564" lon="1.41657333">
        <ele>13.0</ele>
        <time>2020-08-17T15:48:49.846Z</time>
      </trkpt>
      <trkpt lat="38.90568" lon="1.41676833">
        <ele>12.0</ele>
        <time>2020-08-17T15:48:50.865Z</time>
      </trkpt>
      <trkpt lat="38.9057" lon="1.41686833">
        <ele>12.0</ele>
        <time>2020-08-17T15:48:51.847Z</time>
      </trkpt>
      <trkpt lat="38.90571833" lon="1.41697">
        <ele>11.0</ele>
        <time>2020-08-17T15:48:52.850Z</time>
      </trkpt>
      <trkpt lat="38.90571833" lon="1.41697">
        <ele>11.0</ele>
        <time>2020-08-17T15:48:53.864Z</time>
      </trkpt>
      <trkpt lat="38.90575833" lon="1.41717667">
        <ele>11.0</ele>
        <time>2020-08-17T15:48:54.849Z</time>
      </trkpt>
      <trkpt lat="38.90575833" lon="1.41717667">
        <ele>11.0</ele>
        <time>2020-08-17T15:48:55.846Z</time>
      </trkpt>
      <trkpt lat="38.90579833" lon="1.41738833">
        <ele>11.0</ele>
        <time>2020-08-17T15:48:56.849Z</time>
      </trkpt>
      <trkpt lat="38.90579833" lon="1.41738833">
        <ele>11.0</ele>
        <time>2020-08-17T15:48:57.864Z</time>
      </trkpt>
      <trkpt lat="38.90584" lon="1.41760333">
        <ele>10.0</ele>
        <time>2020-08-17T15:48:58.850Z</time>
      </trkpt>
      <trkpt lat="38.90584" lon="1.41760333">
        <ele>10.0</ele>
        <time>2020-08-17T15:48:59.846Z</time>
      </trkpt>
      <trkpt lat="38.90588667" lon="1.41782">
        <ele>9.0</ele>
        <time>2020-08-17T15:49:00.864Z</time>
      </trkpt>
      <trkpt lat="38.90588667" lon="1.41782">
        <ele>9.0</ele>
        <time>2020-08-17T15:49:01.883Z</time>
      </trkpt>
      <trkpt lat="38.90593" lon="1.41804">
        <ele>9.0</ele>
        <time>2020-08-17T15:49:02.861Z</time>
      </trkpt>
      <trkpt lat="38.90593" lon="1.41804">
        <ele>9.0</ele>
        <time>2020-08-17T15:49:03.882Z</time>
      </trkpt>
      <trkpt lat="38.90597333" lon="1.41826167">
        <ele>8.0</ele>
        <time>2020-08-17T15:49:04.862Z</time>
      </trkpt>
      <trkpt lat="38.90597333" lon="1.41826167">
        <ele>8.0</ele>
        <time>2020-08-17T15:49:05.845Z</time>
      </trkpt>
      <trkpt lat="38.90601667" lon="1.41847667">
        <ele>8.0</ele>
        <time>2020-08-17T15:49:06.847Z</time>
      </trkpt>
      <trkpt lat="38.90603667" lon="1.41858167">
        <ele>8.0</ele>
        <time>2020-08-17T15:49:07.861Z</time>
      </trkpt>
      <trkpt lat="38.90603667" lon="1.41858167">
        <ele>8.0</ele>
        <time>2020-08-17T15:49:08.884Z</time>
      </trkpt>
      <trkpt lat="38.906075" lon="1.41878667">
        <ele>8.0</ele>
        <time>2020-08-17T15:49:09.864Z</time>
      </trkpt>
      <trkpt lat="38.906095" lon="1.41888667">
        <ele>7.0</ele>
        <time>2020-08-17T15:49:10.850Z</time>
      </trkpt>
      <trkpt lat="38.906095" lon="1.41888667">
        <ele>7.0</ele>
        <time>2020-08-17T15:49:11.869Z</time>
      </trkpt>
      <trkpt lat="38.90613667" lon="1.41908167">
        <ele>7.0</ele>
        <time>2020-08-17T15:49:12.848Z</time>
      </trkpt>
      <trkpt lat="38.90613667" lon="1.41908167">
        <ele>7.0</ele>
        <time>2020-08-17T15:49:13.883Z</time>
      </trkpt>
      <trkpt lat="38.906175" lon="1.41927167">
        <ele>7.0</ele>
        <time>2020-08-17T15:49:14.864Z</time>
      </trkpt>
      <trkpt lat="38.90619333" lon="1.419365">
        <ele>7.0</ele>
        <time>2020-08-17T15:49:15.849Z</time>
      </trkpt>
      <trkpt lat="38.90619333" lon="1.419365">
        <ele>7.0</ele>
        <time>2020-08-17T15:49:16.864Z</time>
      </trkpt>
      <trkpt lat="38.90622833" lon="1.41954833">
        <ele>7.0</ele>
        <time>2020-08-17T15:49:17.847Z</time>
      </trkpt>
      <trkpt lat="38.906245" lon="1.41963667">
        <ele>7.0</ele>
        <time>2020-08-17T15:49:18.849Z</time>
      </trkpt>
      <trkpt lat="38.90626167" lon="1.41972667">
        <ele>7.0</ele>
        <time>2020-08-17T15:49:19.849Z</time>
      </trkpt>
      <trkpt lat="38.90626167" lon="1.41972667">
        <ele>7.0</ele>
        <time>2020-08-17T15:49:20.884Z</time>
      </trkpt>
      <trkpt lat="38.90628833" lon="1.41991167">
        <ele>7.0</ele>
        <time>2020-08-17T15:49:21.864Z</time>
      </trkpt>
      <trkpt lat="38.90629667" lon="1.420005">
        <ele>6.0</ele>
        <time>2020-08-17T15:49:22.852Z</time>
      </trkpt>
      <trkpt lat="38.90629667" lon="1.420005">
        <ele>6.0</ele>
        <time>2020-08-17T15:49:23.884Z</time>
      </trkpt>
      <trkpt lat="38.9063" lon="1.42019333">
        <ele>6.0</ele>
        <time>2020-08-17T15:49:24.850Z</time>
      </trkpt>
      <trkpt lat="38.9063" lon="1.42019333">
        <ele>6.0</ele>
        <time>2020-08-17T15:49:25.846Z</time>
      </trkpt>
      <trkpt lat="38.90628167" lon="1.42038167">
        <ele>6.0</ele>
        <time>2020-08-17T15:49:26.864Z</time>
      </trkpt>
      <trkpt lat="38.90628167" lon="1.42038167">
        <ele>6.0</ele>
        <time>2020-08-17T15:49:27.847Z</time>
      </trkpt>
      <trkpt lat="38.906295" lon="1.42057">
        <ele>5.0</ele>
        <time>2020-08-17T15:49:28.850Z</time>
      </trkpt>
      <trkpt lat="38.906295" lon="1.42057">
        <ele>5.0</ele>
        <time>2020-08-17T15:49:29.883Z</time>
      </trkpt>
      <trkpt lat="38.90638333" lon="1.420725">
        <ele>4.0</ele>
        <time>2020-08-17T15:49:30.868Z</time>
      </trkpt>
      <trkpt lat="38.90638333" lon="1.420725">
        <ele>4.0</ele>
        <time>2020-08-17T15:49:31.846Z</time>
      </trkpt>
      <trkpt lat="38.90652667" lon="1.42079667">
        <ele>4.0</ele>
        <time>2020-08-17T15:49:32.848Z</time>
      </trkpt>
      <trkpt lat="38.90652667" lon="1.42079667">
        <ele>4.0</ele>
        <time>2020-08-17T15:49:33.864Z</time>
      </trkpt>
      <trkpt lat="38.90667833" lon="1.42083667">
        <ele>4.0</ele>
        <time>2020-08-17T15:49:34.850Z</time>
      </trkpt>
      <trkpt lat="38.90667833" lon="1.42083667">
        <ele>4.0</ele>
        <time>2020-08-17T15:49:35.846Z</time>
      </trkpt>
      <trkpt lat="38.90682667" lon="1.42091167">
        <ele>4.0</ele>
        <time>2020-08-17T15:49:36.868Z</time>
      </trkpt>
      <trkpt lat="38.90682667" lon="1.42091167">
        <ele>4.0</ele>
        <time>2020-08-17T15:49:37.884Z</time>
      </trkpt>
      <trkpt lat="38.90697667" lon="1.420995">
        <ele>4.0</ele>
        <time>2020-08-17T15:49:38.862Z</time>
      </trkpt>
      <trkpt lat="38.90697667" lon="1.420995">
        <ele>4.0</ele>
        <time>2020-08-17T15:49:39.845Z</time>
      </trkpt>
      <trkpt lat="38.90712833" lon="1.42108">
        <ele>3.0</ele>
        <time>2020-08-17T15:49:40.864Z</time>
      </trkpt>
      <trkpt lat="38.90712833" lon="1.42108">
        <ele>3.0</ele>
        <time>2020-08-17T15:49:41.883Z</time>
      </trkpt>
      <trkpt lat="38.90728167" lon="1.42116833">
        <ele>3.0</ele>
        <time>2020-08-17T15:49:42.861Z</time>
      </trkpt>
      <trkpt lat="38.90728167" lon="1.42116833">
        <ele>3.0</ele>
        <time>2020-08-17T15:49:43.845Z</time>
      </trkpt>
      <trkpt lat="38.90743333" lon="1.42126167">
        <ele>2.0</ele>
        <time>2020-08-17T15:49:44.864Z</time>
      </trkpt>
      <trkpt lat="38.90743333" lon="1.42126167">
        <ele>2.0</ele>
        <time>2020-08-17T15:49:45.848Z</time>
      </trkpt>
      <trkpt lat="38.90759167" lon="1.42136">
        <ele>1.0</ele>
        <time>2020-08-17T15:49:46.850Z</time>
      </trkpt>
      <trkpt lat="38.90759167" lon="1.42136">
        <ele>1.0</ele>
        <time>2020-08-17T15:49:47.845Z</time>
      </trkpt>
      <trkpt lat="38.90775333" lon="1.42145167">
        <ele>1.0</ele>
        <time>2020-08-17T15:49:48.849Z</time>
      </trkpt>
      <trkpt lat="38.90775333" lon="1.42145167">
        <ele>1.0</ele>
        <time>2020-08-17T15:49:49.864Z</time>
      </trkpt>
      <trkpt lat="38.90791833" lon="1.42153667">
        <ele>1.0</ele>
        <time>2020-08-17T15:49:50.845Z</time>
      </trkpt>
      <trkpt lat="38.90800333" lon="1.42158167">
        <ele>1.0</ele>
        <time>2020-08-17T15:49:51.849Z</time>
      </trkpt>
      <trkpt lat="38.90808833" lon="1.421625">
        <ele>0.0</ele>
        <time>2020-08-17T15:49:52.867Z</time>
      </trkpt>
      <trkpt lat="38.90808833" lon="1.421625">
        <ele>0.0</ele>
        <time>2020-08-17T15:49:53.846Z</time>
      </trkpt>
      <trkpt lat="38.90825667" lon="1.42170667">
        <ele>0.0</ele>
        <time>2020-08-17T15:49:54.848Z</time>
      </trkpt>
      <trkpt lat="38.90825667" lon="1.42170667">
        <ele>0.0</ele>
        <time>2020-08-17T15:49:55.883Z</time>
      </trkpt>
      <trkpt lat="38.90842333" lon="1.42179333">
        <ele>0.0</ele>
        <time>2020-08-17T15:49:56.863Z</time>
      </trkpt>
      <trkpt lat="38.90842333" lon="1.42179333">
        <ele>0.0</ele>
        <time>2020-08-17T15:49:57.846Z</time>
      </trkpt>
      <trkpt lat="38.90859167" lon="1.42188">
        <ele>0.0</ele>
        <time>2020-08-17T15:49:58.851Z</time>
      </trkpt>
      <trkpt lat="38.90859167" lon="1.42188">
        <ele>0.0</ele>
        <time>2020-08-17T15:49:59.846Z</time>
      </trkpt>
      <trkpt lat="38.90875833" lon="1.42196833">
        <ele>0.0</ele>
        <time>2020-08-17T15:50:00.848Z</time>
      </trkpt>
      <trkpt lat="38.90884167" lon="1.42201167">
        <ele>0.0</ele>
        <time>2020-08-17T15:50:01.864Z</time>
      </trkpt>
      <trkpt lat="38.90884167" lon="1.42201167">
        <ele>0.0</ele>
        <time>2020-08-17T15:50:02.884Z</time>
      </trkpt>
      <trkpt lat="38.909015" lon="1.422095">
        <ele>0.0</ele>
        <time>2020-08-17T15:50:03.862Z</time>
      </trkpt>
      <trkpt lat="38.9091" lon="1.42214">
        <ele>0.0</ele>
        <time>2020-08-17T15:50:04.850Z</time>
      </trkpt>
      <trkpt lat="38.9091" lon="1.42214">
        <ele>0.0</ele>
        <time>2020-08-17T15:50:05.846Z</time>
      </trkpt>
      <trkpt lat="38.90927" lon="1.422245">
        <ele>-1.0</ele>
        <time>2020-08-17T15:50:06.865Z</time>
      </trkpt>
      <trkpt lat="38.909355" lon="1.42229667">
        <ele>-1.0</ele>
        <time>2020-08-17T15:50:07.849Z</time>
      </trkpt>
      <trkpt lat="38.909355" lon="1.42229667">
        <ele>-1.0</ele>
        <time>2020-08-17T15:50:08.845Z</time>
      </trkpt>
      <trkpt lat="38.90952833" lon="1.422385">
        <ele>-1.0</ele>
        <time>2020-08-17T15:50:09.864Z</time>
      </trkpt>
      <trkpt lat="38.90952833" lon="1.422385">
        <ele>-1.0</ele>
        <time>2020-08-17T15:50:10.883Z</time>
      </trkpt>
      <trkpt lat="38.90969667" lon="1.42247">
        <ele>-1.0</ele>
        <time>2020-08-17T15:50:11.864Z</time>
      </trkpt>
      <trkpt lat="38.90978" lon="1.42251">
        <ele>-1.0</ele>
        <time>2020-08-17T15:50:12.848Z</time>
      </trkpt>
      <trkpt lat="38.90978" lon="1.42251">
        <ele>-1.0</ele>
        <time>2020-08-17T15:50:13.864Z</time>
      </trkpt>
      <trkpt lat="38.90994667" lon="1.4226">
        <ele>-1.0</ele>
        <time>2020-08-17T15:50:14.848Z</time>
      </trkpt>
      <trkpt lat="38.90994667" lon="1.4226">
        <ele>-1.0</ele>
        <time>2020-08-17T15:50:15.863Z</time>
      </trkpt>
      <trkpt lat="38.91011333" lon="1.42268833">
        <ele>-1.0</ele>
        <time>2020-08-17T15:50:16.856Z</time>
      </trkpt>
      <trkpt lat="38.91011333" lon="1.42268833">
        <ele>-1.0</ele>
        <time>2020-08-17T15:50:17.846Z</time>
      </trkpt>
      <trkpt lat="38.91028" lon="1.42277167">
        <ele>-1.0</ele>
        <time>2020-08-17T15:50:18.849Z</time>
      </trkpt>
      <trkpt lat="38.91028" lon="1.42277167">
        <ele>-1.0</ele>
        <time>2020-08-17T15:50:19.864Z</time>
      </trkpt>
      <trkpt lat="38.91044667" lon="1.422855">
        <ele>-1.0</ele>
        <time>2020-08-17T15:50:20.847Z</time>
      </trkpt>
      <trkpt lat="38.91044667" lon="1.422855">
        <ele>-1.0</ele>
        <time>2020-08-17T15:50:21.845Z</time>
      </trkpt>
      <trkpt lat="38.910615" lon="1.42293833">
        <ele>0.0</ele>
        <time>2020-08-17T15:50:22.850Z</time>
      </trkpt>
      <trkpt lat="38.910615" lon="1.42293833">
        <ele>0.0</ele>
        <time>2020-08-17T15:50:23.865Z</time>
      </trkpt>
      <trkpt lat="38.91078333" lon="1.42301833">
        <ele>0.0</ele>
        <time>2020-08-17T15:50:24.855Z</time>
      </trkpt>
      <trkpt lat="38.91078333" lon="1.42301833">
        <ele>0.0</ele>
        <time>2020-08-17T15:50:25.846Z</time>
      </trkpt>
      <trkpt lat="38.910955" lon="1.42311">
        <ele>0.0</ele>
        <time>2020-08-17T15:50:26.868Z</time>
      </trkpt>
      <trkpt lat="38.910955" lon="1.42311">
        <ele>0.0</ele>
        <time>2020-08-17T15:50:27.846Z</time>
      </trkpt>
      <trkpt lat="38.91112333" lon="1.42319667">
        <ele>1.0</ele>
        <time>2020-08-17T15:50:28.865Z</time>
      </trkpt>
      <trkpt lat="38.91120833" lon="1.42324167">
        <ele>1.0</ele>
        <time>2020-08-17T15:50:29.850Z</time>
      </trkpt>
      <trkpt lat="38.91120833" lon="1.42324167">
        <ele>1.0</ele>
        <time>2020-08-17T15:50:30.846Z</time>
      </trkpt>
      <trkpt lat="38.91138333" lon="1.423335">
        <ele>0.0</ele>
        <time>2020-08-17T15:50:31.868Z</time>
      </trkpt>
      <trkpt lat="38.91146833" lon="1.42337833">
        <ele>0.0</ele>
        <time>2020-08-17T15:50:32.849Z</time>
      </trkpt>
      <trkpt lat="38.91146833" lon="1.42337833">
        <ele>0.0</ele>
        <time>2020-08-17T15:50:33.863Z</time>
      </trkpt>
      <trkpt lat="38.91163667" lon="1.423465">
        <ele>0.0</ele>
        <time>2020-08-17T15:50:34.850Z</time>
      </trkpt>
      <trkpt lat="38.91163667" lon="1.423465">
        <ele>0.0</ele>
        <time>2020-08-17T15:50:35.884Z</time>
      </trkpt>
      <trkpt lat="38.91180667" lon="1.42355167">
        <ele>-1.0</ele>
        <time>2020-08-17T15:50:36.862Z</time>
      </trkpt>
      <trkpt lat="38.91189" lon="1.423595">
        <ele>-1.0</ele>
        <time>2020-08-17T15:50:37.850Z</time>
      </trkpt>
      <trkpt lat="38.91189" lon="1.423595">
        <ele>-1.0</ele>
        <time>2020-08-17T15:50:38.864Z</time>
      </trkpt>
      <trkpt lat="38.91205833" lon="1.42368167">
        <ele>0.0</ele>
        <time>2020-08-17T15:50:39.849Z</time>
      </trkpt>
      <trkpt lat="38.91205833" lon="1.42368167">
        <ele>0.0</ele>
        <time>2020-08-17T15:50:40.846Z</time>
      </trkpt>
      <trkpt lat="38.912225" lon="1.42376667">
        <ele>0.0</ele>
        <time>2020-08-17T15:50:41.865Z</time>
      </trkpt>
      <trkpt lat="38.91230667" lon="1.42380667">
        <ele>0.0</ele>
        <time>2020-08-17T15:50:42.850Z</time>
      </trkpt>
      <trkpt lat="38.91230667" lon="1.42380667">
        <ele>0.0</ele>
        <time>2020-08-17T15:50:43.884Z</time>
      </trkpt>
      <trkpt lat="38.91246833" lon="1.423885">
        <ele>0.0</ele>
        <time>2020-08-17T15:50:44.862Z</time>
      </trkpt>
      <trkpt lat="38.91246833" lon="1.423885">
        <ele>0.0</ele>
        <time>2020-08-17T15:50:45.846Z</time>
      </trkpt>
      <trkpt lat="38.91262167" lon="1.423965">
        <ele>0.0</ele>
        <time>2020-08-17T15:50:46.865Z</time>
      </trkpt>
      <trkpt lat="38.91262167" lon="1.423965">
        <ele>0.0</ele>
        <time>2020-08-17T15:50:47.884Z</time>
      </trkpt>
      <trkpt lat="38.91276333" lon="1.42407167">
        <ele>0.0</ele>
        <time>2020-08-17T15:50:48.862Z</time>
      </trkpt>
      <trkpt lat="38.91276333" lon="1.42407167">
        <ele>0.0</ele>
        <time>2020-08-17T15:50:49.884Z</time>
      </trkpt>
      <trkpt lat="38.912885" lon="1.42419833">
        <ele>-1.0</ele>
        <time>2020-08-17T15:50:50.863Z</time>
      </trkpt>
      <trkpt lat="38.912885" lon="1.42419833">
        <ele>-1.0</ele>
        <time>2020-08-17T15:50:51.884Z</time>
      </trkpt>
      <trkpt lat="38.91297" lon="1.42432">
        <ele>-1.0</ele>
        <time>2020-08-17T15:50:52.862Z</time>
      </trkpt>
      <trkpt lat="38.91297" lon="1.42432">
        <ele>-1.0</ele>
        <time>2020-08-17T15:50:53.884Z</time>
      </trkpt>
      <trkpt lat="38.91304833" lon="1.42445833">
        <ele>-1.0</ele>
        <time>2020-08-17T15:50:54.863Z</time>
      </trkpt>
      <trkpt lat="38.91310333" lon="1.424525">
        <ele>0.0</ele>
        <time>2020-08-17T15:50:55.849Z</time>
      </trkpt>
      <trkpt lat="38.91310333" lon="1.424525">
        <ele>0.0</ele>
        <time>2020-08-17T15:50:56.851Z</time>
      </trkpt>
      <trkpt lat="38.91326667" lon="1.42460667">
        <ele>0.0</ele>
        <time>2020-08-17T15:50:57.865Z</time>
      </trkpt>
      <trkpt lat="38.913365" lon="1.42462167">
        <ele>0.0</ele>
        <time>2020-08-17T15:50:58.850Z</time>
      </trkpt>
      <trkpt lat="38.913365" lon="1.42462167">
        <ele>0.0</ele>
        <time>2020-08-17T15:50:59.865Z</time>
      </trkpt>
      <trkpt lat="38.91357333" lon="1.42464667">
        <ele>-1.0</ele>
        <time>2020-08-17T15:51:00.863Z</time>
      </trkpt>
      <trkpt lat="38.91357333" lon="1.42464667">
        <ele>-1.0</ele>
        <time>2020-08-17T15:51:01.883Z</time>
      </trkpt>
      <trkpt lat="38.91376167" lon="1.42474833">
        <ele>-1.0</ele>
        <time>2020-08-17T15:51:02.850Z</time>
      </trkpt>
      <trkpt lat="38.91376167" lon="1.42474833">
        <ele>-1.0</ele>
        <time>2020-08-17T15:51:03.883Z</time>
      </trkpt>
      <trkpt lat="38.91393" lon="1.424915">
        <ele>-1.0</ele>
        <time>2020-08-17T15:51:04.863Z</time>
      </trkpt>
      <trkpt lat="38.91393" lon="1.424915">
        <ele>-1.0</ele>
        <time>2020-08-17T15:51:05.884Z</time>
      </trkpt>
      <trkpt lat="38.91408667" lon="1.42508833">
        <ele>-1.0</ele>
        <time>2020-08-17T15:51:06.864Z</time>
      </trkpt>
      <trkpt lat="38.91408667" lon="1.42508833">
        <ele>-1.0</ele>
        <time>2020-08-17T15:51:07.884Z</time>
      </trkpt>
      <trkpt lat="38.91423167" lon="1.42525833">
        <ele>-1.0</ele>
        <time>2020-08-17T15:51:08.870Z</time>
      </trkpt>
      <trkpt lat="38.91423167" lon="1.42525833">
        <ele>-1.0</ele>
        <time>2020-08-17T15:51:09.884Z</time>
      </trkpt>
      <trkpt lat="38.91436333" lon="1.42543833">
        <ele>-1.0</ele>
        <time>2020-08-17T15:51:10.863Z</time>
      </trkpt>
      <trkpt lat="38.91436333" lon="1.42543833">
        <ele>-1.0</ele>
        <time>2020-08-17T15:51:11.884Z</time>
      </trkpt>
      <trkpt lat="38.91449" lon="1.42562167">
        <ele>-2.0</ele>
        <time>2020-08-17T15:51:12.863Z</time>
      </trkpt>
      <trkpt lat="38.91449" lon="1.42562167">
        <ele>-2.0</ele>
        <time>2020-08-17T15:51:13.884Z</time>
      </trkpt>
      <trkpt lat="38.91461167" lon="1.425805">
        <ele>-2.0</ele>
        <time>2020-08-17T15:51:14.849Z</time>
      </trkpt>
      <trkpt lat="38.91461167" lon="1.425805">
        <ele>-2.0</ele>
        <time>2020-08-17T15:51:15.863Z</time>
      </trkpt>
      <trkpt lat="38.91473" lon="1.42599333">
        <ele>-2.0</ele>
        <time>2020-08-17T15:51:16.851Z</time>
      </trkpt>
      <trkpt lat="38.91473" lon="1.42599333">
        <ele>-2.0</ele>
        <time>2020-08-17T15:51:17.866Z</time>
      </trkpt>
      <trkpt lat="38.914845" lon="1.426185">
        <ele>-3.0</ele>
        <time>2020-08-17T15:51:18.849Z</time>
      </trkpt>
      <trkpt lat="38.914845" lon="1.426185">
        <ele>-3.0</ele>
        <time>2020-08-17T15:51:19.884Z</time>
      </trkpt>
      <trkpt lat="38.91495667" lon="1.42637833">
        <ele>-3.0</ele>
        <time>2020-08-17T15:51:20.862Z</time>
      </trkpt>
      <trkpt lat="38.91495667" lon="1.42637833">
        <ele>-3.0</ele>
        <time>2020-08-17T15:51:21.884Z</time>
      </trkpt>
      <trkpt lat="38.91506667" lon="1.42657">
        <ele>-3.0</ele>
        <time>2020-08-17T15:51:22.862Z</time>
      </trkpt>
      <trkpt lat="38.91506667" lon="1.42657">
        <ele>-3.0</ele>
        <time>2020-08-17T15:51:23.884Z</time>
      </trkpt>
      <trkpt lat="38.91517" lon="1.426765">
        <ele>-3.0</ele>
        <time>2020-08-17T15:51:24.860Z</time>
      </trkpt>
      <trkpt lat="38.91517" lon="1.426765">
        <ele>-3.0</ele>
        <time>2020-08-17T15:51:25.884Z</time>
      </trkpt>
      <trkpt lat="38.91527" lon="1.42696">
        <ele>-4.0</ele>
        <time>2020-08-17T15:51:26.863Z</time>
      </trkpt>
      <trkpt lat="38.91527" lon="1.42696">
        <ele>-4.0</ele>
        <time>2020-08-17T15:51:27.884Z</time>
      </trkpt>
      <trkpt lat="38.915365" lon="1.42715833">
        <ele>-4.0</ele>
        <time>2020-08-17T15:51:28.864Z</time>
      </trkpt>
      <trkpt lat="38.915365" lon="1.42715833">
        <ele>-4.0</ele>
        <time>2020-08-17T15:51:29.884Z</time>
      </trkpt>
      <trkpt lat="38.91545833" lon="1.42736167">
        <ele>-4.0</ele>
        <time>2020-08-17T15:51:30.850Z</time>
      </trkpt>
      <trkpt lat="38.91545833" lon="1.42736167">
        <ele>-4.0</ele>
        <time>2020-08-17T15:51:31.865Z</time>
      </trkpt>
      <trkpt lat="38.915545" lon="1.42756167">
        <ele>-4.0</ele>
        <time>2020-08-17T15:51:32.849Z</time>
      </trkpt>
      <trkpt lat="38.915545" lon="1.42756167">
        <ele>-4.0</ele>
        <time>2020-08-17T15:51:33.864Z</time>
      </trkpt>
      <trkpt lat="38.91560333" lon="1.42775667">
        <ele>-5.0</ele>
        <time>2020-08-17T15:51:34.850Z</time>
      </trkpt>
      <trkpt lat="38.91560333" lon="1.42775667">
        <ele>-5.0</ele>
        <time>2020-08-17T15:51:35.865Z</time>
      </trkpt>
      <trkpt lat="38.91561333" lon="1.42792833">
        <ele>-6.0</ele>
        <time>2020-08-17T15:51:36.849Z</time>
      </trkpt>
      <trkpt lat="38.91561333" lon="1.42792833">
        <ele>-6.0</ele>
        <time>2020-08-17T15:51:37.864Z</time>
      </trkpt>
      <trkpt lat="38.915605" lon="1.42807833">
        <ele>-6.0</ele>
        <time>2020-08-17T15:51:38.850Z</time>
      </trkpt>
      <trkpt lat="38.915605" lon="1.42807833">
        <ele>-6.0</ele>
        <time>2020-08-17T15:51:39.884Z</time>
      </trkpt>
      <trkpt lat="38.91560667" lon="1.428255">
        <ele>-7.0</ele>
        <time>2020-08-17T15:51:40.863Z</time>
      </trkpt>
      <trkpt lat="38.91560667" lon="1.428255">
        <ele>-7.0</ele>
        <time>2020-08-17T15:51:41.881Z</time>
      </trkpt>
      <trkpt lat="38.91566667" lon="1.42843333">
        <ele>-8.0</ele>
        <time>2020-08-17T15:51:42.861Z</time>
      </trkpt>
      <trkpt lat="38.91566667" lon="1.42843333">
        <ele>-8.0</ele>
        <time>2020-08-17T15:51:43.884Z</time>
      </trkpt>
      <trkpt lat="38.91578167" lon="1.42855333">
        <ele>-9.0</ele>
        <time>2020-08-17T15:51:44.863Z</time>
      </trkpt>
      <trkpt lat="38.91578167" lon="1.42855333">
        <ele>-9.0</ele>
        <time>2020-08-17T15:51:45.884Z</time>
      </trkpt>
      <trkpt lat="38.91593333" lon="1.42857167">
        <ele>-8.0</ele>
        <time>2020-08-17T15:51:46.863Z</time>
      </trkpt>
      <trkpt lat="38.916005" lon="1.42853833">
        <ele>-7.0</ele>
        <time>2020-08-17T15:51:47.850Z</time>
      </trkpt>
      <trkpt lat="38.916005" lon="1.42853833">
        <ele>-7.0</ele>
        <time>2020-08-17T15:51:48.847Z</time>
      </trkpt>
      <trkpt lat="38.91611833" lon="1.42841833">
        <ele>-7.0</ele>
        <time>2020-08-17T15:51:49.850Z</time>
      </trkpt>
      <trkpt lat="38.91611833" lon="1.42841833">
        <ele>-7.0</ele>
        <time>2020-08-17T15:51:50.884Z</time>
      </trkpt>
      <trkpt lat="38.91618333" lon="1.42826333">
        <ele>-7.0</ele>
        <time>2020-08-17T15:51:51.865Z</time>
      </trkpt>
      <trkpt lat="38.91621667" lon="1.4282">
        <ele>-7.0</ele>
        <time>2020-08-17T15:51:52.850Z</time>
      </trkpt>
      <trkpt lat="38.91621667" lon="1.4282">
        <ele>-7.0</ele>
        <time>2020-08-17T15:51:53.884Z</time>
      </trkpt>
      <trkpt lat="38.916275" lon="1.42811667">
        <ele>-6.0</ele>
        <time>2020-08-17T15:51:54.863Z</time>
      </trkpt>
      <trkpt lat="38.91629167" lon="1.428095">
        <ele>-6.0</ele>
        <time>2020-08-17T15:51:55.850Z</time>
      </trkpt>
      <trkpt lat="38.91629167" lon="1.428095">
        <ele>-6.0</ele>
        <time>2020-08-17T15:51:56.865Z</time>
      </trkpt>
      <trkpt lat="38.91631167" lon="1.42808333">
        <ele>-6.0</ele>
        <time>2020-08-17T15:51:57.849Z</time>
      </trkpt>
      <trkpt lat="38.91633167" lon="1.42807167">
        <ele>-6.0</ele>
        <time>2020-08-17T15:51:58.851Z</time>
      </trkpt>
      <trkpt lat="38.91633167" lon="1.42807167">
        <ele>-6.0</ele>
        <time>2020-08-17T15:51:59.845Z</time>
      </trkpt>
      <trkpt lat="38.91639833" lon="1.42801667">
        <ele>-5.0</ele>
        <time>2020-08-17T15:52:00.849Z</time>
      </trkpt>
      <trkpt lat="38.91644333" lon="1.42798333">
        <ele>-5.0</ele>
        <time>2020-08-17T15:52:01.865Z</time>
      </trkpt>
      <trkpt lat="38.91644333" lon="1.42798333">
        <ele>-5.0</ele>
        <time>2020-08-17T15:52:02.859Z</time>
      </trkpt>
      <trkpt lat="38.91653667" lon="1.42791833">
        <ele>-5.0</ele>
        <time>2020-08-17T15:52:03.850Z</time>
      </trkpt>
      <trkpt lat="38.91653667" lon="1.42791833">
        <ele>-5.0</ele>
        <time>2020-08-17T15:52:04.865Z</time>
      </trkpt>
      <trkpt lat="38.91665167" lon="1.42785167">
        <ele>-5.0</ele>
        <time>2020-08-17T15:52:05.849Z</time>
      </trkpt>
      <trkpt lat="38.91665167" lon="1.42785167">
        <ele>-5.0</ele>
        <time>2020-08-17T15:52:06.865Z</time>
      </trkpt>
      <trkpt lat="38.91677333" lon="1.42782833">
        <ele>-5.0</ele>
        <time>2020-08-17T15:52:07.850Z</time>
      </trkpt>
      <trkpt lat="38.91677333" lon="1.42782833">
        <ele>-5.0</ele>
        <time>2020-08-17T15:52:08.865Z</time>
      </trkpt>
      <trkpt lat="38.91691" lon="1.427855">
        <ele>-5.0</ele>
        <time>2020-08-17T15:52:09.849Z</time>
      </trkpt>
      <trkpt lat="38.91697667" lon="1.427875">
        <ele>-6.0</ele>
        <time>2020-08-17T15:52:10.850Z</time>
      </trkpt>
      <trkpt lat="38.91697667" lon="1.427875">
        <ele>-6.0</ele>
        <time>2020-08-17T15:52:11.865Z</time>
      </trkpt>
      <trkpt lat="38.91711167" lon="1.42792833">
        <ele>-5.0</ele>
        <time>2020-08-17T15:52:12.849Z</time>
      </trkpt>
      <trkpt lat="38.91711167" lon="1.42792833">
        <ele>-5.0</ele>
        <time>2020-08-17T15:52:13.865Z</time>
      </trkpt>
      <trkpt lat="38.91722" lon="1.42803833">
        <ele>-5.0</ele>
        <time>2020-08-17T15:52:14.849Z</time>
      </trkpt>
      <trkpt lat="38.91722" lon="1.42803833">
        <ele>-5.0</ele>
        <time>2020-08-17T15:52:15.863Z</time>
      </trkpt>
      <trkpt lat="38.91727833" lon="1.42819833">
        <ele>-6.0</ele>
        <time>2020-08-17T15:52:16.851Z</time>
      </trkpt>
      <trkpt lat="38.91727833" lon="1.42819833">
        <ele>-6.0</ele>
        <time>2020-08-17T15:52:17.884Z</time>
      </trkpt>
      <trkpt lat="38.91736167" lon="1.42832667">
        <ele>-6.0</ele>
        <time>2020-08-17T15:52:18.862Z</time>
      </trkpt>
      <trkpt lat="38.91736167" lon="1.42832667">
        <ele>-6.0</ele>
        <time>2020-08-17T15:52:19.847Z</time>
      </trkpt>
      <trkpt lat="38.91749" lon="1.42833667">
        <ele>-6.0</ele>
        <time>2020-08-17T15:52:20.865Z</time>
      </trkpt>
      <trkpt lat="38.91749" lon="1.42833667">
        <ele>-6.0</ele>
        <time>2020-08-17T15:52:21.884Z</time>
      </trkpt>
      <trkpt lat="38.91761333" lon="1.428325">
        <ele>-6.0</ele>
        <time>2020-08-17T15:52:22.862Z</time>
      </trkpt>
      <trkpt lat="38.91761333" lon="1.428325">
        <ele>-6.0</ele>
        <time>2020-08-17T15:52:23.884Z</time>
      </trkpt>
      <trkpt lat="38.91772667" lon="1.428405">
        <ele>-5.0</ele>
        <time>2020-08-17T15:52:24.851Z</time>
      </trkpt>
      <trkpt lat="38.91772667" lon="1.428405">
        <ele>-5.0</ele>
        <time>2020-08-17T15:52:25.865Z</time>
      </trkpt>
      <trkpt lat="38.91785167" lon="1.4285">
        <ele>-5.0</ele>
        <time>2020-08-17T15:52:26.861Z</time>
      </trkpt>
      <trkpt lat="38.917915" lon="1.42854833">
        <ele>-5.0</ele>
        <time>2020-08-17T15:52:27.864Z</time>
      </trkpt>
      <trkpt lat="38.917915" lon="1.42854833">
        <ele>-5.0</ele>
        <time>2020-08-17T15:52:28.851Z</time>
      </trkpt>
      <trkpt lat="38.917915" lon="1.42854833">
        <ele>-5.0</ele>
        <time>2020-08-17T15:52:29.856Z</time>
      </trkpt>
      <trkpt lat="38.91804333" lon="1.42863833">
        <ele>-5.0</ele>
        <time>2020-08-17T15:52:30.860Z</time>
      </trkpt>
      <trkpt lat="38.91817833" lon="1.428705">
        <ele>-4.0</ele>
        <time>2020-08-17T15:52:31.856Z</time>
      </trkpt>
      <trkpt lat="38.91817833" lon="1.428705">
        <ele>-4.0</ele>
        <time>2020-08-17T15:52:32.847Z</time>
      </trkpt>
      <trkpt lat="38.91831667" lon="1.42875833">
        <ele>-4.0</ele>
        <time>2020-08-17T15:52:33.851Z</time>
      </trkpt>
      <trkpt lat="38.91838333" lon="1.42877667">
        <ele>-4.0</ele>
        <time>2020-08-17T15:52:34.854Z</time>
      </trkpt>
      <trkpt lat="38.91838333" lon="1.42877667">
        <ele>-4.0</ele>
        <time>2020-08-17T15:52:35.847Z</time>
      </trkpt>
      <trkpt lat="38.91852167" lon="1.42881333">
        <ele>-4.0</ele>
        <time>2020-08-17T15:52:36.852Z</time>
      </trkpt>
      <trkpt lat="38.91852167" lon="1.42881333">
        <ele>-4.0</ele>
        <time>2020-08-17T15:52:37.846Z</time>
      </trkpt>
      <trkpt lat="38.91865833" lon="1.42884833">
        <ele>-3.0</ele>
        <time>2020-08-17T15:52:38.853Z</time>
      </trkpt>
      <trkpt lat="38.91872667" lon="1.428865">
        <ele>-3.0</ele>
        <time>2020-08-17T15:52:39.850Z</time>
      </trkpt>
      <trkpt lat="38.91872667" lon="1.428865">
        <ele>-3.0</ele>
        <time>2020-08-17T15:52:40.851Z</time>
      </trkpt>
      <trkpt lat="38.91886" lon="1.42890167">
        <ele>-3.0</ele>
        <time>2020-08-17T15:52:41.852Z</time>
      </trkpt>
      <trkpt lat="38.91886" lon="1.42890167">
        <ele>-3.0</ele>
        <time>2020-08-17T15:52:42.845Z</time>
      </trkpt>
      <trkpt lat="38.91899" lon="1.42893167">
        <ele>-3.0</ele>
        <time>2020-08-17T15:52:43.850Z</time>
      </trkpt>
      <trkpt lat="38.919055" lon="1.42894667">
        <ele>-3.0</ele>
        <time>2020-08-17T15:52:44.851Z</time>
      </trkpt>
      <trkpt lat="38.919055" lon="1.42894667">
        <ele>-3.0</ele>
        <time>2020-08-17T15:52:45.849Z</time>
      </trkpt>
      <trkpt lat="38.91918833" lon="1.42897833">
        <ele>-3.0</ele>
        <time>2020-08-17T15:52:46.853Z</time>
      </trkpt>
      <trkpt lat="38.91918833" lon="1.42897833">
        <ele>-3.0</ele>
        <time>2020-08-17T15:52:47.849Z</time>
      </trkpt>
      <trkpt lat="38.91932167" lon="1.42899833">
        <ele>-3.0</ele>
        <time>2020-08-17T15:52:48.853Z</time>
      </trkpt>
      <trkpt lat="38.91932167" lon="1.42899833">
        <ele>-3.0</ele>
        <time>2020-08-17T15:52:49.884Z</time>
      </trkpt>
      <trkpt lat="38.91945667" lon="1.42900167">
        <ele>-3.0</ele>
        <time>2020-08-17T15:52:50.870Z</time>
      </trkpt>
      <trkpt lat="38.919525" lon="1.42899333">
        <ele>-3.0</ele>
        <time>2020-08-17T15:52:51.860Z</time>
      </trkpt>
      <trkpt lat="38.919525" lon="1.42899333">
        <ele>-3.0</ele>
        <time>2020-08-17T15:52:52.846Z</time>
      </trkpt>
      <trkpt lat="38.91966" lon="1.42896667">
        <ele>-2.0</ele>
        <time>2020-08-17T15:52:53.851Z</time>
      </trkpt>
      <trkpt lat="38.91973" lon="1.42894833">
        <ele>-2.0</ele>
        <time>2020-08-17T15:52:54.850Z</time>
      </trkpt>
      <trkpt lat="38.91973" lon="1.42894833">
        <ele>-2.0</ele>
        <time>2020-08-17T15:52:55.847Z</time>
      </trkpt>
      <trkpt lat="38.91986667" lon="1.42891">
        <ele>-1.0</ele>
        <time>2020-08-17T15:52:56.850Z</time>
      </trkpt>
      <trkpt lat="38.91986667" lon="1.42891">
        <ele>-1.0</ele>
        <time>2020-08-17T15:52:57.885Z</time>
      </trkpt>
      <trkpt lat="38.92000167" lon="1.42888667">
        <ele>-1.0</ele>
        <time>2020-08-17T15:52:58.852Z</time>
      </trkpt>
      <trkpt lat="38.92000167" lon="1.42888667">
        <ele>-1.0</ele>
        <time>2020-08-17T15:52:59.854Z</time>
      </trkpt>
      <trkpt lat="38.92014167" lon="1.42888">
        <ele>0.0</ele>
        <time>2020-08-17T15:53:00.853Z</time>
      </trkpt>
      <trkpt lat="38.92014167" lon="1.42888">
        <ele>0.0</ele>
        <time>2020-08-17T15:53:01.848Z</time>
      </trkpt>
      <trkpt lat="38.92028167" lon="1.42889167">
        <ele>0.0</ele>
        <time>2020-08-17T15:53:02.847Z</time>
      </trkpt>
      <trkpt lat="38.920355" lon="1.42889833">
        <ele>0.0</ele>
        <time>2020-08-17T15:53:03.849Z</time>
      </trkpt>
      <trkpt lat="38.92043167" lon="1.42890333">
        <ele>-1.0</ele>
        <time>2020-08-17T15:53:04.852Z</time>
      </trkpt>
      <trkpt lat="38.92043167" lon="1.42890333">
        <ele>-1.0</ele>
        <time>2020-08-17T15:53:05.849Z</time>
      </trkpt>
      <trkpt lat="38.92059667" lon="1.42892667">
        <ele>-2.0</ele>
        <time>2020-08-17T15:53:06.850Z</time>
      </trkpt>
      <trkpt lat="38.92059667" lon="1.42892667">
        <ele>-2.0</ele>
        <time>2020-08-17T15:53:07.847Z</time>
      </trkpt>
      <trkpt lat="38.92078167" lon="1.42896167">
        <ele>-5.0</ele>
        <time>2020-08-17T15:53:08.846Z</time>
      </trkpt>
      <trkpt lat="38.92078167" lon="1.42896167">
        <ele>-5.0</ele>
        <time>2020-08-17T15:53:09.862Z</time>
      </trkpt>
      <trkpt lat="38.920985" lon="1.429035">
        <ele>-7.0</ele>
        <time>2020-08-17T15:53:10.851Z</time>
      </trkpt>
      <trkpt lat="38.920985" lon="1.429035">
        <ele>-7.0</ele>
        <time>2020-08-17T15:53:11.845Z</time>
      </trkpt>
      <trkpt lat="38.921185" lon="1.42914">
        <ele>-9.0</ele>
        <time>2020-08-17T15:53:12.869Z</time>
      </trkpt>
      <trkpt lat="38.92128833" lon="1.42919333">
        <ele>-9.0</ele>
        <time>2020-08-17T15:53:13.851Z</time>
      </trkpt>
      <trkpt lat="38.92128833" lon="1.42919333">
        <ele>-9.0</ele>
        <time>2020-08-17T15:53:14.884Z</time>
      </trkpt>
      <trkpt lat="38.92147167" lon="1.429305">
        <ele>-11.0</ele>
        <time>2020-08-17T15:53:15.863Z</time>
      </trkpt>
      <trkpt lat="38.92147167" lon="1.429305">
        <ele>-11.0</ele>
        <time>2020-08-17T15:53:16.846Z</time>
      </trkpt>
      <trkpt lat="38.92163833" lon="1.42940167">
        <ele>-13.0</ele>
        <time>2020-08-17T15:53:17.851Z</time>
      </trkpt>
      <trkpt lat="38.92172" lon="1.42944333">
        <ele>-14.0</ele>
        <time>2020-08-17T15:53:18.851Z</time>
      </trkpt>
      <trkpt lat="38.92172" lon="1.42944333">
        <ele>-14.0</ele>
        <time>2020-08-17T15:53:19.848Z</time>
      </trkpt>
      <trkpt lat="38.92188333" lon="1.42950333">
        <ele>-13.0</ele>
        <time>2020-08-17T15:53:20.864Z</time>
      </trkpt>
      <trkpt lat="38.92188333" lon="1.42950333">
        <ele>-13.0</ele>
        <time>2020-08-17T15:53:21.849Z</time>
      </trkpt>
      <trkpt lat="38.92203167" lon="1.42954167">
        <ele>-13.0</ele>
        <time>2020-08-17T15:53:22.882Z</time>
      </trkpt>
      <trkpt lat="38.9221" lon="1.42955167">
        <ele>-13.0</ele>
        <time>2020-08-17T15:53:23.850Z</time>
      </trkpt>
      <trkpt lat="38.92217" lon="1.429555">
        <ele>-13.0</ele>
        <time>2020-08-17T15:53:24.853Z</time>
      </trkpt>
      <trkpt lat="38.92217" lon="1.429555">
        <ele>-13.0</ele>
        <time>2020-08-17T15:53:25.848Z</time>
      </trkpt>
      <trkpt lat="38.92217" lon="1.429555">
        <ele>-13.0</ele>
        <time>2020-08-17T15:53:26.850Z</time>
      </trkpt>
      <trkpt lat="38.92237" lon="1.42954333">
        <ele>-11.0</ele>
        <time>2020-08-17T15:53:27.851Z</time>
      </trkpt>
      <trkpt lat="38.92237" lon="1.42954333">
        <ele>-11.0</ele>
        <time>2020-08-17T15:53:28.866Z</time>
      </trkpt>
      <trkpt lat="38.92250667" lon="1.429535">
        <ele>-11.0</ele>
        <time>2020-08-17T15:53:29.851Z</time>
      </trkpt>
      <trkpt lat="38.92250667" lon="1.429535">
        <ele>-11.0</ele>
        <time>2020-08-17T15:53:30.849Z</time>
      </trkpt>
      <trkpt lat="38.922645" lon="1.42952">
        <ele>-9.0</ele>
        <time>2020-08-17T15:53:31.852Z</time>
      </trkpt>
      <trkpt lat="38.922645" lon="1.42952">
        <ele>-9.0</ele>
        <time>2020-08-17T15:53:32.849Z</time>
      </trkpt>
      <trkpt lat="38.92277833" lon="1.429525">
        <ele>-9.0</ele>
        <time>2020-08-17T15:53:33.851Z</time>
      </trkpt>
      <trkpt lat="38.92277833" lon="1.429525">
        <ele>-9.0</ele>
        <time>2020-08-17T15:53:34.849Z</time>
      </trkpt>
      <trkpt lat="38.92290667" lon="1.42954167">
        <ele>-9.0</ele>
        <time>2020-08-17T15:53:35.850Z</time>
      </trkpt>
      <trkpt lat="38.92290667" lon="1.42954167">
        <ele>-9.0</ele>
        <time>2020-08-17T15:53:36.868Z</time>
      </trkpt>
      <trkpt lat="38.92303333" lon="1.429555">
        <ele>-8.0</ele>
        <time>2020-08-17T15:53:37.850Z</time>
      </trkpt>
      <trkpt lat="38.92303333" lon="1.429555">
        <ele>-8.0</ele>
        <time>2020-08-17T15:53:38.885Z</time>
      </trkpt>
      <trkpt lat="38.92316" lon="1.42956667">
        <ele>-8.0</ele>
        <time>2020-08-17T15:53:39.866Z</time>
      </trkpt>
      <trkpt lat="38.92316" lon="1.42956667">
        <ele>-8.0</ele>
        <time>2020-08-17T15:53:40.848Z</time>
      </trkpt>
      <trkpt lat="38.92328667" lon="1.42958667">
        <ele>-7.0</ele>
        <time>2020-08-17T15:53:41.869Z</time>
      </trkpt>
      <trkpt lat="38.92335" lon="1.429595">
        <ele>-7.0</ele>
        <time>2020-08-17T15:53:42.854Z</time>
      </trkpt>
      <trkpt lat="38.92335" lon="1.429595">
        <ele>-7.0</ele>
        <time>2020-08-17T15:53:43.852Z</time>
      </trkpt>
      <trkpt lat="38.92348" lon="1.42961167">
        <ele>-7.0</ele>
        <time>2020-08-17T15:53:44.851Z</time>
      </trkpt>
      <trkpt lat="38.92348" lon="1.42961167">
        <ele>-7.0</ele>
        <time>2020-08-17T15:53:45.865Z</time>
      </trkpt>
      <trkpt lat="38.92361" lon="1.42963667">
        <ele>-7.0</ele>
        <time>2020-08-17T15:53:46.851Z</time>
      </trkpt>
      <trkpt lat="38.92367333" lon="1.42964667">
        <ele>-6.0</ele>
        <time>2020-08-17T15:53:47.850Z</time>
      </trkpt>
      <trkpt lat="38.92367333" lon="1.42964667">
        <ele>-6.0</ele>
        <time>2020-08-17T15:53:48.847Z</time>
      </trkpt>
      <trkpt lat="38.92380167" lon="1.42966333">
        <ele>-6.0</ele>
        <time>2020-08-17T15:53:49.851Z</time>
      </trkpt>
      <trkpt lat="38.92380167" lon="1.42966333">
        <ele>-6.0</ele>
        <time>2020-08-17T15:53:50.848Z</time>
      </trkpt>
      <trkpt lat="38.92392833" lon="1.42968">
        <ele>-5.0</ele>
        <time>2020-08-17T15:53:51.850Z</time>
      </trkpt>
      <trkpt lat="38.92398833" lon="1.42969333">
        <ele>-5.0</ele>
        <time>2020-08-17T15:53:52.851Z</time>
      </trkpt>
      <trkpt lat="38.92398833" lon="1.42969333">
        <ele>-5.0</ele>
        <time>2020-08-17T15:53:53.848Z</time>
      </trkpt>
      <trkpt lat="38.92411" lon="1.42971167">
        <ele>-5.0</ele>
        <time>2020-08-17T15:53:54.850Z</time>
      </trkpt>
      <trkpt lat="38.92411" lon="1.42971167">
        <ele>-5.0</ele>
        <time>2020-08-17T15:53:55.848Z</time>
      </trkpt>
      <trkpt lat="38.92423333" lon="1.42972">
        <ele>-4.0</ele>
        <time>2020-08-17T15:53:56.851Z</time>
      </trkpt>
      <trkpt lat="38.92423333" lon="1.42972">
        <ele>-4.0</ele>
        <time>2020-08-17T15:53:57.865Z</time>
      </trkpt>
      <trkpt lat="38.92435667" lon="1.429735">
        <ele>-4.0</ele>
        <time>2020-08-17T15:53:58.851Z</time>
      </trkpt>
      <trkpt lat="38.92441833" lon="1.42974">
        <ele>-4.0</ele>
        <time>2020-08-17T15:53:59.865Z</time>
      </trkpt>
      <trkpt lat="38.92441833" lon="1.42974">
        <ele>-4.0</ele>
        <time>2020-08-17T15:54:00.845Z</time>
      </trkpt>
      <trkpt lat="38.92454167" lon="1.42975167">
        <ele>-4.0</ele>
        <time>2020-08-17T15:54:01.851Z</time>
      </trkpt>
      <trkpt lat="38.92454167" lon="1.42975167">
        <ele>-4.0</ele>
        <time>2020-08-17T15:54:02.848Z</time>
      </trkpt>
      <trkpt lat="38.924665" lon="1.42975833">
        <ele>-4.0</ele>
        <time>2020-08-17T15:54:03.851Z</time>
      </trkpt>
      <trkpt lat="38.924665" lon="1.42975833">
        <ele>-4.0</ele>
        <time>2020-08-17T15:54:04.866Z</time>
      </trkpt>
      <trkpt lat="38.92478833" lon="1.42977167">
        <ele>-4.0</ele>
        <time>2020-08-17T15:54:05.867Z</time>
      </trkpt>
      <trkpt lat="38.92485" lon="1.42977833">
        <ele>-3.0</ele>
        <time>2020-08-17T15:54:06.851Z</time>
      </trkpt>
      <trkpt lat="38.92485" lon="1.42977833">
        <ele>-3.0</ele>
        <time>2020-08-17T15:54:07.848Z</time>
      </trkpt>
      <trkpt lat="38.924975" lon="1.42979">
        <ele>-3.0</ele>
        <time>2020-08-17T15:54:08.850Z</time>
      </trkpt>
      <trkpt lat="38.92503667" lon="1.42979667">
        <ele>-3.0</ele>
        <time>2020-08-17T15:54:09.850Z</time>
      </trkpt>
      <trkpt lat="38.92503667" lon="1.42979667">
        <ele>-3.0</ele>
        <time>2020-08-17T15:54:10.866Z</time>
      </trkpt>
      <trkpt lat="38.92516" lon="1.429805">
        <ele>-3.0</ele>
        <time>2020-08-17T15:54:11.851Z</time>
      </trkpt>
      <trkpt lat="38.92516" lon="1.429805">
        <ele>-3.0</ele>
        <time>2020-08-17T15:54:12.866Z</time>
      </trkpt>
      <trkpt lat="38.92528167" lon="1.429815">
        <ele>-3.0</ele>
        <time>2020-08-17T15:54:13.851Z</time>
      </trkpt>
      <trkpt lat="38.92528167" lon="1.429815">
        <ele>-3.0</ele>
        <time>2020-08-17T15:54:14.850Z</time>
      </trkpt>
      <trkpt lat="38.92540333" lon="1.42982">
        <ele>-3.0</ele>
        <time>2020-08-17T15:54:15.851Z</time>
      </trkpt>
      <trkpt lat="38.92540333" lon="1.42982">
        <ele>-3.0</ele>
        <time>2020-08-17T15:54:16.849Z</time>
      </trkpt>
      <trkpt lat="38.92552333" lon="1.42981667">
        <ele>-3.0</ele>
        <time>2020-08-17T15:54:17.850Z</time>
      </trkpt>
      <trkpt lat="38.92558167" lon="1.42981833">
        <ele>-3.0</ele>
        <time>2020-08-17T15:54:18.864Z</time>
      </trkpt>
      <trkpt lat="38.92558167" lon="1.42981833">
        <ele>-3.0</ele>
        <time>2020-08-17T15:54:19.847Z</time>
      </trkpt>
      <trkpt lat="38.92569667" lon="1.42983">
        <ele>-3.0</ele>
        <time>2020-08-17T15:54:20.871Z</time>
      </trkpt>
      <trkpt lat="38.92569667" lon="1.42983">
        <ele>-3.0</ele>
        <time>2020-08-17T15:54:21.847Z</time>
      </trkpt>
      <trkpt lat="38.92580833" lon="1.42984">
        <ele>-1.0</ele>
        <time>2020-08-17T15:54:22.867Z</time>
      </trkpt>
      <trkpt lat="38.925865" lon="1.429845">
        <ele>-1.0</ele>
        <time>2020-08-17T15:54:23.850Z</time>
      </trkpt>
      <trkpt lat="38.925865" lon="1.429845">
        <ele>-1.0</ele>
        <time>2020-08-17T15:54:24.846Z</time>
      </trkpt>
      <trkpt lat="38.92597833" lon="1.42985333">
        <ele>0.0</ele>
        <time>2020-08-17T15:54:25.866Z</time>
      </trkpt>
      <trkpt lat="38.92597833" lon="1.42985333">
        <ele>0.0</ele>
        <time>2020-08-17T15:54:26.849Z</time>
      </trkpt>
      <trkpt lat="38.92609" lon="1.42986">
        <ele>1.0</ele>
        <time>2020-08-17T15:54:27.851Z</time>
      </trkpt>
      <trkpt lat="38.92609" lon="1.42986">
        <ele>1.0</ele>
        <time>2020-08-17T15:54:28.849Z</time>
      </trkpt>
      <trkpt lat="38.9262" lon="1.42987167">
        <ele>2.0</ele>
        <time>2020-08-17T15:54:29.873Z</time>
      </trkpt>
      <trkpt lat="38.9262" lon="1.42987167">
        <ele>2.0</ele>
        <time>2020-08-17T15:54:30.860Z</time>
      </trkpt>
      <trkpt lat="38.92631" lon="1.42988167">
        <ele>3.0</ele>
        <time>2020-08-17T15:54:31.867Z</time>
      </trkpt>
      <trkpt lat="38.92631" lon="1.42988167">
        <ele>3.0</ele>
        <time>2020-08-17T15:54:32.875Z</time>
      </trkpt>
      <trkpt lat="38.92642167" lon="1.42989">
        <ele>3.0</ele>
        <time>2020-08-17T15:54:33.848Z</time>
      </trkpt>
      <trkpt lat="38.92642167" lon="1.42989">
        <ele>3.0</ele>
        <time>2020-08-17T15:54:34.846Z</time>
      </trkpt>
      <trkpt lat="38.92653167" lon="1.42990167">
        <ele>3.0</ele>
        <time>2020-08-17T15:54:35.851Z</time>
      </trkpt>
      <trkpt lat="38.92653167" lon="1.42990167">
        <ele>3.0</ele>
        <time>2020-08-17T15:54:36.849Z</time>
      </trkpt>
      <trkpt lat="38.92664667" lon="1.42990833">
        <ele>4.0</ele>
        <time>2020-08-17T15:54:37.850Z</time>
      </trkpt>
      <trkpt lat="38.92670167" lon="1.42991">
        <ele>4.0</ele>
        <time>2020-08-17T15:54:38.870Z</time>
      </trkpt>
      <trkpt lat="38.92670167" lon="1.42991">
        <ele>4.0</ele>
        <time>2020-08-17T15:54:39.848Z</time>
      </trkpt>
      <trkpt lat="38.92681667" lon="1.42991667">
        <ele>4.0</ele>
        <time>2020-08-17T15:54:40.852Z</time>
      </trkpt>
      <trkpt lat="38.92687667" lon="1.42992167">
        <ele>4.0</ele>
        <time>2020-08-17T15:54:41.852Z</time>
      </trkpt>
      <trkpt lat="38.92687667" lon="1.42992167">
        <ele>4.0</ele>
        <time>2020-08-17T15:54:42.848Z</time>
      </trkpt>
      <trkpt lat="38.92699333" lon="1.42993167">
        <ele>4.0</ele>
        <time>2020-08-17T15:54:43.870Z</time>
      </trkpt>
      <trkpt lat="38.92705333" lon="1.429935">
        <ele>4.0</ele>
        <time>2020-08-17T15:54:44.851Z</time>
      </trkpt>
      <trkpt lat="38.92705333" lon="1.429935">
        <ele>4.0</ele>
        <time>2020-08-17T15:54:45.866Z</time>
      </trkpt>
      <trkpt lat="38.92716833" lon="1.42994333">
        <ele>5.0</ele>
        <time>2020-08-17T15:54:46.850Z</time>
      </trkpt>
      <trkpt lat="38.92722667" lon="1.429945">
        <ele>5.0</ele>
        <time>2020-08-17T15:54:47.866Z</time>
      </trkpt>
      <trkpt lat="38.92728667" lon="1.429945">
        <ele>5.0</ele>
        <time>2020-08-17T15:54:48.850Z</time>
      </trkpt>
      <trkpt lat="38.92728667" lon="1.429945">
        <ele>5.0</ele>
        <time>2020-08-17T15:54:49.875Z</time>
      </trkpt>
      <trkpt lat="38.927405" lon="1.42993833">
        <ele>5.0</ele>
        <time>2020-08-17T15:54:50.855Z</time>
      </trkpt>
      <trkpt lat="38.927405" lon="1.42993833">
        <ele>5.0</ele>
        <time>2020-08-17T15:54:51.884Z</time>
      </trkpt>
      <trkpt lat="38.927525" lon="1.42992167">
        <ele>5.0</ele>
        <time>2020-08-17T15:54:52.863Z</time>
      </trkpt>
      <trkpt lat="38.927525" lon="1.42992167">
        <ele>5.0</ele>
        <time>2020-08-17T15:54:53.861Z</time>
      </trkpt>
      <trkpt lat="38.927645" lon="1.42990167">
        <ele>6.0</ele>
        <time>2020-08-17T15:54:54.857Z</time>
      </trkpt>
      <trkpt lat="38.927645" lon="1.42990167">
        <ele>6.0</ele>
        <time>2020-08-17T15:54:55.862Z</time>
      </trkpt>
      <trkpt lat="38.92777" lon="1.42987833">
        <ele>6.0</ele>
        <time>2020-08-17T15:54:56.869Z</time>
      </trkpt>
      <trkpt lat="38.92783167" lon="1.42986667">
        <ele>6.0</ele>
        <time>2020-08-17T15:54:57.851Z</time>
      </trkpt>
      <trkpt lat="38.92783167" lon="1.42986667">
        <ele>6.0</ele>
        <time>2020-08-17T15:54:58.866Z</time>
      </trkpt>
      <trkpt lat="38.927955" lon="1.429845">
        <ele>6.0</ele>
        <time>2020-08-17T15:54:59.864Z</time>
      </trkpt>
      <trkpt lat="38.92801667" lon="1.42984">
        <ele>6.0</ele>
        <time>2020-08-17T15:55:00.854Z</time>
      </trkpt>
      <trkpt lat="38.92801667" lon="1.42984">
        <ele>6.0</ele>
        <time>2020-08-17T15:55:01.857Z</time>
      </trkpt>
      <trkpt lat="38.92814167" lon="1.42984">
        <ele>6.0</ele>
        <time>2020-08-17T15:55:02.852Z</time>
      </trkpt>
      <trkpt lat="38.92814167" lon="1.42984">
        <ele>6.0</ele>
        <time>2020-08-17T15:55:03.868Z</time>
      </trkpt>
      <trkpt lat="38.92826833" lon="1.42984">
        <ele>6.0</ele>
        <time>2020-08-17T15:55:04.851Z</time>
      </trkpt>
      <trkpt lat="38.92826833" lon="1.42984">
        <ele>6.0</ele>
        <time>2020-08-17T15:55:05.847Z</time>
      </trkpt>
      <trkpt lat="38.92839333" lon="1.42984667">
        <ele>6.0</ele>
        <time>2020-08-17T15:55:06.849Z</time>
      </trkpt>
      <trkpt lat="38.92845667" lon="1.42984833">
        <ele>6.0</ele>
        <time>2020-08-17T15:55:07.866Z</time>
      </trkpt>
      <trkpt lat="38.92845667" lon="1.42984833">
        <ele>6.0</ele>
        <time>2020-08-17T15:55:08.848Z</time>
      </trkpt>
      <trkpt lat="38.928585" lon="1.42985667">
        <ele>6.0</ele>
        <time>2020-08-17T15:55:09.851Z</time>
      </trkpt>
      <trkpt lat="38.92864833" lon="1.42986">
        <ele>6.0</ele>
        <time>2020-08-17T15:55:10.849Z</time>
      </trkpt>
      <trkpt lat="38.92864833" lon="1.42986">
        <ele>6.0</ele>
        <time>2020-08-17T15:55:11.866Z</time>
      </trkpt>
      <trkpt lat="38.928775" lon="1.429865">
        <ele>6.0</ele>
        <time>2020-08-17T15:55:12.851Z</time>
      </trkpt>
      <trkpt lat="38.928775" lon="1.429865">
        <ele>6.0</ele>
        <time>2020-08-17T15:55:13.866Z</time>
      </trkpt>
      <trkpt lat="38.92890333" lon="1.42987167">
        <ele>6.0</ele>
        <time>2020-08-17T15:55:14.851Z</time>
      </trkpt>
      <trkpt lat="38.92890333" lon="1.42987167">
        <ele>6.0</ele>
        <time>2020-08-17T15:55:15.866Z</time>
      </trkpt>
      <trkpt lat="38.92903333" lon="1.42987667">
        <ele>6.0</ele>
        <time>2020-08-17T15:55:16.851Z</time>
      </trkpt>
      <trkpt lat="38.92903333" lon="1.42987667">
        <ele>6.0</ele>
        <time>2020-08-17T15:55:17.866Z</time>
      </trkpt>
      <trkpt lat="38.92916167" lon="1.42988333">
        <ele>6.0</ele>
        <time>2020-08-17T15:55:18.851Z</time>
      </trkpt>
      <trkpt lat="38.92916167" lon="1.42988333">
        <ele>6.0</ele>
        <time>2020-08-17T15:55:19.865Z</time>
      </trkpt>
      <trkpt lat="38.92929" lon="1.42988833">
        <ele>6.0</ele>
        <time>2020-08-17T15:55:20.851Z</time>
      </trkpt>
      <trkpt lat="38.92935333" lon="1.42989">
        <ele>5.0</ele>
        <time>2020-08-17T15:55:21.850Z</time>
      </trkpt>
      <trkpt lat="38.92935333" lon="1.42989">
        <ele>5.0</ele>
        <time>2020-08-17T15:55:22.864Z</time>
      </trkpt>
      <trkpt lat="38.92948167" lon="1.42989333">
        <ele>5.0</ele>
        <time>2020-08-17T15:55:23.851Z</time>
      </trkpt>
      <trkpt lat="38.92954667" lon="1.429895">
        <ele>6.0</ele>
        <time>2020-08-17T15:55:24.850Z</time>
      </trkpt>
      <trkpt lat="38.92954667" lon="1.429895">
        <ele>6.0</ele>
        <time>2020-08-17T15:55:25.865Z</time>
      </trkpt>
      <trkpt lat="38.92967167" lon="1.4299">
        <ele>6.0</ele>
        <time>2020-08-17T15:55:26.851Z</time>
      </trkpt>
      <trkpt lat="38.92967167" lon="1.4299">
        <ele>6.0</ele>
        <time>2020-08-17T15:55:27.865Z</time>
      </trkpt>
      <trkpt lat="38.929795" lon="1.42990167">
        <ele>6.0</ele>
        <time>2020-08-17T15:55:28.852Z</time>
      </trkpt>
      <trkpt lat="38.929795" lon="1.42990167">
        <ele>6.0</ele>
        <time>2020-08-17T15:55:29.848Z</time>
      </trkpt>
      <trkpt lat="38.92992" lon="1.42990833">
        <ele>7.0</ele>
        <time>2020-08-17T15:55:30.850Z</time>
      </trkpt>
      <trkpt lat="38.92992" lon="1.42990833">
        <ele>7.0</ele>
        <time>2020-08-17T15:55:31.866Z</time>
      </trkpt>
      <trkpt lat="38.93004" lon="1.42991833">
        <ele>7.0</ele>
        <time>2020-08-17T15:55:32.850Z</time>
      </trkpt>
      <trkpt lat="38.93009833" lon="1.42992">
        <ele>7.0</ele>
        <time>2020-08-17T15:55:33.865Z</time>
      </trkpt>
      <trkpt lat="38.93009833" lon="1.42992">
        <ele>7.0</ele>
        <time>2020-08-17T15:55:34.846Z</time>
      </trkpt>
      <trkpt lat="38.93021167" lon="1.42992167">
        <ele>8.0</ele>
        <time>2020-08-17T15:55:35.864Z</time>
      </trkpt>
      <trkpt lat="38.93021167" lon="1.42992167">
        <ele>8.0</ele>
        <time>2020-08-17T15:55:36.845Z</time>
      </trkpt>
      <trkpt lat="38.93032333" lon="1.42992333">
        <ele>8.0</ele>
        <time>2020-08-17T15:55:37.870Z</time>
      </trkpt>
      <trkpt lat="38.93032333" lon="1.42992333">
        <ele>8.0</ele>
        <time>2020-08-17T15:55:38.847Z</time>
      </trkpt>
      <trkpt lat="38.93043667" lon="1.42990833">
        <ele>8.0</ele>
        <time>2020-08-17T15:55:39.851Z</time>
      </trkpt>
      <trkpt lat="38.930495" lon="1.429895">
        <ele>8.0</ele>
        <time>2020-08-17T15:55:40.866Z</time>
      </trkpt>
      <trkpt lat="38.930495" lon="1.429895">
        <ele>8.0</ele>
        <time>2020-08-17T15:55:41.845Z</time>
      </trkpt>
      <trkpt lat="38.93060833" lon="1.42986">
        <ele>8.0</ele>
        <time>2020-08-17T15:55:42.866Z</time>
      </trkpt>
      <trkpt lat="38.93060833" lon="1.42986">
        <ele>8.0</ele>
        <time>2020-08-17T15:55:43.846Z</time>
      </trkpt>
      <trkpt lat="38.93071833" lon="1.429825">
        <ele>9.0</ele>
        <time>2020-08-17T15:55:44.866Z</time>
      </trkpt>
      <trkpt lat="38.93071833" lon="1.429825">
        <ele>9.0</ele>
        <time>2020-08-17T15:55:45.860Z</time>
      </trkpt>
      <trkpt lat="38.93084" lon="1.42979833">
        <ele>9.0</ele>
        <time>2020-08-17T15:55:46.851Z</time>
      </trkpt>
      <trkpt lat="38.93084" lon="1.42979833">
        <ele>9.0</ele>
        <time>2020-08-17T15:55:47.866Z</time>
      </trkpt>
      <trkpt lat="38.930965" lon="1.42977">
        <ele>9.0</ele>
        <time>2020-08-17T15:55:48.850Z</time>
      </trkpt>
      <trkpt lat="38.930965" lon="1.42977">
        <ele>9.0</ele>
        <time>2020-08-17T15:55:49.866Z</time>
      </trkpt>
      <trkpt lat="38.93109333" lon="1.429735">
        <ele>8.0</ele>
        <time>2020-08-17T15:55:50.852Z</time>
      </trkpt>
      <trkpt lat="38.93109333" lon="1.429735">
        <ele>8.0</ele>
        <time>2020-08-17T15:55:51.866Z</time>
      </trkpt>
      <trkpt lat="38.93122833" lon="1.429705">
        <ele>8.0</ele>
        <time>2020-08-17T15:55:52.848Z</time>
      </trkpt>
      <trkpt lat="38.93122833" lon="1.429705">
        <ele>8.0</ele>
        <time>2020-08-17T15:55:53.863Z</time>
      </trkpt>
      <trkpt lat="38.93137" lon="1.42968833">
        <ele>8.0</ele>
        <time>2020-08-17T15:55:54.851Z</time>
      </trkpt>
      <trkpt lat="38.93137" lon="1.42968833">
        <ele>8.0</ele>
        <time>2020-08-17T15:55:55.866Z</time>
      </trkpt>
      <trkpt lat="38.93150667" lon="1.42969167">
        <ele>7.0</ele>
        <time>2020-08-17T15:55:56.850Z</time>
      </trkpt>
      <trkpt lat="38.93150667" lon="1.42969167">
        <ele>7.0</ele>
        <time>2020-08-17T15:55:57.865Z</time>
      </trkpt>
      <trkpt lat="38.93165" lon="1.42969667">
        <ele>7.0</ele>
        <time>2020-08-17T15:55:58.850Z</time>
      </trkpt>
      <trkpt lat="38.93165" lon="1.42969667">
        <ele>7.0</ele>
        <time>2020-08-17T15:55:59.866Z</time>
      </trkpt>
      <trkpt lat="38.93179167" lon="1.42970167">
        <ele>7.0</ele>
        <time>2020-08-17T15:56:00.850Z</time>
      </trkpt>
      <trkpt lat="38.93179167" lon="1.42970167">
        <ele>7.0</ele>
        <time>2020-08-17T15:56:01.868Z</time>
      </trkpt>
      <trkpt lat="38.93179167" lon="1.42970167">
        <ele>7.0</ele>
        <time>2020-08-17T15:56:02.863Z</time>
      </trkpt>
      <trkpt lat="38.93193167" lon="1.42970333">
        <ele>7.0</ele>
        <time>2020-08-17T15:56:03.846Z</time>
      </trkpt>
      <trkpt lat="38.93207167" lon="1.42970833">
        <ele>7.0</ele>
        <time>2020-08-17T15:56:04.871Z</time>
      </trkpt>
      <trkpt lat="38.93207167" lon="1.42970833">
        <ele>7.0</ele>
        <time>2020-08-17T15:56:05.849Z</time>
      </trkpt>
      <trkpt lat="38.93221167" lon="1.42971667">
        <ele>7.0</ele>
        <time>2020-08-17T15:56:06.870Z</time>
      </trkpt>
      <trkpt lat="38.93221167" lon="1.42971667">
        <ele>7.0</ele>
        <time>2020-08-17T15:56:07.848Z</time>
      </trkpt>
      <trkpt lat="38.932355" lon="1.429725">
        <ele>6.0</ele>
        <time>2020-08-17T15:56:08.851Z</time>
      </trkpt>
      <trkpt lat="38.932425" lon="1.42973">
        <ele>6.0</ele>
        <time>2020-08-17T15:56:09.866Z</time>
      </trkpt>
      <trkpt lat="38.93249333" lon="1.42973333">
        <ele>6.0</ele>
        <time>2020-08-17T15:56:10.852Z</time>
      </trkpt>
      <trkpt lat="38.93249333" lon="1.42973333">
        <ele>6.0</ele>
        <time>2020-08-17T15:56:11.848Z</time>
      </trkpt>
      <trkpt lat="38.932635" lon="1.42973833">
        <ele>6.0</ele>
        <time>2020-08-17T15:56:12.850Z</time>
      </trkpt>
      <trkpt lat="38.932635" lon="1.42973833">
        <ele>6.0</ele>
        <time>2020-08-17T15:56:13.866Z</time>
      </trkpt>
      <trkpt lat="38.93277667" lon="1.42974667">
        <ele>6.0</ele>
        <time>2020-08-17T15:56:14.849Z</time>
      </trkpt>
      <trkpt lat="38.93284667" lon="1.42974833">
        <ele>6.0</ele>
        <time>2020-08-17T15:56:15.871Z</time>
      </trkpt>
      <trkpt lat="38.93284667" lon="1.42974833">
        <ele>6.0</ele>
        <time>2020-08-17T15:56:16.853Z</time>
      </trkpt>
      <trkpt lat="38.932985" lon="1.42975167">
        <ele>7.0</ele>
        <time>2020-08-17T15:56:17.850Z</time>
      </trkpt>
      <trkpt lat="38.93305333" lon="1.429755">
        <ele>7.0</ele>
        <time>2020-08-17T15:56:18.866Z</time>
      </trkpt>
      <trkpt lat="38.93305333" lon="1.429755">
        <ele>7.0</ele>
        <time>2020-08-17T15:56:19.848Z</time>
      </trkpt>
      <trkpt lat="38.93319" lon="1.42975833">
        <ele>7.0</ele>
        <time>2020-08-17T15:56:20.851Z</time>
      </trkpt>
      <trkpt lat="38.93319" lon="1.42975833">
        <ele>7.0</ele>
        <time>2020-08-17T15:56:21.865Z</time>
      </trkpt>
      <trkpt lat="38.93333" lon="1.42976">
        <ele>7.0</ele>
        <time>2020-08-17T15:56:22.851Z</time>
      </trkpt>
      <trkpt lat="38.93333" lon="1.42976">
        <ele>7.0</ele>
        <time>2020-08-17T15:56:23.866Z</time>
      </trkpt>
      <trkpt lat="38.93346833" lon="1.42976333">
        <ele>7.0</ele>
        <time>2020-08-17T15:56:24.848Z</time>
      </trkpt>
      <trkpt lat="38.93354" lon="1.429765">
        <ele>7.0</ele>
        <time>2020-08-17T15:56:25.850Z</time>
      </trkpt>
      <trkpt lat="38.93354" lon="1.429765">
        <ele>7.0</ele>
        <time>2020-08-17T15:56:26.864Z</time>
      </trkpt>
      <trkpt lat="38.93368167" lon="1.42976833">
        <ele>7.0</ele>
        <time>2020-08-17T15:56:27.850Z</time>
      </trkpt>
      <trkpt lat="38.93375167" lon="1.42977167">
        <ele>7.0</ele>
        <time>2020-08-17T15:56:28.853Z</time>
      </trkpt>
      <trkpt lat="38.93375167" lon="1.42977167">
        <ele>7.0</ele>
        <time>2020-08-17T15:56:29.866Z</time>
      </trkpt>
      <trkpt lat="38.93389167" lon="1.429775">
        <ele>7.0</ele>
        <time>2020-08-17T15:56:30.904Z</time>
      </trkpt>
      <trkpt lat="38.93389167" lon="1.429775">
        <ele>7.0</ele>
        <time>2020-08-17T15:56:31.861Z</time>
      </trkpt>
      <trkpt lat="38.93403167" lon="1.42978167">
        <ele>7.0</ele>
        <time>2020-08-17T15:56:32.850Z</time>
      </trkpt>
      <trkpt lat="38.93403167" lon="1.42978167">
        <ele>7.0</ele>
        <time>2020-08-17T15:56:33.865Z</time>
      </trkpt>
      <trkpt lat="38.93417333" lon="1.42978667">
        <ele>7.0</ele>
        <time>2020-08-17T15:56:34.884Z</time>
      </trkpt>
      <trkpt lat="38.934245" lon="1.42978833">
        <ele>7.0</ele>
        <time>2020-08-17T15:56:35.862Z</time>
      </trkpt>
      <trkpt lat="38.93431667" lon="1.42979167">
        <ele>7.0</ele>
        <time>2020-08-17T15:56:36.851Z</time>
      </trkpt>
      <trkpt lat="38.93431667" lon="1.42979167">
        <ele>7.0</ele>
        <time>2020-08-17T15:56:37.848Z</time>
      </trkpt>
      <trkpt lat="38.93445667" lon="1.42979833">
        <ele>7.0</ele>
        <time>2020-08-17T15:56:38.851Z</time>
      </trkpt>
      <trkpt lat="38.93445667" lon="1.42979833">
        <ele>7.0</ele>
        <time>2020-08-17T15:56:39.866Z</time>
      </trkpt>
      <trkpt lat="38.93459833" lon="1.42980833">
        <ele>7.0</ele>
        <time>2020-08-17T15:56:40.852Z</time>
      </trkpt>
      <trkpt lat="38.93466833" lon="1.42981167">
        <ele>7.0</ele>
        <time>2020-08-17T15:56:41.852Z</time>
      </trkpt>
      <trkpt lat="38.93466833" lon="1.42981167">
        <ele>7.0</ele>
        <time>2020-08-17T15:56:42.866Z</time>
      </trkpt>
      <trkpt lat="38.93481" lon="1.42981667">
        <ele>7.0</ele>
        <time>2020-08-17T15:56:43.851Z</time>
      </trkpt>
      <trkpt lat="38.93481" lon="1.42981667">
        <ele>7.0</ele>
        <time>2020-08-17T15:56:44.865Z</time>
      </trkpt>
      <trkpt lat="38.934955" lon="1.42982">
        <ele>6.0</ele>
        <time>2020-08-17T15:56:45.849Z</time>
      </trkpt>
      <trkpt lat="38.93502833" lon="1.42980667">
        <ele>7.0</ele>
        <time>2020-08-17T15:56:46.865Z</time>
      </trkpt>
      <trkpt lat="38.93502833" lon="1.42980667">
        <ele>7.0</ele>
        <time>2020-08-17T15:56:47.849Z</time>
      </trkpt>
      <trkpt lat="38.93517333" lon="1.42978">
        <ele>6.0</ele>
        <time>2020-08-17T15:56:48.851Z</time>
      </trkpt>
      <trkpt lat="38.93517333" lon="1.42978">
        <ele>6.0</ele>
        <time>2020-08-17T15:56:49.865Z</time>
      </trkpt>
      <trkpt lat="38.93531667" lon="1.42975">
        <ele>6.0</ele>
        <time>2020-08-17T15:56:50.851Z</time>
      </trkpt>
      <trkpt lat="38.93531667" lon="1.42975">
        <ele>6.0</ele>
        <time>2020-08-17T15:56:51.865Z</time>
      </trkpt>
      <trkpt lat="38.93545" lon="1.42973333">
        <ele>7.0</ele>
        <time>2020-08-17T15:56:52.851Z</time>
      </trkpt>
      <trkpt lat="38.93545" lon="1.42973333">
        <ele>7.0</ele>
        <time>2020-08-17T15:56:53.868Z</time>
      </trkpt>
      <trkpt lat="38.93558" lon="1.42972833">
        <ele>7.0</ele>
        <time>2020-08-17T15:56:54.850Z</time>
      </trkpt>
      <trkpt lat="38.93558" lon="1.42972833">
        <ele>7.0</ele>
        <time>2020-08-17T15:56:55.846Z</time>
      </trkpt>
      <trkpt lat="38.93570167" lon="1.42975667">
        <ele>8.0</ele>
        <time>2020-08-17T15:56:56.865Z</time>
      </trkpt>
      <trkpt lat="38.93570167" lon="1.42975667">
        <ele>8.0</ele>
        <time>2020-08-17T15:56:57.848Z</time>
      </trkpt>
      <trkpt lat="38.935825" lon="1.42976833">
        <ele>9.0</ele>
        <time>2020-08-17T15:56:58.852Z</time>
      </trkpt>
      <trkpt lat="38.935825" lon="1.42976833">
        <ele>9.0</ele>
        <time>2020-08-17T15:56:59.866Z</time>
      </trkpt>
      <trkpt lat="38.935955" lon="1.42978333">
        <ele>8.0</ele>
        <time>2020-08-17T15:57:00.851Z</time>
      </trkpt>
      <trkpt lat="38.935955" lon="1.42978333">
        <ele>8.0</ele>
        <time>2020-08-17T15:57:01.866Z</time>
      </trkpt>
      <trkpt lat="38.93608167" lon="1.42979333">
        <ele>8.0</ele>
        <time>2020-08-17T15:57:02.850Z</time>
      </trkpt>
      <trkpt lat="38.93608167" lon="1.42979333">
        <ele>8.0</ele>
        <time>2020-08-17T15:57:03.864Z</time>
      </trkpt>
      <trkpt lat="38.93620667" lon="1.42980167">
        <ele>8.0</ele>
        <time>2020-08-17T15:57:04.853Z</time>
      </trkpt>
      <trkpt lat="38.93620667" lon="1.42980167">
        <ele>8.0</ele>
        <time>2020-08-17T15:57:05.846Z</time>
      </trkpt>
      <trkpt lat="38.93633167" lon="1.429805">
        <ele>8.0</ele>
        <time>2020-08-17T15:57:06.862Z</time>
      </trkpt>
      <trkpt lat="38.93633167" lon="1.429805">
        <ele>8.0</ele>
        <time>2020-08-17T15:57:07.849Z</time>
      </trkpt>
      <trkpt lat="38.93645667" lon="1.42980167">
        <ele>8.0</ele>
        <time>2020-08-17T15:57:08.851Z</time>
      </trkpt>
      <trkpt lat="38.93645667" lon="1.42980167">
        <ele>8.0</ele>
        <time>2020-08-17T15:57:09.865Z</time>
      </trkpt>
      <trkpt lat="38.93658" lon="1.42980167">
        <ele>8.0</ele>
        <time>2020-08-17T15:57:10.853Z</time>
      </trkpt>
      <trkpt lat="38.93658" lon="1.42980167">
        <ele>8.0</ele>
        <time>2020-08-17T15:57:11.848Z</time>
      </trkpt>
      <trkpt lat="38.93670667" lon="1.42980667">
        <ele>8.0</ele>
        <time>2020-08-17T15:57:12.851Z</time>
      </trkpt>
      <trkpt lat="38.93670667" lon="1.42980667">
        <ele>8.0</ele>
        <time>2020-08-17T15:57:13.846Z</time>
      </trkpt>
      <trkpt lat="38.93683167" lon="1.42981">
        <ele>8.0</ele>
        <time>2020-08-17T15:57:14.865Z</time>
      </trkpt>
      <trkpt lat="38.93683167" lon="1.42981">
        <ele>8.0</ele>
        <time>2020-08-17T15:57:15.848Z</time>
      </trkpt>
      <trkpt lat="38.93695833" lon="1.42981667">
        <ele>7.0</ele>
        <time>2020-08-17T15:57:16.854Z</time>
      </trkpt>
      <trkpt lat="38.93695833" lon="1.42981667">
        <ele>7.0</ele>
        <time>2020-08-17T15:57:17.845Z</time>
      </trkpt>
      <trkpt lat="38.93708667" lon="1.42982167">
        <ele>7.0</ele>
        <time>2020-08-17T15:57:18.864Z</time>
      </trkpt>
      <trkpt lat="38.93708667" lon="1.42982167">
        <ele>7.0</ele>
        <time>2020-08-17T15:57:19.848Z</time>
      </trkpt>
      <trkpt lat="38.93721667" lon="1.42982167">
        <ele>7.0</ele>
        <time>2020-08-17T15:57:20.851Z</time>
      </trkpt>
      <trkpt lat="38.93721667" lon="1.42982167">
        <ele>7.0</ele>
        <time>2020-08-17T15:57:21.866Z</time>
      </trkpt>
      <trkpt lat="38.93734667" lon="1.42982333">
        <ele>7.0</ele>
        <time>2020-08-17T15:57:22.851Z</time>
      </trkpt>
      <trkpt lat="38.93734667" lon="1.42982333">
        <ele>7.0</ele>
        <time>2020-08-17T15:57:23.866Z</time>
      </trkpt>
      <trkpt lat="38.93747833" lon="1.42982333">
        <ele>7.0</ele>
        <time>2020-08-17T15:57:24.852Z</time>
      </trkpt>
      <trkpt lat="38.93747833" lon="1.42982333">
        <ele>7.0</ele>
        <time>2020-08-17T15:57:25.871Z</time>
      </trkpt>
      <trkpt lat="38.93760833" lon="1.429825">
        <ele>7.0</ele>
        <time>2020-08-17T15:57:26.850Z</time>
      </trkpt>
      <trkpt lat="38.93767333" lon="1.42982333">
        <ele>7.0</ele>
        <time>2020-08-17T15:57:27.866Z</time>
      </trkpt>
      <trkpt lat="38.93767333" lon="1.42982333">
        <ele>7.0</ele>
        <time>2020-08-17T15:57:28.849Z</time>
      </trkpt>
      <trkpt lat="38.937805" lon="1.429825">
        <ele>7.0</ele>
        <time>2020-08-17T15:57:29.851Z</time>
      </trkpt>
      <trkpt lat="38.937805" lon="1.429825">
        <ele>7.0</ele>
        <time>2020-08-17T15:57:30.866Z</time>
      </trkpt>
      <trkpt lat="38.93793833" lon="1.429825">
        <ele>6.0</ele>
        <time>2020-08-17T15:57:31.851Z</time>
      </trkpt>
      <trkpt lat="38.93793833" lon="1.429825">
        <ele>6.0</ele>
        <time>2020-08-17T15:57:32.884Z</time>
      </trkpt>
      <trkpt lat="38.93806833" lon="1.42983333">
        <ele>6.0</ele>
        <time>2020-08-17T15:57:33.863Z</time>
      </trkpt>
      <trkpt lat="38.93813333" lon="1.42984">
        <ele>6.0</ele>
        <time>2020-08-17T15:57:34.853Z</time>
      </trkpt>
      <trkpt lat="38.93813333" lon="1.42984">
        <ele>6.0</ele>
        <time>2020-08-17T15:57:35.871Z</time>
      </trkpt>
      <trkpt lat="38.93826333" lon="1.42985833">
        <ele>6.0</ele>
        <time>2020-08-17T15:57:36.850Z</time>
      </trkpt>
      <trkpt lat="38.93826333" lon="1.42985833">
        <ele>6.0</ele>
        <time>2020-08-17T15:57:37.882Z</time>
      </trkpt>
      <trkpt lat="38.93839333" lon="1.42987333">
        <ele>6.0</ele>
        <time>2020-08-17T15:57:38.862Z</time>
      </trkpt>
      <trkpt lat="38.93839333" lon="1.42987333">
        <ele>6.0</ele>
        <time>2020-08-17T15:57:39.848Z</time>
      </trkpt>
      <trkpt lat="38.93852167" lon="1.42987833">
        <ele>6.0</ele>
        <time>2020-08-17T15:57:40.867Z</time>
      </trkpt>
      <trkpt lat="38.93852167" lon="1.42987833">
        <ele>6.0</ele>
        <time>2020-08-17T15:57:41.848Z</time>
      </trkpt>
      <trkpt lat="38.93865" lon="1.429865">
        <ele>6.0</ele>
        <time>2020-08-17T15:57:42.852Z</time>
      </trkpt>
      <trkpt lat="38.93865" lon="1.429865">
        <ele>6.0</ele>
        <time>2020-08-17T15:57:43.867Z</time>
      </trkpt>
      <trkpt lat="38.93877667" lon="1.42984333">
        <ele>6.0</ele>
        <time>2020-08-17T15:57:44.851Z</time>
      </trkpt>
      <trkpt lat="38.93877667" lon="1.42984333">
        <ele>6.0</ele>
        <time>2020-08-17T15:57:45.866Z</time>
      </trkpt>
      <trkpt lat="38.93889833" lon="1.42980833">
        <ele>6.0</ele>
        <time>2020-08-17T15:57:46.852Z</time>
      </trkpt>
      <trkpt lat="38.93889833" lon="1.42980833">
        <ele>6.0</ele>
        <time>2020-08-17T15:57:47.848Z</time>
      </trkpt>
      <trkpt lat="38.93902" lon="1.42976167">
        <ele>6.0</ele>
        <time>2020-08-17T15:57:48.851Z</time>
      </trkpt>
      <trkpt lat="38.93902" lon="1.42976167">
        <ele>6.0</ele>
        <time>2020-08-17T15:57:49.865Z</time>
      </trkpt>
      <trkpt lat="38.93914167" lon="1.42971167">
        <ele>6.0</ele>
        <time>2020-08-17T15:57:50.851Z</time>
      </trkpt>
      <trkpt lat="38.93914167" lon="1.42971167">
        <ele>6.0</ele>
        <time>2020-08-17T15:57:51.865Z</time>
      </trkpt>
      <trkpt lat="38.93926" lon="1.42966333">
        <ele>6.0</ele>
        <time>2020-08-17T15:57:52.852Z</time>
      </trkpt>
      <trkpt lat="38.93926" lon="1.42966333">
        <ele>6.0</ele>
        <time>2020-08-17T15:57:53.866Z</time>
      </trkpt>
      <trkpt lat="38.93937833" lon="1.42961667">
        <ele>6.0</ele>
        <time>2020-08-17T15:57:54.850Z</time>
      </trkpt>
      <trkpt lat="38.93937833" lon="1.42961667">
        <ele>6.0</ele>
        <time>2020-08-17T15:57:55.867Z</time>
      </trkpt>
      <trkpt lat="38.93949333" lon="1.42956333">
        <ele>6.0</ele>
        <time>2020-08-17T15:57:56.851Z</time>
      </trkpt>
      <trkpt lat="38.93949333" lon="1.42956333">
        <ele>6.0</ele>
        <time>2020-08-17T15:57:57.864Z</time>
      </trkpt>
      <trkpt lat="38.93961" lon="1.42951333">
        <ele>6.0</ele>
        <time>2020-08-17T15:57:58.852Z</time>
      </trkpt>
      <trkpt lat="38.93966667" lon="1.42948833">
        <ele>7.0</ele>
        <time>2020-08-17T15:57:59.870Z</time>
      </trkpt>
      <trkpt lat="38.93966667" lon="1.42948833">
        <ele>7.0</ele>
        <time>2020-08-17T15:58:00.848Z</time>
      </trkpt>
      <trkpt lat="38.93978333" lon="1.42944">
        <ele>7.0</ele>
        <time>2020-08-17T15:58:01.851Z</time>
      </trkpt>
      <trkpt lat="38.93984167" lon="1.42941667">
        <ele>7.0</ele>
        <time>2020-08-17T15:58:02.864Z</time>
      </trkpt>
      <trkpt lat="38.93984167" lon="1.42941667">
        <ele>7.0</ele>
        <time>2020-08-17T15:58:03.847Z</time>
      </trkpt>
      <trkpt lat="38.93995833" lon="1.42937">
        <ele>7.0</ele>
        <time>2020-08-17T15:58:04.867Z</time>
      </trkpt>
      <trkpt lat="38.93995833" lon="1.42937">
        <ele>7.0</ele>
        <time>2020-08-17T15:58:05.864Z</time>
      </trkpt>
      <trkpt lat="38.940075" lon="1.42932">
        <ele>7.0</ele>
        <time>2020-08-17T15:58:06.859Z</time>
      </trkpt>
      <trkpt lat="38.940075" lon="1.42932">
        <ele>7.0</ele>
        <time>2020-08-17T15:58:07.848Z</time>
      </trkpt>
      <trkpt lat="38.94018833" lon="1.42926667">
        <ele>8.0</ele>
        <time>2020-08-17T15:58:08.850Z</time>
      </trkpt>
      <trkpt lat="38.94024333" lon="1.42924">
        <ele>8.0</ele>
        <time>2020-08-17T15:58:09.852Z</time>
      </trkpt>
      <trkpt lat="38.94024333" lon="1.42924">
        <ele>8.0</ele>
        <time>2020-08-17T15:58:10.850Z</time>
      </trkpt>
      <trkpt lat="38.940355" lon="1.42919">
        <ele>8.0</ele>
        <time>2020-08-17T15:58:11.851Z</time>
      </trkpt>
      <trkpt lat="38.94040833" lon="1.42916333">
        <ele>8.0</ele>
        <time>2020-08-17T15:58:12.865Z</time>
      </trkpt>
      <trkpt lat="38.94040833" lon="1.42916333">
        <ele>8.0</ele>
        <time>2020-08-17T15:58:13.846Z</time>
      </trkpt>
      <trkpt lat="38.940515" lon="1.42911667">
        <ele>9.0</ele>
        <time>2020-08-17T15:58:14.865Z</time>
      </trkpt>
      <trkpt lat="38.940515" lon="1.42911667">
        <ele>9.0</ele>
        <time>2020-08-17T15:58:15.882Z</time>
      </trkpt>
      <trkpt lat="38.94061667" lon="1.42906">
        <ele>9.0</ele>
        <time>2020-08-17T15:58:16.862Z</time>
      </trkpt>
      <trkpt lat="38.94061667" lon="1.42906">
        <ele>9.0</ele>
        <time>2020-08-17T15:58:17.847Z</time>
      </trkpt>
      <trkpt lat="38.94072" lon="1.42900667">
        <ele>10.0</ele>
        <time>2020-08-17T15:58:18.865Z</time>
      </trkpt>
      <trkpt lat="38.94072" lon="1.42900667">
        <ele>10.0</ele>
        <time>2020-08-17T15:58:19.849Z</time>
      </trkpt>
      <trkpt lat="38.94082167" lon="1.428955">
        <ele>10.0</ele>
        <time>2020-08-17T15:58:20.851Z</time>
      </trkpt>
      <trkpt lat="38.94082167" lon="1.428955">
        <ele>10.0</ele>
        <time>2020-08-17T15:58:21.866Z</time>
      </trkpt>
      <trkpt lat="38.94092333" lon="1.42889667">
        <ele>11.0</ele>
        <time>2020-08-17T15:58:22.852Z</time>
      </trkpt>
      <trkpt lat="38.94092333" lon="1.42889667">
        <ele>11.0</ele>
        <time>2020-08-17T15:58:23.848Z</time>
      </trkpt>
      <trkpt lat="38.94102667" lon="1.42884">
        <ele>11.0</ele>
        <time>2020-08-17T15:58:24.861Z</time>
      </trkpt>
      <trkpt lat="38.94102667" lon="1.42884">
        <ele>11.0</ele>
        <time>2020-08-17T15:58:25.852Z</time>
      </trkpt>
      <trkpt lat="38.94113333" lon="1.428785">
        <ele>11.0</ele>
        <time>2020-08-17T15:58:26.851Z</time>
      </trkpt>
      <trkpt lat="38.94113333" lon="1.428785">
        <ele>11.0</ele>
        <time>2020-08-17T15:58:27.865Z</time>
      </trkpt>
      <trkpt lat="38.94123167" lon="1.428715">
        <ele>12.0</ele>
        <time>2020-08-17T15:58:28.852Z</time>
      </trkpt>
      <trkpt lat="38.94123167" lon="1.428715">
        <ele>12.0</ele>
        <time>2020-08-17T15:58:29.870Z</time>
      </trkpt>
      <trkpt lat="38.94133167" lon="1.42865667">
        <ele>12.0</ele>
        <time>2020-08-17T15:58:30.851Z</time>
      </trkpt>
      <trkpt lat="38.94133167" lon="1.42865667">
        <ele>12.0</ele>
        <time>2020-08-17T15:58:31.865Z</time>
      </trkpt>
      <trkpt lat="38.94144333" lon="1.42861">
        <ele>12.0</ele>
        <time>2020-08-17T15:58:32.850Z</time>
      </trkpt>
      <trkpt lat="38.94144333" lon="1.42861">
        <ele>12.0</ele>
        <time>2020-08-17T15:58:33.881Z</time>
      </trkpt>
      <trkpt lat="38.94155833" lon="1.42856833">
        <ele>13.0</ele>
        <time>2020-08-17T15:58:34.852Z</time>
      </trkpt>
      <trkpt lat="38.94155833" lon="1.42856833">
        <ele>13.0</ele>
        <time>2020-08-17T15:58:35.870Z</time>
      </trkpt>
      <trkpt lat="38.94168167" lon="1.42852667">
        <ele>13.0</ele>
        <time>2020-08-17T15:58:36.852Z</time>
      </trkpt>
      <trkpt lat="38.94168167" lon="1.42852667">
        <ele>13.0</ele>
        <time>2020-08-17T15:58:37.867Z</time>
      </trkpt>
      <trkpt lat="38.94181167" lon="1.42850167">
        <ele>11.0</ele>
        <time>2020-08-17T15:58:38.851Z</time>
      </trkpt>
      <trkpt lat="38.94181167" lon="1.42850167">
        <ele>11.0</ele>
        <time>2020-08-17T15:58:39.848Z</time>
      </trkpt>
      <trkpt lat="38.941945" lon="1.42846">
        <ele>10.0</ele>
        <time>2020-08-17T15:58:40.852Z</time>
      </trkpt>
      <trkpt lat="38.941945" lon="1.42846">
        <ele>10.0</ele>
        <time>2020-08-17T15:58:41.846Z</time>
      </trkpt>
      <trkpt lat="38.94207833" lon="1.42840167">
        <ele>10.0</ele>
        <time>2020-08-17T15:58:42.866Z</time>
      </trkpt>
      <trkpt lat="38.94207833" lon="1.42840167">
        <ele>10.0</ele>
        <time>2020-08-17T15:58:43.849Z</time>
      </trkpt>
      <trkpt lat="38.942215" lon="1.42833667">
        <ele>10.0</ele>
        <time>2020-08-17T15:58:44.851Z</time>
      </trkpt>
      <trkpt lat="38.942215" lon="1.42833667">
        <ele>10.0</ele>
        <time>2020-08-17T15:58:45.865Z</time>
      </trkpt>
      <trkpt lat="38.94235167" lon="1.42826667">
        <ele>9.0</ele>
        <time>2020-08-17T15:58:46.853Z</time>
      </trkpt>
      <trkpt lat="38.94235167" lon="1.42826667">
        <ele>9.0</ele>
        <time>2020-08-17T15:58:47.849Z</time>
      </trkpt>
      <trkpt lat="38.94248833" lon="1.42819">
        <ele>8.0</ele>
        <time>2020-08-17T15:58:48.851Z</time>
      </trkpt>
      <trkpt lat="38.94248833" lon="1.42819">
        <ele>8.0</ele>
        <time>2020-08-17T15:58:49.866Z</time>
      </trkpt>
      <trkpt lat="38.942625" lon="1.42811833">
        <ele>8.0</ele>
        <time>2020-08-17T15:58:50.850Z</time>
      </trkpt>
      <trkpt lat="38.94269167" lon="1.42808">
        <ele>8.0</ele>
        <time>2020-08-17T15:58:51.852Z</time>
      </trkpt>
      <trkpt lat="38.94269167" lon="1.42808">
        <ele>8.0</ele>
        <time>2020-08-17T15:58:52.866Z</time>
      </trkpt>
      <trkpt lat="38.94282667" lon="1.428005">
        <ele>7.0</ele>
        <time>2020-08-17T15:58:53.851Z</time>
      </trkpt>
      <trkpt lat="38.942895" lon="1.42797167">
        <ele>7.0</ele>
        <time>2020-08-17T15:58:54.863Z</time>
      </trkpt>
      <trkpt lat="38.94296167" lon="1.42794">
        <ele>7.0</ele>
        <time>2020-08-17T15:58:55.852Z</time>
      </trkpt>
      <trkpt lat="38.94296167" lon="1.42794">
        <ele>7.0</ele>
        <time>2020-08-17T15:58:56.867Z</time>
      </trkpt>
      <trkpt lat="38.94309833" lon="1.42789167">
        <ele>7.0</ele>
        <time>2020-08-17T15:58:57.851Z</time>
      </trkpt>
      <trkpt lat="38.94316833" lon="1.42787">
        <ele>7.0</ele>
        <time>2020-08-17T15:58:58.876Z</time>
      </trkpt>
      <trkpt lat="38.94316833" lon="1.42787">
        <ele>7.0</ele>
        <time>2020-08-17T15:58:59.861Z</time>
      </trkpt>
      <trkpt lat="38.94330333" lon="1.42783333">
        <ele>7.0</ele>
        <time>2020-08-17T15:59:00.854Z</time>
      </trkpt>
      <trkpt lat="38.94330333" lon="1.42783333">
        <ele>7.0</ele>
        <time>2020-08-17T15:59:01.847Z</time>
      </trkpt>
      <trkpt lat="38.94343833" lon="1.42780667">
        <ele>7.0</ele>
        <time>2020-08-17T15:59:02.867Z</time>
      </trkpt>
      <trkpt lat="38.94343833" lon="1.42780667">
        <ele>7.0</ele>
        <time>2020-08-17T15:59:03.846Z</time>
      </trkpt>
      <trkpt lat="38.94357333" lon="1.42778833">
        <ele>7.0</ele>
        <time>2020-08-17T15:59:04.853Z</time>
      </trkpt>
      <trkpt lat="38.94357333" lon="1.42778833">
        <ele>7.0</ele>
        <time>2020-08-17T15:59:05.846Z</time>
      </trkpt>
      <trkpt lat="38.94370833" lon="1.427775">
        <ele>6.0</ele>
        <time>2020-08-17T15:59:06.867Z</time>
      </trkpt>
      <trkpt lat="38.94370833" lon="1.427775">
        <ele>6.0</ele>
        <time>2020-08-17T15:59:07.861Z</time>
      </trkpt>
      <trkpt lat="38.94384667" lon="1.42776667">
        <ele>6.0</ele>
        <time>2020-08-17T15:59:08.852Z</time>
      </trkpt>
      <trkpt lat="38.94384667" lon="1.42776667">
        <ele>6.0</ele>
        <time>2020-08-17T15:59:09.867Z</time>
      </trkpt>
      <trkpt lat="38.94398167" lon="1.42778">
        <ele>6.0</ele>
        <time>2020-08-17T15:59:10.853Z</time>
      </trkpt>
      <trkpt lat="38.94398167" lon="1.42778">
        <ele>6.0</ele>
        <time>2020-08-17T15:59:11.876Z</time>
      </trkpt>
      <trkpt lat="38.94411667" lon="1.42779833">
        <ele>6.0</ele>
        <time>2020-08-17T15:59:12.857Z</time>
      </trkpt>
      <trkpt lat="38.94411667" lon="1.42779833">
        <ele>6.0</ele>
        <time>2020-08-17T15:59:13.846Z</time>
      </trkpt>
      <trkpt lat="38.94425" lon="1.42782167">
        <ele>6.0</ele>
        <time>2020-08-17T15:59:14.865Z</time>
      </trkpt>
      <trkpt lat="38.94425" lon="1.42782167">
        <ele>6.0</ele>
        <time>2020-08-17T15:59:15.846Z</time>
      </trkpt>
      <trkpt lat="38.94438167" lon="1.42785333">
        <ele>7.0</ele>
        <time>2020-08-17T15:59:16.867Z</time>
      </trkpt>
      <trkpt lat="38.94438167" lon="1.42785333">
        <ele>7.0</ele>
        <time>2020-08-17T15:59:17.846Z</time>
      </trkpt>
      <trkpt lat="38.94451167" lon="1.42789667">
        <ele>7.0</ele>
        <time>2020-08-17T15:59:18.864Z</time>
      </trkpt>
      <trkpt lat="38.94451167" lon="1.42789667">
        <ele>7.0</ele>
        <time>2020-08-17T15:59:19.845Z</time>
      </trkpt>
      <trkpt lat="38.94464167" lon="1.427935">
        <ele>7.0</ele>
        <time>2020-08-17T15:59:20.849Z</time>
      </trkpt>
      <trkpt lat="38.94464167" lon="1.427935">
        <ele>7.0</ele>
        <time>2020-08-17T15:59:21.845Z</time>
      </trkpt>
      <trkpt lat="38.94477" lon="1.427965">
        <ele>7.0</ele>
        <time>2020-08-17T15:59:22.852Z</time>
      </trkpt>
      <trkpt lat="38.94477" lon="1.427965">
        <ele>7.0</ele>
        <time>2020-08-17T15:59:23.866Z</time>
      </trkpt>
      <trkpt lat="38.94489833" lon="1.428">
        <ele>7.0</ele>
        <time>2020-08-17T15:59:24.853Z</time>
      </trkpt>
      <trkpt lat="38.94489833" lon="1.428">
        <ele>7.0</ele>
        <time>2020-08-17T15:59:25.867Z</time>
      </trkpt>
      <trkpt lat="38.94502833" lon="1.428035">
        <ele>7.0</ele>
        <time>2020-08-17T15:59:26.848Z</time>
      </trkpt>
      <trkpt lat="38.945095" lon="1.42805167">
        <ele>7.0</ele>
        <time>2020-08-17T15:59:27.848Z</time>
      </trkpt>
      <trkpt lat="38.94516" lon="1.42806833">
        <ele>7.0</ele>
        <time>2020-08-17T15:59:28.867Z</time>
      </trkpt>
      <trkpt lat="38.94516" lon="1.42806833">
        <ele>7.0</ele>
        <time>2020-08-17T15:59:29.848Z</time>
      </trkpt>
      <trkpt lat="38.94529167" lon="1.428095">
        <ele>7.0</ele>
        <time>2020-08-17T15:59:30.866Z</time>
      </trkpt>
      <trkpt lat="38.94529167" lon="1.428095">
        <ele>7.0</ele>
        <time>2020-08-17T15:59:31.849Z</time>
      </trkpt>
      <trkpt lat="38.945425" lon="1.42809667">
        <ele>7.0</ele>
        <time>2020-08-17T15:59:32.867Z</time>
      </trkpt>
      <trkpt lat="38.94549333" lon="1.42809833">
        <ele>7.0</ele>
        <time>2020-08-17T15:59:33.849Z</time>
      </trkpt>
      <trkpt lat="38.94549333" lon="1.42809833">
        <ele>7.0</ele>
        <time>2020-08-17T15:59:34.863Z</time>
      </trkpt>
      <trkpt lat="38.94562833" lon="1.42811167">
        <ele>7.0</ele>
        <time>2020-08-17T15:59:35.852Z</time>
      </trkpt>
      <trkpt lat="38.94562833" lon="1.42811167">
        <ele>7.0</ele>
        <time>2020-08-17T15:59:36.868Z</time>
      </trkpt>
      <trkpt lat="38.945765" lon="1.42812667">
        <ele>7.0</ele>
        <time>2020-08-17T15:59:37.849Z</time>
      </trkpt>
      <trkpt lat="38.945765" lon="1.42812667">
        <ele>7.0</ele>
        <time>2020-08-17T15:59:38.863Z</time>
      </trkpt>
      <trkpt lat="38.9459" lon="1.42814">
        <ele>7.0</ele>
        <time>2020-08-17T15:59:39.851Z</time>
      </trkpt>
      <trkpt lat="38.94596667" lon="1.42815">
        <ele>7.0</ele>
        <time>2020-08-17T15:59:40.853Z</time>
      </trkpt>
      <trkpt lat="38.94596667" lon="1.42815">
        <ele>7.0</ele>
        <time>2020-08-17T15:59:41.867Z</time>
      </trkpt>
      <trkpt lat="38.94609833" lon="1.42817667">
        <ele>7.0</ele>
        <time>2020-08-17T15:59:42.851Z</time>
      </trkpt>
      <trkpt lat="38.94616167" lon="1.42819167">
        <ele>7.0</ele>
        <time>2020-08-17T15:59:43.867Z</time>
      </trkpt>
      <trkpt lat="38.94616167" lon="1.42819167">
        <ele>7.0</ele>
        <time>2020-08-17T15:59:44.849Z</time>
      </trkpt>
      <trkpt lat="38.94629" lon="1.42821833">
        <ele>7.0</ele>
        <time>2020-08-17T15:59:45.867Z</time>
      </trkpt>
      <trkpt lat="38.94629" lon="1.42821833">
        <ele>7.0</ele>
        <time>2020-08-17T15:59:46.847Z</time>
      </trkpt>
      <trkpt lat="38.94642" lon="1.42823667">
        <ele>7.0</ele>
        <time>2020-08-17T15:59:47.873Z</time>
      </trkpt>
      <trkpt lat="38.94642" lon="1.42823667">
        <ele>7.0</ele>
        <time>2020-08-17T15:59:48.849Z</time>
      </trkpt>
      <trkpt lat="38.94654833" lon="1.42825">
        <ele>8.0</ele>
        <time>2020-08-17T15:59:49.851Z</time>
      </trkpt>
      <trkpt lat="38.94654833" lon="1.42825">
        <ele>8.0</ele>
        <time>2020-08-17T15:59:50.866Z</time>
      </trkpt>
      <trkpt lat="38.94667667" lon="1.42826833">
        <ele>8.0</ele>
        <time>2020-08-17T15:59:51.848Z</time>
      </trkpt>
      <trkpt lat="38.94674" lon="1.42827833">
        <ele>8.0</ele>
        <time>2020-08-17T15:59:52.864Z</time>
      </trkpt>
      <trkpt lat="38.94674" lon="1.42827833">
        <ele>8.0</ele>
        <time>2020-08-17T15:59:53.848Z</time>
      </trkpt>
      <trkpt lat="38.946865" lon="1.42830667">
        <ele>8.0</ele>
        <time>2020-08-17T15:59:54.867Z</time>
      </trkpt>
      <trkpt lat="38.946865" lon="1.42830667">
        <ele>8.0</ele>
        <time>2020-08-17T15:59:55.849Z</time>
      </trkpt>
      <trkpt lat="38.94698667" lon="1.42834667">
        <ele>8.0</ele>
        <time>2020-08-17T15:59:56.870Z</time>
      </trkpt>
      <trkpt lat="38.94704667" lon="1.42837">
        <ele>9.0</ele>
        <time>2020-08-17T15:59:57.851Z</time>
      </trkpt>
      <trkpt lat="38.947105" lon="1.42839333">
        <ele>9.0</ele>
        <time>2020-08-17T15:59:58.852Z</time>
      </trkpt>
      <trkpt lat="38.947105" lon="1.42839333">
        <ele>9.0</ele>
        <time>2020-08-17T15:59:59.873Z</time>
      </trkpt>
      <trkpt lat="38.94722167" lon="1.428445">
        <ele>9.0</ele>
        <time>2020-08-17T16:00:00.864Z</time>
      </trkpt>
      <trkpt lat="38.94722167" lon="1.428445">
        <ele>9.0</ele>
        <time>2020-08-17T16:00:01.846Z</time>
      </trkpt>
      <trkpt lat="38.94733667" lon="1.42850167">
        <ele>9.0</ele>
        <time>2020-08-17T16:00:02.864Z</time>
      </trkpt>
      <trkpt lat="38.94733667" lon="1.42850167">
        <ele>9.0</ele>
        <time>2020-08-17T16:00:03.849Z</time>
      </trkpt>
      <trkpt lat="38.94744667" lon="1.42856833">
        <ele>10.0</ele>
        <time>2020-08-17T16:00:04.867Z</time>
      </trkpt>
      <trkpt lat="38.94744667" lon="1.42856833">
        <ele>10.0</ele>
        <time>2020-08-17T16:00:05.848Z</time>
      </trkpt>
      <trkpt lat="38.94755333" lon="1.42864333">
        <ele>10.0</ele>
        <time>2020-08-17T16:00:06.884Z</time>
      </trkpt>
      <trkpt lat="38.94755333" lon="1.42864333">
        <ele>10.0</ele>
        <time>2020-08-17T16:00:07.849Z</time>
      </trkpt>
      <trkpt lat="38.94755333" lon="1.42864333">
        <ele>10.0</ele>
        <time>2020-08-17T16:00:08.851Z</time>
      </trkpt>
      <trkpt lat="38.94765667" lon="1.42872167">
        <ele>11.0</ele>
        <time>2020-08-17T16:00:09.851Z</time>
      </trkpt>
      <trkpt lat="38.94775" lon="1.42879667">
        <ele>11.0</ele>
        <time>2020-08-17T16:00:10.853Z</time>
      </trkpt>
      <trkpt lat="38.94779167" lon="1.42883167">
        <ele>12.0</ele>
        <time>2020-08-17T16:00:11.881Z</time>
      </trkpt>
      <trkpt lat="38.94779167" lon="1.42883167">
        <ele>12.0</ele>
        <time>2020-08-17T16:00:12.857Z</time>
      </trkpt>
      <trkpt lat="38.947885" lon="1.42890833">
        <ele>12.0</ele>
        <time>2020-08-17T16:00:13.852Z</time>
      </trkpt>
      <trkpt lat="38.947885" lon="1.42890833">
        <ele>12.0</ele>
        <time>2020-08-17T16:00:14.849Z</time>
      </trkpt>
      <trkpt lat="38.94798333" lon="1.42899167">
        <ele>12.0</ele>
        <time>2020-08-17T16:00:15.871Z</time>
      </trkpt>
      <trkpt lat="38.94798333" lon="1.42899167">
        <ele>12.0</ele>
        <time>2020-08-17T16:00:16.852Z</time>
      </trkpt>
      <trkpt lat="38.94809333" lon="1.42906">
        <ele>12.0</ele>
        <time>2020-08-17T16:00:17.852Z</time>
      </trkpt>
      <trkpt lat="38.94809333" lon="1.42906">
        <ele>12.0</ele>
        <time>2020-08-17T16:00:18.866Z</time>
      </trkpt>
      <trkpt lat="38.94820833" lon="1.42909167">
        <ele>12.0</ele>
        <time>2020-08-17T16:00:19.851Z</time>
      </trkpt>
      <trkpt lat="38.94820833" lon="1.42909167">
        <ele>12.0</ele>
        <time>2020-08-17T16:00:20.866Z</time>
      </trkpt>
      <trkpt lat="38.94832667" lon="1.42910833">
        <ele>12.0</ele>
        <time>2020-08-17T16:00:21.852Z</time>
      </trkpt>
      <trkpt lat="38.94832667" lon="1.42910833">
        <ele>12.0</ele>
        <time>2020-08-17T16:00:22.866Z</time>
      </trkpt>
      <trkpt lat="38.94844667" lon="1.42912">
        <ele>12.0</ele>
        <time>2020-08-17T16:00:23.851Z</time>
      </trkpt>
      <trkpt lat="38.94844667" lon="1.42912">
        <ele>12.0</ele>
        <time>2020-08-17T16:00:24.854Z</time>
      </trkpt>
      <trkpt lat="38.94856833" lon="1.42913">
        <ele>12.0</ele>
        <time>2020-08-17T16:00:25.852Z</time>
      </trkpt>
      <trkpt lat="38.94856833" lon="1.42913">
        <ele>12.0</ele>
        <time>2020-08-17T16:00:26.866Z</time>
      </trkpt>
      <trkpt lat="38.94868667" lon="1.42914333">
        <ele>12.0</ele>
        <time>2020-08-17T16:00:27.851Z</time>
      </trkpt>
      <trkpt lat="38.948745" lon="1.42915">
        <ele>13.0</ele>
        <time>2020-08-17T16:00:28.866Z</time>
      </trkpt>
      <trkpt lat="38.948745" lon="1.42915">
        <ele>13.0</ele>
        <time>2020-08-17T16:00:29.846Z</time>
      </trkpt>
      <trkpt lat="38.94886333" lon="1.42916333">
        <ele>13.0</ele>
        <time>2020-08-17T16:00:30.873Z</time>
      </trkpt>
      <trkpt lat="38.94886333" lon="1.42916333">
        <ele>13.0</ele>
        <time>2020-08-17T16:00:31.849Z</time>
      </trkpt>
      <trkpt lat="38.94898333" lon="1.42917667">
        <ele>13.0</ele>
        <time>2020-08-17T16:00:32.852Z</time>
      </trkpt>
      <trkpt lat="38.94898333" lon="1.42917667">
        <ele>13.0</ele>
        <time>2020-08-17T16:00:33.866Z</time>
      </trkpt>
      <trkpt lat="38.94910333" lon="1.42918667">
        <ele>13.0</ele>
        <time>2020-08-17T16:00:34.853Z</time>
      </trkpt>
      <trkpt lat="38.949165" lon="1.42919">
        <ele>13.0</ele>
        <time>2020-08-17T16:00:35.874Z</time>
      </trkpt>
      <trkpt lat="38.949225" lon="1.42919167">
        <ele>13.0</ele>
        <time>2020-08-17T16:00:36.874Z</time>
      </trkpt>
      <trkpt lat="38.949225" lon="1.42919167">
        <ele>13.0</ele>
        <time>2020-08-17T16:00:37.860Z</time>
      </trkpt>
      <trkpt lat="38.94934333" lon="1.429185">
        <ele>14.0</ele>
        <time>2020-08-17T16:00:38.865Z</time>
      </trkpt>
      <trkpt lat="38.94934333" lon="1.429185">
        <ele>14.0</ele>
        <time>2020-08-17T16:00:39.870Z</time>
      </trkpt>
      <trkpt lat="38.94946" lon="1.42918167">
        <ele>14.0</ele>
        <time>2020-08-17T16:00:40.861Z</time>
      </trkpt>
      <trkpt lat="38.94951833" lon="1.42918167">
        <ele>14.0</ele>
        <time>2020-08-17T16:00:41.852Z</time>
      </trkpt>
      <trkpt lat="38.94957667" lon="1.429185">
        <ele>14.0</ele>
        <time>2020-08-17T16:00:42.866Z</time>
      </trkpt>
      <trkpt lat="38.94957667" lon="1.429185">
        <ele>14.0</ele>
        <time>2020-08-17T16:00:43.847Z</time>
      </trkpt>
      <trkpt lat="38.94968833" lon="1.42918833">
        <ele>15.0</ele>
        <time>2020-08-17T16:00:44.867Z</time>
      </trkpt>
      <trkpt lat="38.94968833" lon="1.42918833">
        <ele>15.0</ele>
        <time>2020-08-17T16:00:45.849Z</time>
      </trkpt>
      <trkpt lat="38.9498" lon="1.42919667">
        <ele>15.0</ele>
        <time>2020-08-17T16:00:46.873Z</time>
      </trkpt>
      <trkpt lat="38.9498" lon="1.42919667">
        <ele>15.0</ele>
        <time>2020-08-17T16:00:47.852Z</time>
      </trkpt>
      <trkpt lat="38.94991833" lon="1.42918833">
        <ele>15.0</ele>
        <time>2020-08-17T16:00:48.850Z</time>
      </trkpt>
      <trkpt lat="38.94991833" lon="1.42918833">
        <ele>15.0</ele>
        <time>2020-08-17T16:00:49.866Z</time>
      </trkpt>
      <trkpt lat="38.95004333" lon="1.42917833">
        <ele>15.0</ele>
        <time>2020-08-17T16:00:50.852Z</time>
      </trkpt>
      <trkpt lat="38.95004333" lon="1.42917833">
        <ele>15.0</ele>
        <time>2020-08-17T16:00:51.866Z</time>
      </trkpt>
      <trkpt lat="38.950165" lon="1.42917167">
        <ele>15.0</ele>
        <time>2020-08-17T16:00:52.854Z</time>
      </trkpt>
      <trkpt lat="38.950165" lon="1.42917167">
        <ele>15.0</ele>
        <time>2020-08-17T16:00:53.849Z</time>
      </trkpt>
      <trkpt lat="38.95028833" lon="1.42916667">
        <ele>16.0</ele>
        <time>2020-08-17T16:00:54.867Z</time>
      </trkpt>
      <trkpt lat="38.95028833" lon="1.42916667">
        <ele>16.0</ele>
        <time>2020-08-17T16:00:55.846Z</time>
      </trkpt>
      <trkpt lat="38.95041" lon="1.42915833">
        <ele>17.0</ele>
        <time>2020-08-17T16:00:56.864Z</time>
      </trkpt>
      <trkpt lat="38.95041" lon="1.42915833">
        <ele>17.0</ele>
        <time>2020-08-17T16:00:57.850Z</time>
      </trkpt>
      <trkpt lat="38.95053167" lon="1.42915333">
        <ele>18.0</ele>
        <time>2020-08-17T16:00:58.870Z</time>
      </trkpt>
      <trkpt lat="38.95053167" lon="1.42915333">
        <ele>18.0</ele>
        <time>2020-08-17T16:00:59.849Z</time>
      </trkpt>
      <trkpt lat="38.950655" lon="1.42915167">
        <ele>18.0</ele>
        <time>2020-08-17T16:01:00.851Z</time>
      </trkpt>
      <trkpt lat="38.950655" lon="1.42915167">
        <ele>18.0</ele>
        <time>2020-08-17T16:01:01.866Z</time>
      </trkpt>
      <trkpt lat="38.950775" lon="1.429155">
        <ele>18.0</ele>
        <time>2020-08-17T16:01:02.851Z</time>
      </trkpt>
      <trkpt lat="38.950775" lon="1.429155">
        <ele>18.0</ele>
        <time>2020-08-17T16:01:03.868Z</time>
      </trkpt>
      <trkpt lat="38.950895" lon="1.42915833">
        <ele>18.0</ele>
        <time>2020-08-17T16:01:04.852Z</time>
      </trkpt>
      <trkpt lat="38.95095333" lon="1.42915333">
        <ele>19.0</ele>
        <time>2020-08-17T16:01:05.875Z</time>
      </trkpt>
      <trkpt lat="38.951015" lon="1.42915333">
        <ele>19.0</ele>
        <time>2020-08-17T16:01:06.870Z</time>
      </trkpt>
      <trkpt lat="38.951015" lon="1.42915333">
        <ele>19.0</ele>
        <time>2020-08-17T16:01:07.850Z</time>
      </trkpt>
      <trkpt lat="38.95113667" lon="1.42915333">
        <ele>19.0</ele>
        <time>2020-08-17T16:01:08.852Z</time>
      </trkpt>
      <trkpt lat="38.95113667" lon="1.42915333">
        <ele>19.0</ele>
        <time>2020-08-17T16:01:09.874Z</time>
      </trkpt>
      <trkpt lat="38.95125833" lon="1.42915333">
        <ele>19.0</ele>
        <time>2020-08-17T16:01:10.852Z</time>
      </trkpt>
      <trkpt lat="38.95125833" lon="1.42915333">
        <ele>19.0</ele>
        <time>2020-08-17T16:01:11.846Z</time>
      </trkpt>
      <trkpt lat="38.95137667" lon="1.42915667">
        <ele>19.0</ele>
        <time>2020-08-17T16:01:12.865Z</time>
      </trkpt>
      <trkpt lat="38.95137667" lon="1.42915667">
        <ele>19.0</ele>
        <time>2020-08-17T16:01:13.849Z</time>
      </trkpt>
      <trkpt lat="38.951495" lon="1.42915667">
        <ele>19.0</ele>
        <time>2020-08-17T16:01:14.852Z</time>
      </trkpt>
      <trkpt lat="38.951495" lon="1.42915667">
        <ele>19.0</ele>
        <time>2020-08-17T16:01:15.870Z</time>
      </trkpt>
      <trkpt lat="38.95161333" lon="1.429155">
        <ele>19.0</ele>
        <time>2020-08-17T16:01:16.853Z</time>
      </trkpt>
      <trkpt lat="38.95161333" lon="1.429155">
        <ele>19.0</ele>
        <time>2020-08-17T16:01:17.883Z</time>
      </trkpt>
      <trkpt lat="38.95173" lon="1.42915333">
        <ele>20.0</ele>
        <time>2020-08-17T16:01:18.861Z</time>
      </trkpt>
      <trkpt lat="38.95173" lon="1.42915333">
        <ele>20.0</ele>
        <time>2020-08-17T16:01:19.849Z</time>
      </trkpt>
      <trkpt lat="38.951845" lon="1.42914667">
        <ele>22.0</ele>
        <time>2020-08-17T16:01:20.867Z</time>
      </trkpt>
      <trkpt lat="38.95190333" lon="1.429145">
        <ele>22.0</ele>
        <time>2020-08-17T16:01:21.852Z</time>
      </trkpt>
      <trkpt lat="38.95190333" lon="1.429145">
        <ele>22.0</ele>
        <time>2020-08-17T16:01:22.866Z</time>
      </trkpt>
      <trkpt lat="38.95201833" lon="1.42914">
        <ele>23.0</ele>
        <time>2020-08-17T16:01:23.852Z</time>
      </trkpt>
      <trkpt lat="38.95207667" lon="1.42914">
        <ele>23.0</ele>
        <time>2020-08-17T16:01:24.859Z</time>
      </trkpt>
      <trkpt lat="38.95207667" lon="1.42914">
        <ele>23.0</ele>
        <time>2020-08-17T16:01:25.846Z</time>
      </trkpt>
      <trkpt lat="38.95219" lon="1.429145">
        <ele>23.0</ele>
        <time>2020-08-17T16:01:26.865Z</time>
      </trkpt>
      <trkpt lat="38.95219" lon="1.429145">
        <ele>23.0</ele>
        <time>2020-08-17T16:01:27.851Z</time>
      </trkpt>
      <trkpt lat="38.952305" lon="1.42915167">
        <ele>23.0</ele>
        <time>2020-08-17T16:01:28.853Z</time>
      </trkpt>
      <trkpt lat="38.952305" lon="1.42915167">
        <ele>23.0</ele>
        <time>2020-08-17T16:01:29.867Z</time>
      </trkpt>
      <trkpt lat="38.952415" lon="1.429155">
        <ele>24.0</ele>
        <time>2020-08-17T16:01:30.852Z</time>
      </trkpt>
      <trkpt lat="38.952415" lon="1.429155">
        <ele>24.0</ele>
        <time>2020-08-17T16:01:31.866Z</time>
      </trkpt>
      <trkpt lat="38.95252833" lon="1.42916333">
        <ele>24.0</ele>
        <time>2020-08-17T16:01:32.852Z</time>
      </trkpt>
      <trkpt lat="38.95252833" lon="1.42916333">
        <ele>24.0</ele>
        <time>2020-08-17T16:01:33.866Z</time>
      </trkpt>
      <trkpt lat="38.95263833" lon="1.42917333">
        <ele>24.0</ele>
        <time>2020-08-17T16:01:34.853Z</time>
      </trkpt>
      <trkpt lat="38.95263833" lon="1.42917333">
        <ele>24.0</ele>
        <time>2020-08-17T16:01:35.871Z</time>
      </trkpt>
      <trkpt lat="38.95274833" lon="1.42918">
        <ele>24.0</ele>
        <time>2020-08-17T16:01:36.852Z</time>
      </trkpt>
      <trkpt lat="38.95274833" lon="1.42918">
        <ele>24.0</ele>
        <time>2020-08-17T16:01:37.847Z</time>
      </trkpt>
      <trkpt lat="38.95286" lon="1.42918333">
        <ele>25.0</ele>
        <time>2020-08-17T16:01:38.863Z</time>
      </trkpt>
      <trkpt lat="38.95286" lon="1.42918333">
        <ele>25.0</ele>
        <time>2020-08-17T16:01:39.847Z</time>
      </trkpt>
      <trkpt lat="38.95297167" lon="1.42918167">
        <ele>25.0</ele>
        <time>2020-08-17T16:01:40.867Z</time>
      </trkpt>
      <trkpt lat="38.95297167" lon="1.42918167">
        <ele>25.0</ele>
        <time>2020-08-17T16:01:41.849Z</time>
      </trkpt>
      <trkpt lat="38.95308" lon="1.42917167">
        <ele>26.0</ele>
        <time>2020-08-17T16:01:42.852Z</time>
      </trkpt>
      <trkpt lat="38.95308" lon="1.42917167">
        <ele>26.0</ele>
        <time>2020-08-17T16:01:43.846Z</time>
      </trkpt>
      <trkpt lat="38.95318667" lon="1.42915833">
        <ele>27.0</ele>
        <time>2020-08-17T16:01:44.864Z</time>
      </trkpt>
      <trkpt lat="38.95318667" lon="1.42915833">
        <ele>27.0</ele>
        <time>2020-08-17T16:01:45.849Z</time>
      </trkpt>
      <trkpt lat="38.95329667" lon="1.42913667">
        <ele>27.0</ele>
        <time>2020-08-17T16:01:46.853Z</time>
      </trkpt>
      <trkpt lat="38.95329667" lon="1.42913667">
        <ele>27.0</ele>
        <time>2020-08-17T16:01:47.875Z</time>
      </trkpt>
      <trkpt lat="38.95340833" lon="1.42911">
        <ele>28.0</ele>
        <time>2020-08-17T16:01:48.859Z</time>
      </trkpt>
      <trkpt lat="38.95340833" lon="1.42911">
        <ele>28.0</ele>
        <time>2020-08-17T16:01:49.849Z</time>
      </trkpt>
      <trkpt lat="38.95352" lon="1.42908667">
        <ele>28.0</ele>
        <time>2020-08-17T16:01:50.867Z</time>
      </trkpt>
      <trkpt lat="38.95352" lon="1.42908667">
        <ele>28.0</ele>
        <time>2020-08-17T16:01:51.849Z</time>
      </trkpt>
      <trkpt lat="38.95363" lon="1.42907167">
        <ele>28.0</ele>
        <time>2020-08-17T16:01:52.868Z</time>
      </trkpt>
      <trkpt lat="38.95363" lon="1.42907167">
        <ele>28.0</ele>
        <time>2020-08-17T16:01:53.847Z</time>
      </trkpt>
      <trkpt lat="38.95374333" lon="1.42905">
        <ele>29.0</ele>
        <time>2020-08-17T16:01:54.865Z</time>
      </trkpt>
      <trkpt lat="38.95374333" lon="1.42905">
        <ele>29.0</ele>
        <time>2020-08-17T16:01:55.849Z</time>
      </trkpt>
      <trkpt lat="38.95384833" lon="1.42902833">
        <ele>30.0</ele>
        <time>2020-08-17T16:01:56.867Z</time>
      </trkpt>
      <trkpt lat="38.95384833" lon="1.42902833">
        <ele>30.0</ele>
        <time>2020-08-17T16:01:57.846Z</time>
      </trkpt>
      <trkpt lat="38.95394667" lon="1.42901833">
        <ele>30.0</ele>
        <time>2020-08-17T16:01:58.867Z</time>
      </trkpt>
      <trkpt lat="38.95394667" lon="1.42901833">
        <ele>30.0</ele>
        <time>2020-08-17T16:01:59.849Z</time>
      </trkpt>
      <trkpt lat="38.95404333" lon="1.42899667">
        <ele>30.0</ele>
        <time>2020-08-17T16:02:00.852Z</time>
      </trkpt>
      <trkpt lat="38.95409167" lon="1.42899667">
        <ele>29.0</ele>
        <time>2020-08-17T16:02:01.852Z</time>
      </trkpt>
      <trkpt lat="38.95409167" lon="1.42899667">
        <ele>29.0</ele>
        <time>2020-08-17T16:02:02.866Z</time>
      </trkpt>
      <trkpt lat="38.954185" lon="1.42898333">
        <ele>29.0</ele>
        <time>2020-08-17T16:02:03.851Z</time>
      </trkpt>
      <trkpt lat="38.954185" lon="1.42898333">
        <ele>29.0</ele>
        <time>2020-08-17T16:02:04.847Z</time>
      </trkpt>
      <trkpt lat="38.95427833" lon="1.42896167">
        <ele>30.0</ele>
        <time>2020-08-17T16:02:05.873Z</time>
      </trkpt>
      <trkpt lat="38.95427833" lon="1.42896167">
        <ele>30.0</ele>
        <time>2020-08-17T16:02:06.850Z</time>
      </trkpt>
      <trkpt lat="38.95437167" lon="1.42893667">
        <ele>32.0</ele>
        <time>2020-08-17T16:02:07.851Z</time>
      </trkpt>
      <trkpt lat="38.95437167" lon="1.42893667">
        <ele>32.0</ele>
        <time>2020-08-17T16:02:08.854Z</time>
      </trkpt>
      <trkpt lat="38.95446333" lon="1.42891833">
        <ele>32.0</ele>
        <time>2020-08-17T16:02:09.851Z</time>
      </trkpt>
      <trkpt lat="38.95446333" lon="1.42891833">
        <ele>32.0</ele>
        <time>2020-08-17T16:02:10.866Z</time>
      </trkpt>
      <trkpt lat="38.95455167" lon="1.42889667">
        <ele>33.0</ele>
        <time>2020-08-17T16:02:11.863Z</time>
      </trkpt>
      <trkpt lat="38.9546" lon="1.42889">
        <ele>33.0</ele>
        <time>2020-08-17T16:02:12.850Z</time>
      </trkpt>
      <trkpt lat="38.9546" lon="1.42889">
        <ele>33.0</ele>
        <time>2020-08-17T16:02:13.866Z</time>
      </trkpt>
      <trkpt lat="38.95469667" lon="1.428865">
        <ele>34.0</ele>
        <time>2020-08-17T16:02:14.852Z</time>
      </trkpt>
      <trkpt lat="38.95469667" lon="1.428865">
        <ele>34.0</ele>
        <time>2020-08-17T16:02:15.868Z</time>
      </trkpt>
      <trkpt lat="38.95479833" lon="1.428845">
        <ele>34.0</ele>
        <time>2020-08-17T16:02:16.854Z</time>
      </trkpt>
      <trkpt lat="38.95479833" lon="1.428845">
        <ele>34.0</ele>
        <time>2020-08-17T16:02:17.848Z</time>
      </trkpt>
      <trkpt lat="38.9549" lon="1.42882667">
        <ele>34.0</ele>
        <time>2020-08-17T16:02:18.852Z</time>
      </trkpt>
      <trkpt lat="38.9549" lon="1.42882667">
        <ele>34.0</ele>
        <time>2020-08-17T16:02:19.866Z</time>
      </trkpt>
      <trkpt lat="38.95500333" lon="1.42880667">
        <ele>34.0</ele>
        <time>2020-08-17T16:02:20.852Z</time>
      </trkpt>
      <trkpt lat="38.955055" lon="1.428795">
        <ele>35.0</ele>
        <time>2020-08-17T16:02:21.866Z</time>
      </trkpt>
      <trkpt lat="38.955055" lon="1.428795">
        <ele>35.0</ele>
        <time>2020-08-17T16:02:22.848Z</time>
      </trkpt>
      <trkpt lat="38.955155" lon="1.42877333">
        <ele>35.0</ele>
        <time>2020-08-17T16:02:23.851Z</time>
      </trkpt>
      <trkpt lat="38.955155" lon="1.42877333">
        <ele>35.0</ele>
        <time>2020-08-17T16:02:24.857Z</time>
      </trkpt>
      <trkpt lat="38.95525333" lon="1.428745">
        <ele>35.0</ele>
        <time>2020-08-17T16:02:25.852Z</time>
      </trkpt>
      <trkpt lat="38.95530333" lon="1.42873167">
        <ele>35.0</ele>
        <time>2020-08-17T16:02:26.866Z</time>
      </trkpt>
      <trkpt lat="38.95530333" lon="1.42873167">
        <ele>35.0</ele>
        <time>2020-08-17T16:02:27.847Z</time>
      </trkpt>
      <trkpt lat="38.95541" lon="1.42871833">
        <ele>35.0</ele>
        <time>2020-08-17T16:02:28.851Z</time>
      </trkpt>
      <trkpt lat="38.95541" lon="1.42871833">
        <ele>35.0</ele>
        <time>2020-08-17T16:02:29.865Z</time>
      </trkpt>
      <trkpt lat="38.95551667" lon="1.42869833">
        <ele>34.0</ele>
        <time>2020-08-17T16:02:30.865Z</time>
      </trkpt>
      <trkpt lat="38.95551667" lon="1.42869833">
        <ele>34.0</ele>
        <time>2020-08-17T16:02:31.846Z</time>
      </trkpt>
      <trkpt lat="38.95562333" lon="1.42867167">
        <ele>34.0</ele>
        <time>2020-08-17T16:02:32.864Z</time>
      </trkpt>
      <trkpt lat="38.95562333" lon="1.42867167">
        <ele>34.0</ele>
        <time>2020-08-17T16:02:33.848Z</time>
      </trkpt>
      <trkpt lat="38.95573" lon="1.42864333">
        <ele>34.0</ele>
        <time>2020-08-17T16:02:34.866Z</time>
      </trkpt>
      <trkpt lat="38.95573" lon="1.42864333">
        <ele>34.0</ele>
        <time>2020-08-17T16:02:35.849Z</time>
      </trkpt>
      <trkpt lat="38.955835" lon="1.42861667">
        <ele>34.0</ele>
        <time>2020-08-17T16:02:36.852Z</time>
      </trkpt>
      <trkpt lat="38.955835" lon="1.42861667">
        <ele>34.0</ele>
        <time>2020-08-17T16:02:37.849Z</time>
      </trkpt>
      <trkpt lat="38.95594333" lon="1.42858833">
        <ele>34.0</ele>
        <time>2020-08-17T16:02:38.866Z</time>
      </trkpt>
      <trkpt lat="38.95599667" lon="1.42857167">
        <ele>34.0</ele>
        <time>2020-08-17T16:02:39.852Z</time>
      </trkpt>
      <trkpt lat="38.95605" lon="1.42855667">
        <ele>34.0</ele>
        <time>2020-08-17T16:02:40.853Z</time>
      </trkpt>
      <trkpt lat="38.95605" lon="1.42855667">
        <ele>34.0</ele>
        <time>2020-08-17T16:02:41.847Z</time>
      </trkpt>
      <trkpt lat="38.95615167" lon="1.428525">
        <ele>35.0</ele>
        <time>2020-08-17T16:02:42.866Z</time>
      </trkpt>
      <trkpt lat="38.95615167" lon="1.428525">
        <ele>35.0</ele>
        <time>2020-08-17T16:02:43.850Z</time>
      </trkpt>
      <trkpt lat="38.95625333" lon="1.42849333">
        <ele>37.0</ele>
        <time>2020-08-17T16:02:44.852Z</time>
      </trkpt>
      <trkpt lat="38.95625333" lon="1.42849333">
        <ele>37.0</ele>
        <time>2020-08-17T16:02:45.867Z</time>
      </trkpt>
      <trkpt lat="38.95635833" lon="1.42846333">
        <ele>38.0</ele>
        <time>2020-08-17T16:02:46.854Z</time>
      </trkpt>
      <trkpt lat="38.95635833" lon="1.42846333">
        <ele>38.0</ele>
        <time>2020-08-17T16:02:47.868Z</time>
      </trkpt>
      <trkpt lat="38.95646333" lon="1.42843333">
        <ele>38.0</ele>
        <time>2020-08-17T16:02:48.864Z</time>
      </trkpt>
      <trkpt lat="38.95646333" lon="1.42843333">
        <ele>38.0</ele>
        <time>2020-08-17T16:02:49.851Z</time>
      </trkpt>
      <trkpt lat="38.95657" lon="1.42840833">
        <ele>39.0</ele>
        <time>2020-08-17T16:02:50.852Z</time>
      </trkpt>
      <trkpt lat="38.95657" lon="1.42840833">
        <ele>39.0</ele>
        <time>2020-08-17T16:02:51.868Z</time>
      </trkpt>
      <trkpt lat="38.95668333" lon="1.42837833">
        <ele>40.0</ele>
        <time>2020-08-17T16:02:52.853Z</time>
      </trkpt>
      <trkpt lat="38.95668333" lon="1.42837833">
        <ele>40.0</ele>
        <time>2020-08-17T16:02:53.849Z</time>
      </trkpt>
      <trkpt lat="38.95678333" lon="1.42832167">
        <ele>43.0</ele>
        <time>2020-08-17T16:02:54.853Z</time>
      </trkpt>
      <trkpt lat="38.95678333" lon="1.42832167">
        <ele>43.0</ele>
        <time>2020-08-17T16:02:55.850Z</time>
      </trkpt>
      <trkpt lat="38.95688833" lon="1.428265">
        <ele>44.0</ele>
        <time>2020-08-17T16:02:56.851Z</time>
      </trkpt>
      <trkpt lat="38.95688833" lon="1.428265">
        <ele>44.0</ele>
        <time>2020-08-17T16:02:57.865Z</time>
      </trkpt>
      <trkpt lat="38.95699333" lon="1.42820833">
        <ele>44.0</ele>
        <time>2020-08-17T16:02:58.861Z</time>
      </trkpt>
      <trkpt lat="38.95699333" lon="1.42820833">
        <ele>44.0</ele>
        <time>2020-08-17T16:02:59.846Z</time>
      </trkpt>
      <trkpt lat="38.957095" lon="1.42815333">
        <ele>45.0</ele>
        <time>2020-08-17T16:03:00.853Z</time>
      </trkpt>
      <trkpt lat="38.957095" lon="1.42815333">
        <ele>45.0</ele>
        <time>2020-08-17T16:03:01.872Z</time>
      </trkpt>
      <trkpt lat="38.95719833" lon="1.42810167">
        <ele>45.0</ele>
        <time>2020-08-17T16:03:02.852Z</time>
      </trkpt>
      <trkpt lat="38.95719833" lon="1.42810167">
        <ele>45.0</ele>
        <time>2020-08-17T16:03:03.866Z</time>
      </trkpt>
      <trkpt lat="38.95729833" lon="1.42804333">
        <ele>46.0</ele>
        <time>2020-08-17T16:03:04.854Z</time>
      </trkpt>
      <trkpt lat="38.95735" lon="1.428015">
        <ele>45.0</ele>
        <time>2020-08-17T16:03:05.854Z</time>
      </trkpt>
      <trkpt lat="38.95735" lon="1.428015">
        <ele>45.0</ele>
        <time>2020-08-17T16:03:06.849Z</time>
      </trkpt>
      <trkpt lat="38.95745333" lon="1.42795833">
        <ele>46.0</ele>
        <time>2020-08-17T16:03:07.875Z</time>
      </trkpt>
      <trkpt lat="38.957505" lon="1.42793">
        <ele>46.0</ele>
        <time>2020-08-17T16:03:08.854Z</time>
      </trkpt>
      <trkpt lat="38.957505" lon="1.42793">
        <ele>46.0</ele>
        <time>2020-08-17T16:03:09.847Z</time>
      </trkpt>
      <trkpt lat="38.95760667" lon="1.427865">
        <ele>45.0</ele>
        <time>2020-08-17T16:03:10.866Z</time>
      </trkpt>
      <trkpt lat="38.95760667" lon="1.427865">
        <ele>45.0</ele>
        <time>2020-08-17T16:03:11.850Z</time>
      </trkpt>
      <trkpt lat="38.95770833" lon="1.42781333">
        <ele>45.0</ele>
        <time>2020-08-17T16:03:12.853Z</time>
      </trkpt>
      <trkpt lat="38.95770833" lon="1.42781333">
        <ele>45.0</ele>
        <time>2020-08-17T16:03:13.846Z</time>
      </trkpt>
      <trkpt lat="38.95780667" lon="1.42775667">
        <ele>45.0</ele>
        <time>2020-08-17T16:03:14.865Z</time>
      </trkpt>
      <trkpt lat="38.95780667" lon="1.42775667">
        <ele>45.0</ele>
        <time>2020-08-17T16:03:15.850Z</time>
      </trkpt>
      <trkpt lat="38.95789833" lon="1.42769667">
        <ele>45.0</ele>
        <time>2020-08-17T16:03:16.853Z</time>
      </trkpt>
      <trkpt lat="38.95789833" lon="1.42769667">
        <ele>45.0</ele>
        <time>2020-08-17T16:03:17.850Z</time>
      </trkpt>
      <trkpt lat="38.95799" lon="1.42763167">
        <ele>45.0</ele>
        <time>2020-08-17T16:03:18.851Z</time>
      </trkpt>
      <trkpt lat="38.958035" lon="1.42760167">
        <ele>45.0</ele>
        <time>2020-08-17T16:03:19.874Z</time>
      </trkpt>
      <trkpt lat="38.958035" lon="1.42760167">
        <ele>45.0</ele>
        <time>2020-08-17T16:03:20.858Z</time>
      </trkpt>
      <trkpt lat="38.95812167" lon="1.42754">
        <ele>46.0</ele>
        <time>2020-08-17T16:03:21.852Z</time>
      </trkpt>
      <trkpt lat="38.95816333" lon="1.42751">
        <ele>46.0</ele>
        <time>2020-08-17T16:03:22.866Z</time>
      </trkpt>
      <trkpt lat="38.95816333" lon="1.42751">
        <ele>46.0</ele>
        <time>2020-08-17T16:03:23.847Z</time>
      </trkpt>
      <trkpt lat="38.95825667" lon="1.42745333">
        <ele>46.0</ele>
        <time>2020-08-17T16:03:24.856Z</time>
      </trkpt>
      <trkpt lat="38.95825667" lon="1.42745333">
        <ele>46.0</ele>
        <time>2020-08-17T16:03:25.856Z</time>
      </trkpt>
      <trkpt lat="38.95835667" lon="1.42739333">
        <ele>47.0</ele>
        <time>2020-08-17T16:03:26.852Z</time>
      </trkpt>
      <trkpt lat="38.95835667" lon="1.42739333">
        <ele>47.0</ele>
        <time>2020-08-17T16:03:27.866Z</time>
      </trkpt>
      <trkpt lat="38.95845833" lon="1.42733">
        <ele>47.0</ele>
        <time>2020-08-17T16:03:28.854Z</time>
      </trkpt>
      <trkpt lat="38.95845833" lon="1.42733">
        <ele>47.0</ele>
        <time>2020-08-17T16:03:29.849Z</time>
      </trkpt>
      <trkpt lat="38.95856833" lon="1.42726667">
        <ele>47.0</ele>
        <time>2020-08-17T16:03:30.852Z</time>
      </trkpt>
      <trkpt lat="38.95856833" lon="1.42726667">
        <ele>47.0</ele>
        <time>2020-08-17T16:03:31.850Z</time>
      </trkpt>
      <trkpt lat="38.95867833" lon="1.42720167">
        <ele>46.0</ele>
        <time>2020-08-17T16:03:32.852Z</time>
      </trkpt>
      <trkpt lat="38.95867833" lon="1.42720167">
        <ele>46.0</ele>
        <time>2020-08-17T16:03:33.849Z</time>
      </trkpt>
      <trkpt lat="38.95879" lon="1.42713833">
        <ele>45.0</ele>
        <time>2020-08-17T16:03:34.853Z</time>
      </trkpt>
      <trkpt lat="38.95879" lon="1.42713833">
        <ele>45.0</ele>
        <time>2020-08-17T16:03:35.867Z</time>
      </trkpt>
      <trkpt lat="38.95890167" lon="1.42707">
        <ele>45.0</ele>
        <time>2020-08-17T16:03:36.849Z</time>
      </trkpt>
      <trkpt lat="38.95890167" lon="1.42707">
        <ele>45.0</ele>
        <time>2020-08-17T16:03:37.866Z</time>
      </trkpt>
      <trkpt lat="38.95901167" lon="1.427005">
        <ele>45.0</ele>
        <time>2020-08-17T16:03:38.852Z</time>
      </trkpt>
      <trkpt lat="38.95901167" lon="1.427005">
        <ele>45.0</ele>
        <time>2020-08-17T16:03:39.880Z</time>
      </trkpt>
      <trkpt lat="38.95912167" lon="1.42694">
        <ele>45.0</ele>
        <time>2020-08-17T16:03:40.853Z</time>
      </trkpt>
      <trkpt lat="38.95912167" lon="1.42694">
        <ele>45.0</ele>
        <time>2020-08-17T16:03:41.850Z</time>
      </trkpt>
      <trkpt lat="38.95923167" lon="1.42687167">
        <ele>46.0</ele>
        <time>2020-08-17T16:03:42.853Z</time>
      </trkpt>
      <trkpt lat="38.95923167" lon="1.42687167">
        <ele>46.0</ele>
        <time>2020-08-17T16:03:43.868Z</time>
      </trkpt>
      <trkpt lat="38.95934333" lon="1.42681333">
        <ele>45.0</ele>
        <time>2020-08-17T16:03:44.849Z</time>
      </trkpt>
      <trkpt lat="38.95934333" lon="1.42681333">
        <ele>45.0</ele>
        <time>2020-08-17T16:03:45.866Z</time>
      </trkpt>
      <trkpt lat="38.95945167" lon="1.426755">
        <ele>45.0</ele>
        <time>2020-08-17T16:03:46.854Z</time>
      </trkpt>
      <trkpt lat="38.95945167" lon="1.426755">
        <ele>45.0</ele>
        <time>2020-08-17T16:03:47.850Z</time>
      </trkpt>
      <trkpt lat="38.95955833" lon="1.42669333">
        <ele>44.0</ele>
        <time>2020-08-17T16:03:48.852Z</time>
      </trkpt>
      <trkpt lat="38.95955833" lon="1.42669333">
        <ele>44.0</ele>
        <time>2020-08-17T16:03:49.847Z</time>
      </trkpt>
      <trkpt lat="38.95966167" lon="1.42663333">
        <ele>44.0</ele>
        <time>2020-08-17T16:03:50.863Z</time>
      </trkpt>
      <trkpt lat="38.959715" lon="1.42660167">
        <ele>44.0</ele>
        <time>2020-08-17T16:03:51.851Z</time>
      </trkpt>
      <trkpt lat="38.95976667" lon="1.42657">
        <ele>44.0</ele>
        <time>2020-08-17T16:03:52.869Z</time>
      </trkpt>
      <trkpt lat="38.95976667" lon="1.42657">
        <ele>44.0</ele>
        <time>2020-08-17T16:03:53.850Z</time>
      </trkpt>
      <trkpt lat="38.95987" lon="1.42650833">
        <ele>44.0</ele>
        <time>2020-08-17T16:03:54.853Z</time>
      </trkpt>
      <trkpt lat="38.95987" lon="1.42650833">
        <ele>44.0</ele>
        <time>2020-08-17T16:03:55.872Z</time>
      </trkpt>
      <trkpt lat="38.95997167" lon="1.42645167">
        <ele>44.0</ele>
        <time>2020-08-17T16:03:56.852Z</time>
      </trkpt>
      <trkpt lat="38.96002333" lon="1.42642">
        <ele>44.0</ele>
        <time>2020-08-17T16:03:57.866Z</time>
      </trkpt>
      <trkpt lat="38.960075" lon="1.42639">
        <ele>45.0</ele>
        <time>2020-08-17T16:03:58.851Z</time>
      </trkpt>
      <trkpt lat="38.960075" lon="1.42639">
        <ele>45.0</ele>
        <time>2020-08-17T16:03:59.866Z</time>
      </trkpt>
      <trkpt lat="38.960175" lon="1.42633">
        <ele>46.0</ele>
        <time>2020-08-17T16:04:00.853Z</time>
      </trkpt>
      <trkpt lat="38.960175" lon="1.42633">
        <ele>46.0</ele>
        <time>2020-08-17T16:04:01.868Z</time>
      </trkpt>
      <trkpt lat="38.96027667" lon="1.42627">
        <ele>46.0</ele>
        <time>2020-08-17T16:04:02.854Z</time>
      </trkpt>
      <trkpt lat="38.96027667" lon="1.42627">
        <ele>46.0</ele>
        <time>2020-08-17T16:04:03.853Z</time>
      </trkpt>
      <trkpt lat="38.96037667" lon="1.42621167">
        <ele>46.0</ele>
        <time>2020-08-17T16:04:04.854Z</time>
      </trkpt>
      <trkpt lat="38.96037667" lon="1.42621167">
        <ele>46.0</ele>
        <time>2020-08-17T16:04:05.848Z</time>
      </trkpt>
      <trkpt lat="38.96048" lon="1.42615333">
        <ele>47.0</ele>
        <time>2020-08-17T16:04:06.852Z</time>
      </trkpt>
      <trkpt lat="38.96048" lon="1.42615333">
        <ele>47.0</ele>
        <time>2020-08-17T16:04:07.873Z</time>
      </trkpt>
      <trkpt lat="38.96058" lon="1.42609333">
        <ele>48.0</ele>
        <time>2020-08-17T16:04:08.862Z</time>
      </trkpt>
      <trkpt lat="38.96063333" lon="1.42606167">
        <ele>48.0</ele>
        <time>2020-08-17T16:04:09.852Z</time>
      </trkpt>
      <trkpt lat="38.960685" lon="1.42603167">
        <ele>48.0</ele>
        <time>2020-08-17T16:04:10.853Z</time>
      </trkpt>
      <trkpt lat="38.960685" lon="1.42603167">
        <ele>48.0</ele>
        <time>2020-08-17T16:04:11.868Z</time>
      </trkpt>
      <trkpt lat="38.960785" lon="1.42596833">
        <ele>48.0</ele>
        <time>2020-08-17T16:04:12.853Z</time>
      </trkpt>
      <trkpt lat="38.960785" lon="1.42596833">
        <ele>48.0</ele>
        <time>2020-08-17T16:04:13.850Z</time>
      </trkpt>
      <trkpt lat="38.96089167" lon="1.42590667">
        <ele>48.0</ele>
        <time>2020-08-17T16:04:14.852Z</time>
      </trkpt>
      <trkpt lat="38.96089167" lon="1.42590667">
        <ele>48.0</ele>
        <time>2020-08-17T16:04:15.867Z</time>
      </trkpt>
      <trkpt lat="38.96099833" lon="1.42584">
        <ele>48.0</ele>
        <time>2020-08-17T16:04:16.853Z</time>
      </trkpt>
      <trkpt lat="38.96099833" lon="1.42584">
        <ele>48.0</ele>
        <time>2020-08-17T16:04:17.868Z</time>
      </trkpt>
      <trkpt lat="38.96110333" lon="1.42577">
        <ele>48.0</ele>
        <time>2020-08-17T16:04:18.853Z</time>
      </trkpt>
      <trkpt lat="38.96110333" lon="1.42577">
        <ele>48.0</ele>
        <time>2020-08-17T16:04:19.849Z</time>
      </trkpt>
      <trkpt lat="38.96120667" lon="1.4257">
        <ele>48.0</ele>
        <time>2020-08-17T16:04:20.852Z</time>
      </trkpt>
      <trkpt lat="38.96120667" lon="1.4257">
        <ele>48.0</ele>
        <time>2020-08-17T16:04:21.868Z</time>
      </trkpt>
      <trkpt lat="38.96130833" lon="1.42562667">
        <ele>48.0</ele>
        <time>2020-08-17T16:04:22.853Z</time>
      </trkpt>
      <trkpt lat="38.96130833" lon="1.42562667">
        <ele>48.0</ele>
        <time>2020-08-17T16:04:23.850Z</time>
      </trkpt>
      <trkpt lat="38.96140833" lon="1.42555333">
        <ele>48.0</ele>
        <time>2020-08-17T16:04:24.853Z</time>
      </trkpt>
      <trkpt lat="38.96140833" lon="1.42555333">
        <ele>48.0</ele>
        <time>2020-08-17T16:04:25.864Z</time>
      </trkpt>
      <trkpt lat="38.96150833" lon="1.42547833">
        <ele>48.0</ele>
        <time>2020-08-17T16:04:26.852Z</time>
      </trkpt>
      <trkpt lat="38.96155833" lon="1.42544167">
        <ele>49.0</ele>
        <time>2020-08-17T16:04:27.866Z</time>
      </trkpt>
      <trkpt lat="38.96160833" lon="1.42540167">
        <ele>49.0</ele>
        <time>2020-08-17T16:04:28.853Z</time>
      </trkpt>
      <trkpt lat="38.96160833" lon="1.42540167">
        <ele>49.0</ele>
        <time>2020-08-17T16:04:29.872Z</time>
      </trkpt>
      <trkpt lat="38.96170833" lon="1.42532">
        <ele>49.0</ele>
        <time>2020-08-17T16:04:30.859Z</time>
      </trkpt>
      <trkpt lat="38.96170833" lon="1.42532">
        <ele>49.0</ele>
        <time>2020-08-17T16:04:31.849Z</time>
      </trkpt>
      <trkpt lat="38.96180833" lon="1.42523667">
        <ele>50.0</ele>
        <time>2020-08-17T16:04:32.868Z</time>
      </trkpt>
      <trkpt lat="38.96186" lon="1.42519667">
        <ele>50.0</ele>
        <time>2020-08-17T16:04:33.852Z</time>
      </trkpt>
      <trkpt lat="38.96191" lon="1.42515833">
        <ele>50.0</ele>
        <time>2020-08-17T16:04:34.866Z</time>
      </trkpt>
      <trkpt lat="38.96191" lon="1.42515833">
        <ele>50.0</ele>
        <time>2020-08-17T16:04:35.849Z</time>
      </trkpt>
      <trkpt lat="38.96201" lon="1.42508">
        <ele>50.0</ele>
        <time>2020-08-17T16:04:36.868Z</time>
      </trkpt>
      <trkpt lat="38.96201" lon="1.42508">
        <ele>50.0</ele>
        <time>2020-08-17T16:04:37.851Z</time>
      </trkpt>
      <trkpt lat="38.96210833" lon="1.425005">
        <ele>51.0</ele>
        <time>2020-08-17T16:04:38.852Z</time>
      </trkpt>
      <trkpt lat="38.96215667" lon="1.42496833">
        <ele>51.0</ele>
        <time>2020-08-17T16:04:39.852Z</time>
      </trkpt>
      <trkpt lat="38.96215667" lon="1.42496833">
        <ele>51.0</ele>
        <time>2020-08-17T16:04:40.866Z</time>
      </trkpt>
      <trkpt lat="38.96224667" lon="1.42489833">
        <ele>51.0</ele>
        <time>2020-08-17T16:04:41.851Z</time>
      </trkpt>
      <trkpt lat="38.96229667" lon="1.42486333">
        <ele>51.0</ele>
        <time>2020-08-17T16:04:42.865Z</time>
      </trkpt>
      <trkpt lat="38.96229667" lon="1.42486333">
        <ele>51.0</ele>
        <time>2020-08-17T16:04:43.847Z</time>
      </trkpt>
      <trkpt lat="38.96239" lon="1.424795">
        <ele>51.0</ele>
        <time>2020-08-17T16:04:44.863Z</time>
      </trkpt>
      <trkpt lat="38.96244333" lon="1.42475833">
        <ele>52.0</ele>
        <time>2020-08-17T16:04:45.864Z</time>
      </trkpt>
      <trkpt lat="38.96249333" lon="1.42472167">
        <ele>52.0</ele>
        <time>2020-08-17T16:04:46.851Z</time>
      </trkpt>
      <trkpt lat="38.96249333" lon="1.42472167">
        <ele>52.0</ele>
        <time>2020-08-17T16:04:47.866Z</time>
      </trkpt>
      <trkpt lat="38.96259167" lon="1.424645">
        <ele>52.0</ele>
        <time>2020-08-17T16:04:48.851Z</time>
      </trkpt>
      <trkpt lat="38.96259167" lon="1.424645">
        <ele>52.0</ele>
        <time>2020-08-17T16:04:49.883Z</time>
      </trkpt>
      <trkpt lat="38.96269667" lon="1.42456833">
        <ele>53.0</ele>
        <time>2020-08-17T16:04:50.863Z</time>
      </trkpt>
      <trkpt lat="38.96269667" lon="1.42456833">
        <ele>53.0</ele>
        <time>2020-08-17T16:04:51.849Z</time>
      </trkpt>
      <trkpt lat="38.9628" lon="1.42449333">
        <ele>53.0</ele>
        <time>2020-08-17T16:04:52.867Z</time>
      </trkpt>
      <trkpt lat="38.9628" lon="1.42449333">
        <ele>53.0</ele>
        <time>2020-08-17T16:04:53.850Z</time>
      </trkpt>
      <trkpt lat="38.96290667" lon="1.42442833">
        <ele>53.0</ele>
        <time>2020-08-17T16:04:54.868Z</time>
      </trkpt>
      <trkpt lat="38.96290667" lon="1.42442833">
        <ele>53.0</ele>
        <time>2020-08-17T16:04:55.849Z</time>
      </trkpt>
      <trkpt lat="38.963015" lon="1.42438667">
        <ele>53.0</ele>
        <time>2020-08-17T16:04:56.851Z</time>
      </trkpt>
      <trkpt lat="38.963015" lon="1.42438667">
        <ele>53.0</ele>
        <time>2020-08-17T16:04:57.857Z</time>
      </trkpt>
      <trkpt lat="38.96312667" lon="1.42436667">
        <ele>53.0</ele>
        <time>2020-08-17T16:04:58.853Z</time>
      </trkpt>
      <trkpt lat="38.96312667" lon="1.42436667">
        <ele>53.0</ele>
        <time>2020-08-17T16:04:59.854Z</time>
      </trkpt>
      <trkpt lat="38.96324333" lon="1.42435667">
        <ele>54.0</ele>
        <time>2020-08-17T16:05:00.853Z</time>
      </trkpt>
      <trkpt lat="38.96324333" lon="1.42435667">
        <ele>54.0</ele>
        <time>2020-08-17T16:05:01.873Z</time>
      </trkpt>
      <trkpt lat="38.96335667" lon="1.42434833">
        <ele>54.0</ele>
        <time>2020-08-17T16:05:02.852Z</time>
      </trkpt>
      <trkpt lat="38.96335667" lon="1.42434833">
        <ele>54.0</ele>
        <time>2020-08-17T16:05:03.867Z</time>
      </trkpt>
      <trkpt lat="38.96347333" lon="1.42433833">
        <ele>54.0</ele>
        <time>2020-08-17T16:05:04.853Z</time>
      </trkpt>
      <trkpt lat="38.96347333" lon="1.42433833">
        <ele>54.0</ele>
        <time>2020-08-17T16:05:05.848Z</time>
      </trkpt>
      <trkpt lat="38.96358833" lon="1.42432667">
        <ele>55.0</ele>
        <time>2020-08-17T16:05:06.866Z</time>
      </trkpt>
      <trkpt lat="38.96358833" lon="1.42432667">
        <ele>55.0</ele>
        <time>2020-08-17T16:05:07.849Z</time>
      </trkpt>
      <trkpt lat="38.96370333" lon="1.42431833">
        <ele>55.0</ele>
        <time>2020-08-17T16:05:08.868Z</time>
      </trkpt>
      <trkpt lat="38.96375833" lon="1.42431333">
        <ele>56.0</ele>
        <time>2020-08-17T16:05:09.853Z</time>
      </trkpt>
      <trkpt lat="38.96375833" lon="1.42431333">
        <ele>56.0</ele>
        <time>2020-08-17T16:05:10.851Z</time>
      </trkpt>
      <trkpt lat="38.96386833" lon="1.42429833">
        <ele>56.0</ele>
        <time>2020-08-17T16:05:11.852Z</time>
      </trkpt>
      <trkpt lat="38.96392667" lon="1.42429">
        <ele>56.0</ele>
        <time>2020-08-17T16:05:12.866Z</time>
      </trkpt>
      <trkpt lat="38.96392667" lon="1.42429">
        <ele>56.0</ele>
        <time>2020-08-17T16:05:13.847Z</time>
      </trkpt>
      <trkpt lat="38.964035" lon="1.42427333">
        <ele>57.0</ele>
        <time>2020-08-17T16:05:14.865Z</time>
      </trkpt>
      <trkpt lat="38.964035" lon="1.42427333">
        <ele>57.0</ele>
        <time>2020-08-17T16:05:15.849Z</time>
      </trkpt>
      <trkpt lat="38.96414" lon="1.42424667">
        <ele>58.0</ele>
        <time>2020-08-17T16:05:16.869Z</time>
      </trkpt>
      <trkpt lat="38.96414" lon="1.42424667">
        <ele>58.0</ele>
        <time>2020-08-17T16:05:17.846Z</time>
      </trkpt>
      <trkpt lat="38.96424333" lon="1.424215">
        <ele>58.0</ele>
        <time>2020-08-17T16:05:18.867Z</time>
      </trkpt>
      <trkpt lat="38.96424333" lon="1.424215">
        <ele>58.0</ele>
        <time>2020-08-17T16:05:19.862Z</time>
      </trkpt>
      <trkpt lat="38.964345" lon="1.424185">
        <ele>59.0</ele>
        <time>2020-08-17T16:05:20.851Z</time>
      </trkpt>
      <trkpt lat="38.964345" lon="1.424185">
        <ele>59.0</ele>
        <time>2020-08-17T16:05:21.866Z</time>
      </trkpt>
      <trkpt lat="38.96445" lon="1.42415333">
        <ele>60.0</ele>
        <time>2020-08-17T16:05:22.854Z</time>
      </trkpt>
      <trkpt lat="38.96445" lon="1.42415333">
        <ele>60.0</ele>
        <time>2020-08-17T16:05:23.849Z</time>
      </trkpt>
      <trkpt lat="38.964555" lon="1.424125">
        <ele>60.0</ele>
        <time>2020-08-17T16:05:24.861Z</time>
      </trkpt>
      <trkpt lat="38.964555" lon="1.424125">
        <ele>60.0</ele>
        <time>2020-08-17T16:05:25.866Z</time>
      </trkpt>
      <trkpt lat="38.96466167" lon="1.424095">
        <ele>60.0</ele>
        <time>2020-08-17T16:05:26.849Z</time>
      </trkpt>
      <trkpt lat="38.96471333" lon="1.42408">
        <ele>61.0</ele>
        <time>2020-08-17T16:05:27.864Z</time>
      </trkpt>
      <trkpt lat="38.96471333" lon="1.42408">
        <ele>61.0</ele>
        <time>2020-08-17T16:05:28.851Z</time>
      </trkpt>
      <trkpt lat="38.964815" lon="1.42404667">
        <ele>61.0</ele>
        <time>2020-08-17T16:05:29.852Z</time>
      </trkpt>
      <trkpt lat="38.96486" lon="1.42402667">
        <ele>61.0</ele>
        <time>2020-08-17T16:05:30.853Z</time>
      </trkpt>
      <trkpt lat="38.96486" lon="1.42402667">
        <ele>61.0</ele>
        <time>2020-08-17T16:05:31.868Z</time>
      </trkpt>
      <trkpt lat="38.96494833" lon="1.423995">
        <ele>62.0</ele>
        <time>2020-08-17T16:05:32.852Z</time>
      </trkpt>
      <trkpt lat="38.96494833" lon="1.423995">
        <ele>62.0</ele>
        <time>2020-08-17T16:05:33.866Z</time>
      </trkpt>
      <trkpt lat="38.96503833" lon="1.42396333">
        <ele>63.0</ele>
        <time>2020-08-17T16:05:34.853Z</time>
      </trkpt>
      <trkpt lat="38.96503833" lon="1.42396333">
        <ele>63.0</ele>
        <time>2020-08-17T16:05:35.869Z</time>
      </trkpt>
      <trkpt lat="38.96513" lon="1.42393167">
        <ele>64.0</ele>
        <time>2020-08-17T16:05:36.852Z</time>
      </trkpt>
      <trkpt lat="38.96513" lon="1.42393167">
        <ele>64.0</ele>
        <time>2020-08-17T16:05:37.866Z</time>
      </trkpt>
      <trkpt lat="38.96513" lon="1.42393167">
        <ele>64.0</ele>
        <time>2020-08-17T16:05:38.847Z</time>
      </trkpt>
      <trkpt lat="38.96521833" lon="1.42389667">
        <ele>64.0</ele>
        <time>2020-08-17T16:05:39.853Z</time>
      </trkpt>
      <trkpt lat="38.96530667" lon="1.42386333">
        <ele>65.0</ele>
        <time>2020-08-17T16:05:40.862Z</time>
      </trkpt>
      <trkpt lat="38.96530667" lon="1.42386333">
        <ele>65.0</ele>
        <time>2020-08-17T16:05:41.868Z</time>
      </trkpt>
      <trkpt lat="38.965395" lon="1.42382833">
        <ele>66.0</ele>
        <time>2020-08-17T16:05:42.852Z</time>
      </trkpt>
      <trkpt lat="38.965395" lon="1.42382833">
        <ele>66.0</ele>
        <time>2020-08-17T16:05:43.867Z</time>
      </trkpt>
      <trkpt lat="38.965475" lon="1.423795">
        <ele>67.0</ele>
        <time>2020-08-17T16:05:44.852Z</time>
      </trkpt>
      <trkpt lat="38.965475" lon="1.423795">
        <ele>67.0</ele>
        <time>2020-08-17T16:05:45.866Z</time>
      </trkpt>
      <trkpt lat="38.96556333" lon="1.42375667">
        <ele>68.0</ele>
        <time>2020-08-17T16:05:46.853Z</time>
      </trkpt>
      <trkpt lat="38.96556333" lon="1.42375667">
        <ele>68.0</ele>
        <time>2020-08-17T16:05:47.868Z</time>
      </trkpt>
      <trkpt lat="38.96565333" lon="1.42370833">
        <ele>69.0</ele>
        <time>2020-08-17T16:05:48.853Z</time>
      </trkpt>
      <trkpt lat="38.96565333" lon="1.42370833">
        <ele>69.0</ele>
        <time>2020-08-17T16:05:49.868Z</time>
      </trkpt>
      <trkpt lat="38.96574833" lon="1.42366333">
        <ele>70.0</ele>
        <time>2020-08-17T16:05:50.854Z</time>
      </trkpt>
      <trkpt lat="38.96579167" lon="1.42364167">
        <ele>70.0</ele>
        <time>2020-08-17T16:05:51.872Z</time>
      </trkpt>
      <trkpt lat="38.965835" lon="1.42362167">
        <ele>71.0</ele>
        <time>2020-08-17T16:05:52.854Z</time>
      </trkpt>
      <trkpt lat="38.965835" lon="1.42362167">
        <ele>71.0</ele>
        <time>2020-08-17T16:05:53.850Z</time>
      </trkpt>
      <trkpt lat="38.96592167" lon="1.42358333">
        <ele>71.0</ele>
        <time>2020-08-17T16:05:54.853Z</time>
      </trkpt>
      <trkpt lat="38.96592167" lon="1.42358333">
        <ele>71.0</ele>
        <time>2020-08-17T16:05:55.875Z</time>
      </trkpt>
      <trkpt lat="38.96600833" lon="1.423545">
        <ele>71.0</ele>
        <time>2020-08-17T16:05:56.854Z</time>
      </trkpt>
      <trkpt lat="38.96600833" lon="1.423545">
        <ele>71.0</ele>
        <time>2020-08-17T16:05:57.849Z</time>
      </trkpt>
      <trkpt lat="38.96600833" lon="1.423545">
        <ele>71.0</ele>
        <time>2020-08-17T16:05:58.861Z</time>
      </trkpt>
      <trkpt lat="38.966095" lon="1.42348833">
        <ele>71.0</ele>
        <time>2020-08-17T16:05:59.848Z</time>
      </trkpt>
      <trkpt lat="38.96617667" lon="1.42342333">
        <ele>71.0</ele>
        <time>2020-08-17T16:06:00.854Z</time>
      </trkpt>
      <trkpt lat="38.96617667" lon="1.42342333">
        <ele>71.0</ele>
        <time>2020-08-17T16:06:01.848Z</time>
      </trkpt>
      <trkpt lat="38.96625833" lon="1.42334833">
        <ele>72.0</ele>
        <time>2020-08-17T16:06:02.864Z</time>
      </trkpt>
      <trkpt lat="38.96625833" lon="1.42334833">
        <ele>72.0</ele>
        <time>2020-08-17T16:06:03.850Z</time>
      </trkpt>
      <trkpt lat="38.96633333" lon="1.42326667">
        <ele>72.0</ele>
        <time>2020-08-17T16:06:04.854Z</time>
      </trkpt>
      <trkpt lat="38.96633333" lon="1.42326667">
        <ele>72.0</ele>
        <time>2020-08-17T16:06:05.848Z</time>
      </trkpt>
      <trkpt lat="38.96641167" lon="1.423185">
        <ele>72.0</ele>
        <time>2020-08-17T16:06:06.850Z</time>
      </trkpt>
      <trkpt lat="38.96641167" lon="1.423185">
        <ele>72.0</ele>
        <time>2020-08-17T16:06:07.868Z</time>
      </trkpt>
      <trkpt lat="38.966495" lon="1.42310667">
        <ele>72.0</ele>
        <time>2020-08-17T16:06:08.852Z</time>
      </trkpt>
      <trkpt lat="38.966495" lon="1.42310667">
        <ele>72.0</ele>
        <time>2020-08-17T16:06:09.869Z</time>
      </trkpt>
      <trkpt lat="38.96657667" lon="1.42302">
        <ele>72.0</ele>
        <time>2020-08-17T16:06:10.853Z</time>
      </trkpt>
      <trkpt lat="38.96661667" lon="1.42297667">
        <ele>72.0</ele>
        <time>2020-08-17T16:06:11.868Z</time>
      </trkpt>
      <trkpt lat="38.96661667" lon="1.42297667">
        <ele>72.0</ele>
        <time>2020-08-17T16:06:12.851Z</time>
      </trkpt>
      <trkpt lat="38.96669833" lon="1.42289333">
        <ele>72.0</ele>
        <time>2020-08-17T16:06:13.852Z</time>
      </trkpt>
      <trkpt lat="38.96674167" lon="1.42285333">
        <ele>73.0</ele>
        <time>2020-08-17T16:06:14.850Z</time>
      </trkpt>
      <trkpt lat="38.96674167" lon="1.42285333">
        <ele>73.0</ele>
        <time>2020-08-17T16:06:15.866Z</time>
      </trkpt>
      <trkpt lat="38.96683" lon="1.42278167">
        <ele>73.0</ele>
        <time>2020-08-17T16:06:16.854Z</time>
      </trkpt>
      <trkpt lat="38.96683" lon="1.42278167">
        <ele>73.0</ele>
        <time>2020-08-17T16:06:17.850Z</time>
      </trkpt>
      <trkpt lat="38.96692" lon="1.42271">
        <ele>74.0</ele>
        <time>2020-08-17T16:06:18.850Z</time>
      </trkpt>
      <trkpt lat="38.96692" lon="1.42271">
        <ele>74.0</ele>
        <time>2020-08-17T16:06:19.866Z</time>
      </trkpt>
      <trkpt lat="38.96700667" lon="1.42263833">
        <ele>74.0</ele>
        <time>2020-08-17T16:06:20.852Z</time>
      </trkpt>
      <trkpt lat="38.96700667" lon="1.42263833">
        <ele>74.0</ele>
        <time>2020-08-17T16:06:21.868Z</time>
      </trkpt>
      <trkpt lat="38.967095" lon="1.42257">
        <ele>74.0</ele>
        <time>2020-08-17T16:06:22.853Z</time>
      </trkpt>
      <trkpt lat="38.967095" lon="1.42257">
        <ele>74.0</ele>
        <time>2020-08-17T16:06:23.850Z</time>
      </trkpt>
      <trkpt lat="38.96717667" lon="1.422495">
        <ele>74.0</ele>
        <time>2020-08-17T16:06:24.851Z</time>
      </trkpt>
      <trkpt lat="38.96717667" lon="1.422495">
        <ele>74.0</ele>
        <time>2020-08-17T16:06:25.876Z</time>
      </trkpt>
      <trkpt lat="38.96725833" lon="1.42243">
        <ele>74.0</ele>
        <time>2020-08-17T16:06:26.853Z</time>
      </trkpt>
      <trkpt lat="38.96730333" lon="1.42239833">
        <ele>74.0</ele>
        <time>2020-08-17T16:06:27.869Z</time>
      </trkpt>
      <trkpt lat="38.967345" lon="1.42236667">
        <ele>74.0</ele>
        <time>2020-08-17T16:06:28.854Z</time>
      </trkpt>
      <trkpt lat="38.967345" lon="1.42236667">
        <ele>74.0</ele>
        <time>2020-08-17T16:06:29.847Z</time>
      </trkpt>
      <trkpt lat="38.96742667" lon="1.4223">
        <ele>74.0</ele>
        <time>2020-08-17T16:06:30.867Z</time>
      </trkpt>
      <trkpt lat="38.96746667" lon="1.42227">
        <ele>74.0</ele>
        <time>2020-08-17T16:06:31.852Z</time>
      </trkpt>
      <trkpt lat="38.967505" lon="1.42223833">
        <ele>74.0</ele>
        <time>2020-08-17T16:06:32.867Z</time>
      </trkpt>
      <trkpt lat="38.967505" lon="1.42223833">
        <ele>74.0</ele>
        <time>2020-08-17T16:06:33.847Z</time>
      </trkpt>
      <trkpt lat="38.96758" lon="1.42218333">
        <ele>75.0</ele>
        <time>2020-08-17T16:06:34.854Z</time>
      </trkpt>
      <trkpt lat="38.96758" lon="1.42218333">
        <ele>75.0</ele>
        <time>2020-08-17T16:06:35.864Z</time>
      </trkpt>
      <trkpt lat="38.96765667" lon="1.42213167">
        <ele>76.0</ele>
        <time>2020-08-17T16:06:36.850Z</time>
      </trkpt>
      <trkpt lat="38.96765667" lon="1.42213167">
        <ele>76.0</ele>
        <time>2020-08-17T16:06:37.866Z</time>
      </trkpt>
      <trkpt lat="38.967725" lon="1.42208167">
        <ele>77.0</ele>
        <time>2020-08-17T16:06:38.852Z</time>
      </trkpt>
      <trkpt lat="38.967725" lon="1.42208167">
        <ele>77.0</ele>
        <time>2020-08-17T16:06:39.867Z</time>
      </trkpt>
      <trkpt lat="38.96778833" lon="1.42202833">
        <ele>77.0</ele>
        <time>2020-08-17T16:06:40.864Z</time>
      </trkpt>
      <trkpt lat="38.96778833" lon="1.42202833">
        <ele>77.0</ele>
        <time>2020-08-17T16:06:41.869Z</time>
      </trkpt>
      <trkpt lat="38.96785833" lon="1.42197333">
        <ele>78.0</ele>
        <time>2020-08-17T16:06:42.853Z</time>
      </trkpt>
      <trkpt lat="38.96785833" lon="1.42197333">
        <ele>78.0</ele>
        <time>2020-08-17T16:06:43.878Z</time>
      </trkpt>
      <trkpt lat="38.96792333" lon="1.421925">
        <ele>78.0</ele>
        <time>2020-08-17T16:06:44.858Z</time>
      </trkpt>
      <trkpt lat="38.96792333" lon="1.421925">
        <ele>78.0</ele>
        <time>2020-08-17T16:06:45.850Z</time>
      </trkpt>
      <trkpt lat="38.967995" lon="1.42188667">
        <ele>79.0</ele>
        <time>2020-08-17T16:06:46.869Z</time>
      </trkpt>
      <trkpt lat="38.967995" lon="1.42188667">
        <ele>79.0</ele>
        <time>2020-08-17T16:06:47.849Z</time>
      </trkpt>
      <trkpt lat="38.968065" lon="1.42184833">
        <ele>80.0</ele>
        <time>2020-08-17T16:06:48.869Z</time>
      </trkpt>
      <trkpt lat="38.968065" lon="1.42184833">
        <ele>80.0</ele>
        <time>2020-08-17T16:06:49.850Z</time>
      </trkpt>
      <trkpt lat="38.96813833" lon="1.42180167">
        <ele>80.0</ele>
        <time>2020-08-17T16:06:50.869Z</time>
      </trkpt>
      <trkpt lat="38.96813833" lon="1.42180167">
        <ele>80.0</ele>
        <time>2020-08-17T16:06:51.850Z</time>
      </trkpt>
      <trkpt lat="38.96822667" lon="1.42176167">
        <ele>82.0</ele>
        <time>2020-08-17T16:06:52.854Z</time>
      </trkpt>
      <trkpt lat="38.96822667" lon="1.42176167">
        <ele>82.0</ele>
        <time>2020-08-17T16:06:53.849Z</time>
      </trkpt>
      <trkpt lat="38.96832" lon="1.42172833">
        <ele>82.0</ele>
        <time>2020-08-17T16:06:54.853Z</time>
      </trkpt>
      <trkpt lat="38.96832" lon="1.42172833">
        <ele>82.0</ele>
        <time>2020-08-17T16:06:55.873Z</time>
      </trkpt>
      <trkpt lat="38.96842" lon="1.4217">
        <ele>83.0</ele>
        <time>2020-08-17T16:06:56.853Z</time>
      </trkpt>
      <trkpt lat="38.96846833" lon="1.42168833">
        <ele>84.0</ele>
        <time>2020-08-17T16:06:57.904Z</time>
      </trkpt>
      <trkpt lat="38.96846833" lon="1.42168833">
        <ele>84.0</ele>
        <time>2020-08-17T16:06:58.851Z</time>
      </trkpt>
      <trkpt lat="38.96856667" lon="1.421675">
        <ele>85.0</ele>
        <time>2020-08-17T16:06:59.853Z</time>
      </trkpt>
      <trkpt lat="38.96861667" lon="1.42167333">
        <ele>85.0</ele>
        <time>2020-08-17T16:07:00.854Z</time>
      </trkpt>
      <trkpt lat="38.96861667" lon="1.42167333">
        <ele>85.0</ele>
        <time>2020-08-17T16:07:01.849Z</time>
      </trkpt>
      <trkpt lat="38.96871833" lon="1.42167167">
        <ele>85.0</ele>
        <time>2020-08-17T16:07:02.865Z</time>
      </trkpt>
      <trkpt lat="38.96871833" lon="1.42167167">
        <ele>85.0</ele>
        <time>2020-08-17T16:07:03.849Z</time>
      </trkpt>
      <trkpt lat="38.968825" lon="1.42166833">
        <ele>86.0</ele>
        <time>2020-08-17T16:07:04.869Z</time>
      </trkpt>
      <trkpt lat="38.968825" lon="1.42166833">
        <ele>86.0</ele>
        <time>2020-08-17T16:07:05.850Z</time>
      </trkpt>
      <trkpt lat="38.96892833" lon="1.42166">
        <ele>86.0</ele>
        <time>2020-08-17T16:07:06.873Z</time>
      </trkpt>
      <trkpt lat="38.96898167" lon="1.42165333">
        <ele>86.0</ele>
        <time>2020-08-17T16:07:07.852Z</time>
      </trkpt>
      <trkpt lat="38.96898167" lon="1.42165333">
        <ele>86.0</ele>
        <time>2020-08-17T16:07:08.849Z</time>
      </trkpt>
      <trkpt lat="38.96908667" lon="1.42164167">
        <ele>86.0</ele>
        <time>2020-08-17T16:07:09.853Z</time>
      </trkpt>
      <trkpt lat="38.96913833" lon="1.421635">
        <ele>86.0</ele>
        <time>2020-08-17T16:07:10.854Z</time>
      </trkpt>
      <trkpt lat="38.96913833" lon="1.421635">
        <ele>86.0</ele>
        <time>2020-08-17T16:07:11.869Z</time>
      </trkpt>
      <trkpt lat="38.96924333" lon="1.42162167">
        <ele>87.0</ele>
        <time>2020-08-17T16:07:12.853Z</time>
      </trkpt>
      <trkpt lat="38.96924333" lon="1.42162167">
        <ele>87.0</ele>
        <time>2020-08-17T16:07:13.869Z</time>
      </trkpt>
      <trkpt lat="38.96935167" lon="1.42160833">
        <ele>86.0</ele>
        <time>2020-08-17T16:07:14.853Z</time>
      </trkpt>
      <trkpt lat="38.96935167" lon="1.42160833">
        <ele>86.0</ele>
        <time>2020-08-17T16:07:15.873Z</time>
      </trkpt>
      <trkpt lat="38.96946" lon="1.42159667">
        <ele>86.0</ele>
        <time>2020-08-17T16:07:16.854Z</time>
      </trkpt>
      <trkpt lat="38.96946" lon="1.42159667">
        <ele>86.0</ele>
        <time>2020-08-17T16:07:17.852Z</time>
      </trkpt>
      <trkpt lat="38.96956833" lon="1.42158333">
        <ele>86.0</ele>
        <time>2020-08-17T16:07:18.851Z</time>
      </trkpt>
      <trkpt lat="38.96956833" lon="1.42158333">
        <ele>86.0</ele>
        <time>2020-08-17T16:07:19.867Z</time>
      </trkpt>
      <trkpt lat="38.96967833" lon="1.42157167">
        <ele>87.0</ele>
        <time>2020-08-17T16:07:20.854Z</time>
      </trkpt>
      <trkpt lat="38.96967833" lon="1.42157167">
        <ele>87.0</ele>
        <time>2020-08-17T16:07:21.869Z</time>
      </trkpt>
      <trkpt lat="38.969785" lon="1.42155833">
        <ele>87.0</ele>
        <time>2020-08-17T16:07:22.855Z</time>
      </trkpt>
      <trkpt lat="38.969785" lon="1.42155833">
        <ele>87.0</ele>
        <time>2020-08-17T16:07:23.851Z</time>
      </trkpt>
      <trkpt lat="38.96988833" lon="1.421535">
        <ele>87.0</ele>
        <time>2020-08-17T16:07:24.854Z</time>
      </trkpt>
      <trkpt lat="38.96988833" lon="1.421535">
        <ele>87.0</ele>
        <time>2020-08-17T16:07:25.878Z</time>
      </trkpt>
      <trkpt lat="38.96999167" lon="1.42151">
        <ele>87.0</ele>
        <time>2020-08-17T16:07:26.861Z</time>
      </trkpt>
      <trkpt lat="38.96999167" lon="1.42151">
        <ele>87.0</ele>
        <time>2020-08-17T16:07:27.851Z</time>
      </trkpt>
      <trkpt lat="38.970095" lon="1.42148">
        <ele>87.0</ele>
        <time>2020-08-17T16:07:28.857Z</time>
      </trkpt>
      <trkpt lat="38.970095" lon="1.42148">
        <ele>87.0</ele>
        <time>2020-08-17T16:07:29.849Z</time>
      </trkpt>
      <trkpt lat="38.97019667" lon="1.42144">
        <ele>87.0</ele>
        <time>2020-08-17T16:07:30.851Z</time>
      </trkpt>
      <trkpt lat="38.97019667" lon="1.42144">
        <ele>87.0</ele>
        <time>2020-08-17T16:07:31.877Z</time>
      </trkpt>
      <trkpt lat="38.97029833" lon="1.42138333">
        <ele>87.0</ele>
        <time>2020-08-17T16:07:32.857Z</time>
      </trkpt>
      <trkpt lat="38.970355" lon="1.42135333">
        <ele>87.0</ele>
        <time>2020-08-17T16:07:33.854Z</time>
      </trkpt>
      <trkpt lat="38.970415" lon="1.42132">
        <ele>86.0</ele>
        <time>2020-08-17T16:07:34.871Z</time>
      </trkpt>
      <trkpt lat="38.970415" lon="1.42132">
        <ele>86.0</ele>
        <time>2020-08-17T16:07:35.851Z</time>
      </trkpt>
      <trkpt lat="38.97054" lon="1.42124333">
        <ele>85.0</ele>
        <time>2020-08-17T16:07:36.873Z</time>
      </trkpt>
      <trkpt lat="38.97054" lon="1.42124333">
        <ele>85.0</ele>
        <time>2020-08-17T16:07:37.851Z</time>
      </trkpt>
      <trkpt lat="38.97067667" lon="1.42115167">
        <ele>84.0</ele>
        <time>2020-08-17T16:07:38.855Z</time>
      </trkpt>
      <trkpt lat="38.97067667" lon="1.42115167">
        <ele>84.0</ele>
        <time>2020-08-17T16:07:39.851Z</time>
      </trkpt>
      <trkpt lat="38.97082833" lon="1.42105">
        <ele>83.0</ele>
        <time>2020-08-17T16:07:40.854Z</time>
      </trkpt>
      <trkpt lat="38.97082833" lon="1.42105">
        <ele>83.0</ele>
        <time>2020-08-17T16:07:41.870Z</time>
      </trkpt>
      <trkpt lat="38.97098667" lon="1.42093667">
        <ele>82.0</ele>
        <time>2020-08-17T16:07:42.854Z</time>
      </trkpt>
      <trkpt lat="38.97107167" lon="1.42087667">
        <ele>82.0</ele>
        <time>2020-08-17T16:07:43.854Z</time>
      </trkpt>
      <trkpt lat="38.97107167" lon="1.42087667">
        <ele>82.0</ele>
        <time>2020-08-17T16:07:44.869Z</time>
      </trkpt>
      <trkpt lat="38.97125167" lon="1.420755">
        <ele>81.0</ele>
        <time>2020-08-17T16:07:45.854Z</time>
      </trkpt>
      <trkpt lat="38.97134333" lon="1.42069333">
        <ele>81.0</ele>
        <time>2020-08-17T16:07:46.854Z</time>
      </trkpt>
      <trkpt lat="38.97134333" lon="1.42069333">
        <ele>81.0</ele>
        <time>2020-08-17T16:07:47.848Z</time>
      </trkpt>
      <trkpt lat="38.97152333" lon="1.42056667">
        <ele>80.0</ele>
        <time>2020-08-17T16:07:48.851Z</time>
      </trkpt>
      <trkpt lat="38.97152333" lon="1.42056667">
        <ele>80.0</ele>
        <time>2020-08-17T16:07:49.867Z</time>
      </trkpt>
      <trkpt lat="38.9717" lon="1.420435">
        <ele>79.0</ele>
        <time>2020-08-17T16:07:50.853Z</time>
      </trkpt>
      <trkpt lat="38.9717" lon="1.420435">
        <ele>79.0</ele>
        <time>2020-08-17T16:07:51.873Z</time>
      </trkpt>
      <trkpt lat="38.97187333" lon="1.42031333">
        <ele>78.0</ele>
        <time>2020-08-17T16:07:52.856Z</time>
      </trkpt>
      <trkpt lat="38.97187333" lon="1.42031333">
        <ele>78.0</ele>
        <time>2020-08-17T16:07:53.851Z</time>
      </trkpt>
      <trkpt lat="38.97204" lon="1.42019833">
        <ele>78.0</ele>
        <time>2020-08-17T16:07:54.867Z</time>
      </trkpt>
      <trkpt lat="38.97204" lon="1.42019833">
        <ele>78.0</ele>
        <time>2020-08-17T16:07:55.854Z</time>
      </trkpt>
      <trkpt lat="38.97219667" lon="1.42009333">
        <ele>77.0</ele>
        <time>2020-08-17T16:07:56.851Z</time>
      </trkpt>
      <trkpt lat="38.97227333" lon="1.42003833">
        <ele>77.0</ele>
        <time>2020-08-17T16:07:57.866Z</time>
      </trkpt>
      <trkpt lat="38.97234667" lon="1.419985">
        <ele>77.0</ele>
        <time>2020-08-17T16:07:58.854Z</time>
      </trkpt>
      <trkpt lat="38.97234667" lon="1.419985">
        <ele>77.0</ele>
        <time>2020-08-17T16:07:59.851Z</time>
      </trkpt>
      <trkpt lat="38.97248833" lon="1.419885">
        <ele>77.0</ele>
        <time>2020-08-17T16:08:00.856Z</time>
      </trkpt>
      <trkpt lat="38.97248833" lon="1.419885">
        <ele>77.0</ele>
        <time>2020-08-17T16:08:01.871Z</time>
      </trkpt>
      <trkpt lat="38.97261833" lon="1.41979167">
        <ele>77.0</ele>
        <time>2020-08-17T16:08:02.852Z</time>
      </trkpt>
      <trkpt lat="38.97268" lon="1.41975">
        <ele>77.0</ele>
        <time>2020-08-17T16:08:03.855Z</time>
      </trkpt>
      <trkpt lat="38.97274" lon="1.41970833">
        <ele>77.0</ele>
        <time>2020-08-17T16:08:04.855Z</time>
      </trkpt>
      <trkpt lat="38.97274" lon="1.41970833">
        <ele>77.0</ele>
        <time>2020-08-17T16:08:05.850Z</time>
      </trkpt>
      <trkpt lat="38.97284167" lon="1.41962333">
        <ele>77.0</ele>
        <time>2020-08-17T16:08:06.873Z</time>
      </trkpt>
      <trkpt lat="38.97284167" lon="1.41962333">
        <ele>77.0</ele>
        <time>2020-08-17T16:08:07.849Z</time>
      </trkpt>
      <trkpt lat="38.97293667" lon="1.419535">
        <ele>77.0</ele>
        <time>2020-08-17T16:08:08.864Z</time>
      </trkpt>
      <trkpt lat="38.97293667" lon="1.419535">
        <ele>77.0</ele>
        <time>2020-08-17T16:08:09.851Z</time>
      </trkpt>
      <trkpt lat="38.97304333" lon="1.41944">
        <ele>77.0</ele>
        <time>2020-08-17T16:08:10.871Z</time>
      </trkpt>
      <trkpt lat="38.97304333" lon="1.41944">
        <ele>77.0</ele>
        <time>2020-08-17T16:08:11.857Z</time>
      </trkpt>
      <trkpt lat="38.97315167" lon="1.41933833">
        <ele>76.0</ele>
        <time>2020-08-17T16:08:12.851Z</time>
      </trkpt>
      <trkpt lat="38.97315167" lon="1.41933833">
        <ele>76.0</ele>
        <time>2020-08-17T16:08:13.878Z</time>
      </trkpt>
      <trkpt lat="38.97326333" lon="1.41923333">
        <ele>76.0</ele>
        <time>2020-08-17T16:08:14.862Z</time>
      </trkpt>
      <trkpt lat="38.97326333" lon="1.41923333">
        <ele>76.0</ele>
        <time>2020-08-17T16:08:15.851Z</time>
      </trkpt>
      <trkpt lat="38.97337833" lon="1.41912167">
        <ele>75.0</ele>
        <time>2020-08-17T16:08:16.855Z</time>
      </trkpt>
      <trkpt lat="38.97344" lon="1.41906">
        <ele>74.0</ele>
        <time>2020-08-17T16:08:17.855Z</time>
      </trkpt>
      <trkpt lat="38.97344" lon="1.41906">
        <ele>74.0</ele>
        <time>2020-08-17T16:08:18.848Z</time>
      </trkpt>
      <trkpt lat="38.97357" lon="1.41893333">
        <ele>74.0</ele>
        <time>2020-08-17T16:08:19.874Z</time>
      </trkpt>
      <trkpt lat="38.97357" lon="1.41893333">
        <ele>74.0</ele>
        <time>2020-08-17T16:08:20.851Z</time>
      </trkpt>
      <trkpt lat="38.97371167" lon="1.41881">
        <ele>73.0</ele>
        <time>2020-08-17T16:08:21.854Z</time>
      </trkpt>
      <trkpt lat="38.973785" lon="1.41874833">
        <ele>73.0</ele>
        <time>2020-08-17T16:08:22.854Z</time>
      </trkpt>
      <trkpt lat="38.973785" lon="1.41874833">
        <ele>73.0</ele>
        <time>2020-08-17T16:08:23.851Z</time>
      </trkpt>
      <trkpt lat="38.973945" lon="1.41862333">
        <ele>71.0</ele>
        <time>2020-08-17T16:08:24.866Z</time>
      </trkpt>
      <trkpt lat="38.973945" lon="1.41862333">
        <ele>71.0</ele>
        <time>2020-08-17T16:08:25.850Z</time>
      </trkpt>
      <trkpt lat="38.97410833" lon="1.41849333">
        <ele>70.0</ele>
        <time>2020-08-17T16:08:26.873Z</time>
      </trkpt>
      <trkpt lat="38.97410833" lon="1.41849333">
        <ele>70.0</ele>
        <time>2020-08-17T16:08:27.851Z</time>
      </trkpt>
      <trkpt lat="38.974275" lon="1.41836333">
        <ele>68.0</ele>
        <time>2020-08-17T16:08:28.871Z</time>
      </trkpt>
      <trkpt lat="38.974275" lon="1.41836333">
        <ele>68.0</ele>
        <time>2020-08-17T16:08:29.851Z</time>
      </trkpt>
      <trkpt lat="38.97443833" lon="1.418235">
        <ele>68.0</ele>
        <time>2020-08-17T16:08:30.855Z</time>
      </trkpt>
      <trkpt lat="38.97443833" lon="1.418235">
        <ele>68.0</ele>
        <time>2020-08-17T16:08:31.879Z</time>
      </trkpt>
      <trkpt lat="38.974595" lon="1.418105">
        <ele>67.0</ele>
        <time>2020-08-17T16:08:32.861Z</time>
      </trkpt>
      <trkpt lat="38.974595" lon="1.418105">
        <ele>67.0</ele>
        <time>2020-08-17T16:08:33.851Z</time>
      </trkpt>
      <trkpt lat="38.97474667" lon="1.41798167">
        <ele>67.0</ele>
        <time>2020-08-17T16:08:34.871Z</time>
      </trkpt>
      <trkpt lat="38.97474667" lon="1.41798167">
        <ele>67.0</ele>
        <time>2020-08-17T16:08:35.850Z</time>
      </trkpt>
      <trkpt lat="38.97489333" lon="1.41786333">
        <ele>67.0</ele>
        <time>2020-08-17T16:08:36.869Z</time>
      </trkpt>
      <trkpt lat="38.97489333" lon="1.41786333">
        <ele>67.0</ele>
        <time>2020-08-17T16:08:37.851Z</time>
      </trkpt>
      <trkpt lat="38.97503667" lon="1.41774667">
        <ele>66.0</ele>
        <time>2020-08-17T16:08:38.854Z</time>
      </trkpt>
      <trkpt lat="38.97503667" lon="1.41774667">
        <ele>66.0</ele>
        <time>2020-08-17T16:08:39.848Z</time>
      </trkpt>
      <trkpt lat="38.97517833" lon="1.41763667">
        <ele>66.0</ele>
        <time>2020-08-17T16:08:40.854Z</time>
      </trkpt>
      <trkpt lat="38.97517833" lon="1.41763667">
        <ele>66.0</ele>
        <time>2020-08-17T16:08:41.851Z</time>
      </trkpt>
      <trkpt lat="38.97531833" lon="1.41752833">
        <ele>65.0</ele>
        <time>2020-08-17T16:08:42.874Z</time>
      </trkpt>
      <trkpt lat="38.97531833" lon="1.41752833">
        <ele>65.0</ele>
        <time>2020-08-17T16:08:43.851Z</time>
      </trkpt>
      <trkpt lat="38.975455" lon="1.41741833">
        <ele>65.0</ele>
        <time>2020-08-17T16:08:44.854Z</time>
      </trkpt>
      <trkpt lat="38.975455" lon="1.41741833">
        <ele>65.0</ele>
        <time>2020-08-17T16:08:45.851Z</time>
      </trkpt>
      <trkpt lat="38.97558833" lon="1.41731167">
        <ele>65.0</ele>
        <time>2020-08-17T16:08:46.854Z</time>
      </trkpt>
      <trkpt lat="38.97558833" lon="1.41731167">
        <ele>65.0</ele>
        <time>2020-08-17T16:08:47.852Z</time>
      </trkpt>
      <trkpt lat="38.97571833" lon="1.41721167">
        <ele>65.0</ele>
        <time>2020-08-17T16:08:48.853Z</time>
      </trkpt>
      <trkpt lat="38.97578167" lon="1.41716">
        <ele>65.0</ele>
        <time>2020-08-17T16:08:49.875Z</time>
      </trkpt>
      <trkpt lat="38.97578167" lon="1.41716">
        <ele>65.0</ele>
        <time>2020-08-17T16:08:50.851Z</time>
      </trkpt>
      <trkpt lat="38.97590667" lon="1.41706333">
        <ele>65.0</ele>
        <time>2020-08-17T16:08:51.854Z</time>
      </trkpt>
      <trkpt lat="38.97596667" lon="1.41701667">
        <ele>65.0</ele>
        <time>2020-08-17T16:08:52.869Z</time>
      </trkpt>
      <trkpt lat="38.97596667" lon="1.41701667">
        <ele>65.0</ele>
        <time>2020-08-17T16:08:53.849Z</time>
      </trkpt>
      <trkpt lat="38.97609" lon="1.41692667">
        <ele>65.0</ele>
        <time>2020-08-17T16:08:54.869Z</time>
      </trkpt>
      <trkpt lat="38.97609" lon="1.41692667">
        <ele>65.0</ele>
        <time>2020-08-17T16:08:55.851Z</time>
      </trkpt>
      <trkpt lat="38.97621333" lon="1.41684">
        <ele>65.0</ele>
        <time>2020-08-17T16:08:56.873Z</time>
      </trkpt>
      <trkpt lat="38.97621333" lon="1.41684">
        <ele>65.0</ele>
        <time>2020-08-17T16:08:57.859Z</time>
      </trkpt>
      <trkpt lat="38.976335" lon="1.416745">
        <ele>65.0</ele>
        <time>2020-08-17T16:08:58.858Z</time>
      </trkpt>
      <trkpt lat="38.976335" lon="1.416745">
        <ele>65.0</ele>
        <time>2020-08-17T16:08:59.852Z</time>
      </trkpt>
      <trkpt lat="38.97646" lon="1.41664833">
        <ele>65.0</ele>
        <time>2020-08-17T16:09:00.855Z</time>
      </trkpt>
      <trkpt lat="38.97646" lon="1.41664833">
        <ele>65.0</ele>
        <time>2020-08-17T16:09:01.873Z</time>
      </trkpt>
      <trkpt lat="38.976595" lon="1.41655">
        <ele>65.0</ele>
        <time>2020-08-17T16:09:02.854Z</time>
      </trkpt>
      <trkpt lat="38.976665" lon="1.41649833">
        <ele>65.0</ele>
        <time>2020-08-17T16:09:03.854Z</time>
      </trkpt>
      <trkpt lat="38.976735" lon="1.41644667">
        <ele>65.0</ele>
        <time>2020-08-17T16:09:04.870Z</time>
      </trkpt>
      <trkpt lat="38.976735" lon="1.41644667">
        <ele>65.0</ele>
        <time>2020-08-17T16:09:05.863Z</time>
      </trkpt>
      <trkpt lat="38.97687833" lon="1.41634833">
        <ele>64.0</ele>
        <time>2020-08-17T16:09:06.855Z</time>
      </trkpt>
      <trkpt lat="38.97687833" lon="1.41634833">
        <ele>64.0</ele>
        <time>2020-08-17T16:09:07.852Z</time>
      </trkpt>
      <trkpt lat="38.97702167" lon="1.41625">
        <ele>63.0</ele>
        <time>2020-08-17T16:09:08.851Z</time>
      </trkpt>
      <trkpt lat="38.97702167" lon="1.41625">
        <ele>63.0</ele>
        <time>2020-08-17T16:09:09.869Z</time>
      </trkpt>
      <trkpt lat="38.97716833" lon="1.41615">
        <ele>63.0</ele>
        <time>2020-08-17T16:09:10.857Z</time>
      </trkpt>
      <trkpt lat="38.97716833" lon="1.41615">
        <ele>63.0</ele>
        <time>2020-08-17T16:09:11.852Z</time>
      </trkpt>
      <trkpt lat="38.97731333" lon="1.41604833">
        <ele>62.0</ele>
        <time>2020-08-17T16:09:12.874Z</time>
      </trkpt>
      <trkpt lat="38.977385" lon="1.415995">
        <ele>62.0</ele>
        <time>2020-08-17T16:09:13.854Z</time>
      </trkpt>
      <trkpt lat="38.977385" lon="1.415995">
        <ele>62.0</ele>
        <time>2020-08-17T16:09:14.851Z</time>
      </trkpt>
      <trkpt lat="38.97753" lon="1.41589667">
        <ele>61.0</ele>
        <time>2020-08-17T16:09:15.854Z</time>
      </trkpt>
      <trkpt lat="38.97760167" lon="1.41584833">
        <ele>61.0</ele>
        <time>2020-08-17T16:09:16.876Z</time>
      </trkpt>
      <trkpt lat="38.97760167" lon="1.41584833">
        <ele>61.0</ele>
        <time>2020-08-17T16:09:17.851Z</time>
      </trkpt>
      <trkpt lat="38.97774833" lon="1.41575333">
        <ele>61.0</ele>
        <time>2020-08-17T16:09:18.853Z</time>
      </trkpt>
      <trkpt lat="38.97774833" lon="1.41575333">
        <ele>61.0</ele>
        <time>2020-08-17T16:09:19.868Z</time>
      </trkpt>
      <trkpt lat="38.977895" lon="1.41565833">
        <ele>60.0</ele>
        <time>2020-08-17T16:09:20.854Z</time>
      </trkpt>
      <trkpt lat="38.977895" lon="1.41565833">
        <ele>60.0</ele>
        <time>2020-08-17T16:09:21.873Z</time>
      </trkpt>
      <trkpt lat="38.97804" lon="1.41556">
        <ele>60.0</ele>
        <time>2020-08-17T16:09:22.852Z</time>
      </trkpt>
      <trkpt lat="38.97811167" lon="1.41551333">
        <ele>60.0</ele>
        <time>2020-08-17T16:09:23.854Z</time>
      </trkpt>
      <trkpt lat="38.97818333" lon="1.415465">
        <ele>60.0</ele>
        <time>2020-08-17T16:09:24.865Z</time>
      </trkpt>
      <trkpt lat="38.97818333" lon="1.415465">
        <ele>60.0</ele>
        <time>2020-08-17T16:09:25.849Z</time>
      </trkpt>
      <trkpt lat="38.978325" lon="1.415375">
        <ele>59.0</ele>
        <time>2020-08-17T16:09:26.869Z</time>
      </trkpt>
      <trkpt lat="38.978325" lon="1.415375">
        <ele>59.0</ele>
        <time>2020-08-17T16:09:27.850Z</time>
      </trkpt>
      <trkpt lat="38.978455" lon="1.41527">
        <ele>59.0</ele>
        <time>2020-08-17T16:09:28.870Z</time>
      </trkpt>
      <trkpt lat="38.978455" lon="1.41527">
        <ele>59.0</ele>
        <time>2020-08-17T16:09:29.849Z</time>
      </trkpt>
      <trkpt lat="38.97857333" lon="1.41515667">
        <ele>59.0</ele>
        <time>2020-08-17T16:09:30.869Z</time>
      </trkpt>
      <trkpt lat="38.97863" lon="1.4151">
        <ele>59.0</ele>
        <time>2020-08-17T16:09:31.853Z</time>
      </trkpt>
      <trkpt lat="38.97863" lon="1.4151">
        <ele>59.0</ele>
        <time>2020-08-17T16:09:32.871Z</time>
      </trkpt>
      <trkpt lat="38.97873833" lon="1.41498833">
        <ele>59.0</ele>
        <time>2020-08-17T16:09:33.853Z</time>
      </trkpt>
      <trkpt lat="38.97879" lon="1.41493333">
        <ele>59.0</ele>
        <time>2020-08-17T16:09:34.871Z</time>
      </trkpt>
      <trkpt lat="38.97879" lon="1.41493333">
        <ele>59.0</ele>
        <time>2020-08-17T16:09:35.850Z</time>
      </trkpt>
      <trkpt lat="38.97889333" lon="1.41484333">
        <ele>60.0</ele>
        <time>2020-08-17T16:09:36.851Z</time>
      </trkpt>
      <trkpt lat="38.97889333" lon="1.41484333">
        <ele>60.0</ele>
        <time>2020-08-17T16:09:37.866Z</time>
      </trkpt>
      <trkpt lat="38.97897667" lon="1.41480167">
        <ele>60.0</ele>
        <time>2020-08-17T16:09:38.851Z</time>
      </trkpt>
      <trkpt lat="38.97897667" lon="1.41480167">
        <ele>60.0</ele>
        <time>2020-08-17T16:09:39.866Z</time>
      </trkpt>
      <trkpt lat="38.97905333" lon="1.4148">
        <ele>61.0</ele>
        <time>2020-08-17T16:09:40.856Z</time>
      </trkpt>
      <trkpt lat="38.97905333" lon="1.4148">
        <ele>61.0</ele>
        <time>2020-08-17T16:09:41.851Z</time>
      </trkpt>
      <trkpt lat="38.97915333" lon="1.41479167">
        <ele>61.0</ele>
        <time>2020-08-17T16:09:42.872Z</time>
      </trkpt>
      <trkpt lat="38.979205" lon="1.414765">
        <ele>61.0</ele>
        <time>2020-08-17T16:09:43.854Z</time>
      </trkpt>
      <trkpt lat="38.979205" lon="1.414765">
        <ele>61.0</ele>
        <time>2020-08-17T16:09:44.869Z</time>
      </trkpt>
      <trkpt lat="38.97929833" lon="1.41467333">
        <ele>62.0</ele>
        <time>2020-08-17T16:09:45.853Z</time>
      </trkpt>
      <trkpt lat="38.97934167" lon="1.41462333">
        <ele>62.0</ele>
        <time>2020-08-17T16:09:46.869Z</time>
      </trkpt>
      <trkpt lat="38.97934167" lon="1.41462333">
        <ele>62.0</ele>
        <time>2020-08-17T16:09:47.851Z</time>
      </trkpt>
      <trkpt lat="38.97944167" lon="1.41452833">
        <ele>62.0</ele>
        <time>2020-08-17T16:09:48.851Z</time>
      </trkpt>
      <trkpt lat="38.97944167" lon="1.41452833">
        <ele>62.0</ele>
        <time>2020-08-17T16:09:49.866Z</time>
      </trkpt>
      <trkpt lat="38.97956" lon="1.41444833">
        <ele>60.0</ele>
        <time>2020-08-17T16:09:50.853Z</time>
      </trkpt>
      <trkpt lat="38.97956" lon="1.41444833">
        <ele>60.0</ele>
        <time>2020-08-17T16:09:51.869Z</time>
      </trkpt>
      <trkpt lat="38.97967167" lon="1.41434">
        <ele>59.0</ele>
        <time>2020-08-17T16:09:52.859Z</time>
      </trkpt>
      <trkpt lat="38.97972667" lon="1.41427667">
        <ele>59.0</ele>
        <time>2020-08-17T16:09:53.851Z</time>
      </trkpt>
      <trkpt lat="38.97972667" lon="1.41427667">
        <ele>59.0</ele>
        <time>2020-08-17T16:09:54.867Z</time>
      </trkpt>
      <trkpt lat="38.97983" lon="1.41414833">
        <ele>59.0</ele>
        <time>2020-08-17T16:09:55.853Z</time>
      </trkpt>
      <trkpt lat="38.97988" lon="1.414085">
        <ele>59.0</ele>
        <time>2020-08-17T16:09:56.853Z</time>
      </trkpt>
      <trkpt lat="38.97988" lon="1.414085">
        <ele>59.0</ele>
        <time>2020-08-17T16:09:57.868Z</time>
      </trkpt>
      <trkpt lat="38.97998" lon="1.41395833">
        <ele>59.0</ele>
        <time>2020-08-17T16:09:58.864Z</time>
      </trkpt>
      <trkpt lat="38.97998" lon="1.41395833">
        <ele>59.0</ele>
        <time>2020-08-17T16:09:59.851Z</time>
      </trkpt>
      <trkpt lat="38.98007833" lon="1.41383833">
        <ele>59.0</ele>
        <time>2020-08-17T16:10:00.856Z</time>
      </trkpt>
      <trkpt lat="38.98007833" lon="1.41383833">
        <ele>59.0</ele>
        <time>2020-08-17T16:10:01.851Z</time>
      </trkpt>
      <trkpt lat="38.98018" lon="1.41371833">
        <ele>59.0</ele>
        <time>2020-08-17T16:10:02.854Z</time>
      </trkpt>
      <trkpt lat="38.98023" lon="1.41366">
        <ele>59.0</ele>
        <time>2020-08-17T16:10:03.870Z</time>
      </trkpt>
      <trkpt lat="38.98028" lon="1.4136">
        <ele>59.0</ele>
        <time>2020-08-17T16:10:04.855Z</time>
      </trkpt>
      <trkpt lat="38.98028" lon="1.4136">
        <ele>59.0</ele>
        <time>2020-08-17T16:10:05.851Z</time>
      </trkpt>
      <trkpt lat="38.98037667" lon="1.41348167">
        <ele>59.0</ele>
        <time>2020-08-17T16:10:06.853Z</time>
      </trkpt>
      <trkpt lat="38.980425" lon="1.41342167">
        <ele>59.0</ele>
        <time>2020-08-17T16:10:07.873Z</time>
      </trkpt>
      <trkpt lat="38.980425" lon="1.41342167">
        <ele>59.0</ele>
        <time>2020-08-17T16:10:08.849Z</time>
      </trkpt>
      <trkpt lat="38.98052167" lon="1.413305">
        <ele>59.0</ele>
        <time>2020-08-17T16:10:09.869Z</time>
      </trkpt>
      <trkpt lat="38.98057" lon="1.41324667">
        <ele>59.0</ele>
        <time>2020-08-17T16:10:10.856Z</time>
      </trkpt>
      <trkpt lat="38.98057" lon="1.41324667">
        <ele>59.0</ele>
        <time>2020-08-17T16:10:11.851Z</time>
      </trkpt>
      <trkpt lat="38.98066333" lon="1.41313">
        <ele>60.0</ele>
        <time>2020-08-17T16:10:12.854Z</time>
      </trkpt>
      <trkpt lat="38.98066333" lon="1.41313">
        <ele>60.0</ele>
        <time>2020-08-17T16:10:13.849Z</time>
      </trkpt>
      <trkpt lat="38.98075667" lon="1.41301333">
        <ele>60.0</ele>
        <time>2020-08-17T16:10:14.868Z</time>
      </trkpt>
      <trkpt lat="38.98080167" lon="1.412955">
        <ele>60.0</ele>
        <time>2020-08-17T16:10:15.854Z</time>
      </trkpt>
      <trkpt lat="38.98080167" lon="1.412955">
        <ele>60.0</ele>
        <time>2020-08-17T16:10:16.869Z</time>
      </trkpt>
      <trkpt lat="38.98089167" lon="1.41284">
        <ele>60.0</ele>
        <time>2020-08-17T16:10:17.854Z</time>
      </trkpt>
      <trkpt lat="38.98093667" lon="1.41278167">
        <ele>60.0</ele>
        <time>2020-08-17T16:10:18.870Z</time>
      </trkpt>
      <trkpt lat="38.98093667" lon="1.41278167">
        <ele>60.0</ele>
        <time>2020-08-17T16:10:19.851Z</time>
      </trkpt>
      <trkpt lat="38.98103" lon="1.41266833">
        <ele>60.0</ele>
        <time>2020-08-17T16:10:20.855Z</time>
      </trkpt>
      <trkpt lat="38.98103" lon="1.41266833">
        <ele>60.0</ele>
        <time>2020-08-17T16:10:21.851Z</time>
      </trkpt>
      <trkpt lat="38.98103" lon="1.41266833">
        <ele>60.0</ele>
        <time>2020-08-17T16:10:22.870Z</time>
      </trkpt>
      <trkpt lat="38.98111833" lon="1.412555">
        <ele>60.0</ele>
        <time>2020-08-17T16:10:23.851Z</time>
      </trkpt>
      <trkpt lat="38.98120833" lon="1.41244333">
        <ele>61.0</ele>
        <time>2020-08-17T16:10:24.866Z</time>
      </trkpt>
      <trkpt lat="38.98120833" lon="1.41244333">
        <ele>61.0</ele>
        <time>2020-08-17T16:10:25.851Z</time>
      </trkpt>
      <trkpt lat="38.98129667" lon="1.412335">
        <ele>61.0</ele>
        <time>2020-08-17T16:10:26.870Z</time>
      </trkpt>
      <trkpt lat="38.98133833" lon="1.41228167">
        <ele>61.0</ele>
        <time>2020-08-17T16:10:27.852Z</time>
      </trkpt>
      <trkpt lat="38.98138" lon="1.41222667">
        <ele>61.0</ele>
        <time>2020-08-17T16:10:28.868Z</time>
      </trkpt>
      <trkpt lat="38.98138" lon="1.41222667">
        <ele>61.0</ele>
        <time>2020-08-17T16:10:29.852Z</time>
      </trkpt>
      <trkpt lat="38.98146333" lon="1.41212">
        <ele>62.0</ele>
        <time>2020-08-17T16:10:30.854Z</time>
      </trkpt>
      <trkpt lat="38.981505" lon="1.412065">
        <ele>62.0</ele>
        <time>2020-08-17T16:10:31.871Z</time>
      </trkpt>
      <trkpt lat="38.981505" lon="1.412065">
        <ele>62.0</ele>
        <time>2020-08-17T16:10:32.851Z</time>
      </trkpt>
      <trkpt lat="38.98158833" lon="1.41196">
        <ele>62.0</ele>
        <time>2020-08-17T16:10:33.874Z</time>
      </trkpt>
      <trkpt lat="38.98163167" lon="1.41191">
        <ele>62.0</ele>
        <time>2020-08-17T16:10:34.857Z</time>
      </trkpt>
      <trkpt lat="38.98163167" lon="1.41191">
        <ele>62.0</ele>
        <time>2020-08-17T16:10:35.848Z</time>
      </trkpt>
      <trkpt lat="38.98171333" lon="1.41180667">
        <ele>63.0</ele>
        <time>2020-08-17T16:10:36.869Z</time>
      </trkpt>
      <trkpt lat="38.98175333" lon="1.411755">
        <ele>63.0</ele>
        <time>2020-08-17T16:10:37.854Z</time>
      </trkpt>
      <trkpt lat="38.98175333" lon="1.411755">
        <ele>63.0</ele>
        <time>2020-08-17T16:10:38.869Z</time>
      </trkpt>
      <trkpt lat="38.98183333" lon="1.41165333">
        <ele>63.0</ele>
        <time>2020-08-17T16:10:39.853Z</time>
      </trkpt>
      <trkpt lat="38.98187333" lon="1.411605">
        <ele>63.0</ele>
        <time>2020-08-17T16:10:40.870Z</time>
      </trkpt>
      <trkpt lat="38.98187333" lon="1.411605">
        <ele>63.0</ele>
        <time>2020-08-17T16:10:41.851Z</time>
      </trkpt>
      <trkpt lat="38.98195333" lon="1.411505">
        <ele>63.0</ele>
        <time>2020-08-17T16:10:42.873Z</time>
      </trkpt>
      <trkpt lat="38.98195333" lon="1.411505">
        <ele>63.0</ele>
        <time>2020-08-17T16:10:43.851Z</time>
      </trkpt>
      <trkpt lat="38.98203667" lon="1.41140667">
        <ele>64.0</ele>
        <time>2020-08-17T16:10:44.854Z</time>
      </trkpt>
      <trkpt lat="38.98203667" lon="1.41140667">
        <ele>64.0</ele>
        <time>2020-08-17T16:10:45.870Z</time>
      </trkpt>
      <trkpt lat="38.98212" lon="1.41130833">
        <ele>64.0</ele>
        <time>2020-08-17T16:10:46.855Z</time>
      </trkpt>
      <trkpt lat="38.98216167" lon="1.41125833">
        <ele>64.0</ele>
        <time>2020-08-17T16:10:47.853Z</time>
      </trkpt>
      <trkpt lat="38.98220167" lon="1.41120833">
        <ele>64.0</ele>
        <time>2020-08-17T16:10:48.868Z</time>
      </trkpt>
      <trkpt lat="38.98220167" lon="1.41120833">
        <ele>64.0</ele>
        <time>2020-08-17T16:10:49.849Z</time>
      </trkpt>
      <trkpt lat="38.98228" lon="1.41110667">
        <ele>64.0</ele>
        <time>2020-08-17T16:10:50.868Z</time>
      </trkpt>
      <trkpt lat="38.98232167" lon="1.41105833">
        <ele>64.0</ele>
        <time>2020-08-17T16:10:51.853Z</time>
      </trkpt>
      <trkpt lat="38.98236333" lon="1.41101">
        <ele>64.0</ele>
        <time>2020-08-17T16:10:52.868Z</time>
      </trkpt>
      <trkpt lat="38.98236333" lon="1.41101">
        <ele>64.0</ele>
        <time>2020-08-17T16:10:53.849Z</time>
      </trkpt>
      <trkpt lat="38.982445" lon="1.41090833">
        <ele>65.0</ele>
        <time>2020-08-17T16:10:54.869Z</time>
      </trkpt>
      <trkpt lat="38.982445" lon="1.41090833">
        <ele>65.0</ele>
        <time>2020-08-17T16:10:55.851Z</time>
      </trkpt>
      <trkpt lat="38.98252667" lon="1.410805">
        <ele>65.0</ele>
        <time>2020-08-17T16:10:56.853Z</time>
      </trkpt>
      <trkpt lat="38.98252667" lon="1.410805">
        <ele>65.0</ele>
        <time>2020-08-17T16:10:57.865Z</time>
      </trkpt>
      <trkpt lat="38.98260833" lon="1.41070333">
        <ele>65.0</ele>
        <time>2020-08-17T16:10:58.855Z</time>
      </trkpt>
      <trkpt lat="38.98260833" lon="1.41070333">
        <ele>65.0</ele>
        <time>2020-08-17T16:10:59.849Z</time>
      </trkpt>
      <trkpt lat="38.98268833" lon="1.4106">
        <ele>65.0</ele>
        <time>2020-08-17T16:11:00.855Z</time>
      </trkpt>
      <trkpt lat="38.98268833" lon="1.4106">
        <ele>65.0</ele>
        <time>2020-08-17T16:11:01.849Z</time>
      </trkpt>
      <trkpt lat="38.98277" lon="1.41049833">
        <ele>65.0</ele>
        <time>2020-08-17T16:11:02.870Z</time>
      </trkpt>
      <trkpt lat="38.98277" lon="1.41049833">
        <ele>65.0</ele>
        <time>2020-08-17T16:11:03.848Z</time>
      </trkpt>
      <trkpt lat="38.98285167" lon="1.41039667">
        <ele>65.0</ele>
        <time>2020-08-17T16:11:04.870Z</time>
      </trkpt>
      <trkpt lat="38.98285167" lon="1.41039667">
        <ele>65.0</ele>
        <time>2020-08-17T16:11:05.849Z</time>
      </trkpt>
      <trkpt lat="38.98293" lon="1.41029167">
        <ele>66.0</ele>
        <time>2020-08-17T16:11:06.870Z</time>
      </trkpt>
      <trkpt lat="38.98296833" lon="1.41023667">
        <ele>66.0</ele>
        <time>2020-08-17T16:11:07.884Z</time>
      </trkpt>
      <trkpt lat="38.98300667" lon="1.41017833">
        <ele>66.0</ele>
        <time>2020-08-17T16:11:08.850Z</time>
      </trkpt>
      <trkpt lat="38.98304167" lon="1.41011833">
        <ele>66.0</ele>
        <time>2020-08-17T16:11:09.855Z</time>
      </trkpt>
      <trkpt lat="38.98307667" lon="1.41005833">
        <ele>66.0</ele>
        <time>2020-08-17T16:11:10.870Z</time>
      </trkpt>
      <trkpt lat="38.98307667" lon="1.41005833">
        <ele>66.0</ele>
        <time>2020-08-17T16:11:11.859Z</time>
      </trkpt>
      <trkpt lat="38.98315" lon="1.409935">
        <ele>66.0</ele>
        <time>2020-08-17T16:11:12.855Z</time>
      </trkpt>
      <trkpt lat="38.98315" lon="1.409935">
        <ele>66.0</ele>
        <time>2020-08-17T16:11:13.872Z</time>
      </trkpt>
      <trkpt lat="38.98322" lon="1.40981">
        <ele>67.0</ele>
        <time>2020-08-17T16:11:14.854Z</time>
      </trkpt>
      <trkpt lat="38.98322" lon="1.40981">
        <ele>67.0</ele>
        <time>2020-08-17T16:11:15.870Z</time>
      </trkpt>
      <trkpt lat="38.98328833" lon="1.40968167">
        <ele>67.0</ele>
        <time>2020-08-17T16:11:16.856Z</time>
      </trkpt>
      <trkpt lat="38.98328833" lon="1.40968167">
        <ele>67.0</ele>
        <time>2020-08-17T16:11:17.851Z</time>
      </trkpt>
      <trkpt lat="38.98335667" lon="1.40955167">
        <ele>67.0</ele>
        <time>2020-08-17T16:11:18.854Z</time>
      </trkpt>
      <trkpt lat="38.98335667" lon="1.40955167">
        <ele>67.0</ele>
        <time>2020-08-17T16:11:19.870Z</time>
      </trkpt>
      <trkpt lat="38.983425" lon="1.40942833">
        <ele>67.0</ele>
        <time>2020-08-17T16:11:20.851Z</time>
      </trkpt>
      <trkpt lat="38.98345667" lon="1.409365">
        <ele>67.0</ele>
        <time>2020-08-17T16:11:21.867Z</time>
      </trkpt>
      <trkpt lat="38.98345667" lon="1.409365">
        <ele>67.0</ele>
        <time>2020-08-17T16:11:22.851Z</time>
      </trkpt>
      <trkpt lat="38.98352" lon="1.40923667">
        <ele>67.0</ele>
        <time>2020-08-17T16:11:23.872Z</time>
      </trkpt>
      <trkpt lat="38.98355333" lon="1.409175">
        <ele>67.0</ele>
        <time>2020-08-17T16:11:24.864Z</time>
      </trkpt>
      <trkpt lat="38.98355333" lon="1.409175">
        <ele>67.0</ele>
        <time>2020-08-17T16:11:25.855Z</time>
      </trkpt>
      <trkpt lat="38.98362" lon="1.40905">
        <ele>68.0</ele>
        <time>2020-08-17T16:11:26.854Z</time>
      </trkpt>
      <trkpt lat="38.98362" lon="1.40905">
        <ele>68.0</ele>
        <time>2020-08-17T16:11:27.870Z</time>
      </trkpt>
      <trkpt lat="38.98368833" lon="1.40892333">
        <ele>68.0</ele>
        <time>2020-08-17T16:11:28.856Z</time>
      </trkpt>
      <trkpt lat="38.98368833" lon="1.40892333">
        <ele>68.0</ele>
        <time>2020-08-17T16:11:29.848Z</time>
      </trkpt>
      <trkpt lat="38.98375667" lon="1.408795">
        <ele>68.0</ele>
        <time>2020-08-17T16:11:30.870Z</time>
      </trkpt>
      <trkpt lat="38.98375667" lon="1.408795">
        <ele>68.0</ele>
        <time>2020-08-17T16:11:31.852Z</time>
      </trkpt>
      <trkpt lat="38.98382" lon="1.40867333">
        <ele>68.0</ele>
        <time>2020-08-17T16:11:32.854Z</time>
      </trkpt>
      <trkpt lat="38.98382" lon="1.40867333">
        <ele>68.0</ele>
        <time>2020-08-17T16:11:33.869Z</time>
      </trkpt>
      <trkpt lat="38.98388333" lon="1.40855667">
        <ele>69.0</ele>
        <time>2020-08-17T16:11:34.859Z</time>
      </trkpt>
      <trkpt lat="38.98388333" lon="1.40855667">
        <ele>69.0</ele>
        <time>2020-08-17T16:11:35.851Z</time>
      </trkpt>
      <trkpt lat="38.98388333" lon="1.40855667">
        <ele>69.0</ele>
        <time>2020-08-17T16:11:36.854Z</time>
      </trkpt>
      <trkpt lat="38.98398333" lon="1.40837667">
        <ele>69.0</ele>
        <time>2020-08-17T16:11:37.854Z</time>
      </trkpt>
      <trkpt lat="38.98398333" lon="1.40837667">
        <ele>69.0</ele>
        <time>2020-08-17T16:11:38.870Z</time>
      </trkpt>
      <trkpt lat="38.98404667" lon="1.40825667">
        <ele>69.0</ele>
        <time>2020-08-17T16:11:39.855Z</time>
      </trkpt>
      <trkpt lat="38.98404667" lon="1.40825667">
        <ele>69.0</ele>
        <time>2020-08-17T16:11:40.875Z</time>
      </trkpt>
      <trkpt lat="38.98410667" lon="1.408125">
        <ele>69.0</ele>
        <time>2020-08-17T16:11:41.856Z</time>
      </trkpt>
      <trkpt lat="38.98413" lon="1.40805333">
        <ele>69.0</ele>
        <time>2020-08-17T16:11:42.854Z</time>
      </trkpt>
      <trkpt lat="38.98413" lon="1.40805333">
        <ele>69.0</ele>
        <time>2020-08-17T16:11:43.849Z</time>
      </trkpt>
      <trkpt lat="38.98415667" lon="1.40790333">
        <ele>69.0</ele>
        <time>2020-08-17T16:11:44.870Z</time>
      </trkpt>
      <trkpt lat="38.98415667" lon="1.40790333">
        <ele>69.0</ele>
        <time>2020-08-17T16:11:45.851Z</time>
      </trkpt>
      <trkpt lat="38.98416" lon="1.40774833">
        <ele>70.0</ele>
        <time>2020-08-17T16:11:46.871Z</time>
      </trkpt>
      <trkpt lat="38.98416" lon="1.40774833">
        <ele>70.0</ele>
        <time>2020-08-17T16:11:47.851Z</time>
      </trkpt>
      <trkpt lat="38.984145" lon="1.4076">
        <ele>70.0</ele>
        <time>2020-08-17T16:11:48.854Z</time>
      </trkpt>
      <trkpt lat="38.984145" lon="1.4076">
        <ele>70.0</ele>
        <time>2020-08-17T16:11:49.869Z</time>
      </trkpt>
      <trkpt lat="38.98413" lon="1.40745167">
        <ele>70.0</ele>
        <time>2020-08-17T16:11:50.853Z</time>
      </trkpt>
      <trkpt lat="38.98413" lon="1.40745167">
        <ele>70.0</ele>
        <time>2020-08-17T16:11:51.869Z</time>
      </trkpt>
      <trkpt lat="38.984115" lon="1.407305">
        <ele>70.0</ele>
        <time>2020-08-17T16:11:52.856Z</time>
      </trkpt>
      <trkpt lat="38.984115" lon="1.407305">
        <ele>70.0</ele>
        <time>2020-08-17T16:11:53.847Z</time>
      </trkpt>
      <trkpt lat="38.98410667" lon="1.407235">
        <ele>71.0</ele>
        <time>2020-08-17T16:11:54.856Z</time>
      </trkpt>
      <trkpt lat="38.98409333" lon="1.40709167">
        <ele>71.0</ele>
        <time>2020-08-17T16:11:55.854Z</time>
      </trkpt>
      <trkpt lat="38.98409333" lon="1.40709167">
        <ele>71.0</ele>
        <time>2020-08-17T16:11:56.870Z</time>
      </trkpt>
      <trkpt lat="38.98408833" lon="1.40695167">
        <ele>71.0</ele>
        <time>2020-08-17T16:11:57.854Z</time>
      </trkpt>
      <trkpt lat="38.98408833" lon="1.40695167">
        <ele>71.0</ele>
        <time>2020-08-17T16:11:58.869Z</time>
      </trkpt>
      <trkpt lat="38.98408833" lon="1.40681">
        <ele>71.0</ele>
        <time>2020-08-17T16:11:59.873Z</time>
      </trkpt>
      <trkpt lat="38.98408833" lon="1.40681">
        <ele>71.0</ele>
        <time>2020-08-17T16:12:00.867Z</time>
      </trkpt>
      <trkpt lat="38.984095" lon="1.40667">
        <ele>71.0</ele>
        <time>2020-08-17T16:12:01.873Z</time>
      </trkpt>
      <trkpt lat="38.984095" lon="1.40667">
        <ele>71.0</ele>
        <time>2020-08-17T16:12:02.881Z</time>
      </trkpt>
      <trkpt lat="38.98411167" lon="1.40653">
        <ele>71.0</ele>
        <time>2020-08-17T16:12:03.852Z</time>
      </trkpt>
      <trkpt lat="38.98412167" lon="1.40646">
        <ele>71.0</ele>
        <time>2020-08-17T16:12:04.858Z</time>
      </trkpt>
      <trkpt lat="38.98412167" lon="1.40646">
        <ele>71.0</ele>
        <time>2020-08-17T16:12:05.852Z</time>
      </trkpt>
      <trkpt lat="38.98414833" lon="1.40632">
        <ele>71.0</ele>
        <time>2020-08-17T16:12:06.854Z</time>
      </trkpt>
      <trkpt lat="38.98416333" lon="1.40625">
        <ele>71.0</ele>
        <time>2020-08-17T16:12:07.869Z</time>
      </trkpt>
      <trkpt lat="38.98416333" lon="1.40625">
        <ele>71.0</ele>
        <time>2020-08-17T16:12:08.851Z</time>
      </trkpt>
      <trkpt lat="38.98419167" lon="1.40611167">
        <ele>71.0</ele>
        <time>2020-08-17T16:12:09.854Z</time>
      </trkpt>
      <trkpt lat="38.98420667" lon="1.40604333">
        <ele>71.0</ele>
        <time>2020-08-17T16:12:10.869Z</time>
      </trkpt>
      <trkpt lat="38.98420667" lon="1.40604333">
        <ele>71.0</ele>
        <time>2020-08-17T16:12:11.849Z</time>
      </trkpt>
      <trkpt lat="38.98423667" lon="1.405905">
        <ele>71.0</ele>
        <time>2020-08-17T16:12:12.870Z</time>
      </trkpt>
      <trkpt lat="38.98423667" lon="1.405905">
        <ele>71.0</ele>
        <time>2020-08-17T16:12:13.851Z</time>
      </trkpt>
      <trkpt lat="38.984265" lon="1.40577">
        <ele>72.0</ele>
        <time>2020-08-17T16:12:14.854Z</time>
      </trkpt>
      <trkpt lat="38.984265" lon="1.40577">
        <ele>72.0</ele>
        <time>2020-08-17T16:12:15.869Z</time>
      </trkpt>
      <trkpt lat="38.984295" lon="1.405635">
        <ele>72.0</ele>
        <time>2020-08-17T16:12:16.857Z</time>
      </trkpt>
      <trkpt lat="38.984295" lon="1.405635">
        <ele>72.0</ele>
        <time>2020-08-17T16:12:17.851Z</time>
      </trkpt>
      <trkpt lat="38.98432333" lon="1.40549833">
        <ele>72.0</ele>
        <time>2020-08-17T16:12:18.855Z</time>
      </trkpt>
      <trkpt lat="38.98432333" lon="1.40549833">
        <ele>72.0</ele>
        <time>2020-08-17T16:12:19.851Z</time>
      </trkpt>
      <trkpt lat="38.98435" lon="1.40536167">
        <ele>73.0</ele>
        <time>2020-08-17T16:12:20.854Z</time>
      </trkpt>
      <trkpt lat="38.98436333" lon="1.40529333">
        <ele>73.0</ele>
        <time>2020-08-17T16:12:21.869Z</time>
      </trkpt>
      <trkpt lat="38.98436333" lon="1.40529333">
        <ele>73.0</ele>
        <time>2020-08-17T16:12:22.850Z</time>
      </trkpt>
      <trkpt lat="38.98438833" lon="1.40515833">
        <ele>73.0</ele>
        <time>2020-08-17T16:12:23.874Z</time>
      </trkpt>
      <trkpt lat="38.9844" lon="1.40509167">
        <ele>73.0</ele>
        <time>2020-08-17T16:12:24.865Z</time>
      </trkpt>
      <trkpt lat="38.9844" lon="1.40509167">
        <ele>73.0</ele>
        <time>2020-08-17T16:12:25.869Z</time>
      </trkpt>
      <trkpt lat="38.98442333" lon="1.40496">
        <ele>73.0</ele>
        <time>2020-08-17T16:12:26.854Z</time>
      </trkpt>
      <trkpt lat="38.98442333" lon="1.40496">
        <ele>73.0</ele>
        <time>2020-08-17T16:12:27.869Z</time>
      </trkpt>
      <trkpt lat="38.98444833" lon="1.40482667">
        <ele>73.0</ele>
        <time>2020-08-17T16:12:28.853Z</time>
      </trkpt>
      <trkpt lat="38.98444833" lon="1.40482667">
        <ele>73.0</ele>
        <time>2020-08-17T16:12:29.869Z</time>
      </trkpt>
      <trkpt lat="38.98447333" lon="1.40469333">
        <ele>73.0</ele>
        <time>2020-08-17T16:12:30.856Z</time>
      </trkpt>
      <trkpt lat="38.98447333" lon="1.40469333">
        <ele>73.0</ele>
        <time>2020-08-17T16:12:31.851Z</time>
      </trkpt>
      <trkpt lat="38.98449833" lon="1.40455833">
        <ele>73.0</ele>
        <time>2020-08-17T16:12:32.853Z</time>
      </trkpt>
      <trkpt lat="38.98449833" lon="1.40455833">
        <ele>73.0</ele>
        <time>2020-08-17T16:12:33.870Z</time>
      </trkpt>
      <trkpt lat="38.98452333" lon="1.40442167">
        <ele>73.0</ele>
        <time>2020-08-17T16:12:34.855Z</time>
      </trkpt>
      <trkpt lat="38.98452333" lon="1.40442167">
        <ele>73.0</ele>
        <time>2020-08-17T16:12:35.880Z</time>
      </trkpt>
      <trkpt lat="38.98455" lon="1.40428167">
        <ele>73.0</ele>
        <time>2020-08-17T16:12:36.866Z</time>
      </trkpt>
      <trkpt lat="38.98455" lon="1.40428167">
        <ele>73.0</ele>
        <time>2020-08-17T16:12:37.852Z</time>
      </trkpt>
      <trkpt lat="38.98457667" lon="1.40414167">
        <ele>73.0</ele>
        <time>2020-08-17T16:12:38.854Z</time>
      </trkpt>
      <trkpt lat="38.98459167" lon="1.40407333">
        <ele>73.0</ele>
        <time>2020-08-17T16:12:39.870Z</time>
      </trkpt>
      <trkpt lat="38.98459167" lon="1.40407333">
        <ele>73.0</ele>
        <time>2020-08-17T16:12:40.850Z</time>
      </trkpt>
      <trkpt lat="38.98461833" lon="1.403935">
        <ele>73.0</ele>
        <time>2020-08-17T16:12:41.855Z</time>
      </trkpt>
      <trkpt lat="38.98463" lon="1.403865">
        <ele>73.0</ele>
        <time>2020-08-17T16:12:42.870Z</time>
      </trkpt>
      <trkpt lat="38.98463" lon="1.403865">
        <ele>73.0</ele>
        <time>2020-08-17T16:12:43.850Z</time>
      </trkpt>
      <trkpt lat="38.98466" lon="1.40373">
        <ele>73.0</ele>
        <time>2020-08-17T16:12:44.847Z</time>
      </trkpt>
      <trkpt lat="38.98466" lon="1.40373">
        <ele>73.0</ele>
        <time>2020-08-17T16:12:45.866Z</time>
      </trkpt>
      <trkpt lat="38.98468833" lon="1.40359833">
        <ele>74.0</ele>
        <time>2020-08-17T16:12:46.856Z</time>
      </trkpt>
      <trkpt lat="38.98468833" lon="1.40359833">
        <ele>74.0</ele>
        <time>2020-08-17T16:12:47.849Z</time>
      </trkpt>
      <trkpt lat="38.98471333" lon="1.40347">
        <ele>74.0</ele>
        <time>2020-08-17T16:12:48.870Z</time>
      </trkpt>
      <trkpt lat="38.98472667" lon="1.40340667">
        <ele>74.0</ele>
        <time>2020-08-17T16:12:49.871Z</time>
      </trkpt>
      <trkpt lat="38.98472667" lon="1.40340667">
        <ele>74.0</ele>
        <time>2020-08-17T16:12:50.866Z</time>
      </trkpt>
      <trkpt lat="38.98475" lon="1.403275">
        <ele>75.0</ele>
        <time>2020-08-17T16:12:51.853Z</time>
      </trkpt>
      <trkpt lat="38.98476333" lon="1.40321">
        <ele>75.0</ele>
        <time>2020-08-17T16:12:52.870Z</time>
      </trkpt>
      <trkpt lat="38.98476333" lon="1.40321">
        <ele>75.0</ele>
        <time>2020-08-17T16:12:53.851Z</time>
      </trkpt>
      <trkpt lat="38.98479" lon="1.40307833">
        <ele>75.0</ele>
        <time>2020-08-17T16:12:54.852Z</time>
      </trkpt>
      <trkpt lat="38.984805" lon="1.40301333">
        <ele>75.0</ele>
        <time>2020-08-17T16:12:55.869Z</time>
      </trkpt>
      <trkpt lat="38.984805" lon="1.40301333">
        <ele>75.0</ele>
        <time>2020-08-17T16:12:56.851Z</time>
      </trkpt>
      <trkpt lat="38.984805" lon="1.40301333">
        <ele>75.0</ele>
        <time>2020-08-17T16:12:57.854Z</time>
      </trkpt>
      <trkpt lat="38.98484" lon="1.402885">
        <ele>75.0</ele>
        <time>2020-08-17T16:12:58.850Z</time>
      </trkpt>
      <trkpt lat="38.98488" lon="1.40275667">
        <ele>76.0</ele>
        <time>2020-08-17T16:12:59.874Z</time>
      </trkpt>
      <trkpt lat="38.98490333" lon="1.40269333">
        <ele>76.0</ele>
        <time>2020-08-17T16:13:00.866Z</time>
      </trkpt>
      <trkpt lat="38.98490333" lon="1.40269333">
        <ele>76.0</ele>
        <time>2020-08-17T16:13:01.852Z</time>
      </trkpt>
      <trkpt lat="38.98495333" lon="1.40257667">
        <ele>76.0</ele>
        <time>2020-08-17T16:13:02.855Z</time>
      </trkpt>
      <trkpt lat="38.98498" lon="1.40251833">
        <ele>76.0</ele>
        <time>2020-08-17T16:13:03.870Z</time>
      </trkpt>
      <trkpt lat="38.98498" lon="1.40251833">
        <ele>76.0</ele>
        <time>2020-08-17T16:13:04.854Z</time>
      </trkpt>
      <trkpt lat="38.98498" lon="1.40251833">
        <ele>76.0</ele>
        <time>2020-08-17T16:13:05.846Z</time>
      </trkpt>
      <trkpt lat="38.98503167" lon="1.40239833">
        <ele>76.0</ele>
        <time>2020-08-17T16:13:06.870Z</time>
      </trkpt>
      <trkpt lat="38.98508667" lon="1.402275">
        <ele>77.0</ele>
        <time>2020-08-17T16:13:07.845Z</time>
      </trkpt>
      <trkpt lat="38.98508667" lon="1.402275">
        <ele>77.0</ele>
        <time>2020-08-17T16:13:08.851Z</time>
      </trkpt>
      <trkpt lat="38.98514167" lon="1.40215">
        <ele>77.0</ele>
        <time>2020-08-17T16:13:09.856Z</time>
      </trkpt>
      <trkpt lat="38.98516833" lon="1.40208833">
        <ele>77.0</ele>
        <time>2020-08-17T16:13:10.851Z</time>
      </trkpt>
      <trkpt lat="38.98516833" lon="1.40208833">
        <ele>77.0</ele>
        <time>2020-08-17T16:13:11.868Z</time>
      </trkpt>
      <trkpt lat="38.98522667" lon="1.40196333">
        <ele>77.0</ele>
        <time>2020-08-17T16:13:12.855Z</time>
      </trkpt>
      <trkpt lat="38.98522667" lon="1.40196333">
        <ele>77.0</ele>
        <time>2020-08-17T16:13:13.870Z</time>
      </trkpt>
      <trkpt lat="38.98528333" lon="1.40183833">
        <ele>77.0</ele>
        <time>2020-08-17T16:13:14.884Z</time>
      </trkpt>
      <trkpt lat="38.985315" lon="1.40177833">
        <ele>77.0</ele>
        <time>2020-08-17T16:13:15.868Z</time>
      </trkpt>
      <trkpt lat="38.98534667" lon="1.40171667">
        <ele>77.0</ele>
        <time>2020-08-17T16:13:16.855Z</time>
      </trkpt>
      <trkpt lat="38.98534667" lon="1.40171667">
        <ele>77.0</ele>
        <time>2020-08-17T16:13:17.878Z</time>
      </trkpt>
      <trkpt lat="38.98541833" lon="1.401605">
        <ele>77.0</ele>
        <time>2020-08-17T16:13:18.858Z</time>
      </trkpt>
      <trkpt lat="38.98545667" lon="1.40155333">
        <ele>77.0</ele>
        <time>2020-08-17T16:13:19.854Z</time>
      </trkpt>
      <trkpt lat="38.98545667" lon="1.40155333">
        <ele>77.0</ele>
        <time>2020-08-17T16:13:20.849Z</time>
      </trkpt>
      <trkpt lat="38.98554333" lon="1.401455">
        <ele>76.0</ele>
        <time>2020-08-17T16:13:21.869Z</time>
      </trkpt>
      <trkpt lat="38.98554333" lon="1.401455">
        <ele>76.0</ele>
        <time>2020-08-17T16:13:22.850Z</time>
      </trkpt>
      <trkpt lat="38.98563667" lon="1.40136167">
        <ele>76.0</ele>
        <time>2020-08-17T16:13:23.873Z</time>
      </trkpt>
      <trkpt lat="38.985685" lon="1.40131333">
        <ele>76.0</ele>
        <time>2020-08-17T16:13:24.855Z</time>
      </trkpt>
      <trkpt lat="38.985685" lon="1.40131333">
        <ele>76.0</ele>
        <time>2020-08-17T16:13:25.857Z</time>
      </trkpt>
      <trkpt lat="38.98578333" lon="1.401215">
        <ele>76.0</ele>
        <time>2020-08-17T16:13:26.853Z</time>
      </trkpt>
      <trkpt lat="38.98578333" lon="1.401215">
        <ele>76.0</ele>
        <time>2020-08-17T16:13:27.870Z</time>
      </trkpt>
      <trkpt lat="38.98588167" lon="1.40111667">
        <ele>76.0</ele>
        <time>2020-08-17T16:13:28.854Z</time>
      </trkpt>
      <trkpt lat="38.98588167" lon="1.40111667">
        <ele>76.0</ele>
        <time>2020-08-17T16:13:29.870Z</time>
      </trkpt>
      <trkpt lat="38.98598333" lon="1.401015">
        <ele>76.0</ele>
        <time>2020-08-17T16:13:30.856Z</time>
      </trkpt>
      <trkpt lat="38.98598333" lon="1.401015">
        <ele>76.0</ele>
        <time>2020-08-17T16:13:31.851Z</time>
      </trkpt>
      <trkpt lat="38.986085" lon="1.40091">
        <ele>76.0</ele>
        <time>2020-08-17T16:13:32.855Z</time>
      </trkpt>
      <trkpt lat="38.986085" lon="1.40091">
        <ele>76.0</ele>
        <time>2020-08-17T16:13:33.869Z</time>
      </trkpt>
      <trkpt lat="38.98618333" lon="1.40080167">
        <ele>75.0</ele>
        <time>2020-08-17T16:13:34.856Z</time>
      </trkpt>
      <trkpt lat="38.98618333" lon="1.40080167">
        <ele>75.0</ele>
        <time>2020-08-17T16:13:35.851Z</time>
      </trkpt>
      <trkpt lat="38.98627667" lon="1.40068333">
        <ele>75.0</ele>
        <time>2020-08-17T16:13:36.852Z</time>
      </trkpt>
      <trkpt lat="38.98631833" lon="1.40061833">
        <ele>75.0</ele>
        <time>2020-08-17T16:13:37.869Z</time>
      </trkpt>
      <trkpt lat="38.98631833" lon="1.40061833">
        <ele>75.0</ele>
        <time>2020-08-17T16:13:38.849Z</time>
      </trkpt>
      <trkpt lat="38.98638667" lon="1.40047833">
        <ele>75.0</ele>
        <time>2020-08-17T16:13:39.855Z</time>
      </trkpt>
      <trkpt lat="38.98641333" lon="1.400405">
        <ele>75.0</ele>
        <time>2020-08-17T16:13:40.870Z</time>
      </trkpt>
      <trkpt lat="38.98641333" lon="1.400405">
        <ele>75.0</ele>
        <time>2020-08-17T16:13:41.852Z</time>
      </trkpt>
      <trkpt lat="38.98645" lon="1.40024833">
        <ele>75.0</ele>
        <time>2020-08-17T16:13:42.855Z</time>
      </trkpt>
      <trkpt lat="38.98645" lon="1.40024833">
        <ele>75.0</ele>
        <time>2020-08-17T16:13:43.870Z</time>
      </trkpt>
      <trkpt lat="38.98647" lon="1.40008333">
        <ele>75.0</ele>
        <time>2020-08-17T16:13:44.855Z</time>
      </trkpt>
      <trkpt lat="38.98647" lon="1.40008333">
        <ele>75.0</ele>
        <time>2020-08-17T16:13:45.852Z</time>
      </trkpt>
      <trkpt lat="38.98648333" lon="1.39991">
        <ele>74.0</ele>
        <time>2020-08-17T16:13:46.853Z</time>
      </trkpt>
      <trkpt lat="38.98648333" lon="1.39991">
        <ele>74.0</ele>
        <time>2020-08-17T16:13:47.852Z</time>
      </trkpt>
      <trkpt lat="38.986495" lon="1.399735">
        <ele>74.0</ele>
        <time>2020-08-17T16:13:48.855Z</time>
      </trkpt>
      <trkpt lat="38.986495" lon="1.399735">
        <ele>74.0</ele>
        <time>2020-08-17T16:13:49.870Z</time>
      </trkpt>
      <trkpt lat="38.986505" lon="1.39956">
        <ele>73.0</ele>
        <time>2020-08-17T16:13:50.856Z</time>
      </trkpt>
      <trkpt lat="38.98650833" lon="1.39947667">
        <ele>74.0</ele>
        <time>2020-08-17T16:13:51.854Z</time>
      </trkpt>
      <trkpt lat="38.98651" lon="1.39939667">
        <ele>74.0</ele>
        <time>2020-08-17T16:13:52.869Z</time>
      </trkpt>
      <trkpt lat="38.98651" lon="1.39939667">
        <ele>74.0</ele>
        <time>2020-08-17T16:13:53.850Z</time>
      </trkpt>
      <trkpt lat="38.98651833" lon="1.39924833">
        <ele>73.0</ele>
        <time>2020-08-17T16:13:54.870Z</time>
      </trkpt>
      <trkpt lat="38.98651833" lon="1.39924833">
        <ele>73.0</ele>
        <time>2020-08-17T16:13:55.852Z</time>
      </trkpt>
      <trkpt lat="38.986525" lon="1.39912667">
        <ele>73.0</ele>
        <time>2020-08-17T16:13:56.855Z</time>
      </trkpt>
      <trkpt lat="38.986525" lon="1.39912667">
        <ele>73.0</ele>
        <time>2020-08-17T16:13:57.850Z</time>
      </trkpt>
      <trkpt lat="38.98654" lon="1.39902333">
        <ele>73.0</ele>
        <time>2020-08-17T16:13:58.871Z</time>
      </trkpt>
      <trkpt lat="38.98654" lon="1.39902333">
        <ele>73.0</ele>
        <time>2020-08-17T16:13:59.852Z</time>
      </trkpt>
      <trkpt lat="38.98655833" lon="1.39892167">
        <ele>74.0</ele>
        <time>2020-08-17T16:14:00.856Z</time>
      </trkpt>
      <trkpt lat="38.98655833" lon="1.39892167">
        <ele>74.0</ele>
        <time>2020-08-17T16:14:01.852Z</time>
      </trkpt>
      <trkpt lat="38.98657667" lon="1.39882833">
        <ele>74.0</ele>
        <time>2020-08-17T16:14:02.855Z</time>
      </trkpt>
      <trkpt lat="38.98657667" lon="1.39882833">
        <ele>74.0</ele>
        <time>2020-08-17T16:14:03.852Z</time>
      </trkpt>
      <trkpt lat="38.98661333" lon="1.39873167">
        <ele>74.0</ele>
        <time>2020-08-17T16:14:04.856Z</time>
      </trkpt>
      <trkpt lat="38.98662667" lon="1.39867">
        <ele>74.0</ele>
        <time>2020-08-17T16:14:05.855Z</time>
      </trkpt>
      <trkpt lat="38.98662667" lon="1.39867">
        <ele>74.0</ele>
        <time>2020-08-17T16:14:06.850Z</time>
      </trkpt>
      <trkpt lat="38.98665667" lon="1.398535">
        <ele>74.0</ele>
        <time>2020-08-17T16:14:07.869Z</time>
      </trkpt>
      <trkpt lat="38.98665667" lon="1.398535">
        <ele>74.0</ele>
        <time>2020-08-17T16:14:08.856Z</time>
      </trkpt>
      <trkpt lat="38.9867" lon="1.39839">
        <ele>73.0</ele>
        <time>2020-08-17T16:14:09.871Z</time>
      </trkpt>
      <trkpt lat="38.986725" lon="1.39832833">
        <ele>74.0</ele>
        <time>2020-08-17T16:14:10.853Z</time>
      </trkpt>
      <trkpt lat="38.986725" lon="1.39832833">
        <ele>74.0</ele>
        <time>2020-08-17T16:14:11.870Z</time>
      </trkpt>
      <trkpt lat="38.98678" lon="1.39821833">
        <ele>74.0</ele>
        <time>2020-08-17T16:14:12.855Z</time>
      </trkpt>
      <trkpt lat="38.98678" lon="1.39821833">
        <ele>74.0</ele>
        <time>2020-08-17T16:14:13.883Z</time>
      </trkpt>
      <trkpt lat="38.986835" lon="1.398085">
        <ele>74.0</ele>
        <time>2020-08-17T16:14:14.864Z</time>
      </trkpt>
      <trkpt lat="38.98686333" lon="1.39801833">
        <ele>74.0</ele>
        <time>2020-08-17T16:14:15.856Z</time>
      </trkpt>
      <trkpt lat="38.98689167" lon="1.39794833">
        <ele>74.0</ele>
        <time>2020-08-17T16:14:16.871Z</time>
      </trkpt>
      <trkpt lat="38.98689167" lon="1.39794833">
        <ele>74.0</ele>
        <time>2020-08-17T16:14:17.852Z</time>
      </trkpt>
      <trkpt lat="38.98695" lon="1.39779833">
        <ele>75.0</ele>
        <time>2020-08-17T16:14:18.856Z</time>
      </trkpt>
      <trkpt lat="38.98695" lon="1.39779833">
        <ele>75.0</ele>
        <time>2020-08-17T16:14:19.871Z</time>
      </trkpt>
      <trkpt lat="38.987015" lon="1.397665">
        <ele>75.0</ele>
        <time>2020-08-17T16:14:20.856Z</time>
      </trkpt>
      <trkpt lat="38.987015" lon="1.397665">
        <ele>75.0</ele>
        <time>2020-08-17T16:14:21.852Z</time>
      </trkpt>
      <trkpt lat="38.98707667" lon="1.397525">
        <ele>76.0</ele>
        <time>2020-08-17T16:14:22.855Z</time>
      </trkpt>
      <trkpt lat="38.98707667" lon="1.397525">
        <ele>76.0</ele>
        <time>2020-08-17T16:14:23.871Z</time>
      </trkpt>
      <trkpt lat="38.987135" lon="1.3974">
        <ele>76.0</ele>
        <time>2020-08-17T16:14:24.855Z</time>
      </trkpt>
      <trkpt lat="38.987135" lon="1.3974">
        <ele>76.0</ele>
        <time>2020-08-17T16:14:25.852Z</time>
      </trkpt>
      <trkpt lat="38.98718667" lon="1.397275">
        <ele>77.0</ele>
        <time>2020-08-17T16:14:26.855Z</time>
      </trkpt>
      <trkpt lat="38.98718667" lon="1.397275">
        <ele>77.0</ele>
        <time>2020-08-17T16:14:27.873Z</time>
      </trkpt>
      <trkpt lat="38.98724333" lon="1.39714667">
        <ele>79.0</ele>
        <time>2020-08-17T16:14:28.857Z</time>
      </trkpt>
      <trkpt lat="38.98724333" lon="1.39714667">
        <ele>79.0</ele>
        <time>2020-08-17T16:14:29.852Z</time>
      </trkpt>
      <trkpt lat="38.98730167" lon="1.39701833">
        <ele>79.0</ele>
        <time>2020-08-17T16:14:30.855Z</time>
      </trkpt>
      <trkpt lat="38.98733333" lon="1.39695333">
        <ele>79.0</ele>
        <time>2020-08-17T16:14:31.854Z</time>
      </trkpt>
      <trkpt lat="38.98733333" lon="1.39695333">
        <ele>79.0</ele>
        <time>2020-08-17T16:14:32.869Z</time>
      </trkpt>
      <trkpt lat="38.98739" lon="1.39681333">
        <ele>80.0</ele>
        <time>2020-08-17T16:14:33.854Z</time>
      </trkpt>
      <trkpt lat="38.98741833" lon="1.396745">
        <ele>80.0</ele>
        <time>2020-08-17T16:14:34.869Z</time>
      </trkpt>
      <trkpt lat="38.98741833" lon="1.396745">
        <ele>80.0</ele>
        <time>2020-08-17T16:14:35.845Z</time>
      </trkpt>
      <trkpt lat="38.98747833" lon="1.39662333">
        <ele>80.0</ele>
        <time>2020-08-17T16:14:36.867Z</time>
      </trkpt>
      <trkpt lat="38.98747833" lon="1.39662333">
        <ele>80.0</ele>
        <time>2020-08-17T16:14:37.849Z</time>
      </trkpt>
      <trkpt lat="38.987535" lon="1.39649167">
        <ele>81.0</ele>
        <time>2020-08-17T16:14:38.871Z</time>
      </trkpt>
      <trkpt lat="38.987535" lon="1.39649167">
        <ele>81.0</ele>
        <time>2020-08-17T16:14:39.852Z</time>
      </trkpt>
      <trkpt lat="38.98759833" lon="1.396375">
        <ele>81.0</ele>
        <time>2020-08-17T16:14:40.859Z</time>
      </trkpt>
      <trkpt lat="38.98759833" lon="1.396375">
        <ele>81.0</ele>
        <time>2020-08-17T16:14:41.850Z</time>
      </trkpt>
      <trkpt lat="38.98766833" lon="1.39626667">
        <ele>82.0</ele>
        <time>2020-08-17T16:14:42.871Z</time>
      </trkpt>
      <trkpt lat="38.98766833" lon="1.39626667">
        <ele>82.0</ele>
        <time>2020-08-17T16:14:43.852Z</time>
      </trkpt>
      <trkpt lat="38.987745" lon="1.39614333">
        <ele>81.0</ele>
        <time>2020-08-17T16:14:44.855Z</time>
      </trkpt>
      <trkpt lat="38.987745" lon="1.39614333">
        <ele>81.0</ele>
        <time>2020-08-17T16:14:45.851Z</time>
      </trkpt>
      <trkpt lat="38.98783167" lon="1.396025">
        <ele>81.0</ele>
        <time>2020-08-17T16:14:46.871Z</time>
      </trkpt>
      <trkpt lat="38.98783167" lon="1.396025">
        <ele>81.0</ele>
        <time>2020-08-17T16:14:47.852Z</time>
      </trkpt>
      <trkpt lat="38.98792" lon="1.39590833">
        <ele>81.0</ele>
        <time>2020-08-17T16:14:48.871Z</time>
      </trkpt>
      <trkpt lat="38.98792" lon="1.39590833">
        <ele>81.0</ele>
        <time>2020-08-17T16:14:49.849Z</time>
      </trkpt>
      <trkpt lat="38.98800167" lon="1.39578833">
        <ele>81.0</ele>
        <time>2020-08-17T16:14:50.870Z</time>
      </trkpt>
      <trkpt lat="38.98800167" lon="1.39578833">
        <ele>81.0</ele>
        <time>2020-08-17T16:14:51.851Z</time>
      </trkpt>
      <trkpt lat="38.988095" lon="1.39568167">
        <ele>81.0</ele>
        <time>2020-08-17T16:14:52.871Z</time>
      </trkpt>
      <trkpt lat="38.988095" lon="1.39568167">
        <ele>81.0</ele>
        <time>2020-08-17T16:14:53.852Z</time>
      </trkpt>
      <trkpt lat="38.988185" lon="1.39557167">
        <ele>81.0</ele>
        <time>2020-08-17T16:14:54.855Z</time>
      </trkpt>
      <trkpt lat="38.988185" lon="1.39557167">
        <ele>81.0</ele>
        <time>2020-08-17T16:14:55.874Z</time>
      </trkpt>
      <trkpt lat="38.98827667" lon="1.39546167">
        <ele>81.0</ele>
        <time>2020-08-17T16:14:56.854Z</time>
      </trkpt>
      <trkpt lat="38.98827667" lon="1.39546167">
        <ele>81.0</ele>
        <time>2020-08-17T16:14:57.874Z</time>
      </trkpt>
      <trkpt lat="38.98837167" lon="1.39536">
        <ele>81.0</ele>
        <time>2020-08-17T16:14:58.856Z</time>
      </trkpt>
      <trkpt lat="38.98837167" lon="1.39536">
        <ele>81.0</ele>
        <time>2020-08-17T16:14:59.871Z</time>
      </trkpt>
      <trkpt lat="38.98846667" lon="1.395255">
        <ele>82.0</ele>
        <time>2020-08-17T16:15:00.857Z</time>
      </trkpt>
      <trkpt lat="38.988515" lon="1.395205">
        <ele>82.0</ele>
        <time>2020-08-17T16:15:01.855Z</time>
      </trkpt>
      <trkpt lat="38.988515" lon="1.395205">
        <ele>82.0</ele>
        <time>2020-08-17T16:15:02.871Z</time>
      </trkpt>
      <trkpt lat="38.988615" lon="1.39511667">
        <ele>82.0</ele>
        <time>2020-08-17T16:15:03.855Z</time>
      </trkpt>
      <trkpt lat="38.98866667" lon="1.39507667">
        <ele>83.0</ele>
        <time>2020-08-17T16:15:04.871Z</time>
      </trkpt>
      <trkpt lat="38.98866667" lon="1.39507667">
        <ele>83.0</ele>
        <time>2020-08-17T16:15:05.861Z</time>
      </trkpt>
      <trkpt lat="38.98877167" lon="1.39499667">
        <ele>83.0</ele>
        <time>2020-08-17T16:15:06.856Z</time>
      </trkpt>
      <trkpt lat="38.98877167" lon="1.39499667">
        <ele>83.0</ele>
        <time>2020-08-17T16:15:07.852Z</time>
      </trkpt>
      <trkpt lat="38.98887" lon="1.39492">
        <ele>83.0</ele>
        <time>2020-08-17T16:15:08.854Z</time>
      </trkpt>
      <trkpt lat="38.98887" lon="1.39492">
        <ele>83.0</ele>
        <time>2020-08-17T16:15:09.870Z</time>
      </trkpt>
      <trkpt lat="38.98897" lon="1.39484667">
        <ele>83.0</ele>
        <time>2020-08-17T16:15:10.856Z</time>
      </trkpt>
      <trkpt lat="38.98902333" lon="1.394815">
        <ele>83.0</ele>
        <time>2020-08-17T16:15:11.854Z</time>
      </trkpt>
      <trkpt lat="38.98907667" lon="1.39478667">
        <ele>83.0</ele>
        <time>2020-08-17T16:15:12.869Z</time>
      </trkpt>
      <trkpt lat="38.98907667" lon="1.39478667">
        <ele>83.0</ele>
        <time>2020-08-17T16:15:13.853Z</time>
      </trkpt>
      <trkpt lat="38.98917833" lon="1.39472333">
        <ele>83.0</ele>
        <time>2020-08-17T16:15:14.855Z</time>
      </trkpt>
      <trkpt lat="38.98917833" lon="1.39472333">
        <ele>83.0</ele>
        <time>2020-08-17T16:15:15.874Z</time>
      </trkpt>
      <trkpt lat="38.989285" lon="1.39465833">
        <ele>83.0</ele>
        <time>2020-08-17T16:15:16.866Z</time>
      </trkpt>
      <trkpt lat="38.989285" lon="1.39465833">
        <ele>83.0</ele>
        <time>2020-08-17T16:15:17.855Z</time>
      </trkpt>
      <trkpt lat="38.98938667" lon="1.394595">
        <ele>84.0</ele>
        <time>2020-08-17T16:15:18.855Z</time>
      </trkpt>
      <trkpt lat="38.98938667" lon="1.394595">
        <ele>84.0</ele>
        <time>2020-08-17T16:15:19.871Z</time>
      </trkpt>
      <trkpt lat="38.98948833" lon="1.39453333">
        <ele>84.0</ele>
        <time>2020-08-17T16:15:20.856Z</time>
      </trkpt>
      <trkpt lat="38.98948833" lon="1.39453333">
        <ele>84.0</ele>
        <time>2020-08-17T16:15:21.874Z</time>
      </trkpt>
      <trkpt lat="38.98959" lon="1.39447167">
        <ele>84.0</ele>
        <time>2020-08-17T16:15:22.867Z</time>
      </trkpt>
      <trkpt lat="38.98959" lon="1.39447167">
        <ele>84.0</ele>
        <time>2020-08-17T16:15:23.852Z</time>
      </trkpt>
      <trkpt lat="38.98969" lon="1.39440167">
        <ele>85.0</ele>
        <time>2020-08-17T16:15:24.866Z</time>
      </trkpt>
      <trkpt lat="38.98969" lon="1.39440167">
        <ele>85.0</ele>
        <time>2020-08-17T16:15:25.853Z</time>
      </trkpt>
      <trkpt lat="38.98977167" lon="1.39433833">
        <ele>85.0</ele>
        <time>2020-08-17T16:15:26.852Z</time>
      </trkpt>
      <trkpt lat="38.98977167" lon="1.39433833">
        <ele>85.0</ele>
        <time>2020-08-17T16:15:27.870Z</time>
      </trkpt>
      <trkpt lat="38.98987333" lon="1.39427">
        <ele>85.0</ele>
        <time>2020-08-17T16:15:28.854Z</time>
      </trkpt>
      <trkpt lat="38.98987333" lon="1.39427">
        <ele>85.0</ele>
        <time>2020-08-17T16:15:29.869Z</time>
      </trkpt>
      <trkpt lat="38.98996833" lon="1.39421">
        <ele>85.0</ele>
        <time>2020-08-17T16:15:30.856Z</time>
      </trkpt>
      <trkpt lat="38.98996833" lon="1.39421">
        <ele>85.0</ele>
        <time>2020-08-17T16:15:31.850Z</time>
      </trkpt>
      <trkpt lat="38.99007" lon="1.39413833">
        <ele>85.0</ele>
        <time>2020-08-17T16:15:32.870Z</time>
      </trkpt>
      <trkpt lat="38.99007" lon="1.39413833">
        <ele>85.0</ele>
        <time>2020-08-17T16:15:33.852Z</time>
      </trkpt>
      <trkpt lat="38.990185" lon="1.39408">
        <ele>86.0</ele>
        <time>2020-08-17T16:15:34.857Z</time>
      </trkpt>
      <trkpt lat="38.990185" lon="1.39408">
        <ele>86.0</ele>
        <time>2020-08-17T16:15:35.874Z</time>
      </trkpt>
      <trkpt lat="38.9903" lon="1.394005">
        <ele>86.0</ele>
        <time>2020-08-17T16:15:36.856Z</time>
      </trkpt>
      <trkpt lat="38.99035333" lon="1.39396833">
        <ele>86.0</ele>
        <time>2020-08-17T16:15:37.871Z</time>
      </trkpt>
      <trkpt lat="38.99041" lon="1.39393333">
        <ele>87.0</ele>
        <time>2020-08-17T16:15:38.855Z</time>
      </trkpt>
      <trkpt lat="38.99041" lon="1.39393333">
        <ele>87.0</ele>
        <time>2020-08-17T16:15:39.876Z</time>
      </trkpt>
      <trkpt lat="38.99052333" lon="1.39384667">
        <ele>87.0</ele>
        <time>2020-08-17T16:15:40.856Z</time>
      </trkpt>
      <trkpt lat="38.99052333" lon="1.39384667">
        <ele>87.0</ele>
        <time>2020-08-17T16:15:41.850Z</time>
      </trkpt>
      <trkpt lat="38.99062833" lon="1.39376333">
        <ele>86.0</ele>
        <time>2020-08-17T16:15:42.871Z</time>
      </trkpt>
      <trkpt lat="38.99062833" lon="1.39376333">
        <ele>86.0</ele>
        <time>2020-08-17T16:15:43.853Z</time>
      </trkpt>
      <trkpt lat="38.99072833" lon="1.39367833">
        <ele>87.0</ele>
        <time>2020-08-17T16:15:44.853Z</time>
      </trkpt>
      <trkpt lat="38.99072833" lon="1.39367833">
        <ele>87.0</ele>
        <time>2020-08-17T16:15:45.872Z</time>
      </trkpt>
      <trkpt lat="38.99082833" lon="1.39360333">
        <ele>87.0</ele>
        <time>2020-08-17T16:15:46.866Z</time>
      </trkpt>
      <trkpt lat="38.99082833" lon="1.39360333">
        <ele>87.0</ele>
        <time>2020-08-17T16:15:47.852Z</time>
      </trkpt>
      <trkpt lat="38.99092833" lon="1.39352667">
        <ele>88.0</ele>
        <time>2020-08-17T16:15:48.855Z</time>
      </trkpt>
      <trkpt lat="38.99092833" lon="1.39352667">
        <ele>88.0</ele>
        <time>2020-08-17T16:15:49.871Z</time>
      </trkpt>
      <trkpt lat="38.99102" lon="1.393445">
        <ele>89.0</ele>
        <time>2020-08-17T16:15:50.857Z</time>
      </trkpt>
      <trkpt lat="38.99102" lon="1.393445">
        <ele>89.0</ele>
        <time>2020-08-17T16:15:51.852Z</time>
      </trkpt>
      <trkpt lat="38.991105" lon="1.39336333">
        <ele>90.0</ele>
        <time>2020-08-17T16:15:52.853Z</time>
      </trkpt>
      <trkpt lat="38.991105" lon="1.39336333">
        <ele>90.0</ele>
        <time>2020-08-17T16:15:53.870Z</time>
      </trkpt>
      <trkpt lat="38.991195" lon="1.39329167">
        <ele>90.0</ele>
        <time>2020-08-17T16:15:54.854Z</time>
      </trkpt>
      <trkpt lat="38.991195" lon="1.39329167">
        <ele>90.0</ele>
        <time>2020-08-17T16:15:55.868Z</time>
      </trkpt>
      <trkpt lat="38.991285" lon="1.39322667">
        <ele>91.0</ele>
        <time>2020-08-17T16:15:56.854Z</time>
      </trkpt>
      <trkpt lat="38.991285" lon="1.39322667">
        <ele>91.0</ele>
        <time>2020-08-17T16:15:57.852Z</time>
      </trkpt>
      <trkpt lat="38.991375" lon="1.39315833">
        <ele>91.0</ele>
        <time>2020-08-17T16:15:58.856Z</time>
      </trkpt>
      <trkpt lat="38.991375" lon="1.39315833">
        <ele>91.0</ele>
        <time>2020-08-17T16:15:59.871Z</time>
      </trkpt>
      <trkpt lat="38.99146833" lon="1.39309">
        <ele>91.0</ele>
        <time>2020-08-17T16:16:00.876Z</time>
      </trkpt>
      <trkpt lat="38.99146833" lon="1.39309">
        <ele>91.0</ele>
        <time>2020-08-17T16:16:01.864Z</time>
      </trkpt>
      <trkpt lat="38.99156333" lon="1.39301833">
        <ele>90.0</ele>
        <time>2020-08-17T16:16:02.857Z</time>
      </trkpt>
      <trkpt lat="38.99156333" lon="1.39301833">
        <ele>90.0</ele>
        <time>2020-08-17T16:16:03.852Z</time>
      </trkpt>
      <trkpt lat="38.991655" lon="1.39294333">
        <ele>91.0</ele>
        <time>2020-08-17T16:16:04.872Z</time>
      </trkpt>
      <trkpt lat="38.991655" lon="1.39294333">
        <ele>91.0</ele>
        <time>2020-08-17T16:16:05.852Z</time>
      </trkpt>
      <trkpt lat="38.99175167" lon="1.39287833">
        <ele>91.0</ele>
        <time>2020-08-17T16:16:06.880Z</time>
      </trkpt>
      <trkpt lat="38.99175167" lon="1.39287833">
        <ele>91.0</ele>
        <time>2020-08-17T16:16:07.845Z</time>
      </trkpt>
      <trkpt lat="38.99184667" lon="1.39281667">
        <ele>91.0</ele>
        <time>2020-08-17T16:16:08.851Z</time>
      </trkpt>
      <trkpt lat="38.99184667" lon="1.39281667">
        <ele>91.0</ele>
        <time>2020-08-17T16:16:09.856Z</time>
      </trkpt>
      <trkpt lat="38.99194" lon="1.39274667">
        <ele>92.0</ele>
        <time>2020-08-17T16:16:10.854Z</time>
      </trkpt>
      <trkpt lat="38.99194" lon="1.39274667">
        <ele>92.0</ele>
        <time>2020-08-17T16:16:11.869Z</time>
      </trkpt>
      <trkpt lat="38.99203833" lon="1.39267333">
        <ele>91.0</ele>
        <time>2020-08-17T16:16:12.855Z</time>
      </trkpt>
      <trkpt lat="38.99203833" lon="1.39267333">
        <ele>91.0</ele>
        <time>2020-08-17T16:16:13.870Z</time>
      </trkpt>
      <trkpt lat="38.99213833" lon="1.39260167">
        <ele>90.0</ele>
        <time>2020-08-17T16:16:14.855Z</time>
      </trkpt>
      <trkpt lat="38.99213833" lon="1.39260167">
        <ele>90.0</ele>
        <time>2020-08-17T16:16:15.874Z</time>
      </trkpt>
      <trkpt lat="38.99223667" lon="1.392535">
        <ele>91.0</ele>
        <time>2020-08-17T16:16:16.854Z</time>
      </trkpt>
      <trkpt lat="38.99228833" lon="1.39250333">
        <ele>91.0</ele>
        <time>2020-08-17T16:16:17.869Z</time>
      </trkpt>
      <trkpt lat="38.99234" lon="1.392475">
        <ele>91.0</ele>
        <time>2020-08-17T16:16:18.856Z</time>
      </trkpt>
      <trkpt lat="38.99234" lon="1.392475">
        <ele>91.0</ele>
        <time>2020-08-17T16:16:19.871Z</time>
      </trkpt>
      <trkpt lat="38.992445" lon="1.39242667">
        <ele>91.0</ele>
        <time>2020-08-17T16:16:20.856Z</time>
      </trkpt>
      <trkpt lat="38.992445" lon="1.39242667">
        <ele>91.0</ele>
        <time>2020-08-17T16:16:21.874Z</time>
      </trkpt>
      <trkpt lat="38.99254833" lon="1.392385">
        <ele>91.0</ele>
        <time>2020-08-17T16:16:22.857Z</time>
      </trkpt>
      <trkpt lat="38.99254833" lon="1.392385">
        <ele>91.0</ele>
        <time>2020-08-17T16:16:23.852Z</time>
      </trkpt>
      <trkpt lat="38.99265833" lon="1.39234667">
        <ele>92.0</ele>
        <time>2020-08-17T16:16:24.856Z</time>
      </trkpt>
      <trkpt lat="38.99265833" lon="1.39234667">
        <ele>92.0</ele>
        <time>2020-08-17T16:16:25.871Z</time>
      </trkpt>
      <trkpt lat="38.992765" lon="1.39230833">
        <ele>93.0</ele>
        <time>2020-08-17T16:16:26.853Z</time>
      </trkpt>
      <trkpt lat="38.99282" lon="1.39229">
        <ele>92.0</ele>
        <time>2020-08-17T16:16:27.855Z</time>
      </trkpt>
      <trkpt lat="38.99287333" lon="1.39226833">
        <ele>92.0</ele>
        <time>2020-08-17T16:16:28.856Z</time>
      </trkpt>
      <trkpt lat="38.99287333" lon="1.39226833">
        <ele>92.0</ele>
        <time>2020-08-17T16:16:29.871Z</time>
      </trkpt>
      <trkpt lat="38.99298" lon="1.39223">
        <ele>93.0</ele>
        <time>2020-08-17T16:16:30.857Z</time>
      </trkpt>
      <trkpt lat="38.993035" lon="1.39221167">
        <ele>93.0</ele>
        <time>2020-08-17T16:16:31.852Z</time>
      </trkpt>
      <trkpt lat="38.993035" lon="1.39221167">
        <ele>93.0</ele>
        <time>2020-08-17T16:16:32.868Z</time>
      </trkpt>
      <trkpt lat="38.99314167" lon="1.39217167">
        <ele>93.0</ele>
        <time>2020-08-17T16:16:33.853Z</time>
      </trkpt>
      <trkpt lat="38.993195" lon="1.39215">
        <ele>93.0</ele>
        <time>2020-08-17T16:16:34.845Z</time>
      </trkpt>
      <trkpt lat="38.993195" lon="1.39215">
        <ele>93.0</ele>
        <time>2020-08-17T16:16:35.854Z</time>
      </trkpt>
      <trkpt lat="38.99330333" lon="1.39211">
        <ele>93.0</ele>
        <time>2020-08-17T16:16:36.874Z</time>
      </trkpt>
      <trkpt lat="38.99335667" lon="1.39209">
        <ele>94.0</ele>
        <time>2020-08-17T16:16:37.853Z</time>
      </trkpt>
      <trkpt lat="38.99335667" lon="1.39209">
        <ele>94.0</ele>
        <time>2020-08-17T16:16:38.868Z</time>
      </trkpt>
      <trkpt lat="38.99346333" lon="1.392045">
        <ele>95.0</ele>
        <time>2020-08-17T16:16:39.855Z</time>
      </trkpt>
      <trkpt lat="38.993515" lon="1.39202333">
        <ele>95.0</ele>
        <time>2020-08-17T16:16:40.869Z</time>
      </trkpt>
      <trkpt lat="38.993515" lon="1.39202333">
        <ele>95.0</ele>
        <time>2020-08-17T16:16:41.853Z</time>
      </trkpt>
      <trkpt lat="38.99361833" lon="1.39197333">
        <ele>95.0</ele>
        <time>2020-08-17T16:16:42.855Z</time>
      </trkpt>
      <trkpt lat="38.99361833" lon="1.39197333">
        <ele>95.0</ele>
        <time>2020-08-17T16:16:43.870Z</time>
      </trkpt>
      <trkpt lat="38.99372333" lon="1.39192833">
        <ele>96.0</ele>
        <time>2020-08-17T16:16:44.855Z</time>
      </trkpt>
      <trkpt lat="38.99372333" lon="1.39192833">
        <ele>96.0</ele>
        <time>2020-08-17T16:16:45.870Z</time>
      </trkpt>
      <trkpt lat="38.99383167" lon="1.39188333">
        <ele>95.0</ele>
        <time>2020-08-17T16:16:46.856Z</time>
      </trkpt>
      <trkpt lat="38.993885" lon="1.39185667">
        <ele>95.0</ele>
        <time>2020-08-17T16:16:47.871Z</time>
      </trkpt>
      <trkpt lat="38.99393833" lon="1.39183">
        <ele>95.0</ele>
        <time>2020-08-17T16:16:48.856Z</time>
      </trkpt>
      <trkpt lat="38.99393833" lon="1.39183">
        <ele>95.0</ele>
        <time>2020-08-17T16:16:49.858Z</time>
      </trkpt>
      <trkpt lat="38.99404167" lon="1.39177">
        <ele>96.0</ele>
        <time>2020-08-17T16:16:50.856Z</time>
      </trkpt>
      <trkpt lat="38.99404167" lon="1.39177">
        <ele>96.0</ele>
        <time>2020-08-17T16:16:51.861Z</time>
      </trkpt>
      <trkpt lat="38.99414333" lon="1.39170667">
        <ele>96.0</ele>
        <time>2020-08-17T16:16:52.872Z</time>
      </trkpt>
      <trkpt lat="38.99414333" lon="1.39170667">
        <ele>96.0</ele>
        <time>2020-08-17T16:16:53.879Z</time>
      </trkpt>
      <trkpt lat="38.994245" lon="1.391635">
        <ele>96.0</ele>
        <time>2020-08-17T16:16:54.845Z</time>
      </trkpt>
      <trkpt lat="38.994295" lon="1.39159667">
        <ele>96.0</ele>
        <time>2020-08-17T16:16:55.870Z</time>
      </trkpt>
      <trkpt lat="38.994295" lon="1.39159667">
        <ele>96.0</ele>
        <time>2020-08-17T16:16:56.855Z</time>
      </trkpt>
      <trkpt lat="38.99439333" lon="1.391515">
        <ele>96.0</ele>
        <time>2020-08-17T16:16:57.855Z</time>
      </trkpt>
      <trkpt lat="38.99444" lon="1.39147">
        <ele>96.0</ele>
        <time>2020-08-17T16:16:58.870Z</time>
      </trkpt>
      <trkpt lat="38.99444" lon="1.39147">
        <ele>96.0</ele>
        <time>2020-08-17T16:16:59.850Z</time>
      </trkpt>
      <trkpt lat="38.99453167" lon="1.39137333">
        <ele>96.0</ele>
        <time>2020-08-17T16:17:00.855Z</time>
      </trkpt>
      <trkpt lat="38.99453167" lon="1.39137333">
        <ele>96.0</ele>
        <time>2020-08-17T16:17:01.850Z</time>
      </trkpt>
      <trkpt lat="38.99462" lon="1.391275">
        <ele>96.0</ele>
        <time>2020-08-17T16:17:02.870Z</time>
      </trkpt>
      <trkpt lat="38.99462" lon="1.391275">
        <ele>96.0</ele>
        <time>2020-08-17T16:17:03.851Z</time>
      </trkpt>
      <trkpt lat="38.99470833" lon="1.39117333">
        <ele>95.0</ele>
        <time>2020-08-17T16:17:04.853Z</time>
      </trkpt>
      <trkpt lat="38.99470833" lon="1.39117333">
        <ele>95.0</ele>
        <time>2020-08-17T16:17:05.869Z</time>
      </trkpt>
      <trkpt lat="38.99479667" lon="1.39107">
        <ele>96.0</ele>
        <time>2020-08-17T16:17:06.854Z</time>
      </trkpt>
      <trkpt lat="38.99484" lon="1.39102">
        <ele>96.0</ele>
        <time>2020-08-17T16:17:07.854Z</time>
      </trkpt>
      <trkpt lat="38.99484" lon="1.39102">
        <ele>96.0</ele>
        <time>2020-08-17T16:17:08.868Z</time>
      </trkpt>
      <trkpt lat="38.994925" lon="1.39092167">
        <ele>96.0</ele>
        <time>2020-08-17T16:17:09.854Z</time>
      </trkpt>
      <trkpt lat="38.99496667" lon="1.390875">
        <ele>96.0</ele>
        <time>2020-08-17T16:17:10.870Z</time>
      </trkpt>
      <trkpt lat="38.99500833" lon="1.390825">
        <ele>96.0</ele>
        <time>2020-08-17T16:17:11.855Z</time>
      </trkpt>
      <trkpt lat="38.99500833" lon="1.390825">
        <ele>96.0</ele>
        <time>2020-08-17T16:17:12.870Z</time>
      </trkpt>
      <trkpt lat="38.99509" lon="1.39073">
        <ele>96.0</ele>
        <time>2020-08-17T16:17:13.854Z</time>
      </trkpt>
      <trkpt lat="38.99509" lon="1.39073">
        <ele>96.0</ele>
        <time>2020-08-17T16:17:14.869Z</time>
      </trkpt>
      <trkpt lat="38.99517" lon="1.39063333">
        <ele>97.0</ele>
        <time>2020-08-17T16:17:15.855Z</time>
      </trkpt>
      <trkpt lat="38.99520833" lon="1.390585">
        <ele>97.0</ele>
        <time>2020-08-17T16:17:16.870Z</time>
      </trkpt>
      <trkpt lat="38.99520833" lon="1.390585">
        <ele>97.0</ele>
        <time>2020-08-17T16:17:17.851Z</time>
      </trkpt>
      <trkpt lat="38.995285" lon="1.39048667">
        <ele>97.0</ele>
        <time>2020-08-17T16:17:18.873Z</time>
      </trkpt>
      <trkpt lat="38.99532" lon="1.39043667">
        <ele>97.0</ele>
        <time>2020-08-17T16:17:19.854Z</time>
      </trkpt>
      <trkpt lat="38.99532" lon="1.39043667">
        <ele>97.0</ele>
        <time>2020-08-17T16:17:20.852Z</time>
      </trkpt>
      <trkpt lat="38.99539167" lon="1.39033833">
        <ele>97.0</ele>
        <time>2020-08-17T16:17:21.854Z</time>
      </trkpt>
      <trkpt lat="38.99543" lon="1.39028833">
        <ele>97.0</ele>
        <time>2020-08-17T16:17:22.852Z</time>
      </trkpt>
      <trkpt lat="38.99543" lon="1.39028833">
        <ele>97.0</ele>
        <time>2020-08-17T16:17:23.868Z</time>
      </trkpt>
      <trkpt lat="38.9955" lon="1.39018667">
        <ele>98.0</ele>
        <time>2020-08-17T16:17:24.854Z</time>
      </trkpt>
      <trkpt lat="38.99553667" lon="1.390135">
        <ele>98.0</ele>
        <time>2020-08-17T16:17:25.869Z</time>
      </trkpt>
      <trkpt lat="38.99553667" lon="1.390135">
        <ele>98.0</ele>
        <time>2020-08-17T16:17:26.852Z</time>
      </trkpt>
      <trkpt lat="38.99561167" lon="1.390035">
        <ele>98.0</ele>
        <time>2020-08-17T16:17:27.854Z</time>
      </trkpt>
      <trkpt lat="38.99564833" lon="1.38998333">
        <ele>98.0</ele>
        <time>2020-08-17T16:17:28.871Z</time>
      </trkpt>
      <trkpt lat="38.99564833" lon="1.38998333">
        <ele>98.0</ele>
        <time>2020-08-17T16:17:29.850Z</time>
      </trkpt>
      <trkpt lat="38.99572667" lon="1.38988667">
        <ele>98.0</ele>
        <time>2020-08-17T16:17:30.870Z</time>
      </trkpt>
      <trkpt lat="38.99572667" lon="1.38988667">
        <ele>98.0</ele>
        <time>2020-08-17T16:17:31.852Z</time>
      </trkpt>
      <trkpt lat="38.995815" lon="1.3898">
        <ele>98.0</ele>
        <time>2020-08-17T16:17:32.854Z</time>
      </trkpt>
      <trkpt lat="38.995815" lon="1.3898">
        <ele>98.0</ele>
        <time>2020-08-17T16:17:33.870Z</time>
      </trkpt>
      <trkpt lat="38.99590833" lon="1.389725">
        <ele>98.0</ele>
        <time>2020-08-17T16:17:34.856Z</time>
      </trkpt>
      <trkpt lat="38.99590833" lon="1.389725">
        <ele>98.0</ele>
        <time>2020-08-17T16:17:35.852Z</time>
      </trkpt>
      <trkpt lat="38.99600833" lon="1.38966667">
        <ele>98.0</ele>
        <time>2020-08-17T16:17:36.855Z</time>
      </trkpt>
      <trkpt lat="38.99605833" lon="1.38963833">
        <ele>98.0</ele>
        <time>2020-08-17T16:17:37.852Z</time>
      </trkpt>
      <trkpt lat="38.99611" lon="1.38961167">
        <ele>98.0</ele>
        <time>2020-08-17T16:17:38.867Z</time>
      </trkpt>
      <trkpt lat="38.99611" lon="1.38961167">
        <ele>98.0</ele>
        <time>2020-08-17T16:17:39.852Z</time>
      </trkpt>
      <trkpt lat="38.99621" lon="1.38956">
        <ele>99.0</ele>
        <time>2020-08-17T16:17:40.853Z</time>
      </trkpt>
      <trkpt lat="38.99621" lon="1.38956">
        <ele>99.0</ele>
        <time>2020-08-17T16:17:41.852Z</time>
      </trkpt>
      <trkpt lat="38.99631" lon="1.38950667">
        <ele>99.0</ele>
        <time>2020-08-17T16:17:42.855Z</time>
      </trkpt>
      <trkpt lat="38.99631" lon="1.38950667">
        <ele>99.0</ele>
        <time>2020-08-17T16:17:43.871Z</time>
      </trkpt>
      <trkpt lat="38.99640833" lon="1.38945167">
        <ele>99.0</ele>
        <time>2020-08-17T16:17:44.854Z</time>
      </trkpt>
      <trkpt lat="38.99640833" lon="1.38945167">
        <ele>99.0</ele>
        <time>2020-08-17T16:17:45.870Z</time>
      </trkpt>
      <trkpt lat="38.99651" lon="1.38938833">
        <ele>99.0</ele>
        <time>2020-08-17T16:17:46.857Z</time>
      </trkpt>
      <trkpt lat="38.99651" lon="1.38938833">
        <ele>99.0</ele>
        <time>2020-08-17T16:17:47.852Z</time>
      </trkpt>
      <trkpt lat="38.99661167" lon="1.38931833">
        <ele>98.0</ele>
        <time>2020-08-17T16:17:48.874Z</time>
      </trkpt>
      <trkpt lat="38.99661167" lon="1.38931833">
        <ele>98.0</ele>
        <time>2020-08-17T16:17:49.853Z</time>
      </trkpt>
      <trkpt lat="38.99671667" lon="1.38924667">
        <ele>98.0</ele>
        <time>2020-08-17T16:17:50.854Z</time>
      </trkpt>
      <trkpt lat="38.99671667" lon="1.38924667">
        <ele>98.0</ele>
        <time>2020-08-17T16:17:51.869Z</time>
      </trkpt>
      <trkpt lat="38.99682667" lon="1.389175">
        <ele>98.0</ele>
        <time>2020-08-17T16:17:52.857Z</time>
      </trkpt>
      <trkpt lat="38.99682667" lon="1.389175">
        <ele>98.0</ele>
        <time>2020-08-17T16:17:53.850Z</time>
      </trkpt>
      <trkpt lat="38.99693833" lon="1.38910667">
        <ele>98.0</ele>
        <time>2020-08-17T16:17:54.871Z</time>
      </trkpt>
      <trkpt lat="38.99693833" lon="1.38910667">
        <ele>98.0</ele>
        <time>2020-08-17T16:17:55.852Z</time>
      </trkpt>
      <trkpt lat="38.99704833" lon="1.38903833">
        <ele>98.0</ele>
        <time>2020-08-17T16:17:56.871Z</time>
      </trkpt>
      <trkpt lat="38.99704833" lon="1.38903833">
        <ele>98.0</ele>
        <time>2020-08-17T16:17:57.861Z</time>
      </trkpt>
      <trkpt lat="38.99715667" lon="1.38897667">
        <ele>98.0</ele>
        <time>2020-08-17T16:17:58.855Z</time>
      </trkpt>
      <trkpt lat="38.99715667" lon="1.38897667">
        <ele>98.0</ele>
        <time>2020-08-17T16:17:59.874Z</time>
      </trkpt>
      <trkpt lat="38.997265" lon="1.38891833">
        <ele>98.0</ele>
        <time>2020-08-17T16:18:00.856Z</time>
      </trkpt>
      <trkpt lat="38.997265" lon="1.38891833">
        <ele>98.0</ele>
        <time>2020-08-17T16:18:01.852Z</time>
      </trkpt>
      <trkpt lat="38.99737167" lon="1.38886167">
        <ele>98.0</ele>
        <time>2020-08-17T16:18:02.855Z</time>
      </trkpt>
      <trkpt lat="38.99737167" lon="1.38886167">
        <ele>98.0</ele>
        <time>2020-08-17T16:18:03.849Z</time>
      </trkpt>
      <trkpt lat="38.99748333" lon="1.38880667">
        <ele>98.0</ele>
        <time>2020-08-17T16:18:04.869Z</time>
      </trkpt>
      <trkpt lat="38.99748333" lon="1.38880667">
        <ele>98.0</ele>
        <time>2020-08-17T16:18:05.851Z</time>
      </trkpt>
      <trkpt lat="38.99759833" lon="1.38875167">
        <ele>98.0</ele>
        <time>2020-08-17T16:18:06.855Z</time>
      </trkpt>
      <trkpt lat="38.99759833" lon="1.38875167">
        <ele>98.0</ele>
        <time>2020-08-17T16:18:07.851Z</time>
      </trkpt>
      <trkpt lat="38.99771" lon="1.38870333">
        <ele>99.0</ele>
        <time>2020-08-17T16:18:08.855Z</time>
      </trkpt>
      <trkpt lat="38.997765" lon="1.38868">
        <ele>99.0</ele>
        <time>2020-08-17T16:18:09.870Z</time>
      </trkpt>
      <trkpt lat="38.997765" lon="1.38868">
        <ele>99.0</ele>
        <time>2020-08-17T16:18:10.854Z</time>
      </trkpt>
      <trkpt lat="38.99787667" lon="1.38862833">
        <ele>99.0</ele>
        <time>2020-08-17T16:18:11.855Z</time>
      </trkpt>
      <trkpt lat="38.99793167" lon="1.38860333">
        <ele>99.0</ele>
        <time>2020-08-17T16:18:12.871Z</time>
      </trkpt>
      <trkpt lat="38.99793167" lon="1.38860333">
        <ele>99.0</ele>
        <time>2020-08-17T16:18:13.850Z</time>
      </trkpt>
      <trkpt lat="38.998045" lon="1.388565">
        <ele>100.0</ele>
        <time>2020-08-17T16:18:14.869Z</time>
      </trkpt>
      <trkpt lat="38.998045" lon="1.388565">
        <ele>100.0</ele>
        <time>2020-08-17T16:18:15.851Z</time>
      </trkpt>
      <trkpt lat="38.998155" lon="1.38853333">
        <ele>101.0</ele>
        <time>2020-08-17T16:18:16.872Z</time>
      </trkpt>
      <trkpt lat="38.998155" lon="1.38853333">
        <ele>101.0</ele>
        <time>2020-08-17T16:18:17.858Z</time>
      </trkpt>
      <trkpt lat="38.99826333" lon="1.38851667">
        <ele>101.0</ele>
        <time>2020-08-17T16:18:18.855Z</time>
      </trkpt>
      <trkpt lat="38.99826333" lon="1.38851667">
        <ele>101.0</ele>
        <time>2020-08-17T16:18:19.871Z</time>
      </trkpt>
      <trkpt lat="38.99837" lon="1.38849167">
        <ele>101.0</ele>
        <time>2020-08-17T16:18:20.857Z</time>
      </trkpt>
      <trkpt lat="38.99837" lon="1.38849167">
        <ele>101.0</ele>
        <time>2020-08-17T16:18:21.852Z</time>
      </trkpt>
      <trkpt lat="38.99848" lon="1.38846167">
        <ele>102.0</ele>
        <time>2020-08-17T16:18:22.871Z</time>
      </trkpt>
      <trkpt lat="38.99848" lon="1.38846167">
        <ele>102.0</ele>
        <time>2020-08-17T16:18:23.852Z</time>
      </trkpt>
      <trkpt lat="38.998585" lon="1.38843167">
        <ele>103.0</ele>
        <time>2020-08-17T16:18:24.852Z</time>
      </trkpt>
      <trkpt lat="38.998585" lon="1.38843167">
        <ele>103.0</ele>
        <time>2020-08-17T16:18:25.870Z</time>
      </trkpt>
      <trkpt lat="38.99868833" lon="1.38839667">
        <ele>103.0</ele>
        <time>2020-08-17T16:18:26.855Z</time>
      </trkpt>
      <trkpt lat="38.99868833" lon="1.38839667">
        <ele>103.0</ele>
        <time>2020-08-17T16:18:27.846Z</time>
      </trkpt>
      <trkpt lat="38.99878667" lon="1.38835333">
        <ele>103.0</ele>
        <time>2020-08-17T16:18:28.867Z</time>
      </trkpt>
      <trkpt lat="38.99878667" lon="1.38835333">
        <ele>103.0</ele>
        <time>2020-08-17T16:18:29.850Z</time>
      </trkpt>
      <trkpt lat="38.99888333" lon="1.3883">
        <ele>103.0</ele>
        <time>2020-08-17T16:18:30.870Z</time>
      </trkpt>
      <trkpt lat="38.99888333" lon="1.3883">
        <ele>103.0</ele>
        <time>2020-08-17T16:18:31.852Z</time>
      </trkpt>
      <trkpt lat="38.998975" lon="1.38823667">
        <ele>103.0</ele>
        <time>2020-08-17T16:18:32.855Z</time>
      </trkpt>
      <trkpt lat="38.998975" lon="1.38823667">
        <ele>103.0</ele>
        <time>2020-08-17T16:18:33.870Z</time>
      </trkpt>
      <trkpt lat="38.99906167" lon="1.38816167">
        <ele>104.0</ele>
        <time>2020-08-17T16:18:34.853Z</time>
      </trkpt>
      <trkpt lat="38.99906167" lon="1.38816167">
        <ele>104.0</ele>
        <time>2020-08-17T16:18:35.873Z</time>
      </trkpt>
      <trkpt lat="38.999145" lon="1.38808667">
        <ele>104.0</ele>
        <time>2020-08-17T16:18:36.856Z</time>
      </trkpt>
      <trkpt lat="38.999145" lon="1.38808667">
        <ele>104.0</ele>
        <time>2020-08-17T16:18:37.874Z</time>
      </trkpt>
      <trkpt lat="38.99922333" lon="1.387995">
        <ele>104.0</ele>
        <time>2020-08-17T16:18:38.855Z</time>
      </trkpt>
      <trkpt lat="38.99922333" lon="1.387995">
        <ele>104.0</ele>
        <time>2020-08-17T16:18:39.870Z</time>
      </trkpt>
      <trkpt lat="38.99929667" lon="1.38789333">
        <ele>104.0</ele>
        <time>2020-08-17T16:18:40.857Z</time>
      </trkpt>
      <trkpt lat="38.99929667" lon="1.38789333">
        <ele>104.0</ele>
        <time>2020-08-17T16:18:41.852Z</time>
      </trkpt>
      <trkpt lat="38.999365" lon="1.387775">
        <ele>103.0</ele>
        <time>2020-08-17T16:18:42.853Z</time>
      </trkpt>
      <trkpt lat="38.999365" lon="1.387775">
        <ele>103.0</ele>
        <time>2020-08-17T16:18:43.868Z</time>
      </trkpt>
      <trkpt lat="38.99943" lon="1.38763667">
        <ele>103.0</ele>
        <time>2020-08-17T16:18:44.856Z</time>
      </trkpt>
      <trkpt lat="38.99943" lon="1.38763667">
        <ele>103.0</ele>
        <time>2020-08-17T16:18:45.871Z</time>
      </trkpt>
      <trkpt lat="38.99950167" lon="1.38748667">
        <ele>103.0</ele>
        <time>2020-08-17T16:18:46.856Z</time>
      </trkpt>
      <trkpt lat="38.99950167" lon="1.38748667">
        <ele>103.0</ele>
        <time>2020-08-17T16:18:47.858Z</time>
      </trkpt>
      <trkpt lat="38.99958333" lon="1.387325">
        <ele>102.0</ele>
        <time>2020-08-17T16:18:48.855Z</time>
      </trkpt>
      <trkpt lat="38.99958333" lon="1.387325">
        <ele>102.0</ele>
        <time>2020-08-17T16:18:49.871Z</time>
      </trkpt>
      <trkpt lat="38.99967333" lon="1.38718167">
        <ele>102.0</ele>
        <time>2020-08-17T16:18:50.857Z</time>
      </trkpt>
      <trkpt lat="38.99967333" lon="1.38718167">
        <ele>102.0</ele>
        <time>2020-08-17T16:18:51.851Z</time>
      </trkpt>
      <trkpt lat="38.99977667" lon="1.38706667">
        <ele>102.0</ele>
        <time>2020-08-17T16:18:52.853Z</time>
      </trkpt>
      <trkpt lat="38.99977667" lon="1.38706667">
        <ele>102.0</ele>
        <time>2020-08-17T16:18:53.874Z</time>
      </trkpt>
      <trkpt lat="38.999885" lon="1.38697">
        <ele>102.0</ele>
        <time>2020-08-17T16:18:54.855Z</time>
      </trkpt>
      <trkpt lat="38.999885" lon="1.38697">
        <ele>102.0</ele>
        <time>2020-08-17T16:18:55.870Z</time>
      </trkpt>
      <trkpt lat="38.99998667" lon="1.38688167">
        <ele>102.0</ele>
        <time>2020-08-17T16:18:56.855Z</time>
      </trkpt>
      <trkpt lat="38.99998667" lon="1.38688167">
        <ele>102.0</ele>
        <time>2020-08-17T16:18:57.881Z</time>
      </trkpt>
      <trkpt lat="39.000085" lon="1.3868">
        <ele>103.0</ele>
        <time>2020-08-17T16:18:58.857Z</time>
      </trkpt>
      <trkpt lat="39.00013667" lon="1.38676">
        <ele>103.0</ele>
        <time>2020-08-17T16:18:59.855Z</time>
      </trkpt>
      <trkpt lat="39.00018667" lon="1.38671833">
        <ele>103.0</ele>
        <time>2020-08-17T16:19:00.856Z</time>
      </trkpt>
      <trkpt lat="39.00018667" lon="1.38671833">
        <ele>103.0</ele>
        <time>2020-08-17T16:19:01.850Z</time>
      </trkpt>
      <trkpt lat="39.00028667" lon="1.38663333">
        <ele>104.0</ele>
        <time>2020-08-17T16:19:02.870Z</time>
      </trkpt>
      <trkpt lat="39.00033667" lon="1.38658667">
        <ele>104.0</ele>
        <time>2020-08-17T16:19:03.855Z</time>
      </trkpt>
      <trkpt lat="39.00038667" lon="1.38654667">
        <ele>104.0</ele>
        <time>2020-08-17T16:19:04.870Z</time>
      </trkpt>
      <trkpt lat="39.00038667" lon="1.38654667">
        <ele>104.0</ele>
        <time>2020-08-17T16:19:05.850Z</time>
      </trkpt>
      <trkpt lat="39.00048833" lon="1.38646167">
        <ele>104.0</ele>
        <time>2020-08-17T16:19:06.858Z</time>
      </trkpt>
      <trkpt lat="39.00048833" lon="1.38646167">
        <ele>104.0</ele>
        <time>2020-08-17T16:19:07.854Z</time>
      </trkpt>
      <trkpt lat="39.00058333" lon="1.38638">
        <ele>105.0</ele>
        <time>2020-08-17T16:19:08.853Z</time>
      </trkpt>
      <trkpt lat="39.00058333" lon="1.38638">
        <ele>105.0</ele>
        <time>2020-08-17T16:19:09.869Z</time>
      </trkpt>
      <trkpt lat="39.00067167" lon="1.38630167">
        <ele>107.0</ele>
        <time>2020-08-17T16:19:10.857Z</time>
      </trkpt>
      <trkpt lat="39.00067167" lon="1.38630167">
        <ele>107.0</ele>
        <time>2020-08-17T16:19:11.852Z</time>
      </trkpt>
      <trkpt lat="39.000755" lon="1.38622667">
        <ele>107.0</ele>
        <time>2020-08-17T16:19:12.871Z</time>
      </trkpt>
      <trkpt lat="39.000755" lon="1.38622667">
        <ele>107.0</ele>
        <time>2020-08-17T16:19:13.852Z</time>
      </trkpt>
      <trkpt lat="39.00084167" lon="1.38615333">
        <ele>108.0</ele>
        <time>2020-08-17T16:19:14.855Z</time>
      </trkpt>
      <trkpt lat="39.00088667" lon="1.38611667">
        <ele>109.0</ele>
        <time>2020-08-17T16:19:15.871Z</time>
      </trkpt>
      <trkpt lat="39.00088667" lon="1.38611667">
        <ele>109.0</ele>
        <time>2020-08-17T16:19:16.851Z</time>
      </trkpt>
      <trkpt lat="39.00097833" lon="1.38604167">
        <ele>109.0</ele>
        <time>2020-08-17T16:19:17.881Z</time>
      </trkpt>
      <trkpt lat="39.00102667" lon="1.38600333">
        <ele>109.0</ele>
        <time>2020-08-17T16:19:18.859Z</time>
      </trkpt>
      <trkpt lat="39.00102667" lon="1.38600333">
        <ele>109.0</ele>
        <time>2020-08-17T16:19:19.850Z</time>
      </trkpt>
      <trkpt lat="39.00111833" lon="1.38592">
        <ele>109.0</ele>
        <time>2020-08-17T16:19:20.871Z</time>
      </trkpt>
      <trkpt lat="39.00111833" lon="1.38592">
        <ele>109.0</ele>
        <time>2020-08-17T16:19:21.852Z</time>
      </trkpt>
      <trkpt lat="39.00120667" lon="1.38582667">
        <ele>110.0</ele>
        <time>2020-08-17T16:19:22.871Z</time>
      </trkpt>
      <trkpt lat="39.00120667" lon="1.38582667">
        <ele>110.0</ele>
        <time>2020-08-17T16:19:23.850Z</time>
      </trkpt>
      <trkpt lat="39.00129167" lon="1.38573">
        <ele>110.0</ele>
        <time>2020-08-17T16:19:24.856Z</time>
      </trkpt>
      <trkpt lat="39.00129167" lon="1.38573">
        <ele>110.0</ele>
        <time>2020-08-17T16:19:25.852Z</time>
      </trkpt>
      <trkpt lat="39.00137" lon="1.38562667">
        <ele>110.0</ele>
        <time>2020-08-17T16:19:26.856Z</time>
      </trkpt>
      <trkpt lat="39.00137" lon="1.38562667">
        <ele>110.0</ele>
        <time>2020-08-17T16:19:27.871Z</time>
      </trkpt>
      <trkpt lat="39.00144333" lon="1.38551667">
        <ele>110.0</ele>
        <time>2020-08-17T16:19:28.859Z</time>
      </trkpt>
      <trkpt lat="39.00144333" lon="1.38551667">
        <ele>110.0</ele>
        <time>2020-08-17T16:19:29.852Z</time>
      </trkpt>
      <trkpt lat="39.00151167" lon="1.3854">
        <ele>110.0</ele>
        <time>2020-08-17T16:19:30.875Z</time>
      </trkpt>
      <trkpt lat="39.001545" lon="1.385345">
        <ele>110.0</ele>
        <time>2020-08-17T16:19:31.856Z</time>
      </trkpt>
      <trkpt lat="39.001545" lon="1.385345">
        <ele>110.0</ele>
        <time>2020-08-17T16:19:32.871Z</time>
      </trkpt>
      <trkpt lat="39.00161" lon="1.38524">
        <ele>110.0</ele>
        <time>2020-08-17T16:19:33.855Z</time>
      </trkpt>
      <trkpt lat="39.00164" lon="1.38518">
        <ele>111.0</ele>
        <time>2020-08-17T16:19:34.871Z</time>
      </trkpt>
      <trkpt lat="39.00164" lon="1.38518">
        <ele>111.0</ele>
        <time>2020-08-17T16:19:35.849Z</time>
      </trkpt>
      <trkpt lat="39.00169833" lon="1.38506667">
        <ele>113.0</ele>
        <time>2020-08-17T16:19:36.869Z</time>
      </trkpt>
      <trkpt lat="39.00169833" lon="1.38506667">
        <ele>113.0</ele>
        <time>2020-08-17T16:19:37.850Z</time>
      </trkpt>
      <trkpt lat="39.001765" lon="1.38496">
        <ele>114.0</ele>
        <time>2020-08-17T16:19:38.857Z</time>
      </trkpt>
      <trkpt lat="39.001765" lon="1.38496">
        <ele>114.0</ele>
        <time>2020-08-17T16:19:39.852Z</time>
      </trkpt>
      <trkpt lat="39.00182667" lon="1.38485333">
        <ele>114.0</ele>
        <time>2020-08-17T16:19:40.856Z</time>
      </trkpt>
      <trkpt lat="39.00182667" lon="1.38485333">
        <ele>114.0</ele>
        <time>2020-08-17T16:19:41.874Z</time>
      </trkpt>
      <trkpt lat="39.001885" lon="1.38475333">
        <ele>114.0</ele>
        <time>2020-08-17T16:19:42.856Z</time>
      </trkpt>
      <trkpt lat="39.001885" lon="1.38475333">
        <ele>114.0</ele>
        <time>2020-08-17T16:19:43.871Z</time>
      </trkpt>
      <trkpt lat="39.001945" lon="1.38464833">
        <ele>114.0</ele>
        <time>2020-08-17T16:19:44.855Z</time>
      </trkpt>
      <trkpt lat="39.001945" lon="1.38464833">
        <ele>114.0</ele>
        <time>2020-08-17T16:19:45.871Z</time>
      </trkpt>
      <trkpt lat="39.00200333" lon="1.38454667">
        <ele>115.0</ele>
        <time>2020-08-17T16:19:46.856Z</time>
      </trkpt>
      <trkpt lat="39.00200333" lon="1.38454667">
        <ele>115.0</ele>
        <time>2020-08-17T16:19:47.874Z</time>
      </trkpt>
      <trkpt lat="39.00205833" lon="1.38444667">
        <ele>115.0</ele>
        <time>2020-08-17T16:19:48.859Z</time>
      </trkpt>
      <trkpt lat="39.00205833" lon="1.38444667">
        <ele>115.0</ele>
        <time>2020-08-17T16:19:49.852Z</time>
      </trkpt>
      <trkpt lat="39.00211" lon="1.38434167">
        <ele>116.0</ele>
        <time>2020-08-17T16:19:50.855Z</time>
      </trkpt>
      <trkpt lat="39.00211" lon="1.38434167">
        <ele>116.0</ele>
        <time>2020-08-17T16:19:51.852Z</time>
      </trkpt>
      <trkpt lat="39.00216167" lon="1.38423167">
        <ele>116.0</ele>
        <time>2020-08-17T16:19:52.871Z</time>
      </trkpt>
      <trkpt lat="39.00216167" lon="1.38423167">
        <ele>116.0</ele>
        <time>2020-08-17T16:19:53.852Z</time>
      </trkpt>
      <trkpt lat="39.00221" lon="1.384115">
        <ele>116.0</ele>
        <time>2020-08-17T16:19:54.871Z</time>
      </trkpt>
      <trkpt lat="39.00224" lon="1.38405">
        <ele>116.0</ele>
        <time>2020-08-17T16:19:55.856Z</time>
      </trkpt>
      <trkpt lat="39.00224" lon="1.38405">
        <ele>116.0</ele>
        <time>2020-08-17T16:19:56.871Z</time>
      </trkpt>
      <trkpt lat="39.00230167" lon="1.38392833">
        <ele>117.0</ele>
        <time>2020-08-17T16:19:57.869Z</time>
      </trkpt>
      <trkpt lat="39.00233167" lon="1.383865">
        <ele>117.0</ele>
        <time>2020-08-17T16:19:58.854Z</time>
      </trkpt>
      <trkpt lat="39.00233167" lon="1.383865">
        <ele>117.0</ele>
        <time>2020-08-17T16:19:59.872Z</time>
      </trkpt>
      <trkpt lat="39.00238667" lon="1.38373333">
        <ele>117.0</ele>
        <time>2020-08-17T16:20:00.867Z</time>
      </trkpt>
      <trkpt lat="39.00238667" lon="1.38373333">
        <ele>117.0</ele>
        <time>2020-08-17T16:20:01.853Z</time>
      </trkpt>
      <trkpt lat="39.00244667" lon="1.38361">
        <ele>119.0</ele>
        <time>2020-08-17T16:20:02.852Z</time>
      </trkpt>
      <trkpt lat="39.00244667" lon="1.38361">
        <ele>119.0</ele>
        <time>2020-08-17T16:20:03.868Z</time>
      </trkpt>
      <trkpt lat="39.00249667" lon="1.38351">
        <ele>119.0</ele>
        <time>2020-08-17T16:20:04.856Z</time>
      </trkpt>
      <trkpt lat="39.00249667" lon="1.38351">
        <ele>119.0</ele>
        <time>2020-08-17T16:20:05.871Z</time>
      </trkpt>
      <trkpt lat="39.00254167" lon="1.383415">
        <ele>120.0</ele>
        <time>2020-08-17T16:20:06.855Z</time>
      </trkpt>
      <trkpt lat="39.00254167" lon="1.383415">
        <ele>120.0</ele>
        <time>2020-08-17T16:20:07.870Z</time>
      </trkpt>
      <trkpt lat="39.00258" lon="1.38333">
        <ele>120.0</ele>
        <time>2020-08-17T16:20:08.856Z</time>
      </trkpt>
      <trkpt lat="39.00258" lon="1.38333">
        <ele>120.0</ele>
        <time>2020-08-17T16:20:09.871Z</time>
      </trkpt>
      <trkpt lat="39.00261833" lon="1.383255">
        <ele>121.0</ele>
        <time>2020-08-17T16:20:10.857Z</time>
      </trkpt>
      <trkpt lat="39.00263833" lon="1.38322167">
        <ele>122.0</ele>
        <time>2020-08-17T16:20:11.855Z</time>
      </trkpt>
      <trkpt lat="39.00263833" lon="1.38322167">
        <ele>122.0</ele>
        <time>2020-08-17T16:20:12.870Z</time>
      </trkpt>
      <trkpt lat="39.002675" lon="1.38316333">
        <ele>123.0</ele>
        <time>2020-08-17T16:20:13.852Z</time>
      </trkpt>
      <trkpt lat="39.002675" lon="1.38316333">
        <ele>123.0</ele>
        <time>2020-08-17T16:20:14.869Z</time>
      </trkpt>
      <trkpt lat="39.00272" lon="1.383115">
        <ele>124.0</ele>
        <time>2020-08-17T16:20:15.855Z</time>
      </trkpt>
      <trkpt lat="39.00274667" lon="1.383095">
        <ele>124.0</ele>
        <time>2020-08-17T16:20:16.870Z</time>
      </trkpt>
      <trkpt lat="39.00274667" lon="1.383095">
        <ele>124.0</ele>
        <time>2020-08-17T16:20:17.852Z</time>
      </trkpt>
      <trkpt lat="39.00281333" lon="1.38309667">
        <ele>124.0</ele>
        <time>2020-08-17T16:20:18.848Z</time>
      </trkpt>
      <trkpt lat="39.00285" lon="1.38312">
        <ele>125.0</ele>
        <time>2020-08-17T16:20:19.867Z</time>
      </trkpt>
      <trkpt lat="39.00288667" lon="1.38314167">
        <ele>125.0</ele>
        <time>2020-08-17T16:20:20.857Z</time>
      </trkpt>
      <trkpt lat="39.00288667" lon="1.38314167">
        <ele>125.0</ele>
        <time>2020-08-17T16:20:21.852Z</time>
      </trkpt>
      <trkpt lat="39.00297" lon="1.38319167">
        <ele>125.0</ele>
        <time>2020-08-17T16:20:22.856Z</time>
      </trkpt>
      <trkpt lat="39.00297" lon="1.38319167">
        <ele>125.0</ele>
        <time>2020-08-17T16:20:23.871Z</time>
      </trkpt>
      <trkpt lat="39.00305667" lon="1.38325333">
        <ele>126.0</ele>
        <time>2020-08-17T16:20:24.874Z</time>
      </trkpt>
      <trkpt lat="39.00305667" lon="1.38325333">
        <ele>126.0</ele>
        <time>2020-08-17T16:20:25.857Z</time>
      </trkpt>
      <trkpt lat="39.00314667" lon="1.38330333">
        <ele>127.0</ele>
        <time>2020-08-17T16:20:26.856Z</time>
      </trkpt>
      <trkpt lat="39.00314667" lon="1.38330333">
        <ele>127.0</ele>
        <time>2020-08-17T16:20:27.871Z</time>
      </trkpt>
      <trkpt lat="39.00324" lon="1.38337667">
        <ele>127.0</ele>
        <time>2020-08-17T16:20:28.855Z</time>
      </trkpt>
      <trkpt lat="39.00324" lon="1.38337667">
        <ele>127.0</ele>
        <time>2020-08-17T16:20:29.851Z</time>
      </trkpt>
      <trkpt lat="39.003355" lon="1.38346167">
        <ele>126.0</ele>
        <time>2020-08-17T16:20:30.855Z</time>
      </trkpt>
      <trkpt lat="39.003355" lon="1.38346167">
        <ele>126.0</ele>
        <time>2020-08-17T16:20:31.870Z</time>
      </trkpt>
      <trkpt lat="39.00347167" lon="1.38357333">
        <ele>126.0</ele>
        <time>2020-08-17T16:20:32.857Z</time>
      </trkpt>
      <trkpt lat="39.00347167" lon="1.38357333">
        <ele>126.0</ele>
        <time>2020-08-17T16:20:33.850Z</time>
      </trkpt>
      <trkpt lat="39.00358667" lon="1.38369167">
        <ele>125.0</ele>
        <time>2020-08-17T16:20:34.870Z</time>
      </trkpt>
      <trkpt lat="39.00358667" lon="1.38369167">
        <ele>125.0</ele>
        <time>2020-08-17T16:20:35.852Z</time>
      </trkpt>
      <trkpt lat="39.00369167" lon="1.38381">
        <ele>124.0</ele>
        <time>2020-08-17T16:20:36.855Z</time>
      </trkpt>
      <trkpt lat="39.00369167" lon="1.38381">
        <ele>124.0</ele>
        <time>2020-08-17T16:20:37.852Z</time>
      </trkpt>
      <trkpt lat="39.0038" lon="1.383925">
        <ele>124.0</ele>
        <time>2020-08-17T16:20:38.875Z</time>
      </trkpt>
      <trkpt lat="39.003855" lon="1.38398167">
        <ele>123.0</ele>
        <time>2020-08-17T16:20:39.852Z</time>
      </trkpt>
      <trkpt lat="39.00390833" lon="1.38403833">
        <ele>123.0</ele>
        <time>2020-08-17T16:20:40.872Z</time>
      </trkpt>
      <trkpt lat="39.00390833" lon="1.38403833">
        <ele>123.0</ele>
        <time>2020-08-17T16:20:41.854Z</time>
      </trkpt>
      <trkpt lat="39.00401333" lon="1.38415333">
        <ele>123.0</ele>
        <time>2020-08-17T16:20:42.868Z</time>
      </trkpt>
      <trkpt lat="39.00401333" lon="1.38415333">
        <ele>123.0</ele>
        <time>2020-08-17T16:20:43.851Z</time>
      </trkpt>
      <trkpt lat="39.00412167" lon="1.38426667">
        <ele>123.0</ele>
        <time>2020-08-17T16:20:44.871Z</time>
      </trkpt>
      <trkpt lat="39.00412167" lon="1.38426667">
        <ele>123.0</ele>
        <time>2020-08-17T16:20:45.852Z</time>
      </trkpt>
      <trkpt lat="39.00423333" lon="1.38438">
        <ele>124.0</ele>
        <time>2020-08-17T16:20:46.857Z</time>
      </trkpt>
      <trkpt lat="39.00423333" lon="1.38438">
        <ele>124.0</ele>
        <time>2020-08-17T16:20:47.850Z</time>
      </trkpt>
      <trkpt lat="39.00434167" lon="1.384495">
        <ele>124.0</ele>
        <time>2020-08-17T16:20:48.868Z</time>
      </trkpt>
      <trkpt lat="39.00434167" lon="1.384495">
        <ele>124.0</ele>
        <time>2020-08-17T16:20:49.871Z</time>
      </trkpt>
      <trkpt lat="39.00445167" lon="1.38461833">
        <ele>123.0</ele>
        <time>2020-08-17T16:20:50.857Z</time>
      </trkpt>
      <trkpt lat="39.004505" lon="1.38468167">
        <ele>123.0</ele>
        <time>2020-08-17T16:20:51.852Z</time>
      </trkpt>
      <trkpt lat="39.00455667" lon="1.384745">
        <ele>123.0</ele>
        <time>2020-08-17T16:20:52.869Z</time>
      </trkpt>
      <trkpt lat="39.00455667" lon="1.384745">
        <ele>123.0</ele>
        <time>2020-08-17T16:20:53.850Z</time>
      </trkpt>
      <trkpt lat="39.004665" lon="1.38487167">
        <ele>123.0</ele>
        <time>2020-08-17T16:20:54.869Z</time>
      </trkpt>
      <trkpt lat="39.004665" lon="1.38487167">
        <ele>123.0</ele>
        <time>2020-08-17T16:20:55.850Z</time>
      </trkpt>
      <trkpt lat="39.00477333" lon="1.38500167">
        <ele>123.0</ele>
        <time>2020-08-17T16:20:56.870Z</time>
      </trkpt>
      <trkpt lat="39.00477333" lon="1.38500167">
        <ele>123.0</ele>
        <time>2020-08-17T16:20:57.854Z</time>
      </trkpt>
      <trkpt lat="39.004885" lon="1.38513833">
        <ele>122.0</ele>
        <time>2020-08-17T16:20:58.857Z</time>
      </trkpt>
      <trkpt lat="39.004885" lon="1.38513833">
        <ele>122.0</ele>
        <time>2020-08-17T16:20:59.853Z</time>
      </trkpt>
      <trkpt lat="39.00500167" lon="1.38528667">
        <ele>122.0</ele>
        <time>2020-08-17T16:21:00.856Z</time>
      </trkpt>
      <trkpt lat="39.00500167" lon="1.38528667">
        <ele>122.0</ele>
        <time>2020-08-17T16:21:01.871Z</time>
      </trkpt>
      <trkpt lat="39.005125" lon="1.38543833">
        <ele>121.0</ele>
        <time>2020-08-17T16:21:02.853Z</time>
      </trkpt>
      <trkpt lat="39.005125" lon="1.38543833">
        <ele>121.0</ele>
        <time>2020-08-17T16:21:03.868Z</time>
      </trkpt>
      <trkpt lat="39.005245" lon="1.38559">
        <ele>120.0</ele>
        <time>2020-08-17T16:21:04.857Z</time>
      </trkpt>
      <trkpt lat="39.005245" lon="1.38559">
        <ele>120.0</ele>
        <time>2020-08-17T16:21:05.884Z</time>
      </trkpt>
      <trkpt lat="39.00536667" lon="1.38573667">
        <ele>120.0</ele>
        <time>2020-08-17T16:21:06.867Z</time>
      </trkpt>
      <trkpt lat="39.00542833" lon="1.38581167">
        <ele>120.0</ele>
        <time>2020-08-17T16:21:07.856Z</time>
      </trkpt>
      <trkpt lat="39.00542833" lon="1.38581167">
        <ele>120.0</ele>
        <time>2020-08-17T16:21:08.870Z</time>
      </trkpt>
      <trkpt lat="39.00555167" lon="1.38596333">
        <ele>120.0</ele>
        <time>2020-08-17T16:21:09.856Z</time>
      </trkpt>
      <trkpt lat="39.00561333" lon="1.38603833">
        <ele>120.0</ele>
        <time>2020-08-17T16:21:10.872Z</time>
      </trkpt>
      <trkpt lat="39.00561333" lon="1.38603833">
        <ele>120.0</ele>
        <time>2020-08-17T16:21:11.855Z</time>
      </trkpt>
      <trkpt lat="39.00573167" lon="1.38618667">
        <ele>120.0</ele>
        <time>2020-08-17T16:21:12.856Z</time>
      </trkpt>
      <trkpt lat="39.00573167" lon="1.38618667">
        <ele>120.0</ele>
        <time>2020-08-17T16:21:13.871Z</time>
      </trkpt>
      <trkpt lat="39.00584667" lon="1.38634">
        <ele>119.0</ele>
        <time>2020-08-17T16:21:14.853Z</time>
      </trkpt>
      <trkpt lat="39.00590167" lon="1.386415">
        <ele>119.0</ele>
        <time>2020-08-17T16:21:15.868Z</time>
      </trkpt>
      <trkpt lat="39.00590167" lon="1.386415">
        <ele>119.0</ele>
        <time>2020-08-17T16:21:16.851Z</time>
      </trkpt>
      <trkpt lat="39.00599667" lon="1.38657833">
        <ele>119.0</ele>
        <time>2020-08-17T16:21:17.855Z</time>
      </trkpt>
      <trkpt lat="39.00599667" lon="1.38657833">
        <ele>119.0</ele>
        <time>2020-08-17T16:21:18.870Z</time>
      </trkpt>
      <trkpt lat="39.006065" lon="1.38675667">
        <ele>119.0</ele>
        <time>2020-08-17T16:21:19.859Z</time>
      </trkpt>
      <trkpt lat="39.006065" lon="1.38675667">
        <ele>119.0</ele>
        <time>2020-08-17T16:21:20.852Z</time>
      </trkpt>
      <trkpt lat="39.00612167" lon="1.38693333">
        <ele>120.0</ele>
        <time>2020-08-17T16:21:21.855Z</time>
      </trkpt>
      <trkpt lat="39.00615" lon="1.38702">
        <ele>120.0</ele>
        <time>2020-08-17T16:21:22.871Z</time>
      </trkpt>
      <trkpt lat="39.00615" lon="1.38702">
        <ele>120.0</ele>
        <time>2020-08-17T16:21:23.850Z</time>
      </trkpt>
      <trkpt lat="39.00620333" lon="1.38719667">
        <ele>119.0</ele>
        <time>2020-08-17T16:21:24.856Z</time>
      </trkpt>
      <trkpt lat="39.00620333" lon="1.38719667">
        <ele>119.0</ele>
        <time>2020-08-17T16:21:25.858Z</time>
      </trkpt>
      <trkpt lat="39.00625667" lon="1.387375">
        <ele>120.0</ele>
        <time>2020-08-17T16:21:26.856Z</time>
      </trkpt>
      <trkpt lat="39.00625667" lon="1.387375">
        <ele>120.0</ele>
        <time>2020-08-17T16:21:27.871Z</time>
      </trkpt>
      <trkpt lat="39.00630667" lon="1.38754">
        <ele>120.0</ele>
        <time>2020-08-17T16:21:28.857Z</time>
      </trkpt>
      <trkpt lat="39.00630667" lon="1.38754">
        <ele>120.0</ele>
        <time>2020-08-17T16:21:29.851Z</time>
      </trkpt>
      <trkpt lat="39.00635667" lon="1.3877">
        <ele>121.0</ele>
        <time>2020-08-17T16:21:30.870Z</time>
      </trkpt>
      <trkpt lat="39.00638" lon="1.387775">
        <ele>121.0</ele>
        <time>2020-08-17T16:21:31.853Z</time>
      </trkpt>
      <trkpt lat="39.00638" lon="1.387775">
        <ele>121.0</ele>
        <time>2020-08-17T16:21:32.868Z</time>
      </trkpt>
      <trkpt lat="39.00642833" lon="1.387915">
        <ele>121.0</ele>
        <time>2020-08-17T16:21:33.853Z</time>
      </trkpt>
      <trkpt lat="39.00645167" lon="1.38798167">
        <ele>122.0</ele>
        <time>2020-08-17T16:21:34.872Z</time>
      </trkpt>
      <trkpt lat="39.00645167" lon="1.38798167">
        <ele>122.0</ele>
        <time>2020-08-17T16:21:35.851Z</time>
      </trkpt>
      <trkpt lat="39.00649" lon="1.38811833">
        <ele>122.0</ele>
        <time>2020-08-17T16:21:36.871Z</time>
      </trkpt>
      <trkpt lat="39.00649" lon="1.38811833">
        <ele>122.0</ele>
        <time>2020-08-17T16:21:37.850Z</time>
      </trkpt>
      <trkpt lat="39.00651667" lon="1.38826">
        <ele>123.0</ele>
        <time>2020-08-17T16:21:38.869Z</time>
      </trkpt>
      <trkpt lat="39.00651667" lon="1.38826">
        <ele>123.0</ele>
        <time>2020-08-17T16:21:39.850Z</time>
      </trkpt>
      <trkpt lat="39.006535" lon="1.38840833">
        <ele>122.0</ele>
        <time>2020-08-17T16:21:40.871Z</time>
      </trkpt>
      <trkpt lat="39.006535" lon="1.38840833">
        <ele>122.0</ele>
        <time>2020-08-17T16:21:41.852Z</time>
      </trkpt>
      <trkpt lat="39.006535" lon="1.38840833">
        <ele>122.0</ele>
        <time>2020-08-17T16:21:42.853Z</time>
      </trkpt>
      <trkpt lat="39.00655167" lon="1.388565">
        <ele>123.0</ele>
        <time>2020-08-17T16:21:43.850Z</time>
      </trkpt>
      <trkpt lat="39.006565" lon="1.388725">
        <ele>123.0</ele>
        <time>2020-08-17T16:21:44.870Z</time>
      </trkpt>
      <trkpt lat="39.006565" lon="1.388725">
        <ele>123.0</ele>
        <time>2020-08-17T16:21:45.851Z</time>
      </trkpt>
      <trkpt lat="39.00658333" lon="1.38888667">
        <ele>123.0</ele>
        <time>2020-08-17T16:21:46.857Z</time>
      </trkpt>
      <trkpt lat="39.00658333" lon="1.38888667">
        <ele>123.0</ele>
        <time>2020-08-17T16:21:47.852Z</time>
      </trkpt>
      <trkpt lat="39.00659833" lon="1.38905167">
        <ele>123.0</ele>
        <time>2020-08-17T16:21:48.857Z</time>
      </trkpt>
      <trkpt lat="39.00659833" lon="1.38905167">
        <ele>123.0</ele>
        <time>2020-08-17T16:21:49.854Z</time>
      </trkpt>
      <trkpt lat="39.00661333" lon="1.38921333">
        <ele>123.0</ele>
        <time>2020-08-17T16:21:50.856Z</time>
      </trkpt>
      <trkpt lat="39.00661333" lon="1.38921333">
        <ele>123.0</ele>
        <time>2020-08-17T16:21:51.850Z</time>
      </trkpt>
      <trkpt lat="39.006635" lon="1.38937333">
        <ele>123.0</ele>
        <time>2020-08-17T16:21:52.857Z</time>
      </trkpt>
      <trkpt lat="39.006635" lon="1.38937333">
        <ele>123.0</ele>
        <time>2020-08-17T16:21:53.851Z</time>
      </trkpt>
      <trkpt lat="39.006655" lon="1.38953833">
        <ele>123.0</ele>
        <time>2020-08-17T16:21:54.870Z</time>
      </trkpt>
      <trkpt lat="39.006655" lon="1.38953833">
        <ele>123.0</ele>
        <time>2020-08-17T16:21:55.850Z</time>
      </trkpt>
      <trkpt lat="39.006675" lon="1.38970333">
        <ele>123.0</ele>
        <time>2020-08-17T16:21:56.869Z</time>
      </trkpt>
      <trkpt lat="39.00668333" lon="1.38978333">
        <ele>123.0</ele>
        <time>2020-08-17T16:21:57.876Z</time>
      </trkpt>
      <trkpt lat="39.00669167" lon="1.38985833">
        <ele>123.0</ele>
        <time>2020-08-17T16:21:58.857Z</time>
      </trkpt>
      <trkpt lat="39.00669167" lon="1.38985833">
        <ele>123.0</ele>
        <time>2020-08-17T16:21:59.850Z</time>
      </trkpt>
      <trkpt lat="39.00670833" lon="1.39000167">
        <ele>124.0</ele>
        <time>2020-08-17T16:22:00.855Z</time>
      </trkpt>
      <trkpt lat="39.00670833" lon="1.39000167">
        <ele>124.0</ele>
        <time>2020-08-17T16:22:01.871Z</time>
      </trkpt>
      <trkpt lat="39.00673" lon="1.39014">
        <ele>125.0</ele>
        <time>2020-08-17T16:22:02.853Z</time>
      </trkpt>
      <trkpt lat="39.00673" lon="1.39014">
        <ele>125.0</ele>
        <time>2020-08-17T16:22:03.869Z</time>
      </trkpt>
      <trkpt lat="39.00676" lon="1.390275">
        <ele>125.0</ele>
        <time>2020-08-17T16:22:04.857Z</time>
      </trkpt>
      <trkpt lat="39.00676" lon="1.390275">
        <ele>125.0</ele>
        <time>2020-08-17T16:22:05.851Z</time>
      </trkpt>
      <trkpt lat="39.00681" lon="1.39040167">
        <ele>125.0</ele>
        <time>2020-08-17T16:22:06.854Z</time>
      </trkpt>
      <trkpt lat="39.00681" lon="1.39040167">
        <ele>125.0</ele>
        <time>2020-08-17T16:22:07.850Z</time>
      </trkpt>
      <trkpt lat="39.00686833" lon="1.39051667">
        <ele>126.0</ele>
        <time>2020-08-17T16:22:08.869Z</time>
      </trkpt>
      <trkpt lat="39.00686833" lon="1.39051667">
        <ele>126.0</ele>
        <time>2020-08-17T16:22:09.854Z</time>
      </trkpt>
      <trkpt lat="39.00692833" lon="1.39062667">
        <ele>127.0</ele>
        <time>2020-08-17T16:22:10.857Z</time>
      </trkpt>
      <trkpt lat="39.00696167" lon="1.39068167">
        <ele>127.0</ele>
        <time>2020-08-17T16:22:11.853Z</time>
      </trkpt>
      <trkpt lat="39.00699667" lon="1.39073667">
        <ele>127.0</ele>
        <time>2020-08-17T16:22:12.869Z</time>
      </trkpt>
      <trkpt lat="39.00699667" lon="1.39073667">
        <ele>127.0</ele>
        <time>2020-08-17T16:22:13.851Z</time>
      </trkpt>
      <trkpt lat="39.00707" lon="1.390855">
        <ele>128.0</ele>
        <time>2020-08-17T16:22:14.870Z</time>
      </trkpt>
      <trkpt lat="39.00707" lon="1.390855">
        <ele>128.0</ele>
        <time>2020-08-17T16:22:15.850Z</time>
      </trkpt>
      <trkpt lat="39.00714667" lon="1.39098333">
        <ele>128.0</ele>
        <time>2020-08-17T16:22:16.870Z</time>
      </trkpt>
      <trkpt lat="39.00714667" lon="1.39098333">
        <ele>128.0</ele>
        <time>2020-08-17T16:22:17.850Z</time>
      </trkpt>
      <trkpt lat="39.00723" lon="1.391115">
        <ele>128.0</ele>
        <time>2020-08-17T16:22:18.870Z</time>
      </trkpt>
      <trkpt lat="39.00723" lon="1.391115">
        <ele>128.0</ele>
        <time>2020-08-17T16:22:19.854Z</time>
      </trkpt>
      <trkpt lat="39.00731333" lon="1.39125333">
        <ele>128.0</ele>
        <time>2020-08-17T16:22:20.855Z</time>
      </trkpt>
      <trkpt lat="39.00735167" lon="1.39132167">
        <ele>128.0</ele>
        <time>2020-08-17T16:22:21.856Z</time>
      </trkpt>
      <trkpt lat="39.007395" lon="1.39139">
        <ele>129.0</ele>
        <time>2020-08-17T16:22:22.872Z</time>
      </trkpt>
      <trkpt lat="39.007395" lon="1.39139">
        <ele>129.0</ele>
        <time>2020-08-17T16:22:23.852Z</time>
      </trkpt>
      <trkpt lat="39.00748667" lon="1.39153667">
        <ele>129.0</ele>
        <time>2020-08-17T16:22:24.872Z</time>
      </trkpt>
      <trkpt lat="39.00748667" lon="1.39153667">
        <ele>129.0</ele>
        <time>2020-08-17T16:22:25.851Z</time>
      </trkpt>
      <trkpt lat="39.00758167" lon="1.39168833">
        <ele>129.0</ele>
        <time>2020-08-17T16:22:26.872Z</time>
      </trkpt>
      <trkpt lat="39.007625" lon="1.39175833">
        <ele>130.0</ele>
        <time>2020-08-17T16:22:27.853Z</time>
      </trkpt>
      <trkpt lat="39.00767667" lon="1.39183667">
        <ele>130.0</ele>
        <time>2020-08-17T16:22:28.872Z</time>
      </trkpt>
      <trkpt lat="39.00767667" lon="1.39183667">
        <ele>130.0</ele>
        <time>2020-08-17T16:22:29.853Z</time>
      </trkpt>
      <trkpt lat="39.00779167" lon="1.39201167">
        <ele>130.0</ele>
        <time>2020-08-17T16:22:30.856Z</time>
      </trkpt>
      <trkpt lat="39.00785167" lon="1.39210167">
        <ele>130.0</ele>
        <time>2020-08-17T16:22:31.856Z</time>
      </trkpt>
      <trkpt lat="39.00785167" lon="1.39210167">
        <ele>130.0</ele>
        <time>2020-08-17T16:22:32.870Z</time>
      </trkpt>
      <trkpt lat="39.00797667" lon="1.39228">
        <ele>130.0</ele>
        <time>2020-08-17T16:22:33.853Z</time>
      </trkpt>
      <trkpt lat="39.00803333" lon="1.39237">
        <ele>130.0</ele>
        <time>2020-08-17T16:22:34.868Z</time>
      </trkpt>
      <trkpt lat="39.00803333" lon="1.39237">
        <ele>130.0</ele>
        <time>2020-08-17T16:22:35.852Z</time>
      </trkpt>
      <trkpt lat="39.00814333" lon="1.39253667">
        <ele>130.0</ele>
        <time>2020-08-17T16:22:36.872Z</time>
      </trkpt>
      <trkpt lat="39.00814333" lon="1.39253667">
        <ele>130.0</ele>
        <time>2020-08-17T16:22:37.851Z</time>
      </trkpt>
      <trkpt lat="39.00824167" lon="1.39269333">
        <ele>130.0</ele>
        <time>2020-08-17T16:22:38.870Z</time>
      </trkpt>
      <trkpt lat="39.00824167" lon="1.39269333">
        <ele>130.0</ele>
        <time>2020-08-17T16:22:39.864Z</time>
      </trkpt>
      <trkpt lat="39.00833333" lon="1.39283">
        <ele>130.0</ele>
        <time>2020-08-17T16:22:40.858Z</time>
      </trkpt>
      <trkpt lat="39.00833333" lon="1.39283">
        <ele>130.0</ele>
        <time>2020-08-17T16:22:41.852Z</time>
      </trkpt>
      <trkpt lat="39.00842" lon="1.39295667">
        <ele>130.0</ele>
        <time>2020-08-17T16:22:42.872Z</time>
      </trkpt>
      <trkpt lat="39.00842" lon="1.39295667">
        <ele>130.0</ele>
        <time>2020-08-17T16:22:43.851Z</time>
      </trkpt>
      <trkpt lat="39.00849833" lon="1.39307167">
        <ele>130.0</ele>
        <time>2020-08-17T16:22:44.871Z</time>
      </trkpt>
      <trkpt lat="39.00849833" lon="1.39307167">
        <ele>130.0</ele>
        <time>2020-08-17T16:22:45.850Z</time>
      </trkpt>
      <trkpt lat="39.00857167" lon="1.39318">
        <ele>131.0</ele>
        <time>2020-08-17T16:22:46.857Z</time>
      </trkpt>
      <trkpt lat="39.00857167" lon="1.39318">
        <ele>131.0</ele>
        <time>2020-08-17T16:22:47.874Z</time>
      </trkpt>
      <trkpt lat="39.00864167" lon="1.39328667">
        <ele>131.0</ele>
        <time>2020-08-17T16:22:48.856Z</time>
      </trkpt>
      <trkpt lat="39.00864167" lon="1.39328667">
        <ele>131.0</ele>
        <time>2020-08-17T16:22:49.871Z</time>
      </trkpt>
      <trkpt lat="39.0087" lon="1.39339333">
        <ele>131.0</ele>
        <time>2020-08-17T16:22:50.856Z</time>
      </trkpt>
      <trkpt lat="39.00872833" lon="1.39344333">
        <ele>131.0</ele>
        <time>2020-08-17T16:22:51.872Z</time>
      </trkpt>
      <trkpt lat="39.00875667" lon="1.39349">
        <ele>131.0</ele>
        <time>2020-08-17T16:22:52.856Z</time>
      </trkpt>
      <trkpt lat="39.00875667" lon="1.39349">
        <ele>131.0</ele>
        <time>2020-08-17T16:22:53.872Z</time>
      </trkpt>
      <trkpt lat="39.00882333" lon="1.39359333">
        <ele>132.0</ele>
        <time>2020-08-17T16:22:54.854Z</time>
      </trkpt>
      <trkpt lat="39.00882333" lon="1.39359333">
        <ele>132.0</ele>
        <time>2020-08-17T16:22:55.869Z</time>
      </trkpt>
      <trkpt lat="39.00888333" lon="1.39369667">
        <ele>133.0</ele>
        <time>2020-08-17T16:22:56.856Z</time>
      </trkpt>
      <trkpt lat="39.00888333" lon="1.39369667">
        <ele>133.0</ele>
        <time>2020-08-17T16:22:57.850Z</time>
      </trkpt>
      <trkpt lat="39.00888333" lon="1.39369667">
        <ele>133.0</ele>
        <time>2020-08-17T16:22:58.873Z</time>
      </trkpt>
      <trkpt lat="39.00896" lon="1.39381333">
        <ele>133.0</ele>
        <time>2020-08-17T16:22:59.853Z</time>
      </trkpt>
      <trkpt lat="39.00902833" lon="1.39392167">
        <ele>134.0</ele>
        <time>2020-08-17T16:23:00.857Z</time>
      </trkpt>
      <trkpt lat="39.00902833" lon="1.39392167">
        <ele>134.0</ele>
        <time>2020-08-17T16:23:01.851Z</time>
      </trkpt>
      <trkpt lat="39.00909" lon="1.39401833">
        <ele>135.0</ele>
        <time>2020-08-17T16:23:02.871Z</time>
      </trkpt>
      <trkpt lat="39.00909" lon="1.39401833">
        <ele>135.0</ele>
        <time>2020-08-17T16:23:03.851Z</time>
      </trkpt>
      <trkpt lat="39.00915167" lon="1.39411333">
        <ele>137.0</ele>
        <time>2020-08-17T16:23:04.857Z</time>
      </trkpt>
      <trkpt lat="39.00919" lon="1.39416667">
        <ele>137.0</ele>
        <time>2020-08-17T16:23:05.867Z</time>
      </trkpt>
      <trkpt lat="39.00919" lon="1.39416667">
        <ele>137.0</ele>
        <time>2020-08-17T16:23:06.851Z</time>
      </trkpt>
      <trkpt lat="39.00926833" lon="1.39427">
        <ele>138.0</ele>
        <time>2020-08-17T16:23:07.870Z</time>
      </trkpt>
      <trkpt lat="39.00926833" lon="1.39427">
        <ele>138.0</ele>
        <time>2020-08-17T16:23:08.850Z</time>
      </trkpt>
      <trkpt lat="39.00934" lon="1.39436833">
        <ele>139.0</ele>
        <time>2020-08-17T16:23:09.871Z</time>
      </trkpt>
      <trkpt lat="39.00937" lon="1.39442">
        <ele>139.0</ele>
        <time>2020-08-17T16:23:10.858Z</time>
      </trkpt>
      <trkpt lat="39.00937" lon="1.39442">
        <ele>139.0</ele>
        <time>2020-08-17T16:23:11.850Z</time>
      </trkpt>
      <trkpt lat="39.00943167" lon="1.39450333">
        <ele>140.0</ele>
        <time>2020-08-17T16:23:12.870Z</time>
      </trkpt>
      <trkpt lat="39.00943167" lon="1.39450333">
        <ele>140.0</ele>
        <time>2020-08-17T16:23:13.851Z</time>
      </trkpt>
      <trkpt lat="39.00950333" lon="1.39451333">
        <ele>141.0</ele>
        <time>2020-08-17T16:23:14.870Z</time>
      </trkpt>
      <trkpt lat="39.00950333" lon="1.39451333">
        <ele>141.0</ele>
        <time>2020-08-17T16:23:15.851Z</time>
      </trkpt>
      <trkpt lat="39.00957333" lon="1.394455">
        <ele>141.0</ele>
        <time>2020-08-17T16:23:16.872Z</time>
      </trkpt>
      <trkpt lat="39.00957333" lon="1.394455">
        <ele>141.0</ele>
        <time>2020-08-17T16:23:17.850Z</time>
      </trkpt>
      <trkpt lat="39.00964667" lon="1.39437667">
        <ele>141.0</ele>
        <time>2020-08-17T16:23:18.869Z</time>
      </trkpt>
      <trkpt lat="39.00964667" lon="1.39437667">
        <ele>141.0</ele>
        <time>2020-08-17T16:23:19.851Z</time>
      </trkpt>
      <trkpt lat="39.00972667" lon="1.39429">
        <ele>141.0</ele>
        <time>2020-08-17T16:23:20.853Z</time>
      </trkpt>
      <trkpt lat="39.00972667" lon="1.39429">
        <ele>141.0</ele>
        <time>2020-08-17T16:23:21.870Z</time>
      </trkpt>
      <trkpt lat="39.009815" lon="1.39418833">
        <ele>140.0</ele>
        <time>2020-08-17T16:23:22.856Z</time>
      </trkpt>
      <trkpt lat="39.009815" lon="1.39418833">
        <ele>140.0</ele>
        <time>2020-08-17T16:23:23.874Z</time>
      </trkpt>
      <trkpt lat="39.00990667" lon="1.39408">
        <ele>140.0</ele>
        <time>2020-08-17T16:23:24.856Z</time>
      </trkpt>
      <trkpt lat="39.00990667" lon="1.39408">
        <ele>140.0</ele>
        <time>2020-08-17T16:23:25.851Z</time>
      </trkpt>
      <trkpt lat="39.01" lon="1.39396">
        <ele>139.0</ele>
        <time>2020-08-17T16:23:26.858Z</time>
      </trkpt>
      <trkpt lat="39.01" lon="1.39396">
        <ele>139.0</ele>
        <time>2020-08-17T16:23:27.851Z</time>
      </trkpt>
      <trkpt lat="39.01009833" lon="1.39383667">
        <ele>139.0</ele>
        <time>2020-08-17T16:23:28.872Z</time>
      </trkpt>
      <trkpt lat="39.01009833" lon="1.39383667">
        <ele>139.0</ele>
        <time>2020-08-17T16:23:29.853Z</time>
      </trkpt>
      <trkpt lat="39.01019" lon="1.39370333">
        <ele>138.0</ele>
        <time>2020-08-17T16:23:30.877Z</time>
      </trkpt>
      <trkpt lat="39.01023167" lon="1.39363333">
        <ele>138.0</ele>
        <time>2020-08-17T16:23:31.853Z</time>
      </trkpt>
      <trkpt lat="39.01023167" lon="1.39363333">
        <ele>138.0</ele>
        <time>2020-08-17T16:23:32.869Z</time>
      </trkpt>
      <trkpt lat="39.01031833" lon="1.3935">
        <ele>138.0</ele>
        <time>2020-08-17T16:23:33.853Z</time>
      </trkpt>
      <trkpt lat="39.01036" lon="1.39343333">
        <ele>138.0</ele>
        <time>2020-08-17T16:23:34.869Z</time>
      </trkpt>
      <trkpt lat="39.01036" lon="1.39343333">
        <ele>138.0</ele>
        <time>2020-08-17T16:23:35.851Z</time>
      </trkpt>
      <trkpt lat="39.01044167" lon="1.39330167">
        <ele>138.0</ele>
        <time>2020-08-17T16:23:36.870Z</time>
      </trkpt>
      <trkpt lat="39.01048" lon="1.39323667">
        <ele>138.0</ele>
        <time>2020-08-17T16:23:37.856Z</time>
      </trkpt>
      <trkpt lat="39.01048" lon="1.39323667">
        <ele>138.0</ele>
        <time>2020-08-17T16:23:38.871Z</time>
      </trkpt>
      <trkpt lat="39.01055333" lon="1.393105">
        <ele>138.0</ele>
        <time>2020-08-17T16:23:39.853Z</time>
      </trkpt>
      <trkpt lat="39.01055333" lon="1.393105">
        <ele>138.0</ele>
        <time>2020-08-17T16:23:40.873Z</time>
      </trkpt>
      <trkpt lat="39.01063" lon="1.39298">
        <ele>138.0</ele>
        <time>2020-08-17T16:23:41.856Z</time>
      </trkpt>
      <trkpt lat="39.01066667" lon="1.39291667">
        <ele>138.0</ele>
        <time>2020-08-17T16:23:42.871Z</time>
      </trkpt>
      <trkpt lat="39.01066667" lon="1.39291667">
        <ele>138.0</ele>
        <time>2020-08-17T16:23:43.850Z</time>
      </trkpt>
      <trkpt lat="39.01074" lon="1.39279167">
        <ele>138.0</ele>
        <time>2020-08-17T16:23:44.869Z</time>
      </trkpt>
      <trkpt lat="39.01074" lon="1.39279167">
        <ele>138.0</ele>
        <time>2020-08-17T16:23:45.850Z</time>
      </trkpt>
      <trkpt lat="39.01081333" lon="1.39266833">
        <ele>138.0</ele>
        <time>2020-08-17T16:23:46.869Z</time>
      </trkpt>
      <trkpt lat="39.01081333" lon="1.39266833">
        <ele>138.0</ele>
        <time>2020-08-17T16:23:47.850Z</time>
      </trkpt>
      <trkpt lat="39.01088833" lon="1.39254167">
        <ele>138.0</ele>
        <time>2020-08-17T16:23:48.869Z</time>
      </trkpt>
      <trkpt lat="39.01088833" lon="1.39254167">
        <ele>138.0</ele>
        <time>2020-08-17T16:23:49.850Z</time>
      </trkpt>
      <trkpt lat="39.010965" lon="1.392415">
        <ele>138.0</ele>
        <time>2020-08-17T16:23:50.856Z</time>
      </trkpt>
      <trkpt lat="39.010965" lon="1.392415">
        <ele>138.0</ele>
        <time>2020-08-17T16:23:51.870Z</time>
      </trkpt>
      <trkpt lat="39.01104167" lon="1.39228667">
        <ele>139.0</ele>
        <time>2020-08-17T16:23:52.855Z</time>
      </trkpt>
      <trkpt lat="39.01104167" lon="1.39228667">
        <ele>139.0</ele>
        <time>2020-08-17T16:23:53.874Z</time>
      </trkpt>
      <trkpt lat="39.01112333" lon="1.392165">
        <ele>139.0</ele>
        <time>2020-08-17T16:23:54.856Z</time>
      </trkpt>
      <trkpt lat="39.01112333" lon="1.392165">
        <ele>139.0</ele>
        <time>2020-08-17T16:23:55.852Z</time>
      </trkpt>
      <trkpt lat="39.01121833" lon="1.39205667">
        <ele>139.0</ele>
        <time>2020-08-17T16:23:56.872Z</time>
      </trkpt>
      <trkpt lat="39.01121833" lon="1.39205667">
        <ele>139.0</ele>
        <time>2020-08-17T16:23:57.854Z</time>
      </trkpt>
      <trkpt lat="39.01132167" lon="1.391965">
        <ele>138.0</ele>
        <time>2020-08-17T16:23:58.859Z</time>
      </trkpt>
      <trkpt lat="39.01132167" lon="1.391965">
        <ele>138.0</ele>
        <time>2020-08-17T16:23:59.851Z</time>
      </trkpt>
      <trkpt lat="39.01142833" lon="1.39188167">
        <ele>139.0</ele>
        <time>2020-08-17T16:24:00.856Z</time>
      </trkpt>
      <trkpt lat="39.01142833" lon="1.39188167">
        <ele>139.0</ele>
        <time>2020-08-17T16:24:01.871Z</time>
      </trkpt>
      <trkpt lat="39.01153667" lon="1.3918">
        <ele>139.0</ele>
        <time>2020-08-17T16:24:02.856Z</time>
      </trkpt>
      <trkpt lat="39.01159167" lon="1.39176">
        <ele>138.0</ele>
        <time>2020-08-17T16:24:03.872Z</time>
      </trkpt>
      <trkpt lat="39.01164667" lon="1.39171833">
        <ele>138.0</ele>
        <time>2020-08-17T16:24:04.859Z</time>
      </trkpt>
      <trkpt lat="39.01164667" lon="1.39171833">
        <ele>138.0</ele>
        <time>2020-08-17T16:24:05.851Z</time>
      </trkpt>
      <trkpt lat="39.01175667" lon="1.39163667">
        <ele>138.0</ele>
        <time>2020-08-17T16:24:06.871Z</time>
      </trkpt>
      <trkpt lat="39.01175667" lon="1.39163667">
        <ele>138.0</ele>
        <time>2020-08-17T16:24:07.851Z</time>
      </trkpt>
      <trkpt lat="39.01186833" lon="1.39155167">
        <ele>138.0</ele>
        <time>2020-08-17T16:24:08.871Z</time>
      </trkpt>
      <trkpt lat="39.01186833" lon="1.39155167">
        <ele>138.0</ele>
        <time>2020-08-17T16:24:09.851Z</time>
      </trkpt>
      <trkpt lat="39.01198" lon="1.39146833">
        <ele>138.0</ele>
        <time>2020-08-17T16:24:10.856Z</time>
      </trkpt>
      <trkpt lat="39.01198" lon="1.39146833">
        <ele>138.0</ele>
        <time>2020-08-17T16:24:11.874Z</time>
      </trkpt>
      <trkpt lat="39.01209333" lon="1.39138667">
        <ele>138.0</ele>
        <time>2020-08-17T16:24:12.856Z</time>
      </trkpt>
      <trkpt lat="39.01209333" lon="1.39138667">
        <ele>138.0</ele>
        <time>2020-08-17T16:24:13.871Z</time>
      </trkpt>
      <trkpt lat="39.01220833" lon="1.39130333">
        <ele>138.0</ele>
        <time>2020-08-17T16:24:14.881Z</time>
      </trkpt>
      <trkpt lat="39.01220833" lon="1.39130333">
        <ele>138.0</ele>
        <time>2020-08-17T16:24:15.863Z</time>
      </trkpt>
      <trkpt lat="39.01232167" lon="1.39122167">
        <ele>138.0</ele>
        <time>2020-08-17T16:24:16.856Z</time>
      </trkpt>
      <trkpt lat="39.01232167" lon="1.39122167">
        <ele>138.0</ele>
        <time>2020-08-17T16:24:17.872Z</time>
      </trkpt>
      <trkpt lat="39.01243167" lon="1.39113833">
        <ele>138.0</ele>
        <time>2020-08-17T16:24:18.856Z</time>
      </trkpt>
      <trkpt lat="39.01243167" lon="1.39113833">
        <ele>138.0</ele>
        <time>2020-08-17T16:24:19.853Z</time>
      </trkpt>
      <trkpt lat="39.01254" lon="1.39105833">
        <ele>138.0</ele>
        <time>2020-08-17T16:24:20.874Z</time>
      </trkpt>
      <trkpt lat="39.01259333" lon="1.39101667">
        <ele>138.0</ele>
        <time>2020-08-17T16:24:21.856Z</time>
      </trkpt>
      <trkpt lat="39.012645" lon="1.39097667">
        <ele>138.0</ele>
        <time>2020-08-17T16:24:22.870Z</time>
      </trkpt>
      <trkpt lat="39.012645" lon="1.39097667">
        <ele>138.0</ele>
        <time>2020-08-17T16:24:23.851Z</time>
      </trkpt>
      <trkpt lat="39.01274667" lon="1.39089667">
        <ele>138.0</ele>
        <time>2020-08-17T16:24:24.856Z</time>
      </trkpt>
      <trkpt lat="39.01274667" lon="1.39089667">
        <ele>138.0</ele>
        <time>2020-08-17T16:24:25.851Z</time>
      </trkpt>
      <trkpt lat="39.01284667" lon="1.39082">
        <ele>139.0</ele>
        <time>2020-08-17T16:24:26.871Z</time>
      </trkpt>
      <trkpt lat="39.01284667" lon="1.39082">
        <ele>139.0</ele>
        <time>2020-08-17T16:24:27.851Z</time>
      </trkpt>
      <trkpt lat="39.01294167" lon="1.39075333">
        <ele>140.0</ele>
        <time>2020-08-17T16:24:28.872Z</time>
      </trkpt>
      <trkpt lat="39.01294167" lon="1.39075333">
        <ele>140.0</ele>
        <time>2020-08-17T16:24:29.851Z</time>
      </trkpt>
      <trkpt lat="39.01303667" lon="1.39068667">
        <ele>140.0</ele>
        <time>2020-08-17T16:24:30.871Z</time>
      </trkpt>
      <trkpt lat="39.01303667" lon="1.39068667">
        <ele>140.0</ele>
        <time>2020-08-17T16:24:31.851Z</time>
      </trkpt>
      <trkpt lat="39.01313167" lon="1.39062333">
        <ele>141.0</ele>
        <time>2020-08-17T16:24:32.872Z</time>
      </trkpt>
      <trkpt lat="39.01313167" lon="1.39062333">
        <ele>141.0</ele>
        <time>2020-08-17T16:24:33.851Z</time>
      </trkpt>
      <trkpt lat="39.013225" lon="1.39056333">
        <ele>141.0</ele>
        <time>2020-08-17T16:24:34.854Z</time>
      </trkpt>
      <trkpt lat="39.013225" lon="1.39056333">
        <ele>141.0</ele>
        <time>2020-08-17T16:24:35.874Z</time>
      </trkpt>
      <trkpt lat="39.01332167" lon="1.39050667">
        <ele>142.0</ele>
        <time>2020-08-17T16:24:36.857Z</time>
      </trkpt>
      <trkpt lat="39.01332167" lon="1.39050667">
        <ele>142.0</ele>
        <time>2020-08-17T16:24:37.872Z</time>
      </trkpt>
      <trkpt lat="39.01341833" lon="1.39045833">
        <ele>142.0</ele>
        <time>2020-08-17T16:24:38.853Z</time>
      </trkpt>
      <trkpt lat="39.013465" lon="1.39043333">
        <ele>142.0</ele>
        <time>2020-08-17T16:24:39.868Z</time>
      </trkpt>
      <trkpt lat="39.013515" lon="1.39041">
        <ele>143.0</ele>
        <time>2020-08-17T16:24:40.857Z</time>
      </trkpt>
      <trkpt lat="39.013515" lon="1.39041">
        <ele>143.0</ele>
        <time>2020-08-17T16:24:41.852Z</time>
      </trkpt>
      <trkpt lat="39.01361167" lon="1.39035333">
        <ele>143.0</ele>
        <time>2020-08-17T16:24:42.871Z</time>
      </trkpt>
      <trkpt lat="39.01361167" lon="1.39035333">
        <ele>143.0</ele>
        <time>2020-08-17T16:24:43.851Z</time>
      </trkpt>
      <trkpt lat="39.01370833" lon="1.39028833">
        <ele>144.0</ele>
        <time>2020-08-17T16:24:44.870Z</time>
      </trkpt>
      <trkpt lat="39.01370833" lon="1.39028833">
        <ele>144.0</ele>
        <time>2020-08-17T16:24:45.851Z</time>
      </trkpt>
      <trkpt lat="39.0138" lon="1.39023167">
        <ele>144.0</ele>
        <time>2020-08-17T16:24:46.873Z</time>
      </trkpt>
      <trkpt lat="39.0138" lon="1.39023167">
        <ele>144.0</ele>
        <time>2020-08-17T16:24:47.851Z</time>
      </trkpt>
      <trkpt lat="39.01389167" lon="1.39018167">
        <ele>144.0</ele>
        <time>2020-08-17T16:24:48.870Z</time>
      </trkpt>
      <trkpt lat="39.01389167" lon="1.39018167">
        <ele>144.0</ele>
        <time>2020-08-17T16:24:49.850Z</time>
      </trkpt>
      <trkpt lat="39.01399333" lon="1.39012333">
        <ele>145.0</ele>
        <time>2020-08-17T16:24:50.871Z</time>
      </trkpt>
      <trkpt lat="39.01399333" lon="1.39012333">
        <ele>145.0</ele>
        <time>2020-08-17T16:24:51.855Z</time>
      </trkpt>
      <trkpt lat="39.014095" lon="1.39006167">
        <ele>145.0</ele>
        <time>2020-08-17T16:24:52.857Z</time>
      </trkpt>
      <trkpt lat="39.014095" lon="1.39006167">
        <ele>145.0</ele>
        <time>2020-08-17T16:24:53.874Z</time>
      </trkpt>
      <trkpt lat="39.01419" lon="1.39">
        <ele>145.0</ele>
        <time>2020-08-17T16:24:54.858Z</time>
      </trkpt>
      <trkpt lat="39.01419" lon="1.39">
        <ele>145.0</ele>
        <time>2020-08-17T16:24:55.872Z</time>
      </trkpt>
      <trkpt lat="39.01427333" lon="1.38994167">
        <ele>146.0</ele>
        <time>2020-08-17T16:24:56.856Z</time>
      </trkpt>
      <trkpt lat="39.01427333" lon="1.38994167">
        <ele>146.0</ele>
        <time>2020-08-17T16:24:57.884Z</time>
      </trkpt>
      <trkpt lat="39.01435667" lon="1.38988333">
        <ele>146.0</ele>
        <time>2020-08-17T16:24:58.859Z</time>
      </trkpt>
      <trkpt lat="39.01439833" lon="1.38985833">
        <ele>147.0</ele>
        <time>2020-08-17T16:24:59.857Z</time>
      </trkpt>
      <trkpt lat="39.01444" lon="1.389835">
        <ele>147.0</ele>
        <time>2020-08-17T16:25:00.860Z</time>
      </trkpt>
      <trkpt lat="39.01444" lon="1.389835">
        <ele>147.0</ele>
        <time>2020-08-17T16:25:01.855Z</time>
      </trkpt>
      <trkpt lat="39.014525" lon="1.38979167">
        <ele>147.0</ele>
        <time>2020-08-17T16:25:02.856Z</time>
      </trkpt>
      <trkpt lat="39.014565" lon="1.38977167">
        <ele>148.0</ele>
        <time>2020-08-17T16:25:03.872Z</time>
      </trkpt>
      <trkpt lat="39.01460667" lon="1.38975167">
        <ele>148.0</ele>
        <time>2020-08-17T16:25:04.857Z</time>
      </trkpt>
      <trkpt lat="39.01460667" lon="1.38975167">
        <ele>148.0</ele>
        <time>2020-08-17T16:25:05.852Z</time>
      </trkpt>
      <trkpt lat="39.01469" lon="1.389715">
        <ele>148.0</ele>
        <time>2020-08-17T16:25:06.871Z</time>
      </trkpt>
      <trkpt lat="39.01469" lon="1.389715">
        <ele>148.0</ele>
        <time>2020-08-17T16:25:07.851Z</time>
      </trkpt>
      <trkpt lat="39.01477" lon="1.38968833">
        <ele>149.0</ele>
        <time>2020-08-17T16:25:08.870Z</time>
      </trkpt>
      <trkpt lat="39.01477" lon="1.38968833">
        <ele>149.0</ele>
        <time>2020-08-17T16:25:09.851Z</time>
      </trkpt>
      <trkpt lat="39.014855" lon="1.38965333">
        <ele>150.0</ele>
        <time>2020-08-17T16:25:10.856Z</time>
      </trkpt>
      <trkpt lat="39.014855" lon="1.38965333">
        <ele>150.0</ele>
        <time>2020-08-17T16:25:11.852Z</time>
      </trkpt>
      <trkpt lat="39.01494333" lon="1.38961333">
        <ele>150.0</ele>
        <time>2020-08-17T16:25:12.872Z</time>
      </trkpt>
      <trkpt lat="39.01494333" lon="1.38961333">
        <ele>150.0</ele>
        <time>2020-08-17T16:25:13.851Z</time>
      </trkpt>
      <trkpt lat="39.01502833" lon="1.38956833">
        <ele>152.0</ele>
        <time>2020-08-17T16:25:14.872Z</time>
      </trkpt>
      <trkpt lat="39.01502833" lon="1.38956833">
        <ele>152.0</ele>
        <time>2020-08-17T16:25:15.851Z</time>
      </trkpt>
      <trkpt lat="39.01511" lon="1.38952833">
        <ele>153.0</ele>
        <time>2020-08-17T16:25:16.871Z</time>
      </trkpt>
      <trkpt lat="39.01511" lon="1.38952833">
        <ele>153.0</ele>
        <time>2020-08-17T16:25:17.851Z</time>
      </trkpt>
      <trkpt lat="39.01519167" lon="1.38949167">
        <ele>153.0</ele>
        <time>2020-08-17T16:25:18.870Z</time>
      </trkpt>
      <trkpt lat="39.01519167" lon="1.38949167">
        <ele>153.0</ele>
        <time>2020-08-17T16:25:19.852Z</time>
      </trkpt>
      <trkpt lat="39.015265" lon="1.389455">
        <ele>155.0</ele>
        <time>2020-08-17T16:25:20.874Z</time>
      </trkpt>
      <trkpt lat="39.015265" lon="1.389455">
        <ele>155.0</ele>
        <time>2020-08-17T16:25:21.855Z</time>
      </trkpt>
      <trkpt lat="39.01532167" lon="1.38942667">
        <ele>156.0</ele>
        <time>2020-08-17T16:25:22.857Z</time>
      </trkpt>
      <trkpt lat="39.01532167" lon="1.38942667">
        <ele>156.0</ele>
        <time>2020-08-17T16:25:23.873Z</time>
      </trkpt>
      <trkpt lat="39.015365" lon="1.38940333">
        <ele>156.0</ele>
        <time>2020-08-17T16:25:24.857Z</time>
      </trkpt>
      <trkpt lat="39.015365" lon="1.38940333">
        <ele>156.0</ele>
        <time>2020-08-17T16:25:25.884Z</time>
      </trkpt>
      <trkpt lat="39.015375" lon="1.389395">
        <ele>158.0</ele>
        <time>2020-08-17T16:25:26.865Z</time>
      </trkpt>
      <trkpt lat="39.015375" lon="1.389395">
        <ele>158.0</ele>
        <time>2020-08-17T16:25:27.852Z</time>
      </trkpt>
      <trkpt lat="39.01538333" lon="1.38939167">
        <ele>158.0</ele>
        <time>2020-08-17T16:25:28.858Z</time>
      </trkpt>
      <trkpt lat="39.01538333" lon="1.38939167">
        <ele>158.0</ele>
        <time>2020-08-17T16:25:29.851Z</time>
      </trkpt>
      <trkpt lat="39.01543667" lon="1.38932667">
        <ele>160.0</ele>
        <time>2020-08-17T16:25:36.856Z</time>
      </trkpt>
      <trkpt lat="39.01543667" lon="1.38932667">
        <ele>160.0</ele>
        <time>2020-08-17T16:25:37.871Z</time>
      </trkpt>
      <trkpt lat="39.01543833" lon="1.38930333">
        <ele>160.0</ele>
        <time>2020-08-17T16:25:38.855Z</time>
      </trkpt>
      <trkpt lat="39.01543833" lon="1.38930333">
        <ele>160.0</ele>
        <time>2020-08-17T16:39:23.678Z</time>
      </trkpt>
      <trkpt lat="39.01546667" lon="1.38929">
        <ele>155.0</ele>
        <time>2020-08-17T16:39:24.704Z</time>
      </trkpt>
      <trkpt lat="39.01547667" lon="1.38929167">
        <ele>154.0</ele>
        <time>2020-08-17T16:39:25.699Z</time>
      </trkpt>
      <trkpt lat="39.01547667" lon="1.38929167">
        <ele>154.0</ele>
        <time>2020-08-17T16:39:26.695Z</time>
      </trkpt>
      <trkpt lat="39.01549667" lon="1.38929167">
        <ele>155.0</ele>
        <time>2020-08-17T16:39:27.684Z</time>
      </trkpt>
      <trkpt lat="39.01549667" lon="1.38929167">
        <ele>155.0</ele>
        <time>2020-08-17T16:39:28.667Z</time>
      </trkpt>
      <trkpt lat="39.015525" lon="1.38928667">
        <ele>155.0</ele>
        <time>2020-08-17T16:39:29.701Z</time>
      </trkpt>
      <trkpt lat="39.01554" lon="1.389285">
        <ele>155.0</ele>
        <time>2020-08-17T16:39:30.703Z</time>
      </trkpt>
      <trkpt lat="39.01554" lon="1.389285">
        <ele>155.0</ele>
        <time>2020-08-17T16:39:31.687Z</time>
      </trkpt>
      <trkpt lat="39.015575" lon="1.38927667">
        <ele>155.0</ele>
        <time>2020-08-17T16:39:32.666Z</time>
      </trkpt>
      <trkpt lat="39.015575" lon="1.38927667">
        <ele>155.0</ele>
        <time>2020-08-17T16:39:33.698Z</time>
      </trkpt>
      <trkpt lat="39.01563" lon="1.389255">
        <ele>155.0</ele>
        <time>2020-08-17T16:39:34.684Z</time>
      </trkpt>
      <trkpt lat="39.015665" lon="1.38924">
        <ele>155.0</ele>
        <time>2020-08-17T16:39:35.704Z</time>
      </trkpt>
      <trkpt lat="39.015665" lon="1.38924">
        <ele>155.0</ele>
        <time>2020-08-17T16:39:36.694Z</time>
      </trkpt>
      <trkpt lat="39.01574833" lon="1.38920833">
        <ele>156.0</ele>
        <time>2020-08-17T16:39:37.675Z</time>
      </trkpt>
      <trkpt lat="39.01574833" lon="1.38920833">
        <ele>156.0</ele>
        <time>2020-08-17T16:39:38.700Z</time>
      </trkpt>
      <trkpt lat="39.015845" lon="1.38916833">
        <ele>156.0</ele>
        <time>2020-08-17T16:39:39.675Z</time>
      </trkpt>
      <trkpt lat="39.015845" lon="1.38916833">
        <ele>156.0</ele>
        <time>2020-08-17T16:39:40.701Z</time>
      </trkpt>
      <trkpt lat="39.015945" lon="1.38912833">
        <ele>156.0</ele>
        <time>2020-08-17T16:39:41.692Z</time>
      </trkpt>
      <trkpt lat="39.01599333" lon="1.389105">
        <ele>156.0</ele>
        <time>2020-08-17T16:39:42.672Z</time>
      </trkpt>
      <trkpt lat="39.01599333" lon="1.389105">
        <ele>156.0</ele>
        <time>2020-08-17T16:39:43.668Z</time>
      </trkpt>
      <trkpt lat="39.01609333" lon="1.38906667">
        <ele>156.0</ele>
        <time>2020-08-17T16:39:44.702Z</time>
      </trkpt>
      <trkpt lat="39.01609333" lon="1.38906667">
        <ele>156.0</ele>
        <time>2020-08-17T16:39:45.694Z</time>
      </trkpt>
      <trkpt lat="39.01619667" lon="1.38903167">
        <ele>156.0</ele>
        <time>2020-08-17T16:39:46.676Z</time>
      </trkpt>
      <trkpt lat="39.01624667" lon="1.38900833">
        <ele>156.0</ele>
        <time>2020-08-17T16:39:47.703Z</time>
      </trkpt>
      <trkpt lat="39.016295" lon="1.38898">
        <ele>156.0</ele>
        <time>2020-08-17T16:39:48.703Z</time>
      </trkpt>
      <trkpt lat="39.016295" lon="1.38898">
        <ele>156.0</ele>
        <time>2020-08-17T16:39:49.669Z</time>
      </trkpt>
      <trkpt lat="39.01639167" lon="1.38893667">
        <ele>156.0</ele>
        <time>2020-08-17T16:39:50.700Z</time>
      </trkpt>
      <trkpt lat="39.01639167" lon="1.38893667">
        <ele>156.0</ele>
        <time>2020-08-17T16:39:51.692Z</time>
      </trkpt>
      <trkpt lat="39.0165" lon="1.388905">
        <ele>156.0</ele>
        <time>2020-08-17T16:39:52.671Z</time>
      </trkpt>
      <trkpt lat="39.0165" lon="1.388905">
        <ele>156.0</ele>
        <time>2020-08-17T16:39:53.700Z</time>
      </trkpt>
      <trkpt lat="39.01661167" lon="1.388865">
        <ele>156.0</ele>
        <time>2020-08-17T16:39:54.702Z</time>
      </trkpt>
      <trkpt lat="39.01661167" lon="1.388865">
        <ele>156.0</ele>
        <time>2020-08-17T16:39:55.686Z</time>
      </trkpt>
      <trkpt lat="39.01672667" lon="1.388825">
        <ele>156.0</ele>
        <time>2020-08-17T16:39:56.670Z</time>
      </trkpt>
      <trkpt lat="39.01672667" lon="1.388825">
        <ele>156.0</ele>
        <time>2020-08-17T16:39:57.699Z</time>
      </trkpt>
      <trkpt lat="39.01684167" lon="1.38879">
        <ele>156.0</ele>
        <time>2020-08-17T16:39:58.702Z</time>
      </trkpt>
      <trkpt lat="39.01684167" lon="1.38879">
        <ele>156.0</ele>
        <time>2020-08-17T16:39:59.701Z</time>
      </trkpt>
      <trkpt lat="39.01695167" lon="1.388745">
        <ele>156.0</ele>
        <time>2020-08-17T16:40:00.670Z</time>
      </trkpt>
      <trkpt lat="39.01700667" lon="1.38872333">
        <ele>156.0</ele>
        <time>2020-08-17T16:40:01.699Z</time>
      </trkpt>
      <trkpt lat="39.01700667" lon="1.38872333">
        <ele>156.0</ele>
        <time>2020-08-17T16:40:02.687Z</time>
      </trkpt>
      <trkpt lat="39.01711833" lon="1.38868">
        <ele>156.0</ele>
        <time>2020-08-17T16:40:03.674Z</time>
      </trkpt>
      <trkpt lat="39.01711833" lon="1.38868">
        <ele>156.0</ele>
        <time>2020-08-17T16:40:04.694Z</time>
      </trkpt>
      <trkpt lat="39.01722667" lon="1.38863833">
        <ele>156.0</ele>
        <time>2020-08-17T16:40:05.673Z</time>
      </trkpt>
      <trkpt lat="39.01722667" lon="1.38863833">
        <ele>156.0</ele>
        <time>2020-08-17T16:40:06.699Z</time>
      </trkpt>
      <trkpt lat="39.01733667" lon="1.388595">
        <ele>157.0</ele>
        <time>2020-08-17T16:40:07.699Z</time>
      </trkpt>
      <trkpt lat="39.01739167" lon="1.38857167">
        <ele>157.0</ele>
        <time>2020-08-17T16:40:08.680Z</time>
      </trkpt>
      <trkpt lat="39.01739167" lon="1.38857167">
        <ele>157.0</ele>
        <time>2020-08-17T16:40:09.704Z</time>
      </trkpt>
      <trkpt lat="39.01750333" lon="1.38853">
        <ele>157.0</ele>
        <time>2020-08-17T16:40:10.700Z</time>
      </trkpt>
      <trkpt lat="39.01756" lon="1.38850667">
        <ele>157.0</ele>
        <time>2020-08-17T16:40:11.685Z</time>
      </trkpt>
      <trkpt lat="39.01756" lon="1.38850667">
        <ele>157.0</ele>
        <time>2020-08-17T16:40:12.704Z</time>
      </trkpt>
      <trkpt lat="39.017675" lon="1.38846167">
        <ele>157.0</ele>
        <time>2020-08-17T16:40:13.699Z</time>
      </trkpt>
      <trkpt lat="39.017675" lon="1.38846167">
        <ele>157.0</ele>
        <time>2020-08-17T16:40:14.672Z</time>
      </trkpt>
      <trkpt lat="39.01778833" lon="1.38841667">
        <ele>157.0</ele>
        <time>2020-08-17T16:40:15.678Z</time>
      </trkpt>
      <trkpt lat="39.01778833" lon="1.38841667">
        <ele>157.0</ele>
        <time>2020-08-17T16:40:16.700Z</time>
      </trkpt>
      <trkpt lat="39.017895" lon="1.38837167">
        <ele>157.0</ele>
        <time>2020-08-17T16:40:17.679Z</time>
      </trkpt>
      <trkpt lat="39.017895" lon="1.38837167">
        <ele>157.0</ele>
        <time>2020-08-17T16:40:18.700Z</time>
      </trkpt>
      <trkpt lat="39.01799333" lon="1.38832333">
        <ele>158.0</ele>
        <time>2020-08-17T16:40:19.669Z</time>
      </trkpt>
      <trkpt lat="39.01799333" lon="1.38832333">
        <ele>158.0</ele>
        <time>2020-08-17T16:40:20.695Z</time>
      </trkpt>
      <trkpt lat="39.01809" lon="1.38827">
        <ele>159.0</ele>
        <time>2020-08-17T16:40:21.674Z</time>
      </trkpt>
      <trkpt lat="39.01809" lon="1.38827">
        <ele>159.0</ele>
        <time>2020-08-17T16:40:22.699Z</time>
      </trkpt>
      <trkpt lat="39.01817833" lon="1.38820833">
        <ele>159.0</ele>
        <time>2020-08-17T16:40:23.679Z</time>
      </trkpt>
      <trkpt lat="39.01822167" lon="1.388175">
        <ele>159.0</ele>
        <time>2020-08-17T16:40:24.700Z</time>
      </trkpt>
      <trkpt lat="39.01822167" lon="1.388175">
        <ele>159.0</ele>
        <time>2020-08-17T16:40:25.689Z</time>
      </trkpt>
      <trkpt lat="39.01830833" lon="1.38810167">
        <ele>160.0</ele>
        <time>2020-08-17T16:40:26.669Z</time>
      </trkpt>
      <trkpt lat="39.01835" lon="1.38806333">
        <ele>160.0</ele>
        <time>2020-08-17T16:40:27.702Z</time>
      </trkpt>
      <trkpt lat="39.01835" lon="1.38806333">
        <ele>160.0</ele>
        <time>2020-08-17T16:40:28.699Z</time>
      </trkpt>
      <trkpt lat="39.018435" lon="1.38798333">
        <ele>160.0</ele>
        <time>2020-08-17T16:40:29.665Z</time>
      </trkpt>
      <trkpt lat="39.018435" lon="1.38798333">
        <ele>160.0</ele>
        <time>2020-08-17T16:40:30.665Z</time>
      </trkpt>
      <trkpt lat="39.01851833" lon="1.38789833">
        <ele>160.0</ele>
        <time>2020-08-17T16:40:31.675Z</time>
      </trkpt>
      <trkpt lat="39.01856" lon="1.38785833">
        <ele>159.0</ele>
        <time>2020-08-17T16:40:32.702Z</time>
      </trkpt>
      <trkpt lat="39.01856" lon="1.38785833">
        <ele>159.0</ele>
        <time>2020-08-17T16:40:33.699Z</time>
      </trkpt>
      <trkpt lat="39.018645" lon="1.38778333">
        <ele>159.0</ele>
        <time>2020-08-17T16:40:34.685Z</time>
      </trkpt>
      <trkpt lat="39.018645" lon="1.38778333">
        <ele>159.0</ele>
        <time>2020-08-17T16:40:35.665Z</time>
      </trkpt>
      <trkpt lat="39.01872333" lon="1.387695">
        <ele>160.0</ele>
        <time>2020-08-17T16:40:36.705Z</time>
      </trkpt>
      <trkpt lat="39.01876333" lon="1.38765333">
        <ele>160.0</ele>
        <time>2020-08-17T16:40:37.700Z</time>
      </trkpt>
      <trkpt lat="39.01876333" lon="1.38765333">
        <ele>160.0</ele>
        <time>2020-08-17T16:40:38.699Z</time>
      </trkpt>
      <trkpt lat="39.01884833" lon="1.38757667">
        <ele>160.0</ele>
        <time>2020-08-17T16:40:39.684Z</time>
      </trkpt>
      <trkpt lat="39.01884833" lon="1.38757667">
        <ele>160.0</ele>
        <time>2020-08-17T16:40:40.705Z</time>
      </trkpt>
      <trkpt lat="39.01893333" lon="1.387495">
        <ele>160.0</ele>
        <time>2020-08-17T16:40:41.703Z</time>
      </trkpt>
      <trkpt lat="39.018975" lon="1.387455">
        <ele>160.0</ele>
        <time>2020-08-17T16:40:42.702Z</time>
      </trkpt>
      <trkpt lat="39.018975" lon="1.387455">
        <ele>160.0</ele>
        <time>2020-08-17T16:40:43.688Z</time>
      </trkpt>
      <trkpt lat="39.019065" lon="1.38738">
        <ele>160.0</ele>
        <time>2020-08-17T16:40:44.669Z</time>
      </trkpt>
      <trkpt lat="39.01911167" lon="1.387345">
        <ele>160.0</ele>
        <time>2020-08-17T16:40:45.702Z</time>
      </trkpt>
      <trkpt lat="39.01911167" lon="1.387345">
        <ele>160.0</ele>
        <time>2020-08-17T16:40:46.700Z</time>
      </trkpt>
      <trkpt lat="39.01921333" lon="1.38728">
        <ele>159.0</ele>
        <time>2020-08-17T16:40:47.685Z</time>
      </trkpt>
      <trkpt lat="39.01921333" lon="1.38728">
        <ele>159.0</ele>
        <time>2020-08-17T16:40:48.690Z</time>
      </trkpt>
      <trkpt lat="39.01932" lon="1.38722833">
        <ele>159.0</ele>
        <time>2020-08-17T16:40:49.674Z</time>
      </trkpt>
      <trkpt lat="39.01932" lon="1.38722833">
        <ele>159.0</ele>
        <time>2020-08-17T16:40:50.665Z</time>
      </trkpt>
      <trkpt lat="39.01943" lon="1.38718">
        <ele>159.0</ele>
        <time>2020-08-17T16:40:51.703Z</time>
      </trkpt>
      <trkpt lat="39.019485" lon="1.38715667">
        <ele>159.0</ele>
        <time>2020-08-17T16:40:52.697Z</time>
      </trkpt>
      <trkpt lat="39.01954" lon="1.38713">
        <ele>159.0</ele>
        <time>2020-08-17T16:40:53.686Z</time>
      </trkpt>
      <trkpt lat="39.01954" lon="1.38713">
        <ele>159.0</ele>
        <time>2020-08-17T16:40:54.704Z</time>
      </trkpt>
      <trkpt lat="39.01965167" lon="1.38707667">
        <ele>159.0</ele>
        <time>2020-08-17T16:40:55.700Z</time>
      </trkpt>
      <trkpt lat="39.01965167" lon="1.38707667">
        <ele>159.0</ele>
        <time>2020-08-17T16:40:56.684Z</time>
      </trkpt>
      <trkpt lat="39.01976333" lon="1.38702667">
        <ele>159.0</ele>
        <time>2020-08-17T16:40:57.665Z</time>
      </trkpt>
      <trkpt lat="39.01981667" lon="1.38700333">
        <ele>159.0</ele>
        <time>2020-08-17T16:40:58.702Z</time>
      </trkpt>
      <trkpt lat="39.01981667" lon="1.38700333">
        <ele>159.0</ele>
        <time>2020-08-17T16:40:59.704Z</time>
      </trkpt>
      <trkpt lat="39.01992333" lon="1.386955">
        <ele>159.0</ele>
        <time>2020-08-17T16:41:00.684Z</time>
      </trkpt>
      <trkpt lat="39.01992333" lon="1.386955">
        <ele>159.0</ele>
        <time>2020-08-17T16:41:01.670Z</time>
      </trkpt>
      <trkpt lat="39.02003167" lon="1.38690833">
        <ele>159.0</ele>
        <time>2020-08-17T16:41:02.702Z</time>
      </trkpt>
      <trkpt lat="39.02003167" lon="1.38690833">
        <ele>159.0</ele>
        <time>2020-08-17T16:41:03.699Z</time>
      </trkpt>
      <trkpt lat="39.02014167" lon="1.38685833">
        <ele>159.0</ele>
        <time>2020-08-17T16:41:04.702Z</time>
      </trkpt>
      <trkpt lat="39.02014167" lon="1.38685833">
        <ele>159.0</ele>
        <time>2020-08-17T16:41:05.698Z</time>
      </trkpt>
      <trkpt lat="39.020255" lon="1.38681">
        <ele>159.0</ele>
        <time>2020-08-17T16:41:06.678Z</time>
      </trkpt>
      <trkpt lat="39.020255" lon="1.38681">
        <ele>159.0</ele>
        <time>2020-08-17T16:41:07.665Z</time>
      </trkpt>
      <trkpt lat="39.020365" lon="1.38676167">
        <ele>159.0</ele>
        <time>2020-08-17T16:41:08.699Z</time>
      </trkpt>
      <trkpt lat="39.020365" lon="1.38676167">
        <ele>159.0</ele>
        <time>2020-08-17T16:41:09.693Z</time>
      </trkpt>
      <trkpt lat="39.020475" lon="1.38671333">
        <ele>160.0</ele>
        <time>2020-08-17T16:41:10.674Z</time>
      </trkpt>
      <trkpt lat="39.020475" lon="1.38671333">
        <ele>160.0</ele>
        <time>2020-08-17T16:41:11.701Z</time>
      </trkpt>
      <trkpt lat="39.02058167" lon="1.38666333">
        <ele>160.0</ele>
        <time>2020-08-17T16:41:12.702Z</time>
      </trkpt>
      <trkpt lat="39.02058167" lon="1.38666333">
        <ele>160.0</ele>
        <time>2020-08-17T16:41:13.688Z</time>
      </trkpt>
      <trkpt lat="39.02069" lon="1.38662">
        <ele>160.0</ele>
        <time>2020-08-17T16:41:14.699Z</time>
      </trkpt>
      <trkpt lat="39.02069" lon="1.38662">
        <ele>160.0</ele>
        <time>2020-08-17T16:41:15.702Z</time>
      </trkpt>
      <trkpt lat="39.020805" lon="1.38658">
        <ele>160.0</ele>
        <time>2020-08-17T16:41:16.702Z</time>
      </trkpt>
      <trkpt lat="39.02086333" lon="1.38655667">
        <ele>160.0</ele>
        <time>2020-08-17T16:41:17.701Z</time>
      </trkpt>
      <trkpt lat="39.02086333" lon="1.38655667">
        <ele>160.0</ele>
        <time>2020-08-17T16:41:18.688Z</time>
      </trkpt>
      <trkpt lat="39.02098167" lon="1.38651">
        <ele>160.0</ele>
        <time>2020-08-17T16:41:19.677Z</time>
      </trkpt>
      <trkpt lat="39.02098167" lon="1.38651">
        <ele>160.0</ele>
        <time>2020-08-17T16:41:20.705Z</time>
      </trkpt>
      <trkpt lat="39.02110167" lon="1.38646667">
        <ele>160.0</ele>
        <time>2020-08-17T16:41:21.703Z</time>
      </trkpt>
      <trkpt lat="39.02110167" lon="1.38646667">
        <ele>160.0</ele>
        <time>2020-08-17T16:41:22.698Z</time>
      </trkpt>
      <trkpt lat="39.02122" lon="1.38641833">
        <ele>160.0</ele>
        <time>2020-08-17T16:41:23.679Z</time>
      </trkpt>
      <trkpt lat="39.02122" lon="1.38641833">
        <ele>160.0</ele>
        <time>2020-08-17T16:41:24.704Z</time>
      </trkpt>
      <trkpt lat="39.02134333" lon="1.38637333">
        <ele>160.0</ele>
        <time>2020-08-17T16:41:25.666Z</time>
      </trkpt>
      <trkpt lat="39.02134333" lon="1.38637333">
        <ele>160.0</ele>
        <time>2020-08-17T16:41:26.703Z</time>
      </trkpt>
      <trkpt lat="39.02146833" lon="1.38632667">
        <ele>160.0</ele>
        <time>2020-08-17T16:41:27.702Z</time>
      </trkpt>
      <trkpt lat="39.02146833" lon="1.38632667">
        <ele>160.0</ele>
        <time>2020-08-17T16:41:28.686Z</time>
      </trkpt>
      <trkpt lat="39.02159167" lon="1.386275">
        <ele>160.0</ele>
        <time>2020-08-17T16:41:29.668Z</time>
      </trkpt>
      <trkpt lat="39.02159167" lon="1.386275">
        <ele>160.0</ele>
        <time>2020-08-17T16:41:30.704Z</time>
      </trkpt>
      <trkpt lat="39.02171667" lon="1.38622333">
        <ele>160.0</ele>
        <time>2020-08-17T16:41:31.693Z</time>
      </trkpt>
      <trkpt lat="39.02178" lon="1.3862">
        <ele>159.0</ele>
        <time>2020-08-17T16:41:32.672Z</time>
      </trkpt>
      <trkpt lat="39.02184333" lon="1.38617333">
        <ele>159.0</ele>
        <time>2020-08-17T16:41:33.701Z</time>
      </trkpt>
      <trkpt lat="39.02184333" lon="1.38617333">
        <ele>159.0</ele>
        <time>2020-08-17T16:41:34.700Z</time>
      </trkpt>
      <trkpt lat="39.02197" lon="1.38612">
        <ele>159.0</ele>
        <time>2020-08-17T16:41:35.703Z</time>
      </trkpt>
      <trkpt lat="39.02197" lon="1.38612">
        <ele>159.0</ele>
        <time>2020-08-17T16:41:36.694Z</time>
      </trkpt>
      <trkpt lat="39.02209833" lon="1.38607">
        <ele>159.0</ele>
        <time>2020-08-17T16:41:37.674Z</time>
      </trkpt>
      <trkpt lat="39.02209833" lon="1.38607">
        <ele>159.0</ele>
        <time>2020-08-17T16:41:38.698Z</time>
      </trkpt>
      <trkpt lat="39.02222833" lon="1.38602167">
        <ele>159.0</ele>
        <time>2020-08-17T16:41:39.685Z</time>
      </trkpt>
      <trkpt lat="39.02222833" lon="1.38602167">
        <ele>159.0</ele>
        <time>2020-08-17T16:41:40.701Z</time>
      </trkpt>
      <trkpt lat="39.02235333" lon="1.38596667">
        <ele>159.0</ele>
        <time>2020-08-17T16:41:41.701Z</time>
      </trkpt>
      <trkpt lat="39.02235333" lon="1.38596667">
        <ele>159.0</ele>
        <time>2020-08-17T16:41:42.686Z</time>
      </trkpt>
      <trkpt lat="39.02248167" lon="1.38591833">
        <ele>159.0</ele>
        <time>2020-08-17T16:41:43.667Z</time>
      </trkpt>
      <trkpt lat="39.02248167" lon="1.38591833">
        <ele>159.0</ele>
        <time>2020-08-17T16:41:44.700Z</time>
      </trkpt>
      <trkpt lat="39.02260833" lon="1.385865">
        <ele>159.0</ele>
        <time>2020-08-17T16:41:45.702Z</time>
      </trkpt>
      <trkpt lat="39.02260833" lon="1.385865">
        <ele>159.0</ele>
        <time>2020-08-17T16:41:46.688Z</time>
      </trkpt>
      <trkpt lat="39.022735" lon="1.38581667">
        <ele>159.0</ele>
        <time>2020-08-17T16:41:47.669Z</time>
      </trkpt>
      <trkpt lat="39.022735" lon="1.38581667">
        <ele>159.0</ele>
        <time>2020-08-17T16:41:48.698Z</time>
      </trkpt>
      <trkpt lat="39.02286333" lon="1.38576667">
        <ele>159.0</ele>
        <time>2020-08-17T16:41:49.679Z</time>
      </trkpt>
      <trkpt lat="39.02286333" lon="1.38576667">
        <ele>159.0</ele>
        <time>2020-08-17T16:41:50.672Z</time>
      </trkpt>
      <trkpt lat="39.02299" lon="1.385715">
        <ele>159.0</ele>
        <time>2020-08-17T16:41:51.700Z</time>
      </trkpt>
      <trkpt lat="39.02305333" lon="1.38568833">
        <ele>159.0</ele>
        <time>2020-08-17T16:41:52.701Z</time>
      </trkpt>
      <trkpt lat="39.023115" lon="1.38566167">
        <ele>159.0</ele>
        <time>2020-08-17T16:41:53.680Z</time>
      </trkpt>
      <trkpt lat="39.023115" lon="1.38566167">
        <ele>159.0</ele>
        <time>2020-08-17T16:41:54.700Z</time>
      </trkpt>
      <trkpt lat="39.02323667" lon="1.38561167">
        <ele>159.0</ele>
        <time>2020-08-17T16:41:55.701Z</time>
      </trkpt>
      <trkpt lat="39.02323667" lon="1.38561167">
        <ele>159.0</ele>
        <time>2020-08-17T16:41:56.690Z</time>
      </trkpt>
      <trkpt lat="39.02335667" lon="1.38556833">
        <ele>159.0</ele>
        <time>2020-08-17T16:41:57.670Z</time>
      </trkpt>
      <trkpt lat="39.02341333" lon="1.38554333">
        <ele>160.0</ele>
        <time>2020-08-17T16:41:58.702Z</time>
      </trkpt>
      <trkpt lat="39.02341333" lon="1.38554333">
        <ele>160.0</ele>
        <time>2020-08-17T16:41:59.700Z</time>
      </trkpt>
      <trkpt lat="39.02352667" lon="1.38549667">
        <ele>160.0</ele>
        <time>2020-08-17T16:42:00.672Z</time>
      </trkpt>
      <trkpt lat="39.02352667" lon="1.38549667">
        <ele>160.0</ele>
        <time>2020-08-17T16:42:01.698Z</time>
      </trkpt>
      <trkpt lat="39.02363667" lon="1.38544667">
        <ele>160.0</ele>
        <time>2020-08-17T16:42:02.678Z</time>
      </trkpt>
      <trkpt lat="39.02369167" lon="1.38542167">
        <ele>160.0</ele>
        <time>2020-08-17T16:42:03.702Z</time>
      </trkpt>
      <trkpt lat="39.02369167" lon="1.38542167">
        <ele>160.0</ele>
        <time>2020-08-17T16:42:04.700Z</time>
      </trkpt>
      <trkpt lat="39.023805" lon="1.38537333">
        <ele>161.0</ele>
        <time>2020-08-17T16:42:05.703Z</time>
      </trkpt>
      <trkpt lat="39.023805" lon="1.38537333">
        <ele>161.0</ele>
        <time>2020-08-17T16:42:06.689Z</time>
      </trkpt>
      <trkpt lat="39.02392" lon="1.385325">
        <ele>161.0</ele>
        <time>2020-08-17T16:42:07.669Z</time>
      </trkpt>
      <trkpt lat="39.02392" lon="1.385325">
        <ele>161.0</ele>
        <time>2020-08-17T16:42:08.690Z</time>
      </trkpt>
      <trkpt lat="39.02403667" lon="1.38527833">
        <ele>162.0</ele>
        <time>2020-08-17T16:42:09.670Z</time>
      </trkpt>
      <trkpt lat="39.02403667" lon="1.38527833">
        <ele>162.0</ele>
        <time>2020-08-17T16:42:10.666Z</time>
      </trkpt>
      <trkpt lat="39.02415" lon="1.385235">
        <ele>163.0</ele>
        <time>2020-08-17T16:42:11.704Z</time>
      </trkpt>
      <trkpt lat="39.02415" lon="1.385235">
        <ele>163.0</ele>
        <time>2020-08-17T16:42:12.699Z</time>
      </trkpt>
      <trkpt lat="39.02426667" lon="1.38519333">
        <ele>163.0</ele>
        <time>2020-08-17T16:42:13.679Z</time>
      </trkpt>
      <trkpt lat="39.02426667" lon="1.38519333">
        <ele>163.0</ele>
        <time>2020-08-17T16:42:14.704Z</time>
      </trkpt>
      <trkpt lat="39.02438333" lon="1.38515">
        <ele>163.0</ele>
        <time>2020-08-17T16:42:15.667Z</time>
      </trkpt>
      <trkpt lat="39.02444" lon="1.38512667">
        <ele>163.0</ele>
        <time>2020-08-17T16:42:16.698Z</time>
      </trkpt>
      <trkpt lat="39.02444" lon="1.38512667">
        <ele>163.0</ele>
        <time>2020-08-17T16:42:17.677Z</time>
      </trkpt>
      <trkpt lat="39.02455167" lon="1.38508">
        <ele>163.0</ele>
        <time>2020-08-17T16:42:18.702Z</time>
      </trkpt>
      <trkpt lat="39.02460833" lon="1.385055">
        <ele>164.0</ele>
        <time>2020-08-17T16:42:19.668Z</time>
      </trkpt>
      <trkpt lat="39.02460833" lon="1.385055">
        <ele>164.0</ele>
        <time>2020-08-17T16:42:20.686Z</time>
      </trkpt>
      <trkpt lat="39.02472333" lon="1.38501167">
        <ele>164.0</ele>
        <time>2020-08-17T16:42:21.667Z</time>
      </trkpt>
      <trkpt lat="39.02472333" lon="1.38501167">
        <ele>164.0</ele>
        <time>2020-08-17T16:42:22.699Z</time>
      </trkpt>
      <trkpt lat="39.024835" lon="1.38496167">
        <ele>164.0</ele>
        <time>2020-08-17T16:42:23.679Z</time>
      </trkpt>
      <trkpt lat="39.024835" lon="1.38496167">
        <ele>164.0</ele>
        <time>2020-08-17T16:42:24.700Z</time>
      </trkpt>
      <trkpt lat="39.02494333" lon="1.384905">
        <ele>164.0</ele>
        <time>2020-08-17T16:42:25.692Z</time>
      </trkpt>
      <trkpt lat="39.02499667" lon="1.384875">
        <ele>164.0</ele>
        <time>2020-08-17T16:42:26.671Z</time>
      </trkpt>
      <trkpt lat="39.02499667" lon="1.384875">
        <ele>164.0</ele>
        <time>2020-08-17T16:42:27.699Z</time>
      </trkpt>
      <trkpt lat="39.02510167" lon="1.38481">
        <ele>164.0</ele>
        <time>2020-08-17T16:42:28.679Z</time>
      </trkpt>
      <trkpt lat="39.02515333" lon="1.384775">
        <ele>164.0</ele>
        <time>2020-08-17T16:42:29.702Z</time>
      </trkpt>
      <trkpt lat="39.02515333" lon="1.384775">
        <ele>164.0</ele>
        <time>2020-08-17T16:42:30.669Z</time>
      </trkpt>
      <trkpt lat="39.02525667" lon="1.38470833">
        <ele>164.0</ele>
        <time>2020-08-17T16:42:31.703Z</time>
      </trkpt>
      <trkpt lat="39.02525667" lon="1.38470833">
        <ele>164.0</ele>
        <time>2020-08-17T16:42:32.699Z</time>
      </trkpt>
      <trkpt lat="39.02536" lon="1.38464167">
        <ele>164.0</ele>
        <time>2020-08-17T16:42:33.675Z</time>
      </trkpt>
      <trkpt lat="39.02541167" lon="1.38460667">
        <ele>164.0</ele>
        <time>2020-08-17T16:42:34.702Z</time>
      </trkpt>
      <trkpt lat="39.02541167" lon="1.38460667">
        <ele>164.0</ele>
        <time>2020-08-17T16:42:35.699Z</time>
      </trkpt>
      <trkpt lat="39.02551333" lon="1.38454">
        <ele>164.0</ele>
        <time>2020-08-17T16:42:36.685Z</time>
      </trkpt>
      <trkpt lat="39.025565" lon="1.38450667">
        <ele>165.0</ele>
        <time>2020-08-17T16:42:37.668Z</time>
      </trkpt>
      <trkpt lat="39.025565" lon="1.38450667">
        <ele>165.0</ele>
        <time>2020-08-17T16:42:38.699Z</time>
      </trkpt>
      <trkpt lat="39.02566667" lon="1.38443833">
        <ele>165.0</ele>
        <time>2020-08-17T16:42:39.678Z</time>
      </trkpt>
      <trkpt lat="39.02566667" lon="1.38443833">
        <ele>165.0</ele>
        <time>2020-08-17T16:42:40.668Z</time>
      </trkpt>
      <trkpt lat="39.02576833" lon="1.38436833">
        <ele>165.0</ele>
        <time>2020-08-17T16:42:41.704Z</time>
      </trkpt>
      <trkpt lat="39.02576833" lon="1.38436833">
        <ele>165.0</ele>
        <time>2020-08-17T16:42:42.689Z</time>
      </trkpt>
      <trkpt lat="39.02587333" lon="1.38430333">
        <ele>165.0</ele>
        <time>2020-08-17T16:42:43.669Z</time>
      </trkpt>
      <trkpt lat="39.02587333" lon="1.38430333">
        <ele>165.0</ele>
        <time>2020-08-17T16:42:44.700Z</time>
      </trkpt>
      <trkpt lat="39.02598" lon="1.384235">
        <ele>165.0</ele>
        <time>2020-08-17T16:42:45.702Z</time>
      </trkpt>
      <trkpt lat="39.02598" lon="1.384235">
        <ele>165.0</ele>
        <time>2020-08-17T16:42:46.699Z</time>
      </trkpt>
      <trkpt lat="39.02608667" lon="1.38416">
        <ele>165.0</ele>
        <time>2020-08-17T16:42:47.686Z</time>
      </trkpt>
      <trkpt lat="39.02608667" lon="1.38416">
        <ele>165.0</ele>
        <time>2020-08-17T16:42:48.675Z</time>
      </trkpt>
      <trkpt lat="39.02620167" lon="1.38411667">
        <ele>165.0</ele>
        <time>2020-08-17T16:42:49.702Z</time>
      </trkpt>
      <trkpt lat="39.02620167" lon="1.38411667">
        <ele>165.0</ele>
        <time>2020-08-17T16:42:50.704Z</time>
      </trkpt>
      <trkpt lat="39.02632333" lon="1.384085">
        <ele>166.0</ele>
        <time>2020-08-17T16:42:51.703Z</time>
      </trkpt>
      <trkpt lat="39.026385" lon="1.38407">
        <ele>166.0</ele>
        <time>2020-08-17T16:42:52.698Z</time>
      </trkpt>
      <trkpt lat="39.02644667" lon="1.384055">
        <ele>166.0</ele>
        <time>2020-08-17T16:42:53.680Z</time>
      </trkpt>
      <trkpt lat="39.02644667" lon="1.384055">
        <ele>166.0</ele>
        <time>2020-08-17T16:42:54.700Z</time>
      </trkpt>
      <trkpt lat="39.026575" lon="1.38403167">
        <ele>166.0</ele>
        <time>2020-08-17T16:42:55.665Z</time>
      </trkpt>
      <trkpt lat="39.026575" lon="1.38403167">
        <ele>166.0</ele>
        <time>2020-08-17T16:42:56.699Z</time>
      </trkpt>
      <trkpt lat="39.02670333" lon="1.38399167">
        <ele>166.0</ele>
        <time>2020-08-17T16:42:57.679Z</time>
      </trkpt>
      <trkpt lat="39.02676667" lon="1.38397667">
        <ele>165.0</ele>
        <time>2020-08-17T16:42:58.701Z</time>
      </trkpt>
      <trkpt lat="39.026835" lon="1.38397">
        <ele>165.0</ele>
        <time>2020-08-17T16:42:59.703Z</time>
      </trkpt>
      <trkpt lat="39.026835" lon="1.38397">
        <ele>165.0</ele>
        <time>2020-08-17T16:43:00.667Z</time>
      </trkpt>
      <trkpt lat="39.02696667" lon="1.38394667">
        <ele>165.0</ele>
        <time>2020-08-17T16:43:01.704Z</time>
      </trkpt>
      <trkpt lat="39.02696667" lon="1.38394667">
        <ele>165.0</ele>
        <time>2020-08-17T16:43:02.694Z</time>
      </trkpt>
      <trkpt lat="39.02709833" lon="1.383915">
        <ele>165.0</ele>
        <time>2020-08-17T16:43:03.675Z</time>
      </trkpt>
      <trkpt lat="39.02709833" lon="1.383915">
        <ele>165.0</ele>
        <time>2020-08-17T16:43:04.700Z</time>
      </trkpt>
      <trkpt lat="39.02722833" lon="1.38387667">
        <ele>165.0</ele>
        <time>2020-08-17T16:43:05.690Z</time>
      </trkpt>
      <trkpt lat="39.02722833" lon="1.38387667">
        <ele>165.0</ele>
        <time>2020-08-17T16:43:06.670Z</time>
      </trkpt>
      <trkpt lat="39.02735667" lon="1.38383">
        <ele>165.0</ele>
        <time>2020-08-17T16:43:07.701Z</time>
      </trkpt>
      <trkpt lat="39.02735667" lon="1.38383">
        <ele>165.0</ele>
        <time>2020-08-17T16:43:08.690Z</time>
      </trkpt>
      <trkpt lat="39.02748667" lon="1.38380833">
        <ele>165.0</ele>
        <time>2020-08-17T16:43:09.704Z</time>
      </trkpt>
      <trkpt lat="39.02748667" lon="1.38380833">
        <ele>165.0</ele>
        <time>2020-08-17T16:43:10.673Z</time>
      </trkpt>
      <trkpt lat="39.02761833" lon="1.38378333">
        <ele>165.0</ele>
        <time>2020-08-17T16:43:11.703Z</time>
      </trkpt>
      <trkpt lat="39.02761833" lon="1.38378333">
        <ele>165.0</ele>
        <time>2020-08-17T16:43:12.701Z</time>
      </trkpt>
      <trkpt lat="39.02774833" lon="1.38374667">
        <ele>165.0</ele>
        <time>2020-08-17T16:43:13.692Z</time>
      </trkpt>
      <trkpt lat="39.02781333" lon="1.38372833">
        <ele>165.0</ele>
        <time>2020-08-17T16:43:14.667Z</time>
      </trkpt>
      <trkpt lat="39.02781333" lon="1.38372833">
        <ele>165.0</ele>
        <time>2020-08-17T16:43:15.667Z</time>
      </trkpt>
      <trkpt lat="39.02793667" lon="1.38369333">
        <ele>165.0</ele>
        <time>2020-08-17T16:43:16.702Z</time>
      </trkpt>
      <trkpt lat="39.02799833" lon="1.38367833">
        <ele>165.0</ele>
        <time>2020-08-17T16:43:17.701Z</time>
      </trkpt>
      <trkpt lat="39.02799833" lon="1.38367833">
        <ele>165.0</ele>
        <time>2020-08-17T16:43:18.699Z</time>
      </trkpt>
      <trkpt lat="39.02811333" lon="1.38364333">
        <ele>165.0</ele>
        <time>2020-08-17T16:43:19.678Z</time>
      </trkpt>
      <trkpt lat="39.02811333" lon="1.38364333">
        <ele>165.0</ele>
        <time>2020-08-17T16:43:20.677Z</time>
      </trkpt>
      <trkpt lat="39.028225" lon="1.38361">
        <ele>165.0</ele>
        <time>2020-08-17T16:43:21.704Z</time>
      </trkpt>
      <trkpt lat="39.02828167" lon="1.38359667">
        <ele>165.0</ele>
        <time>2020-08-17T16:43:22.695Z</time>
      </trkpt>
      <trkpt lat="39.02828167" lon="1.38359667">
        <ele>165.0</ele>
        <time>2020-08-17T16:43:23.675Z</time>
      </trkpt>
      <trkpt lat="39.02839333" lon="1.38356833">
        <ele>165.0</ele>
        <time>2020-08-17T16:43:24.703Z</time>
      </trkpt>
      <trkpt lat="39.02845" lon="1.38355">
        <ele>166.0</ele>
        <time>2020-08-17T16:43:25.701Z</time>
      </trkpt>
      <trkpt lat="39.02845" lon="1.38355">
        <ele>166.0</ele>
        <time>2020-08-17T16:43:26.691Z</time>
      </trkpt>
      <trkpt lat="39.02856333" lon="1.38351333">
        <ele>166.0</ele>
        <time>2020-08-17T16:43:27.670Z</time>
      </trkpt>
      <trkpt lat="39.02856333" lon="1.38351333">
        <ele>166.0</ele>
        <time>2020-08-17T16:43:28.700Z</time>
      </trkpt>
      <trkpt lat="39.02868" lon="1.38348167">
        <ele>166.0</ele>
        <time>2020-08-17T16:43:29.703Z</time>
      </trkpt>
      <trkpt lat="39.02868" lon="1.38348167">
        <ele>166.0</ele>
        <time>2020-08-17T16:43:30.705Z</time>
      </trkpt>
      <trkpt lat="39.028795" lon="1.38345">
        <ele>166.0</ele>
        <time>2020-08-17T16:43:31.693Z</time>
      </trkpt>
      <trkpt lat="39.02885167" lon="1.38343333">
        <ele>166.0</ele>
        <time>2020-08-17T16:43:32.675Z</time>
      </trkpt>
      <trkpt lat="39.02885167" lon="1.38343333">
        <ele>166.0</ele>
        <time>2020-08-17T16:43:33.700Z</time>
      </trkpt>
      <trkpt lat="39.028965" lon="1.38340333">
        <ele>166.0</ele>
        <time>2020-08-17T16:43:34.702Z</time>
      </trkpt>
      <trkpt lat="39.02902167" lon="1.383385">
        <ele>166.0</ele>
        <time>2020-08-17T16:43:35.694Z</time>
      </trkpt>
      <trkpt lat="39.02902167" lon="1.383385">
        <ele>166.0</ele>
        <time>2020-08-17T16:43:36.693Z</time>
      </trkpt>
      <trkpt lat="39.02913667" lon="1.38335167">
        <ele>167.0</ele>
        <time>2020-08-17T16:43:37.673Z</time>
      </trkpt>
      <trkpt lat="39.02913667" lon="1.38335167">
        <ele>167.0</ele>
        <time>2020-08-17T16:43:38.700Z</time>
      </trkpt>
      <trkpt lat="39.02925333" lon="1.38331833">
        <ele>167.0</ele>
        <time>2020-08-17T16:43:39.702Z</time>
      </trkpt>
      <trkpt lat="39.02931167" lon="1.38330167">
        <ele>167.0</ele>
        <time>2020-08-17T16:43:40.665Z</time>
      </trkpt>
      <trkpt lat="39.02931167" lon="1.38330167">
        <ele>167.0</ele>
        <time>2020-08-17T16:43:41.694Z</time>
      </trkpt>
      <trkpt lat="39.02942667" lon="1.38327">
        <ele>167.0</ele>
        <time>2020-08-17T16:43:42.680Z</time>
      </trkpt>
      <trkpt lat="39.02942667" lon="1.38327">
        <ele>167.0</ele>
        <time>2020-08-17T16:43:43.700Z</time>
      </trkpt>
      <trkpt lat="39.02954333" lon="1.38324667">
        <ele>167.0</ele>
        <time>2020-08-17T16:43:44.701Z</time>
      </trkpt>
      <trkpt lat="39.02954333" lon="1.38324667">
        <ele>167.0</ele>
        <time>2020-08-17T16:43:45.688Z</time>
      </trkpt>
      <trkpt lat="39.02965833" lon="1.38323167">
        <ele>168.0</ele>
        <time>2020-08-17T16:43:46.669Z</time>
      </trkpt>
      <trkpt lat="39.02971667" lon="1.38323">
        <ele>168.0</ele>
        <time>2020-08-17T16:43:47.687Z</time>
      </trkpt>
      <trkpt lat="39.02971667" lon="1.38323">
        <ele>168.0</ele>
        <time>2020-08-17T16:43:48.666Z</time>
      </trkpt>
      <trkpt lat="39.02983" lon="1.38324167">
        <ele>168.0</ele>
        <time>2020-08-17T16:43:49.667Z</time>
      </trkpt>
      <trkpt lat="39.02983" lon="1.38324167">
        <ele>168.0</ele>
        <time>2020-08-17T16:43:50.665Z</time>
      </trkpt>
      <trkpt lat="39.029945" lon="1.38326333">
        <ele>168.0</ele>
        <time>2020-08-17T16:43:51.692Z</time>
      </trkpt>
      <trkpt lat="39.029945" lon="1.38326333">
        <ele>168.0</ele>
        <time>2020-08-17T16:43:52.686Z</time>
      </trkpt>
      <trkpt lat="39.03005833" lon="1.38328167">
        <ele>168.0</ele>
        <time>2020-08-17T16:43:53.669Z</time>
      </trkpt>
      <trkpt lat="39.03005833" lon="1.38328167">
        <ele>168.0</ele>
        <time>2020-08-17T16:43:54.700Z</time>
      </trkpt>
      <trkpt lat="39.03016833" lon="1.3833">
        <ele>169.0</ele>
        <time>2020-08-17T16:43:55.700Z</time>
      </trkpt>
      <trkpt lat="39.03022333" lon="1.38330167">
        <ele>169.0</ele>
        <time>2020-08-17T16:43:56.678Z</time>
      </trkpt>
      <trkpt lat="39.03022333" lon="1.38330167">
        <ele>169.0</ele>
        <time>2020-08-17T16:43:57.700Z</time>
      </trkpt>
      <trkpt lat="39.03033333" lon="1.383295">
        <ele>170.0</ele>
        <time>2020-08-17T16:43:58.702Z</time>
      </trkpt>
      <trkpt lat="39.03039167" lon="1.38328833">
        <ele>169.0</ele>
        <time>2020-08-17T16:43:59.701Z</time>
      </trkpt>
      <trkpt lat="39.03039167" lon="1.38328833">
        <ele>169.0</ele>
        <time>2020-08-17T16:44:00.690Z</time>
      </trkpt>
      <trkpt lat="39.03050667" lon="1.38325833">
        <ele>169.0</ele>
        <time>2020-08-17T16:44:01.675Z</time>
      </trkpt>
      <trkpt lat="39.030565" lon="1.38323667">
        <ele>169.0</ele>
        <time>2020-08-17T16:44:02.701Z</time>
      </trkpt>
      <trkpt lat="39.03062333" lon="1.38321333">
        <ele>169.0</ele>
        <time>2020-08-17T16:44:03.702Z</time>
      </trkpt>
      <trkpt lat="39.03062333" lon="1.38321333">
        <ele>169.0</ele>
        <time>2020-08-17T16:44:04.700Z</time>
      </trkpt>
      <trkpt lat="39.03074167" lon="1.38316333">
        <ele>169.0</ele>
        <time>2020-08-17T16:44:05.680Z</time>
      </trkpt>
      <trkpt lat="39.03080167" lon="1.38313667">
        <ele>169.0</ele>
        <time>2020-08-17T16:44:06.702Z</time>
      </trkpt>
      <trkpt lat="39.03080167" lon="1.38313667">
        <ele>169.0</ele>
        <time>2020-08-17T16:44:07.699Z</time>
      </trkpt>
      <trkpt lat="39.03092167" lon="1.38308333">
        <ele>169.0</ele>
        <time>2020-08-17T16:44:08.678Z</time>
      </trkpt>
      <trkpt lat="39.03092167" lon="1.38308333">
        <ele>169.0</ele>
        <time>2020-08-17T16:44:09.701Z</time>
      </trkpt>
      <trkpt lat="39.03104333" lon="1.38302833">
        <ele>169.0</ele>
        <time>2020-08-17T16:44:10.695Z</time>
      </trkpt>
      <trkpt lat="39.03104333" lon="1.38302833">
        <ele>169.0</ele>
        <time>2020-08-17T16:44:11.678Z</time>
      </trkpt>
      <trkpt lat="39.03116667" lon="1.38297">
        <ele>169.0</ele>
        <time>2020-08-17T16:44:12.702Z</time>
      </trkpt>
      <trkpt lat="39.03123" lon="1.38294333">
        <ele>169.0</ele>
        <time>2020-08-17T16:44:13.702Z</time>
      </trkpt>
      <trkpt lat="39.03123" lon="1.38294333">
        <ele>169.0</ele>
        <time>2020-08-17T16:44:14.675Z</time>
      </trkpt>
      <trkpt lat="39.031355" lon="1.38289167">
        <ele>168.0</ele>
        <time>2020-08-17T16:44:15.669Z</time>
      </trkpt>
      <trkpt lat="39.031355" lon="1.38289167">
        <ele>168.0</ele>
        <time>2020-08-17T16:44:16.691Z</time>
      </trkpt>
      <trkpt lat="39.03147833" lon="1.382835">
        <ele>168.0</ele>
        <time>2020-08-17T16:44:17.672Z</time>
      </trkpt>
      <trkpt lat="39.03147833" lon="1.382835">
        <ele>168.0</ele>
        <time>2020-08-17T16:44:18.700Z</time>
      </trkpt>
      <trkpt lat="39.0316" lon="1.38277833">
        <ele>168.0</ele>
        <time>2020-08-17T16:44:19.700Z</time>
      </trkpt>
      <trkpt lat="39.0316" lon="1.38277833">
        <ele>168.0</ele>
        <time>2020-08-17T16:44:20.695Z</time>
      </trkpt>
      <trkpt lat="39.03172333" lon="1.38271833">
        <ele>168.0</ele>
        <time>2020-08-17T16:44:21.677Z</time>
      </trkpt>
      <trkpt lat="39.031785" lon="1.38268667">
        <ele>168.0</ele>
        <time>2020-08-17T16:44:22.700Z</time>
      </trkpt>
      <trkpt lat="39.031785" lon="1.38268667">
        <ele>168.0</ele>
        <time>2020-08-17T16:44:23.679Z</time>
      </trkpt>
      <trkpt lat="39.03190667" lon="1.38262667">
        <ele>168.0</ele>
        <time>2020-08-17T16:44:24.703Z</time>
      </trkpt>
      <trkpt lat="39.03190667" lon="1.38262667">
        <ele>168.0</ele>
        <time>2020-08-17T16:44:25.697Z</time>
      </trkpt>
      <trkpt lat="39.03202833" lon="1.38257333">
        <ele>168.0</ele>
        <time>2020-08-17T16:44:26.677Z</time>
      </trkpt>
      <trkpt lat="39.03202833" lon="1.38257333">
        <ele>168.0</ele>
        <time>2020-08-17T16:44:27.704Z</time>
      </trkpt>
      <trkpt lat="39.03215" lon="1.38252167">
        <ele>168.0</ele>
        <time>2020-08-17T16:44:28.700Z</time>
      </trkpt>
      <trkpt lat="39.03215" lon="1.38252167">
        <ele>168.0</ele>
        <time>2020-08-17T16:44:29.679Z</time>
      </trkpt>
      <trkpt lat="39.03227" lon="1.38246667">
        <ele>168.0</ele>
        <time>2020-08-17T16:44:30.670Z</time>
      </trkpt>
      <trkpt lat="39.03227" lon="1.38246667">
        <ele>168.0</ele>
        <time>2020-08-17T16:44:31.703Z</time>
      </trkpt>
      <trkpt lat="39.032385" lon="1.382415">
        <ele>169.0</ele>
        <time>2020-08-17T16:44:32.694Z</time>
      </trkpt>
      <trkpt lat="39.03244167" lon="1.38238833">
        <ele>169.0</ele>
        <time>2020-08-17T16:44:33.678Z</time>
      </trkpt>
      <trkpt lat="39.03244167" lon="1.38238833">
        <ele>169.0</ele>
        <time>2020-08-17T16:44:34.700Z</time>
      </trkpt>
      <trkpt lat="39.03255333" lon="1.382335">
        <ele>169.0</ele>
        <time>2020-08-17T16:44:35.680Z</time>
      </trkpt>
      <trkpt lat="39.03255333" lon="1.382335">
        <ele>169.0</ele>
        <time>2020-08-17T16:44:36.700Z</time>
      </trkpt>
      <trkpt lat="39.03266167" lon="1.38228333">
        <ele>169.0</ele>
        <time>2020-08-17T16:44:37.679Z</time>
      </trkpt>
      <trkpt lat="39.03271833" lon="1.38226">
        <ele>169.0</ele>
        <time>2020-08-17T16:44:38.702Z</time>
      </trkpt>
      <trkpt lat="39.032775" lon="1.38223667">
        <ele>169.0</ele>
        <time>2020-08-17T16:44:39.704Z</time>
      </trkpt>
      <trkpt lat="39.03283" lon="1.38221">
        <ele>170.0</ele>
        <time>2020-08-17T16:44:40.666Z</time>
      </trkpt>
      <trkpt lat="39.03283" lon="1.38221">
        <ele>170.0</ele>
        <time>2020-08-17T16:44:41.704Z</time>
      </trkpt>
      <trkpt lat="39.03294167" lon="1.38216333">
        <ele>170.0</ele>
        <time>2020-08-17T16:44:42.702Z</time>
      </trkpt>
      <trkpt lat="39.03294167" lon="1.38216333">
        <ele>170.0</ele>
        <time>2020-08-17T16:44:43.699Z</time>
      </trkpt>
      <trkpt lat="39.03305333" lon="1.38211833">
        <ele>170.0</ele>
        <time>2020-08-17T16:44:44.686Z</time>
      </trkpt>
      <trkpt lat="39.03305333" lon="1.38211833">
        <ele>170.0</ele>
        <time>2020-08-17T16:44:45.665Z</time>
      </trkpt>
      <trkpt lat="39.03316833" lon="1.38208167">
        <ele>170.0</ele>
        <time>2020-08-17T16:44:46.703Z</time>
      </trkpt>
      <trkpt lat="39.03316833" lon="1.38208167">
        <ele>170.0</ele>
        <time>2020-08-17T16:44:47.690Z</time>
      </trkpt>
      <trkpt lat="39.03328333" lon="1.38204333">
        <ele>171.0</ele>
        <time>2020-08-17T16:44:48.670Z</time>
      </trkpt>
      <trkpt lat="39.03334" lon="1.38202667">
        <ele>171.0</ele>
        <time>2020-08-17T16:44:49.702Z</time>
      </trkpt>
      <trkpt lat="39.03334" lon="1.38202667">
        <ele>171.0</ele>
        <time>2020-08-17T16:44:50.695Z</time>
      </trkpt>
      <trkpt lat="39.03345667" lon="1.38199167">
        <ele>171.0</ele>
        <time>2020-08-17T16:44:51.680Z</time>
      </trkpt>
      <trkpt lat="39.03345667" lon="1.38199167">
        <ele>171.0</ele>
        <time>2020-08-17T16:44:52.703Z</time>
      </trkpt>
      <trkpt lat="39.03357333" lon="1.38195667">
        <ele>171.0</ele>
        <time>2020-08-17T16:44:53.700Z</time>
      </trkpt>
      <trkpt lat="39.03363333" lon="1.38193833">
        <ele>171.0</ele>
        <time>2020-08-17T16:44:54.703Z</time>
      </trkpt>
      <trkpt lat="39.03363333" lon="1.38193833">
        <ele>171.0</ele>
        <time>2020-08-17T16:44:55.688Z</time>
      </trkpt>
      <trkpt lat="39.03375167" lon="1.38190167">
        <ele>171.0</ele>
        <time>2020-08-17T16:44:56.686Z</time>
      </trkpt>
      <trkpt lat="39.03381" lon="1.38188333">
        <ele>171.0</ele>
        <time>2020-08-17T16:44:57.665Z</time>
      </trkpt>
      <trkpt lat="39.03381" lon="1.38188333">
        <ele>171.0</ele>
        <time>2020-08-17T16:44:58.701Z</time>
      </trkpt>
      <trkpt lat="39.03392833" lon="1.38184833">
        <ele>171.0</ele>
        <time>2020-08-17T16:44:59.680Z</time>
      </trkpt>
      <trkpt lat="39.03392833" lon="1.38184833">
        <ele>171.0</ele>
        <time>2020-08-17T16:45:00.704Z</time>
      </trkpt>
      <trkpt lat="39.03404667" lon="1.38181">
        <ele>171.0</ele>
        <time>2020-08-17T16:45:01.701Z</time>
      </trkpt>
      <trkpt lat="39.034105" lon="1.38179">
        <ele>172.0</ele>
        <time>2020-08-17T16:45:02.692Z</time>
      </trkpt>
      <trkpt lat="39.034165" lon="1.38177333">
        <ele>172.0</ele>
        <time>2020-08-17T16:45:03.671Z</time>
      </trkpt>
      <trkpt lat="39.034165" lon="1.38177333">
        <ele>172.0</ele>
        <time>2020-08-17T16:45:04.699Z</time>
      </trkpt>
      <trkpt lat="39.034285" lon="1.38174667">
        <ele>172.0</ele>
        <time>2020-08-17T16:45:05.679Z</time>
      </trkpt>
      <trkpt lat="39.034345" lon="1.38173333">
        <ele>172.0</ele>
        <time>2020-08-17T16:45:06.703Z</time>
      </trkpt>
      <trkpt lat="39.034345" lon="1.38173333">
        <ele>172.0</ele>
        <time>2020-08-17T16:45:07.701Z</time>
      </trkpt>
      <trkpt lat="39.03446667" lon="1.38171">
        <ele>172.0</ele>
        <time>2020-08-17T16:45:08.701Z</time>
      </trkpt>
      <trkpt lat="39.03452833" lon="1.38169833">
        <ele>172.0</ele>
        <time>2020-08-17T16:45:09.702Z</time>
      </trkpt>
      <trkpt lat="39.03452833" lon="1.38169833">
        <ele>172.0</ele>
        <time>2020-08-17T16:45:10.701Z</time>
      </trkpt>
      <trkpt lat="39.034655" lon="1.38167667">
        <ele>172.0</ele>
        <time>2020-08-17T16:45:11.703Z</time>
      </trkpt>
      <trkpt lat="39.034655" lon="1.38167667">
        <ele>172.0</ele>
        <time>2020-08-17T16:45:12.679Z</time>
      </trkpt>
      <trkpt lat="39.03478333" lon="1.38165667">
        <ele>171.0</ele>
        <time>2020-08-17T16:45:13.700Z</time>
      </trkpt>
      <trkpt lat="39.03485" lon="1.381645">
        <ele>171.0</ele>
        <time>2020-08-17T16:45:14.665Z</time>
      </trkpt>
      <trkpt lat="39.03485" lon="1.381645">
        <ele>171.0</ele>
        <time>2020-08-17T16:45:15.696Z</time>
      </trkpt>
      <trkpt lat="39.034985" lon="1.38162833">
        <ele>171.0</ele>
        <time>2020-08-17T16:45:16.677Z</time>
      </trkpt>
      <trkpt lat="39.034985" lon="1.38162833">
        <ele>171.0</ele>
        <time>2020-08-17T16:45:17.701Z</time>
      </trkpt>
      <trkpt lat="39.03512" lon="1.38160833">
        <ele>171.0</ele>
        <time>2020-08-17T16:45:18.703Z</time>
      </trkpt>
      <trkpt lat="39.03519" lon="1.3816">
        <ele>171.0</ele>
        <time>2020-08-17T16:45:19.702Z</time>
      </trkpt>
      <trkpt lat="39.03519" lon="1.3816">
        <ele>171.0</ele>
        <time>2020-08-17T16:45:20.695Z</time>
      </trkpt>
      <trkpt lat="39.03533333" lon="1.38158667">
        <ele>170.0</ele>
        <time>2020-08-17T16:45:21.675Z</time>
      </trkpt>
      <trkpt lat="39.03533333" lon="1.38158667">
        <ele>170.0</ele>
        <time>2020-08-17T16:45:22.700Z</time>
      </trkpt>
      <trkpt lat="39.03547833" lon="1.38159167">
        <ele>170.0</ele>
        <time>2020-08-17T16:45:23.703Z</time>
      </trkpt>
      <trkpt lat="39.03547833" lon="1.38159167">
        <ele>170.0</ele>
        <time>2020-08-17T16:45:24.699Z</time>
      </trkpt>
      <trkpt lat="39.03562333" lon="1.38161333">
        <ele>170.0</ele>
        <time>2020-08-17T16:45:25.702Z</time>
      </trkpt>
      <trkpt lat="39.035695" lon="1.38162667">
        <ele>170.0</ele>
        <time>2020-08-17T16:45:26.686Z</time>
      </trkpt>
      <trkpt lat="39.035695" lon="1.38162667">
        <ele>170.0</ele>
        <time>2020-08-17T16:45:27.665Z</time>
      </trkpt>
      <trkpt lat="39.03583833" lon="1.381655">
        <ele>169.0</ele>
        <time>2020-08-17T16:45:28.702Z</time>
      </trkpt>
      <trkpt lat="39.03591" lon="1.38166833">
        <ele>169.0</ele>
        <time>2020-08-17T16:45:29.695Z</time>
      </trkpt>
      <trkpt lat="39.03591" lon="1.38166833">
        <ele>169.0</ele>
        <time>2020-08-17T16:45:30.675Z</time>
      </trkpt>
      <trkpt lat="39.03605167" lon="1.38170333">
        <ele>169.0</ele>
        <time>2020-08-17T16:45:31.711Z</time>
      </trkpt>
      <trkpt lat="39.03605167" lon="1.38170333">
        <ele>169.0</ele>
        <time>2020-08-17T16:45:32.673Z</time>
      </trkpt>
      <trkpt lat="39.03619167" lon="1.38175">
        <ele>169.0</ele>
        <time>2020-08-17T16:45:33.702Z</time>
      </trkpt>
      <trkpt lat="39.03619167" lon="1.38175">
        <ele>169.0</ele>
        <time>2020-08-17T16:45:34.694Z</time>
      </trkpt>
      <trkpt lat="39.03632667" lon="1.381815">
        <ele>170.0</ele>
        <time>2020-08-17T16:45:35.673Z</time>
      </trkpt>
      <trkpt lat="39.03632667" lon="1.381815">
        <ele>170.0</ele>
        <time>2020-08-17T16:45:36.701Z</time>
      </trkpt>
      <trkpt lat="39.03645667" lon="1.381885">
        <ele>170.0</ele>
        <time>2020-08-17T16:45:37.674Z</time>
      </trkpt>
      <trkpt lat="39.03645667" lon="1.381885">
        <ele>170.0</ele>
        <time>2020-08-17T16:45:38.700Z</time>
      </trkpt>
      <trkpt lat="39.03658167" lon="1.38196167">
        <ele>171.0</ele>
        <time>2020-08-17T16:45:39.679Z</time>
      </trkpt>
      <trkpt lat="39.036645" lon="1.38199833">
        <ele>171.0</ele>
        <time>2020-08-17T16:45:40.667Z</time>
      </trkpt>
      <trkpt lat="39.036705" lon="1.38203333">
        <ele>171.0</ele>
        <time>2020-08-17T16:45:41.704Z</time>
      </trkpt>
      <trkpt lat="39.036705" lon="1.38203333">
        <ele>171.0</ele>
        <time>2020-08-17T16:45:42.672Z</time>
      </trkpt>
      <trkpt lat="39.03682833" lon="1.3821">
        <ele>171.0</ele>
        <time>2020-08-17T16:45:43.695Z</time>
      </trkpt>
      <trkpt lat="39.03682833" lon="1.3821">
        <ele>171.0</ele>
        <time>2020-08-17T16:45:44.675Z</time>
      </trkpt>
      <trkpt lat="39.03695667" lon="1.382175">
        <ele>171.0</ele>
        <time>2020-08-17T16:45:45.702Z</time>
      </trkpt>
      <trkpt lat="39.03695667" lon="1.382175">
        <ele>171.0</ele>
        <time>2020-08-17T16:45:46.700Z</time>
      </trkpt>
      <trkpt lat="39.03708667" lon="1.38225">
        <ele>172.0</ele>
        <time>2020-08-17T16:45:47.677Z</time>
      </trkpt>
      <trkpt lat="39.03708667" lon="1.38225">
        <ele>172.0</ele>
        <time>2020-08-17T16:45:48.700Z</time>
      </trkpt>
      <trkpt lat="39.03721667" lon="1.38232167">
        <ele>172.0</ele>
        <time>2020-08-17T16:45:49.692Z</time>
      </trkpt>
      <trkpt lat="39.03728167" lon="1.38235833">
        <ele>172.0</ele>
        <time>2020-08-17T16:45:50.673Z</time>
      </trkpt>
      <trkpt lat="39.03728167" lon="1.38235833">
        <ele>172.0</ele>
        <time>2020-08-17T16:45:51.700Z</time>
      </trkpt>
      <trkpt lat="39.03741167" lon="1.38242833">
        <ele>173.0</ele>
        <time>2020-08-17T16:45:52.666Z</time>
      </trkpt>
      <trkpt lat="39.037475" lon="1.382465">
        <ele>173.0</ele>
        <time>2020-08-17T16:45:53.704Z</time>
      </trkpt>
      <trkpt lat="39.037475" lon="1.382465">
        <ele>173.0</ele>
        <time>2020-08-17T16:45:54.701Z</time>
      </trkpt>
      <trkpt lat="39.03759667" lon="1.382535">
        <ele>173.0</ele>
        <time>2020-08-17T16:45:55.667Z</time>
      </trkpt>
      <trkpt lat="39.03759667" lon="1.382535">
        <ele>173.0</ele>
        <time>2020-08-17T16:45:56.700Z</time>
      </trkpt>
      <trkpt lat="39.03771667" lon="1.382605">
        <ele>174.0</ele>
        <time>2020-08-17T16:45:57.702Z</time>
      </trkpt>
      <trkpt lat="39.03771667" lon="1.382605">
        <ele>174.0</ele>
        <time>2020-08-17T16:45:58.687Z</time>
      </trkpt>
      <trkpt lat="39.037835" lon="1.38267">
        <ele>175.0</ele>
        <time>2020-08-17T16:45:59.668Z</time>
      </trkpt>
      <trkpt lat="39.037835" lon="1.38267">
        <ele>175.0</ele>
        <time>2020-08-17T16:46:00.680Z</time>
      </trkpt>
      <trkpt lat="39.03795167" lon="1.38274">
        <ele>176.0</ele>
        <time>2020-08-17T16:46:01.703Z</time>
      </trkpt>
      <trkpt lat="39.03795167" lon="1.38274">
        <ele>176.0</ele>
        <time>2020-08-17T16:46:02.704Z</time>
      </trkpt>
      <trkpt lat="39.03807167" lon="1.38280667">
        <ele>177.0</ele>
        <time>2020-08-17T16:46:03.701Z</time>
      </trkpt>
      <trkpt lat="39.03807167" lon="1.38280667">
        <ele>177.0</ele>
        <time>2020-08-17T16:46:04.690Z</time>
      </trkpt>
      <trkpt lat="39.03819167" lon="1.38287167">
        <ele>178.0</ele>
        <time>2020-08-17T16:46:05.670Z</time>
      </trkpt>
      <trkpt lat="39.03819167" lon="1.38287167">
        <ele>178.0</ele>
        <time>2020-08-17T16:46:06.700Z</time>
      </trkpt>
      <trkpt lat="39.03831333" lon="1.38292667">
        <ele>178.0</ele>
        <time>2020-08-17T16:46:07.702Z</time>
      </trkpt>
      <trkpt lat="39.03831333" lon="1.38292667">
        <ele>178.0</ele>
        <time>2020-08-17T16:46:08.688Z</time>
      </trkpt>
      <trkpt lat="39.03844" lon="1.38296333">
        <ele>178.0</ele>
        <time>2020-08-17T16:46:09.668Z</time>
      </trkpt>
      <trkpt lat="39.03844" lon="1.38296333">
        <ele>178.0</ele>
        <time>2020-08-17T16:46:10.705Z</time>
      </trkpt>
      <trkpt lat="39.03856833" lon="1.38298833">
        <ele>178.0</ele>
        <time>2020-08-17T16:46:11.704Z</time>
      </trkpt>
      <trkpt lat="39.03856833" lon="1.38298833">
        <ele>178.0</ele>
        <time>2020-08-17T16:46:12.701Z</time>
      </trkpt>
      <trkpt lat="39.03869667" lon="1.383005">
        <ele>178.0</ele>
        <time>2020-08-17T16:46:13.693Z</time>
      </trkpt>
      <trkpt lat="39.03876167" lon="1.38300833">
        <ele>179.0</ele>
        <time>2020-08-17T16:46:14.700Z</time>
      </trkpt>
      <trkpt lat="39.03876167" lon="1.38300833">
        <ele>179.0</ele>
        <time>2020-08-17T16:46:15.665Z</time>
      </trkpt>
      <trkpt lat="39.03889" lon="1.38301667">
        <ele>179.0</ele>
        <time>2020-08-17T16:46:16.704Z</time>
      </trkpt>
      <trkpt lat="39.03889" lon="1.38301667">
        <ele>179.0</ele>
        <time>2020-08-17T16:46:17.694Z</time>
      </trkpt>
      <trkpt lat="39.03901667" lon="1.38302333">
        <ele>179.0</ele>
        <time>2020-08-17T16:46:18.681Z</time>
      </trkpt>
      <trkpt lat="39.03908" lon="1.38302">
        <ele>179.0</ele>
        <time>2020-08-17T16:46:19.704Z</time>
      </trkpt>
      <trkpt lat="39.03908" lon="1.38302">
        <ele>179.0</ele>
        <time>2020-08-17T16:46:20.697Z</time>
      </trkpt>
      <trkpt lat="39.03920333" lon="1.38300833">
        <ele>179.0</ele>
        <time>2020-08-17T16:46:21.677Z</time>
      </trkpt>
      <trkpt lat="39.03920333" lon="1.38300833">
        <ele>179.0</ele>
        <time>2020-08-17T16:46:22.668Z</time>
      </trkpt>
      <trkpt lat="39.03931" lon="1.38293167">
        <ele>179.0</ele>
        <time>2020-08-17T16:46:23.704Z</time>
      </trkpt>
      <trkpt lat="39.03931" lon="1.38293167">
        <ele>179.0</ele>
        <time>2020-08-17T16:46:24.700Z</time>
      </trkpt>
      <trkpt lat="39.039395" lon="1.38275167">
        <ele>177.0</ele>
        <time>2020-08-17T16:46:25.679Z</time>
      </trkpt>
      <trkpt lat="39.039395" lon="1.38275167">
        <ele>177.0</ele>
        <time>2020-08-17T16:46:26.700Z</time>
      </trkpt>
      <trkpt lat="39.03948" lon="1.38252833">
        <ele>176.0</ele>
        <time>2020-08-17T16:46:27.679Z</time>
      </trkpt>
      <trkpt lat="39.03951833" lon="1.38241167">
        <ele>175.0</ele>
        <time>2020-08-17T16:46:28.702Z</time>
      </trkpt>
      <trkpt lat="39.03955333" lon="1.38229167">
        <ele>174.0</ele>
        <time>2020-08-17T16:46:29.704Z</time>
      </trkpt>
      <trkpt lat="39.03955333" lon="1.38229167">
        <ele>174.0</ele>
        <time>2020-08-17T16:46:30.703Z</time>
      </trkpt>
      <trkpt lat="39.039625" lon="1.38204667">
        <ele>173.0</ele>
        <time>2020-08-17T16:46:31.666Z</time>
      </trkpt>
      <trkpt lat="39.03966333" lon="1.38192167">
        <ele>171.0</ele>
        <time>2020-08-17T16:46:32.704Z</time>
      </trkpt>
      <trkpt lat="39.03966333" lon="1.38192167">
        <ele>171.0</ele>
        <time>2020-08-17T16:46:33.702Z</time>
      </trkpt>
      <trkpt lat="39.03973167" lon="1.38166667">
        <ele>170.0</ele>
        <time>2020-08-17T16:46:34.702Z</time>
      </trkpt>
      <trkpt lat="39.03977" lon="1.381545">
        <ele>170.0</ele>
        <time>2020-08-17T16:46:35.704Z</time>
      </trkpt>
      <trkpt lat="39.03977" lon="1.381545">
        <ele>170.0</ele>
        <time>2020-08-17T16:46:36.698Z</time>
      </trkpt>
      <trkpt lat="39.03987833" lon="1.38132167">
        <ele>169.0</ele>
        <time>2020-08-17T16:46:37.678Z</time>
      </trkpt>
      <trkpt lat="39.03994833" lon="1.38123833">
        <ele>168.0</ele>
        <time>2020-08-17T16:46:38.703Z</time>
      </trkpt>
      <trkpt lat="39.03994833" lon="1.38123833">
        <ele>168.0</ele>
        <time>2020-08-17T16:46:39.699Z</time>
      </trkpt>
      <trkpt lat="39.04012" lon="1.381115">
        <ele>167.0</ele>
        <time>2020-08-17T16:46:40.679Z</time>
      </trkpt>
      <trkpt lat="39.04021333" lon="1.38106167">
        <ele>167.0</ele>
        <time>2020-08-17T16:46:41.704Z</time>
      </trkpt>
      <trkpt lat="39.04021333" lon="1.38106167">
        <ele>167.0</ele>
        <time>2020-08-17T16:46:42.670Z</time>
      </trkpt>
      <trkpt lat="39.04039833" lon="1.38096833">
        <ele>166.0</ele>
        <time>2020-08-17T16:46:43.703Z</time>
      </trkpt>
      <trkpt lat="39.04039833" lon="1.38096833">
        <ele>166.0</ele>
        <time>2020-08-17T16:46:44.700Z</time>
      </trkpt>
      <trkpt lat="39.04058333" lon="1.3809">
        <ele>166.0</ele>
        <time>2020-08-17T16:46:45.679Z</time>
      </trkpt>
      <trkpt lat="39.04067667" lon="1.38087667">
        <ele>166.0</ele>
        <time>2020-08-17T16:46:46.702Z</time>
      </trkpt>
      <trkpt lat="39.04067667" lon="1.38087667">
        <ele>166.0</ele>
        <time>2020-08-17T16:46:47.693Z</time>
      </trkpt>
      <trkpt lat="39.04085333" lon="1.38082">
        <ele>166.0</ele>
        <time>2020-08-17T16:46:48.681Z</time>
      </trkpt>
      <trkpt lat="39.04094" lon="1.38079167">
        <ele>166.0</ele>
        <time>2020-08-17T16:46:49.667Z</time>
      </trkpt>
      <trkpt lat="39.04094" lon="1.38079167">
        <ele>166.0</ele>
        <time>2020-08-17T16:46:50.665Z</time>
      </trkpt>
      <trkpt lat="39.041105" lon="1.38073333">
        <ele>166.0</ele>
        <time>2020-08-17T16:46:51.704Z</time>
      </trkpt>
      <trkpt lat="39.041105" lon="1.38073333">
        <ele>166.0</ele>
        <time>2020-08-17T16:46:52.704Z</time>
      </trkpt>
      <trkpt lat="39.041265" lon="1.380675">
        <ele>166.0</ele>
        <time>2020-08-17T16:46:53.687Z</time>
      </trkpt>
      <trkpt lat="39.041265" lon="1.380675">
        <ele>166.0</ele>
        <time>2020-08-17T16:46:54.666Z</time>
      </trkpt>
      <trkpt lat="39.041425" lon="1.38062167">
        <ele>165.0</ele>
        <time>2020-08-17T16:46:55.704Z</time>
      </trkpt>
      <trkpt lat="39.041425" lon="1.38062167">
        <ele>165.0</ele>
        <time>2020-08-17T16:46:56.701Z</time>
      </trkpt>
      <trkpt lat="39.04158167" lon="1.38058">
        <ele>165.0</ele>
        <time>2020-08-17T16:46:57.703Z</time>
      </trkpt>
      <trkpt lat="39.04158167" lon="1.38058">
        <ele>165.0</ele>
        <time>2020-08-17T16:46:58.695Z</time>
      </trkpt>
      <trkpt lat="39.04174" lon="1.38055167">
        <ele>164.0</ele>
        <time>2020-08-17T16:46:59.675Z</time>
      </trkpt>
      <trkpt lat="39.04174" lon="1.38055167">
        <ele>164.0</ele>
        <time>2020-08-17T16:47:00.703Z</time>
      </trkpt>
      <trkpt lat="39.041905" lon="1.38051333">
        <ele>163.0</ele>
        <time>2020-08-17T16:47:01.703Z</time>
      </trkpt>
      <trkpt lat="39.041985" lon="1.38048167">
        <ele>163.0</ele>
        <time>2020-08-17T16:47:02.697Z</time>
      </trkpt>
      <trkpt lat="39.041985" lon="1.38048167">
        <ele>163.0</ele>
        <time>2020-08-17T16:47:03.675Z</time>
      </trkpt>
      <trkpt lat="39.04213" lon="1.38039">
        <ele>162.0</ele>
        <time>2020-08-17T16:47:04.703Z</time>
      </trkpt>
      <trkpt lat="39.04220167" lon="1.38034667">
        <ele>162.0</ele>
        <time>2020-08-17T16:47:05.703Z</time>
      </trkpt>
      <trkpt lat="39.04220167" lon="1.38034667">
        <ele>162.0</ele>
        <time>2020-08-17T16:47:06.697Z</time>
      </trkpt>
      <trkpt lat="39.04233833" lon="1.380275">
        <ele>161.0</ele>
        <time>2020-08-17T16:47:07.677Z</time>
      </trkpt>
      <trkpt lat="39.04239833" lon="1.38022833">
        <ele>161.0</ele>
        <time>2020-08-17T16:47:08.703Z</time>
      </trkpt>
      <trkpt lat="39.04239833" lon="1.38022833">
        <ele>161.0</ele>
        <time>2020-08-17T16:47:09.701Z</time>
      </trkpt>
      <trkpt lat="39.042515" lon="1.38013167">
        <ele>161.0</ele>
        <time>2020-08-17T16:47:10.702Z</time>
      </trkpt>
      <trkpt lat="39.042575" lon="1.38009">
        <ele>161.0</ele>
        <time>2020-08-17T16:47:11.702Z</time>
      </trkpt>
      <trkpt lat="39.042575" lon="1.38009">
        <ele>161.0</ele>
        <time>2020-08-17T16:47:12.703Z</time>
      </trkpt>
      <trkpt lat="39.04269333" lon="1.38000333">
        <ele>160.0</ele>
        <time>2020-08-17T16:47:13.679Z</time>
      </trkpt>
      <trkpt lat="39.04269333" lon="1.38000333">
        <ele>160.0</ele>
        <time>2020-08-17T16:47:14.686Z</time>
      </trkpt>
      <trkpt lat="39.04279667" lon="1.37989167">
        <ele>160.0</ele>
        <time>2020-08-17T16:47:15.695Z</time>
      </trkpt>
      <trkpt lat="39.042835" lon="1.37981833">
        <ele>160.0</ele>
        <time>2020-08-17T16:47:16.675Z</time>
      </trkpt>
      <trkpt lat="39.042835" lon="1.37981833">
        <ele>160.0</ele>
        <time>2020-08-17T16:47:17.702Z</time>
      </trkpt>
      <trkpt lat="39.04288333" lon="1.37965333">
        <ele>160.0</ele>
        <time>2020-08-17T16:47:18.703Z</time>
      </trkpt>
      <trkpt lat="39.04290167" lon="1.37956833">
        <ele>160.0</ele>
        <time>2020-08-17T16:47:19.701Z</time>
      </trkpt>
      <trkpt lat="39.04290167" lon="1.37956833">
        <ele>160.0</ele>
        <time>2020-08-17T16:47:20.695Z</time>
      </trkpt>
      <trkpt lat="39.04293833" lon="1.37939667">
        <ele>160.0</ele>
        <time>2020-08-17T16:47:21.676Z</time>
      </trkpt>
      <trkpt lat="39.04293833" lon="1.37939667">
        <ele>160.0</ele>
        <time>2020-08-17T16:47:22.703Z</time>
      </trkpt>
      <trkpt lat="39.042985" lon="1.37922667">
        <ele>160.0</ele>
        <time>2020-08-17T16:47:23.672Z</time>
      </trkpt>
      <trkpt lat="39.042985" lon="1.37922667">
        <ele>160.0</ele>
        <time>2020-08-17T16:47:24.701Z</time>
      </trkpt>
      <trkpt lat="39.04302" lon="1.379055">
        <ele>160.0</ele>
        <time>2020-08-17T16:47:25.693Z</time>
      </trkpt>
      <trkpt lat="39.04304167" lon="1.37897167">
        <ele>160.0</ele>
        <time>2020-08-17T16:47:26.675Z</time>
      </trkpt>
      <trkpt lat="39.04304167" lon="1.37897167">
        <ele>160.0</ele>
        <time>2020-08-17T16:47:27.701Z</time>
      </trkpt>
      <trkpt lat="39.04308833" lon="1.37880667">
        <ele>160.0</ele>
        <time>2020-08-17T16:47:28.703Z</time>
      </trkpt>
      <trkpt lat="39.04310833" lon="1.37872333">
        <ele>160.0</ele>
        <time>2020-08-17T16:47:29.690Z</time>
      </trkpt>
      <trkpt lat="39.04310833" lon="1.37872333">
        <ele>160.0</ele>
        <time>2020-08-17T16:47:30.670Z</time>
      </trkpt>
      <trkpt lat="39.04314333" lon="1.37855667">
        <ele>160.0</ele>
        <time>2020-08-17T16:47:31.704Z</time>
      </trkpt>
      <trkpt lat="39.04314333" lon="1.37855667">
        <ele>160.0</ele>
        <time>2020-08-17T16:47:32.701Z</time>
      </trkpt>
      <trkpt lat="39.04317833" lon="1.37838667">
        <ele>160.0</ele>
        <time>2020-08-17T16:47:33.689Z</time>
      </trkpt>
      <trkpt lat="39.04317833" lon="1.37838667">
        <ele>160.0</ele>
        <time>2020-08-17T16:47:34.669Z</time>
      </trkpt>
      <trkpt lat="39.04319167" lon="1.37821667">
        <ele>160.0</ele>
        <time>2020-08-17T16:47:35.703Z</time>
      </trkpt>
      <trkpt lat="39.04319167" lon="1.37821667">
        <ele>160.0</ele>
        <time>2020-08-17T16:47:36.700Z</time>
      </trkpt>
      <trkpt lat="39.04316667" lon="1.378045">
        <ele>160.0</ele>
        <time>2020-08-17T16:47:37.703Z</time>
      </trkpt>
      <trkpt lat="39.04316667" lon="1.378045">
        <ele>160.0</ele>
        <time>2020-08-17T16:47:38.703Z</time>
      </trkpt>
      <trkpt lat="39.04311667" lon="1.37787833">
        <ele>160.0</ele>
        <time>2020-08-17T16:47:39.691Z</time>
      </trkpt>
      <trkpt lat="39.04311667" lon="1.37787833">
        <ele>160.0</ele>
        <time>2020-08-17T16:47:40.671Z</time>
      </trkpt>
      <trkpt lat="39.04305833" lon="1.377715">
        <ele>159.0</ele>
        <time>2020-08-17T16:47:41.704Z</time>
      </trkpt>
      <trkpt lat="39.04302833" lon="1.377635">
        <ele>159.0</ele>
        <time>2020-08-17T16:47:42.703Z</time>
      </trkpt>
      <trkpt lat="39.04302833" lon="1.377635">
        <ele>159.0</ele>
        <time>2020-08-17T16:47:43.694Z</time>
      </trkpt>
      <trkpt lat="39.04296667" lon="1.37747333">
        <ele>159.0</ele>
        <time>2020-08-17T16:47:44.677Z</time>
      </trkpt>
      <trkpt lat="39.04296667" lon="1.37747333">
        <ele>159.0</ele>
        <time>2020-08-17T16:47:45.702Z</time>
      </trkpt>
      <trkpt lat="39.04291167" lon="1.37731167">
        <ele>159.0</ele>
        <time>2020-08-17T16:47:46.665Z</time>
      </trkpt>
      <trkpt lat="39.042885" lon="1.37723167">
        <ele>159.0</ele>
        <time>2020-08-17T16:47:47.673Z</time>
      </trkpt>
      <trkpt lat="39.042885" lon="1.37723167">
        <ele>159.0</ele>
        <time>2020-08-17T16:47:48.694Z</time>
      </trkpt>
      <trkpt lat="39.04283167" lon="1.377075">
        <ele>159.0</ele>
        <time>2020-08-17T16:47:49.674Z</time>
      </trkpt>
      <trkpt lat="39.04283167" lon="1.377075">
        <ele>159.0</ele>
        <time>2020-08-17T16:47:50.701Z</time>
      </trkpt>
      <trkpt lat="39.04278" lon="1.37692">
        <ele>159.0</ele>
        <time>2020-08-17T16:47:51.700Z</time>
      </trkpt>
      <trkpt lat="39.04278" lon="1.37692">
        <ele>159.0</ele>
        <time>2020-08-17T16:47:52.703Z</time>
      </trkpt>
      <trkpt lat="39.04273" lon="1.37677">
        <ele>160.0</ele>
        <time>2020-08-17T16:47:53.699Z</time>
      </trkpt>
      <trkpt lat="39.04273" lon="1.37677">
        <ele>160.0</ele>
        <time>2020-08-17T16:47:54.679Z</time>
      </trkpt>
      <trkpt lat="39.04268" lon="1.37663167">
        <ele>160.0</ele>
        <time>2020-08-17T16:47:55.703Z</time>
      </trkpt>
      <trkpt lat="39.04265667" lon="1.37656667">
        <ele>161.0</ele>
        <time>2020-08-17T16:47:56.703Z</time>
      </trkpt>
      <trkpt lat="39.042635" lon="1.37650167">
        <ele>161.0</ele>
        <time>2020-08-17T16:47:57.694Z</time>
      </trkpt>
      <trkpt lat="39.042635" lon="1.37650167">
        <ele>161.0</ele>
        <time>2020-08-17T16:47:58.673Z</time>
      </trkpt>
      <trkpt lat="39.04262667" lon="1.37636333">
        <ele>162.0</ele>
        <time>2020-08-17T16:47:59.704Z</time>
      </trkpt>
      <trkpt lat="39.04262667" lon="1.37636333">
        <ele>162.0</ele>
        <time>2020-08-17T16:48:00.701Z</time>
      </trkpt>
      <trkpt lat="39.04267833" lon="1.376235">
        <ele>162.0</ele>
        <time>2020-08-17T16:48:01.670Z</time>
      </trkpt>
      <trkpt lat="39.04267833" lon="1.376235">
        <ele>162.0</ele>
        <time>2020-08-17T16:48:02.700Z</time>
      </trkpt>
      <trkpt lat="39.042755" lon="1.37612167">
        <ele>162.0</ele>
        <time>2020-08-17T16:48:03.665Z</time>
      </trkpt>
      <trkpt lat="39.042755" lon="1.37612167">
        <ele>162.0</ele>
        <time>2020-08-17T16:48:04.700Z</time>
      </trkpt>
      <trkpt lat="39.04283333" lon="1.37600167">
        <ele>162.0</ele>
        <time>2020-08-17T16:48:05.679Z</time>
      </trkpt>
      <trkpt lat="39.04283333" lon="1.37600167">
        <ele>162.0</ele>
        <time>2020-08-17T16:48:06.703Z</time>
      </trkpt>
      <trkpt lat="39.04291167" lon="1.37587667">
        <ele>162.0</ele>
        <time>2020-08-17T16:48:07.668Z</time>
      </trkpt>
      <trkpt lat="39.04291167" lon="1.37587667">
        <ele>162.0</ele>
        <time>2020-08-17T16:48:08.701Z</time>
      </trkpt>
      <trkpt lat="39.04299167" lon="1.37575167">
        <ele>161.0</ele>
        <time>2020-08-17T16:48:09.665Z</time>
      </trkpt>
      <trkpt lat="39.04299167" lon="1.37575167">
        <ele>161.0</ele>
        <time>2020-08-17T16:48:10.705Z</time>
      </trkpt>
      <trkpt lat="39.04307333" lon="1.37562833">
        <ele>161.0</ele>
        <time>2020-08-17T16:48:11.665Z</time>
      </trkpt>
      <trkpt lat="39.04307333" lon="1.37562833">
        <ele>161.0</ele>
        <time>2020-08-17T16:48:12.701Z</time>
      </trkpt>
      <trkpt lat="39.04315667" lon="1.37550333">
        <ele>161.0</ele>
        <time>2020-08-17T16:48:13.671Z</time>
      </trkpt>
      <trkpt lat="39.04315667" lon="1.37550333">
        <ele>161.0</ele>
        <time>2020-08-17T16:48:14.700Z</time>
      </trkpt>
      <trkpt lat="39.04324167" lon="1.37538167">
        <ele>160.0</ele>
        <time>2020-08-17T16:48:15.672Z</time>
      </trkpt>
      <trkpt lat="39.04328333" lon="1.37532167">
        <ele>160.0</ele>
        <time>2020-08-17T16:48:16.703Z</time>
      </trkpt>
      <trkpt lat="39.04333" lon="1.37526">
        <ele>160.0</ele>
        <time>2020-08-17T16:48:17.696Z</time>
      </trkpt>
      <trkpt lat="39.04333" lon="1.37526">
        <ele>160.0</ele>
        <time>2020-08-17T16:48:18.677Z</time>
      </trkpt>
      <trkpt lat="39.04342" lon="1.375135">
        <ele>160.0</ele>
        <time>2020-08-17T16:48:19.668Z</time>
      </trkpt>
      <trkpt lat="39.04342" lon="1.375135">
        <ele>160.0</ele>
        <time>2020-08-17T16:48:20.670Z</time>
      </trkpt>
      <trkpt lat="39.04351333" lon="1.375005">
        <ele>161.0</ele>
        <time>2020-08-17T16:48:21.704Z</time>
      </trkpt>
      <trkpt lat="39.04355833" lon="1.37494">
        <ele>161.0</ele>
        <time>2020-08-17T16:48:22.700Z</time>
      </trkpt>
      <trkpt lat="39.04355833" lon="1.37494">
        <ele>161.0</ele>
        <time>2020-08-17T16:48:23.684Z</time>
      </trkpt>
      <trkpt lat="39.04364833" lon="1.37481333">
        <ele>161.0</ele>
        <time>2020-08-17T16:48:24.665Z</time>
      </trkpt>
      <trkpt lat="39.04364833" lon="1.37481333">
        <ele>161.0</ele>
        <time>2020-08-17T16:48:25.690Z</time>
      </trkpt>
      <trkpt lat="39.04373667" lon="1.37469167">
        <ele>161.0</ele>
        <time>2020-08-17T16:48:26.682Z</time>
      </trkpt>
      <trkpt lat="39.04373667" lon="1.37469167">
        <ele>161.0</ele>
        <time>2020-08-17T16:48:27.702Z</time>
      </trkpt>
      <trkpt lat="39.04382167" lon="1.37457">
        <ele>161.0</ele>
        <time>2020-08-17T16:48:28.701Z</time>
      </trkpt>
      <trkpt lat="39.043865" lon="1.37450833">
        <ele>161.0</ele>
        <time>2020-08-17T16:48:29.679Z</time>
      </trkpt>
      <trkpt lat="39.043865" lon="1.37450833">
        <ele>161.0</ele>
        <time>2020-08-17T16:48:30.668Z</time>
      </trkpt>
      <trkpt lat="39.04394333" lon="1.374385">
        <ele>161.0</ele>
        <time>2020-08-17T16:48:31.705Z</time>
      </trkpt>
      <trkpt lat="39.04394333" lon="1.374385">
        <ele>161.0</ele>
        <time>2020-08-17T16:48:32.700Z</time>
      </trkpt>
      <trkpt lat="39.044015" lon="1.37426">
        <ele>161.0</ele>
        <time>2020-08-17T16:48:33.691Z</time>
      </trkpt>
      <trkpt lat="39.044015" lon="1.37426">
        <ele>161.0</ele>
        <time>2020-08-17T16:48:34.670Z</time>
      </trkpt>
      <trkpt lat="39.04409" lon="1.37414">
        <ele>162.0</ele>
        <time>2020-08-17T16:48:35.702Z</time>
      </trkpt>
      <trkpt lat="39.04409" lon="1.37414">
        <ele>162.0</ele>
        <time>2020-08-17T16:48:36.695Z</time>
      </trkpt>
      <trkpt lat="39.04416167" lon="1.374025">
        <ele>162.0</ele>
        <time>2020-08-17T16:48:37.675Z</time>
      </trkpt>
      <trkpt lat="39.04419667" lon="1.37396667">
        <ele>162.0</ele>
        <time>2020-08-17T16:48:38.703Z</time>
      </trkpt>
      <trkpt lat="39.04419667" lon="1.37396667">
        <ele>162.0</ele>
        <time>2020-08-17T16:48:39.702Z</time>
      </trkpt>
      <trkpt lat="39.04426333" lon="1.37384667">
        <ele>162.0</ele>
        <time>2020-08-17T16:48:40.695Z</time>
      </trkpt>
      <trkpt lat="39.044295" lon="1.373785">
        <ele>162.0</ele>
        <time>2020-08-17T16:48:41.675Z</time>
      </trkpt>
      <trkpt lat="39.044295" lon="1.373785">
        <ele>162.0</ele>
        <time>2020-08-17T16:48:42.702Z</time>
      </trkpt>
      <trkpt lat="39.04436" lon="1.37366">
        <ele>162.0</ele>
        <time>2020-08-17T16:48:43.667Z</time>
      </trkpt>
      <trkpt lat="39.04436" lon="1.37366">
        <ele>162.0</ele>
        <time>2020-08-17T16:48:44.702Z</time>
      </trkpt>
      <trkpt lat="39.04442667" lon="1.37353833">
        <ele>163.0</ele>
        <time>2020-08-17T16:48:45.700Z</time>
      </trkpt>
      <trkpt lat="39.04445833" lon="1.373475">
        <ele>163.0</ele>
        <time>2020-08-17T16:48:46.681Z</time>
      </trkpt>
      <trkpt lat="39.04445833" lon="1.373475">
        <ele>163.0</ele>
        <time>2020-08-17T16:48:47.702Z</time>
      </trkpt>
      <trkpt lat="39.04452333" lon="1.37335167">
        <ele>163.0</ele>
        <time>2020-08-17T16:48:48.703Z</time>
      </trkpt>
      <trkpt lat="39.04452333" lon="1.37335167">
        <ele>163.0</ele>
        <time>2020-08-17T16:48:49.690Z</time>
      </trkpt>
      <trkpt lat="39.04459" lon="1.37323333">
        <ele>163.0</ele>
        <time>2020-08-17T16:48:50.672Z</time>
      </trkpt>
      <trkpt lat="39.04459" lon="1.37323333">
        <ele>163.0</ele>
        <time>2020-08-17T16:48:51.701Z</time>
      </trkpt>
      <trkpt lat="39.04465667" lon="1.37311333">
        <ele>163.0</ele>
        <time>2020-08-17T16:48:52.703Z</time>
      </trkpt>
      <trkpt lat="39.04465667" lon="1.37311333">
        <ele>163.0</ele>
        <time>2020-08-17T16:48:53.667Z</time>
      </trkpt>
      <trkpt lat="39.04472" lon="1.372995">
        <ele>164.0</ele>
        <time>2020-08-17T16:48:54.703Z</time>
      </trkpt>
      <trkpt lat="39.04475" lon="1.372935">
        <ele>164.0</ele>
        <time>2020-08-17T16:48:55.668Z</time>
      </trkpt>
      <trkpt lat="39.04475" lon="1.372935">
        <ele>164.0</ele>
        <time>2020-08-17T16:48:56.701Z</time>
      </trkpt>
      <trkpt lat="39.04480833" lon="1.372815">
        <ele>164.0</ele>
        <time>2020-08-17T16:48:57.704Z</time>
      </trkpt>
      <trkpt lat="39.04480833" lon="1.372815">
        <ele>164.0</ele>
        <time>2020-08-17T16:48:58.693Z</time>
      </trkpt>
      <trkpt lat="39.04486667" lon="1.3727">
        <ele>165.0</ele>
        <time>2020-08-17T16:48:59.673Z</time>
      </trkpt>
      <trkpt lat="39.04486667" lon="1.3727">
        <ele>165.0</ele>
        <time>2020-08-17T16:49:00.665Z</time>
      </trkpt>
      <trkpt lat="39.04492833" lon="1.37259167">
        <ele>165.0</ele>
        <time>2020-08-17T16:49:01.674Z</time>
      </trkpt>
      <trkpt lat="39.04492833" lon="1.37259167">
        <ele>165.0</ele>
        <time>2020-08-17T16:49:02.701Z</time>
      </trkpt>
      <trkpt lat="39.04499833" lon="1.37249167">
        <ele>165.0</ele>
        <time>2020-08-17T16:49:03.703Z</time>
      </trkpt>
      <trkpt lat="39.04499833" lon="1.37249167">
        <ele>165.0</ele>
        <time>2020-08-17T16:49:04.679Z</time>
      </trkpt>
      <trkpt lat="39.045075" lon="1.3724">
        <ele>166.0</ele>
        <time>2020-08-17T16:49:05.665Z</time>
      </trkpt>
      <trkpt lat="39.045075" lon="1.3724">
        <ele>166.0</ele>
        <time>2020-08-17T16:49:06.701Z</time>
      </trkpt>
      <trkpt lat="39.04515333" lon="1.37231">
        <ele>166.0</ele>
        <time>2020-08-17T16:49:07.704Z</time>
      </trkpt>
      <trkpt lat="39.04515333" lon="1.37231">
        <ele>166.0</ele>
        <time>2020-08-17T16:49:08.701Z</time>
      </trkpt>
      <trkpt lat="39.045235" lon="1.37221833">
        <ele>166.0</ele>
        <time>2020-08-17T16:49:09.702Z</time>
      </trkpt>
      <trkpt lat="39.045275" lon="1.37217333">
        <ele>166.0</ele>
        <time>2020-08-17T16:49:10.666Z</time>
      </trkpt>
      <trkpt lat="39.045275" lon="1.37217333">
        <ele>166.0</ele>
        <time>2020-08-17T16:49:11.702Z</time>
      </trkpt>
      <trkpt lat="39.04535833" lon="1.37208333">
        <ele>167.0</ele>
        <time>2020-08-17T16:49:12.701Z</time>
      </trkpt>
      <trkpt lat="39.04540333" lon="1.37204333">
        <ele>167.0</ele>
        <time>2020-08-17T16:49:13.668Z</time>
      </trkpt>
      <trkpt lat="39.04540333" lon="1.37204333">
        <ele>167.0</ele>
        <time>2020-08-17T16:49:14.680Z</time>
      </trkpt>
      <trkpt lat="39.045495" lon="1.37196833">
        <ele>168.0</ele>
        <time>2020-08-17T16:49:15.669Z</time>
      </trkpt>
      <trkpt lat="39.045495" lon="1.37196833">
        <ele>168.0</ele>
        <time>2020-08-17T16:49:16.676Z</time>
      </trkpt>
      <trkpt lat="39.04559667" lon="1.37191833">
        <ele>168.0</ele>
        <time>2020-08-17T16:49:17.682Z</time>
      </trkpt>
      <trkpt lat="39.04559667" lon="1.37191833">
        <ele>168.0</ele>
        <time>2020-08-17T16:49:18.702Z</time>
      </trkpt>
      <trkpt lat="39.04570667" lon="1.371885">
        <ele>169.0</ele>
        <time>2020-08-17T16:49:19.701Z</time>
      </trkpt>
      <trkpt lat="39.04576333" lon="1.37186833">
        <ele>169.0</ele>
        <time>2020-08-17T16:49:20.677Z</time>
      </trkpt>
      <trkpt lat="39.04576333" lon="1.37186833">
        <ele>169.0</ele>
        <time>2020-08-17T16:49:21.700Z</time>
      </trkpt>
      <trkpt lat="39.045875" lon="1.37183667">
        <ele>169.0</ele>
        <time>2020-08-17T16:49:22.680Z</time>
      </trkpt>
      <trkpt lat="39.04593167" lon="1.37181833">
        <ele>169.0</ele>
        <time>2020-08-17T16:49:23.665Z</time>
      </trkpt>
      <trkpt lat="39.04593167" lon="1.37181833">
        <ele>169.0</ele>
        <time>2020-08-17T16:49:24.687Z</time>
      </trkpt>
      <trkpt lat="39.046045" lon="1.37179333">
        <ele>170.0</ele>
        <time>2020-08-17T16:49:25.672Z</time>
      </trkpt>
      <trkpt lat="39.046045" lon="1.37179333">
        <ele>170.0</ele>
        <time>2020-08-17T16:49:26.701Z</time>
      </trkpt>
      <trkpt lat="39.04615167" lon="1.371805">
        <ele>170.0</ele>
        <time>2020-08-17T16:49:27.694Z</time>
      </trkpt>
      <trkpt lat="39.04615167" lon="1.371805">
        <ele>170.0</ele>
        <time>2020-08-17T16:49:28.673Z</time>
      </trkpt>
      <trkpt lat="39.04625333" lon="1.37180167">
        <ele>171.0</ele>
        <time>2020-08-17T16:49:29.705Z</time>
      </trkpt>
      <trkpt lat="39.04625333" lon="1.37180167">
        <ele>171.0</ele>
        <time>2020-08-17T16:49:30.665Z</time>
      </trkpt>
      <trkpt lat="39.04634333" lon="1.37177">
        <ele>171.0</ele>
        <time>2020-08-17T16:49:31.666Z</time>
      </trkpt>
      <trkpt lat="39.04634333" lon="1.37177">
        <ele>171.0</ele>
        <time>2020-08-17T16:49:32.701Z</time>
      </trkpt>
      <trkpt lat="39.04642667" lon="1.37173167">
        <ele>172.0</ele>
        <time>2020-08-17T16:49:33.703Z</time>
      </trkpt>
      <trkpt lat="39.04642667" lon="1.37173167">
        <ele>172.0</ele>
        <time>2020-08-17T16:49:34.696Z</time>
      </trkpt>
      <trkpt lat="39.04650833" lon="1.371685">
        <ele>172.0</ele>
        <time>2020-08-17T16:49:35.675Z</time>
      </trkpt>
      <trkpt lat="39.04650833" lon="1.371685">
        <ele>172.0</ele>
        <time>2020-08-17T16:49:36.697Z</time>
      </trkpt>
      <trkpt lat="39.04659333" lon="1.371625">
        <ele>172.0</ele>
        <time>2020-08-17T16:49:37.678Z</time>
      </trkpt>
      <trkpt lat="39.04659333" lon="1.371625">
        <ele>172.0</ele>
        <time>2020-08-17T16:49:38.702Z</time>
      </trkpt>
      <trkpt lat="39.046675" lon="1.37156167">
        <ele>173.0</ele>
        <time>2020-08-17T16:49:39.702Z</time>
      </trkpt>
      <trkpt lat="39.046675" lon="1.37156167">
        <ele>173.0</ele>
        <time>2020-08-17T16:49:40.701Z</time>
      </trkpt>
      <trkpt lat="39.04676167" lon="1.37148833">
        <ele>172.0</ele>
        <time>2020-08-17T16:49:41.680Z</time>
      </trkpt>
      <trkpt lat="39.046805" lon="1.37145667">
        <ele>172.0</ele>
        <time>2020-08-17T16:49:42.703Z</time>
      </trkpt>
      <trkpt lat="39.04684833" lon="1.371425">
        <ele>172.0</ele>
        <time>2020-08-17T16:49:43.704Z</time>
      </trkpt>
      <trkpt lat="39.04684833" lon="1.371425">
        <ele>172.0</ele>
        <time>2020-08-17T16:49:44.696Z</time>
      </trkpt>
      <trkpt lat="39.04694333" lon="1.371375">
        <ele>172.0</ele>
        <time>2020-08-17T16:49:45.677Z</time>
      </trkpt>
      <trkpt lat="39.04699667" lon="1.37135">
        <ele>173.0</ele>
        <time>2020-08-17T16:49:46.695Z</time>
      </trkpt>
      <trkpt lat="39.04699667" lon="1.37135">
        <ele>173.0</ele>
        <time>2020-08-17T16:49:47.675Z</time>
      </trkpt>
      <trkpt lat="39.04709833" lon="1.37129667">
        <ele>173.0</ele>
        <time>2020-08-17T16:49:48.704Z</time>
      </trkpt>
      <trkpt lat="39.04709833" lon="1.37129667">
        <ele>173.0</ele>
        <time>2020-08-17T16:49:49.690Z</time>
      </trkpt>
      <trkpt lat="39.04718833" lon="1.37124">
        <ele>174.0</ele>
        <time>2020-08-17T16:49:50.678Z</time>
      </trkpt>
      <trkpt lat="39.04718833" lon="1.37124">
        <ele>174.0</ele>
        <time>2020-08-17T16:49:51.665Z</time>
      </trkpt>
      <trkpt lat="39.047275" lon="1.37117167">
        <ele>174.0</ele>
        <time>2020-08-17T16:49:52.702Z</time>
      </trkpt>
      <trkpt lat="39.047275" lon="1.37117167">
        <ele>174.0</ele>
        <time>2020-08-17T16:49:53.702Z</time>
      </trkpt>
      <trkpt lat="39.04736833" lon="1.37109">
        <ele>173.0</ele>
        <time>2020-08-17T16:49:54.703Z</time>
      </trkpt>
      <trkpt lat="39.04736833" lon="1.37109">
        <ele>173.0</ele>
        <time>2020-08-17T16:49:55.693Z</time>
      </trkpt>
      <trkpt lat="39.04749" lon="1.37102">
        <ele>173.0</ele>
        <time>2020-08-17T16:49:56.674Z</time>
      </trkpt>
      <trkpt lat="39.04755833" lon="1.37100167">
        <ele>172.0</ele>
        <time>2020-08-17T16:49:57.704Z</time>
      </trkpt>
      <trkpt lat="39.04755833" lon="1.37100167">
        <ele>172.0</ele>
        <time>2020-08-17T16:49:58.701Z</time>
      </trkpt>
      <trkpt lat="39.047705" lon="1.37098">
        <ele>172.0</ele>
        <time>2020-08-17T16:49:59.681Z</time>
      </trkpt>
      <trkpt lat="39.047705" lon="1.37098">
        <ele>172.0</ele>
        <time>2020-08-17T16:50:00.686Z</time>
      </trkpt>
      <trkpt lat="39.04785167" lon="1.37098667">
        <ele>171.0</ele>
        <time>2020-08-17T16:50:01.675Z</time>
      </trkpt>
      <trkpt lat="39.04785167" lon="1.37098667">
        <ele>171.0</ele>
        <time>2020-08-17T16:50:02.700Z</time>
      </trkpt>
      <trkpt lat="39.04800167" lon="1.37103">
        <ele>171.0</ele>
        <time>2020-08-17T16:50:03.679Z</time>
      </trkpt>
      <trkpt lat="39.04809" lon="1.37103">
        <ele>170.0</ele>
        <time>2020-08-17T16:50:04.704Z</time>
      </trkpt>
      <trkpt lat="39.04809" lon="1.37103">
        <ele>170.0</ele>
        <time>2020-08-17T16:50:05.695Z</time>
      </trkpt>
      <trkpt lat="39.04826667" lon="1.37095">
        <ele>170.0</ele>
        <time>2020-08-17T16:50:06.677Z</time>
      </trkpt>
      <trkpt lat="39.04826667" lon="1.37095">
        <ele>170.0</ele>
        <time>2020-08-17T16:50:07.665Z</time>
      </trkpt>
      <trkpt lat="39.04841667" lon="1.37082667">
        <ele>169.0</ele>
        <time>2020-08-17T16:50:08.701Z</time>
      </trkpt>
      <trkpt lat="39.04841667" lon="1.37082667">
        <ele>169.0</ele>
        <time>2020-08-17T16:50:09.703Z</time>
      </trkpt>
      <trkpt lat="39.04857" lon="1.37072667">
        <ele>169.0</ele>
        <time>2020-08-17T16:50:10.696Z</time>
      </trkpt>
      <trkpt lat="39.04865" lon="1.37069833">
        <ele>168.0</ele>
        <time>2020-08-17T16:50:11.678Z</time>
      </trkpt>
      <trkpt lat="39.04865" lon="1.37069833">
        <ele>168.0</ele>
        <time>2020-08-17T16:50:12.702Z</time>
      </trkpt>
      <trkpt lat="39.04881333" lon="1.37069333">
        <ele>168.0</ele>
        <time>2020-08-17T16:50:13.691Z</time>
      </trkpt>
      <trkpt lat="39.04881333" lon="1.37069333">
        <ele>168.0</ele>
        <time>2020-08-17T16:50:14.675Z</time>
      </trkpt>
      <trkpt lat="39.04896333" lon="1.37074167">
        <ele>168.0</ele>
        <time>2020-08-17T16:50:15.672Z</time>
      </trkpt>
      <trkpt lat="39.04903833" lon="1.37077">
        <ele>168.0</ele>
        <time>2020-08-17T16:50:16.702Z</time>
      </trkpt>
      <trkpt lat="39.04903833" lon="1.37077">
        <ele>168.0</ele>
        <time>2020-08-17T16:50:17.681Z</time>
      </trkpt>
      <trkpt lat="39.04918167" lon="1.37083">
        <ele>168.0</ele>
        <time>2020-08-17T16:50:18.672Z</time>
      </trkpt>
      <trkpt lat="39.04925167" lon="1.37085667">
        <ele>168.0</ele>
        <time>2020-08-17T16:50:19.703Z</time>
      </trkpt>
      <trkpt lat="39.04925167" lon="1.37085667">
        <ele>168.0</ele>
        <time>2020-08-17T16:50:20.695Z</time>
      </trkpt>
      <trkpt lat="39.04939167" lon="1.37090833">
        <ele>169.0</ele>
        <time>2020-08-17T16:50:21.675Z</time>
      </trkpt>
      <trkpt lat="39.04939167" lon="1.37090833">
        <ele>169.0</ele>
        <time>2020-08-17T16:50:22.702Z</time>
      </trkpt>
      <trkpt lat="39.04953167" lon="1.37096167">
        <ele>169.0</ele>
        <time>2020-08-17T16:50:23.702Z</time>
      </trkpt>
      <trkpt lat="39.04953167" lon="1.37096167">
        <ele>169.0</ele>
        <time>2020-08-17T16:50:24.694Z</time>
      </trkpt>
      <trkpt lat="39.04966833" lon="1.37100833">
        <ele>170.0</ele>
        <time>2020-08-17T16:50:25.675Z</time>
      </trkpt>
      <trkpt lat="39.04966833" lon="1.37100833">
        <ele>170.0</ele>
        <time>2020-08-17T16:50:26.702Z</time>
      </trkpt>
      <trkpt lat="39.049805" lon="1.37104333">
        <ele>170.0</ele>
        <time>2020-08-17T16:50:27.704Z</time>
      </trkpt>
      <trkpt lat="39.049805" lon="1.37104333">
        <ele>170.0</ele>
        <time>2020-08-17T16:50:28.691Z</time>
      </trkpt>
      <trkpt lat="39.04993833" lon="1.37106667">
        <ele>171.0</ele>
        <time>2020-08-17T16:50:29.672Z</time>
      </trkpt>
      <trkpt lat="39.04993833" lon="1.37106667">
        <ele>171.0</ele>
        <time>2020-08-17T16:50:30.702Z</time>
      </trkpt>
      <trkpt lat="39.05006833" lon="1.371085">
        <ele>171.0</ele>
        <time>2020-08-17T16:50:31.704Z</time>
      </trkpt>
      <trkpt lat="39.05006833" lon="1.371085">
        <ele>171.0</ele>
        <time>2020-08-17T16:50:32.702Z</time>
      </trkpt>
      <trkpt lat="39.050195" lon="1.37109833">
        <ele>172.0</ele>
        <time>2020-08-17T16:50:33.701Z</time>
      </trkpt>
      <trkpt lat="39.050195" lon="1.37109833">
        <ele>172.0</ele>
        <time>2020-08-17T16:50:34.680Z</time>
      </trkpt>
      <trkpt lat="39.05032167" lon="1.37111833">
        <ele>172.0</ele>
        <time>2020-08-17T16:50:35.705Z</time>
      </trkpt>
      <trkpt lat="39.05032167" lon="1.37111833">
        <ele>172.0</ele>
        <time>2020-08-17T16:50:36.702Z</time>
      </trkpt>
      <trkpt lat="39.05045167" lon="1.37113833">
        <ele>172.0</ele>
        <time>2020-08-17T16:50:37.665Z</time>
      </trkpt>
      <trkpt lat="39.05045167" lon="1.37113833">
        <ele>172.0</ele>
        <time>2020-08-17T16:50:38.700Z</time>
      </trkpt>
      <trkpt lat="39.05058833" lon="1.37116">
        <ele>172.0</ele>
        <time>2020-08-17T16:50:39.680Z</time>
      </trkpt>
      <trkpt lat="39.05058833" lon="1.37116">
        <ele>172.0</ele>
        <time>2020-08-17T16:50:40.702Z</time>
      </trkpt>
      <trkpt lat="39.05072833" lon="1.37117833">
        <ele>172.0</ele>
        <time>2020-08-17T16:50:41.665Z</time>
      </trkpt>
      <trkpt lat="39.05072833" lon="1.37117833">
        <ele>172.0</ele>
        <time>2020-08-17T16:50:42.701Z</time>
      </trkpt>
      <trkpt lat="39.050865" lon="1.37119833">
        <ele>170.0</ele>
        <time>2020-08-17T16:50:43.680Z</time>
      </trkpt>
      <trkpt lat="39.050865" lon="1.37119833">
        <ele>170.0</ele>
        <time>2020-08-17T16:50:44.702Z</time>
      </trkpt>
      <trkpt lat="39.05099833" lon="1.371235">
        <ele>170.0</ele>
        <time>2020-08-17T16:50:45.680Z</time>
      </trkpt>
      <trkpt lat="39.05099833" lon="1.371235">
        <ele>170.0</ele>
        <time>2020-08-17T16:50:46.673Z</time>
      </trkpt>
      <trkpt lat="39.05113167" lon="1.37129">
        <ele>170.0</ele>
        <time>2020-08-17T16:50:47.674Z</time>
      </trkpt>
      <trkpt lat="39.05119667" lon="1.37132">
        <ele>171.0</ele>
        <time>2020-08-17T16:50:48.665Z</time>
      </trkpt>
      <trkpt lat="39.05126167" lon="1.371355">
        <ele>171.0</ele>
        <time>2020-08-17T16:50:49.665Z</time>
      </trkpt>
      <trkpt lat="39.05126167" lon="1.371355">
        <ele>171.0</ele>
        <time>2020-08-17T16:50:50.694Z</time>
      </trkpt>
      <trkpt lat="39.05139" lon="1.37142333">
        <ele>171.0</ele>
        <time>2020-08-17T16:50:51.675Z</time>
      </trkpt>
      <trkpt lat="39.05139" lon="1.37142333">
        <ele>171.0</ele>
        <time>2020-08-17T16:50:52.682Z</time>
      </trkpt>
      <trkpt lat="39.05152333" lon="1.371485">
        <ele>171.0</ele>
        <time>2020-08-17T16:50:53.690Z</time>
      </trkpt>
      <trkpt lat="39.05152333" lon="1.371485">
        <ele>171.0</ele>
        <time>2020-08-17T16:50:54.696Z</time>
      </trkpt>
      <trkpt lat="39.05165" lon="1.37155667">
        <ele>171.0</ele>
        <time>2020-08-17T16:50:55.673Z</time>
      </trkpt>
      <trkpt lat="39.05165" lon="1.37155667">
        <ele>171.0</ele>
        <time>2020-08-17T16:50:56.702Z</time>
      </trkpt>
      <trkpt lat="39.05177" lon="1.37164167">
        <ele>172.0</ele>
        <time>2020-08-17T16:50:57.703Z</time>
      </trkpt>
      <trkpt lat="39.05177" lon="1.37164167">
        <ele>172.0</ele>
        <time>2020-08-17T16:50:58.702Z</time>
      </trkpt>
      <trkpt lat="39.05188" lon="1.37173833">
        <ele>172.0</ele>
        <time>2020-08-17T16:50:59.682Z</time>
      </trkpt>
      <trkpt lat="39.05188" lon="1.37173833">
        <ele>172.0</ele>
        <time>2020-08-17T16:51:00.666Z</time>
      </trkpt>
      <trkpt lat="39.05198667" lon="1.371835">
        <ele>172.0</ele>
        <time>2020-08-17T16:51:01.670Z</time>
      </trkpt>
      <trkpt lat="39.05198667" lon="1.371835">
        <ele>172.0</ele>
        <time>2020-08-17T16:51:02.701Z</time>
      </trkpt>
      <trkpt lat="39.052095" lon="1.37192667">
        <ele>173.0</ele>
        <time>2020-08-17T16:51:03.681Z</time>
      </trkpt>
      <trkpt lat="39.052095" lon="1.37192667">
        <ele>173.0</ele>
        <time>2020-08-17T16:51:04.703Z</time>
      </trkpt>
      <trkpt lat="39.05220167" lon="1.37202">
        <ele>173.0</ele>
        <time>2020-08-17T16:51:05.702Z</time>
      </trkpt>
      <trkpt lat="39.05220167" lon="1.37202">
        <ele>173.0</ele>
        <time>2020-08-17T16:51:06.689Z</time>
      </trkpt>
      <trkpt lat="39.0523" lon="1.37212333">
        <ele>173.0</ele>
        <time>2020-08-17T16:51:07.669Z</time>
      </trkpt>
      <trkpt lat="39.0523" lon="1.37212333">
        <ele>173.0</ele>
        <time>2020-08-17T16:51:08.698Z</time>
      </trkpt>
      <trkpt lat="39.05239833" lon="1.37223">
        <ele>173.0</ele>
        <time>2020-08-17T16:51:09.679Z</time>
      </trkpt>
      <trkpt lat="39.05239833" lon="1.37223">
        <ele>173.0</ele>
        <time>2020-08-17T16:51:10.701Z</time>
      </trkpt>
      <trkpt lat="39.05249667" lon="1.37234333">
        <ele>173.0</ele>
        <time>2020-08-17T16:51:11.681Z</time>
      </trkpt>
      <trkpt lat="39.05249667" lon="1.37234333">
        <ele>173.0</ele>
        <time>2020-08-17T16:51:12.701Z</time>
      </trkpt>
      <trkpt lat="39.05259833" lon="1.372455">
        <ele>173.0</ele>
        <time>2020-08-17T16:51:13.703Z</time>
      </trkpt>
      <trkpt lat="39.05269667" lon="1.37257667">
        <ele>173.0</ele>
        <time>2020-08-17T16:51:14.692Z</time>
      </trkpt>
      <trkpt lat="39.05269667" lon="1.37257667">
        <ele>173.0</ele>
        <time>2020-08-17T16:51:15.702Z</time>
      </trkpt>
      <trkpt lat="39.05269667" lon="1.37257667">
        <ele>173.0</ele>
        <time>2020-08-17T16:51:16.696Z</time>
      </trkpt>
      <trkpt lat="39.05279333" lon="1.372705">
        <ele>173.0</ele>
        <time>2020-08-17T16:51:17.677Z</time>
      </trkpt>
      <trkpt lat="39.05279333" lon="1.372705">
        <ele>173.0</ele>
        <time>2020-08-17T16:51:18.702Z</time>
      </trkpt>
      <trkpt lat="39.05289" lon="1.37283667">
        <ele>172.0</ele>
        <time>2020-08-17T16:51:19.701Z</time>
      </trkpt>
      <trkpt lat="39.05289" lon="1.37283667">
        <ele>172.0</ele>
        <time>2020-08-17T16:51:20.680Z</time>
      </trkpt>
      <trkpt lat="39.05299" lon="1.37297333">
        <ele>172.0</ele>
        <time>2020-08-17T16:51:21.673Z</time>
      </trkpt>
      <trkpt lat="39.05299" lon="1.37297333">
        <ele>172.0</ele>
        <time>2020-08-17T16:51:22.701Z</time>
      </trkpt>
      <trkpt lat="39.05309167" lon="1.373115">
        <ele>171.0</ele>
        <time>2020-08-17T16:51:23.681Z</time>
      </trkpt>
      <trkpt lat="39.05309167" lon="1.373115">
        <ele>171.0</ele>
        <time>2020-08-17T16:51:24.702Z</time>
      </trkpt>
      <trkpt lat="39.05319667" lon="1.373265">
        <ele>171.0</ele>
        <time>2020-08-17T16:51:25.701Z</time>
      </trkpt>
      <trkpt lat="39.05319667" lon="1.373265">
        <ele>171.0</ele>
        <time>2020-08-17T16:51:26.680Z</time>
      </trkpt>
      <trkpt lat="39.05330167" lon="1.37341667">
        <ele>171.0</ele>
        <time>2020-08-17T16:51:27.702Z</time>
      </trkpt>
      <trkpt lat="39.053355" lon="1.37349667">
        <ele>170.0</ele>
        <time>2020-08-17T16:51:28.681Z</time>
      </trkpt>
      <trkpt lat="39.05340667" lon="1.37357667">
        <ele>170.0</ele>
        <time>2020-08-17T16:51:29.665Z</time>
      </trkpt>
      <trkpt lat="39.05340667" lon="1.37357667">
        <ele>170.0</ele>
        <time>2020-08-17T16:51:30.701Z</time>
      </trkpt>
      <trkpt lat="39.053515" lon="1.37373167">
        <ele>170.0</ele>
        <time>2020-08-17T16:51:31.680Z</time>
      </trkpt>
      <trkpt lat="39.053515" lon="1.37373167">
        <ele>170.0</ele>
        <time>2020-08-17T16:51:32.704Z</time>
      </trkpt>
      <trkpt lat="39.05363" lon="1.37387833">
        <ele>170.0</ele>
        <time>2020-08-17T16:51:33.696Z</time>
      </trkpt>
      <trkpt lat="39.05363" lon="1.37387833">
        <ele>170.0</ele>
        <time>2020-08-17T16:51:34.677Z</time>
      </trkpt>
      <trkpt lat="39.05375167" lon="1.37401667">
        <ele>169.0</ele>
        <time>2020-08-17T16:51:35.665Z</time>
      </trkpt>
      <trkpt lat="39.05375167" lon="1.37401667">
        <ele>169.0</ele>
        <time>2020-08-17T16:51:36.698Z</time>
      </trkpt>
      <trkpt lat="39.05387333" lon="1.37415167">
        <ele>170.0</ele>
        <time>2020-08-17T16:51:37.678Z</time>
      </trkpt>
      <trkpt lat="39.05387333" lon="1.37415167">
        <ele>170.0</ele>
        <time>2020-08-17T16:51:38.698Z</time>
      </trkpt>
      <trkpt lat="39.05399333" lon="1.37428333">
        <ele>170.0</ele>
        <time>2020-08-17T16:51:39.677Z</time>
      </trkpt>
      <trkpt lat="39.05399333" lon="1.37428333">
        <ele>170.0</ele>
        <time>2020-08-17T16:51:40.702Z</time>
      </trkpt>
      <trkpt lat="39.05410667" lon="1.37441833">
        <ele>170.0</ele>
        <time>2020-08-17T16:51:41.665Z</time>
      </trkpt>
      <trkpt lat="39.05410667" lon="1.37441833">
        <ele>170.0</ele>
        <time>2020-08-17T16:51:42.701Z</time>
      </trkpt>
      <trkpt lat="39.05421667" lon="1.374555">
        <ele>170.0</ele>
        <time>2020-08-17T16:51:43.680Z</time>
      </trkpt>
      <trkpt lat="39.05421667" lon="1.374555">
        <ele>170.0</ele>
        <time>2020-08-17T16:51:44.702Z</time>
      </trkpt>
      <trkpt lat="39.05432833" lon="1.37469">
        <ele>170.0</ele>
        <time>2020-08-17T16:51:45.665Z</time>
      </trkpt>
      <trkpt lat="39.05432833" lon="1.37469">
        <ele>170.0</ele>
        <time>2020-08-17T16:51:46.702Z</time>
      </trkpt>
      <trkpt lat="39.05443667" lon="1.374825">
        <ele>170.0</ele>
        <time>2020-08-17T16:51:47.672Z</time>
      </trkpt>
      <trkpt lat="39.05443667" lon="1.374825">
        <ele>170.0</ele>
        <time>2020-08-17T16:51:48.692Z</time>
      </trkpt>
      <trkpt lat="39.05454" lon="1.37497">
        <ele>170.0</ele>
        <time>2020-08-17T16:51:49.672Z</time>
      </trkpt>
      <trkpt lat="39.05454" lon="1.37497">
        <ele>170.0</ele>
        <time>2020-08-17T16:51:50.701Z</time>
      </trkpt>
      <trkpt lat="39.05463167" lon="1.37512833">
        <ele>170.0</ele>
        <time>2020-08-17T16:51:51.673Z</time>
      </trkpt>
      <trkpt lat="39.05467333" lon="1.37521333">
        <ele>170.0</ele>
        <time>2020-08-17T16:51:52.704Z</time>
      </trkpt>
      <trkpt lat="39.05471333" lon="1.37529833">
        <ele>170.0</ele>
        <time>2020-08-17T16:51:53.665Z</time>
      </trkpt>
      <trkpt lat="39.05471333" lon="1.37529833">
        <ele>170.0</ele>
        <time>2020-08-17T16:51:54.698Z</time>
      </trkpt>
      <trkpt lat="39.05478833" lon="1.375475">
        <ele>170.0</ele>
        <time>2020-08-17T16:51:55.678Z</time>
      </trkpt>
      <trkpt lat="39.05478833" lon="1.375475">
        <ele>170.0</ele>
        <time>2020-08-17T16:51:56.701Z</time>
      </trkpt>
      <trkpt lat="39.05486167" lon="1.37565333">
        <ele>170.0</ele>
        <time>2020-08-17T16:51:57.681Z</time>
      </trkpt>
      <trkpt lat="39.05489667" lon="1.37574167">
        <ele>170.0</ele>
        <time>2020-08-17T16:51:58.703Z</time>
      </trkpt>
      <trkpt lat="39.05493" lon="1.37582833">
        <ele>169.0</ele>
        <time>2020-08-17T16:51:59.666Z</time>
      </trkpt>
      <trkpt lat="39.05493" lon="1.37582833">
        <ele>169.0</ele>
        <time>2020-08-17T16:52:00.667Z</time>
      </trkpt>
      <trkpt lat="39.05498833" lon="1.376005">
        <ele>169.0</ele>
        <time>2020-08-17T16:52:01.702Z</time>
      </trkpt>
      <trkpt lat="39.05498833" lon="1.376005">
        <ele>169.0</ele>
        <time>2020-08-17T16:52:02.703Z</time>
      </trkpt>
      <trkpt lat="39.05502833" lon="1.37619167">
        <ele>169.0</ele>
        <time>2020-08-17T16:52:03.672Z</time>
      </trkpt>
      <trkpt lat="39.05502833" lon="1.37619167">
        <ele>169.0</ele>
        <time>2020-08-17T16:52:04.702Z</time>
      </trkpt>
      <trkpt lat="39.05506" lon="1.37637833">
        <ele>168.0</ele>
        <time>2020-08-17T16:52:05.692Z</time>
      </trkpt>
      <trkpt lat="39.05506" lon="1.37637833">
        <ele>168.0</ele>
        <time>2020-08-17T16:52:06.671Z</time>
      </trkpt>
      <trkpt lat="39.05508167" lon="1.37656167">
        <ele>168.0</ele>
        <time>2020-08-17T16:52:07.704Z</time>
      </trkpt>
      <trkpt lat="39.05508167" lon="1.37656167">
        <ele>168.0</ele>
        <time>2020-08-17T16:52:08.696Z</time>
      </trkpt>
      <trkpt lat="39.05510333" lon="1.37674167">
        <ele>169.0</ele>
        <time>2020-08-17T16:52:09.677Z</time>
      </trkpt>
      <trkpt lat="39.055115" lon="1.37683">
        <ele>168.0</ele>
        <time>2020-08-17T16:52:10.704Z</time>
      </trkpt>
      <trkpt lat="39.055125" lon="1.37691833">
        <ele>168.0</ele>
        <time>2020-08-17T16:52:11.665Z</time>
      </trkpt>
      <trkpt lat="39.055125" lon="1.37691833">
        <ele>168.0</ele>
        <time>2020-08-17T16:52:12.701Z</time>
      </trkpt>
      <trkpt lat="39.05513833" lon="1.37709833">
        <ele>169.0</ele>
        <time>2020-08-17T16:52:13.681Z</time>
      </trkpt>
      <trkpt lat="39.055145" lon="1.37718667">
        <ele>169.0</ele>
        <time>2020-08-17T16:52:14.703Z</time>
      </trkpt>
      <trkpt lat="39.055145" lon="1.37718667">
        <ele>169.0</ele>
        <time>2020-08-17T16:52:15.670Z</time>
      </trkpt>
      <trkpt lat="39.055155" lon="1.377365">
        <ele>169.0</ele>
        <time>2020-08-17T16:52:16.704Z</time>
      </trkpt>
      <trkpt lat="39.05516" lon="1.377455">
        <ele>169.0</ele>
        <time>2020-08-17T16:52:17.690Z</time>
      </trkpt>
      <trkpt lat="39.05516" lon="1.377455">
        <ele>169.0</ele>
        <time>2020-08-17T16:52:18.675Z</time>
      </trkpt>
      <trkpt lat="39.05516667" lon="1.37763333">
        <ele>169.0</ele>
        <time>2020-08-17T16:52:19.703Z</time>
      </trkpt>
      <trkpt lat="39.05516667" lon="1.37763333">
        <ele>169.0</ele>
        <time>2020-08-17T16:52:20.702Z</time>
      </trkpt>
      <trkpt lat="39.05517667" lon="1.37780833">
        <ele>169.0</ele>
        <time>2020-08-17T16:52:21.701Z</time>
      </trkpt>
      <trkpt lat="39.05517667" lon="1.37789667">
        <ele>169.0</ele>
        <time>2020-08-17T16:52:22.681Z</time>
      </trkpt>
      <trkpt lat="39.05517667" lon="1.37789667">
        <ele>169.0</ele>
        <time>2020-08-17T16:52:23.703Z</time>
      </trkpt>
      <trkpt lat="39.05515333" lon="1.37807167">
        <ele>169.0</ele>
        <time>2020-08-17T16:52:24.704Z</time>
      </trkpt>
      <trkpt lat="39.05512833" lon="1.37815833">
        <ele>169.0</ele>
        <time>2020-08-17T16:52:25.665Z</time>
      </trkpt>
      <trkpt lat="39.05512833" lon="1.37815833">
        <ele>169.0</ele>
        <time>2020-08-17T16:52:26.701Z</time>
      </trkpt>
      <trkpt lat="39.05504167" lon="1.37829667">
        <ele>169.0</ele>
        <time>2020-08-17T16:52:27.681Z</time>
      </trkpt>
      <trkpt lat="39.05504167" lon="1.37829667">
        <ele>169.0</ele>
        <time>2020-08-17T16:52:28.703Z</time>
      </trkpt>
      <trkpt lat="39.05490333" lon="1.37837333">
        <ele>168.0</ele>
        <time>2020-08-17T16:52:29.682Z</time>
      </trkpt>
      <trkpt lat="39.05490333" lon="1.37837333">
        <ele>168.0</ele>
        <time>2020-08-17T16:52:30.702Z</time>
      </trkpt>
      <trkpt lat="39.05475167" lon="1.378445">
        <ele>168.0</ele>
        <time>2020-08-17T16:52:31.696Z</time>
      </trkpt>
      <trkpt lat="39.05475167" lon="1.378445">
        <ele>168.0</ele>
        <time>2020-08-17T16:52:32.677Z</time>
      </trkpt>
      <trkpt lat="39.05459333" lon="1.37852">
        <ele>167.0</ele>
        <time>2020-08-17T16:52:33.704Z</time>
      </trkpt>
      <trkpt lat="39.05459333" lon="1.37852">
        <ele>167.0</ele>
        <time>2020-08-17T16:52:34.702Z</time>
      </trkpt>
      <trkpt lat="39.05443" lon="1.37859833">
        <ele>167.0</ele>
        <time>2020-08-17T16:52:35.682Z</time>
      </trkpt>
      <trkpt lat="39.05434667" lon="1.37863333">
        <ele>166.0</ele>
        <time>2020-08-17T16:52:36.702Z</time>
      </trkpt>
      <trkpt lat="39.05426333" lon="1.378665">
        <ele>166.0</ele>
        <time>2020-08-17T16:52:37.702Z</time>
      </trkpt>
      <trkpt lat="39.05426333" lon="1.378665">
        <ele>166.0</ele>
        <time>2020-08-17T16:52:38.697Z</time>
      </trkpt>
      <trkpt lat="39.05409167" lon="1.378715">
        <ele>166.0</ele>
        <time>2020-08-17T16:52:39.676Z</time>
      </trkpt>
      <trkpt lat="39.05409167" lon="1.378715">
        <ele>166.0</ele>
        <time>2020-08-17T16:52:40.698Z</time>
      </trkpt>
      <trkpt lat="39.05392" lon="1.378765">
        <ele>165.0</ele>
        <time>2020-08-17T16:52:41.666Z</time>
      </trkpt>
      <trkpt lat="39.05392" lon="1.378765">
        <ele>165.0</ele>
        <time>2020-08-17T16:52:42.701Z</time>
      </trkpt>
      <trkpt lat="39.05375167" lon="1.37881667">
        <ele>165.0</ele>
        <time>2020-08-17T16:52:43.703Z</time>
      </trkpt>
      <trkpt lat="39.05375167" lon="1.37881667">
        <ele>165.0</ele>
        <time>2020-08-17T16:52:44.702Z</time>
      </trkpt>
      <trkpt lat="39.05358167" lon="1.37886">
        <ele>165.0</ele>
        <time>2020-08-17T16:52:45.681Z</time>
      </trkpt>
      <trkpt lat="39.05358167" lon="1.37886">
        <ele>165.0</ele>
        <time>2020-08-17T16:52:46.703Z</time>
      </trkpt>
      <trkpt lat="39.053415" lon="1.3789">
        <ele>165.0</ele>
        <time>2020-08-17T16:52:47.689Z</time>
      </trkpt>
      <trkpt lat="39.053415" lon="1.3789">
        <ele>165.0</ele>
        <time>2020-08-17T16:52:48.669Z</time>
      </trkpt>
      <trkpt lat="39.05324833" lon="1.37894">
        <ele>164.0</ele>
        <time>2020-08-17T16:52:49.670Z</time>
      </trkpt>
      <trkpt lat="39.05324833" lon="1.37894">
        <ele>164.0</ele>
        <time>2020-08-17T16:52:50.693Z</time>
      </trkpt>
      <trkpt lat="39.053085" lon="1.378975">
        <ele>164.0</ele>
        <time>2020-08-17T16:52:51.673Z</time>
      </trkpt>
      <trkpt lat="39.053085" lon="1.378975">
        <ele>164.0</ele>
        <time>2020-08-17T16:52:52.665Z</time>
      </trkpt>
      <trkpt lat="39.05292167" lon="1.37899333">
        <ele>164.0</ele>
        <time>2020-08-17T16:52:53.703Z</time>
      </trkpt>
      <trkpt lat="39.05292167" lon="1.37899333">
        <ele>164.0</ele>
        <time>2020-08-17T16:52:54.697Z</time>
      </trkpt>
      <trkpt lat="39.05275167" lon="1.37901167">
        <ele>163.0</ele>
        <time>2020-08-17T16:52:55.678Z</time>
      </trkpt>
      <trkpt lat="39.05275167" lon="1.37901167">
        <ele>163.0</ele>
        <time>2020-08-17T16:52:56.704Z</time>
      </trkpt>
      <trkpt lat="39.05258" lon="1.37903">
        <ele>163.0</ele>
        <time>2020-08-17T16:52:57.703Z</time>
      </trkpt>
      <trkpt lat="39.052495" lon="1.37903333">
        <ele>162.0</ele>
        <time>2020-08-17T16:52:58.704Z</time>
      </trkpt>
      <trkpt lat="39.05240833" lon="1.37903167">
        <ele>162.0</ele>
        <time>2020-08-17T16:52:59.703Z</time>
      </trkpt>
      <trkpt lat="39.05240833" lon="1.37903167">
        <ele>162.0</ele>
        <time>2020-08-17T16:53:00.673Z</time>
      </trkpt>
      <trkpt lat="39.052235" lon="1.379025">
        <ele>161.0</ele>
        <time>2020-08-17T16:53:01.665Z</time>
      </trkpt>
      <trkpt lat="39.052235" lon="1.379025">
        <ele>161.0</ele>
        <time>2020-08-17T16:53:02.701Z</time>
      </trkpt>
      <trkpt lat="39.05205667" lon="1.379015">
        <ele>160.0</ele>
        <time>2020-08-17T16:53:03.680Z</time>
      </trkpt>
      <trkpt lat="39.05205667" lon="1.379015">
        <ele>160.0</ele>
        <time>2020-08-17T16:53:04.703Z</time>
      </trkpt>
      <trkpt lat="39.05188" lon="1.37899">
        <ele>160.0</ele>
        <time>2020-08-17T16:53:05.692Z</time>
      </trkpt>
      <trkpt lat="39.05188" lon="1.37899">
        <ele>160.0</ele>
        <time>2020-08-17T16:53:06.671Z</time>
      </trkpt>
      <trkpt lat="39.051705" lon="1.37895">
        <ele>159.0</ele>
        <time>2020-08-17T16:53:07.670Z</time>
      </trkpt>
      <trkpt lat="39.051705" lon="1.37895">
        <ele>159.0</ele>
        <time>2020-08-17T16:53:08.702Z</time>
      </trkpt>
      <trkpt lat="39.051525" lon="1.37890833">
        <ele>158.0</ele>
        <time>2020-08-17T16:53:09.681Z</time>
      </trkpt>
      <trkpt lat="39.051525" lon="1.37890833">
        <ele>158.0</ele>
        <time>2020-08-17T16:53:10.705Z</time>
      </trkpt>
      <trkpt lat="39.05134833" lon="1.378865">
        <ele>158.0</ele>
        <time>2020-08-17T16:53:11.678Z</time>
      </trkpt>
      <trkpt lat="39.05134833" lon="1.378865">
        <ele>158.0</ele>
        <time>2020-08-17T16:53:12.702Z</time>
      </trkpt>
      <trkpt lat="39.05117167" lon="1.37882">
        <ele>158.0</ele>
        <time>2020-08-17T16:53:13.681Z</time>
      </trkpt>
      <trkpt lat="39.05117167" lon="1.37882">
        <ele>158.0</ele>
        <time>2020-08-17T16:53:14.672Z</time>
      </trkpt>
      <trkpt lat="39.05099667" lon="1.37879">
        <ele>158.0</ele>
        <time>2020-08-17T16:53:15.666Z</time>
      </trkpt>
      <trkpt lat="39.05091" lon="1.37879167">
        <ele>158.0</ele>
        <time>2020-08-17T16:53:16.703Z</time>
      </trkpt>
      <trkpt lat="39.05082333" lon="1.378805">
        <ele>158.0</ele>
        <time>2020-08-17T16:53:17.698Z</time>
      </trkpt>
      <trkpt lat="39.05082333" lon="1.378805">
        <ele>158.0</ele>
        <time>2020-08-17T16:53:18.678Z</time>
      </trkpt>
      <trkpt lat="39.05066333" lon="1.37888">
        <ele>157.0</ele>
        <time>2020-08-17T16:53:19.665Z</time>
      </trkpt>
      <trkpt lat="39.05066333" lon="1.37888">
        <ele>157.0</ele>
        <time>2020-08-17T16:53:20.705Z</time>
      </trkpt>
      <trkpt lat="39.05053333" lon="1.37902167">
        <ele>157.0</ele>
        <time>2020-08-17T16:53:21.703Z</time>
      </trkpt>
      <trkpt lat="39.05053333" lon="1.37902167">
        <ele>157.0</ele>
        <time>2020-08-17T16:53:22.701Z</time>
      </trkpt>
      <trkpt lat="39.050415" lon="1.37917833">
        <ele>157.0</ele>
        <time>2020-08-17T16:53:23.681Z</time>
      </trkpt>
      <trkpt lat="39.050415" lon="1.37917833">
        <ele>157.0</ele>
        <time>2020-08-17T16:53:24.702Z</time>
      </trkpt>
      <trkpt lat="39.05029833" lon="1.37934">
        <ele>157.0</ele>
        <time>2020-08-17T16:53:25.670Z</time>
      </trkpt>
      <trkpt lat="39.05029833" lon="1.37934">
        <ele>157.0</ele>
        <time>2020-08-17T16:53:26.702Z</time>
      </trkpt>
      <trkpt lat="39.05019333" lon="1.37950667">
        <ele>157.0</ele>
        <time>2020-08-17T16:53:27.681Z</time>
      </trkpt>
      <trkpt lat="39.05019333" lon="1.37950667">
        <ele>157.0</ele>
        <time>2020-08-17T16:53:28.701Z</time>
      </trkpt>
      <trkpt lat="39.05009333" lon="1.379675">
        <ele>157.0</ele>
        <time>2020-08-17T16:53:29.681Z</time>
      </trkpt>
      <trkpt lat="39.05009333" lon="1.379675">
        <ele>157.0</ele>
        <time>2020-08-17T16:53:30.701Z</time>
      </trkpt>
      <trkpt lat="39.05000667" lon="1.37985167">
        <ele>157.0</ele>
        <time>2020-08-17T16:53:31.681Z</time>
      </trkpt>
      <trkpt lat="39.05000667" lon="1.37985167">
        <ele>157.0</ele>
        <time>2020-08-17T16:53:32.703Z</time>
      </trkpt>
      <trkpt lat="39.04992167" lon="1.38003167">
        <ele>157.0</ele>
        <time>2020-08-17T16:53:33.665Z</time>
      </trkpt>
      <trkpt lat="39.04992167" lon="1.38003167">
        <ele>157.0</ele>
        <time>2020-08-17T16:53:34.702Z</time>
      </trkpt>
      <trkpt lat="39.04983167" lon="1.38021">
        <ele>157.0</ele>
        <time>2020-08-17T16:53:35.681Z</time>
      </trkpt>
      <trkpt lat="39.04983167" lon="1.38021">
        <ele>157.0</ele>
        <time>2020-08-17T16:53:36.702Z</time>
      </trkpt>
      <trkpt lat="39.049745" lon="1.38038667">
        <ele>157.0</ele>
        <time>2020-08-17T16:53:37.681Z</time>
      </trkpt>
      <trkpt lat="39.049745" lon="1.38038667">
        <ele>157.0</ele>
        <time>2020-08-17T16:53:38.704Z</time>
      </trkpt>
      <trkpt lat="39.049655" lon="1.38056">
        <ele>157.0</ele>
        <time>2020-08-17T16:53:39.696Z</time>
      </trkpt>
      <trkpt lat="39.049655" lon="1.38056">
        <ele>157.0</ele>
        <time>2020-08-17T16:53:40.677Z</time>
      </trkpt>
      <trkpt lat="39.04956667" lon="1.38073333">
        <ele>157.0</ele>
        <time>2020-08-17T16:53:41.666Z</time>
      </trkpt>
      <trkpt lat="39.04956667" lon="1.38073333">
        <ele>157.0</ele>
        <time>2020-08-17T16:53:42.703Z</time>
      </trkpt>
      <trkpt lat="39.049475" lon="1.38090167">
        <ele>157.0</ele>
        <time>2020-08-17T16:53:43.704Z</time>
      </trkpt>
      <trkpt lat="39.049475" lon="1.38090167">
        <ele>157.0</ele>
        <time>2020-08-17T16:53:44.696Z</time>
      </trkpt>
      <trkpt lat="39.04937667" lon="1.38106333">
        <ele>157.0</ele>
        <time>2020-08-17T16:53:45.675Z</time>
      </trkpt>
      <trkpt lat="39.049325" lon="1.38114167">
        <ele>157.0</ele>
        <time>2020-08-17T16:53:46.704Z</time>
      </trkpt>
      <trkpt lat="39.049325" lon="1.38114167">
        <ele>157.0</ele>
        <time>2020-08-17T16:53:47.697Z</time>
      </trkpt>
      <trkpt lat="39.04922167" lon="1.38129333">
        <ele>157.0</ele>
        <time>2020-08-17T16:53:48.688Z</time>
      </trkpt>
      <trkpt lat="39.04916833" lon="1.38137">
        <ele>157.0</ele>
        <time>2020-08-17T16:53:49.671Z</time>
      </trkpt>
      <trkpt lat="39.04916833" lon="1.38137">
        <ele>157.0</ele>
        <time>2020-08-17T16:53:50.698Z</time>
      </trkpt>
      <trkpt lat="39.049065" lon="1.38152333">
        <ele>158.0</ele>
        <time>2020-08-17T16:53:51.679Z</time>
      </trkpt>
      <trkpt lat="39.049065" lon="1.38152333">
        <ele>158.0</ele>
        <time>2020-08-17T16:53:52.665Z</time>
      </trkpt>
      <trkpt lat="39.04896" lon="1.38167167">
        <ele>158.0</ele>
        <time>2020-08-17T16:53:53.665Z</time>
      </trkpt>
      <trkpt lat="39.04896" lon="1.38167167">
        <ele>158.0</ele>
        <time>2020-08-17T16:53:54.702Z</time>
      </trkpt>
      <trkpt lat="39.04886" lon="1.381825">
        <ele>158.0</ele>
        <time>2020-08-17T16:53:55.704Z</time>
      </trkpt>
      <trkpt lat="39.04886" lon="1.381825">
        <ele>158.0</ele>
        <time>2020-08-17T16:53:56.701Z</time>
      </trkpt>
      <trkpt lat="39.04875167" lon="1.38197167">
        <ele>158.0</ele>
        <time>2020-08-17T16:53:57.681Z</time>
      </trkpt>
      <trkpt lat="39.04869667" lon="1.38204333">
        <ele>158.0</ele>
        <time>2020-08-17T16:53:58.704Z</time>
      </trkpt>
      <trkpt lat="39.04864333" lon="1.38211833">
        <ele>157.0</ele>
        <time>2020-08-17T16:53:59.666Z</time>
      </trkpt>
      <trkpt lat="39.04864333" lon="1.38211833">
        <ele>157.0</ele>
        <time>2020-08-17T16:54:00.666Z</time>
      </trkpt>
      <trkpt lat="39.04853833" lon="1.38226833">
        <ele>157.0</ele>
        <time>2020-08-17T16:54:01.702Z</time>
      </trkpt>
      <trkpt lat="39.04853833" lon="1.38226833">
        <ele>157.0</ele>
        <time>2020-08-17T16:54:02.681Z</time>
      </trkpt>
      <trkpt lat="39.048435" lon="1.38242167">
        <ele>158.0</ele>
        <time>2020-08-17T16:54:03.703Z</time>
      </trkpt>
      <trkpt lat="39.048435" lon="1.38242167">
        <ele>158.0</ele>
        <time>2020-08-17T16:54:04.702Z</time>
      </trkpt>
      <trkpt lat="39.04833333" lon="1.38257667">
        <ele>158.0</ele>
        <time>2020-08-17T16:54:05.693Z</time>
      </trkpt>
      <trkpt lat="39.04833333" lon="1.38257667">
        <ele>158.0</ele>
        <time>2020-08-17T16:54:06.674Z</time>
      </trkpt>
      <trkpt lat="39.04824" lon="1.382735">
        <ele>158.0</ele>
        <time>2020-08-17T16:54:07.703Z</time>
      </trkpt>
      <trkpt lat="39.04824" lon="1.382735">
        <ele>158.0</ele>
        <time>2020-08-17T16:54:08.693Z</time>
      </trkpt>
      <trkpt lat="39.04815167" lon="1.38289667">
        <ele>158.0</ele>
        <time>2020-08-17T16:54:09.672Z</time>
      </trkpt>
      <trkpt lat="39.04811" lon="1.38297833">
        <ele>158.0</ele>
        <time>2020-08-17T16:54:10.704Z</time>
      </trkpt>
      <trkpt lat="39.04811" lon="1.38297833">
        <ele>158.0</ele>
        <time>2020-08-17T16:54:11.703Z</time>
      </trkpt>
      <trkpt lat="39.04802833" lon="1.38314333">
        <ele>158.0</ele>
        <time>2020-08-17T16:54:12.697Z</time>
      </trkpt>
      <trkpt lat="39.04799" lon="1.38322833">
        <ele>158.0</ele>
        <time>2020-08-17T16:54:13.677Z</time>
      </trkpt>
      <trkpt lat="39.04799" lon="1.38322833">
        <ele>158.0</ele>
        <time>2020-08-17T16:54:14.696Z</time>
      </trkpt>
      <trkpt lat="39.04791167" lon="1.383395">
        <ele>158.0</ele>
        <time>2020-08-17T16:54:15.703Z</time>
      </trkpt>
      <trkpt lat="39.04791167" lon="1.383395">
        <ele>158.0</ele>
        <time>2020-08-17T16:54:16.703Z</time>
      </trkpt>
      <trkpt lat="39.04783333" lon="1.38355667">
        <ele>158.0</ele>
        <time>2020-08-17T16:54:17.682Z</time>
      </trkpt>
      <trkpt lat="39.04783333" lon="1.38355667">
        <ele>158.0</ele>
        <time>2020-08-17T16:54:18.703Z</time>
      </trkpt>
      <trkpt lat="39.047755" lon="1.38372">
        <ele>158.0</ele>
        <time>2020-08-17T16:54:19.667Z</time>
      </trkpt>
      <trkpt lat="39.047755" lon="1.38372">
        <ele>158.0</ele>
        <time>2020-08-17T16:54:20.702Z</time>
      </trkpt>
      <trkpt lat="39.047675" lon="1.38388333">
        <ele>158.0</ele>
        <time>2020-08-17T16:54:21.703Z</time>
      </trkpt>
      <trkpt lat="39.047675" lon="1.38388333">
        <ele>158.0</ele>
        <time>2020-08-17T16:54:22.692Z</time>
      </trkpt>
      <trkpt lat="39.04759167" lon="1.38404333">
        <ele>158.0</ele>
        <time>2020-08-17T16:54:23.673Z</time>
      </trkpt>
      <trkpt lat="39.04759167" lon="1.38404333">
        <ele>158.0</ele>
        <time>2020-08-17T16:54:24.703Z</time>
      </trkpt>
      <trkpt lat="39.0475" lon="1.38419333">
        <ele>158.0</ele>
        <time>2020-08-17T16:54:25.666Z</time>
      </trkpt>
      <trkpt lat="39.0475" lon="1.38419333">
        <ele>158.0</ele>
        <time>2020-08-17T16:54:26.695Z</time>
      </trkpt>
      <trkpt lat="39.047405" lon="1.38434">
        <ele>158.0</ele>
        <time>2020-08-17T16:54:27.675Z</time>
      </trkpt>
      <trkpt lat="39.047405" lon="1.38434">
        <ele>158.0</ele>
        <time>2020-08-17T16:54:28.702Z</time>
      </trkpt>
      <trkpt lat="39.04730833" lon="1.38448333">
        <ele>159.0</ele>
        <time>2020-08-17T16:54:29.682Z</time>
      </trkpt>
      <trkpt lat="39.04730833" lon="1.38448333">
        <ele>159.0</ele>
        <time>2020-08-17T16:54:30.702Z</time>
      </trkpt>
      <trkpt lat="39.0472" lon="1.38461">
        <ele>159.0</ele>
        <time>2020-08-17T16:54:31.681Z</time>
      </trkpt>
      <trkpt lat="39.047135" lon="1.38465">
        <ele>159.0</ele>
        <time>2020-08-17T16:54:32.665Z</time>
      </trkpt>
      <trkpt lat="39.047135" lon="1.38465">
        <ele>159.0</ele>
        <time>2020-08-17T16:54:33.698Z</time>
      </trkpt>
      <trkpt lat="39.046995" lon="1.38464333">
        <ele>158.0</ele>
        <time>2020-08-17T16:54:34.677Z</time>
      </trkpt>
      <trkpt lat="39.04693" lon="1.38460667">
        <ele>158.0</ele>
        <time>2020-08-17T16:54:35.666Z</time>
      </trkpt>
      <trkpt lat="39.04693" lon="1.38460667">
        <ele>158.0</ele>
        <time>2020-08-17T16:54:36.703Z</time>
      </trkpt>
      <trkpt lat="39.04680333" lon="1.38452333">
        <ele>158.0</ele>
        <time>2020-08-17T16:54:37.678Z</time>
      </trkpt>
      <trkpt lat="39.04680333" lon="1.38452333">
        <ele>158.0</ele>
        <time>2020-08-17T16:54:38.698Z</time>
      </trkpt>
      <trkpt lat="39.04667333" lon="1.384445">
        <ele>158.0</ele>
        <time>2020-08-17T16:54:39.688Z</time>
      </trkpt>
      <trkpt lat="39.04667333" lon="1.384445">
        <ele>158.0</ele>
        <time>2020-08-17T16:54:40.672Z</time>
      </trkpt>
      <trkpt lat="39.04654333" lon="1.38436167">
        <ele>158.0</ele>
        <time>2020-08-17T16:54:41.665Z</time>
      </trkpt>
      <trkpt lat="39.04654333" lon="1.38436167">
        <ele>158.0</ele>
        <time>2020-08-17T16:54:42.703Z</time>
      </trkpt>
      <trkpt lat="39.04640667" lon="1.38428333">
        <ele>158.0</ele>
        <time>2020-08-17T16:54:43.698Z</time>
      </trkpt>
      <trkpt lat="39.04640667" lon="1.38428333">
        <ele>158.0</ele>
        <time>2020-08-17T16:54:44.679Z</time>
      </trkpt>
      <trkpt lat="39.04626333" lon="1.38421333">
        <ele>158.0</ele>
        <time>2020-08-17T16:54:45.704Z</time>
      </trkpt>
      <trkpt lat="39.04626333" lon="1.38421333">
        <ele>158.0</ele>
        <time>2020-08-17T16:54:46.703Z</time>
      </trkpt>
      <trkpt lat="39.04611667" lon="1.38414333">
        <ele>158.0</ele>
        <time>2020-08-17T16:54:47.677Z</time>
      </trkpt>
      <trkpt lat="39.04611667" lon="1.38414333">
        <ele>158.0</ele>
        <time>2020-08-17T16:54:48.702Z</time>
      </trkpt>
      <trkpt lat="39.045965" lon="1.38408667">
        <ele>158.0</ele>
        <time>2020-08-17T16:54:49.681Z</time>
      </trkpt>
      <trkpt lat="39.045965" lon="1.38408667">
        <ele>158.0</ele>
        <time>2020-08-17T16:54:50.704Z</time>
      </trkpt>
      <trkpt lat="39.04580833" lon="1.384055">
        <ele>158.0</ele>
        <time>2020-08-17T16:54:51.665Z</time>
      </trkpt>
      <trkpt lat="39.04573" lon="1.38404667">
        <ele>158.0</ele>
        <time>2020-08-17T16:54:52.666Z</time>
      </trkpt>
      <trkpt lat="39.04573" lon="1.38404667">
        <ele>158.0</ele>
        <time>2020-08-17T16:54:53.702Z</time>
      </trkpt>
      <trkpt lat="39.04557167" lon="1.384035">
        <ele>158.0</ele>
        <time>2020-08-17T16:54:54.684Z</time>
      </trkpt>
      <trkpt lat="39.04549167" lon="1.38403333">
        <ele>158.0</ele>
        <time>2020-08-17T16:54:55.704Z</time>
      </trkpt>
      <trkpt lat="39.04549167" lon="1.38403333">
        <ele>158.0</ele>
        <time>2020-08-17T16:54:56.702Z</time>
      </trkpt>
      <trkpt lat="39.04533833" lon="1.384005">
        <ele>158.0</ele>
        <time>2020-08-17T16:54:57.697Z</time>
      </trkpt>
      <trkpt lat="39.04526833" lon="1.38396">
        <ele>158.0</ele>
        <time>2020-08-17T16:54:58.682Z</time>
      </trkpt>
      <trkpt lat="39.04521333" lon="1.38388833">
        <ele>158.0</ele>
        <time>2020-08-17T16:54:59.666Z</time>
      </trkpt>
      <trkpt lat="39.04521333" lon="1.38388833">
        <ele>158.0</ele>
        <time>2020-08-17T16:55:00.666Z</time>
      </trkpt>
      <trkpt lat="39.04512" lon="1.383725">
        <ele>158.0</ele>
        <time>2020-08-17T16:55:01.704Z</time>
      </trkpt>
      <trkpt lat="39.04512" lon="1.383725">
        <ele>158.0</ele>
        <time>2020-08-17T16:55:02.703Z</time>
      </trkpt>
      <trkpt lat="39.045025" lon="1.38357">
        <ele>158.0</ele>
        <time>2020-08-17T16:55:03.705Z</time>
      </trkpt>
      <trkpt lat="39.045025" lon="1.38357">
        <ele>158.0</ele>
        <time>2020-08-17T16:55:04.696Z</time>
      </trkpt>
      <trkpt lat="39.044915" lon="1.38343">
        <ele>158.0</ele>
        <time>2020-08-17T16:55:05.676Z</time>
      </trkpt>
      <trkpt lat="39.044915" lon="1.38343">
        <ele>158.0</ele>
        <time>2020-08-17T16:55:06.703Z</time>
      </trkpt>
      <trkpt lat="39.04479167" lon="1.3833">
        <ele>158.0</ele>
        <time>2020-08-17T16:55:07.689Z</time>
      </trkpt>
      <trkpt lat="39.04479167" lon="1.3833">
        <ele>158.0</ele>
        <time>2020-08-17T16:55:08.668Z</time>
      </trkpt>
      <trkpt lat="39.04466" lon="1.38318">
        <ele>157.0</ele>
        <time>2020-08-17T16:55:09.703Z</time>
      </trkpt>
      <trkpt lat="39.04466" lon="1.38318">
        <ele>157.0</ele>
        <time>2020-08-17T16:55:10.682Z</time>
      </trkpt>
      <trkpt lat="39.04452" lon="1.383075">
        <ele>157.0</ele>
        <time>2020-08-17T16:55:11.665Z</time>
      </trkpt>
      <trkpt lat="39.04452" lon="1.383075">
        <ele>157.0</ele>
        <time>2020-08-17T16:55:12.696Z</time>
      </trkpt>
      <trkpt lat="39.04437833" lon="1.382975">
        <ele>157.0</ele>
        <time>2020-08-17T16:55:13.677Z</time>
      </trkpt>
      <trkpt lat="39.04437833" lon="1.382975">
        <ele>157.0</ele>
        <time>2020-08-17T16:55:14.690Z</time>
      </trkpt>
      <trkpt lat="39.04423667" lon="1.382875">
        <ele>157.0</ele>
        <time>2020-08-17T16:55:15.669Z</time>
      </trkpt>
      <trkpt lat="39.044165" lon="1.382825">
        <ele>157.0</ele>
        <time>2020-08-17T16:55:16.704Z</time>
      </trkpt>
      <trkpt lat="39.044165" lon="1.382825">
        <ele>157.0</ele>
        <time>2020-08-17T16:55:17.703Z</time>
      </trkpt>
      <trkpt lat="39.04402167" lon="1.38273">
        <ele>156.0</ele>
        <time>2020-08-17T16:55:18.704Z</time>
      </trkpt>
      <trkpt lat="39.04402167" lon="1.38273">
        <ele>156.0</ele>
        <time>2020-08-17T16:55:19.692Z</time>
      </trkpt>
      <trkpt lat="39.04387167" lon="1.38265667">
        <ele>156.0</ele>
        <time>2020-08-17T16:55:20.672Z</time>
      </trkpt>
      <trkpt lat="39.04387167" lon="1.38265667">
        <ele>156.0</ele>
        <time>2020-08-17T16:55:21.702Z</time>
      </trkpt>
      <trkpt lat="39.04371667" lon="1.38259833">
        <ele>156.0</ele>
        <time>2020-08-17T16:55:22.682Z</time>
      </trkpt>
      <trkpt lat="39.04363833" lon="1.38257333">
        <ele>156.0</ele>
        <time>2020-08-17T16:55:23.665Z</time>
      </trkpt>
      <trkpt lat="39.04363833" lon="1.38257333">
        <ele>156.0</ele>
        <time>2020-08-17T16:55:24.702Z</time>
      </trkpt>
      <trkpt lat="39.04348167" lon="1.38252833">
        <ele>156.0</ele>
        <time>2020-08-17T16:55:25.689Z</time>
      </trkpt>
      <trkpt lat="39.04348167" lon="1.38252833">
        <ele>156.0</ele>
        <time>2020-08-17T16:55:26.670Z</time>
      </trkpt>
      <trkpt lat="39.04332333" lon="1.382485">
        <ele>156.0</ele>
        <time>2020-08-17T16:55:27.703Z</time>
      </trkpt>
      <trkpt lat="39.043245" lon="1.38246">
        <ele>156.0</ele>
        <time>2020-08-17T16:55:28.682Z</time>
      </trkpt>
      <trkpt lat="39.043245" lon="1.38246">
        <ele>156.0</ele>
        <time>2020-08-17T16:55:29.704Z</time>
      </trkpt>
      <trkpt lat="39.04308833" lon="1.38241167">
        <ele>156.0</ele>
        <time>2020-08-17T16:55:30.669Z</time>
      </trkpt>
      <trkpt lat="39.04300833" lon="1.3824">
        <ele>157.0</ele>
        <time>2020-08-17T16:55:31.702Z</time>
      </trkpt>
      <trkpt lat="39.04300833" lon="1.3824">
        <ele>157.0</ele>
        <time>2020-08-17T16:55:32.681Z</time>
      </trkpt>
      <trkpt lat="39.04285" lon="1.38240833">
        <ele>157.0</ele>
        <time>2020-08-17T16:55:33.665Z</time>
      </trkpt>
      <trkpt lat="39.04285" lon="1.38240833">
        <ele>157.0</ele>
        <time>2020-08-17T16:55:34.702Z</time>
      </trkpt>
      <trkpt lat="39.04269833" lon="1.38243833">
        <ele>158.0</ele>
        <time>2020-08-17T16:55:35.682Z</time>
      </trkpt>
      <trkpt lat="39.04269833" lon="1.38243833">
        <ele>158.0</ele>
        <time>2020-08-17T16:55:36.702Z</time>
      </trkpt>
      <trkpt lat="39.04255333" lon="1.38246833">
        <ele>159.0</ele>
        <time>2020-08-17T16:55:37.682Z</time>
      </trkpt>
      <trkpt lat="39.04255333" lon="1.38246833">
        <ele>159.0</ele>
        <time>2020-08-17T16:55:38.704Z</time>
      </trkpt>
      <trkpt lat="39.04241667" lon="1.3825">
        <ele>160.0</ele>
        <time>2020-08-17T16:55:39.704Z</time>
      </trkpt>
      <trkpt lat="39.04235167" lon="1.38251667">
        <ele>160.0</ele>
        <time>2020-08-17T16:55:40.697Z</time>
      </trkpt>
      <trkpt lat="39.04235167" lon="1.38251667">
        <ele>160.0</ele>
        <time>2020-08-17T16:55:41.676Z</time>
      </trkpt>
      <trkpt lat="39.04222333" lon="1.38255667">
        <ele>161.0</ele>
        <time>2020-08-17T16:55:42.704Z</time>
      </trkpt>
      <trkpt lat="39.04216167" lon="1.38257833">
        <ele>161.0</ele>
        <time>2020-08-17T16:55:43.665Z</time>
      </trkpt>
      <trkpt lat="39.04216167" lon="1.38257833">
        <ele>161.0</ele>
        <time>2020-08-17T16:55:44.702Z</time>
      </trkpt>
      <trkpt lat="39.042035" lon="1.38262167">
        <ele>162.0</ele>
        <time>2020-08-17T16:55:45.681Z</time>
      </trkpt>
      <trkpt lat="39.042035" lon="1.38262167">
        <ele>162.0</ele>
        <time>2020-08-17T16:55:46.671Z</time>
      </trkpt>
      <trkpt lat="39.04190667" lon="1.38266333">
        <ele>162.0</ele>
        <time>2020-08-17T16:55:47.666Z</time>
      </trkpt>
      <trkpt lat="39.04190667" lon="1.38266333">
        <ele>162.0</ele>
        <time>2020-08-17T16:55:48.704Z</time>
      </trkpt>
      <trkpt lat="39.04177667" lon="1.382705">
        <ele>163.0</ele>
        <time>2020-08-17T16:55:49.692Z</time>
      </trkpt>
      <trkpt lat="39.04171333" lon="1.38271833">
        <ele>163.0</ele>
        <time>2020-08-17T16:55:50.672Z</time>
      </trkpt>
      <trkpt lat="39.04171333" lon="1.38271833">
        <ele>163.0</ele>
        <time>2020-08-17T16:55:51.704Z</time>
      </trkpt>
      <trkpt lat="39.04158167" lon="1.38273667">
        <ele>163.0</ele>
        <time>2020-08-17T16:55:52.688Z</time>
      </trkpt>
      <trkpt lat="39.04151333" lon="1.38273167">
        <ele>163.0</ele>
        <time>2020-08-17T16:55:53.670Z</time>
      </trkpt>
      <trkpt lat="39.04151333" lon="1.38273167">
        <ele>163.0</ele>
        <time>2020-08-17T16:55:54.696Z</time>
      </trkpt>
      <trkpt lat="39.041375" lon="1.38271167">
        <ele>164.0</ele>
        <time>2020-08-17T16:55:55.675Z</time>
      </trkpt>
      <trkpt lat="39.041375" lon="1.38271167">
        <ele>164.0</ele>
        <time>2020-08-17T16:55:56.679Z</time>
      </trkpt>
      <trkpt lat="39.04123333" lon="1.38268333">
        <ele>164.0</ele>
        <time>2020-08-17T16:55:57.704Z</time>
      </trkpt>
      <trkpt lat="39.04116167" lon="1.38267167">
        <ele>164.0</ele>
        <time>2020-08-17T16:55:58.705Z</time>
      </trkpt>
      <trkpt lat="39.04109" lon="1.38266167">
        <ele>164.0</ele>
        <time>2020-08-17T16:55:59.704Z</time>
      </trkpt>
      <trkpt lat="39.04109" lon="1.38266167">
        <ele>164.0</ele>
        <time>2020-08-17T16:56:00.665Z</time>
      </trkpt>
      <trkpt lat="39.04094333" lon="1.38264167">
        <ele>164.0</ele>
        <time>2020-08-17T16:56:01.666Z</time>
      </trkpt>
      <trkpt lat="39.04094333" lon="1.38264167">
        <ele>164.0</ele>
        <time>2020-08-17T16:56:02.702Z</time>
      </trkpt>
      <trkpt lat="39.04079" lon="1.38262333">
        <ele>164.0</ele>
        <time>2020-08-17T16:56:03.682Z</time>
      </trkpt>
      <trkpt lat="39.04079" lon="1.38262333">
        <ele>164.0</ele>
        <time>2020-08-17T16:56:04.704Z</time>
      </trkpt>
      <trkpt lat="39.04063" lon="1.382615">
        <ele>164.0</ele>
        <time>2020-08-17T16:56:05.692Z</time>
      </trkpt>
      <trkpt lat="39.04054667" lon="1.38262333">
        <ele>164.0</ele>
        <time>2020-08-17T16:56:06.672Z</time>
      </trkpt>
      <trkpt lat="39.040465" lon="1.382635">
        <ele>164.0</ele>
        <time>2020-08-17T16:56:07.701Z</time>
      </trkpt>
      <trkpt lat="39.040465" lon="1.382635">
        <ele>164.0</ele>
        <time>2020-08-17T16:56:08.680Z</time>
      </trkpt>
      <trkpt lat="39.04030333" lon="1.38267167">
        <ele>164.0</ele>
        <time>2020-08-17T16:56:09.704Z</time>
      </trkpt>
      <trkpt lat="39.04030333" lon="1.38267167">
        <ele>164.0</ele>
        <time>2020-08-17T16:56:10.691Z</time>
      </trkpt>
      <trkpt lat="39.04014667" lon="1.38272">
        <ele>164.0</ele>
        <time>2020-08-17T16:56:11.684Z</time>
      </trkpt>
      <trkpt lat="39.04014667" lon="1.38272">
        <ele>164.0</ele>
        <time>2020-08-17T16:56:12.704Z</time>
      </trkpt>
      <trkpt lat="39.040005" lon="1.382785">
        <ele>165.0</ele>
        <time>2020-08-17T16:56:13.703Z</time>
      </trkpt>
      <trkpt lat="39.040005" lon="1.382785">
        <ele>165.0</ele>
        <time>2020-08-17T16:56:14.689Z</time>
      </trkpt>
      <trkpt lat="39.03986833" lon="1.38285667">
        <ele>165.0</ele>
        <time>2020-08-17T16:56:15.704Z</time>
      </trkpt>
      <trkpt lat="39.03980333" lon="1.38288833">
        <ele>166.0</ele>
        <time>2020-08-17T16:56:16.666Z</time>
      </trkpt>
      <trkpt lat="39.03980333" lon="1.38288833">
        <ele>166.0</ele>
        <time>2020-08-17T16:56:17.701Z</time>
      </trkpt>
      <trkpt lat="39.03967667" lon="1.38295333">
        <ele>168.0</ele>
        <time>2020-08-17T16:56:18.681Z</time>
      </trkpt>
      <trkpt lat="39.039615" lon="1.38298167">
        <ele>168.0</ele>
        <time>2020-08-17T16:56:19.704Z</time>
      </trkpt>
      <trkpt lat="39.039615" lon="1.38298167">
        <ele>168.0</ele>
        <time>2020-08-17T16:56:20.703Z</time>
      </trkpt>
      <trkpt lat="39.03948667" lon="1.38300833">
        <ele>169.0</ele>
        <time>2020-08-17T16:56:21.666Z</time>
      </trkpt>
      <trkpt lat="39.03948667" lon="1.38300833">
        <ele>169.0</ele>
        <time>2020-08-17T16:56:22.696Z</time>
      </trkpt>
      <trkpt lat="39.03935667" lon="1.38299167">
        <ele>171.0</ele>
        <time>2020-08-17T16:56:23.682Z</time>
      </trkpt>
      <trkpt lat="39.03935667" lon="1.38299167">
        <ele>171.0</ele>
        <time>2020-08-17T16:56:24.703Z</time>
      </trkpt>
      <trkpt lat="39.03921833" lon="1.382975">
        <ele>172.0</ele>
        <time>2020-08-17T16:56:25.703Z</time>
      </trkpt>
      <trkpt lat="39.03921833" lon="1.382975">
        <ele>172.0</ele>
        <time>2020-08-17T16:56:26.703Z</time>
      </trkpt>
      <trkpt lat="39.03906333" lon="1.38297">
        <ele>173.0</ele>
        <time>2020-08-17T16:56:27.682Z</time>
      </trkpt>
      <trkpt lat="39.03906333" lon="1.38297">
        <ele>173.0</ele>
        <time>2020-08-17T16:56:28.665Z</time>
      </trkpt>
      <trkpt lat="39.038895" lon="1.38297">
        <ele>173.0</ele>
        <time>2020-08-17T16:56:29.665Z</time>
      </trkpt>
      <trkpt lat="39.038895" lon="1.38297">
        <ele>173.0</ele>
        <time>2020-08-17T16:56:30.704Z</time>
      </trkpt>
      <trkpt lat="39.03872" lon="1.38297667">
        <ele>172.0</ele>
        <time>2020-08-17T16:56:31.699Z</time>
      </trkpt>
      <trkpt lat="39.03872" lon="1.38297667">
        <ele>172.0</ele>
        <time>2020-08-17T16:56:32.679Z</time>
      </trkpt>
      <trkpt lat="39.03853333" lon="1.38296">
        <ele>172.0</ele>
        <time>2020-08-17T16:56:33.703Z</time>
      </trkpt>
      <trkpt lat="39.03853333" lon="1.38296">
        <ele>172.0</ele>
        <time>2020-08-17T16:56:34.689Z</time>
      </trkpt>
      <trkpt lat="39.03833833" lon="1.38292">
        <ele>172.0</ele>
        <time>2020-08-17T16:56:35.668Z</time>
      </trkpt>
      <trkpt lat="39.03833833" lon="1.38292">
        <ele>172.0</ele>
        <time>2020-08-17T16:56:36.703Z</time>
      </trkpt>
      <trkpt lat="39.03815333" lon="1.382825">
        <ele>172.0</ele>
        <time>2020-08-17T16:56:37.666Z</time>
      </trkpt>
      <trkpt lat="39.03815333" lon="1.382825">
        <ele>172.0</ele>
        <time>2020-08-17T16:56:38.682Z</time>
      </trkpt>
      <trkpt lat="39.03797167" lon="1.38271333">
        <ele>172.0</ele>
        <time>2020-08-17T16:56:39.665Z</time>
      </trkpt>
      <trkpt lat="39.03797167" lon="1.38271333">
        <ele>172.0</ele>
        <time>2020-08-17T16:56:40.704Z</time>
      </trkpt>
      <trkpt lat="39.03778333" lon="1.38260667">
        <ele>172.0</ele>
        <time>2020-08-17T16:56:41.683Z</time>
      </trkpt>
      <trkpt lat="39.03778333" lon="1.38260667">
        <ele>172.0</ele>
        <time>2020-08-17T16:56:42.704Z</time>
      </trkpt>
      <trkpt lat="39.03759333" lon="1.38250333">
        <ele>172.0</ele>
        <time>2020-08-17T16:56:43.693Z</time>
      </trkpt>
      <trkpt lat="39.03750167" lon="1.38245">
        <ele>171.0</ele>
        <time>2020-08-17T16:56:44.672Z</time>
      </trkpt>
      <trkpt lat="39.03750167" lon="1.38245">
        <ele>171.0</ele>
        <time>2020-08-17T16:56:45.704Z</time>
      </trkpt>
      <trkpt lat="39.03731833" lon="1.38233833">
        <ele>171.0</ele>
        <time>2020-08-17T16:56:46.689Z</time>
      </trkpt>
      <trkpt lat="39.03731833" lon="1.38233833">
        <ele>171.0</ele>
        <time>2020-08-17T16:56:47.692Z</time>
      </trkpt>
      <trkpt lat="39.03713667" lon="1.38223">
        <ele>170.0</ele>
        <time>2020-08-17T16:56:48.681Z</time>
      </trkpt>
      <trkpt lat="39.037045" lon="1.38217667">
        <ele>170.0</ele>
        <time>2020-08-17T16:56:49.704Z</time>
      </trkpt>
      <trkpt lat="39.037045" lon="1.38217667">
        <ele>170.0</ele>
        <time>2020-08-17T16:56:50.698Z</time>
      </trkpt>
      <trkpt lat="39.03686667" lon="1.382075">
        <ele>170.0</ele>
        <time>2020-08-17T16:56:51.679Z</time>
      </trkpt>
      <trkpt lat="39.03686667" lon="1.382075">
        <ele>170.0</ele>
        <time>2020-08-17T16:56:52.699Z</time>
      </trkpt>
      <trkpt lat="39.03669833" lon="1.38197333">
        <ele>170.0</ele>
        <time>2020-08-17T16:56:53.679Z</time>
      </trkpt>
      <trkpt lat="39.03669833" lon="1.38197333">
        <ele>170.0</ele>
        <time>2020-08-17T16:56:54.703Z</time>
      </trkpt>
      <trkpt lat="39.036535" lon="1.38187333">
        <ele>169.0</ele>
        <time>2020-08-17T16:56:55.698Z</time>
      </trkpt>
      <trkpt lat="39.036535" lon="1.38187333">
        <ele>169.0</ele>
        <time>2020-08-17T16:56:56.681Z</time>
      </trkpt>
      <trkpt lat="39.03637" lon="1.38178">
        <ele>169.0</ele>
        <time>2020-08-17T16:56:57.665Z</time>
      </trkpt>
      <trkpt lat="39.03637" lon="1.38178">
        <ele>169.0</ele>
        <time>2020-08-17T16:56:58.703Z</time>
      </trkpt>
      <trkpt lat="39.03620333" lon="1.38169667">
        <ele>169.0</ele>
        <time>2020-08-17T16:56:59.666Z</time>
      </trkpt>
      <trkpt lat="39.03620333" lon="1.38169667">
        <ele>169.0</ele>
        <time>2020-08-17T16:57:00.666Z</time>
      </trkpt>
      <trkpt lat="39.03603333" lon="1.38163333">
        <ele>169.0</ele>
        <time>2020-08-17T16:57:01.671Z</time>
      </trkpt>
      <trkpt lat="39.03594833" lon="1.38161333">
        <ele>169.0</ele>
        <time>2020-08-17T16:57:02.703Z</time>
      </trkpt>
      <trkpt lat="39.03594833" lon="1.38161333">
        <ele>169.0</ele>
        <time>2020-08-17T16:57:03.694Z</time>
      </trkpt>
      <trkpt lat="39.03578167" lon="1.38158">
        <ele>170.0</ele>
        <time>2020-08-17T16:57:04.684Z</time>
      </trkpt>
      <trkpt lat="39.03578167" lon="1.38158">
        <ele>170.0</ele>
        <time>2020-08-17T16:57:05.703Z</time>
      </trkpt>
      <trkpt lat="39.03561833" lon="1.38155">
        <ele>170.0</ele>
        <time>2020-08-17T16:57:06.665Z</time>
      </trkpt>
      <trkpt lat="39.035535" lon="1.381535">
        <ele>170.0</ele>
        <time>2020-08-17T16:57:07.698Z</time>
      </trkpt>
      <trkpt lat="39.035535" lon="1.381535">
        <ele>170.0</ele>
        <time>2020-08-17T16:57:08.679Z</time>
      </trkpt>
      <trkpt lat="39.03537167" lon="1.38152167">
        <ele>170.0</ele>
        <time>2020-08-17T16:57:09.665Z</time>
      </trkpt>
      <trkpt lat="39.03537167" lon="1.38152167">
        <ele>170.0</ele>
        <time>2020-08-17T16:57:10.703Z</time>
      </trkpt>
      <trkpt lat="39.03520833" lon="1.38153">
        <ele>171.0</ele>
        <time>2020-08-17T16:57:11.689Z</time>
      </trkpt>
      <trkpt lat="39.03520833" lon="1.38153">
        <ele>171.0</ele>
        <time>2020-08-17T16:57:12.668Z</time>
      </trkpt>
      <trkpt lat="39.03504667" lon="1.381555">
        <ele>171.0</ele>
        <time>2020-08-17T16:57:13.665Z</time>
      </trkpt>
      <trkpt lat="39.03504667" lon="1.381555">
        <ele>171.0</ele>
        <time>2020-08-17T16:57:14.695Z</time>
      </trkpt>
      <trkpt lat="39.03488667" lon="1.38158">
        <ele>171.0</ele>
        <time>2020-08-17T16:57:15.704Z</time>
      </trkpt>
      <trkpt lat="39.03480667" lon="1.38159167">
        <ele>171.0</ele>
        <time>2020-08-17T16:57:16.665Z</time>
      </trkpt>
      <trkpt lat="39.03472667" lon="1.381605">
        <ele>172.0</ele>
        <time>2020-08-17T16:57:17.704Z</time>
      </trkpt>
      <trkpt lat="39.03472667" lon="1.381605">
        <ele>172.0</ele>
        <time>2020-08-17T16:57:18.703Z</time>
      </trkpt>
      <trkpt lat="39.03456833" lon="1.38163333">
        <ele>172.0</ele>
        <time>2020-08-17T16:57:19.682Z</time>
      </trkpt>
      <trkpt lat="39.03456833" lon="1.38163333">
        <ele>172.0</ele>
        <time>2020-08-17T16:57:20.703Z</time>
      </trkpt>
      <trkpt lat="39.03441333" lon="1.38166667">
        <ele>172.0</ele>
        <time>2020-08-17T16:57:21.665Z</time>
      </trkpt>
      <trkpt lat="39.03434" lon="1.38169167">
        <ele>172.0</ele>
        <time>2020-08-17T16:57:22.703Z</time>
      </trkpt>
      <trkpt lat="39.03434" lon="1.38169167">
        <ele>172.0</ele>
        <time>2020-08-17T16:57:23.683Z</time>
      </trkpt>
      <trkpt lat="39.03419333" lon="1.38172167">
        <ele>172.0</ele>
        <time>2020-08-17T16:57:24.703Z</time>
      </trkpt>
      <trkpt lat="39.03413167" lon="1.381675">
        <ele>172.0</ele>
        <time>2020-08-17T16:57:25.699Z</time>
      </trkpt>
      <trkpt lat="39.03413167" lon="1.381675">
        <ele>172.0</ele>
        <time>2020-08-17T16:57:26.679Z</time>
      </trkpt>
      <trkpt lat="39.03407" lon="1.38151167">
        <ele>173.0</ele>
        <time>2020-08-17T16:57:27.665Z</time>
      </trkpt>
      <trkpt lat="39.03407" lon="1.38151167">
        <ele>173.0</ele>
        <time>2020-08-17T16:57:28.702Z</time>
      </trkpt>
      <trkpt lat="39.03405667" lon="1.38130667">
        <ele>173.0</ele>
        <time>2020-08-17T16:57:29.683Z</time>
      </trkpt>
      <trkpt lat="39.03405667" lon="1.38130667">
        <ele>173.0</ele>
        <time>2020-08-17T16:57:30.703Z</time>
      </trkpt>
      <trkpt lat="39.03404167" lon="1.38109333">
        <ele>173.0</ele>
        <time>2020-08-17T16:57:31.682Z</time>
      </trkpt>
      <trkpt lat="39.03404167" lon="1.38109333">
        <ele>173.0</ele>
        <time>2020-08-17T16:57:32.686Z</time>
      </trkpt>
      <trkpt lat="39.03403333" lon="1.38088">
        <ele>172.0</ele>
        <time>2020-08-17T16:57:33.666Z</time>
      </trkpt>
      <trkpt lat="39.03403167" lon="1.38077167">
        <ele>172.0</ele>
        <time>2020-08-17T16:57:34.665Z</time>
      </trkpt>
      <trkpt lat="39.03402667" lon="1.38066333">
        <ele>172.0</ele>
        <time>2020-08-17T16:57:35.665Z</time>
      </trkpt>
      <trkpt lat="39.03402667" lon="1.38066333">
        <ele>172.0</ele>
        <time>2020-08-17T16:57:36.665Z</time>
      </trkpt>
      <trkpt lat="39.03401167" lon="1.38044667">
        <ele>171.0</ele>
        <time>2020-08-17T16:57:37.702Z</time>
      </trkpt>
      <trkpt lat="39.03401167" lon="1.38044667">
        <ele>171.0</ele>
        <time>2020-08-17T16:57:38.681Z</time>
      </trkpt>
      <trkpt lat="39.034" lon="1.38022333">
        <ele>171.0</ele>
        <time>2020-08-17T16:57:39.665Z</time>
      </trkpt>
      <trkpt lat="39.033995" lon="1.38011">
        <ele>171.0</ele>
        <time>2020-08-17T16:57:40.704Z</time>
      </trkpt>
      <trkpt lat="39.03398833" lon="1.37999833">
        <ele>171.0</ele>
        <time>2020-08-17T16:57:41.683Z</time>
      </trkpt>
      <trkpt lat="39.03398833" lon="1.37999833">
        <ele>171.0</ele>
        <time>2020-08-17T16:57:42.704Z</time>
      </trkpt>
      <trkpt lat="39.033975" lon="1.37977">
        <ele>170.0</ele>
        <time>2020-08-17T16:57:43.704Z</time>
      </trkpt>
      <trkpt lat="39.033975" lon="1.37977">
        <ele>170.0</ele>
        <time>2020-08-17T16:57:44.692Z</time>
      </trkpt>
      <trkpt lat="39.03396" lon="1.37953833">
        <ele>170.0</ele>
        <time>2020-08-17T16:57:45.672Z</time>
      </trkpt>
      <trkpt lat="39.03395333" lon="1.37942167">
        <ele>169.0</ele>
        <time>2020-08-17T16:57:46.666Z</time>
      </trkpt>
      <trkpt lat="39.03395333" lon="1.37942167">
        <ele>169.0</ele>
        <time>2020-08-17T16:57:47.675Z</time>
      </trkpt>
      <trkpt lat="39.03394667" lon="1.37918167">
        <ele>169.0</ele>
        <time>2020-08-17T16:57:48.666Z</time>
      </trkpt>
      <trkpt lat="39.03394333" lon="1.37906167">
        <ele>168.0</ele>
        <time>2020-08-17T16:57:49.668Z</time>
      </trkpt>
      <trkpt lat="39.03394333" lon="1.37906167">
        <ele>168.0</ele>
        <time>2020-08-17T16:57:50.702Z</time>
      </trkpt>
      <trkpt lat="39.03393" lon="1.378825">
        <ele>168.0</ele>
        <time>2020-08-17T16:57:51.682Z</time>
      </trkpt>
      <trkpt lat="39.03393" lon="1.378825">
        <ele>168.0</ele>
        <time>2020-08-17T16:57:52.665Z</time>
      </trkpt>
      <trkpt lat="39.03390833" lon="1.37859333">
        <ele>168.0</ele>
        <time>2020-08-17T16:57:53.667Z</time>
      </trkpt>
      <trkpt lat="39.03390833" lon="1.37859333">
        <ele>168.0</ele>
        <time>2020-08-17T16:57:54.704Z</time>
      </trkpt>
      <trkpt lat="39.03388" lon="1.37836333">
        <ele>168.0</ele>
        <time>2020-08-17T16:57:55.668Z</time>
      </trkpt>
      <trkpt lat="39.03388" lon="1.37836333">
        <ele>168.0</ele>
        <time>2020-08-17T16:57:56.704Z</time>
      </trkpt>
      <trkpt lat="39.03385167" lon="1.37814">
        <ele>168.0</ele>
        <time>2020-08-17T16:57:57.704Z</time>
      </trkpt>
      <trkpt lat="39.03385167" lon="1.37814">
        <ele>168.0</ele>
        <time>2020-08-17T16:57:58.683Z</time>
      </trkpt>
      <trkpt lat="39.03382667" lon="1.37792">
        <ele>168.0</ele>
        <time>2020-08-17T16:57:59.666Z</time>
      </trkpt>
      <trkpt lat="39.03382667" lon="1.37792">
        <ele>168.0</ele>
        <time>2020-08-17T16:58:00.669Z</time>
      </trkpt>
      <trkpt lat="39.03381" lon="1.37770333">
        <ele>167.0</ele>
        <time>2020-08-17T16:58:01.703Z</time>
      </trkpt>
      <trkpt lat="39.03381" lon="1.37770333">
        <ele>167.0</ele>
        <time>2020-08-17T16:58:02.704Z</time>
      </trkpt>
      <trkpt lat="39.033815" lon="1.37749167">
        <ele>167.0</ele>
        <time>2020-08-17T16:58:03.704Z</time>
      </trkpt>
      <trkpt lat="39.03383167" lon="1.37739167">
        <ele>168.0</ele>
        <time>2020-08-17T16:58:04.704Z</time>
      </trkpt>
      <trkpt lat="39.03383167" lon="1.37739167">
        <ele>168.0</ele>
        <time>2020-08-17T16:58:05.704Z</time>
      </trkpt>
      <trkpt lat="39.03389833" lon="1.37720667">
        <ele>168.0</ele>
        <time>2020-08-17T16:58:06.676Z</time>
      </trkpt>
      <trkpt lat="39.03393833" lon="1.37711833">
        <ele>168.0</ele>
        <time>2020-08-17T16:58:07.699Z</time>
      </trkpt>
      <trkpt lat="39.03393833" lon="1.37711833">
        <ele>168.0</ele>
        <time>2020-08-17T16:58:08.679Z</time>
      </trkpt>
      <trkpt lat="39.03402333" lon="1.37694833">
        <ele>168.0</ele>
        <time>2020-08-17T16:58:09.704Z</time>
      </trkpt>
      <trkpt lat="39.03402333" lon="1.37694833">
        <ele>168.0</ele>
        <time>2020-08-17T16:58:10.704Z</time>
      </trkpt>
      <trkpt lat="39.03411833" lon="1.37678667">
        <ele>167.0</ele>
        <time>2020-08-17T16:58:11.684Z</time>
      </trkpt>
      <trkpt lat="39.03411833" lon="1.37678667">
        <ele>167.0</ele>
        <time>2020-08-17T16:58:12.704Z</time>
      </trkpt>
      <trkpt lat="39.03422833" lon="1.376635">
        <ele>167.0</ele>
        <time>2020-08-17T16:58:13.691Z</time>
      </trkpt>
      <trkpt lat="39.03422833" lon="1.376635">
        <ele>167.0</ele>
        <time>2020-08-17T16:58:14.675Z</time>
      </trkpt>
      <trkpt lat="39.03434833" lon="1.37649833">
        <ele>167.0</ele>
        <time>2020-08-17T16:58:15.670Z</time>
      </trkpt>
      <trkpt lat="39.03441167" lon="1.37643333">
        <ele>167.0</ele>
        <time>2020-08-17T16:58:16.666Z</time>
      </trkpt>
      <trkpt lat="39.03447167" lon="1.376365">
        <ele>167.0</ele>
        <time>2020-08-17T16:58:17.667Z</time>
      </trkpt>
      <trkpt lat="39.03447167" lon="1.376365">
        <ele>167.0</ele>
        <time>2020-08-17T16:58:18.665Z</time>
      </trkpt>
      <trkpt lat="39.034585" lon="1.37622167">
        <ele>167.0</ele>
        <time>2020-08-17T16:58:19.682Z</time>
      </trkpt>
      <trkpt lat="39.03463833" lon="1.37615333">
        <ele>167.0</ele>
        <time>2020-08-17T16:58:20.665Z</time>
      </trkpt>
      <trkpt lat="39.03469167" lon="1.37608667">
        <ele>168.0</ele>
        <time>2020-08-17T16:58:21.704Z</time>
      </trkpt>
      <trkpt lat="39.03469167" lon="1.37608667">
        <ele>168.0</ele>
        <time>2020-08-17T16:58:22.692Z</time>
      </trkpt>
      <trkpt lat="39.03480167" lon="1.37595833">
        <ele>168.0</ele>
        <time>2020-08-17T16:58:23.667Z</time>
      </trkpt>
      <trkpt lat="39.03480167" lon="1.37595833">
        <ele>168.0</ele>
        <time>2020-08-17T16:58:24.703Z</time>
      </trkpt>
      <trkpt lat="39.03492" lon="1.37584">
        <ele>167.0</ele>
        <time>2020-08-17T16:58:25.682Z</time>
      </trkpt>
      <trkpt lat="39.03492" lon="1.37584">
        <ele>167.0</ele>
        <time>2020-08-17T16:58:26.665Z</time>
      </trkpt>
      <trkpt lat="39.03504333" lon="1.37572167">
        <ele>167.0</ele>
        <time>2020-08-17T16:58:27.704Z</time>
      </trkpt>
      <trkpt lat="39.03504333" lon="1.37572167">
        <ele>167.0</ele>
        <time>2020-08-17T16:58:28.682Z</time>
      </trkpt>
      <trkpt lat="39.03516667" lon="1.37559667">
        <ele>168.0</ele>
        <time>2020-08-17T16:58:29.666Z</time>
      </trkpt>
      <trkpt lat="39.03516667" lon="1.37559667">
        <ele>168.0</ele>
        <time>2020-08-17T16:58:30.704Z</time>
      </trkpt>
      <trkpt lat="39.03529" lon="1.37547833">
        <ele>167.0</ele>
        <time>2020-08-17T16:58:31.690Z</time>
      </trkpt>
      <trkpt lat="39.03535" lon="1.37541667">
        <ele>168.0</ele>
        <time>2020-08-17T16:58:32.679Z</time>
      </trkpt>
      <trkpt lat="39.03540833" lon="1.37535333">
        <ele>168.0</ele>
        <time>2020-08-17T16:58:33.665Z</time>
      </trkpt>
      <trkpt lat="39.03540833" lon="1.37535333">
        <ele>168.0</ele>
        <time>2020-08-17T16:58:34.697Z</time>
      </trkpt>
      <trkpt lat="39.035525" lon="1.37523">
        <ele>168.0</ele>
        <time>2020-08-17T16:58:35.678Z</time>
      </trkpt>
      <trkpt lat="39.035525" lon="1.37523">
        <ele>168.0</ele>
        <time>2020-08-17T16:58:36.702Z</time>
      </trkpt>
      <trkpt lat="39.03563167" lon="1.37509167">
        <ele>168.0</ele>
        <time>2020-08-17T16:58:37.681Z</time>
      </trkpt>
      <trkpt lat="39.03563167" lon="1.37509167">
        <ele>168.0</ele>
        <time>2020-08-17T16:58:38.665Z</time>
      </trkpt>
      <trkpt lat="39.035725" lon="1.374945">
        <ele>169.0</ele>
        <time>2020-08-17T16:58:39.697Z</time>
      </trkpt>
      <trkpt lat="39.035765" lon="1.37487167">
        <ele>169.0</ele>
        <time>2020-08-17T16:58:40.677Z</time>
      </trkpt>
      <trkpt lat="39.03580167" lon="1.3748">
        <ele>169.0</ele>
        <time>2020-08-17T16:58:41.665Z</time>
      </trkpt>
      <trkpt lat="39.03580167" lon="1.3748">
        <ele>169.0</ele>
        <time>2020-08-17T16:58:42.703Z</time>
      </trkpt>
      <trkpt lat="39.03587333" lon="1.37465667">
        <ele>169.0</ele>
        <time>2020-08-17T16:58:43.682Z</time>
      </trkpt>
      <trkpt lat="39.03587333" lon="1.37465667">
        <ele>169.0</ele>
        <time>2020-08-17T16:58:44.669Z</time>
      </trkpt>
      <trkpt lat="39.035945" lon="1.37451333">
        <ele>170.0</ele>
        <time>2020-08-17T16:58:45.704Z</time>
      </trkpt>
      <trkpt lat="39.035945" lon="1.37451333">
        <ele>170.0</ele>
        <time>2020-08-17T16:58:46.702Z</time>
      </trkpt>
      <trkpt lat="39.036" lon="1.37436333">
        <ele>170.0</ele>
        <time>2020-08-17T16:58:47.682Z</time>
      </trkpt>
      <trkpt lat="39.036" lon="1.37436333">
        <ele>170.0</ele>
        <time>2020-08-17T16:58:48.704Z</time>
      </trkpt>
      <trkpt lat="39.03601167" lon="1.37418833">
        <ele>171.0</ele>
        <time>2020-08-17T16:58:49.669Z</time>
      </trkpt>
      <trkpt lat="39.03599167" lon="1.37409833">
        <ele>170.0</ele>
        <time>2020-08-17T16:58:50.704Z</time>
      </trkpt>
      <trkpt lat="39.03599167" lon="1.37409833">
        <ele>170.0</ele>
        <time>2020-08-17T16:58:51.684Z</time>
      </trkpt>
      <trkpt lat="39.03592333" lon="1.37393">
        <ele>170.0</ele>
        <time>2020-08-17T16:58:52.672Z</time>
      </trkpt>
      <trkpt lat="39.03588" lon="1.37385333">
        <ele>170.0</ele>
        <time>2020-08-17T16:58:53.704Z</time>
      </trkpt>
      <trkpt lat="39.03588" lon="1.37385333">
        <ele>170.0</ele>
        <time>2020-08-17T16:58:54.696Z</time>
      </trkpt>
      <trkpt lat="39.03577833" lon="1.37371167">
        <ele>170.0</ele>
        <time>2020-08-17T16:58:55.676Z</time>
      </trkpt>
      <trkpt lat="39.03577833" lon="1.37371167">
        <ele>170.0</ele>
        <time>2020-08-17T16:58:56.668Z</time>
      </trkpt>
      <trkpt lat="39.03567" lon="1.37357333">
        <ele>170.0</ele>
        <time>2020-08-17T16:58:57.703Z</time>
      </trkpt>
      <trkpt lat="39.03567" lon="1.37357333">
        <ele>170.0</ele>
        <time>2020-08-17T16:58:58.683Z</time>
      </trkpt>
      <trkpt lat="39.03556333" lon="1.37342833">
        <ele>170.0</ele>
        <time>2020-08-17T16:58:59.668Z</time>
      </trkpt>
      <trkpt lat="39.03556333" lon="1.37342833">
        <ele>170.0</ele>
        <time>2020-08-17T16:59:00.671Z</time>
      </trkpt>
      <trkpt lat="39.03547" lon="1.37327167">
        <ele>171.0</ele>
        <time>2020-08-17T16:59:01.700Z</time>
      </trkpt>
      <trkpt lat="39.03547" lon="1.37327167">
        <ele>171.0</ele>
        <time>2020-08-17T16:59:02.682Z</time>
      </trkpt>
      <trkpt lat="39.03539333" lon="1.37310667">
        <ele>171.0</ele>
        <time>2020-08-17T16:59:03.704Z</time>
      </trkpt>
      <trkpt lat="39.03539333" lon="1.37310667">
        <ele>171.0</ele>
        <time>2020-08-17T16:59:04.665Z</time>
      </trkpt>
      <trkpt lat="39.03532" lon="1.372935">
        <ele>171.0</ele>
        <time>2020-08-17T16:59:05.665Z</time>
      </trkpt>
      <trkpt lat="39.03532" lon="1.372935">
        <ele>171.0</ele>
        <time>2020-08-17T16:59:06.704Z</time>
      </trkpt>
      <trkpt lat="39.03524833" lon="1.37275833">
        <ele>171.0</ele>
        <time>2020-08-17T16:59:07.668Z</time>
      </trkpt>
      <trkpt lat="39.03524833" lon="1.37275833">
        <ele>171.0</ele>
        <time>2020-08-17T16:59:08.703Z</time>
      </trkpt>
      <trkpt lat="39.035175" lon="1.37257667">
        <ele>171.0</ele>
        <time>2020-08-17T16:59:09.665Z</time>
      </trkpt>
      <trkpt lat="39.035175" lon="1.37257667">
        <ele>171.0</ele>
        <time>2020-08-17T16:59:10.697Z</time>
      </trkpt>
      <trkpt lat="39.03510167" lon="1.37239">
        <ele>171.0</ele>
        <time>2020-08-17T16:59:11.676Z</time>
      </trkpt>
      <trkpt lat="39.03510167" lon="1.37239">
        <ele>171.0</ele>
        <time>2020-08-17T16:59:12.704Z</time>
      </trkpt>
      <trkpt lat="39.03503833" lon="1.37219333">
        <ele>170.0</ele>
        <time>2020-08-17T16:59:13.703Z</time>
      </trkpt>
      <trkpt lat="39.03503833" lon="1.37219333">
        <ele>170.0</ele>
        <time>2020-08-17T16:59:14.683Z</time>
      </trkpt>
      <trkpt lat="39.03498833" lon="1.37198167">
        <ele>170.0</ele>
        <time>2020-08-17T16:59:15.677Z</time>
      </trkpt>
      <trkpt lat="39.03496833" lon="1.37187833">
        <ele>169.0</ele>
        <time>2020-08-17T16:59:16.683Z</time>
      </trkpt>
      <trkpt lat="39.03495" lon="1.37177167">
        <ele>169.0</ele>
        <time>2020-08-17T16:59:17.690Z</time>
      </trkpt>
      <trkpt lat="39.03495" lon="1.37177167">
        <ele>169.0</ele>
        <time>2020-08-17T16:59:18.670Z</time>
      </trkpt>
      <trkpt lat="39.03491" lon="1.37153833">
        <ele>168.0</ele>
        <time>2020-08-17T16:59:19.671Z</time>
      </trkpt>
      <trkpt lat="39.03491" lon="1.37153833">
        <ele>168.0</ele>
        <time>2020-08-17T16:59:20.673Z</time>
      </trkpt>
      <trkpt lat="39.03488" lon="1.37130333">
        <ele>167.0</ele>
        <time>2020-08-17T16:59:21.666Z</time>
      </trkpt>
      <trkpt lat="39.03487" lon="1.37117833">
        <ele>167.0</ele>
        <time>2020-08-17T16:59:22.703Z</time>
      </trkpt>
      <trkpt lat="39.03487" lon="1.37117833">
        <ele>167.0</ele>
        <time>2020-08-17T16:59:23.703Z</time>
      </trkpt>
      <trkpt lat="39.034845" lon="1.37092333">
        <ele>166.0</ele>
        <time>2020-08-17T16:59:24.683Z</time>
      </trkpt>
      <trkpt lat="39.03484" lon="1.37079333">
        <ele>165.0</ele>
        <time>2020-08-17T16:59:25.671Z</time>
      </trkpt>
      <trkpt lat="39.03484" lon="1.37079333">
        <ele>165.0</ele>
        <time>2020-08-17T16:59:26.665Z</time>
      </trkpt>
      <trkpt lat="39.03484333" lon="1.37052667">
        <ele>164.0</ele>
        <time>2020-08-17T16:59:27.704Z</time>
      </trkpt>
      <trkpt lat="39.03484333" lon="1.37052667">
        <ele>164.0</ele>
        <time>2020-08-17T16:59:28.703Z</time>
      </trkpt>
      <trkpt lat="39.03484833" lon="1.37025833">
        <ele>163.0</ele>
        <time>2020-08-17T16:59:29.684Z</time>
      </trkpt>
      <trkpt lat="39.03484833" lon="1.37025833">
        <ele>163.0</ele>
        <time>2020-08-17T16:59:30.670Z</time>
      </trkpt>
      <trkpt lat="39.03485167" lon="1.36999167">
        <ele>162.0</ele>
        <time>2020-08-17T16:59:31.667Z</time>
      </trkpt>
      <trkpt lat="39.03485167" lon="1.36999167">
        <ele>162.0</ele>
        <time>2020-08-17T16:59:32.704Z</time>
      </trkpt>
      <trkpt lat="39.03486667" lon="1.369725">
        <ele>161.0</ele>
        <time>2020-08-17T16:59:33.699Z</time>
      </trkpt>
      <trkpt lat="39.03486667" lon="1.369725">
        <ele>161.0</ele>
        <time>2020-08-17T16:59:34.679Z</time>
      </trkpt>
      <trkpt lat="39.03488333" lon="1.36945167">
        <ele>161.0</ele>
        <time>2020-08-17T16:59:35.668Z</time>
      </trkpt>
      <trkpt lat="39.03488333" lon="1.36945167">
        <ele>161.0</ele>
        <time>2020-08-17T16:59:36.665Z</time>
      </trkpt>
      <trkpt lat="39.03489333" lon="1.36917833">
        <ele>160.0</ele>
        <time>2020-08-17T16:59:37.667Z</time>
      </trkpt>
      <trkpt lat="39.03489333" lon="1.36917833">
        <ele>160.0</ele>
        <time>2020-08-17T16:59:38.703Z</time>
      </trkpt>
      <trkpt lat="39.03492667" lon="1.36891">
        <ele>159.0</ele>
        <time>2020-08-17T16:59:39.684Z</time>
      </trkpt>
      <trkpt lat="39.034945" lon="1.36877333">
        <ele>159.0</ele>
        <time>2020-08-17T16:59:40.668Z</time>
      </trkpt>
      <trkpt lat="39.034965" lon="1.36863833">
        <ele>159.0</ele>
        <time>2020-08-17T16:59:41.669Z</time>
      </trkpt>
      <trkpt lat="39.034965" lon="1.36863833">
        <ele>159.0</ele>
        <time>2020-08-17T16:59:42.704Z</time>
      </trkpt>
      <trkpt lat="39.03503333" lon="1.36838833">
        <ele>158.0</ele>
        <time>2020-08-17T16:59:43.670Z</time>
      </trkpt>
      <trkpt lat="39.03507167" lon="1.36827">
        <ele>158.0</ele>
        <time>2020-08-17T16:59:44.678Z</time>
      </trkpt>
      <trkpt lat="39.03507167" lon="1.36827">
        <ele>158.0</ele>
        <time>2020-08-17T16:59:45.668Z</time>
      </trkpt>
      <trkpt lat="39.03515333" lon="1.36803833">
        <ele>157.0</ele>
        <time>2020-08-17T16:59:46.690Z</time>
      </trkpt>
      <trkpt lat="39.03519" lon="1.367925">
        <ele>157.0</ele>
        <time>2020-08-17T16:59:47.670Z</time>
      </trkpt>
      <trkpt lat="39.03519" lon="1.367925">
        <ele>157.0</ele>
        <time>2020-08-17T16:59:48.665Z</time>
      </trkpt>
      <trkpt lat="39.03524833" lon="1.36768167">
        <ele>158.0</ele>
        <time>2020-08-17T16:59:49.676Z</time>
      </trkpt>
      <trkpt lat="39.03524833" lon="1.36768167">
        <ele>158.0</ele>
        <time>2020-08-17T16:59:50.705Z</time>
      </trkpt>
      <trkpt lat="39.03528" lon="1.36743667">
        <ele>159.0</ele>
        <time>2020-08-17T16:59:51.704Z</time>
      </trkpt>
      <trkpt lat="39.03528" lon="1.36743667">
        <ele>159.0</ele>
        <time>2020-08-17T16:59:52.704Z</time>
      </trkpt>
      <trkpt lat="39.03529833" lon="1.36719167">
        <ele>159.0</ele>
        <time>2020-08-17T16:59:53.684Z</time>
      </trkpt>
      <trkpt lat="39.03529833" lon="1.36719167">
        <ele>159.0</ele>
        <time>2020-08-17T16:59:54.704Z</time>
      </trkpt>
      <trkpt lat="39.03532167" lon="1.36695">
        <ele>158.0</ele>
        <time>2020-08-17T16:59:55.665Z</time>
      </trkpt>
      <trkpt lat="39.03532167" lon="1.36695">
        <ele>158.0</ele>
        <time>2020-08-17T16:59:56.704Z</time>
      </trkpt>
      <trkpt lat="39.03533167" lon="1.36670833">
        <ele>158.0</ele>
        <time>2020-08-17T16:59:57.699Z</time>
      </trkpt>
      <trkpt lat="39.03533167" lon="1.36670833">
        <ele>158.0</ele>
        <time>2020-08-17T16:59:58.678Z</time>
      </trkpt>
      <trkpt lat="39.03532833" lon="1.366475">
        <ele>159.0</ele>
        <time>2020-08-17T16:59:59.667Z</time>
      </trkpt>
      <trkpt lat="39.03532833" lon="1.366475">
        <ele>159.0</ele>
        <time>2020-08-17T17:00:00.669Z</time>
      </trkpt>
      <trkpt lat="39.03531167" lon="1.36624667">
        <ele>159.0</ele>
        <time>2020-08-17T17:00:01.671Z</time>
      </trkpt>
      <trkpt lat="39.03531167" lon="1.36624667">
        <ele>159.0</ele>
        <time>2020-08-17T17:00:02.669Z</time>
      </trkpt>
      <trkpt lat="39.03527333" lon="1.36602167">
        <ele>159.0</ele>
        <time>2020-08-17T17:00:03.666Z</time>
      </trkpt>
      <trkpt lat="39.03527333" lon="1.36602167">
        <ele>159.0</ele>
        <time>2020-08-17T17:00:04.703Z</time>
      </trkpt>
      <trkpt lat="39.03522" lon="1.365805">
        <ele>159.0</ele>
        <time>2020-08-17T17:00:05.683Z</time>
      </trkpt>
      <trkpt lat="39.03522" lon="1.365805">
        <ele>159.0</ele>
        <time>2020-08-17T17:00:06.665Z</time>
      </trkpt>
      <trkpt lat="39.03516833" lon="1.36559167">
        <ele>158.0</ele>
        <time>2020-08-17T17:00:07.667Z</time>
      </trkpt>
      <trkpt lat="39.03516833" lon="1.36559167">
        <ele>158.0</ele>
        <time>2020-08-17T17:00:08.705Z</time>
      </trkpt>
      <trkpt lat="39.03511833" lon="1.365375">
        <ele>159.0</ele>
        <time>2020-08-17T17:00:09.667Z</time>
      </trkpt>
      <trkpt lat="39.035095" lon="1.36526833">
        <ele>159.0</ele>
        <time>2020-08-17T17:00:10.666Z</time>
      </trkpt>
      <trkpt lat="39.035095" lon="1.36526833">
        <ele>159.0</ele>
        <time>2020-08-17T17:00:11.689Z</time>
      </trkpt>
      <trkpt lat="39.03504667" lon="1.36505833">
        <ele>159.0</ele>
        <time>2020-08-17T17:00:12.669Z</time>
      </trkpt>
      <trkpt lat="39.03502167" lon="1.364955">
        <ele>159.0</ele>
        <time>2020-08-17T17:00:13.667Z</time>
      </trkpt>
      <trkpt lat="39.03502167" lon="1.364955">
        <ele>159.0</ele>
        <time>2020-08-17T17:00:14.695Z</time>
      </trkpt>
      <trkpt lat="39.03497" lon="1.36475167">
        <ele>159.0</ele>
        <time>2020-08-17T17:00:15.674Z</time>
      </trkpt>
      <trkpt lat="39.03497" lon="1.36475167">
        <ele>159.0</ele>
        <time>2020-08-17T17:00:16.665Z</time>
      </trkpt>
      <trkpt lat="39.03488333" lon="1.36457167">
        <ele>158.0</ele>
        <time>2020-08-17T17:00:17.684Z</time>
      </trkpt>
      <trkpt lat="39.03488333" lon="1.36457167">
        <ele>158.0</ele>
        <time>2020-08-17T17:00:18.705Z</time>
      </trkpt>
      <trkpt lat="39.034775" lon="1.364405">
        <ele>158.0</ele>
        <time>2020-08-17T17:00:19.683Z</time>
      </trkpt>
      <trkpt lat="39.034775" lon="1.364405">
        <ele>158.0</ele>
        <time>2020-08-17T17:00:20.665Z</time>
      </trkpt>
      <trkpt lat="39.034665" lon="1.36423333">
        <ele>157.0</ele>
        <time>2020-08-17T17:00:21.667Z</time>
      </trkpt>
      <trkpt lat="39.03460833" lon="1.36414667">
        <ele>157.0</ele>
        <time>2020-08-17T17:00:22.704Z</time>
      </trkpt>
      <trkpt lat="39.03460833" lon="1.36414667">
        <ele>157.0</ele>
        <time>2020-08-17T17:00:23.684Z</time>
      </trkpt>
      <trkpt lat="39.03449167" lon="1.36397667">
        <ele>156.0</ele>
        <time>2020-08-17T17:00:24.704Z</time>
      </trkpt>
      <trkpt lat="39.03443333" lon="1.36389167">
        <ele>156.0</ele>
        <time>2020-08-17T17:00:25.665Z</time>
      </trkpt>
      <trkpt lat="39.03443333" lon="1.36389167">
        <ele>156.0</ele>
        <time>2020-08-17T17:00:26.665Z</time>
      </trkpt>
      <trkpt lat="39.034315" lon="1.363725">
        <ele>156.0</ele>
        <time>2020-08-17T17:00:27.665Z</time>
      </trkpt>
      <trkpt lat="39.034255" lon="1.363645">
        <ele>156.0</ele>
        <time>2020-08-17T17:00:28.704Z</time>
      </trkpt>
      <trkpt lat="39.03419333" lon="1.36356667">
        <ele>155.0</ele>
        <time>2020-08-17T17:00:29.689Z</time>
      </trkpt>
      <trkpt lat="39.03419333" lon="1.36356667">
        <ele>155.0</ele>
        <time>2020-08-17T17:00:30.704Z</time>
      </trkpt>
      <trkpt lat="39.03407333" lon="1.36341167">
        <ele>155.0</ele>
        <time>2020-08-17T17:00:31.684Z</time>
      </trkpt>
      <trkpt lat="39.03407333" lon="1.36341167">
        <ele>155.0</ele>
        <time>2020-08-17T17:00:32.667Z</time>
      </trkpt>
      <trkpt lat="39.03396167" lon="1.363255">
        <ele>155.0</ele>
        <time>2020-08-17T17:00:33.704Z</time>
      </trkpt>
      <trkpt lat="39.03396167" lon="1.363255">
        <ele>155.0</ele>
        <time>2020-08-17T17:00:34.665Z</time>
      </trkpt>
      <trkpt lat="39.03385833" lon="1.363095">
        <ele>156.0</ele>
        <time>2020-08-17T17:00:35.683Z</time>
      </trkpt>
      <trkpt lat="39.03385833" lon="1.363095">
        <ele>156.0</ele>
        <time>2020-08-17T17:00:36.705Z</time>
      </trkpt>
      <trkpt lat="39.033765" lon="1.36293333">
        <ele>156.0</ele>
        <time>2020-08-17T17:00:37.672Z</time>
      </trkpt>
      <trkpt lat="39.033765" lon="1.36293333">
        <ele>156.0</ele>
        <time>2020-08-17T17:00:38.696Z</time>
      </trkpt>
      <trkpt lat="39.03367667" lon="1.36276167">
        <ele>156.0</ele>
        <time>2020-08-17T17:00:39.675Z</time>
      </trkpt>
      <trkpt lat="39.03367667" lon="1.36276167">
        <ele>156.0</ele>
        <time>2020-08-17T17:00:40.675Z</time>
      </trkpt>
      <trkpt lat="39.03359167" lon="1.362585">
        <ele>156.0</ele>
        <time>2020-08-17T17:00:41.669Z</time>
      </trkpt>
      <trkpt lat="39.03359167" lon="1.362585">
        <ele>156.0</ele>
        <time>2020-08-17T17:00:42.666Z</time>
      </trkpt>
      <trkpt lat="39.033515" lon="1.36240167">
        <ele>156.0</ele>
        <time>2020-08-17T17:00:43.667Z</time>
      </trkpt>
      <trkpt lat="39.033515" lon="1.36240167">
        <ele>156.0</ele>
        <time>2020-08-17T17:00:44.665Z</time>
      </trkpt>
      <trkpt lat="39.03344167" lon="1.36221667">
        <ele>156.0</ele>
        <time>2020-08-17T17:00:45.665Z</time>
      </trkpt>
      <trkpt lat="39.03340833" lon="1.36212167">
        <ele>156.0</ele>
        <time>2020-08-17T17:00:46.690Z</time>
      </trkpt>
      <trkpt lat="39.033375" lon="1.362025">
        <ele>156.0</ele>
        <time>2020-08-17T17:00:47.671Z</time>
      </trkpt>
      <trkpt lat="39.033375" lon="1.362025">
        <ele>156.0</ele>
        <time>2020-08-17T17:00:48.704Z</time>
      </trkpt>
      <trkpt lat="39.03330667" lon="1.36183667">
        <ele>156.0</ele>
        <time>2020-08-17T17:00:49.699Z</time>
      </trkpt>
      <trkpt lat="39.03327333" lon="1.36174167">
        <ele>156.0</ele>
        <time>2020-08-17T17:00:50.684Z</time>
      </trkpt>
      <trkpt lat="39.03324333" lon="1.36164833">
        <ele>156.0</ele>
        <time>2020-08-17T17:00:51.671Z</time>
      </trkpt>
      <trkpt lat="39.03324333" lon="1.36164833">
        <ele>156.0</ele>
        <time>2020-08-17T17:00:52.666Z</time>
      </trkpt>
      <trkpt lat="39.03318333" lon="1.36146">
        <ele>156.0</ele>
        <time>2020-08-17T17:00:53.667Z</time>
      </trkpt>
      <trkpt lat="39.03318333" lon="1.36146">
        <ele>156.0</ele>
        <time>2020-08-17T17:00:54.705Z</time>
      </trkpt>
      <trkpt lat="39.03313333" lon="1.36127">
        <ele>156.0</ele>
        <time>2020-08-17T17:00:55.671Z</time>
      </trkpt>
      <trkpt lat="39.03313333" lon="1.36127">
        <ele>156.0</ele>
        <time>2020-08-17T17:00:56.704Z</time>
      </trkpt>
      <trkpt lat="39.03308" lon="1.36108">
        <ele>156.0</ele>
        <time>2020-08-17T17:00:57.690Z</time>
      </trkpt>
      <trkpt lat="39.033055" lon="1.36098667">
        <ele>156.0</ele>
        <time>2020-08-17T17:00:58.675Z</time>
      </trkpt>
      <trkpt lat="39.03303" lon="1.360895">
        <ele>156.0</ele>
        <time>2020-08-17T17:00:59.665Z</time>
      </trkpt>
      <trkpt lat="39.03303" lon="1.360895">
        <ele>156.0</ele>
        <time>2020-08-17T17:01:00.694Z</time>
      </trkpt>
      <trkpt lat="39.03298333" lon="1.36071">
        <ele>156.0</ele>
        <time>2020-08-17T17:01:01.676Z</time>
      </trkpt>
      <trkpt lat="39.03298333" lon="1.36071">
        <ele>156.0</ele>
        <time>2020-08-17T17:01:02.666Z</time>
      </trkpt>
      <trkpt lat="39.03293667" lon="1.36053">
        <ele>157.0</ele>
        <time>2020-08-17T17:01:03.665Z</time>
      </trkpt>
      <trkpt lat="39.03293667" lon="1.36053">
        <ele>157.0</ele>
        <time>2020-08-17T17:01:04.704Z</time>
      </trkpt>
      <trkpt lat="39.03289667" lon="1.36035167">
        <ele>157.0</ele>
        <time>2020-08-17T17:01:05.684Z</time>
      </trkpt>
      <trkpt lat="39.03289667" lon="1.36035167">
        <ele>157.0</ele>
        <time>2020-08-17T17:01:06.704Z</time>
      </trkpt>
      <trkpt lat="39.03285833" lon="1.360175">
        <ele>157.0</ele>
        <time>2020-08-17T17:01:07.666Z</time>
      </trkpt>
      <trkpt lat="39.03285833" lon="1.360175">
        <ele>157.0</ele>
        <time>2020-08-17T17:01:08.703Z</time>
      </trkpt>
      <trkpt lat="39.03282333" lon="1.36000167">
        <ele>157.0</ele>
        <time>2020-08-17T17:01:09.683Z</time>
      </trkpt>
      <trkpt lat="39.03282333" lon="1.36000167">
        <ele>157.0</ele>
        <time>2020-08-17T17:01:10.670Z</time>
      </trkpt>
      <trkpt lat="39.03280167" lon="1.35983">
        <ele>157.0</ele>
        <time>2020-08-17T17:01:11.666Z</time>
      </trkpt>
      <trkpt lat="39.03279667" lon="1.35974333">
        <ele>157.0</ele>
        <time>2020-08-17T17:01:12.666Z</time>
      </trkpt>
      <trkpt lat="39.03279667" lon="1.359655">
        <ele>157.0</ele>
        <time>2020-08-17T17:01:13.672Z</time>
      </trkpt>
      <trkpt lat="39.03279667" lon="1.359655">
        <ele>157.0</ele>
        <time>2020-08-17T17:01:14.685Z</time>
      </trkpt>
      <trkpt lat="39.03280167" lon="1.35948333">
        <ele>157.0</ele>
        <time>2020-08-17T17:01:15.680Z</time>
      </trkpt>
      <trkpt lat="39.03280667" lon="1.35939833">
        <ele>157.0</ele>
        <time>2020-08-17T17:01:16.704Z</time>
      </trkpt>
      <trkpt lat="39.03280833" lon="1.35931333">
        <ele>157.0</ele>
        <time>2020-08-17T17:01:17.700Z</time>
      </trkpt>
      <trkpt lat="39.03280833" lon="1.35931333">
        <ele>157.0</ele>
        <time>2020-08-17T17:01:18.680Z</time>
      </trkpt>
      <trkpt lat="39.03281" lon="1.35914333">
        <ele>157.0</ele>
        <time>2020-08-17T17:01:19.665Z</time>
      </trkpt>
      <trkpt lat="39.03281" lon="1.35914333">
        <ele>157.0</ele>
        <time>2020-08-17T17:01:20.668Z</time>
      </trkpt>
      <trkpt lat="39.03281167" lon="1.35897333">
        <ele>157.0</ele>
        <time>2020-08-17T17:01:21.667Z</time>
      </trkpt>
      <trkpt lat="39.03281167" lon="1.35889">
        <ele>157.0</ele>
        <time>2020-08-17T17:01:22.667Z</time>
      </trkpt>
      <trkpt lat="39.03281" lon="1.358805">
        <ele>157.0</ele>
        <time>2020-08-17T17:01:23.669Z</time>
      </trkpt>
      <trkpt lat="39.03281" lon="1.358805">
        <ele>157.0</ele>
        <time>2020-08-17T17:01:24.665Z</time>
      </trkpt>
      <trkpt lat="39.03279833" lon="1.358635">
        <ele>157.0</ele>
        <time>2020-08-17T17:01:25.667Z</time>
      </trkpt>
      <trkpt lat="39.03279833" lon="1.358635">
        <ele>157.0</ele>
        <time>2020-08-17T17:01:26.704Z</time>
      </trkpt>
      <trkpt lat="39.03278167" lon="1.35846667">
        <ele>157.0</ele>
        <time>2020-08-17T17:01:27.683Z</time>
      </trkpt>
      <trkpt lat="39.03277167" lon="1.35838333">
        <ele>157.0</ele>
        <time>2020-08-17T17:01:28.665Z</time>
      </trkpt>
      <trkpt lat="39.03276" lon="1.35830167">
        <ele>157.0</ele>
        <time>2020-08-17T17:01:29.669Z</time>
      </trkpt>
      <trkpt lat="39.03276" lon="1.35830167">
        <ele>157.0</ele>
        <time>2020-08-17T17:01:30.665Z</time>
      </trkpt>
      <trkpt lat="39.03272833" lon="1.35814">
        <ele>157.0</ele>
        <time>2020-08-17T17:01:31.670Z</time>
      </trkpt>
      <trkpt lat="39.03272833" lon="1.35814">
        <ele>157.0</ele>
        <time>2020-08-17T17:01:32.665Z</time>
      </trkpt>
      <trkpt lat="39.03269167" lon="1.35797833">
        <ele>157.0</ele>
        <time>2020-08-17T17:01:33.665Z</time>
      </trkpt>
      <trkpt lat="39.03269167" lon="1.35797833">
        <ele>157.0</ele>
        <time>2020-08-17T17:01:34.665Z</time>
      </trkpt>
      <trkpt lat="39.03265333" lon="1.35781">
        <ele>156.0</ele>
        <time>2020-08-17T17:01:35.684Z</time>
      </trkpt>
      <trkpt lat="39.03265333" lon="1.35781">
        <ele>156.0</ele>
        <time>2020-08-17T17:01:36.665Z</time>
      </trkpt>
      <trkpt lat="39.03262" lon="1.35763833">
        <ele>156.0</ele>
        <time>2020-08-17T17:01:37.667Z</time>
      </trkpt>
      <trkpt lat="39.03262" lon="1.35763833">
        <ele>156.0</ele>
        <time>2020-08-17T17:01:38.665Z</time>
      </trkpt>
      <trkpt lat="39.032585" lon="1.35746333">
        <ele>156.0</ele>
        <time>2020-08-17T17:01:39.666Z</time>
      </trkpt>
      <trkpt lat="39.03256667" lon="1.357375">
        <ele>156.0</ele>
        <time>2020-08-17T17:01:40.669Z</time>
      </trkpt>
      <trkpt lat="39.03254667" lon="1.35728667">
        <ele>156.0</ele>
        <time>2020-08-17T17:01:41.669Z</time>
      </trkpt>
      <trkpt lat="39.03254667" lon="1.35728667">
        <ele>156.0</ele>
        <time>2020-08-17T17:01:42.704Z</time>
      </trkpt>
      <trkpt lat="39.03250667" lon="1.35711">
        <ele>156.0</ele>
        <time>2020-08-17T17:01:43.684Z</time>
      </trkpt>
      <trkpt lat="39.03250667" lon="1.35711">
        <ele>156.0</ele>
        <time>2020-08-17T17:01:44.666Z</time>
      </trkpt>
      <trkpt lat="39.03246667" lon="1.35693">
        <ele>156.0</ele>
        <time>2020-08-17T17:01:45.704Z</time>
      </trkpt>
      <trkpt lat="39.03246667" lon="1.35693">
        <ele>156.0</ele>
        <time>2020-08-17T17:01:46.698Z</time>
      </trkpt>
      <trkpt lat="39.03243" lon="1.35675333">
        <ele>156.0</ele>
        <time>2020-08-17T17:01:47.678Z</time>
      </trkpt>
      <trkpt lat="39.03243" lon="1.35675333">
        <ele>156.0</ele>
        <time>2020-08-17T17:01:48.665Z</time>
      </trkpt>
      <trkpt lat="39.03239667" lon="1.35658167">
        <ele>156.0</ele>
        <time>2020-08-17T17:01:49.671Z</time>
      </trkpt>
      <trkpt lat="39.03238" lon="1.356495">
        <ele>156.0</ele>
        <time>2020-08-17T17:01:50.678Z</time>
      </trkpt>
      <trkpt lat="39.03238" lon="1.356495">
        <ele>156.0</ele>
        <time>2020-08-17T17:01:51.669Z</time>
      </trkpt>
      <trkpt lat="39.03235" lon="1.356325">
        <ele>155.0</ele>
        <time>2020-08-17T17:01:52.699Z</time>
      </trkpt>
      <trkpt lat="39.03233667" lon="1.35624167">
        <ele>156.0</ele>
        <time>2020-08-17T17:01:53.678Z</time>
      </trkpt>
      <trkpt lat="39.03233667" lon="1.35624167">
        <ele>156.0</ele>
        <time>2020-08-17T17:01:54.665Z</time>
      </trkpt>
      <trkpt lat="39.03230333" lon="1.35607167">
        <ele>156.0</ele>
        <time>2020-08-17T17:01:55.666Z</time>
      </trkpt>
      <trkpt lat="39.03230333" lon="1.35607167">
        <ele>156.0</ele>
        <time>2020-08-17T17:01:56.668Z</time>
      </trkpt>
      <trkpt lat="39.032255" lon="1.355905">
        <ele>156.0</ele>
        <time>2020-08-17T17:01:57.704Z</time>
      </trkpt>
      <trkpt lat="39.032255" lon="1.355905">
        <ele>156.0</ele>
        <time>2020-08-17T17:01:58.665Z</time>
      </trkpt>
      <trkpt lat="39.03218833" lon="1.35574833">
        <ele>156.0</ele>
        <time>2020-08-17T17:01:59.685Z</time>
      </trkpt>
      <trkpt lat="39.03218833" lon="1.35574833">
        <ele>156.0</ele>
        <time>2020-08-17T17:02:00.694Z</time>
      </trkpt>
      <trkpt lat="39.03211333" lon="1.35559333">
        <ele>156.0</ele>
        <time>2020-08-17T17:02:01.679Z</time>
      </trkpt>
      <trkpt lat="39.03207333" lon="1.35552">
        <ele>156.0</ele>
        <time>2020-08-17T17:02:02.704Z</time>
      </trkpt>
      <trkpt lat="39.03207333" lon="1.35552">
        <ele>156.0</ele>
        <time>2020-08-17T17:02:03.683Z</time>
      </trkpt>
      <trkpt lat="39.031985" lon="1.35538">
        <ele>156.0</ele>
        <time>2020-08-17T17:02:04.666Z</time>
      </trkpt>
      <trkpt lat="39.03193833" lon="1.35531333">
        <ele>156.0</ele>
        <time>2020-08-17T17:02:05.684Z</time>
      </trkpt>
      <trkpt lat="39.03193833" lon="1.35531333">
        <ele>156.0</ele>
        <time>2020-08-17T17:02:06.665Z</time>
      </trkpt>
      <trkpt lat="39.03184" lon="1.35518333">
        <ele>156.0</ele>
        <time>2020-08-17T17:02:07.672Z</time>
      </trkpt>
      <trkpt lat="39.03184" lon="1.35518333">
        <ele>156.0</ele>
        <time>2020-08-17T17:02:08.704Z</time>
      </trkpt>
      <trkpt lat="39.03174" lon="1.35505833">
        <ele>156.0</ele>
        <time>2020-08-17T17:02:09.667Z</time>
      </trkpt>
      <trkpt lat="39.03174" lon="1.35505833">
        <ele>156.0</ele>
        <time>2020-08-17T17:02:10.680Z</time>
      </trkpt>
      <trkpt lat="39.03164667" lon="1.35493167">
        <ele>156.0</ele>
        <time>2020-08-17T17:02:11.670Z</time>
      </trkpt>
      <trkpt lat="39.03164667" lon="1.35493167">
        <ele>156.0</ele>
        <time>2020-08-17T17:02:12.704Z</time>
      </trkpt>
      <trkpt lat="39.03157" lon="1.35479833">
        <ele>156.0</ele>
        <time>2020-08-17T17:02:13.684Z</time>
      </trkpt>
      <trkpt lat="39.03157" lon="1.35479833">
        <ele>156.0</ele>
        <time>2020-08-17T17:02:14.695Z</time>
      </trkpt>
      <trkpt lat="39.03152167" lon="1.35465333">
        <ele>156.0</ele>
        <time>2020-08-17T17:02:15.675Z</time>
      </trkpt>
      <trkpt lat="39.03150667" lon="1.35458">
        <ele>156.0</ele>
        <time>2020-08-17T17:02:16.669Z</time>
      </trkpt>
      <trkpt lat="39.03150167" lon="1.35450833">
        <ele>156.0</ele>
        <time>2020-08-17T17:02:17.665Z</time>
      </trkpt>
      <trkpt lat="39.03150167" lon="1.35450833">
        <ele>156.0</ele>
        <time>2020-08-17T17:02:18.704Z</time>
      </trkpt>
      <trkpt lat="39.03153833" lon="1.35436667">
        <ele>156.0</ele>
        <time>2020-08-17T17:02:19.666Z</time>
      </trkpt>
      <trkpt lat="39.03153833" lon="1.35436667">
        <ele>156.0</ele>
        <time>2020-08-17T17:02:20.676Z</time>
      </trkpt>
      <trkpt lat="39.03159167" lon="1.35423167">
        <ele>156.0</ele>
        <time>2020-08-17T17:02:21.666Z</time>
      </trkpt>
      <trkpt lat="39.03159167" lon="1.35423167">
        <ele>156.0</ele>
        <time>2020-08-17T17:02:22.665Z</time>
      </trkpt>
      <trkpt lat="39.03164167" lon="1.35408833">
        <ele>156.0</ele>
        <time>2020-08-17T17:02:23.665Z</time>
      </trkpt>
      <trkpt lat="39.03166667" lon="1.35401667">
        <ele>156.0</ele>
        <time>2020-08-17T17:02:24.700Z</time>
      </trkpt>
      <trkpt lat="39.03169" lon="1.353945">
        <ele>156.0</ele>
        <time>2020-08-17T17:02:25.679Z</time>
      </trkpt>
      <trkpt lat="39.03169" lon="1.353945">
        <ele>156.0</ele>
        <time>2020-08-17T17:02:26.665Z</time>
      </trkpt>
      <trkpt lat="39.03174" lon="1.3538">
        <ele>157.0</ele>
        <time>2020-08-17T17:02:27.665Z</time>
      </trkpt>
      <trkpt lat="39.03176333" lon="1.35372833">
        <ele>157.0</ele>
        <time>2020-08-17T17:02:28.704Z</time>
      </trkpt>
      <trkpt lat="39.03176333" lon="1.35372833">
        <ele>157.0</ele>
        <time>2020-08-17T17:02:29.684Z</time>
      </trkpt>
      <trkpt lat="39.03181" lon="1.35357833">
        <ele>157.0</ele>
        <time>2020-08-17T17:02:30.672Z</time>
      </trkpt>
      <trkpt lat="39.03181" lon="1.35357833">
        <ele>157.0</ele>
        <time>2020-08-17T17:02:31.704Z</time>
      </trkpt>
      <trkpt lat="39.03185667" lon="1.35343167">
        <ele>158.0</ele>
        <time>2020-08-17T17:02:32.666Z</time>
      </trkpt>
      <trkpt lat="39.03185667" lon="1.35343167">
        <ele>158.0</ele>
        <time>2020-08-17T17:02:33.704Z</time>
      </trkpt>
      <trkpt lat="39.03190667" lon="1.35328667">
        <ele>158.0</ele>
        <time>2020-08-17T17:02:34.683Z</time>
      </trkpt>
      <trkpt lat="39.03190667" lon="1.35328667">
        <ele>158.0</ele>
        <time>2020-08-17T17:02:35.667Z</time>
      </trkpt>
      <trkpt lat="39.03195333" lon="1.353145">
        <ele>158.0</ele>
        <time>2020-08-17T17:02:36.704Z</time>
      </trkpt>
      <trkpt lat="39.03197333" lon="1.35307333">
        <ele>159.0</ele>
        <time>2020-08-17T17:02:37.665Z</time>
      </trkpt>
      <trkpt lat="39.03197333" lon="1.35307333">
        <ele>159.0</ele>
        <time>2020-08-17T17:02:38.704Z</time>
      </trkpt>
      <trkpt lat="39.03201667" lon="1.35293333">
        <ele>159.0</ele>
        <time>2020-08-17T17:02:39.683Z</time>
      </trkpt>
      <trkpt lat="39.03201667" lon="1.35293333">
        <ele>159.0</ele>
        <time>2020-08-17T17:02:40.671Z</time>
      </trkpt>
      <trkpt lat="39.03205833" lon="1.35279167">
        <ele>160.0</ele>
        <time>2020-08-17T17:02:41.675Z</time>
      </trkpt>
      <trkpt lat="39.03205833" lon="1.35279167">
        <ele>160.0</ele>
        <time>2020-08-17T17:02:42.665Z</time>
      </trkpt>
      <trkpt lat="39.03209667" lon="1.35265">
        <ele>160.0</ele>
        <time>2020-08-17T17:02:43.684Z</time>
      </trkpt>
      <trkpt lat="39.03209667" lon="1.35265">
        <ele>160.0</ele>
        <time>2020-08-17T17:02:44.705Z</time>
      </trkpt>
      <trkpt lat="39.03212667" lon="1.35251">
        <ele>161.0</ele>
        <time>2020-08-17T17:02:45.668Z</time>
      </trkpt>
      <trkpt lat="39.03212667" lon="1.35251">
        <ele>161.0</ele>
        <time>2020-08-17T17:02:46.704Z</time>
      </trkpt>
      <trkpt lat="39.03214667" lon="1.35237">
        <ele>162.0</ele>
        <time>2020-08-17T17:02:47.691Z</time>
      </trkpt>
      <trkpt lat="39.03214667" lon="1.35237">
        <ele>162.0</ele>
        <time>2020-08-17T17:02:48.671Z</time>
      </trkpt>
      <trkpt lat="39.03215" lon="1.35222333">
        <ele>162.0</ele>
        <time>2020-08-17T17:02:49.704Z</time>
      </trkpt>
      <trkpt lat="39.03215" lon="1.35222333">
        <ele>162.0</ele>
        <time>2020-08-17T17:02:50.666Z</time>
      </trkpt>
      <trkpt lat="39.03212667" lon="1.35208167">
        <ele>163.0</ele>
        <time>2020-08-17T17:02:51.671Z</time>
      </trkpt>
      <trkpt lat="39.03212667" lon="1.35208167">
        <ele>163.0</ele>
        <time>2020-08-17T17:02:52.665Z</time>
      </trkpt>
      <trkpt lat="39.03205833" lon="1.351965">
        <ele>163.0</ele>
        <time>2020-08-17T17:02:53.668Z</time>
      </trkpt>
      <trkpt lat="39.03205833" lon="1.351965">
        <ele>163.0</ele>
        <time>2020-08-17T17:02:54.704Z</time>
      </trkpt>
      <trkpt lat="39.03196" lon="1.35189833">
        <ele>163.0</ele>
        <time>2020-08-17T17:02:55.668Z</time>
      </trkpt>
      <trkpt lat="39.03196" lon="1.35189833">
        <ele>163.0</ele>
        <time>2020-08-17T17:02:56.705Z</time>
      </trkpt>
      <trkpt lat="39.03185333" lon="1.35183667">
        <ele>163.0</ele>
        <time>2020-08-17T17:02:57.667Z</time>
      </trkpt>
      <trkpt lat="39.03185333" lon="1.35183667">
        <ele>163.0</ele>
        <time>2020-08-17T17:02:58.666Z</time>
      </trkpt>
      <trkpt lat="39.03175833" lon="1.35175833">
        <ele>164.0</ele>
        <time>2020-08-17T17:02:59.669Z</time>
      </trkpt>
      <trkpt lat="39.03175833" lon="1.35175833">
        <ele>164.0</ele>
        <time>2020-08-17T17:03:00.666Z</time>
      </trkpt>
      <trkpt lat="39.03168" lon="1.35166">
        <ele>165.0</ele>
        <time>2020-08-17T17:03:01.677Z</time>
      </trkpt>
      <trkpt lat="39.03168" lon="1.35166">
        <ele>165.0</ele>
        <time>2020-08-17T17:03:02.665Z</time>
      </trkpt>
      <trkpt lat="39.03163167" lon="1.35154">
        <ele>165.0</ele>
        <time>2020-08-17T17:03:03.666Z</time>
      </trkpt>
      <trkpt lat="39.03163167" lon="1.35154">
        <ele>165.0</ele>
        <time>2020-08-17T17:03:04.704Z</time>
      </trkpt>
      <trkpt lat="39.03161" lon="1.35141333">
        <ele>166.0</ele>
        <time>2020-08-17T17:03:05.684Z</time>
      </trkpt>
      <trkpt lat="39.03160667" lon="1.35135">
        <ele>167.0</ele>
        <time>2020-08-17T17:03:06.665Z</time>
      </trkpt>
      <trkpt lat="39.03160833" lon="1.35129">
        <ele>167.0</ele>
        <time>2020-08-17T17:03:07.666Z</time>
      </trkpt>
      <trkpt lat="39.03160833" lon="1.35129">
        <ele>167.0</ele>
        <time>2020-08-17T17:03:08.665Z</time>
      </trkpt>
      <trkpt lat="39.03162667" lon="1.35117167">
        <ele>168.0</ele>
        <time>2020-08-17T17:03:09.667Z</time>
      </trkpt>
      <trkpt lat="39.03162667" lon="1.35117167">
        <ele>168.0</ele>
        <time>2020-08-17T17:03:10.672Z</time>
      </trkpt>
      <trkpt lat="39.03167" lon="1.351065">
        <ele>169.0</ele>
        <time>2020-08-17T17:03:11.671Z</time>
      </trkpt>
      <trkpt lat="39.0317" lon="1.35101667">
        <ele>169.0</ele>
        <time>2020-08-17T17:03:12.667Z</time>
      </trkpt>
      <trkpt lat="39.0317" lon="1.35101667">
        <ele>169.0</ele>
        <time>2020-08-17T17:03:13.665Z</time>
      </trkpt>
      <trkpt lat="39.03177" lon="1.35091667">
        <ele>169.0</ele>
        <time>2020-08-17T17:03:14.696Z</time>
      </trkpt>
      <trkpt lat="39.03177" lon="1.35091667">
        <ele>169.0</ele>
        <time>2020-08-17T17:03:15.676Z</time>
      </trkpt>
      <trkpt lat="39.03184167" lon="1.350815">
        <ele>169.0</ele>
        <time>2020-08-17T17:03:16.682Z</time>
      </trkpt>
      <trkpt lat="39.03187833" lon="1.35076333">
        <ele>169.0</ele>
        <time>2020-08-17T17:03:17.690Z</time>
      </trkpt>
      <trkpt lat="39.03187833" lon="1.35076333">
        <ele>169.0</ele>
        <time>2020-08-17T17:03:18.670Z</time>
      </trkpt>
      <trkpt lat="39.03194333" lon="1.350655">
        <ele>169.0</ele>
        <time>2020-08-17T17:03:19.669Z</time>
      </trkpt>
      <trkpt lat="39.03194333" lon="1.350655">
        <ele>169.0</ele>
        <time>2020-08-17T17:03:20.665Z</time>
      </trkpt>
      <trkpt lat="39.03200667" lon="1.35054">
        <ele>170.0</ele>
        <time>2020-08-17T17:03:21.681Z</time>
      </trkpt>
      <trkpt lat="39.03200667" lon="1.35054">
        <ele>170.0</ele>
        <time>2020-08-17T17:03:22.665Z</time>
      </trkpt>
      <trkpt lat="39.03207" lon="1.35042667">
        <ele>170.0</ele>
        <time>2020-08-17T17:03:23.685Z</time>
      </trkpt>
      <trkpt lat="39.03207" lon="1.35042667">
        <ele>170.0</ele>
        <time>2020-08-17T17:03:24.666Z</time>
      </trkpt>
      <trkpt lat="39.03213333" lon="1.35030667">
        <ele>170.0</ele>
        <time>2020-08-17T17:03:25.669Z</time>
      </trkpt>
      <trkpt lat="39.03213333" lon="1.35030667">
        <ele>170.0</ele>
        <time>2020-08-17T17:03:26.665Z</time>
      </trkpt>
      <trkpt lat="39.03219" lon="1.35017833">
        <ele>170.0</ele>
        <time>2020-08-17T17:03:27.665Z</time>
      </trkpt>
      <trkpt lat="39.03219" lon="1.35017833">
        <ele>170.0</ele>
        <time>2020-08-17T17:03:28.665Z</time>
      </trkpt>
      <trkpt lat="39.032245" lon="1.35004833">
        <ele>171.0</ele>
        <time>2020-08-17T17:03:29.678Z</time>
      </trkpt>
      <trkpt lat="39.032245" lon="1.35004833">
        <ele>171.0</ele>
        <time>2020-08-17T17:03:30.696Z</time>
      </trkpt>
      <trkpt lat="39.03229667" lon="1.34991833">
        <ele>171.0</ele>
        <time>2020-08-17T17:03:31.678Z</time>
      </trkpt>
      <trkpt lat="39.03229667" lon="1.34991833">
        <ele>171.0</ele>
        <time>2020-08-17T17:03:32.666Z</time>
      </trkpt>
      <trkpt lat="39.03234333" lon="1.34978667">
        <ele>171.0</ele>
        <time>2020-08-17T17:03:33.665Z</time>
      </trkpt>
      <trkpt lat="39.03234333" lon="1.34978667">
        <ele>171.0</ele>
        <time>2020-08-17T17:03:34.665Z</time>
      </trkpt>
      <trkpt lat="39.03238667" lon="1.34965833">
        <ele>172.0</ele>
        <time>2020-08-17T17:03:35.683Z</time>
      </trkpt>
      <trkpt lat="39.03238667" lon="1.34965833">
        <ele>172.0</ele>
        <time>2020-08-17T17:03:36.665Z</time>
      </trkpt>
      <trkpt lat="39.032425" lon="1.34952833">
        <ele>173.0</ele>
        <time>2020-08-17T17:03:37.672Z</time>
      </trkpt>
      <trkpt lat="39.032425" lon="1.34952833">
        <ele>173.0</ele>
        <time>2020-08-17T17:03:38.665Z</time>
      </trkpt>
      <trkpt lat="39.032455" lon="1.349395">
        <ele>174.0</ele>
        <time>2020-08-17T17:03:39.684Z</time>
      </trkpt>
      <trkpt lat="39.032455" lon="1.349395">
        <ele>174.0</ele>
        <time>2020-08-17T17:03:40.666Z</time>
      </trkpt>
      <trkpt lat="39.03249" lon="1.34926167">
        <ele>174.0</ele>
        <time>2020-08-17T17:03:41.680Z</time>
      </trkpt>
      <trkpt lat="39.03249" lon="1.34926167">
        <ele>174.0</ele>
        <time>2020-08-17T17:03:42.665Z</time>
      </trkpt>
      <trkpt lat="39.03252833" lon="1.34912833">
        <ele>175.0</ele>
        <time>2020-08-17T17:03:43.700Z</time>
      </trkpt>
      <trkpt lat="39.03252833" lon="1.34912833">
        <ele>175.0</ele>
        <time>2020-08-17T17:03:44.690Z</time>
      </trkpt>
      <trkpt lat="39.03257" lon="1.349">
        <ele>176.0</ele>
        <time>2020-08-17T17:03:45.673Z</time>
      </trkpt>
      <trkpt lat="39.03259333" lon="1.348935">
        <ele>176.0</ele>
        <time>2020-08-17T17:03:46.681Z</time>
      </trkpt>
      <trkpt lat="39.03259333" lon="1.348935">
        <ele>176.0</ele>
        <time>2020-08-17T17:03:47.665Z</time>
      </trkpt>
      <trkpt lat="39.03264" lon="1.348805">
        <ele>177.0</ele>
        <time>2020-08-17T17:03:48.665Z</time>
      </trkpt>
      <trkpt lat="39.032665" lon="1.34874167">
        <ele>177.0</ele>
        <time>2020-08-17T17:03:49.699Z</time>
      </trkpt>
      <trkpt lat="39.032665" lon="1.34874167">
        <ele>177.0</ele>
        <time>2020-08-17T17:03:50.696Z</time>
      </trkpt>
      <trkpt lat="39.03272" lon="1.34861667">
        <ele>177.0</ele>
        <time>2020-08-17T17:03:51.676Z</time>
      </trkpt>
      <trkpt lat="39.03272" lon="1.34861667">
        <ele>177.0</ele>
        <time>2020-08-17T17:03:52.666Z</time>
      </trkpt>
      <trkpt lat="39.03277833" lon="1.34849333">
        <ele>178.0</ele>
        <time>2020-08-17T17:03:53.669Z</time>
      </trkpt>
      <trkpt lat="39.03277833" lon="1.34849333">
        <ele>178.0</ele>
        <time>2020-08-17T17:03:54.665Z</time>
      </trkpt>
      <trkpt lat="39.03283833" lon="1.348375">
        <ele>178.0</ele>
        <time>2020-08-17T17:03:55.672Z</time>
      </trkpt>
      <trkpt lat="39.03283833" lon="1.348375">
        <ele>178.0</ele>
        <time>2020-08-17T17:03:56.705Z</time>
      </trkpt>
      <trkpt lat="39.03291" lon="1.348265">
        <ele>179.0</ele>
        <time>2020-08-17T17:03:57.684Z</time>
      </trkpt>
      <trkpt lat="39.03294667" lon="1.34821167">
        <ele>179.0</ele>
        <time>2020-08-17T17:03:58.668Z</time>
      </trkpt>
      <trkpt lat="39.03294667" lon="1.34821167">
        <ele>179.0</ele>
        <time>2020-08-17T17:03:59.665Z</time>
      </trkpt>
      <trkpt lat="39.03302167" lon="1.348105">
        <ele>179.0</ele>
        <time>2020-08-17T17:04:00.675Z</time>
      </trkpt>
      <trkpt lat="39.03302167" lon="1.348105">
        <ele>179.0</ele>
        <time>2020-08-17T17:04:01.697Z</time>
      </trkpt>
      <trkpt lat="39.033095" lon="1.348">
        <ele>179.0</ele>
        <time>2020-08-17T17:04:02.680Z</time>
      </trkpt>
      <trkpt lat="39.033095" lon="1.348">
        <ele>179.0</ele>
        <time>2020-08-17T17:04:03.704Z</time>
      </trkpt>
      <trkpt lat="39.033175" lon="1.3479">
        <ele>179.0</ele>
        <time>2020-08-17T17:04:04.684Z</time>
      </trkpt>
      <trkpt lat="39.03321667" lon="1.34785">
        <ele>179.0</ele>
        <time>2020-08-17T17:04:05.669Z</time>
      </trkpt>
      <trkpt lat="39.03321667" lon="1.34785">
        <ele>179.0</ele>
        <time>2020-08-17T17:04:06.665Z</time>
      </trkpt>
      <trkpt lat="39.033295" lon="1.34774167">
        <ele>180.0</ele>
        <time>2020-08-17T17:04:07.667Z</time>
      </trkpt>
      <trkpt lat="39.033295" lon="1.34774167">
        <ele>180.0</ele>
        <time>2020-08-17T17:04:08.696Z</time>
      </trkpt>
      <trkpt lat="39.03337167" lon="1.34763333">
        <ele>180.0</ele>
        <time>2020-08-17T17:04:09.687Z</time>
      </trkpt>
      <trkpt lat="39.03341333" lon="1.34758167">
        <ele>180.0</ele>
        <time>2020-08-17T17:04:10.668Z</time>
      </trkpt>
      <trkpt lat="39.03341333" lon="1.34758167">
        <ele>180.0</ele>
        <time>2020-08-17T17:04:11.665Z</time>
      </trkpt>
      <trkpt lat="39.03349667" lon="1.34747833">
        <ele>181.0</ele>
        <time>2020-08-17T17:04:12.699Z</time>
      </trkpt>
      <trkpt lat="39.03353667" lon="1.34742667">
        <ele>181.0</ele>
        <time>2020-08-17T17:04:13.680Z</time>
      </trkpt>
      <trkpt lat="39.03353667" lon="1.34742667">
        <ele>181.0</ele>
        <time>2020-08-17T17:04:14.693Z</time>
      </trkpt>
      <trkpt lat="39.03361667" lon="1.34732167">
        <ele>181.0</ele>
        <time>2020-08-17T17:04:15.670Z</time>
      </trkpt>
      <trkpt lat="39.03366" lon="1.34727333">
        <ele>181.0</ele>
        <time>2020-08-17T17:04:16.665Z</time>
      </trkpt>
      <trkpt lat="39.03366" lon="1.34727333">
        <ele>181.0</ele>
        <time>2020-08-17T17:04:17.685Z</time>
      </trkpt>
      <trkpt lat="39.03375333" lon="1.347185">
        <ele>181.0</ele>
        <time>2020-08-17T17:04:18.667Z</time>
      </trkpt>
      <trkpt lat="39.03380167" lon="1.34714333">
        <ele>182.0</ele>
        <time>2020-08-17T17:04:19.668Z</time>
      </trkpt>
      <trkpt lat="39.03380167" lon="1.34714333">
        <ele>182.0</ele>
        <time>2020-08-17T17:04:20.701Z</time>
      </trkpt>
      <trkpt lat="39.03390333" lon="1.34707667">
        <ele>182.0</ele>
        <time>2020-08-17T17:04:21.681Z</time>
      </trkpt>
      <trkpt lat="39.03390333" lon="1.34707667">
        <ele>182.0</ele>
        <time>2020-08-17T17:04:22.666Z</time>
      </trkpt>
      <trkpt lat="39.034005" lon="1.34701667">
        <ele>183.0</ele>
        <time>2020-08-17T17:04:23.669Z</time>
      </trkpt>
      <trkpt lat="39.034005" lon="1.34701667">
        <ele>183.0</ele>
        <time>2020-08-17T17:04:24.701Z</time>
      </trkpt>
      <trkpt lat="39.03410333" lon="1.34696333">
        <ele>184.0</ele>
        <time>2020-08-17T17:04:25.682Z</time>
      </trkpt>
      <trkpt lat="39.03410333" lon="1.34696333">
        <ele>184.0</ele>
        <time>2020-08-17T17:04:26.705Z</time>
      </trkpt>
      <trkpt lat="39.03420167" lon="1.346915">
        <ele>186.0</ele>
        <time>2020-08-17T17:04:27.684Z</time>
      </trkpt>
      <trkpt lat="39.03420167" lon="1.346915">
        <ele>186.0</ele>
        <time>2020-08-17T17:04:28.667Z</time>
      </trkpt>
      <trkpt lat="39.03429833" lon="1.34686833">
        <ele>187.0</ele>
        <time>2020-08-17T17:04:29.665Z</time>
      </trkpt>
      <trkpt lat="39.03434833" lon="1.34684667">
        <ele>187.0</ele>
        <time>2020-08-17T17:04:30.685Z</time>
      </trkpt>
      <trkpt lat="39.03439833" lon="1.346825">
        <ele>188.0</ele>
        <time>2020-08-17T17:04:31.670Z</time>
      </trkpt>
      <trkpt lat="39.03439833" lon="1.346825">
        <ele>188.0</ele>
        <time>2020-08-17T17:04:32.701Z</time>
      </trkpt>
      <trkpt lat="39.0345" lon="1.34678">
        <ele>188.0</ele>
        <time>2020-08-17T17:04:33.680Z</time>
      </trkpt>
      <trkpt lat="39.03455" lon="1.34675667">
        <ele>189.0</ele>
        <time>2020-08-17T17:04:34.666Z</time>
      </trkpt>
      <trkpt lat="39.03460167" lon="1.34673333">
        <ele>189.0</ele>
        <time>2020-08-17T17:04:35.668Z</time>
      </trkpt>
      <trkpt lat="39.03460167" lon="1.34673333">
        <ele>189.0</ele>
        <time>2020-08-17T17:04:36.704Z</time>
      </trkpt>
      <trkpt lat="39.034705" lon="1.34668667">
        <ele>190.0</ele>
        <time>2020-08-17T17:04:37.684Z</time>
      </trkpt>
      <trkpt lat="39.034705" lon="1.34668667">
        <ele>190.0</ele>
        <time>2020-08-17T17:04:38.667Z</time>
      </trkpt>
      <trkpt lat="39.034805" lon="1.34663">
        <ele>191.0</ele>
        <time>2020-08-17T17:04:39.704Z</time>
      </trkpt>
      <trkpt lat="39.034805" lon="1.34663">
        <ele>191.0</ele>
        <time>2020-08-17T17:04:40.684Z</time>
      </trkpt>
      <trkpt lat="39.03489833" lon="1.34655833">
        <ele>192.0</ele>
        <time>2020-08-17T17:04:41.669Z</time>
      </trkpt>
      <trkpt lat="39.03489833" lon="1.34655833">
        <ele>192.0</ele>
        <time>2020-08-17T17:04:42.665Z</time>
      </trkpt>
      <trkpt lat="39.03499833" lon="1.34649833">
        <ele>193.0</ele>
        <time>2020-08-17T17:04:43.684Z</time>
      </trkpt>
      <trkpt lat="39.03499833" lon="1.34649833">
        <ele>193.0</ele>
        <time>2020-08-17T17:04:44.666Z</time>
      </trkpt>
      <trkpt lat="39.0351" lon="1.34644167">
        <ele>193.0</ele>
        <time>2020-08-17T17:04:45.670Z</time>
      </trkpt>
      <trkpt lat="39.0351" lon="1.34644167">
        <ele>193.0</ele>
        <time>2020-08-17T17:04:46.672Z</time>
      </trkpt>
      <trkpt lat="39.03519833" lon="1.34636667">
        <ele>194.0</ele>
        <time>2020-08-17T17:04:47.669Z</time>
      </trkpt>
      <trkpt lat="39.03519833" lon="1.34636667">
        <ele>194.0</ele>
        <time>2020-08-17T17:04:48.667Z</time>
      </trkpt>
      <trkpt lat="39.03529167" lon="1.34628667">
        <ele>196.0</ele>
        <time>2020-08-17T17:04:49.672Z</time>
      </trkpt>
      <trkpt lat="39.03529167" lon="1.34628667">
        <ele>196.0</ele>
        <time>2020-08-17T17:04:50.669Z</time>
      </trkpt>
      <trkpt lat="39.03538833" lon="1.346205">
        <ele>196.0</ele>
        <time>2020-08-17T17:04:51.682Z</time>
      </trkpt>
      <trkpt lat="39.03543833" lon="1.346165">
        <ele>197.0</ele>
        <time>2020-08-17T17:04:52.668Z</time>
      </trkpt>
      <trkpt lat="39.03543833" lon="1.346165">
        <ele>197.0</ele>
        <time>2020-08-17T17:04:53.667Z</time>
      </trkpt>
      <trkpt lat="39.03553667" lon="1.34608333">
        <ele>198.0</ele>
        <time>2020-08-17T17:04:54.668Z</time>
      </trkpt>
      <trkpt lat="39.03558" lon="1.34603333">
        <ele>199.0</ele>
        <time>2020-08-17T17:04:55.668Z</time>
      </trkpt>
      <trkpt lat="39.03558" lon="1.34603333">
        <ele>199.0</ele>
        <time>2020-08-17T17:04:56.666Z</time>
      </trkpt>
      <trkpt lat="39.03567167" lon="1.34593667">
        <ele>200.0</ele>
        <time>2020-08-17T17:04:57.665Z</time>
      </trkpt>
      <trkpt lat="39.03571667" lon="1.345885">
        <ele>200.0</ele>
        <time>2020-08-17T17:04:58.684Z</time>
      </trkpt>
      <trkpt lat="39.03571667" lon="1.345885">
        <ele>200.0</ele>
        <time>2020-08-17T17:04:59.667Z</time>
      </trkpt>
      <trkpt lat="39.03580333" lon="1.34578">
        <ele>201.0</ele>
        <time>2020-08-17T17:05:00.684Z</time>
      </trkpt>
      <trkpt lat="39.03580333" lon="1.34578">
        <ele>201.0</ele>
        <time>2020-08-17T17:05:01.665Z</time>
      </trkpt>
      <trkpt lat="39.03589" lon="1.34567667">
        <ele>202.0</ele>
        <time>2020-08-17T17:05:02.669Z</time>
      </trkpt>
      <trkpt lat="39.03589" lon="1.34567667">
        <ele>202.0</ele>
        <time>2020-08-17T17:05:03.701Z</time>
      </trkpt>
      <trkpt lat="39.03598" lon="1.345585">
        <ele>203.0</ele>
        <time>2020-08-17T17:05:04.681Z</time>
      </trkpt>
      <trkpt lat="39.03601667" lon="1.34553167">
        <ele>204.0</ele>
        <time>2020-08-17T17:05:05.669Z</time>
      </trkpt>
      <trkpt lat="39.03601667" lon="1.34553167">
        <ele>204.0</ele>
        <time>2020-08-17T17:05:06.702Z</time>
      </trkpt>
      <trkpt lat="39.03608167" lon="1.34541333">
        <ele>205.0</ele>
        <time>2020-08-17T17:05:07.681Z</time>
      </trkpt>
      <trkpt lat="39.03608167" lon="1.34541333">
        <ele>205.0</ele>
        <time>2020-08-17T17:05:08.701Z</time>
      </trkpt>
      <trkpt lat="39.036145" lon="1.34527167">
        <ele>206.0</ele>
        <time>2020-08-17T17:05:09.680Z</time>
      </trkpt>
      <trkpt lat="39.03617833" lon="1.34519667">
        <ele>206.0</ele>
        <time>2020-08-17T17:05:10.666Z</time>
      </trkpt>
      <trkpt lat="39.03621333" lon="1.34512333">
        <ele>206.0</ele>
        <time>2020-08-17T17:05:11.685Z</time>
      </trkpt>
      <trkpt lat="39.03621333" lon="1.34512333">
        <ele>206.0</ele>
        <time>2020-08-17T17:05:12.666Z</time>
      </trkpt>
      <trkpt lat="39.03629333" lon="1.34496667">
        <ele>206.0</ele>
        <time>2020-08-17T17:05:13.667Z</time>
      </trkpt>
      <trkpt lat="39.03629333" lon="1.34496667">
        <ele>206.0</ele>
        <time>2020-08-17T17:05:14.682Z</time>
      </trkpt>
      <trkpt lat="39.03637" lon="1.34478">
        <ele>204.0</ele>
        <time>2020-08-17T17:05:15.680Z</time>
      </trkpt>
      <trkpt lat="39.03640167" lon="1.34467167">
        <ele>204.0</ele>
        <time>2020-08-17T17:05:16.667Z</time>
      </trkpt>
      <trkpt lat="39.03640833" lon="1.34454833">
        <ele>203.0</ele>
        <time>2020-08-17T17:05:17.704Z</time>
      </trkpt>
      <trkpt lat="39.03640833" lon="1.34454833">
        <ele>203.0</ele>
        <time>2020-08-17T17:05:18.685Z</time>
      </trkpt>
      <trkpt lat="39.03636667" lon="1.34428833">
        <ele>199.0</ele>
        <time>2020-08-17T17:05:19.669Z</time>
      </trkpt>
      <trkpt lat="39.03636667" lon="1.34428833">
        <ele>199.0</ele>
        <time>2020-08-17T17:05:20.665Z</time>
      </trkpt>
      <trkpt lat="39.03624167" lon="1.34405167">
        <ele>197.0</ele>
        <time>2020-08-17T17:05:21.666Z</time>
      </trkpt>
      <trkpt lat="39.03624167" lon="1.34405167">
        <ele>197.0</ele>
        <time>2020-08-17T17:05:22.704Z</time>
      </trkpt>
      <trkpt lat="39.03607333" lon="1.34384833">
        <ele>196.0</ele>
        <time>2020-08-17T17:05:23.685Z</time>
      </trkpt>
      <trkpt lat="39.03607333" lon="1.34384833">
        <ele>196.0</ele>
        <time>2020-08-17T17:05:24.666Z</time>
      </trkpt>
      <trkpt lat="39.03591" lon="1.34363">
        <ele>195.0</ele>
        <time>2020-08-17T17:05:25.672Z</time>
      </trkpt>
      <trkpt lat="39.03591" lon="1.34363">
        <ele>195.0</ele>
        <time>2020-08-17T17:05:26.705Z</time>
      </trkpt>
      <trkpt lat="39.03576167" lon="1.34340167">
        <ele>194.0</ele>
        <time>2020-08-17T17:05:27.685Z</time>
      </trkpt>
      <trkpt lat="39.03576167" lon="1.34340167">
        <ele>194.0</ele>
        <time>2020-08-17T17:05:28.668Z</time>
      </trkpt>
      <trkpt lat="39.03563167" lon="1.34316">
        <ele>192.0</ele>
        <time>2020-08-17T17:05:29.669Z</time>
      </trkpt>
      <trkpt lat="39.03557167" lon="1.34303833">
        <ele>192.0</ele>
        <time>2020-08-17T17:05:30.700Z</time>
      </trkpt>
      <trkpt lat="39.035515" lon="1.34291833">
        <ele>191.0</ele>
        <time>2020-08-17T17:05:31.679Z</time>
      </trkpt>
      <trkpt lat="39.035515" lon="1.34291833">
        <ele>191.0</ele>
        <time>2020-08-17T17:05:32.700Z</time>
      </trkpt>
      <trkpt lat="39.035415" lon="1.342675">
        <ele>191.0</ele>
        <time>2020-08-17T17:05:33.680Z</time>
      </trkpt>
      <trkpt lat="39.035415" lon="1.342675">
        <ele>191.0</ele>
        <time>2020-08-17T17:05:34.665Z</time>
      </trkpt>
      <trkpt lat="39.03531667" lon="1.34242">
        <ele>190.0</ele>
        <time>2020-08-17T17:05:35.686Z</time>
      </trkpt>
      <trkpt lat="39.03531667" lon="1.34242">
        <ele>190.0</ele>
        <time>2020-08-17T17:05:36.665Z</time>
      </trkpt>
      <trkpt lat="39.03520333" lon="1.34218667">
        <ele>189.0</ele>
        <time>2020-08-17T17:05:37.668Z</time>
      </trkpt>
      <trkpt lat="39.03520333" lon="1.34218667">
        <ele>189.0</ele>
        <time>2020-08-17T17:05:38.665Z</time>
      </trkpt>
      <trkpt lat="39.03508" lon="1.34198333">
        <ele>188.0</ele>
        <time>2020-08-17T17:05:39.685Z</time>
      </trkpt>
      <trkpt lat="39.03501667" lon="1.34188833">
        <ele>188.0</ele>
        <time>2020-08-17T17:05:40.667Z</time>
      </trkpt>
      <trkpt lat="39.03501667" lon="1.34188833">
        <ele>188.0</ele>
        <time>2020-08-17T17:05:41.699Z</time>
      </trkpt>
      <trkpt lat="39.0349" lon="1.34170167">
        <ele>187.0</ele>
        <time>2020-08-17T17:05:42.679Z</time>
      </trkpt>
      <trkpt lat="39.03484" lon="1.34161167">
        <ele>187.0</ele>
        <time>2020-08-17T17:05:43.673Z</time>
      </trkpt>
      <trkpt lat="39.03484" lon="1.34161167">
        <ele>187.0</ele>
        <time>2020-08-17T17:05:44.665Z</time>
      </trkpt>
      <trkpt lat="39.03470833" lon="1.34144833">
        <ele>186.0</ele>
        <time>2020-08-17T17:05:45.684Z</time>
      </trkpt>
      <trkpt lat="39.03470833" lon="1.34144833">
        <ele>186.0</ele>
        <time>2020-08-17T17:05:46.674Z</time>
      </trkpt>
      <trkpt lat="39.03457333" lon="1.34128667">
        <ele>186.0</ele>
        <time>2020-08-17T17:05:47.665Z</time>
      </trkpt>
      <trkpt lat="39.03450333" lon="1.34120833">
        <ele>185.0</ele>
        <time>2020-08-17T17:05:48.666Z</time>
      </trkpt>
      <trkpt lat="39.03443167" lon="1.34113167">
        <ele>184.0</ele>
        <time>2020-08-17T17:05:49.669Z</time>
      </trkpt>
      <trkpt lat="39.03443167" lon="1.34113167">
        <ele>184.0</ele>
        <time>2020-08-17T17:05:50.665Z</time>
      </trkpt>
      <trkpt lat="39.03428333" lon="1.340985">
        <ele>183.0</ele>
        <time>2020-08-17T17:05:51.692Z</time>
      </trkpt>
      <trkpt lat="39.034205" lon="1.34091333">
        <ele>183.0</ele>
        <time>2020-08-17T17:05:52.677Z</time>
      </trkpt>
      <trkpt lat="39.034205" lon="1.34091333">
        <ele>183.0</ele>
        <time>2020-08-17T17:05:53.666Z</time>
      </trkpt>
      <trkpt lat="39.03406" lon="1.34075333">
        <ele>181.0</ele>
        <time>2020-08-17T17:05:54.665Z</time>
      </trkpt>
      <trkpt lat="39.03399167" lon="1.340665">
        <ele>181.0</ele>
        <time>2020-08-17T17:05:55.685Z</time>
      </trkpt>
      <trkpt lat="39.03399167" lon="1.340665">
        <ele>181.0</ele>
        <time>2020-08-17T17:05:56.668Z</time>
      </trkpt>
      <trkpt lat="39.03387167" lon="1.34046">
        <ele>180.0</ele>
        <time>2020-08-17T17:05:57.665Z</time>
      </trkpt>
      <trkpt lat="39.03387167" lon="1.34046">
        <ele>180.0</ele>
        <time>2020-08-17T17:05:58.704Z</time>
      </trkpt>
      <trkpt lat="39.03375667" lon="1.34024333">
        <ele>178.0</ele>
        <time>2020-08-17T17:05:59.691Z</time>
      </trkpt>
      <trkpt lat="39.03375667" lon="1.34024333">
        <ele>178.0</ele>
        <time>2020-08-17T17:06:00.671Z</time>
      </trkpt>
      <trkpt lat="39.03366333" lon="1.340005">
        <ele>177.0</ele>
        <time>2020-08-17T17:06:01.702Z</time>
      </trkpt>
      <trkpt lat="39.03366333" lon="1.340005">
        <ele>177.0</ele>
        <time>2020-08-17T17:06:02.682Z</time>
      </trkpt>
      <trkpt lat="39.03359167" lon="1.33975833">
        <ele>177.0</ele>
        <time>2020-08-17T17:06:03.668Z</time>
      </trkpt>
      <trkpt lat="39.03359167" lon="1.33975833">
        <ele>177.0</ele>
        <time>2020-08-17T17:06:04.665Z</time>
      </trkpt>
      <trkpt lat="39.03350667" lon="1.339525">
        <ele>176.0</ele>
        <time>2020-08-17T17:06:05.670Z</time>
      </trkpt>
      <trkpt lat="39.03350667" lon="1.339525">
        <ele>176.0</ele>
        <time>2020-08-17T17:06:06.667Z</time>
      </trkpt>
      <trkpt lat="39.03341333" lon="1.3393">
        <ele>176.0</ele>
        <time>2020-08-17T17:06:07.669Z</time>
      </trkpt>
      <trkpt lat="39.03341333" lon="1.3393">
        <ele>176.0</ele>
        <time>2020-08-17T17:06:08.666Z</time>
      </trkpt>
      <trkpt lat="39.033315" lon="1.33907833">
        <ele>176.0</ele>
        <time>2020-08-17T17:06:09.665Z</time>
      </trkpt>
      <trkpt lat="39.033315" lon="1.33907833">
        <ele>176.0</ele>
        <time>2020-08-17T17:06:10.694Z</time>
      </trkpt>
      <trkpt lat="39.03320667" lon="1.33886333">
        <ele>175.0</ele>
        <time>2020-08-17T17:06:11.674Z</time>
      </trkpt>
      <trkpt lat="39.03320667" lon="1.33886333">
        <ele>175.0</ele>
        <time>2020-08-17T17:06:12.699Z</time>
      </trkpt>
      <trkpt lat="39.033085" lon="1.33866333">
        <ele>175.0</ele>
        <time>2020-08-17T17:06:13.692Z</time>
      </trkpt>
      <trkpt lat="39.033025" lon="1.33856667">
        <ele>174.0</ele>
        <time>2020-08-17T17:06:14.665Z</time>
      </trkpt>
      <trkpt lat="39.033025" lon="1.33856667">
        <ele>174.0</ele>
        <time>2020-08-17T17:06:15.676Z</time>
      </trkpt>
      <trkpt lat="39.0329" lon="1.33837667">
        <ele>175.0</ele>
        <time>2020-08-17T17:06:16.682Z</time>
      </trkpt>
      <trkpt lat="39.03284167" lon="1.33828667">
        <ele>175.0</ele>
        <time>2020-08-17T17:06:17.691Z</time>
      </trkpt>
      <trkpt lat="39.03284167" lon="1.33828667">
        <ele>175.0</ele>
        <time>2020-08-17T17:06:18.671Z</time>
      </trkpt>
      <trkpt lat="39.03272333" lon="1.33811167">
        <ele>175.0</ele>
        <time>2020-08-17T17:06:19.673Z</time>
      </trkpt>
      <trkpt lat="39.03272333" lon="1.33811167">
        <ele>175.0</ele>
        <time>2020-08-17T17:06:20.698Z</time>
      </trkpt>
      <trkpt lat="39.032605" lon="1.33795">
        <ele>175.0</ele>
        <time>2020-08-17T17:06:21.681Z</time>
      </trkpt>
      <trkpt lat="39.032605" lon="1.33795">
        <ele>175.0</ele>
        <time>2020-08-17T17:06:22.665Z</time>
      </trkpt>
      <trkpt lat="39.03249333" lon="1.33779">
        <ele>175.0</ele>
        <time>2020-08-17T17:06:23.688Z</time>
      </trkpt>
      <trkpt lat="39.03249333" lon="1.33779">
        <ele>175.0</ele>
        <time>2020-08-17T17:06:24.668Z</time>
      </trkpt>
      <trkpt lat="39.032375" lon="1.33763667">
        <ele>175.0</ele>
        <time>2020-08-17T17:06:25.669Z</time>
      </trkpt>
      <trkpt lat="39.032375" lon="1.33763667">
        <ele>175.0</ele>
        <time>2020-08-17T17:06:26.702Z</time>
      </trkpt>
      <trkpt lat="39.03227333" lon="1.33746833">
        <ele>175.0</ele>
        <time>2020-08-17T17:06:27.681Z</time>
      </trkpt>
      <trkpt lat="39.03227333" lon="1.33746833">
        <ele>175.0</ele>
        <time>2020-08-17T17:06:28.702Z</time>
      </trkpt>
      <trkpt lat="39.03219" lon="1.33727833">
        <ele>175.0</ele>
        <time>2020-08-17T17:06:29.682Z</time>
      </trkpt>
      <trkpt lat="39.03219" lon="1.33727833">
        <ele>175.0</ele>
        <time>2020-08-17T17:06:30.665Z</time>
      </trkpt>
      <trkpt lat="39.032095" lon="1.33708833">
        <ele>174.0</ele>
        <time>2020-08-17T17:06:31.669Z</time>
      </trkpt>
      <trkpt lat="39.032095" lon="1.33708833">
        <ele>174.0</ele>
        <time>2020-08-17T17:06:32.665Z</time>
      </trkpt>
      <trkpt lat="39.03199333" lon="1.33689333">
        <ele>173.0</ele>
        <time>2020-08-17T17:06:33.685Z</time>
      </trkpt>
      <trkpt lat="39.03194167" lon="1.33679167">
        <ele>172.0</ele>
        <time>2020-08-17T17:06:34.668Z</time>
      </trkpt>
      <trkpt lat="39.03194167" lon="1.33679167">
        <ele>172.0</ele>
        <time>2020-08-17T17:06:35.665Z</time>
      </trkpt>
      <trkpt lat="39.03182667" lon="1.33659833">
        <ele>171.0</ele>
        <time>2020-08-17T17:06:36.685Z</time>
      </trkpt>
      <trkpt lat="39.031765" lon="1.33651167">
        <ele>171.0</ele>
        <time>2020-08-17T17:06:37.671Z</time>
      </trkpt>
      <trkpt lat="39.031765" lon="1.33651167">
        <ele>171.0</ele>
        <time>2020-08-17T17:06:38.698Z</time>
      </trkpt>
      <trkpt lat="39.03164167" lon="1.33634">
        <ele>170.0</ele>
        <time>2020-08-17T17:06:39.678Z</time>
      </trkpt>
      <trkpt lat="39.03164167" lon="1.33634">
        <ele>170.0</ele>
        <time>2020-08-17T17:06:40.673Z</time>
      </trkpt>
      <trkpt lat="39.031525" lon="1.33617333">
        <ele>169.0</ele>
        <time>2020-08-17T17:06:41.669Z</time>
      </trkpt>
      <trkpt lat="39.031465" lon="1.336095">
        <ele>169.0</ele>
        <time>2020-08-17T17:06:42.668Z</time>
      </trkpt>
      <trkpt lat="39.031465" lon="1.336095">
        <ele>169.0</ele>
        <time>2020-08-17T17:06:43.666Z</time>
      </trkpt>
      <trkpt lat="39.03135333" lon="1.33593667">
        <ele>169.0</ele>
        <time>2020-08-17T17:06:44.667Z</time>
      </trkpt>
      <trkpt lat="39.03135333" lon="1.33593667">
        <ele>169.0</ele>
        <time>2020-08-17T17:06:45.701Z</time>
      </trkpt>
      <trkpt lat="39.03125333" lon="1.33578167">
        <ele>168.0</ele>
        <time>2020-08-17T17:06:46.681Z</time>
      </trkpt>
      <trkpt lat="39.03125333" lon="1.33578167">
        <ele>168.0</ele>
        <time>2020-08-17T17:06:47.684Z</time>
      </trkpt>
      <trkpt lat="39.03116667" lon="1.33563">
        <ele>168.0</ele>
        <time>2020-08-17T17:06:48.669Z</time>
      </trkpt>
      <trkpt lat="39.03116667" lon="1.33563">
        <ele>168.0</ele>
        <time>2020-08-17T17:06:49.665Z</time>
      </trkpt>
      <trkpt lat="39.03109" lon="1.33548">
        <ele>168.0</ele>
        <time>2020-08-17T17:06:50.685Z</time>
      </trkpt>
      <trkpt lat="39.03109" lon="1.33548">
        <ele>168.0</ele>
        <time>2020-08-17T17:06:51.666Z</time>
      </trkpt>
      <trkpt lat="39.031015" lon="1.335325">
        <ele>168.0</ele>
        <time>2020-08-17T17:06:52.666Z</time>
      </trkpt>
      <trkpt lat="39.03096333" lon="1.33525833">
        <ele>167.0</ele>
        <time>2020-08-17T17:06:53.670Z</time>
      </trkpt>
      <trkpt lat="39.03096333" lon="1.33525833">
        <ele>167.0</ele>
        <time>2020-08-17T17:06:54.702Z</time>
      </trkpt>
      <trkpt lat="39.03090833" lon="1.33508667">
        <ele>167.0</ele>
        <time>2020-08-17T17:06:55.683Z</time>
      </trkpt>
      <trkpt lat="39.03090833" lon="1.33508667">
        <ele>167.0</ele>
        <time>2020-08-17T17:06:56.665Z</time>
      </trkpt>
      <trkpt lat="39.03093333" lon="1.334945">
        <ele>167.0</ele>
        <time>2020-08-17T17:06:57.685Z</time>
      </trkpt>
      <trkpt lat="39.03093333" lon="1.334945">
        <ele>167.0</ele>
        <time>2020-08-17T17:06:58.667Z</time>
      </trkpt>
      <trkpt lat="39.030955" lon="1.33482833">
        <ele>167.0</ele>
        <time>2020-08-17T17:06:59.686Z</time>
      </trkpt>
      <trkpt lat="39.03094333" lon="1.33476667">
        <ele>167.0</ele>
        <time>2020-08-17T17:07:00.669Z</time>
      </trkpt>
      <trkpt lat="39.03092" lon="1.33470667">
        <ele>167.0</ele>
        <time>2020-08-17T17:07:01.671Z</time>
      </trkpt>
      <trkpt lat="39.03092" lon="1.33470667">
        <ele>167.0</ele>
        <time>2020-08-17T17:07:02.665Z</time>
      </trkpt>
      <trkpt lat="39.03084333" lon="1.33460833">
        <ele>166.0</ele>
        <time>2020-08-17T17:07:03.669Z</time>
      </trkpt>
      <trkpt lat="39.03084333" lon="1.33460833">
        <ele>166.0</ele>
        <time>2020-08-17T17:07:04.701Z</time>
      </trkpt>
      <trkpt lat="39.03075" lon="1.33454">
        <ele>166.0</ele>
        <time>2020-08-17T17:07:05.692Z</time>
      </trkpt>
      <trkpt lat="39.03075" lon="1.33454">
        <ele>166.0</ele>
        <time>2020-08-17T17:07:06.671Z</time>
      </trkpt>
      <trkpt lat="39.03064833" lon="1.33448667">
        <ele>166.0</ele>
        <time>2020-08-17T17:07:07.669Z</time>
      </trkpt>
      <trkpt lat="39.03064833" lon="1.33448667">
        <ele>166.0</ele>
        <time>2020-08-17T17:07:08.666Z</time>
      </trkpt>
      <trkpt lat="39.03054" lon="1.33443833">
        <ele>166.0</ele>
        <time>2020-08-17T17:07:09.665Z</time>
      </trkpt>
      <trkpt lat="39.03054" lon="1.33443833">
        <ele>166.0</ele>
        <time>2020-08-17T17:07:10.685Z</time>
      </trkpt>
      <trkpt lat="39.03043167" lon="1.33438333">
        <ele>166.0</ele>
        <time>2020-08-17T17:07:11.669Z</time>
      </trkpt>
      <trkpt lat="39.03043167" lon="1.33438333">
        <ele>166.0</ele>
        <time>2020-08-17T17:07:12.702Z</time>
      </trkpt>
      <trkpt lat="39.030325" lon="1.33431833">
        <ele>166.0</ele>
        <time>2020-08-17T17:07:13.681Z</time>
      </trkpt>
      <trkpt lat="39.03027167" lon="1.33428">
        <ele>166.0</ele>
        <time>2020-08-17T17:07:14.695Z</time>
      </trkpt>
      <trkpt lat="39.03027167" lon="1.33428">
        <ele>166.0</ele>
        <time>2020-08-17T17:07:15.700Z</time>
      </trkpt>
      <trkpt lat="39.03016833" lon="1.334195">
        <ele>167.0</ele>
        <time>2020-08-17T17:07:16.668Z</time>
      </trkpt>
      <trkpt lat="39.03011667" lon="1.33415167">
        <ele>167.0</ele>
        <time>2020-08-17T17:07:17.674Z</time>
      </trkpt>
      <trkpt lat="39.03011667" lon="1.33415167">
        <ele>167.0</ele>
        <time>2020-08-17T17:07:18.666Z</time>
      </trkpt>
      <trkpt lat="39.030015" lon="1.33406667">
        <ele>167.0</ele>
        <time>2020-08-17T17:07:19.666Z</time>
      </trkpt>
      <trkpt lat="39.02996167" lon="1.33402667">
        <ele>167.0</ele>
        <time>2020-08-17T17:07:20.667Z</time>
      </trkpt>
      <trkpt lat="39.02990833" lon="1.33399">
        <ele>168.0</ele>
        <time>2020-08-17T17:07:21.667Z</time>
      </trkpt>
      <trkpt lat="39.02990833" lon="1.33399">
        <ele>168.0</ele>
        <time>2020-08-17T17:07:22.702Z</time>
      </trkpt>
      <trkpt lat="39.0298" lon="1.33392">
        <ele>168.0</ele>
        <time>2020-08-17T17:07:23.681Z</time>
      </trkpt>
      <trkpt lat="39.0298" lon="1.33392">
        <ele>168.0</ele>
        <time>2020-08-17T17:07:24.701Z</time>
      </trkpt>
      <trkpt lat="39.02968833" lon="1.333855">
        <ele>168.0</ele>
        <time>2020-08-17T17:07:25.682Z</time>
      </trkpt>
      <trkpt lat="39.02968833" lon="1.333855">
        <ele>168.0</ele>
        <time>2020-08-17T17:07:26.665Z</time>
      </trkpt>
      <trkpt lat="39.029575" lon="1.333795">
        <ele>168.0</ele>
        <time>2020-08-17T17:07:27.687Z</time>
      </trkpt>
      <trkpt lat="39.029575" lon="1.333795">
        <ele>168.0</ele>
        <time>2020-08-17T17:07:28.667Z</time>
      </trkpt>
      <trkpt lat="39.02945667" lon="1.33374833">
        <ele>168.0</ele>
        <time>2020-08-17T17:07:29.687Z</time>
      </trkpt>
      <trkpt lat="39.02945667" lon="1.33374833">
        <ele>168.0</ele>
        <time>2020-08-17T17:07:30.666Z</time>
      </trkpt>
      <trkpt lat="39.029335" lon="1.33375167">
        <ele>168.0</ele>
        <time>2020-08-17T17:07:31.669Z</time>
      </trkpt>
      <trkpt lat="39.029335" lon="1.33375167">
        <ele>168.0</ele>
        <time>2020-08-17T17:07:32.701Z</time>
      </trkpt>
      <trkpt lat="39.02922167" lon="1.33380833">
        <ele>169.0</ele>
        <time>2020-08-17T17:07:33.681Z</time>
      </trkpt>
      <trkpt lat="39.02922167" lon="1.33380833">
        <ele>169.0</ele>
        <time>2020-08-17T17:07:34.665Z</time>
      </trkpt>
      <trkpt lat="39.02914167" lon="1.33391167">
        <ele>170.0</ele>
        <time>2020-08-17T17:07:35.685Z</time>
      </trkpt>
      <trkpt lat="39.02914167" lon="1.33391167">
        <ele>170.0</ele>
        <time>2020-08-17T17:07:36.665Z</time>
      </trkpt>
      <trkpt lat="39.02907833" lon="1.33401167">
        <ele>171.0</ele>
        <time>2020-08-17T17:07:37.685Z</time>
      </trkpt>
      <trkpt lat="39.02907833" lon="1.33401167">
        <ele>171.0</ele>
        <time>2020-08-17T17:07:38.666Z</time>
      </trkpt>
      <trkpt lat="39.029015" lon="1.33409667">
        <ele>172.0</ele>
        <time>2020-08-17T17:07:39.685Z</time>
      </trkpt>
      <trkpt lat="39.029015" lon="1.33409667">
        <ele>172.0</ele>
        <time>2020-08-17T17:07:40.667Z</time>
      </trkpt>
      <trkpt lat="39.02895167" lon="1.33417667">
        <ele>173.0</ele>
        <time>2020-08-17T17:07:41.687Z</time>
      </trkpt>
      <trkpt lat="39.02895167" lon="1.33417667">
        <ele>173.0</ele>
        <time>2020-08-17T17:07:42.666Z</time>
      </trkpt>
      <trkpt lat="39.02888333" lon="1.33426167">
        <ele>174.0</ele>
        <time>2020-08-17T17:07:43.666Z</time>
      </trkpt>
      <trkpt lat="39.02884833" lon="1.334305">
        <ele>174.0</ele>
        <time>2020-08-17T17:07:44.667Z</time>
      </trkpt>
      <trkpt lat="39.02884833" lon="1.334305">
        <ele>174.0</ele>
        <time>2020-08-17T17:07:45.702Z</time>
      </trkpt>
      <trkpt lat="39.028775" lon="1.33438333">
        <ele>175.0</ele>
        <time>2020-08-17T17:07:46.681Z</time>
      </trkpt>
      <trkpt lat="39.02874333" lon="1.33442333">
        <ele>175.0</ele>
        <time>2020-08-17T17:07:47.702Z</time>
      </trkpt>
      <trkpt lat="39.02874333" lon="1.33442333">
        <ele>175.0</ele>
        <time>2020-08-17T17:07:48.674Z</time>
      </trkpt>
      <trkpt lat="39.028665" lon="1.33448333">
        <ele>176.0</ele>
        <time>2020-08-17T17:07:49.674Z</time>
      </trkpt>
      <trkpt lat="39.028665" lon="1.33448333">
        <ele>176.0</ele>
        <time>2020-08-17T17:07:50.702Z</time>
      </trkpt>
      <trkpt lat="39.02857667" lon="1.33453167">
        <ele>176.0</ele>
        <time>2020-08-17T17:07:51.682Z</time>
      </trkpt>
      <trkpt lat="39.02857667" lon="1.33453167">
        <ele>176.0</ele>
        <time>2020-08-17T17:07:52.665Z</time>
      </trkpt>
      <trkpt lat="39.02848667" lon="1.33458">
        <ele>176.0</ele>
        <time>2020-08-17T17:07:53.686Z</time>
      </trkpt>
      <trkpt lat="39.02848667" lon="1.33458">
        <ele>176.0</ele>
        <time>2020-08-17T17:07:54.667Z</time>
      </trkpt>
      <trkpt lat="39.02839833" lon="1.334635">
        <ele>176.0</ele>
        <time>2020-08-17T17:07:55.669Z</time>
      </trkpt>
      <trkpt lat="39.02839833" lon="1.334635">
        <ele>176.0</ele>
        <time>2020-08-17T17:07:56.693Z</time>
      </trkpt>
      <trkpt lat="39.028305" lon="1.33469167">
        <ele>176.0</ele>
        <time>2020-08-17T17:07:57.672Z</time>
      </trkpt>
      <trkpt lat="39.02826167" lon="1.33472">
        <ele>177.0</ele>
        <time>2020-08-17T17:07:58.667Z</time>
      </trkpt>
      <trkpt lat="39.02821667" lon="1.33474833">
        <ele>177.0</ele>
        <time>2020-08-17T17:07:59.686Z</time>
      </trkpt>
      <trkpt lat="39.02821667" lon="1.33474833">
        <ele>177.0</ele>
        <time>2020-08-17T17:08:00.675Z</time>
      </trkpt>
      <trkpt lat="39.02812833" lon="1.33480833">
        <ele>178.0</ele>
        <time>2020-08-17T17:08:01.668Z</time>
      </trkpt>
      <trkpt lat="39.02812833" lon="1.33480833">
        <ele>178.0</ele>
        <time>2020-08-17T17:08:02.701Z</time>
      </trkpt>
      <trkpt lat="39.028045" lon="1.33486833">
        <ele>179.0</ele>
        <time>2020-08-17T17:08:03.681Z</time>
      </trkpt>
      <trkpt lat="39.028045" lon="1.33486833">
        <ele>179.0</ele>
        <time>2020-08-17T17:08:04.675Z</time>
      </trkpt>
      <trkpt lat="39.02796667" lon="1.33493167">
        <ele>179.0</ele>
        <time>2020-08-17T17:08:05.665Z</time>
      </trkpt>
      <trkpt lat="39.02796667" lon="1.33493167">
        <ele>179.0</ele>
        <time>2020-08-17T17:08:06.685Z</time>
      </trkpt>
      <trkpt lat="39.02788333" lon="1.33499167">
        <ele>180.0</ele>
        <time>2020-08-17T17:08:07.668Z</time>
      </trkpt>
      <trkpt lat="39.02784167" lon="1.33501833">
        <ele>180.0</ele>
        <time>2020-08-17T17:08:08.666Z</time>
      </trkpt>
      <trkpt lat="39.02784167" lon="1.33501833">
        <ele>180.0</ele>
        <time>2020-08-17T17:08:09.668Z</time>
      </trkpt>
      <trkpt lat="39.02775833" lon="1.335075">
        <ele>181.0</ele>
        <time>2020-08-17T17:08:10.665Z</time>
      </trkpt>
      <trkpt lat="39.02771833" lon="1.335105">
        <ele>181.0</ele>
        <time>2020-08-17T17:08:11.685Z</time>
      </trkpt>
      <trkpt lat="39.02771833" lon="1.335105">
        <ele>181.0</ele>
        <time>2020-08-17T17:08:12.665Z</time>
      </trkpt>
      <trkpt lat="39.02763833" lon="1.33516">
        <ele>182.0</ele>
        <time>2020-08-17T17:08:13.684Z</time>
      </trkpt>
      <trkpt lat="39.02759833" lon="1.335185">
        <ele>182.0</ele>
        <time>2020-08-17T17:08:14.688Z</time>
      </trkpt>
      <trkpt lat="39.02759833" lon="1.335185">
        <ele>182.0</ele>
        <time>2020-08-17T17:08:15.685Z</time>
      </trkpt>
      <trkpt lat="39.02751833" lon="1.33523667">
        <ele>183.0</ele>
        <time>2020-08-17T17:08:16.699Z</time>
      </trkpt>
      <trkpt lat="39.02747833" lon="1.33526333">
        <ele>183.0</ele>
        <time>2020-08-17T17:08:17.665Z</time>
      </trkpt>
      <trkpt lat="39.02747833" lon="1.33526333">
        <ele>183.0</ele>
        <time>2020-08-17T17:08:18.687Z</time>
      </trkpt>
      <trkpt lat="39.02740167" lon="1.33532">
        <ele>184.0</ele>
        <time>2020-08-17T17:08:19.669Z</time>
      </trkpt>
      <trkpt lat="39.02740167" lon="1.33532">
        <ele>184.0</ele>
        <time>2020-08-17T17:08:20.665Z</time>
      </trkpt>
      <trkpt lat="39.02732333" lon="1.33537667">
        <ele>185.0</ele>
        <time>2020-08-17T17:08:21.687Z</time>
      </trkpt>
      <trkpt lat="39.02732333" lon="1.33537667">
        <ele>185.0</ele>
        <time>2020-08-17T17:08:22.667Z</time>
      </trkpt>
      <trkpt lat="39.02723667" lon="1.335425">
        <ele>185.0</ele>
        <time>2020-08-17T17:08:23.668Z</time>
      </trkpt>
      <trkpt lat="39.02723667" lon="1.335425">
        <ele>185.0</ele>
        <time>2020-08-17T17:08:24.702Z</time>
      </trkpt>
      <trkpt lat="39.02714833" lon="1.33547833">
        <ele>186.0</ele>
        <time>2020-08-17T17:08:25.681Z</time>
      </trkpt>
      <trkpt lat="39.02714833" lon="1.33547833">
        <ele>186.0</ele>
        <time>2020-08-17T17:08:26.701Z</time>
      </trkpt>
      <trkpt lat="39.02706333" lon="1.33553167">
        <ele>187.0</ele>
        <time>2020-08-17T17:08:27.681Z</time>
      </trkpt>
      <trkpt lat="39.02706333" lon="1.33553167">
        <ele>187.0</ele>
        <time>2020-08-17T17:08:28.666Z</time>
      </trkpt>
      <trkpt lat="39.02698167" lon="1.33559167">
        <ele>187.0</ele>
        <time>2020-08-17T17:08:29.686Z</time>
      </trkpt>
      <trkpt lat="39.02698167" lon="1.33559167">
        <ele>187.0</ele>
        <time>2020-08-17T17:08:30.666Z</time>
      </trkpt>
      <trkpt lat="39.0269" lon="1.33565">
        <ele>188.0</ele>
        <time>2020-08-17T17:08:31.685Z</time>
      </trkpt>
      <trkpt lat="39.0269" lon="1.33565">
        <ele>188.0</ele>
        <time>2020-08-17T17:08:32.666Z</time>
      </trkpt>
      <trkpt lat="39.02682167" lon="1.33570833">
        <ele>188.0</ele>
        <time>2020-08-17T17:08:33.667Z</time>
      </trkpt>
      <trkpt lat="39.026785" lon="1.33574">
        <ele>189.0</ele>
        <time>2020-08-17T17:08:34.681Z</time>
      </trkpt>
      <trkpt lat="39.02675" lon="1.33577333">
        <ele>189.0</ele>
        <time>2020-08-17T17:08:35.665Z</time>
      </trkpt>
      <trkpt lat="39.02675" lon="1.33577333">
        <ele>189.0</ele>
        <time>2020-08-17T17:08:36.687Z</time>
      </trkpt>
      <trkpt lat="39.02668" lon="1.33584333">
        <ele>190.0</ele>
        <time>2020-08-17T17:08:37.670Z</time>
      </trkpt>
      <trkpt lat="39.02668" lon="1.33584333">
        <ele>190.0</ele>
        <time>2020-08-17T17:08:38.699Z</time>
      </trkpt>
      <trkpt lat="39.026615" lon="1.33591833">
        <ele>190.0</ele>
        <time>2020-08-17T17:08:39.678Z</time>
      </trkpt>
      <trkpt lat="39.026615" lon="1.33591833">
        <ele>190.0</ele>
        <time>2020-08-17T17:08:40.666Z</time>
      </trkpt>
      <trkpt lat="39.026555" lon="1.336">
        <ele>191.0</ele>
        <time>2020-08-17T17:08:41.684Z</time>
      </trkpt>
      <trkpt lat="39.026555" lon="1.336">
        <ele>191.0</ele>
        <time>2020-08-17T17:08:42.667Z</time>
      </trkpt>
      <trkpt lat="39.02649333" lon="1.33608333">
        <ele>191.0</ele>
        <time>2020-08-17T17:08:43.669Z</time>
      </trkpt>
      <trkpt lat="39.02649333" lon="1.33608333">
        <ele>191.0</ele>
        <time>2020-08-17T17:08:44.702Z</time>
      </trkpt>
      <trkpt lat="39.02644" lon="1.33616667">
        <ele>193.0</ele>
        <time>2020-08-17T17:08:45.682Z</time>
      </trkpt>
      <trkpt lat="39.02644" lon="1.33616667">
        <ele>193.0</ele>
        <time>2020-08-17T17:08:46.667Z</time>
      </trkpt>
      <trkpt lat="39.02638667" lon="1.33624833">
        <ele>193.0</ele>
        <time>2020-08-17T17:08:47.688Z</time>
      </trkpt>
      <trkpt lat="39.02638667" lon="1.33624833">
        <ele>193.0</ele>
        <time>2020-08-17T17:08:48.697Z</time>
      </trkpt>
      <trkpt lat="39.026335" lon="1.33633667">
        <ele>194.0</ele>
        <time>2020-08-17T17:08:49.677Z</time>
      </trkpt>
      <trkpt lat="39.026335" lon="1.33633667">
        <ele>194.0</ele>
        <time>2020-08-17T17:08:50.698Z</time>
      </trkpt>
      <trkpt lat="39.02627833" lon="1.33642">
        <ele>194.0</ele>
        <time>2020-08-17T17:08:51.678Z</time>
      </trkpt>
      <trkpt lat="39.02627833" lon="1.33642">
        <ele>194.0</ele>
        <time>2020-08-17T17:08:52.666Z</time>
      </trkpt>
      <trkpt lat="39.02622333" lon="1.33651167">
        <ele>195.0</ele>
        <time>2020-08-17T17:08:53.686Z</time>
      </trkpt>
      <trkpt lat="39.02622333" lon="1.33651167">
        <ele>195.0</ele>
        <time>2020-08-17T17:08:54.670Z</time>
      </trkpt>
      <trkpt lat="39.026165" lon="1.33659833">
        <ele>196.0</ele>
        <time>2020-08-17T17:08:55.669Z</time>
      </trkpt>
      <trkpt lat="39.026165" lon="1.33659833">
        <ele>196.0</ele>
        <time>2020-08-17T17:08:56.696Z</time>
      </trkpt>
      <trkpt lat="39.02611167" lon="1.33668667">
        <ele>198.0</ele>
        <time>2020-08-17T17:08:57.677Z</time>
      </trkpt>
      <trkpt lat="39.02611167" lon="1.33668667">
        <ele>198.0</ele>
        <time>2020-08-17T17:08:58.667Z</time>
      </trkpt>
      <trkpt lat="39.02606" lon="1.33677333">
        <ele>199.0</ele>
        <time>2020-08-17T17:08:59.685Z</time>
      </trkpt>
      <trkpt lat="39.02606" lon="1.33677333">
        <ele>199.0</ele>
        <time>2020-08-17T17:09:00.675Z</time>
      </trkpt>
      <trkpt lat="39.02600833" lon="1.33685667">
        <ele>199.0</ele>
        <time>2020-08-17T17:09:01.674Z</time>
      </trkpt>
      <trkpt lat="39.02600833" lon="1.33685667">
        <ele>199.0</ele>
        <time>2020-08-17T17:09:02.696Z</time>
      </trkpt>
      <trkpt lat="39.02595833" lon="1.33693667">
        <ele>200.0</ele>
        <time>2020-08-17T17:09:03.676Z</time>
      </trkpt>
      <trkpt lat="39.02595833" lon="1.33693667">
        <ele>200.0</ele>
        <time>2020-08-17T17:09:04.665Z</time>
      </trkpt>
      <trkpt lat="39.02590333" lon="1.337015">
        <ele>201.0</ele>
        <time>2020-08-17T17:09:05.692Z</time>
      </trkpt>
      <trkpt lat="39.02590333" lon="1.337015">
        <ele>201.0</ele>
        <time>2020-08-17T17:09:06.671Z</time>
      </trkpt>
      <trkpt lat="39.02584167" lon="1.33708167">
        <ele>201.0</ele>
        <time>2020-08-17T17:09:07.665Z</time>
      </trkpt>
      <trkpt lat="39.02580333" lon="1.337105">
        <ele>202.0</ele>
        <time>2020-08-17T17:09:08.667Z</time>
      </trkpt>
      <trkpt lat="39.02580333" lon="1.337105">
        <ele>202.0</ele>
        <time>2020-08-17T17:09:09.700Z</time>
      </trkpt>
      <trkpt lat="39.025725" lon="1.33713">
        <ele>203.0</ele>
        <time>2020-08-17T17:09:10.681Z</time>
      </trkpt>
      <trkpt lat="39.02568667" lon="1.33713833">
        <ele>204.0</ele>
        <time>2020-08-17T17:09:11.669Z</time>
      </trkpt>
      <trkpt lat="39.02568667" lon="1.33713833">
        <ele>204.0</ele>
        <time>2020-08-17T17:09:12.702Z</time>
      </trkpt>
      <trkpt lat="39.02561" lon="1.33713667">
        <ele>205.0</ele>
        <time>2020-08-17T17:09:13.682Z</time>
      </trkpt>
      <trkpt lat="39.02557167" lon="1.33712667">
        <ele>206.0</ele>
        <time>2020-08-17T17:09:14.675Z</time>
      </trkpt>
      <trkpt lat="39.02557167" lon="1.33712667">
        <ele>206.0</ele>
        <time>2020-08-17T17:09:15.671Z</time>
      </trkpt>
      <trkpt lat="39.02549333" lon="1.33710667">
        <ele>207.0</ele>
        <time>2020-08-17T17:09:16.670Z</time>
      </trkpt>
      <trkpt lat="39.02549333" lon="1.33710667">
        <ele>207.0</ele>
        <time>2020-08-17T17:09:17.700Z</time>
      </trkpt>
      <trkpt lat="39.025415" lon="1.337075">
        <ele>208.0</ele>
        <time>2020-08-17T17:09:18.692Z</time>
      </trkpt>
      <trkpt lat="39.025375" lon="1.33706">
        <ele>208.0</ele>
        <time>2020-08-17T17:09:19.676Z</time>
      </trkpt>
      <trkpt lat="39.025375" lon="1.33706">
        <ele>208.0</ele>
        <time>2020-08-17T17:09:20.700Z</time>
      </trkpt>
      <trkpt lat="39.025295" lon="1.33703167">
        <ele>209.0</ele>
        <time>2020-08-17T17:09:21.681Z</time>
      </trkpt>
      <trkpt lat="39.025295" lon="1.33703167">
        <ele>209.0</ele>
        <time>2020-08-17T17:09:22.666Z</time>
      </trkpt>
      <trkpt lat="39.025215" lon="1.33700333">
        <ele>210.0</ele>
        <time>2020-08-17T17:09:23.686Z</time>
      </trkpt>
      <trkpt lat="39.025215" lon="1.33700333">
        <ele>210.0</ele>
        <time>2020-08-17T17:09:24.667Z</time>
      </trkpt>
      <trkpt lat="39.025125" lon="1.336975">
        <ele>210.0</ele>
        <time>2020-08-17T17:09:25.669Z</time>
      </trkpt>
      <trkpt lat="39.025125" lon="1.336975">
        <ele>210.0</ele>
        <time>2020-08-17T17:09:26.702Z</time>
      </trkpt>
      <trkpt lat="39.025035" lon="1.336945">
        <ele>210.0</ele>
        <time>2020-08-17T17:09:27.681Z</time>
      </trkpt>
      <trkpt lat="39.025035" lon="1.336945">
        <ele>210.0</ele>
        <time>2020-08-17T17:09:28.666Z</time>
      </trkpt>
      <trkpt lat="39.02493667" lon="1.33690833">
        <ele>210.0</ele>
        <time>2020-08-17T17:09:29.686Z</time>
      </trkpt>
      <trkpt lat="39.02493667" lon="1.33690833">
        <ele>210.0</ele>
        <time>2020-08-17T17:09:30.675Z</time>
      </trkpt>
      <trkpt lat="39.02482" lon="1.33687333">
        <ele>210.0</ele>
        <time>2020-08-17T17:09:31.670Z</time>
      </trkpt>
      <trkpt lat="39.02482" lon="1.33687333">
        <ele>210.0</ele>
        <time>2020-08-17T17:09:32.699Z</time>
      </trkpt>
      <trkpt lat="39.02468333" lon="1.33681667">
        <ele>209.0</ele>
        <time>2020-08-17T17:09:33.678Z</time>
      </trkpt>
      <trkpt lat="39.02468333" lon="1.33681667">
        <ele>209.0</ele>
        <time>2020-08-17T17:09:34.667Z</time>
      </trkpt>
      <trkpt lat="39.024535" lon="1.33670167">
        <ele>207.0</ele>
        <time>2020-08-17T17:09:35.685Z</time>
      </trkpt>
      <trkpt lat="39.024535" lon="1.33670167">
        <ele>207.0</ele>
        <time>2020-08-17T17:09:36.667Z</time>
      </trkpt>
      <trkpt lat="39.02437667" lon="1.33654167">
        <ele>204.0</ele>
        <time>2020-08-17T17:09:37.687Z</time>
      </trkpt>
      <trkpt lat="39.02437667" lon="1.33654167">
        <ele>204.0</ele>
        <time>2020-08-17T17:09:38.666Z</time>
      </trkpt>
      <trkpt lat="39.02416833" lon="1.336425">
        <ele>202.0</ele>
        <time>2020-08-17T17:09:39.686Z</time>
      </trkpt>
      <trkpt lat="39.02416833" lon="1.336425">
        <ele>202.0</ele>
        <time>2020-08-17T17:09:40.667Z</time>
      </trkpt>
      <trkpt lat="39.023935" lon="1.33634167">
        <ele>199.0</ele>
        <time>2020-08-17T17:09:41.686Z</time>
      </trkpt>
      <trkpt lat="39.02382" lon="1.33628333">
        <ele>197.0</ele>
        <time>2020-08-17T17:09:42.669Z</time>
      </trkpt>
      <trkpt lat="39.02382" lon="1.33628333">
        <ele>197.0</ele>
        <time>2020-08-17T17:09:43.667Z</time>
      </trkpt>
      <trkpt lat="39.02361" lon="1.33610667">
        <ele>194.0</ele>
        <time>2020-08-17T17:09:44.701Z</time>
      </trkpt>
      <trkpt lat="39.02361" lon="1.33610667">
        <ele>194.0</ele>
        <time>2020-08-17T17:09:45.676Z</time>
      </trkpt>
      <trkpt lat="39.023415" lon="1.33591833">
        <ele>193.0</ele>
        <time>2020-08-17T17:09:46.669Z</time>
      </trkpt>
      <trkpt lat="39.02332333" lon="1.335835">
        <ele>192.0</ele>
        <time>2020-08-17T17:09:47.685Z</time>
      </trkpt>
      <trkpt lat="39.02332333" lon="1.335835">
        <ele>192.0</ele>
        <time>2020-08-17T17:09:48.666Z</time>
      </trkpt>
      <trkpt lat="39.02320333" lon="1.33563333">
        <ele>193.0</ele>
        <time>2020-08-17T17:09:49.687Z</time>
      </trkpt>
      <trkpt lat="39.02320333" lon="1.33563333">
        <ele>193.0</ele>
        <time>2020-08-17T17:09:50.668Z</time>
      </trkpt>
      <trkpt lat="39.023185" lon="1.33539833">
        <ele>192.0</ele>
        <time>2020-08-17T17:09:51.667Z</time>
      </trkpt>
      <trkpt lat="39.023185" lon="1.33539833">
        <ele>192.0</ele>
        <time>2020-08-17T17:09:52.680Z</time>
      </trkpt>
      <trkpt lat="39.023225" lon="1.33515833">
        <ele>192.0</ele>
        <time>2020-08-17T17:09:53.670Z</time>
      </trkpt>
      <trkpt lat="39.023225" lon="1.33515833">
        <ele>192.0</ele>
        <time>2020-08-17T17:09:54.667Z</time>
      </trkpt>
      <trkpt lat="39.02329333" lon="1.33492333">
        <ele>190.0</ele>
        <time>2020-08-17T17:09:55.692Z</time>
      </trkpt>
      <trkpt lat="39.023325" lon="1.334805">
        <ele>190.0</ele>
        <time>2020-08-17T17:09:56.677Z</time>
      </trkpt>
      <trkpt lat="39.02335667" lon="1.33468833">
        <ele>189.0</ele>
        <time>2020-08-17T17:09:57.668Z</time>
      </trkpt>
      <trkpt lat="39.02335667" lon="1.33468833">
        <ele>189.0</ele>
        <time>2020-08-17T17:09:58.666Z</time>
      </trkpt>
      <trkpt lat="39.02340833" lon="1.33446">
        <ele>188.0</ele>
        <time>2020-08-17T17:09:59.686Z</time>
      </trkpt>
      <trkpt lat="39.02340833" lon="1.33446">
        <ele>188.0</ele>
        <time>2020-08-17T17:10:00.665Z</time>
      </trkpt>
      <trkpt lat="39.02335167" lon="1.33425">
        <ele>185.0</ele>
        <time>2020-08-17T17:10:01.686Z</time>
      </trkpt>
      <trkpt lat="39.02335167" lon="1.33425">
        <ele>185.0</ele>
        <time>2020-08-17T17:10:02.668Z</time>
      </trkpt>
      <trkpt lat="39.02321" lon="1.33416">
        <ele>183.0</ele>
        <time>2020-08-17T17:10:03.667Z</time>
      </trkpt>
      <trkpt lat="39.02321" lon="1.33416">
        <ele>183.0</ele>
        <time>2020-08-17T17:10:04.667Z</time>
      </trkpt>
      <trkpt lat="39.02307667" lon="1.33425833">
        <ele>181.0</ele>
        <time>2020-08-17T17:10:05.696Z</time>
      </trkpt>
      <trkpt lat="39.02303" lon="1.33435167">
        <ele>180.0</ele>
        <time>2020-08-17T17:10:06.677Z</time>
      </trkpt>
      <trkpt lat="39.02299" lon="1.33444833">
        <ele>180.0</ele>
        <time>2020-08-17T17:10:07.670Z</time>
      </trkpt>
      <trkpt lat="39.02299" lon="1.33444833">
        <ele>180.0</ele>
        <time>2020-08-17T17:10:08.668Z</time>
      </trkpt>
      <trkpt lat="39.02287833" lon="1.33463167">
        <ele>178.0</ele>
        <time>2020-08-17T17:10:09.701Z</time>
      </trkpt>
      <trkpt lat="39.02287833" lon="1.33463167">
        <ele>178.0</ele>
        <time>2020-08-17T17:10:10.681Z</time>
      </trkpt>
      <trkpt lat="39.02274167" lon="1.33480833">
        <ele>177.0</ele>
        <time>2020-08-17T17:10:11.669Z</time>
      </trkpt>
      <trkpt lat="39.02274167" lon="1.33480833">
        <ele>177.0</ele>
        <time>2020-08-17T17:10:12.702Z</time>
      </trkpt>
      <trkpt lat="39.02260167" lon="1.33499333">
        <ele>175.0</ele>
        <time>2020-08-17T17:10:13.682Z</time>
      </trkpt>
      <trkpt lat="39.02260167" lon="1.33499333">
        <ele>175.0</ele>
        <time>2020-08-17T17:10:14.667Z</time>
      </trkpt>
      <trkpt lat="39.02242833" lon="1.33513667">
        <ele>174.0</ele>
        <time>2020-08-17T17:10:15.668Z</time>
      </trkpt>
      <trkpt lat="39.02233333" lon="1.335195">
        <ele>173.0</ele>
        <time>2020-08-17T17:10:16.666Z</time>
      </trkpt>
      <trkpt lat="39.022235" lon="1.335255">
        <ele>173.0</ele>
        <time>2020-08-17T17:10:17.686Z</time>
      </trkpt>
      <trkpt lat="39.022235" lon="1.335255">
        <ele>173.0</ele>
        <time>2020-08-17T17:10:18.667Z</time>
      </trkpt>
      <trkpt lat="39.02203333" lon="1.33537333">
        <ele>171.0</ele>
        <time>2020-08-17T17:10:19.670Z</time>
      </trkpt>
      <trkpt lat="39.02203333" lon="1.33537333">
        <ele>171.0</ele>
        <time>2020-08-17T17:10:20.699Z</time>
      </trkpt>
      <trkpt lat="39.02185667" lon="1.335525">
        <ele>170.0</ele>
        <time>2020-08-17T17:10:21.679Z</time>
      </trkpt>
      <trkpt lat="39.02185667" lon="1.335525">
        <ele>170.0</ele>
        <time>2020-08-17T17:10:22.668Z</time>
      </trkpt>
      <trkpt lat="39.02177" lon="1.33575167">
        <ele>168.0</ele>
        <time>2020-08-17T17:10:23.668Z</time>
      </trkpt>
      <trkpt lat="39.02177" lon="1.33575167">
        <ele>168.0</ele>
        <time>2020-08-17T17:10:24.696Z</time>
      </trkpt>
      <trkpt lat="39.02181833" lon="1.336">
        <ele>167.0</ele>
        <time>2020-08-17T17:10:25.678Z</time>
      </trkpt>
      <trkpt lat="39.02181833" lon="1.336">
        <ele>167.0</ele>
        <time>2020-08-17T17:10:26.666Z</time>
      </trkpt>
      <trkpt lat="39.02192333" lon="1.33624833">
        <ele>166.0</ele>
        <time>2020-08-17T17:10:27.687Z</time>
      </trkpt>
      <trkpt lat="39.02192333" lon="1.33624833">
        <ele>166.0</ele>
        <time>2020-08-17T17:10:28.668Z</time>
      </trkpt>
      <trkpt lat="39.02199667" lon="1.33652833">
        <ele>164.0</ele>
        <time>2020-08-17T17:10:29.688Z</time>
      </trkpt>
      <trkpt lat="39.02198833" lon="1.33668167">
        <ele>163.0</ele>
        <time>2020-08-17T17:10:30.667Z</time>
      </trkpt>
      <trkpt lat="39.02194833" lon="1.33683167">
        <ele>162.0</ele>
        <time>2020-08-17T17:10:31.684Z</time>
      </trkpt>
      <trkpt lat="39.02194833" lon="1.33683167">
        <ele>162.0</ele>
        <time>2020-08-17T17:10:32.666Z</time>
      </trkpt>
      <trkpt lat="39.02183667" lon="1.33713833">
        <ele>161.0</ele>
        <time>2020-08-17T17:10:33.686Z</time>
      </trkpt>
      <trkpt lat="39.02183667" lon="1.33713833">
        <ele>161.0</ele>
        <time>2020-08-17T17:10:34.675Z</time>
      </trkpt>
      <trkpt lat="39.02171833" lon="1.337455">
        <ele>159.0</ele>
        <time>2020-08-17T17:10:35.668Z</time>
      </trkpt>
      <trkpt lat="39.02171833" lon="1.337455">
        <ele>159.0</ele>
        <time>2020-08-17T17:10:36.701Z</time>
      </trkpt>
      <trkpt lat="39.021595" lon="1.33777667">
        <ele>157.0</ele>
        <time>2020-08-17T17:10:37.681Z</time>
      </trkpt>
      <trkpt lat="39.021595" lon="1.33777667">
        <ele>157.0</ele>
        <time>2020-08-17T17:10:38.700Z</time>
      </trkpt>
      <trkpt lat="39.02144667" lon="1.33809167">
        <ele>154.0</ele>
        <time>2020-08-17T17:10:39.679Z</time>
      </trkpt>
      <trkpt lat="39.02144667" lon="1.33809167">
        <ele>154.0</ele>
        <time>2020-08-17T17:10:40.702Z</time>
      </trkpt>
      <trkpt lat="39.02129833" lon="1.33841167">
        <ele>152.0</ele>
        <time>2020-08-17T17:10:41.682Z</time>
      </trkpt>
      <trkpt lat="39.02129833" lon="1.33841167">
        <ele>152.0</ele>
        <time>2020-08-17T17:10:42.702Z</time>
      </trkpt>
      <trkpt lat="39.02114667" lon="1.338725">
        <ele>150.0</ele>
        <time>2020-08-17T17:10:43.681Z</time>
      </trkpt>
      <trkpt lat="39.02107" lon="1.33888">
        <ele>149.0</ele>
        <time>2020-08-17T17:10:44.702Z</time>
      </trkpt>
      <trkpt lat="39.02107" lon="1.33888">
        <ele>149.0</ele>
        <time>2020-08-17T17:10:45.681Z</time>
      </trkpt>
      <trkpt lat="39.0209" lon="1.33917833">
        <ele>146.0</ele>
        <time>2020-08-17T17:10:46.669Z</time>
      </trkpt>
      <trkpt lat="39.0209" lon="1.33917833">
        <ele>146.0</ele>
        <time>2020-08-17T17:10:47.694Z</time>
      </trkpt>
      <trkpt lat="39.02071" lon="1.33945333">
        <ele>144.0</ele>
        <time>2020-08-17T17:10:48.675Z</time>
      </trkpt>
      <trkpt lat="39.02071" lon="1.33945333">
        <ele>144.0</ele>
        <time>2020-08-17T17:10:49.668Z</time>
      </trkpt>
      <trkpt lat="39.02051167" lon="1.33971667">
        <ele>142.0</ele>
        <time>2020-08-17T17:10:50.667Z</time>
      </trkpt>
      <trkpt lat="39.02051167" lon="1.33971667">
        <ele>142.0</ele>
        <time>2020-08-17T17:10:51.670Z</time>
      </trkpt>
      <trkpt lat="39.02028167" lon="1.33992333">
        <ele>140.0</ele>
        <time>2020-08-17T17:10:52.683Z</time>
      </trkpt>
      <trkpt lat="39.02015833" lon="1.34001167">
        <ele>140.0</ele>
        <time>2020-08-17T17:10:53.668Z</time>
      </trkpt>
      <trkpt lat="39.02015833" lon="1.34001167">
        <ele>140.0</ele>
        <time>2020-08-17T17:10:54.700Z</time>
      </trkpt>
      <trkpt lat="39.01990833" lon="1.34017667">
        <ele>139.0</ele>
        <time>2020-08-17T17:10:55.680Z</time>
      </trkpt>
      <trkpt lat="39.01990833" lon="1.34017667">
        <ele>139.0</ele>
        <time>2020-08-17T17:10:56.667Z</time>
      </trkpt>
      <trkpt lat="39.01965" lon="1.34033">
        <ele>137.0</ele>
        <time>2020-08-17T17:10:57.666Z</time>
      </trkpt>
      <trkpt lat="39.01965" lon="1.34033">
        <ele>137.0</ele>
        <time>2020-08-17T17:10:58.686Z</time>
      </trkpt>
      <trkpt lat="39.01938333" lon="1.34044667">
        <ele>135.0</ele>
        <time>2020-08-17T17:10:59.671Z</time>
      </trkpt>
      <trkpt lat="39.01938333" lon="1.34044667">
        <ele>135.0</ele>
        <time>2020-08-17T17:11:00.675Z</time>
      </trkpt>
      <trkpt lat="39.01911167" lon="1.34053833">
        <ele>134.0</ele>
        <time>2020-08-17T17:11:01.672Z</time>
      </trkpt>
      <trkpt lat="39.01911167" lon="1.34053833">
        <ele>134.0</ele>
        <time>2020-08-17T17:11:02.700Z</time>
      </trkpt>
      <trkpt lat="39.01884" lon="1.340605">
        <ele>132.0</ele>
        <time>2020-08-17T17:11:03.679Z</time>
      </trkpt>
      <trkpt lat="39.01884" lon="1.340605">
        <ele>132.0</ele>
        <time>2020-08-17T17:11:04.668Z</time>
      </trkpt>
      <trkpt lat="39.01858" lon="1.34065833">
        <ele>132.0</ele>
        <time>2020-08-17T17:11:05.687Z</time>
      </trkpt>
      <trkpt lat="39.01858" lon="1.34065833">
        <ele>132.0</ele>
        <time>2020-08-17T17:11:06.667Z</time>
      </trkpt>
      <trkpt lat="39.01833333" lon="1.34079">
        <ele>131.0</ele>
        <time>2020-08-17T17:11:07.674Z</time>
      </trkpt>
      <trkpt lat="39.01833333" lon="1.34079">
        <ele>131.0</ele>
        <time>2020-08-17T17:11:08.698Z</time>
      </trkpt>
      <trkpt lat="39.01808333" lon="1.340925">
        <ele>130.0</ele>
        <time>2020-08-17T17:11:09.678Z</time>
      </trkpt>
      <trkpt lat="39.01808333" lon="1.340925">
        <ele>130.0</ele>
        <time>2020-08-17T17:11:10.666Z</time>
      </trkpt>
      <trkpt lat="39.01781333" lon="1.34101167">
        <ele>128.0</ele>
        <time>2020-08-17T17:11:11.674Z</time>
      </trkpt>
      <trkpt lat="39.01781333" lon="1.34101167">
        <ele>128.0</ele>
        <time>2020-08-17T17:11:12.699Z</time>
      </trkpt>
      <trkpt lat="39.01754833" lon="1.34109">
        <ele>128.0</ele>
        <time>2020-08-17T17:11:13.679Z</time>
      </trkpt>
      <trkpt lat="39.01742" lon="1.34112833">
        <ele>129.0</ele>
        <time>2020-08-17T17:11:14.693Z</time>
      </trkpt>
      <trkpt lat="39.01742" lon="1.34112833">
        <ele>129.0</ele>
        <time>2020-08-17T17:11:15.675Z</time>
      </trkpt>
      <trkpt lat="39.01717" lon="1.34119333">
        <ele>129.0</ele>
        <time>2020-08-17T17:11:16.681Z</time>
      </trkpt>
      <trkpt lat="39.01705167" lon="1.34122333">
        <ele>129.0</ele>
        <time>2020-08-17T17:11:17.668Z</time>
      </trkpt>
      <trkpt lat="39.01705167" lon="1.34122333">
        <ele>129.0</ele>
        <time>2020-08-17T17:11:18.699Z</time>
      </trkpt>
      <trkpt lat="39.01682833" lon="1.3413">
        <ele>129.0</ele>
        <time>2020-08-17T17:11:19.678Z</time>
      </trkpt>
      <trkpt lat="39.01682833" lon="1.3413">
        <ele>129.0</ele>
        <time>2020-08-17T17:11:20.700Z</time>
      </trkpt>
      <trkpt lat="39.01662167" lon="1.34137833">
        <ele>129.0</ele>
        <time>2020-08-17T17:11:21.679Z</time>
      </trkpt>
      <trkpt lat="39.01662167" lon="1.34137833">
        <ele>129.0</ele>
        <time>2020-08-17T17:11:22.668Z</time>
      </trkpt>
      <trkpt lat="39.016425" lon="1.34147167">
        <ele>128.0</ele>
        <time>2020-08-17T17:11:23.666Z</time>
      </trkpt>
      <trkpt lat="39.016425" lon="1.34147167">
        <ele>128.0</ele>
        <time>2020-08-17T17:11:24.688Z</time>
      </trkpt>
      <trkpt lat="39.01623833" lon="1.34158">
        <ele>128.0</ele>
        <time>2020-08-17T17:11:25.676Z</time>
      </trkpt>
      <trkpt lat="39.01623833" lon="1.34158">
        <ele>128.0</ele>
        <time>2020-08-17T17:11:26.700Z</time>
      </trkpt>
      <trkpt lat="39.016055" lon="1.34168">
        <ele>127.0</ele>
        <time>2020-08-17T17:11:27.679Z</time>
      </trkpt>
      <trkpt lat="39.016055" lon="1.34168">
        <ele>127.0</ele>
        <time>2020-08-17T17:11:28.666Z</time>
      </trkpt>
      <trkpt lat="39.015875" lon="1.34177">
        <ele>127.0</ele>
        <time>2020-08-17T17:11:29.686Z</time>
      </trkpt>
      <trkpt lat="39.015875" lon="1.34177">
        <ele>127.0</ele>
        <time>2020-08-17T17:11:30.669Z</time>
      </trkpt>
      <trkpt lat="39.01569333" lon="1.34186167">
        <ele>127.0</ele>
        <time>2020-08-17T17:11:31.670Z</time>
      </trkpt>
      <trkpt lat="39.01569333" lon="1.34186167">
        <ele>127.0</ele>
        <time>2020-08-17T17:11:32.700Z</time>
      </trkpt>
      <trkpt lat="39.01550667" lon="1.34193667">
        <ele>127.0</ele>
        <time>2020-08-17T17:11:33.678Z</time>
      </trkpt>
      <trkpt lat="39.01550667" lon="1.34193667">
        <ele>127.0</ele>
        <time>2020-08-17T17:11:34.701Z</time>
      </trkpt>
      <trkpt lat="39.01531833" lon="1.34197">
        <ele>127.0</ele>
        <time>2020-08-17T17:11:35.682Z</time>
      </trkpt>
      <trkpt lat="39.01531833" lon="1.34197">
        <ele>127.0</ele>
        <time>2020-08-17T17:11:36.700Z</time>
      </trkpt>
      <trkpt lat="39.015135" lon="1.341975">
        <ele>127.0</ele>
        <time>2020-08-17T17:11:37.679Z</time>
      </trkpt>
      <trkpt lat="39.01504667" lon="1.34195667">
        <ele>127.0</ele>
        <time>2020-08-17T17:11:38.702Z</time>
      </trkpt>
      <trkpt lat="39.01504667" lon="1.34195667">
        <ele>127.0</ele>
        <time>2020-08-17T17:11:39.681Z</time>
      </trkpt>
      <trkpt lat="39.01487333" lon="1.34188833">
        <ele>126.0</ele>
        <time>2020-08-17T17:11:40.669Z</time>
      </trkpt>
      <trkpt lat="39.01487333" lon="1.34188833">
        <ele>126.0</ele>
        <time>2020-08-17T17:11:41.697Z</time>
      </trkpt>
      <trkpt lat="39.01469167" lon="1.34181167">
        <ele>126.0</ele>
        <time>2020-08-17T17:11:42.678Z</time>
      </trkpt>
      <trkpt lat="39.01469167" lon="1.34181167">
        <ele>126.0</ele>
        <time>2020-08-17T17:11:43.700Z</time>
      </trkpt>
      <trkpt lat="39.01450833" lon="1.34175667">
        <ele>125.0</ele>
        <time>2020-08-17T17:11:44.680Z</time>
      </trkpt>
      <trkpt lat="39.01450833" lon="1.34175667">
        <ele>125.0</ele>
        <time>2020-08-17T17:11:45.669Z</time>
      </trkpt>
      <trkpt lat="39.01431" lon="1.34176833">
        <ele>124.0</ele>
        <time>2020-08-17T17:11:46.701Z</time>
      </trkpt>
      <trkpt lat="39.014205" lon="1.34178333">
        <ele>123.0</ele>
        <time>2020-08-17T17:11:47.686Z</time>
      </trkpt>
      <trkpt lat="39.014205" lon="1.34178333">
        <ele>123.0</ele>
        <time>2020-08-17T17:11:48.668Z</time>
      </trkpt>
      <trkpt lat="39.01399667" lon="1.34182667">
        <ele>122.0</ele>
        <time>2020-08-17T17:11:49.670Z</time>
      </trkpt>
      <trkpt lat="39.01399667" lon="1.34182667">
        <ele>122.0</ele>
        <time>2020-08-17T17:11:50.700Z</time>
      </trkpt>
      <trkpt lat="39.01378333" lon="1.34187333">
        <ele>120.0</ele>
        <time>2020-08-17T17:11:51.685Z</time>
      </trkpt>
      <trkpt lat="39.01378333" lon="1.34187333">
        <ele>120.0</ele>
        <time>2020-08-17T17:11:52.667Z</time>
      </trkpt>
      <trkpt lat="39.01357333" lon="1.34193167">
        <ele>118.0</ele>
        <time>2020-08-17T17:11:53.688Z</time>
      </trkpt>
      <trkpt lat="39.01357333" lon="1.34193167">
        <ele>118.0</ele>
        <time>2020-08-17T17:11:54.668Z</time>
      </trkpt>
      <trkpt lat="39.013375" lon="1.34202">
        <ele>117.0</ele>
        <time>2020-08-17T17:11:55.669Z</time>
      </trkpt>
      <trkpt lat="39.013285" lon="1.342085">
        <ele>117.0</ele>
        <time>2020-08-17T17:11:56.701Z</time>
      </trkpt>
      <trkpt lat="39.01320167" lon="1.34216">
        <ele>116.0</ele>
        <time>2020-08-17T17:11:57.681Z</time>
      </trkpt>
      <trkpt lat="39.01320167" lon="1.34216">
        <ele>116.0</ele>
        <time>2020-08-17T17:11:58.668Z</time>
      </trkpt>
      <trkpt lat="39.01303833" lon="1.34232667">
        <ele>115.0</ele>
        <time>2020-08-17T17:11:59.669Z</time>
      </trkpt>
      <trkpt lat="39.01303833" lon="1.34232667">
        <ele>115.0</ele>
        <time>2020-08-17T17:12:00.670Z</time>
      </trkpt>
      <trkpt lat="39.01294333" lon="1.34256167">
        <ele>115.0</ele>
        <time>2020-08-17T17:12:01.675Z</time>
      </trkpt>
      <trkpt lat="39.01294333" lon="1.34256167">
        <ele>115.0</ele>
        <time>2020-08-17T17:12:02.703Z</time>
      </trkpt>
      <trkpt lat="39.01295167" lon="1.342825">
        <ele>114.0</ele>
        <time>2020-08-17T17:12:03.682Z</time>
      </trkpt>
      <trkpt lat="39.01295167" lon="1.342825">
        <ele>114.0</ele>
        <time>2020-08-17T17:12:04.666Z</time>
      </trkpt>
      <trkpt lat="39.01302333" lon="1.34309833">
        <ele>113.0</ele>
        <time>2020-08-17T17:12:05.687Z</time>
      </trkpt>
      <trkpt lat="39.01302333" lon="1.34309833">
        <ele>113.0</ele>
        <time>2020-08-17T17:12:06.667Z</time>
      </trkpt>
      <trkpt lat="39.01309833" lon="1.34338">
        <ele>112.0</ele>
        <time>2020-08-17T17:12:07.687Z</time>
      </trkpt>
      <trkpt lat="39.01309833" lon="1.34338">
        <ele>112.0</ele>
        <time>2020-08-17T17:12:08.668Z</time>
      </trkpt>
      <trkpt lat="39.01313167" lon="1.343655">
        <ele>112.0</ele>
        <time>2020-08-17T17:12:09.668Z</time>
      </trkpt>
      <trkpt lat="39.013125" lon="1.343795">
        <ele>112.0</ele>
        <time>2020-08-17T17:12:10.669Z</time>
      </trkpt>
      <trkpt lat="39.01310167" lon="1.34393333">
        <ele>111.0</ele>
        <time>2020-08-17T17:12:11.671Z</time>
      </trkpt>
      <trkpt lat="39.01310167" lon="1.34393333">
        <ele>111.0</ele>
        <time>2020-08-17T17:12:12.700Z</time>
      </trkpt>
      <trkpt lat="39.01304833" lon="1.34422">
        <ele>109.0</ele>
        <time>2020-08-17T17:12:13.680Z</time>
      </trkpt>
      <trkpt lat="39.01304833" lon="1.34422">
        <ele>109.0</ele>
        <time>2020-08-17T17:12:14.695Z</time>
      </trkpt>
      <trkpt lat="39.01299833" lon="1.34452167">
        <ele>107.0</ele>
        <time>2020-08-17T17:12:15.669Z</time>
      </trkpt>
      <trkpt lat="39.01297" lon="1.34467333">
        <ele>106.0</ele>
        <time>2020-08-17T17:12:16.666Z</time>
      </trkpt>
      <trkpt lat="39.01293" lon="1.34482333">
        <ele>104.0</ele>
        <time>2020-08-17T17:12:17.687Z</time>
      </trkpt>
      <trkpt lat="39.01293" lon="1.34482333">
        <ele>104.0</ele>
        <time>2020-08-17T17:12:18.667Z</time>
      </trkpt>
      <trkpt lat="39.01288" lon="1.34514">
        <ele>102.0</ele>
        <time>2020-08-17T17:12:19.675Z</time>
      </trkpt>
      <trkpt lat="39.01288" lon="1.34514">
        <ele>102.0</ele>
        <time>2020-08-17T17:12:20.700Z</time>
      </trkpt>
      <trkpt lat="39.01282" lon="1.34544667">
        <ele>100.0</ele>
        <time>2020-08-17T17:12:21.681Z</time>
      </trkpt>
      <trkpt lat="39.012765" lon="1.345575">
        <ele>100.0</ele>
        <time>2020-08-17T17:12:22.670Z</time>
      </trkpt>
      <trkpt lat="39.012765" lon="1.345575">
        <ele>100.0</ele>
        <time>2020-08-17T17:12:23.668Z</time>
      </trkpt>
      <trkpt lat="39.01258667" lon="1.34573833">
        <ele>100.0</ele>
        <time>2020-08-17T17:12:24.671Z</time>
      </trkpt>
      <trkpt lat="39.01247167" lon="1.34578333">
        <ele>99.0</ele>
        <time>2020-08-17T17:12:25.670Z</time>
      </trkpt>
      <trkpt lat="39.01247167" lon="1.34578333">
        <ele>99.0</ele>
        <time>2020-08-17T17:12:26.701Z</time>
      </trkpt>
      <trkpt lat="39.01222667" lon="1.34588167">
        <ele>97.0</ele>
        <time>2020-08-17T17:12:27.687Z</time>
      </trkpt>
      <trkpt lat="39.01222667" lon="1.34588167">
        <ele>97.0</ele>
        <time>2020-08-17T17:12:28.667Z</time>
      </trkpt>
      <trkpt lat="39.011965" lon="1.34599167">
        <ele>94.0</ele>
        <time>2020-08-17T17:12:29.687Z</time>
      </trkpt>
      <trkpt lat="39.011965" lon="1.34599167">
        <ele>94.0</ele>
        <time>2020-08-17T17:12:30.667Z</time>
      </trkpt>
      <trkpt lat="39.01169833" lon="1.34610667">
        <ele>92.0</ele>
        <time>2020-08-17T17:12:31.687Z</time>
      </trkpt>
      <trkpt lat="39.01169833" lon="1.34610667">
        <ele>92.0</ele>
        <time>2020-08-17T17:12:32.684Z</time>
      </trkpt>
      <trkpt lat="39.01143167" lon="1.34622333">
        <ele>90.0</ele>
        <time>2020-08-17T17:12:33.669Z</time>
      </trkpt>
      <trkpt lat="39.01143167" lon="1.34622333">
        <ele>90.0</ele>
        <time>2020-08-17T17:12:34.700Z</time>
      </trkpt>
      <trkpt lat="39.01118167" lon="1.34637">
        <ele>88.0</ele>
        <time>2020-08-17T17:12:35.679Z</time>
      </trkpt>
      <trkpt lat="39.01105833" lon="1.34645167">
        <ele>87.0</ele>
        <time>2020-08-17T17:12:36.670Z</time>
      </trkpt>
      <trkpt lat="39.01105833" lon="1.34645167">
        <ele>87.0</ele>
        <time>2020-08-17T17:12:37.669Z</time>
      </trkpt>
      <trkpt lat="39.01080167" lon="1.3466">
        <ele>84.0</ele>
        <time>2020-08-17T17:12:38.671Z</time>
      </trkpt>
      <trkpt lat="39.01080167" lon="1.3466">
        <ele>84.0</ele>
        <time>2020-08-17T17:12:39.668Z</time>
      </trkpt>
      <trkpt lat="39.010545" lon="1.346765">
        <ele>82.0</ele>
        <time>2020-08-17T17:12:40.670Z</time>
      </trkpt>
      <trkpt lat="39.01041833" lon="1.34685167">
        <ele>81.0</ele>
        <time>2020-08-17T17:12:41.693Z</time>
      </trkpt>
      <trkpt lat="39.01041833" lon="1.34685167">
        <ele>81.0</ele>
        <time>2020-08-17T17:12:42.672Z</time>
      </trkpt>
      <trkpt lat="39.01016167" lon="1.347015">
        <ele>79.0</ele>
        <time>2020-08-17T17:12:43.668Z</time>
      </trkpt>
      <trkpt lat="39.01016167" lon="1.347015">
        <ele>79.0</ele>
        <time>2020-08-17T17:12:44.700Z</time>
      </trkpt>
      <trkpt lat="39.0099" lon="1.34717333">
        <ele>77.0</ele>
        <time>2020-08-17T17:12:45.679Z</time>
      </trkpt>
      <trkpt lat="39.00976833" lon="1.34725167">
        <ele>76.0</ele>
        <time>2020-08-17T17:12:46.669Z</time>
      </trkpt>
      <trkpt lat="39.00976833" lon="1.34725167">
        <ele>76.0</ele>
        <time>2020-08-17T17:12:47.693Z</time>
      </trkpt>
      <trkpt lat="39.00950333" lon="1.34739833">
        <ele>74.0</ele>
        <time>2020-08-17T17:12:48.673Z</time>
      </trkpt>
      <trkpt lat="39.00937" lon="1.347465">
        <ele>74.0</ele>
        <time>2020-08-17T17:12:49.671Z</time>
      </trkpt>
      <trkpt lat="39.00937" lon="1.347465">
        <ele>74.0</ele>
        <time>2020-08-17T17:12:50.700Z</time>
      </trkpt>
      <trkpt lat="39.00910167" lon="1.34759833">
        <ele>72.0</ele>
        <time>2020-08-17T17:12:51.680Z</time>
      </trkpt>
      <trkpt lat="39.00910167" lon="1.34759833">
        <ele>72.0</ele>
        <time>2020-08-17T17:12:52.668Z</time>
      </trkpt>
      <trkpt lat="39.008845" lon="1.34773333">
        <ele>71.0</ele>
        <time>2020-08-17T17:12:53.667Z</time>
      </trkpt>
      <trkpt lat="39.008845" lon="1.34773333">
        <ele>71.0</ele>
        <time>2020-08-17T17:12:54.687Z</time>
      </trkpt>
      <trkpt lat="39.008595" lon="1.34785">
        <ele>70.0</ele>
        <time>2020-08-17T17:12:55.675Z</time>
      </trkpt>
      <trkpt lat="39.008595" lon="1.34785">
        <ele>70.0</ele>
        <time>2020-08-17T17:12:56.667Z</time>
      </trkpt>
      <trkpt lat="39.00834667" lon="1.34793333">
        <ele>69.0</ele>
        <time>2020-08-17T17:12:57.687Z</time>
      </trkpt>
      <trkpt lat="39.00834667" lon="1.34793333">
        <ele>69.0</ele>
        <time>2020-08-17T17:12:58.672Z</time>
      </trkpt>
      <trkpt lat="39.00810333" lon="1.34799">
        <ele>68.0</ele>
        <time>2020-08-17T17:12:59.671Z</time>
      </trkpt>
      <trkpt lat="39.00810333" lon="1.34799">
        <ele>68.0</ele>
        <time>2020-08-17T17:13:00.666Z</time>
      </trkpt>
      <trkpt lat="39.00786333" lon="1.34804333">
        <ele>67.0</ele>
        <time>2020-08-17T17:13:01.687Z</time>
      </trkpt>
      <trkpt lat="39.00786333" lon="1.34804333">
        <ele>67.0</ele>
        <time>2020-08-17T17:13:02.668Z</time>
      </trkpt>
      <trkpt lat="39.007625" lon="1.34809333">
        <ele>65.0</ele>
        <time>2020-08-17T17:13:03.668Z</time>
      </trkpt>
      <trkpt lat="39.007625" lon="1.34809333">
        <ele>65.0</ele>
        <time>2020-08-17T17:13:04.700Z</time>
      </trkpt>
      <trkpt lat="39.00738333" lon="1.34814167">
        <ele>64.0</ele>
        <time>2020-08-17T17:13:05.680Z</time>
      </trkpt>
      <trkpt lat="39.00738333" lon="1.34814167">
        <ele>64.0</ele>
        <time>2020-08-17T17:13:06.667Z</time>
      </trkpt>
      <trkpt lat="39.00714667" lon="1.34819">
        <ele>63.0</ele>
        <time>2020-08-17T17:13:07.671Z</time>
      </trkpt>
      <trkpt lat="39.00714667" lon="1.34819">
        <ele>63.0</ele>
        <time>2020-08-17T17:13:08.699Z</time>
      </trkpt>
      <trkpt lat="39.00691833" lon="1.34826333">
        <ele>62.0</ele>
        <time>2020-08-17T17:13:09.678Z</time>
      </trkpt>
      <trkpt lat="39.00691833" lon="1.34826333">
        <ele>62.0</ele>
        <time>2020-08-17T17:13:10.702Z</time>
      </trkpt>
      <trkpt lat="39.006695" lon="1.34836">
        <ele>61.0</ele>
        <time>2020-08-17T17:13:11.683Z</time>
      </trkpt>
      <trkpt lat="39.006695" lon="1.34836">
        <ele>61.0</ele>
        <time>2020-08-17T17:13:12.703Z</time>
      </trkpt>
      <trkpt lat="39.00647667" lon="1.34846167">
        <ele>59.0</ele>
        <time>2020-08-17T17:13:13.684Z</time>
      </trkpt>
      <trkpt lat="39.00647667" lon="1.34846167">
        <ele>59.0</ele>
        <time>2020-08-17T17:13:14.697Z</time>
      </trkpt>
      <trkpt lat="39.00626333" lon="1.34856">
        <ele>59.0</ele>
        <time>2020-08-17T17:13:15.675Z</time>
      </trkpt>
      <trkpt lat="39.00615833" lon="1.34860833">
        <ele>58.0</ele>
        <time>2020-08-17T17:13:16.681Z</time>
      </trkpt>
      <trkpt lat="39.00605333" lon="1.34865667">
        <ele>58.0</ele>
        <time>2020-08-17T17:13:17.671Z</time>
      </trkpt>
      <trkpt lat="39.00605333" lon="1.34865667">
        <ele>58.0</ele>
        <time>2020-08-17T17:13:18.670Z</time>
      </trkpt>
      <trkpt lat="39.00585" lon="1.34875667">
        <ele>57.0</ele>
        <time>2020-08-17T17:13:19.671Z</time>
      </trkpt>
      <trkpt lat="39.00585" lon="1.34875667">
        <ele>57.0</ele>
        <time>2020-08-17T17:13:20.678Z</time>
      </trkpt>
      <trkpt lat="39.005665" lon="1.34888833">
        <ele>56.0</ele>
        <time>2020-08-17T17:13:21.668Z</time>
      </trkpt>
      <trkpt lat="39.005665" lon="1.34888833">
        <ele>56.0</ele>
        <time>2020-08-17T17:13:22.702Z</time>
      </trkpt>
      <trkpt lat="39.005495" lon="1.349045">
        <ele>55.0</ele>
        <time>2020-08-17T17:13:23.682Z</time>
      </trkpt>
      <trkpt lat="39.005495" lon="1.349045">
        <ele>55.0</ele>
        <time>2020-08-17T17:13:24.701Z</time>
      </trkpt>
      <trkpt lat="39.00533333" lon="1.34920833">
        <ele>54.0</ele>
        <time>2020-08-17T17:13:25.681Z</time>
      </trkpt>
      <trkpt lat="39.00533333" lon="1.34920833">
        <ele>54.0</ele>
        <time>2020-08-17T17:13:26.701Z</time>
      </trkpt>
      <trkpt lat="39.005175" lon="1.34936667">
        <ele>54.0</ele>
        <time>2020-08-17T17:13:27.677Z</time>
      </trkpt>
      <trkpt lat="39.00509833" lon="1.349445">
        <ele>54.0</ele>
        <time>2020-08-17T17:13:28.671Z</time>
      </trkpt>
      <trkpt lat="39.00502333" lon="1.34952167">
        <ele>54.0</ele>
        <time>2020-08-17T17:13:29.671Z</time>
      </trkpt>
      <trkpt lat="39.00502333" lon="1.34952167">
        <ele>54.0</ele>
        <time>2020-08-17T17:13:30.700Z</time>
      </trkpt>
      <trkpt lat="39.00487667" lon="1.34967">
        <ele>53.0</ele>
        <time>2020-08-17T17:13:31.680Z</time>
      </trkpt>
      <trkpt lat="39.004805" lon="1.34974167">
        <ele>53.0</ele>
        <time>2020-08-17T17:13:32.703Z</time>
      </trkpt>
      <trkpt lat="39.004735" lon="1.34981333">
        <ele>53.0</ele>
        <time>2020-08-17T17:13:33.683Z</time>
      </trkpt>
      <trkpt lat="39.00467" lon="1.34989">
        <ele>53.0</ele>
        <time>2020-08-17T17:13:34.671Z</time>
      </trkpt>
      <trkpt lat="39.00467" lon="1.34989">
        <ele>53.0</ele>
        <time>2020-08-17T17:13:35.701Z</time>
      </trkpt>
      <trkpt lat="39.00454667" lon="1.35004">
        <ele>53.0</ele>
        <time>2020-08-17T17:13:36.681Z</time>
      </trkpt>
      <trkpt lat="39.00454667" lon="1.35004">
        <ele>53.0</ele>
        <time>2020-08-17T17:13:37.671Z</time>
      </trkpt>
      <trkpt lat="39.00443667" lon="1.350195">
        <ele>53.0</ele>
        <time>2020-08-17T17:13:38.669Z</time>
      </trkpt>
      <trkpt lat="39.00443667" lon="1.350195">
        <ele>53.0</ele>
        <time>2020-08-17T17:13:39.667Z</time>
      </trkpt>
      <trkpt lat="39.00432667" lon="1.35034333">
        <ele>52.0</ele>
        <time>2020-08-17T17:13:40.698Z</time>
      </trkpt>
      <trkpt lat="39.00427167" lon="1.35040833">
        <ele>51.0</ele>
        <time>2020-08-17T17:13:41.685Z</time>
      </trkpt>
      <trkpt lat="39.00427167" lon="1.35040833">
        <ele>51.0</ele>
        <time>2020-08-17T17:13:42.667Z</time>
      </trkpt>
      <trkpt lat="39.00415667" lon="1.35049333">
        <ele>51.0</ele>
        <time>2020-08-17T17:13:43.671Z</time>
      </trkpt>
      <trkpt lat="39.00415667" lon="1.35049333">
        <ele>51.0</ele>
        <time>2020-08-17T17:13:44.700Z</time>
      </trkpt>
      <trkpt lat="39.00403667" lon="1.35047167">
        <ele>52.0</ele>
        <time>2020-08-17T17:13:45.680Z</time>
      </trkpt>
      <trkpt lat="39.00403667" lon="1.35047167">
        <ele>52.0</ele>
        <time>2020-08-17T17:13:46.681Z</time>
      </trkpt>
      <trkpt lat="39.00393667" lon="1.35040167">
        <ele>52.0</ele>
        <time>2020-08-17T17:13:47.667Z</time>
      </trkpt>
      <trkpt lat="39.00389" lon="1.350365">
        <ele>53.0</ele>
        <time>2020-08-17T17:13:48.687Z</time>
      </trkpt>
      <trkpt lat="39.00389" lon="1.350365">
        <ele>53.0</ele>
        <time>2020-08-17T17:13:49.668Z</time>
      </trkpt>
      <trkpt lat="39.00379" lon="1.35029667">
        <ele>52.0</ele>
        <time>2020-08-17T17:13:50.669Z</time>
      </trkpt>
      <trkpt lat="39.00379" lon="1.35029667">
        <ele>52.0</ele>
        <time>2020-08-17T17:13:51.669Z</time>
      </trkpt>
      <trkpt lat="39.003685" lon="1.35022833">
        <ele>52.0</ele>
        <time>2020-08-17T17:13:52.670Z</time>
      </trkpt>
      <trkpt lat="39.00363333" lon="1.35018833">
        <ele>52.0</ele>
        <time>2020-08-17T17:13:53.670Z</time>
      </trkpt>
      <trkpt lat="39.00363333" lon="1.35018833">
        <ele>52.0</ele>
        <time>2020-08-17T17:13:54.697Z</time>
      </trkpt>
      <trkpt lat="39.00352167" lon="1.35010667">
        <ele>51.0</ele>
        <time>2020-08-17T17:13:55.693Z</time>
      </trkpt>
      <trkpt lat="39.00352167" lon="1.35010667">
        <ele>51.0</ele>
        <time>2020-08-17T17:13:56.673Z</time>
      </trkpt>
      <trkpt lat="39.00341333" lon="1.35001">
        <ele>50.0</ele>
        <time>2020-08-17T17:13:57.667Z</time>
      </trkpt>
      <trkpt lat="39.00336" lon="1.349965">
        <ele>50.0</ele>
        <time>2020-08-17T17:13:58.670Z</time>
      </trkpt>
      <trkpt lat="39.00330167" lon="1.34991833">
        <ele>50.0</ele>
        <time>2020-08-17T17:13:59.669Z</time>
      </trkpt>
      <trkpt lat="39.00330167" lon="1.34991833">
        <ele>50.0</ele>
        <time>2020-08-17T17:14:00.680Z</time>
      </trkpt>
      <trkpt lat="39.00318333" lon="1.349815">
        <ele>48.0</ele>
        <time>2020-08-17T17:14:01.671Z</time>
      </trkpt>
      <trkpt lat="39.00318333" lon="1.349815">
        <ele>48.0</ele>
        <time>2020-08-17T17:14:02.666Z</time>
      </trkpt>
      <trkpt lat="39.00304667" lon="1.349695">
        <ele>46.0</ele>
        <time>2020-08-17T17:14:03.687Z</time>
      </trkpt>
      <trkpt lat="39.00304667" lon="1.349695">
        <ele>46.0</ele>
        <time>2020-08-17T17:14:04.668Z</time>
      </trkpt>
      <trkpt lat="39.00290333" lon="1.34956167">
        <ele>46.0</ele>
        <time>2020-08-17T17:14:05.696Z</time>
      </trkpt>
      <trkpt lat="39.00290333" lon="1.34956167">
        <ele>46.0</ele>
        <time>2020-08-17T17:14:06.676Z</time>
      </trkpt>
      <trkpt lat="39.00276667" lon="1.349445">
        <ele>47.0</ele>
        <time>2020-08-17T17:14:07.675Z</time>
      </trkpt>
      <trkpt lat="39.00276667" lon="1.349445">
        <ele>47.0</ele>
        <time>2020-08-17T17:14:08.697Z</time>
      </trkpt>
      <trkpt lat="39.00263333" lon="1.34936">
        <ele>48.0</ele>
        <time>2020-08-17T17:14:09.679Z</time>
      </trkpt>
      <trkpt lat="39.00263333" lon="1.34936">
        <ele>48.0</ele>
        <time>2020-08-17T17:14:10.668Z</time>
      </trkpt>
      <trkpt lat="39.00251833" lon="1.34931333">
        <ele>50.0</ele>
        <time>2020-08-17T17:14:11.693Z</time>
      </trkpt>
      <trkpt lat="39.00251833" lon="1.34931333">
        <ele>50.0</ele>
        <time>2020-08-17T17:14:12.672Z</time>
      </trkpt>
      <trkpt lat="39.00242" lon="1.34926667">
        <ele>50.0</ele>
        <time>2020-08-17T17:14:13.668Z</time>
      </trkpt>
      <trkpt lat="39.00237333" lon="1.34924">
        <ele>51.0</ele>
        <time>2020-08-17T17:14:14.688Z</time>
      </trkpt>
      <trkpt lat="39.00237333" lon="1.34924">
        <ele>51.0</ele>
        <time>2020-08-17T17:14:15.702Z</time>
      </trkpt>
      <trkpt lat="39.00228833" lon="1.34918833">
        <ele>51.0</ele>
        <time>2020-08-17T17:14:16.668Z</time>
      </trkpt>
      <trkpt lat="39.00228833" lon="1.34918833">
        <ele>51.0</ele>
        <time>2020-08-17T17:14:17.674Z</time>
      </trkpt>
      <trkpt lat="39.00221333" lon="1.34912667">
        <ele>51.0</ele>
        <time>2020-08-17T17:14:18.696Z</time>
      </trkpt>
      <trkpt lat="39.00221333" lon="1.34912667">
        <ele>51.0</ele>
        <time>2020-08-17T17:14:19.675Z</time>
      </trkpt>
      <trkpt lat="39.002145" lon="1.34907">
        <ele>52.0</ele>
        <time>2020-08-17T17:14:20.668Z</time>
      </trkpt>
      <trkpt lat="39.00211333" lon="1.34904167">
        <ele>52.0</ele>
        <time>2020-08-17T17:14:21.669Z</time>
      </trkpt>
      <trkpt lat="39.00211333" lon="1.34904167">
        <ele>52.0</ele>
        <time>2020-08-17T17:14:22.668Z</time>
      </trkpt>
      <trkpt lat="39.002045" lon="1.34898667">
        <ele>52.0</ele>
        <time>2020-08-17T17:14:23.671Z</time>
      </trkpt>
      <trkpt lat="39.002045" lon="1.34898667">
        <ele>52.0</ele>
        <time>2020-08-17T17:14:24.700Z</time>
      </trkpt>
      <trkpt lat="39.00197167" lon="1.34892833">
        <ele>52.0</ele>
        <time>2020-08-17T17:14:25.682Z</time>
      </trkpt>
      <trkpt lat="39.00197167" lon="1.34892833">
        <ele>52.0</ele>
        <time>2020-08-17T17:14:26.703Z</time>
      </trkpt>
      <trkpt lat="39.00189333" lon="1.34886667">
        <ele>53.0</ele>
        <time>2020-08-17T17:14:27.682Z</time>
      </trkpt>
      <trkpt lat="39.00189333" lon="1.34886667">
        <ele>53.0</ele>
        <time>2020-08-17T17:14:28.702Z</time>
      </trkpt>
      <trkpt lat="39.00182333" lon="1.34878833">
        <ele>53.0</ele>
        <time>2020-08-17T17:14:29.682Z</time>
      </trkpt>
      <trkpt lat="39.00182333" lon="1.34878833">
        <ele>53.0</ele>
        <time>2020-08-17T17:14:30.668Z</time>
      </trkpt>
      <trkpt lat="39.00175833" lon="1.34870333">
        <ele>53.0</ele>
        <time>2020-08-17T17:14:31.671Z</time>
      </trkpt>
      <trkpt lat="39.00175833" lon="1.34870333">
        <ele>53.0</ele>
        <time>2020-08-17T17:14:32.700Z</time>
      </trkpt>
      <trkpt lat="39.00169" lon="1.34860333">
        <ele>54.0</ele>
        <time>2020-08-17T17:14:33.679Z</time>
      </trkpt>
      <trkpt lat="39.00169" lon="1.34860333">
        <ele>54.0</ele>
        <time>2020-08-17T17:14:34.668Z</time>
      </trkpt>
      <trkpt lat="39.00162667" lon="1.34850333">
        <ele>54.0</ele>
        <time>2020-08-17T17:14:35.694Z</time>
      </trkpt>
      <trkpt lat="39.00162667" lon="1.34850333">
        <ele>54.0</ele>
        <time>2020-08-17T17:14:36.673Z</time>
      </trkpt>
      <trkpt lat="39.00156167" lon="1.34840333">
        <ele>54.0</ele>
        <time>2020-08-17T17:14:37.671Z</time>
      </trkpt>
      <trkpt lat="39.00156167" lon="1.34840333">
        <ele>54.0</ele>
        <time>2020-08-17T17:14:38.667Z</time>
      </trkpt>
      <trkpt lat="39.0015" lon="1.3483">
        <ele>54.0</ele>
        <time>2020-08-17T17:14:39.687Z</time>
      </trkpt>
      <trkpt lat="39.0015" lon="1.3483">
        <ele>54.0</ele>
        <time>2020-08-17T17:14:40.669Z</time>
      </trkpt>
      <trkpt lat="39.00143667" lon="1.34819833">
        <ele>54.0</ele>
        <time>2020-08-17T17:14:41.688Z</time>
      </trkpt>
      <trkpt lat="39.00143667" lon="1.34819833">
        <ele>54.0</ele>
        <time>2020-08-17T17:14:42.669Z</time>
      </trkpt>
      <trkpt lat="39.00136833" lon="1.34810167">
        <ele>54.0</ele>
        <time>2020-08-17T17:14:43.675Z</time>
      </trkpt>
      <trkpt lat="39.00136833" lon="1.34810167">
        <ele>54.0</ele>
        <time>2020-08-17T17:14:44.703Z</time>
      </trkpt>
      <trkpt lat="39.00130333" lon="1.34799667">
        <ele>54.0</ele>
        <time>2020-08-17T17:14:45.682Z</time>
      </trkpt>
      <trkpt lat="39.00130333" lon="1.34799667">
        <ele>54.0</ele>
        <time>2020-08-17T17:14:46.702Z</time>
      </trkpt>
      <trkpt lat="39.00122833" lon="1.347895">
        <ele>54.0</ele>
        <time>2020-08-17T17:14:47.685Z</time>
      </trkpt>
      <trkpt lat="39.00122833" lon="1.347895">
        <ele>54.0</ele>
        <time>2020-08-17T17:14:48.669Z</time>
      </trkpt>
      <trkpt lat="39.001145" lon="1.347805">
        <ele>54.0</ele>
        <time>2020-08-17T17:14:49.671Z</time>
      </trkpt>
      <trkpt lat="39.001145" lon="1.347805">
        <ele>54.0</ele>
        <time>2020-08-17T17:14:50.697Z</time>
      </trkpt>
      <trkpt lat="39.00105667" lon="1.34774">
        <ele>54.0</ele>
        <time>2020-08-17T17:14:51.676Z</time>
      </trkpt>
      <trkpt lat="39.00101167" lon="1.34771167">
        <ele>54.0</ele>
        <time>2020-08-17T17:14:52.669Z</time>
      </trkpt>
      <trkpt lat="39.00096833" lon="1.34768833">
        <ele>54.0</ele>
        <time>2020-08-17T17:14:53.671Z</time>
      </trkpt>
      <trkpt lat="39.00096833" lon="1.34768833">
        <ele>54.0</ele>
        <time>2020-08-17T17:14:54.697Z</time>
      </trkpt>
      <trkpt lat="39.00088" lon="1.34765167">
        <ele>54.0</ele>
        <time>2020-08-17T17:14:55.676Z</time>
      </trkpt>
      <trkpt lat="39.00083667" lon="1.34763333">
        <ele>54.0</ele>
        <time>2020-08-17T17:14:56.669Z</time>
      </trkpt>
      <trkpt lat="39.00083667" lon="1.34763333">
        <ele>54.0</ele>
        <time>2020-08-17T17:14:57.668Z</time>
      </trkpt>
      <trkpt lat="39.00074833" lon="1.347605">
        <ele>54.0</ele>
        <time>2020-08-17T17:14:58.686Z</time>
      </trkpt>
      <trkpt lat="39.000705" lon="1.34759333">
        <ele>54.0</ele>
        <time>2020-08-17T17:14:59.667Z</time>
      </trkpt>
      <trkpt lat="39.000705" lon="1.34759333">
        <ele>54.0</ele>
        <time>2020-08-17T17:15:00.692Z</time>
      </trkpt>
      <trkpt lat="39.000615" lon="1.34757667">
        <ele>55.0</ele>
        <time>2020-08-17T17:15:01.673Z</time>
      </trkpt>
      <trkpt lat="39.000615" lon="1.34757667">
        <ele>55.0</ele>
        <time>2020-08-17T17:15:02.701Z</time>
      </trkpt>
      <trkpt lat="39.00054333" lon="1.347555">
        <ele>55.0</ele>
        <time>2020-08-17T17:15:03.680Z</time>
      </trkpt>
      <trkpt lat="39.00054333" lon="1.347555">
        <ele>55.0</ele>
        <time>2020-08-17T17:15:04.667Z</time>
      </trkpt>
      <trkpt lat="39.00052167" lon="1.34754667">
        <ele>55.0</ele>
        <time>2020-08-17T17:15:05.696Z</time>
      </trkpt>
      <trkpt lat="39.00052167" lon="1.34754667">
        <ele>55.0</ele>
        <time>2020-08-17T17:20:32.728Z</time>
      </trkpt>
      <trkpt lat="39.00052167" lon="1.34754667">
        <ele>55.0</ele>
        <time>2020-08-17T17:20:33.712Z</time>
      </trkpt>
      <trkpt lat="39.00044833" lon="1.34755833">
        <ele>48.0</ele>
        <time>2020-08-17T17:20:34.710Z</time>
      </trkpt>
      <trkpt lat="39.00041" lon="1.34755333">
        <ele>48.0</ele>
        <time>2020-08-17T17:20:35.711Z</time>
      </trkpt>
      <trkpt lat="39.00041" lon="1.34755333">
        <ele>48.0</ele>
        <time>2020-08-17T17:20:36.749Z</time>
      </trkpt>
      <trkpt lat="39.00031" lon="1.34753833">
        <ele>48.0</ele>
        <time>2020-08-17T17:20:37.730Z</time>
      </trkpt>
      <trkpt lat="39.00031" lon="1.34753833">
        <ele>48.0</ele>
        <time>2020-08-17T17:20:38.710Z</time>
      </trkpt>
      <trkpt lat="39.00018833" lon="1.34751667">
        <ele>48.0</ele>
        <time>2020-08-17T17:20:39.736Z</time>
      </trkpt>
      <trkpt lat="39.00012667" lon="1.34750667">
        <ele>48.0</ele>
        <time>2020-08-17T17:20:40.740Z</time>
      </trkpt>
      <trkpt lat="39.000065" lon="1.347495">
        <ele>48.0</ele>
        <time>2020-08-17T17:20:41.722Z</time>
      </trkpt>
      <trkpt lat="39.000065" lon="1.347495">
        <ele>48.0</ele>
        <time>2020-08-17T17:20:42.710Z</time>
      </trkpt>
      <trkpt lat="38.99993667" lon="1.34746833">
        <ele>47.0</ele>
        <time>2020-08-17T17:20:43.712Z</time>
      </trkpt>
      <trkpt lat="38.99987333" lon="1.34745667">
        <ele>47.0</ele>
        <time>2020-08-17T17:20:44.712Z</time>
      </trkpt>
      <trkpt lat="38.99987333" lon="1.34745667">
        <ele>47.0</ele>
        <time>2020-08-17T17:20:45.710Z</time>
      </trkpt>
      <trkpt lat="38.99975667" lon="1.347405">
        <ele>46.0</ele>
        <time>2020-08-17T17:20:46.713Z</time>
      </trkpt>
      <trkpt lat="38.99975667" lon="1.347405">
        <ele>46.0</ele>
        <time>2020-08-17T17:20:47.710Z</time>
      </trkpt>
      <trkpt lat="38.99966333" lon="1.34729667">
        <ele>46.0</ele>
        <time>2020-08-17T17:20:48.742Z</time>
      </trkpt>
      <trkpt lat="38.99961833" lon="1.34723667">
        <ele>46.0</ele>
        <time>2020-08-17T17:20:49.722Z</time>
      </trkpt>
      <trkpt lat="38.99961833" lon="1.34723667">
        <ele>46.0</ele>
        <time>2020-08-17T17:20:50.710Z</time>
      </trkpt>
      <trkpt lat="38.99952833" lon="1.34711167">
        <ele>46.0</ele>
        <time>2020-08-17T17:20:51.712Z</time>
      </trkpt>
      <trkpt lat="38.99952833" lon="1.34711167">
        <ele>46.0</ele>
        <time>2020-08-17T17:20:52.741Z</time>
      </trkpt>
      <trkpt lat="38.99943333" lon="1.34698667">
        <ele>46.0</ele>
        <time>2020-08-17T17:20:53.721Z</time>
      </trkpt>
      <trkpt lat="38.99943333" lon="1.34698667">
        <ele>46.0</ele>
        <time>2020-08-17T17:20:54.745Z</time>
      </trkpt>
      <trkpt lat="38.999335" lon="1.34686167">
        <ele>45.0</ele>
        <time>2020-08-17T17:20:55.724Z</time>
      </trkpt>
      <trkpt lat="38.999335" lon="1.34686167">
        <ele>45.0</ele>
        <time>2020-08-17T17:20:56.749Z</time>
      </trkpt>
      <trkpt lat="38.99922167" lon="1.34675">
        <ele>45.0</ele>
        <time>2020-08-17T17:20:57.728Z</time>
      </trkpt>
      <trkpt lat="38.99922167" lon="1.34675">
        <ele>45.0</ele>
        <time>2020-08-17T17:20:58.710Z</time>
      </trkpt>
      <trkpt lat="38.99909833" lon="1.34664333">
        <ele>45.0</ele>
        <time>2020-08-17T17:20:59.713Z</time>
      </trkpt>
      <trkpt lat="38.99909833" lon="1.34664333">
        <ele>45.0</ele>
        <time>2020-08-17T17:21:00.749Z</time>
      </trkpt>
      <trkpt lat="38.99897167" lon="1.34654">
        <ele>44.0</ele>
        <time>2020-08-17T17:21:01.727Z</time>
      </trkpt>
      <trkpt lat="38.99890667" lon="1.34649">
        <ele>44.0</ele>
        <time>2020-08-17T17:21:02.711Z</time>
      </trkpt>
      <trkpt lat="38.99890667" lon="1.34649">
        <ele>44.0</ele>
        <time>2020-08-17T17:21:03.744Z</time>
      </trkpt>
      <trkpt lat="38.99877333" lon="1.34639333">
        <ele>44.0</ele>
        <time>2020-08-17T17:21:04.723Z</time>
      </trkpt>
      <trkpt lat="38.99870333" lon="1.34634333">
        <ele>43.0</ele>
        <time>2020-08-17T17:21:05.710Z</time>
      </trkpt>
      <trkpt lat="38.99870333" lon="1.34634333">
        <ele>43.0</ele>
        <time>2020-08-17T17:21:06.710Z</time>
      </trkpt>
      <trkpt lat="38.99856333" lon="1.34624333">
        <ele>42.0</ele>
        <time>2020-08-17T17:21:07.714Z</time>
      </trkpt>
      <trkpt lat="38.99856333" lon="1.34624333">
        <ele>42.0</ele>
        <time>2020-08-17T17:21:08.741Z</time>
      </trkpt>
      <trkpt lat="38.99841667" lon="1.346155">
        <ele>41.0</ele>
        <time>2020-08-17T17:21:09.717Z</time>
      </trkpt>
      <trkpt lat="38.99834" lon="1.34611667">
        <ele>41.0</ele>
        <time>2020-08-17T17:21:10.712Z</time>
      </trkpt>
      <trkpt lat="38.99834" lon="1.34611667">
        <ele>41.0</ele>
        <time>2020-08-17T17:21:11.710Z</time>
      </trkpt>
      <trkpt lat="38.99818167" lon="1.34604833">
        <ele>41.0</ele>
        <time>2020-08-17T17:21:12.710Z</time>
      </trkpt>
      <trkpt lat="38.99818167" lon="1.34604833">
        <ele>41.0</ele>
        <time>2020-08-17T17:21:13.740Z</time>
      </trkpt>
      <trkpt lat="38.998015" lon="1.346005">
        <ele>41.0</ele>
        <time>2020-08-17T17:21:14.720Z</time>
      </trkpt>
      <trkpt lat="38.99793167" lon="1.345995">
        <ele>41.0</ele>
        <time>2020-08-17T17:21:15.710Z</time>
      </trkpt>
      <trkpt lat="38.997845" lon="1.34599">
        <ele>40.0</ele>
        <time>2020-08-17T17:21:16.713Z</time>
      </trkpt>
      <trkpt lat="38.997845" lon="1.34599">
        <ele>40.0</ele>
        <time>2020-08-17T17:21:17.749Z</time>
      </trkpt>
      <trkpt lat="38.99767333" lon="1.34598333">
        <ele>40.0</ele>
        <time>2020-08-17T17:21:18.735Z</time>
      </trkpt>
      <trkpt lat="38.99767333" lon="1.34598333">
        <ele>40.0</ele>
        <time>2020-08-17T17:21:19.715Z</time>
      </trkpt>
      <trkpt lat="38.99750333" lon="1.34598833">
        <ele>40.0</ele>
        <time>2020-08-17T17:21:20.712Z</time>
      </trkpt>
      <trkpt lat="38.99750333" lon="1.34598833">
        <ele>40.0</ele>
        <time>2020-08-17T17:21:21.727Z</time>
      </trkpt>
      <trkpt lat="38.997335" lon="1.34599167">
        <ele>39.0</ele>
        <time>2020-08-17T17:21:22.749Z</time>
      </trkpt>
      <trkpt lat="38.99725" lon="1.34599167">
        <ele>39.0</ele>
        <time>2020-08-17T17:21:23.735Z</time>
      </trkpt>
      <trkpt lat="38.99725" lon="1.34599167">
        <ele>39.0</ele>
        <time>2020-08-17T17:21:24.715Z</time>
      </trkpt>
      <trkpt lat="38.99708" lon="1.34599">
        <ele>39.0</ele>
        <time>2020-08-17T17:21:25.710Z</time>
      </trkpt>
      <trkpt lat="38.99699333" lon="1.345995">
        <ele>38.0</ele>
        <time>2020-08-17T17:21:26.729Z</time>
      </trkpt>
      <trkpt lat="38.99699333" lon="1.345995">
        <ele>38.0</ele>
        <time>2020-08-17T17:21:27.713Z</time>
      </trkpt>
      <trkpt lat="38.99682167" lon="1.34600667">
        <ele>38.0</ele>
        <time>2020-08-17T17:21:28.712Z</time>
      </trkpt>
      <trkpt lat="38.996735" lon="1.34600667">
        <ele>38.0</ele>
        <time>2020-08-17T17:21:29.710Z</time>
      </trkpt>
      <trkpt lat="38.996735" lon="1.34600667">
        <ele>38.0</ele>
        <time>2020-08-17T17:21:30.710Z</time>
      </trkpt>
      <trkpt lat="38.996565" lon="1.34599833">
        <ele>37.0</ele>
        <time>2020-08-17T17:21:31.712Z</time>
      </trkpt>
      <trkpt lat="38.99648" lon="1.345995">
        <ele>37.0</ele>
        <time>2020-08-17T17:21:32.713Z</time>
      </trkpt>
      <trkpt lat="38.99648" lon="1.345995">
        <ele>37.0</ele>
        <time>2020-08-17T17:21:33.710Z</time>
      </trkpt>
      <trkpt lat="38.99631333" lon="1.34598833">
        <ele>37.0</ele>
        <time>2020-08-17T17:21:34.713Z</time>
      </trkpt>
      <trkpt lat="38.99631333" lon="1.34598833">
        <ele>37.0</ele>
        <time>2020-08-17T17:21:35.749Z</time>
      </trkpt>
      <trkpt lat="38.99614833" lon="1.34598667">
        <ele>37.0</ele>
        <time>2020-08-17T17:21:36.729Z</time>
      </trkpt>
      <trkpt lat="38.99606833" lon="1.345985">
        <ele>37.0</ele>
        <time>2020-08-17T17:21:37.717Z</time>
      </trkpt>
      <trkpt lat="38.99606833" lon="1.345985">
        <ele>37.0</ele>
        <time>2020-08-17T17:21:38.711Z</time>
      </trkpt>
      <trkpt lat="38.99590333" lon="1.345985">
        <ele>37.0</ele>
        <time>2020-08-17T17:21:39.712Z</time>
      </trkpt>
      <trkpt lat="38.99590333" lon="1.345985">
        <ele>37.0</ele>
        <time>2020-08-17T17:21:40.744Z</time>
      </trkpt>
      <trkpt lat="38.99574167" lon="1.346005">
        <ele>36.0</ele>
        <time>2020-08-17T17:21:41.728Z</time>
      </trkpt>
      <trkpt lat="38.99574167" lon="1.346005">
        <ele>36.0</ele>
        <time>2020-08-17T17:21:42.710Z</time>
      </trkpt>
      <trkpt lat="38.99558" lon="1.34603333">
        <ele>36.0</ele>
        <time>2020-08-17T17:21:43.715Z</time>
      </trkpt>
      <trkpt lat="38.99558" lon="1.34603333">
        <ele>36.0</ele>
        <time>2020-08-17T17:21:44.750Z</time>
      </trkpt>
      <trkpt lat="38.99541833" lon="1.34604667">
        <ele>36.0</ele>
        <time>2020-08-17T17:21:45.728Z</time>
      </trkpt>
      <trkpt lat="38.99541833" lon="1.34604667">
        <ele>36.0</ele>
        <time>2020-08-17T17:21:46.711Z</time>
      </trkpt>
      <trkpt lat="38.99525333" lon="1.34604333">
        <ele>35.0</ele>
        <time>2020-08-17T17:21:47.714Z</time>
      </trkpt>
      <trkpt lat="38.99525333" lon="1.34604333">
        <ele>35.0</ele>
        <time>2020-08-17T17:21:48.749Z</time>
      </trkpt>
      <trkpt lat="38.99508333" lon="1.34604">
        <ele>34.0</ele>
        <time>2020-08-17T17:21:49.729Z</time>
      </trkpt>
      <trkpt lat="38.99508333" lon="1.34604">
        <ele>34.0</ele>
        <time>2020-08-17T17:21:50.710Z</time>
      </trkpt>
      <trkpt lat="38.99491333" lon="1.34603833">
        <ele>34.0</ele>
        <time>2020-08-17T17:21:51.743Z</time>
      </trkpt>
      <trkpt lat="38.99482667" lon="1.34604">
        <ele>34.0</ele>
        <time>2020-08-17T17:21:52.731Z</time>
      </trkpt>
      <trkpt lat="38.99482667" lon="1.34604">
        <ele>34.0</ele>
        <time>2020-08-17T17:21:53.710Z</time>
      </trkpt>
      <trkpt lat="38.99465667" lon="1.34603">
        <ele>33.0</ele>
        <time>2020-08-17T17:21:54.711Z</time>
      </trkpt>
      <trkpt lat="38.99465667" lon="1.34603">
        <ele>33.0</ele>
        <time>2020-08-17T17:21:55.739Z</time>
      </trkpt>
      <trkpt lat="38.994485" lon="1.34603">
        <ele>33.0</ele>
        <time>2020-08-17T17:21:56.720Z</time>
      </trkpt>
      <trkpt lat="38.994485" lon="1.34603">
        <ele>33.0</ele>
        <time>2020-08-17T17:21:57.746Z</time>
      </trkpt>
      <trkpt lat="38.994315" lon="1.346065">
        <ele>33.0</ele>
        <time>2020-08-17T17:21:58.713Z</time>
      </trkpt>
      <trkpt lat="38.99423167" lon="1.34609333">
        <ele>33.0</ele>
        <time>2020-08-17T17:21:59.719Z</time>
      </trkpt>
      <trkpt lat="38.99423167" lon="1.34609333">
        <ele>33.0</ele>
        <time>2020-08-17T17:22:00.726Z</time>
      </trkpt>
      <trkpt lat="38.99407167" lon="1.34617167">
        <ele>33.0</ele>
        <time>2020-08-17T17:22:01.732Z</time>
      </trkpt>
      <trkpt lat="38.99399333" lon="1.34621">
        <ele>33.0</ele>
        <time>2020-08-17T17:22:02.712Z</time>
      </trkpt>
      <trkpt lat="38.99399333" lon="1.34621">
        <ele>33.0</ele>
        <time>2020-08-17T17:22:03.713Z</time>
      </trkpt>
      <trkpt lat="38.99383667" lon="1.346285">
        <ele>33.0</ele>
        <time>2020-08-17T17:22:04.712Z</time>
      </trkpt>
      <trkpt lat="38.99376" lon="1.346325">
        <ele>32.0</ele>
        <time>2020-08-17T17:22:05.712Z</time>
      </trkpt>
      <trkpt lat="38.99376" lon="1.346325">
        <ele>32.0</ele>
        <time>2020-08-17T17:22:06.745Z</time>
      </trkpt>
      <trkpt lat="38.993605" lon="1.34640667">
        <ele>32.0</ele>
        <time>2020-08-17T17:22:07.720Z</time>
      </trkpt>
      <trkpt lat="38.993605" lon="1.34640667">
        <ele>32.0</ele>
        <time>2020-08-17T17:22:08.742Z</time>
      </trkpt>
      <trkpt lat="38.99345167" lon="1.34649167">
        <ele>31.0</ele>
        <time>2020-08-17T17:22:09.728Z</time>
      </trkpt>
      <trkpt lat="38.99345167" lon="1.34649167">
        <ele>31.0</ele>
        <time>2020-08-17T17:22:10.711Z</time>
      </trkpt>
      <trkpt lat="38.99329333" lon="1.34657167">
        <ele>30.0</ele>
        <time>2020-08-17T17:22:11.711Z</time>
      </trkpt>
      <trkpt lat="38.99329333" lon="1.34657167">
        <ele>30.0</ele>
        <time>2020-08-17T17:22:12.741Z</time>
      </trkpt>
      <trkpt lat="38.99312" lon="1.34664333">
        <ele>29.0</ele>
        <time>2020-08-17T17:22:13.721Z</time>
      </trkpt>
      <trkpt lat="38.99312" lon="1.34664333">
        <ele>29.0</ele>
        <time>2020-08-17T17:22:14.745Z</time>
      </trkpt>
      <trkpt lat="38.99292167" lon="1.34667167">
        <ele>27.0</ele>
        <time>2020-08-17T17:22:15.725Z</time>
      </trkpt>
      <trkpt lat="38.99281667" lon="1.34667167">
        <ele>26.0</ele>
        <time>2020-08-17T17:22:16.721Z</time>
      </trkpt>
      <trkpt lat="38.99271167" lon="1.34666667">
        <ele>26.0</ele>
        <time>2020-08-17T17:22:17.714Z</time>
      </trkpt>
      <trkpt lat="38.99271167" lon="1.34666667">
        <ele>26.0</ele>
        <time>2020-08-17T17:22:18.711Z</time>
      </trkpt>
      <trkpt lat="38.99250333" lon="1.346615">
        <ele>25.0</ele>
        <time>2020-08-17T17:22:19.713Z</time>
      </trkpt>
      <trkpt lat="38.99250333" lon="1.346615">
        <ele>25.0</ele>
        <time>2020-08-17T17:22:20.710Z</time>
      </trkpt>
      <trkpt lat="38.99232167" lon="1.34653167">
        <ele>24.0</ele>
        <time>2020-08-17T17:22:21.710Z</time>
      </trkpt>
      <trkpt lat="38.99232167" lon="1.34653167">
        <ele>24.0</ele>
        <time>2020-08-17T17:22:22.729Z</time>
      </trkpt>
      <trkpt lat="38.99215833" lon="1.34645333">
        <ele>23.0</ele>
        <time>2020-08-17T17:22:23.714Z</time>
      </trkpt>
      <trkpt lat="38.99215833" lon="1.34645333">
        <ele>23.0</ele>
        <time>2020-08-17T17:22:24.750Z</time>
      </trkpt>
      <trkpt lat="38.99202" lon="1.34637333">
        <ele>23.0</ele>
        <time>2020-08-17T17:22:25.729Z</time>
      </trkpt>
      <trkpt lat="38.99202" lon="1.34637333">
        <ele>23.0</ele>
        <time>2020-08-17T17:22:26.712Z</time>
      </trkpt>
      <trkpt lat="38.991905" lon="1.34628">
        <ele>23.0</ele>
        <time>2020-08-17T17:22:27.712Z</time>
      </trkpt>
      <trkpt lat="38.991905" lon="1.34628">
        <ele>23.0</ele>
        <time>2020-08-17T17:22:28.711Z</time>
      </trkpt>
      <trkpt lat="38.99181667" lon="1.34615833">
        <ele>23.0</ele>
        <time>2020-08-17T17:22:29.713Z</time>
      </trkpt>
      <trkpt lat="38.99181667" lon="1.34615833">
        <ele>23.0</ele>
        <time>2020-08-17T17:22:30.745Z</time>
      </trkpt>
      <trkpt lat="38.99174333" lon="1.34603833">
        <ele>23.0</ele>
        <time>2020-08-17T17:22:31.727Z</time>
      </trkpt>
      <trkpt lat="38.99174333" lon="1.34603833">
        <ele>23.0</ele>
        <time>2020-08-17T17:22:32.712Z</time>
      </trkpt>
      <trkpt lat="38.99166667" lon="1.34591667">
        <ele>24.0</ele>
        <time>2020-08-17T17:22:33.712Z</time>
      </trkpt>
      <trkpt lat="38.99166667" lon="1.34591667">
        <ele>24.0</ele>
        <time>2020-08-17T17:22:34.743Z</time>
      </trkpt>
      <trkpt lat="38.99158833" lon="1.345795">
        <ele>25.0</ele>
        <time>2020-08-17T17:22:35.723Z</time>
      </trkpt>
      <trkpt lat="38.99158833" lon="1.345795">
        <ele>25.0</ele>
        <time>2020-08-17T17:22:36.749Z</time>
      </trkpt>
      <trkpt lat="38.99151667" lon="1.34567167">
        <ele>24.0</ele>
        <time>2020-08-17T17:22:37.728Z</time>
      </trkpt>
      <trkpt lat="38.99151667" lon="1.34567167">
        <ele>24.0</ele>
        <time>2020-08-17T17:22:38.710Z</time>
      </trkpt>
      <trkpt lat="38.991435" lon="1.34553833">
        <ele>25.0</ele>
        <time>2020-08-17T17:22:39.729Z</time>
      </trkpt>
      <trkpt lat="38.99139833" lon="1.34546667">
        <ele>25.0</ele>
        <time>2020-08-17T17:22:40.719Z</time>
      </trkpt>
      <trkpt lat="38.99139833" lon="1.34546667">
        <ele>25.0</ele>
        <time>2020-08-17T17:22:41.721Z</time>
      </trkpt>
      <trkpt lat="38.99133333" lon="1.345315">
        <ele>25.0</ele>
        <time>2020-08-17T17:22:42.712Z</time>
      </trkpt>
      <trkpt lat="38.99133333" lon="1.345315">
        <ele>25.0</ele>
        <time>2020-08-17T17:22:43.744Z</time>
      </trkpt>
      <trkpt lat="38.99126833" lon="1.34515833">
        <ele>25.0</ele>
        <time>2020-08-17T17:22:44.726Z</time>
      </trkpt>
      <trkpt lat="38.99126833" lon="1.34515833">
        <ele>25.0</ele>
        <time>2020-08-17T17:22:45.710Z</time>
      </trkpt>
      <trkpt lat="38.9912" lon="1.34499333">
        <ele>24.0</ele>
        <time>2020-08-17T17:22:46.711Z</time>
      </trkpt>
      <trkpt lat="38.9912" lon="1.34499333">
        <ele>24.0</ele>
        <time>2020-08-17T17:22:47.710Z</time>
      </trkpt>
      <trkpt lat="38.99114167" lon="1.34481833">
        <ele>24.0</ele>
        <time>2020-08-17T17:22:48.736Z</time>
      </trkpt>
      <trkpt lat="38.99112" lon="1.344725">
        <ele>24.0</ele>
        <time>2020-08-17T17:22:49.717Z</time>
      </trkpt>
      <trkpt lat="38.99112" lon="1.344725">
        <ele>24.0</ele>
        <time>2020-08-17T17:22:50.711Z</time>
      </trkpt>
      <trkpt lat="38.99105833" lon="1.34454167">
        <ele>24.0</ele>
        <time>2020-08-17T17:22:51.713Z</time>
      </trkpt>
      <trkpt lat="38.99105833" lon="1.34454167">
        <ele>24.0</ele>
        <time>2020-08-17T17:22:52.729Z</time>
      </trkpt>
      <trkpt lat="38.99097167" lon="1.34435333">
        <ele>24.0</ele>
        <time>2020-08-17T17:22:53.715Z</time>
      </trkpt>
      <trkpt lat="38.99097167" lon="1.34435333">
        <ele>24.0</ele>
        <time>2020-08-17T17:22:54.728Z</time>
      </trkpt>
      <trkpt lat="38.990875" lon="1.34416">
        <ele>23.0</ele>
        <time>2020-08-17T17:22:55.715Z</time>
      </trkpt>
      <trkpt lat="38.990875" lon="1.34416">
        <ele>23.0</ele>
        <time>2020-08-17T17:22:56.750Z</time>
      </trkpt>
      <trkpt lat="38.99075833" lon="1.34397667">
        <ele>22.0</ele>
        <time>2020-08-17T17:22:57.736Z</time>
      </trkpt>
      <trkpt lat="38.99070167" lon="1.34388167">
        <ele>22.0</ele>
        <time>2020-08-17T17:22:58.718Z</time>
      </trkpt>
      <trkpt lat="38.99070167" lon="1.34388167">
        <ele>22.0</ele>
        <time>2020-08-17T17:22:59.711Z</time>
      </trkpt>
      <trkpt lat="38.99058833" lon="1.343695">
        <ele>22.0</ele>
        <time>2020-08-17T17:23:00.714Z</time>
      </trkpt>
      <trkpt lat="38.99053" lon="1.3436">
        <ele>21.0</ele>
        <time>2020-08-17T17:23:01.714Z</time>
      </trkpt>
      <trkpt lat="38.99053" lon="1.3436">
        <ele>21.0</ele>
        <time>2020-08-17T17:23:02.749Z</time>
      </trkpt>
      <trkpt lat="38.99041667" lon="1.34341667">
        <ele>21.0</ele>
        <time>2020-08-17T17:23:03.728Z</time>
      </trkpt>
      <trkpt lat="38.99041667" lon="1.34341667">
        <ele>21.0</ele>
        <time>2020-08-17T17:23:04.711Z</time>
      </trkpt>
      <trkpt lat="38.99030833" lon="1.34324">
        <ele>21.0</ele>
        <time>2020-08-17T17:23:05.730Z</time>
      </trkpt>
      <trkpt lat="38.99030833" lon="1.34324">
        <ele>21.0</ele>
        <time>2020-08-17T17:23:06.711Z</time>
      </trkpt>
      <trkpt lat="38.99020333" lon="1.34306833">
        <ele>21.0</ele>
        <time>2020-08-17T17:23:07.718Z</time>
      </trkpt>
      <trkpt lat="38.99020333" lon="1.34306833">
        <ele>21.0</ele>
        <time>2020-08-17T17:23:08.711Z</time>
      </trkpt>
      <trkpt lat="38.99011" lon="1.34289167">
        <ele>20.0</ele>
        <time>2020-08-17T17:23:09.744Z</time>
      </trkpt>
      <trkpt lat="38.99006833" lon="1.3428">
        <ele>20.0</ele>
        <time>2020-08-17T17:23:10.723Z</time>
      </trkpt>
      <trkpt lat="38.99002833" lon="1.34270833">
        <ele>20.0</ele>
        <time>2020-08-17T17:23:11.722Z</time>
      </trkpt>
      <trkpt lat="38.99002833" lon="1.34270833">
        <ele>20.0</ele>
        <time>2020-08-17T17:23:12.745Z</time>
      </trkpt>
      <trkpt lat="38.98995167" lon="1.34252167">
        <ele>20.0</ele>
        <time>2020-08-17T17:23:13.725Z</time>
      </trkpt>
      <trkpt lat="38.98995167" lon="1.34252167">
        <ele>20.0</ele>
        <time>2020-08-17T17:23:14.724Z</time>
      </trkpt>
      <trkpt lat="38.98987667" lon="1.34233667">
        <ele>19.0</ele>
        <time>2020-08-17T17:23:15.713Z</time>
      </trkpt>
      <trkpt lat="38.98987667" lon="1.34233667">
        <ele>19.0</ele>
        <time>2020-08-17T17:23:16.710Z</time>
      </trkpt>
      <trkpt lat="38.98980167" lon="1.342155">
        <ele>19.0</ele>
        <time>2020-08-17T17:23:17.730Z</time>
      </trkpt>
      <trkpt lat="38.98980167" lon="1.342155">
        <ele>19.0</ele>
        <time>2020-08-17T17:23:18.710Z</time>
      </trkpt>
      <trkpt lat="38.98972667" lon="1.34198">
        <ele>19.0</ele>
        <time>2020-08-17T17:23:19.743Z</time>
      </trkpt>
      <trkpt lat="38.98968833" lon="1.341895">
        <ele>19.0</ele>
        <time>2020-08-17T17:23:20.727Z</time>
      </trkpt>
      <trkpt lat="38.98968833" lon="1.341895">
        <ele>19.0</ele>
        <time>2020-08-17T17:23:21.710Z</time>
      </trkpt>
      <trkpt lat="38.98960667" lon="1.341725">
        <ele>18.0</ele>
        <time>2020-08-17T17:23:22.711Z</time>
      </trkpt>
      <trkpt lat="38.98956833" lon="1.34163833">
        <ele>18.0</ele>
        <time>2020-08-17T17:23:23.730Z</time>
      </trkpt>
      <trkpt lat="38.98956833" lon="1.34163833">
        <ele>18.0</ele>
        <time>2020-08-17T17:23:24.710Z</time>
      </trkpt>
      <trkpt lat="38.989515" lon="1.34145167">
        <ele>18.0</ele>
        <time>2020-08-17T17:23:25.717Z</time>
      </trkpt>
      <trkpt lat="38.989515" lon="1.34145167">
        <ele>18.0</ele>
        <time>2020-08-17T17:23:26.746Z</time>
      </trkpt>
      <trkpt lat="38.98948667" lon="1.34125833">
        <ele>18.0</ele>
        <time>2020-08-17T17:23:27.725Z</time>
      </trkpt>
      <trkpt lat="38.98948667" lon="1.34125833">
        <ele>18.0</ele>
        <time>2020-08-17T17:23:28.745Z</time>
      </trkpt>
      <trkpt lat="38.98945833" lon="1.34107">
        <ele>18.0</ele>
        <time>2020-08-17T17:23:29.724Z</time>
      </trkpt>
      <trkpt lat="38.98945833" lon="1.34107">
        <ele>18.0</ele>
        <time>2020-08-17T17:23:30.711Z</time>
      </trkpt>
      <trkpt lat="38.989435" lon="1.340885">
        <ele>18.0</ele>
        <time>2020-08-17T17:23:31.711Z</time>
      </trkpt>
      <trkpt lat="38.989435" lon="1.340885">
        <ele>18.0</ele>
        <time>2020-08-17T17:23:32.750Z</time>
      </trkpt>
      <trkpt lat="38.98941333" lon="1.340705">
        <ele>18.0</ele>
        <time>2020-08-17T17:23:33.728Z</time>
      </trkpt>
      <trkpt lat="38.98941333" lon="1.340705">
        <ele>18.0</ele>
        <time>2020-08-17T17:23:34.710Z</time>
      </trkpt>
      <trkpt lat="38.98939167" lon="1.34052833">
        <ele>18.0</ele>
        <time>2020-08-17T17:23:35.730Z</time>
      </trkpt>
      <trkpt lat="38.98939167" lon="1.34052833">
        <ele>18.0</ele>
        <time>2020-08-17T17:23:36.710Z</time>
      </trkpt>
      <trkpt lat="38.98936833" lon="1.34035667">
        <ele>18.0</ele>
        <time>2020-08-17T17:23:37.729Z</time>
      </trkpt>
      <trkpt lat="38.98935833" lon="1.34027">
        <ele>18.0</ele>
        <time>2020-08-17T17:23:38.715Z</time>
      </trkpt>
      <trkpt lat="38.98935833" lon="1.34027">
        <ele>18.0</ele>
        <time>2020-08-17T17:23:39.711Z</time>
      </trkpt>
      <trkpt lat="38.98933833" lon="1.34009833">
        <ele>18.0</ele>
        <time>2020-08-17T17:23:40.736Z</time>
      </trkpt>
      <trkpt lat="38.98933833" lon="1.34009833">
        <ele>18.0</ele>
        <time>2020-08-17T17:23:41.710Z</time>
      </trkpt>
      <trkpt lat="38.98931833" lon="1.33993">
        <ele>18.0</ele>
        <time>2020-08-17T17:23:42.729Z</time>
      </trkpt>
      <trkpt lat="38.98930667" lon="1.339845">
        <ele>18.0</ele>
        <time>2020-08-17T17:23:43.718Z</time>
      </trkpt>
      <trkpt lat="38.98930667" lon="1.339845">
        <ele>18.0</ele>
        <time>2020-08-17T17:23:44.745Z</time>
      </trkpt>
      <trkpt lat="38.989275" lon="1.33968167">
        <ele>18.0</ele>
        <time>2020-08-17T17:23:45.725Z</time>
      </trkpt>
      <trkpt lat="38.989275" lon="1.33968167">
        <ele>18.0</ele>
        <time>2020-08-17T17:23:46.745Z</time>
      </trkpt>
      <trkpt lat="38.989225" lon="1.33952333">
        <ele>18.0</ele>
        <time>2020-08-17T17:23:47.726Z</time>
      </trkpt>
      <trkpt lat="38.989225" lon="1.33952333">
        <ele>18.0</ele>
        <time>2020-08-17T17:23:48.749Z</time>
      </trkpt>
      <trkpt lat="38.98916167" lon="1.33937167">
        <ele>18.0</ele>
        <time>2020-08-17T17:23:49.729Z</time>
      </trkpt>
      <trkpt lat="38.98916167" lon="1.33937167">
        <ele>18.0</ele>
        <time>2020-08-17T17:23:50.711Z</time>
      </trkpt>
      <trkpt lat="38.98908833" lon="1.339225">
        <ele>18.0</ele>
        <time>2020-08-17T17:23:51.711Z</time>
      </trkpt>
      <trkpt lat="38.98908833" lon="1.339225">
        <ele>18.0</ele>
        <time>2020-08-17T17:23:52.711Z</time>
      </trkpt>
      <trkpt lat="38.989" lon="1.33909167">
        <ele>18.0</ele>
        <time>2020-08-17T17:23:53.713Z</time>
      </trkpt>
      <trkpt lat="38.989" lon="1.33909167">
        <ele>18.0</ele>
        <time>2020-08-17T17:23:54.711Z</time>
      </trkpt>
      <trkpt lat="38.98890833" lon="1.33896667">
        <ele>18.0</ele>
        <time>2020-08-17T17:23:55.743Z</time>
      </trkpt>
      <trkpt lat="38.98886167" lon="1.33890833">
        <ele>18.0</ele>
        <time>2020-08-17T17:23:56.722Z</time>
      </trkpt>
      <trkpt lat="38.98886167" lon="1.33890833">
        <ele>18.0</ele>
        <time>2020-08-17T17:23:57.744Z</time>
      </trkpt>
      <trkpt lat="38.98876667" lon="1.338795">
        <ele>19.0</ele>
        <time>2020-08-17T17:23:58.737Z</time>
      </trkpt>
      <trkpt lat="38.98872167" lon="1.33873833">
        <ele>19.0</ele>
        <time>2020-08-17T17:23:59.721Z</time>
      </trkpt>
      <trkpt lat="38.98872167" lon="1.33873833">
        <ele>19.0</ele>
        <time>2020-08-17T17:24:00.713Z</time>
      </trkpt>
      <trkpt lat="38.98863333" lon="1.33862333">
        <ele>19.0</ele>
        <time>2020-08-17T17:24:01.718Z</time>
      </trkpt>
      <trkpt lat="38.98858667" lon="1.33856833">
        <ele>19.0</ele>
        <time>2020-08-17T17:24:02.745Z</time>
      </trkpt>
      <trkpt lat="38.98858667" lon="1.33856833">
        <ele>19.0</ele>
        <time>2020-08-17T17:24:03.726Z</time>
      </trkpt>
      <trkpt lat="38.9885" lon="1.33844667">
        <ele>19.0</ele>
        <time>2020-08-17T17:24:04.713Z</time>
      </trkpt>
      <trkpt lat="38.98846167" lon="1.33838">
        <ele>19.0</ele>
        <time>2020-08-17T17:24:05.714Z</time>
      </trkpt>
      <trkpt lat="38.98846167" lon="1.33838">
        <ele>19.0</ele>
        <time>2020-08-17T17:24:06.743Z</time>
      </trkpt>
      <trkpt lat="38.988395" lon="1.33823333">
        <ele>18.0</ele>
        <time>2020-08-17T17:24:07.725Z</time>
      </trkpt>
      <trkpt lat="38.988395" lon="1.33823333">
        <ele>18.0</ele>
        <time>2020-08-17T17:24:08.744Z</time>
      </trkpt>
      <trkpt lat="38.98833667" lon="1.33807667">
        <ele>18.0</ele>
        <time>2020-08-17T17:24:09.726Z</time>
      </trkpt>
      <trkpt lat="38.98833667" lon="1.33807667">
        <ele>18.0</ele>
        <time>2020-08-17T17:24:10.749Z</time>
      </trkpt>
      <trkpt lat="38.98828833" lon="1.33791333">
        <ele>18.0</ele>
        <time>2020-08-17T17:24:11.738Z</time>
      </trkpt>
      <trkpt lat="38.98828833" lon="1.33791333">
        <ele>18.0</ele>
        <time>2020-08-17T17:24:12.717Z</time>
      </trkpt>
      <trkpt lat="38.988255" lon="1.33774">
        <ele>18.0</ele>
        <time>2020-08-17T17:24:13.713Z</time>
      </trkpt>
      <trkpt lat="38.988255" lon="1.33774">
        <ele>18.0</ele>
        <time>2020-08-17T17:24:14.745Z</time>
      </trkpt>
      <trkpt lat="38.988225" lon="1.33756333">
        <ele>17.0</ele>
        <time>2020-08-17T17:24:15.725Z</time>
      </trkpt>
      <trkpt lat="38.98821" lon="1.337475">
        <ele>17.0</ele>
        <time>2020-08-17T17:24:16.749Z</time>
      </trkpt>
      <trkpt lat="38.98821" lon="1.337475">
        <ele>17.0</ele>
        <time>2020-08-17T17:24:17.730Z</time>
      </trkpt>
      <trkpt lat="38.98818167" lon="1.33729667">
        <ele>17.0</ele>
        <time>2020-08-17T17:24:18.711Z</time>
      </trkpt>
      <trkpt lat="38.98816667" lon="1.33720833">
        <ele>17.0</ele>
        <time>2020-08-17T17:24:19.718Z</time>
      </trkpt>
      <trkpt lat="38.98816667" lon="1.33720833">
        <ele>17.0</ele>
        <time>2020-08-17T17:24:20.712Z</time>
      </trkpt>
      <trkpt lat="38.98813333" lon="1.33703167">
        <ele>17.0</ele>
        <time>2020-08-17T17:24:21.711Z</time>
      </trkpt>
      <trkpt lat="38.988115" lon="1.33694167">
        <ele>17.0</ele>
        <time>2020-08-17T17:24:22.729Z</time>
      </trkpt>
      <trkpt lat="38.988115" lon="1.33694167">
        <ele>17.0</ele>
        <time>2020-08-17T17:24:23.710Z</time>
      </trkpt>
      <trkpt lat="38.98807833" lon="1.336765">
        <ele>16.0</ele>
        <time>2020-08-17T17:24:24.710Z</time>
      </trkpt>
      <trkpt lat="38.98807833" lon="1.336765">
        <ele>16.0</ele>
        <time>2020-08-17T17:24:25.740Z</time>
      </trkpt>
      <trkpt lat="38.98803333" lon="1.33658833">
        <ele>16.0</ele>
        <time>2020-08-17T17:24:26.720Z</time>
      </trkpt>
      <trkpt lat="38.98801167" lon="1.3365">
        <ele>16.0</ele>
        <time>2020-08-17T17:24:27.711Z</time>
      </trkpt>
      <trkpt lat="38.98801167" lon="1.3365">
        <ele>16.0</ele>
        <time>2020-08-17T17:24:28.746Z</time>
      </trkpt>
      <trkpt lat="38.98796667" lon="1.336325">
        <ele>16.0</ele>
        <time>2020-08-17T17:24:29.726Z</time>
      </trkpt>
      <trkpt lat="38.98796667" lon="1.336325">
        <ele>16.0</ele>
        <time>2020-08-17T17:24:30.747Z</time>
      </trkpt>
      <trkpt lat="38.98792" lon="1.33615">
        <ele>16.0</ele>
        <time>2020-08-17T17:24:31.726Z</time>
      </trkpt>
      <trkpt lat="38.98792" lon="1.33615">
        <ele>16.0</ele>
        <time>2020-08-17T17:24:32.750Z</time>
      </trkpt>
      <trkpt lat="38.98786667" lon="1.33597333">
        <ele>15.0</ele>
        <time>2020-08-17T17:24:33.728Z</time>
      </trkpt>
      <trkpt lat="38.98786667" lon="1.33597333">
        <ele>15.0</ele>
        <time>2020-08-17T17:24:34.710Z</time>
      </trkpt>
      <trkpt lat="38.98779833" lon="1.33578667">
        <ele>15.0</ele>
        <time>2020-08-17T17:24:35.730Z</time>
      </trkpt>
      <trkpt lat="38.98779833" lon="1.33578667">
        <ele>15.0</ele>
        <time>2020-08-17T17:24:36.711Z</time>
      </trkpt>
      <trkpt lat="38.98772333" lon="1.33560833">
        <ele>15.0</ele>
        <time>2020-08-17T17:24:37.716Z</time>
      </trkpt>
      <trkpt lat="38.98772333" lon="1.33560833">
        <ele>15.0</ele>
        <time>2020-08-17T17:24:38.744Z</time>
      </trkpt>
      <trkpt lat="38.98765333" lon="1.33543">
        <ele>15.0</ele>
        <time>2020-08-17T17:24:39.723Z</time>
      </trkpt>
      <trkpt lat="38.98765333" lon="1.33543">
        <ele>15.0</ele>
        <time>2020-08-17T17:24:40.742Z</time>
      </trkpt>
      <trkpt lat="38.98759167" lon="1.33524833">
        <ele>15.0</ele>
        <time>2020-08-17T17:24:41.723Z</time>
      </trkpt>
      <trkpt lat="38.98756333" lon="1.33515833">
        <ele>15.0</ele>
        <time>2020-08-17T17:24:42.713Z</time>
      </trkpt>
      <trkpt lat="38.98756333" lon="1.33515833">
        <ele>15.0</ele>
        <time>2020-08-17T17:24:43.740Z</time>
      </trkpt>
      <trkpt lat="38.98750833" lon="1.33498">
        <ele>15.0</ele>
        <time>2020-08-17T17:24:44.720Z</time>
      </trkpt>
      <trkpt lat="38.98749167" lon="1.33488833">
        <ele>15.0</ele>
        <time>2020-08-17T17:24:45.710Z</time>
      </trkpt>
      <trkpt lat="38.98749167" lon="1.33488833">
        <ele>15.0</ele>
        <time>2020-08-17T17:24:46.730Z</time>
      </trkpt>
      <trkpt lat="38.987485" lon="1.334705">
        <ele>15.0</ele>
        <time>2020-08-17T17:24:47.712Z</time>
      </trkpt>
      <trkpt lat="38.98748667" lon="1.334615">
        <ele>15.0</ele>
        <time>2020-08-17T17:24:48.741Z</time>
      </trkpt>
      <trkpt lat="38.98749" lon="1.33452833">
        <ele>15.0</ele>
        <time>2020-08-17T17:24:49.725Z</time>
      </trkpt>
      <trkpt lat="38.98749" lon="1.33452833">
        <ele>15.0</ele>
        <time>2020-08-17T17:24:50.747Z</time>
      </trkpt>
      <trkpt lat="38.98749833" lon="1.33435333">
        <ele>15.0</ele>
        <time>2020-08-17T17:24:51.727Z</time>
      </trkpt>
      <trkpt lat="38.98750167" lon="1.33426667">
        <ele>15.0</ele>
        <time>2020-08-17T17:24:52.711Z</time>
      </trkpt>
      <trkpt lat="38.987505" lon="1.33417833">
        <ele>15.0</ele>
        <time>2020-08-17T17:24:53.730Z</time>
      </trkpt>
      <trkpt lat="38.987505" lon="1.33417833">
        <ele>15.0</ele>
        <time>2020-08-17T17:24:54.711Z</time>
      </trkpt>
      <trkpt lat="38.98751167" lon="1.33400333">
        <ele>15.0</ele>
        <time>2020-08-17T17:24:55.719Z</time>
      </trkpt>
      <trkpt lat="38.98751167" lon="1.33400333">
        <ele>15.0</ele>
        <time>2020-08-17T17:24:56.712Z</time>
      </trkpt>
      <trkpt lat="38.98751333" lon="1.33382833">
        <ele>15.0</ele>
        <time>2020-08-17T17:24:57.744Z</time>
      </trkpt>
      <trkpt lat="38.98751333" lon="1.33374">
        <ele>15.0</ele>
        <time>2020-08-17T17:24:58.724Z</time>
      </trkpt>
      <trkpt lat="38.98751333" lon="1.33374">
        <ele>15.0</ele>
        <time>2020-08-17T17:24:59.711Z</time>
      </trkpt>
      <trkpt lat="38.98751167" lon="1.33356333">
        <ele>15.0</ele>
        <time>2020-08-17T17:25:00.713Z</time>
      </trkpt>
      <trkpt lat="38.98751667" lon="1.333475">
        <ele>15.0</ele>
        <time>2020-08-17T17:25:01.712Z</time>
      </trkpt>
      <trkpt lat="38.98751667" lon="1.333475">
        <ele>15.0</ele>
        <time>2020-08-17T17:25:02.711Z</time>
      </trkpt>
      <trkpt lat="38.98752833" lon="1.3333">
        <ele>15.0</ele>
        <time>2020-08-17T17:25:03.727Z</time>
      </trkpt>
      <trkpt lat="38.98752833" lon="1.3333">
        <ele>15.0</ele>
        <time>2020-08-17T17:25:04.746Z</time>
      </trkpt>
      <trkpt lat="38.98753" lon="1.33312333">
        <ele>15.0</ele>
        <time>2020-08-17T17:25:05.729Z</time>
      </trkpt>
      <trkpt lat="38.98753" lon="1.33312333">
        <ele>15.0</ele>
        <time>2020-08-17T17:25:06.712Z</time>
      </trkpt>
      <trkpt lat="38.987535" lon="1.33294667">
        <ele>15.0</ele>
        <time>2020-08-17T17:25:07.712Z</time>
      </trkpt>
      <trkpt lat="38.987535" lon="1.33294667">
        <ele>15.0</ele>
        <time>2020-08-17T17:25:08.710Z</time>
      </trkpt>
      <trkpt lat="38.98753667" lon="1.33277">
        <ele>15.0</ele>
        <time>2020-08-17T17:25:09.729Z</time>
      </trkpt>
      <trkpt lat="38.98753667" lon="1.33277">
        <ele>15.0</ele>
        <time>2020-08-17T17:25:10.712Z</time>
      </trkpt>
      <trkpt lat="38.98753833" lon="1.332595">
        <ele>15.0</ele>
        <time>2020-08-17T17:25:11.715Z</time>
      </trkpt>
      <trkpt lat="38.98753833" lon="1.332595">
        <ele>15.0</ele>
        <time>2020-08-17T17:25:12.745Z</time>
      </trkpt>
      <trkpt lat="38.98754833" lon="1.33242">
        <ele>15.0</ele>
        <time>2020-08-17T17:25:13.746Z</time>
      </trkpt>
      <trkpt lat="38.98754833" lon="1.33242">
        <ele>15.0</ele>
        <time>2020-08-17T17:25:14.725Z</time>
      </trkpt>
      <trkpt lat="38.987565" lon="1.33224333">
        <ele>15.0</ele>
        <time>2020-08-17T17:25:15.729Z</time>
      </trkpt>
      <trkpt lat="38.987565" lon="1.33224333">
        <ele>15.0</ele>
        <time>2020-08-17T17:25:16.711Z</time>
      </trkpt>
      <trkpt lat="38.98759167" lon="1.33206667">
        <ele>14.0</ele>
        <time>2020-08-17T17:25:17.711Z</time>
      </trkpt>
      <trkpt lat="38.98759167" lon="1.33206667">
        <ele>14.0</ele>
        <time>2020-08-17T17:25:18.746Z</time>
      </trkpt>
      <trkpt lat="38.987625" lon="1.33189">
        <ele>14.0</ele>
        <time>2020-08-17T17:25:19.726Z</time>
      </trkpt>
      <trkpt lat="38.987625" lon="1.33189">
        <ele>14.0</ele>
        <time>2020-08-17T17:25:20.716Z</time>
      </trkpt>
      <trkpt lat="38.98765833" lon="1.33171167">
        <ele>14.0</ele>
        <time>2020-08-17T17:25:21.715Z</time>
      </trkpt>
      <trkpt lat="38.98765833" lon="1.33171167">
        <ele>14.0</ele>
        <time>2020-08-17T17:25:22.711Z</time>
      </trkpt>
      <trkpt lat="38.98769167" lon="1.331535">
        <ele>14.0</ele>
        <time>2020-08-17T17:25:23.736Z</time>
      </trkpt>
      <trkpt lat="38.98771" lon="1.331445">
        <ele>14.0</ele>
        <time>2020-08-17T17:25:24.719Z</time>
      </trkpt>
      <trkpt lat="38.98772667" lon="1.33135667">
        <ele>14.0</ele>
        <time>2020-08-17T17:25:25.747Z</time>
      </trkpt>
      <trkpt lat="38.98772667" lon="1.33135667">
        <ele>14.0</ele>
        <time>2020-08-17T17:25:26.727Z</time>
      </trkpt>
      <trkpt lat="38.98775667" lon="1.33118">
        <ele>13.0</ele>
        <time>2020-08-17T17:25:27.712Z</time>
      </trkpt>
      <trkpt lat="38.98775667" lon="1.33118">
        <ele>13.0</ele>
        <time>2020-08-17T17:25:28.749Z</time>
      </trkpt>
      <trkpt lat="38.98777833" lon="1.33100167">
        <ele>13.0</ele>
        <time>2020-08-17T17:25:29.729Z</time>
      </trkpt>
      <trkpt lat="38.98777833" lon="1.33100167">
        <ele>13.0</ele>
        <time>2020-08-17T17:25:30.711Z</time>
      </trkpt>
      <trkpt lat="38.98778" lon="1.33082333">
        <ele>13.0</ele>
        <time>2020-08-17T17:25:31.731Z</time>
      </trkpt>
      <trkpt lat="38.98777333" lon="1.330735">
        <ele>13.0</ele>
        <time>2020-08-17T17:25:32.713Z</time>
      </trkpt>
      <trkpt lat="38.98777333" lon="1.330735">
        <ele>13.0</ele>
        <time>2020-08-17T17:25:33.746Z</time>
      </trkpt>
      <trkpt lat="38.98775" lon="1.33056333">
        <ele>13.0</ele>
        <time>2020-08-17T17:25:34.725Z</time>
      </trkpt>
      <trkpt lat="38.98773333" lon="1.33047833">
        <ele>13.0</ele>
        <time>2020-08-17T17:25:35.747Z</time>
      </trkpt>
      <trkpt lat="38.98773333" lon="1.33047833">
        <ele>13.0</ele>
        <time>2020-08-17T17:25:36.738Z</time>
      </trkpt>
      <trkpt lat="38.987695" lon="1.33031">
        <ele>12.0</ele>
        <time>2020-08-17T17:25:37.718Z</time>
      </trkpt>
      <trkpt lat="38.987675" lon="1.330225">
        <ele>12.0</ele>
        <time>2020-08-17T17:25:38.711Z</time>
      </trkpt>
      <trkpt lat="38.987675" lon="1.330225">
        <ele>12.0</ele>
        <time>2020-08-17T17:25:39.710Z</time>
      </trkpt>
      <trkpt lat="38.98763333" lon="1.330055">
        <ele>12.0</ele>
        <time>2020-08-17T17:25:40.741Z</time>
      </trkpt>
      <trkpt lat="38.98763333" lon="1.330055">
        <ele>12.0</ele>
        <time>2020-08-17T17:25:41.745Z</time>
      </trkpt>
      <trkpt lat="38.98758833" lon="1.329885">
        <ele>12.0</ele>
        <time>2020-08-17T17:25:42.711Z</time>
      </trkpt>
      <trkpt lat="38.98756333" lon="1.3298">
        <ele>12.0</ele>
        <time>2020-08-17T17:25:43.725Z</time>
      </trkpt>
      <trkpt lat="38.98756333" lon="1.3298">
        <ele>12.0</ele>
        <time>2020-08-17T17:25:44.745Z</time>
      </trkpt>
      <trkpt lat="38.98751167" lon="1.32962667">
        <ele>11.0</ele>
        <time>2020-08-17T17:25:45.725Z</time>
      </trkpt>
      <trkpt lat="38.98751167" lon="1.32962667">
        <ele>11.0</ele>
        <time>2020-08-17T17:25:46.712Z</time>
      </trkpt>
      <trkpt lat="38.98744667" lon="1.32946667">
        <ele>11.0</ele>
        <time>2020-08-17T17:25:47.715Z</time>
      </trkpt>
      <trkpt lat="38.98739667" lon="1.32940667">
        <ele>11.0</ele>
        <time>2020-08-17T17:25:48.712Z</time>
      </trkpt>
      <trkpt lat="38.98739667" lon="1.32940667">
        <ele>11.0</ele>
        <time>2020-08-17T17:25:49.739Z</time>
      </trkpt>
      <trkpt lat="38.98726667" lon="1.32936167">
        <ele>10.0</ele>
        <time>2020-08-17T17:25:50.721Z</time>
      </trkpt>
      <trkpt lat="38.98726667" lon="1.32936167">
        <ele>10.0</ele>
        <time>2020-08-17T17:25:51.711Z</time>
      </trkpt>
      <trkpt lat="38.98712667" lon="1.32940333">
        <ele>9.0</ele>
        <time>2020-08-17T17:25:52.745Z</time>
      </trkpt>
      <trkpt lat="38.98712667" lon="1.32940333">
        <ele>9.0</ele>
        <time>2020-08-17T17:25:53.729Z</time>
      </trkpt>
      <trkpt lat="38.98698833" lon="1.32944667">
        <ele>9.0</ele>
        <time>2020-08-17T17:25:54.713Z</time>
      </trkpt>
      <trkpt lat="38.986915" lon="1.32946833">
        <ele>9.0</ele>
        <time>2020-08-17T17:25:55.714Z</time>
      </trkpt>
      <trkpt lat="38.986915" lon="1.32946833">
        <ele>9.0</ele>
        <time>2020-08-17T17:25:56.742Z</time>
      </trkpt>
      <trkpt lat="38.986765" lon="1.32951333">
        <ele>8.0</ele>
        <time>2020-08-17T17:25:57.726Z</time>
      </trkpt>
      <trkpt lat="38.986765" lon="1.32951333">
        <ele>8.0</ele>
        <time>2020-08-17T17:25:58.745Z</time>
      </trkpt>
      <trkpt lat="38.98661167" lon="1.32955833">
        <ele>8.0</ele>
        <time>2020-08-17T17:25:59.726Z</time>
      </trkpt>
      <trkpt lat="38.98661167" lon="1.32955833">
        <ele>8.0</ele>
        <time>2020-08-17T17:26:00.725Z</time>
      </trkpt>
      <trkpt lat="38.986455" lon="1.32961">
        <ele>7.0</ele>
        <time>2020-08-17T17:26:01.714Z</time>
      </trkpt>
      <trkpt lat="38.986455" lon="1.32961">
        <ele>7.0</ele>
        <time>2020-08-17T17:26:02.710Z</time>
      </trkpt>
      <trkpt lat="38.98629333" lon="1.32966333">
        <ele>7.0</ele>
        <time>2020-08-17T17:26:03.731Z</time>
      </trkpt>
      <trkpt lat="38.98629333" lon="1.32966333">
        <ele>7.0</ele>
        <time>2020-08-17T17:26:04.712Z</time>
      </trkpt>
      <trkpt lat="38.98612833" lon="1.329715">
        <ele>7.0</ele>
        <time>2020-08-17T17:26:05.731Z</time>
      </trkpt>
      <trkpt lat="38.98612833" lon="1.329715">
        <ele>7.0</ele>
        <time>2020-08-17T17:26:06.712Z</time>
      </trkpt>
      <trkpt lat="38.98596333" lon="1.32976833">
        <ele>6.0</ele>
        <time>2020-08-17T17:26:07.719Z</time>
      </trkpt>
      <trkpt lat="38.98596333" lon="1.32976833">
        <ele>6.0</ele>
        <time>2020-08-17T17:26:08.747Z</time>
      </trkpt>
      <trkpt lat="38.98579667" lon="1.32982333">
        <ele>6.0</ele>
        <time>2020-08-17T17:26:09.728Z</time>
      </trkpt>
      <trkpt lat="38.98579667" lon="1.32982333">
        <ele>6.0</ele>
        <time>2020-08-17T17:26:10.715Z</time>
      </trkpt>
      <trkpt lat="38.98563" lon="1.329875">
        <ele>5.0</ele>
        <time>2020-08-17T17:26:11.736Z</time>
      </trkpt>
      <trkpt lat="38.98563" lon="1.329875">
        <ele>5.0</ele>
        <time>2020-08-17T17:26:12.716Z</time>
      </trkpt>
      <trkpt lat="38.98546333" lon="1.32992833">
        <ele>5.0</ele>
        <time>2020-08-17T17:26:13.716Z</time>
      </trkpt>
      <trkpt lat="38.98546333" lon="1.32992833">
        <ele>5.0</ele>
        <time>2020-08-17T17:26:14.742Z</time>
      </trkpt>
      <trkpt lat="38.98529833" lon="1.32998333">
        <ele>5.0</ele>
        <time>2020-08-17T17:26:15.726Z</time>
      </trkpt>
      <trkpt lat="38.98521667" lon="1.33000833">
        <ele>5.0</ele>
        <time>2020-08-17T17:26:16.741Z</time>
      </trkpt>
      <trkpt lat="38.985135" lon="1.33003833">
        <ele>4.0</ele>
        <time>2020-08-17T17:26:17.723Z</time>
      </trkpt>
      <trkpt lat="38.985135" lon="1.33003833">
        <ele>4.0</ele>
        <time>2020-08-17T17:26:18.747Z</time>
      </trkpt>
      <trkpt lat="38.98497333" lon="1.33009167">
        <ele>4.0</ele>
        <time>2020-08-17T17:26:19.728Z</time>
      </trkpt>
      <trkpt lat="38.98497333" lon="1.33009167">
        <ele>4.0</ele>
        <time>2020-08-17T17:26:20.715Z</time>
      </trkpt>
      <trkpt lat="38.98481" lon="1.33013833">
        <ele>4.0</ele>
        <time>2020-08-17T17:26:21.721Z</time>
      </trkpt>
      <trkpt lat="38.98473" lon="1.33016167">
        <ele>4.0</ele>
        <time>2020-08-17T17:26:22.713Z</time>
      </trkpt>
      <trkpt lat="38.98465" lon="1.33019">
        <ele>4.0</ele>
        <time>2020-08-17T17:26:23.742Z</time>
      </trkpt>
      <trkpt lat="38.98465" lon="1.33019">
        <ele>4.0</ele>
        <time>2020-08-17T17:26:24.721Z</time>
      </trkpt>
      <trkpt lat="38.98449667" lon="1.33026">
        <ele>4.0</ele>
        <time>2020-08-17T17:26:25.745Z</time>
      </trkpt>
      <trkpt lat="38.98442333" lon="1.33030167">
        <ele>4.0</ele>
        <time>2020-08-17T17:26:26.725Z</time>
      </trkpt>
      <trkpt lat="38.98442333" lon="1.33030167">
        <ele>4.0</ele>
        <time>2020-08-17T17:26:27.712Z</time>
      </trkpt>
      <trkpt lat="38.98428333" lon="1.33039833">
        <ele>4.0</ele>
        <time>2020-08-17T17:26:28.710Z</time>
      </trkpt>
      <trkpt lat="38.98428333" lon="1.33039833">
        <ele>4.0</ele>
        <time>2020-08-17T17:26:29.730Z</time>
      </trkpt>
      <trkpt lat="38.984155" lon="1.33051">
        <ele>4.0</ele>
        <time>2020-08-17T17:26:30.722Z</time>
      </trkpt>
      <trkpt lat="38.98409167" lon="1.330565">
        <ele>4.0</ele>
        <time>2020-08-17T17:26:31.715Z</time>
      </trkpt>
      <trkpt lat="38.98409167" lon="1.330565">
        <ele>4.0</ele>
        <time>2020-08-17T17:26:32.752Z</time>
      </trkpt>
      <trkpt lat="38.98396333" lon="1.33067333">
        <ele>4.0</ele>
        <time>2020-08-17T17:26:33.720Z</time>
      </trkpt>
      <trkpt lat="38.98396333" lon="1.33067333">
        <ele>4.0</ele>
        <time>2020-08-17T17:26:34.711Z</time>
      </trkpt>
      <trkpt lat="38.98384667" lon="1.33080167">
        <ele>4.0</ele>
        <time>2020-08-17T17:26:35.730Z</time>
      </trkpt>
      <trkpt lat="38.98384667" lon="1.33080167">
        <ele>4.0</ele>
        <time>2020-08-17T17:26:36.711Z</time>
      </trkpt>
      <trkpt lat="38.98376667" lon="1.33097833">
        <ele>3.0</ele>
        <time>2020-08-17T17:26:37.730Z</time>
      </trkpt>
      <trkpt lat="38.98376667" lon="1.33097833">
        <ele>3.0</ele>
        <time>2020-08-17T17:26:38.710Z</time>
      </trkpt>
      <trkpt lat="38.98372333" lon="1.33117">
        <ele>3.0</ele>
        <time>2020-08-17T17:26:39.711Z</time>
      </trkpt>
      <trkpt lat="38.98372333" lon="1.33117">
        <ele>3.0</ele>
        <time>2020-08-17T17:26:40.746Z</time>
      </trkpt>
      <trkpt lat="38.98368333" lon="1.331365">
        <ele>3.0</ele>
        <time>2020-08-17T17:26:41.716Z</time>
      </trkpt>
      <trkpt lat="38.98366" lon="1.33146167">
        <ele>3.0</ele>
        <time>2020-08-17T17:26:42.712Z</time>
      </trkpt>
      <trkpt lat="38.98366" lon="1.33146167">
        <ele>3.0</ele>
        <time>2020-08-17T17:26:43.717Z</time>
      </trkpt>
      <trkpt lat="38.98362" lon="1.331655">
        <ele>3.0</ele>
        <time>2020-08-17T17:26:44.715Z</time>
      </trkpt>
      <trkpt lat="38.98362" lon="1.331655">
        <ele>3.0</ele>
        <time>2020-08-17T17:26:45.711Z</time>
      </trkpt>
      <trkpt lat="38.98358167" lon="1.33185">
        <ele>3.0</ele>
        <time>2020-08-17T17:26:46.713Z</time>
      </trkpt>
      <trkpt lat="38.98356" lon="1.331945">
        <ele>3.0</ele>
        <time>2020-08-17T17:26:47.714Z</time>
      </trkpt>
      <trkpt lat="38.98356" lon="1.331945">
        <ele>3.0</ele>
        <time>2020-08-17T17:26:48.710Z</time>
      </trkpt>
      <trkpt lat="38.98351667" lon="1.33213333">
        <ele>3.0</ele>
        <time>2020-08-17T17:26:49.729Z</time>
      </trkpt>
      <trkpt lat="38.98349333" lon="1.332225">
        <ele>3.0</ele>
        <time>2020-08-17T17:26:50.719Z</time>
      </trkpt>
      <trkpt lat="38.98346667" lon="1.33231667">
        <ele>4.0</ele>
        <time>2020-08-17T17:26:51.711Z</time>
      </trkpt>
      <trkpt lat="38.98346667" lon="1.33231667">
        <ele>4.0</ele>
        <time>2020-08-17T17:26:52.711Z</time>
      </trkpt>
      <trkpt lat="38.98341833" lon="1.332495">
        <ele>4.0</ele>
        <time>2020-08-17T17:26:53.733Z</time>
      </trkpt>
      <trkpt lat="38.9834" lon="1.33258333">
        <ele>4.0</ele>
        <time>2020-08-17T17:26:54.711Z</time>
      </trkpt>
      <trkpt lat="38.9834" lon="1.33258333">
        <ele>4.0</ele>
        <time>2020-08-17T17:26:55.712Z</time>
      </trkpt>
      <trkpt lat="38.98336333" lon="1.33276167">
        <ele>4.0</ele>
        <time>2020-08-17T17:26:56.712Z</time>
      </trkpt>
      <trkpt lat="38.98336333" lon="1.33276167">
        <ele>4.0</ele>
        <time>2020-08-17T17:26:57.711Z</time>
      </trkpt>
      <trkpt lat="38.98332167" lon="1.33294">
        <ele>4.0</ele>
        <time>2020-08-17T17:26:58.744Z</time>
      </trkpt>
      <trkpt lat="38.98332167" lon="1.33294">
        <ele>4.0</ele>
        <time>2020-08-17T17:26:59.723Z</time>
      </trkpt>
      <trkpt lat="38.983285" lon="1.33312">
        <ele>4.0</ele>
        <time>2020-08-17T17:27:00.714Z</time>
      </trkpt>
      <trkpt lat="38.98326833" lon="1.33321">
        <ele>4.0</ele>
        <time>2020-08-17T17:27:01.729Z</time>
      </trkpt>
      <trkpt lat="38.98326833" lon="1.33321">
        <ele>4.0</ele>
        <time>2020-08-17T17:27:02.712Z</time>
      </trkpt>
      <trkpt lat="38.98323833" lon="1.33339667">
        <ele>4.0</ele>
        <time>2020-08-17T17:27:03.724Z</time>
      </trkpt>
      <trkpt lat="38.98323833" lon="1.33339667">
        <ele>4.0</ele>
        <time>2020-08-17T17:27:04.721Z</time>
      </trkpt>
      <trkpt lat="38.98322333" lon="1.333585">
        <ele>5.0</ele>
        <time>2020-08-17T17:27:05.713Z</time>
      </trkpt>
      <trkpt lat="38.98322333" lon="1.333585">
        <ele>5.0</ele>
        <time>2020-08-17T17:27:06.710Z</time>
      </trkpt>
      <trkpt lat="38.983205" lon="1.33377333">
        <ele>5.0</ele>
        <time>2020-08-17T17:27:07.729Z</time>
      </trkpt>
      <trkpt lat="38.983205" lon="1.33377333">
        <ele>5.0</ele>
        <time>2020-08-17T17:27:08.711Z</time>
      </trkpt>
      <trkpt lat="38.983195" lon="1.33396167">
        <ele>5.0</ele>
        <time>2020-08-17T17:27:09.730Z</time>
      </trkpt>
      <trkpt lat="38.983195" lon="1.33396167">
        <ele>5.0</ele>
        <time>2020-08-17T17:27:10.715Z</time>
      </trkpt>
      <trkpt lat="38.983185" lon="1.33415">
        <ele>5.0</ele>
        <time>2020-08-17T17:27:11.723Z</time>
      </trkpt>
      <trkpt lat="38.983185" lon="1.33415">
        <ele>5.0</ele>
        <time>2020-08-17T17:27:12.711Z</time>
      </trkpt>
      <trkpt lat="38.98317167" lon="1.33434">
        <ele>5.0</ele>
        <time>2020-08-17T17:27:13.747Z</time>
      </trkpt>
      <trkpt lat="38.98316167" lon="1.33443333">
        <ele>6.0</ele>
        <time>2020-08-17T17:27:14.718Z</time>
      </trkpt>
      <trkpt lat="38.98316167" lon="1.33443333">
        <ele>6.0</ele>
        <time>2020-08-17T17:27:15.712Z</time>
      </trkpt>
      <trkpt lat="38.98312833" lon="1.334615">
        <ele>6.0</ele>
        <time>2020-08-17T17:27:16.715Z</time>
      </trkpt>
      <trkpt lat="38.98311" lon="1.33470667">
        <ele>6.0</ele>
        <time>2020-08-17T17:27:17.715Z</time>
      </trkpt>
      <trkpt lat="38.98311" lon="1.33470667">
        <ele>6.0</ele>
        <time>2020-08-17T17:27:18.741Z</time>
      </trkpt>
      <trkpt lat="38.98306667" lon="1.33488333">
        <ele>6.0</ele>
        <time>2020-08-17T17:27:19.721Z</time>
      </trkpt>
      <trkpt lat="38.98304167" lon="1.33497">
        <ele>6.0</ele>
        <time>2020-08-17T17:27:20.713Z</time>
      </trkpt>
      <trkpt lat="38.983015" lon="1.33505333">
        <ele>6.0</ele>
        <time>2020-08-17T17:27:21.720Z</time>
      </trkpt>
      <trkpt lat="38.983015" lon="1.33505333">
        <ele>6.0</ele>
        <time>2020-08-17T17:27:22.710Z</time>
      </trkpt>
      <trkpt lat="38.98296" lon="1.33522">
        <ele>6.0</ele>
        <time>2020-08-17T17:27:23.731Z</time>
      </trkpt>
      <trkpt lat="38.98296" lon="1.33522">
        <ele>6.0</ele>
        <time>2020-08-17T17:27:24.737Z</time>
      </trkpt>
      <trkpt lat="38.98291167" lon="1.33538833">
        <ele>7.0</ele>
        <time>2020-08-17T17:27:25.716Z</time>
      </trkpt>
      <trkpt lat="38.98289" lon="1.33547333">
        <ele>7.0</ele>
        <time>2020-08-17T17:27:26.712Z</time>
      </trkpt>
      <trkpt lat="38.98289" lon="1.33547333">
        <ele>7.0</ele>
        <time>2020-08-17T17:27:27.710Z</time>
      </trkpt>
      <trkpt lat="38.982845" lon="1.33564">
        <ele>7.0</ele>
        <time>2020-08-17T17:27:28.730Z</time>
      </trkpt>
      <trkpt lat="38.98282" lon="1.33572167">
        <ele>7.0</ele>
        <time>2020-08-17T17:27:29.715Z</time>
      </trkpt>
      <trkpt lat="38.98282" lon="1.33572167">
        <ele>7.0</ele>
        <time>2020-08-17T17:27:30.716Z</time>
      </trkpt>
      <trkpt lat="38.98277" lon="1.33588167">
        <ele>7.0</ele>
        <time>2020-08-17T17:27:31.743Z</time>
      </trkpt>
      <trkpt lat="38.98274667" lon="1.33596333">
        <ele>7.0</ele>
        <time>2020-08-17T17:27:32.725Z</time>
      </trkpt>
      <trkpt lat="38.98272333" lon="1.33604333">
        <ele>7.0</ele>
        <time>2020-08-17T17:27:33.711Z</time>
      </trkpt>
      <trkpt lat="38.98272333" lon="1.33604333">
        <ele>7.0</ele>
        <time>2020-08-17T17:27:34.713Z</time>
      </trkpt>
      <trkpt lat="38.98267833" lon="1.336205">
        <ele>8.0</ele>
        <time>2020-08-17T17:27:35.714Z</time>
      </trkpt>
      <trkpt lat="38.98267833" lon="1.336205">
        <ele>8.0</ele>
        <time>2020-08-17T17:27:36.711Z</time>
      </trkpt>
      <trkpt lat="38.98263" lon="1.33636667">
        <ele>8.0</ele>
        <time>2020-08-17T17:27:37.740Z</time>
      </trkpt>
      <trkpt lat="38.98263" lon="1.33636667">
        <ele>8.0</ele>
        <time>2020-08-17T17:27:38.719Z</time>
      </trkpt>
      <trkpt lat="38.98257" lon="1.33652333">
        <ele>9.0</ele>
        <time>2020-08-17T17:27:39.712Z</time>
      </trkpt>
      <trkpt lat="38.98257" lon="1.33652333">
        <ele>9.0</ele>
        <time>2020-08-17T17:27:40.743Z</time>
      </trkpt>
      <trkpt lat="38.98251" lon="1.33667833">
        <ele>9.0</ele>
        <time>2020-08-17T17:27:41.712Z</time>
      </trkpt>
      <trkpt lat="38.98251" lon="1.33667833">
        <ele>9.0</ele>
        <time>2020-08-17T17:27:42.719Z</time>
      </trkpt>
      <trkpt lat="38.982445" lon="1.33683667">
        <ele>9.0</ele>
        <time>2020-08-17T17:27:43.725Z</time>
      </trkpt>
      <trkpt lat="38.98241333" lon="1.33691667">
        <ele>10.0</ele>
        <time>2020-08-17T17:27:44.719Z</time>
      </trkpt>
      <trkpt lat="38.98241333" lon="1.33691667">
        <ele>10.0</ele>
        <time>2020-08-17T17:27:45.712Z</time>
      </trkpt>
      <trkpt lat="38.982345" lon="1.33707">
        <ele>10.0</ele>
        <time>2020-08-17T17:27:46.714Z</time>
      </trkpt>
      <trkpt lat="38.98230667" lon="1.33713667">
        <ele>10.0</ele>
        <time>2020-08-17T17:27:47.716Z</time>
      </trkpt>
      <trkpt lat="38.98230667" lon="1.33713667">
        <ele>10.0</ele>
        <time>2020-08-17T17:27:48.726Z</time>
      </trkpt>
      <trkpt lat="38.98221667" lon="1.33725667">
        <ele>10.0</ele>
        <time>2020-08-17T17:27:49.715Z</time>
      </trkpt>
      <trkpt lat="38.98221667" lon="1.33725667">
        <ele>10.0</ele>
        <time>2020-08-17T17:27:50.711Z</time>
      </trkpt>
      <trkpt lat="38.98210833" lon="1.33735833">
        <ele>11.0</ele>
        <time>2020-08-17T17:27:51.737Z</time>
      </trkpt>
      <trkpt lat="38.98210833" lon="1.33735833">
        <ele>11.0</ele>
        <time>2020-08-17T17:27:52.716Z</time>
      </trkpt>
      <trkpt lat="38.98200333" lon="1.33745833">
        <ele>11.0</ele>
        <time>2020-08-17T17:27:53.715Z</time>
      </trkpt>
      <trkpt lat="38.98200333" lon="1.33745833">
        <ele>11.0</ele>
        <time>2020-08-17T17:27:54.714Z</time>
      </trkpt>
      <trkpt lat="38.98191" lon="1.33757833">
        <ele>12.0</ele>
        <time>2020-08-17T17:27:55.712Z</time>
      </trkpt>
      <trkpt lat="38.98187" lon="1.337645">
        <ele>12.0</ele>
        <time>2020-08-17T17:27:56.712Z</time>
      </trkpt>
      <trkpt lat="38.98187" lon="1.337645">
        <ele>12.0</ele>
        <time>2020-08-17T17:27:57.712Z</time>
      </trkpt>
      <trkpt lat="38.98179333" lon="1.33778667">
        <ele>12.0</ele>
        <time>2020-08-17T17:27:58.713Z</time>
      </trkpt>
      <trkpt lat="38.98176167" lon="1.33786333">
        <ele>12.0</ele>
        <time>2020-08-17T17:27:59.716Z</time>
      </trkpt>
      <trkpt lat="38.98176167" lon="1.33786333">
        <ele>12.0</ele>
        <time>2020-08-17T17:28:00.724Z</time>
      </trkpt>
      <trkpt lat="38.98169333" lon="1.338015">
        <ele>12.0</ele>
        <time>2020-08-17T17:28:01.729Z</time>
      </trkpt>
      <trkpt lat="38.98169333" lon="1.338015">
        <ele>12.0</ele>
        <time>2020-08-17T17:28:02.711Z</time>
      </trkpt>
      <trkpt lat="38.98162333" lon="1.33816833">
        <ele>13.0</ele>
        <time>2020-08-17T17:28:03.711Z</time>
      </trkpt>
      <trkpt lat="38.98162333" lon="1.33816833">
        <ele>13.0</ele>
        <time>2020-08-17T17:28:04.725Z</time>
      </trkpt>
      <trkpt lat="38.98155833" lon="1.33832">
        <ele>13.0</ele>
        <time>2020-08-17T17:28:05.716Z</time>
      </trkpt>
      <trkpt lat="38.98155833" lon="1.33832">
        <ele>13.0</ele>
        <time>2020-08-17T17:28:06.747Z</time>
      </trkpt>
      <trkpt lat="38.98149333" lon="1.33847167">
        <ele>13.0</ele>
        <time>2020-08-17T17:28:07.727Z</time>
      </trkpt>
      <trkpt lat="38.98149333" lon="1.33847167">
        <ele>13.0</ele>
        <time>2020-08-17T17:28:08.711Z</time>
      </trkpt>
      <trkpt lat="38.981425" lon="1.33862833">
        <ele>14.0</ele>
        <time>2020-08-17T17:28:09.714Z</time>
      </trkpt>
      <trkpt lat="38.981425" lon="1.33862833">
        <ele>14.0</ele>
        <time>2020-08-17T17:28:10.712Z</time>
      </trkpt>
      <trkpt lat="38.98136" lon="1.33878333">
        <ele>14.0</ele>
        <time>2020-08-17T17:28:11.713Z</time>
      </trkpt>
      <trkpt lat="38.98132833" lon="1.33886">
        <ele>14.0</ele>
        <time>2020-08-17T17:28:12.714Z</time>
      </trkpt>
      <trkpt lat="38.98129833" lon="1.33894">
        <ele>14.0</ele>
        <time>2020-08-17T17:28:13.716Z</time>
      </trkpt>
      <trkpt lat="38.98129833" lon="1.33894">
        <ele>14.0</ele>
        <time>2020-08-17T17:28:14.722Z</time>
      </trkpt>
      <trkpt lat="38.98123833" lon="1.33909833">
        <ele>15.0</ele>
        <time>2020-08-17T17:28:15.713Z</time>
      </trkpt>
      <trkpt lat="38.981205" lon="1.33918">
        <ele>15.0</ele>
        <time>2020-08-17T17:28:16.713Z</time>
      </trkpt>
      <trkpt lat="38.981175" lon="1.33925833">
        <ele>15.0</ele>
        <time>2020-08-17T17:28:17.732Z</time>
      </trkpt>
      <trkpt lat="38.981175" lon="1.33925833">
        <ele>15.0</ele>
        <time>2020-08-17T17:28:18.712Z</time>
      </trkpt>
      <trkpt lat="38.98111" lon="1.33941667">
        <ele>15.0</ele>
        <time>2020-08-17T17:28:19.715Z</time>
      </trkpt>
      <trkpt lat="38.98111" lon="1.33941667">
        <ele>15.0</ele>
        <time>2020-08-17T17:28:20.713Z</time>
      </trkpt>
      <trkpt lat="38.98105" lon="1.33957667">
        <ele>15.0</ele>
        <time>2020-08-17T17:28:21.714Z</time>
      </trkpt>
      <trkpt lat="38.98105" lon="1.33957667">
        <ele>15.0</ele>
        <time>2020-08-17T17:28:22.711Z</time>
      </trkpt>
      <trkpt lat="38.980995" lon="1.33973667">
        <ele>16.0</ele>
        <time>2020-08-17T17:28:23.712Z</time>
      </trkpt>
      <trkpt lat="38.980995" lon="1.33973667">
        <ele>16.0</ele>
        <time>2020-08-17T17:28:24.712Z</time>
      </trkpt>
      <trkpt lat="38.98094" lon="1.33989167">
        <ele>16.0</ele>
        <time>2020-08-17T17:28:25.716Z</time>
      </trkpt>
      <trkpt lat="38.98094" lon="1.33989167">
        <ele>16.0</ele>
        <time>2020-08-17T17:28:26.712Z</time>
      </trkpt>
      <trkpt lat="38.98088833" lon="1.34004833">
        <ele>16.0</ele>
        <time>2020-08-17T17:28:27.713Z</time>
      </trkpt>
      <trkpt lat="38.98088833" lon="1.34004833">
        <ele>16.0</ele>
        <time>2020-08-17T17:28:28.712Z</time>
      </trkpt>
      <trkpt lat="38.98083833" lon="1.34020333">
        <ele>16.0</ele>
        <time>2020-08-17T17:28:29.731Z</time>
      </trkpt>
      <trkpt lat="38.98083833" lon="1.34020333">
        <ele>16.0</ele>
        <time>2020-08-17T17:28:30.715Z</time>
      </trkpt>
      <trkpt lat="38.98079" lon="1.34035833">
        <ele>16.0</ele>
        <time>2020-08-17T17:28:31.714Z</time>
      </trkpt>
      <trkpt lat="38.98079" lon="1.34035833">
        <ele>16.0</ele>
        <time>2020-08-17T17:28:32.711Z</time>
      </trkpt>
      <trkpt lat="38.980745" lon="1.340515">
        <ele>17.0</ele>
        <time>2020-08-17T17:28:33.713Z</time>
      </trkpt>
      <trkpt lat="38.98072167" lon="1.34059333">
        <ele>17.0</ele>
        <time>2020-08-17T17:28:34.725Z</time>
      </trkpt>
      <trkpt lat="38.98072167" lon="1.34059333">
        <ele>17.0</ele>
        <time>2020-08-17T17:28:35.713Z</time>
      </trkpt>
      <trkpt lat="38.980675" lon="1.34075">
        <ele>17.0</ele>
        <time>2020-08-17T17:28:36.714Z</time>
      </trkpt>
      <trkpt lat="38.98065" lon="1.34082667">
        <ele>17.0</ele>
        <time>2020-08-17T17:28:37.730Z</time>
      </trkpt>
      <trkpt lat="38.98065" lon="1.34082667">
        <ele>17.0</ele>
        <time>2020-08-17T17:28:38.712Z</time>
      </trkpt>
      <trkpt lat="38.98059833" lon="1.34098333">
        <ele>17.0</ele>
        <time>2020-08-17T17:28:39.737Z</time>
      </trkpt>
      <trkpt lat="38.98054833" lon="1.34114167">
        <ele>18.0</ele>
        <time>2020-08-17T17:28:40.738Z</time>
      </trkpt>
      <trkpt lat="38.98054833" lon="1.34114167">
        <ele>18.0</ele>
        <time>2020-08-17T17:28:41.718Z</time>
      </trkpt>
      <trkpt lat="38.98052333" lon="1.34121833">
        <ele>18.0</ele>
        <time>2020-08-17T17:28:42.722Z</time>
      </trkpt>
      <trkpt lat="38.98049833" lon="1.34129667">
        <ele>18.0</ele>
        <time>2020-08-17T17:28:43.722Z</time>
      </trkpt>
      <trkpt lat="38.98049833" lon="1.34129667">
        <ele>18.0</ele>
        <time>2020-08-17T17:28:44.713Z</time>
      </trkpt>
      <trkpt lat="38.98044833" lon="1.341455">
        <ele>18.0</ele>
        <time>2020-08-17T17:28:45.713Z</time>
      </trkpt>
      <trkpt lat="38.98044833" lon="1.341455">
        <ele>18.0</ele>
        <time>2020-08-17T17:28:46.737Z</time>
      </trkpt>
      <trkpt lat="38.98039667" lon="1.34161167">
        <ele>18.0</ele>
        <time>2020-08-17T17:28:47.726Z</time>
      </trkpt>
      <trkpt lat="38.98039667" lon="1.34161167">
        <ele>18.0</ele>
        <time>2020-08-17T17:28:48.745Z</time>
      </trkpt>
      <trkpt lat="38.98034333" lon="1.34176833">
        <ele>19.0</ele>
        <time>2020-08-17T17:28:49.726Z</time>
      </trkpt>
      <trkpt lat="38.98034333" lon="1.34176833">
        <ele>19.0</ele>
        <time>2020-08-17T17:28:50.715Z</time>
      </trkpt>
      <trkpt lat="38.980295" lon="1.34192333">
        <ele>19.0</ele>
        <time>2020-08-17T17:28:51.714Z</time>
      </trkpt>
      <trkpt lat="38.980295" lon="1.34192333">
        <ele>19.0</ele>
        <time>2020-08-17T17:28:52.716Z</time>
      </trkpt>
      <trkpt lat="38.98024333" lon="1.34207333">
        <ele>19.0</ele>
        <time>2020-08-17T17:28:53.715Z</time>
      </trkpt>
      <trkpt lat="38.98024333" lon="1.34207333">
        <ele>19.0</ele>
        <time>2020-08-17T17:28:54.723Z</time>
      </trkpt>
      <trkpt lat="38.98018833" lon="1.34222333">
        <ele>20.0</ele>
        <time>2020-08-17T17:28:55.724Z</time>
      </trkpt>
      <trkpt lat="38.98016167" lon="1.3423">
        <ele>20.0</ele>
        <time>2020-08-17T17:28:56.713Z</time>
      </trkpt>
      <trkpt lat="38.98016167" lon="1.3423">
        <ele>20.0</ele>
        <time>2020-08-17T17:28:57.746Z</time>
      </trkpt>
      <trkpt lat="38.98010167" lon="1.34244833">
        <ele>20.0</ele>
        <time>2020-08-17T17:28:58.739Z</time>
      </trkpt>
      <trkpt lat="38.98007167" lon="1.34252167">
        <ele>20.0</ele>
        <time>2020-08-17T17:28:59.719Z</time>
      </trkpt>
      <trkpt lat="38.98007167" lon="1.34252167">
        <ele>20.0</ele>
        <time>2020-08-17T17:29:00.713Z</time>
      </trkpt>
      <trkpt lat="38.98001" lon="1.342665">
        <ele>20.0</ele>
        <time>2020-08-17T17:29:01.714Z</time>
      </trkpt>
      <trkpt lat="38.98001" lon="1.342665">
        <ele>20.0</ele>
        <time>2020-08-17T17:29:02.711Z</time>
      </trkpt>
      <trkpt lat="38.97995333" lon="1.342815">
        <ele>21.0</ele>
        <time>2020-08-17T17:29:03.713Z</time>
      </trkpt>
      <trkpt lat="38.97995333" lon="1.342815">
        <ele>21.0</ele>
        <time>2020-08-17T17:29:04.753Z</time>
      </trkpt>
      <trkpt lat="38.97990333" lon="1.34296833">
        <ele>21.0</ele>
        <time>2020-08-17T17:29:05.717Z</time>
      </trkpt>
      <trkpt lat="38.97990333" lon="1.34296833">
        <ele>21.0</ele>
        <time>2020-08-17T17:29:06.714Z</time>
      </trkpt>
      <trkpt lat="38.97986167" lon="1.34312833">
        <ele>21.0</ele>
        <time>2020-08-17T17:29:07.718Z</time>
      </trkpt>
      <trkpt lat="38.97986167" lon="1.34312833">
        <ele>21.0</ele>
        <time>2020-08-17T17:29:08.713Z</time>
      </trkpt>
      <trkpt lat="38.97981667" lon="1.343285">
        <ele>21.0</ele>
        <time>2020-08-17T17:29:09.713Z</time>
      </trkpt>
      <trkpt lat="38.97981667" lon="1.343285">
        <ele>21.0</ele>
        <time>2020-08-17T17:29:10.715Z</time>
      </trkpt>
      <trkpt lat="38.97977833" lon="1.343445">
        <ele>22.0</ele>
        <time>2020-08-17T17:29:11.747Z</time>
      </trkpt>
      <trkpt lat="38.97977833" lon="1.343445">
        <ele>22.0</ele>
        <time>2020-08-17T17:29:12.726Z</time>
      </trkpt>
      <trkpt lat="38.97974833" lon="1.34360333">
        <ele>22.0</ele>
        <time>2020-08-17T17:29:13.713Z</time>
      </trkpt>
      <trkpt lat="38.97973" lon="1.34368333">
        <ele>22.0</ele>
        <time>2020-08-17T17:29:14.715Z</time>
      </trkpt>
      <trkpt lat="38.97971667" lon="1.34376333">
        <ele>22.0</ele>
        <time>2020-08-17T17:29:15.728Z</time>
      </trkpt>
      <trkpt lat="38.97971667" lon="1.34376333">
        <ele>22.0</ele>
        <time>2020-08-17T17:29:16.739Z</time>
      </trkpt>
      <trkpt lat="38.979685" lon="1.34390667">
        <ele>22.0</ele>
        <time>2020-08-17T17:29:17.719Z</time>
      </trkpt>
      <trkpt lat="38.979685" lon="1.34390667">
        <ele>22.0</ele>
        <time>2020-08-17T17:29:18.713Z</time>
      </trkpt>
      <trkpt lat="38.979595" lon="1.34397833">
        <ele>23.0</ele>
        <time>2020-08-17T17:29:19.712Z</time>
      </trkpt>
      <trkpt lat="38.979595" lon="1.34397833">
        <ele>23.0</ele>
        <time>2020-08-17T17:29:20.715Z</time>
      </trkpt>
      <trkpt lat="38.97947333" lon="1.34401833">
        <ele>24.0</ele>
        <time>2020-08-17T17:29:21.715Z</time>
      </trkpt>
      <trkpt lat="38.97947333" lon="1.34401833">
        <ele>24.0</ele>
        <time>2020-08-17T17:29:22.710Z</time>
      </trkpt>
      <trkpt lat="38.97934333" lon="1.344065">
        <ele>24.0</ele>
        <time>2020-08-17T17:29:23.730Z</time>
      </trkpt>
      <trkpt lat="38.97934333" lon="1.344065">
        <ele>24.0</ele>
        <time>2020-08-17T17:29:24.713Z</time>
      </trkpt>
      <trkpt lat="38.97921167" lon="1.34411333">
        <ele>24.0</ele>
        <time>2020-08-17T17:29:25.723Z</time>
      </trkpt>
      <trkpt lat="38.97921167" lon="1.34411333">
        <ele>24.0</ele>
        <time>2020-08-17T17:29:26.712Z</time>
      </trkpt>
      <trkpt lat="38.97908" lon="1.34416333">
        <ele>24.0</ele>
        <time>2020-08-17T17:29:27.713Z</time>
      </trkpt>
      <trkpt lat="38.97908" lon="1.34416333">
        <ele>24.0</ele>
        <time>2020-08-17T17:29:28.712Z</time>
      </trkpt>
      <trkpt lat="38.97895" lon="1.34420667">
        <ele>25.0</ele>
        <time>2020-08-17T17:29:29.731Z</time>
      </trkpt>
      <trkpt lat="38.97895" lon="1.34420667">
        <ele>25.0</ele>
        <time>2020-08-17T17:29:30.721Z</time>
      </trkpt>
      <trkpt lat="38.97881833" lon="1.34425667">
        <ele>25.0</ele>
        <time>2020-08-17T17:29:31.712Z</time>
      </trkpt>
      <trkpt lat="38.97881833" lon="1.34425667">
        <ele>25.0</ele>
        <time>2020-08-17T17:29:32.712Z</time>
      </trkpt>
      <trkpt lat="38.97869" lon="1.34430167">
        <ele>25.0</ele>
        <time>2020-08-17T17:29:33.715Z</time>
      </trkpt>
      <trkpt lat="38.97869" lon="1.34430167">
        <ele>25.0</ele>
        <time>2020-08-17T17:29:34.712Z</time>
      </trkpt>
      <trkpt lat="38.97855667" lon="1.34435333">
        <ele>26.0</ele>
        <time>2020-08-17T17:29:35.715Z</time>
      </trkpt>
      <trkpt lat="38.978495" lon="1.34437667">
        <ele>27.0</ele>
        <time>2020-08-17T17:29:36.713Z</time>
      </trkpt>
      <trkpt lat="38.97843" lon="1.34440167">
        <ele>27.0</ele>
        <time>2020-08-17T17:29:37.715Z</time>
      </trkpt>
      <trkpt lat="38.97843" lon="1.34440167">
        <ele>27.0</ele>
        <time>2020-08-17T17:29:38.712Z</time>
      </trkpt>
      <trkpt lat="38.97830333" lon="1.34444667">
        <ele>27.0</ele>
        <time>2020-08-17T17:29:39.715Z</time>
      </trkpt>
      <trkpt lat="38.97830333" lon="1.34444667">
        <ele>27.0</ele>
        <time>2020-08-17T17:29:40.743Z</time>
      </trkpt>
      <trkpt lat="38.978185" lon="1.34444167">
        <ele>28.0</ele>
        <time>2020-08-17T17:29:41.716Z</time>
      </trkpt>
      <trkpt lat="38.978185" lon="1.34444167">
        <ele>28.0</ele>
        <time>2020-08-17T17:29:42.722Z</time>
      </trkpt>
      <trkpt lat="38.97809" lon="1.344335">
        <ele>28.0</ele>
        <time>2020-08-17T17:29:43.728Z</time>
      </trkpt>
      <trkpt lat="38.97804667" lon="1.34427167">
        <ele>28.0</ele>
        <time>2020-08-17T17:29:44.715Z</time>
      </trkpt>
      <trkpt lat="38.97804667" lon="1.34427167">
        <ele>28.0</ele>
        <time>2020-08-17T17:29:45.712Z</time>
      </trkpt>
      <trkpt lat="38.97795167" lon="1.34414833">
        <ele>27.0</ele>
        <time>2020-08-17T17:29:46.731Z</time>
      </trkpt>
      <trkpt lat="38.97790333" lon="1.34408833">
        <ele>27.0</ele>
        <time>2020-08-17T17:29:47.716Z</time>
      </trkpt>
      <trkpt lat="38.97790333" lon="1.34408833">
        <ele>27.0</ele>
        <time>2020-08-17T17:29:48.713Z</time>
      </trkpt>
      <trkpt lat="38.97780667" lon="1.34396167">
        <ele>27.0</ele>
        <time>2020-08-17T17:29:49.712Z</time>
      </trkpt>
      <trkpt lat="38.97780667" lon="1.34396167">
        <ele>27.0</ele>
        <time>2020-08-17T17:29:50.712Z</time>
      </trkpt>
      <trkpt lat="38.97771333" lon="1.34382833">
        <ele>27.0</ele>
        <time>2020-08-17T17:29:51.731Z</time>
      </trkpt>
      <trkpt lat="38.97771333" lon="1.34382833">
        <ele>27.0</ele>
        <time>2020-08-17T17:29:52.712Z</time>
      </trkpt>
      <trkpt lat="38.977615" lon="1.3437">
        <ele>27.0</ele>
        <time>2020-08-17T17:29:53.731Z</time>
      </trkpt>
      <trkpt lat="38.977615" lon="1.3437">
        <ele>27.0</ele>
        <time>2020-08-17T17:29:54.712Z</time>
      </trkpt>
      <trkpt lat="38.97751333" lon="1.34357167">
        <ele>27.0</ele>
        <time>2020-08-17T17:29:55.731Z</time>
      </trkpt>
      <trkpt lat="38.97751333" lon="1.34357167">
        <ele>27.0</ele>
        <time>2020-08-17T17:29:56.718Z</time>
      </trkpt>
      <trkpt lat="38.97741167" lon="1.34344">
        <ele>26.0</ele>
        <time>2020-08-17T17:29:57.712Z</time>
      </trkpt>
      <trkpt lat="38.97736" lon="1.34337667">
        <ele>27.0</ele>
        <time>2020-08-17T17:29:58.713Z</time>
      </trkpt>
      <trkpt lat="38.97730833" lon="1.34331">
        <ele>27.0</ele>
        <time>2020-08-17T17:29:59.714Z</time>
      </trkpt>
      <trkpt lat="38.97730833" lon="1.34331">
        <ele>27.0</ele>
        <time>2020-08-17T17:30:00.712Z</time>
      </trkpt>
      <trkpt lat="38.97720667" lon="1.34317833">
        <ele>27.0</ele>
        <time>2020-08-17T17:30:01.732Z</time>
      </trkpt>
      <trkpt lat="38.97720667" lon="1.34317833">
        <ele>27.0</ele>
        <time>2020-08-17T17:30:02.712Z</time>
      </trkpt>
      <trkpt lat="38.9771" lon="1.34305167">
        <ele>27.0</ele>
        <time>2020-08-17T17:30:03.715Z</time>
      </trkpt>
      <trkpt lat="38.97703167" lon="1.34300667">
        <ele>26.0</ele>
        <time>2020-08-17T17:30:04.715Z</time>
      </trkpt>
      <trkpt lat="38.97696" lon="1.34298333">
        <ele>26.0</ele>
        <time>2020-08-17T17:30:05.712Z</time>
      </trkpt>
      <trkpt lat="38.97696" lon="1.34298333">
        <ele>26.0</ele>
        <time>2020-08-17T17:30:06.732Z</time>
      </trkpt>
      <trkpt lat="38.97681833" lon="1.342985">
        <ele>26.0</ele>
        <time>2020-08-17T17:30:07.716Z</time>
      </trkpt>
      <trkpt lat="38.97681833" lon="1.342985">
        <ele>26.0</ele>
        <time>2020-08-17T17:30:08.712Z</time>
      </trkpt>
      <trkpt lat="38.976685" lon="1.343015">
        <ele>26.0</ele>
        <time>2020-08-17T17:30:09.732Z</time>
      </trkpt>
      <trkpt lat="38.97661667" lon="1.34303">
        <ele>26.0</ele>
        <time>2020-08-17T17:30:10.746Z</time>
      </trkpt>
      <trkpt lat="38.97655167" lon="1.34304833">
        <ele>26.0</ele>
        <time>2020-08-17T17:30:11.726Z</time>
      </trkpt>
      <trkpt lat="38.97655167" lon="1.34304833">
        <ele>26.0</ele>
        <time>2020-08-17T17:30:12.712Z</time>
      </trkpt>
      <trkpt lat="38.97642667" lon="1.34308333">
        <ele>27.0</ele>
        <time>2020-08-17T17:30:13.713Z</time>
      </trkpt>
      <trkpt lat="38.97642667" lon="1.34308333">
        <ele>27.0</ele>
        <time>2020-08-17T17:30:14.715Z</time>
      </trkpt>
      <trkpt lat="38.97629833" lon="1.343115">
        <ele>28.0</ele>
        <time>2020-08-17T17:30:15.712Z</time>
      </trkpt>
      <trkpt lat="38.97629833" lon="1.343115">
        <ele>28.0</ele>
        <time>2020-08-17T17:30:16.718Z</time>
      </trkpt>
      <trkpt lat="38.97617167" lon="1.343145">
        <ele>28.0</ele>
        <time>2020-08-17T17:30:17.715Z</time>
      </trkpt>
      <trkpt lat="38.97617167" lon="1.343145">
        <ele>28.0</ele>
        <time>2020-08-17T17:30:18.712Z</time>
      </trkpt>
      <trkpt lat="38.97605667" lon="1.34317333">
        <ele>29.0</ele>
        <time>2020-08-17T17:30:19.721Z</time>
      </trkpt>
      <trkpt lat="38.97605667" lon="1.34317333">
        <ele>29.0</ele>
        <time>2020-08-17T17:30:20.712Z</time>
      </trkpt>
      <trkpt lat="38.97595" lon="1.34318833">
        <ele>30.0</ele>
        <time>2020-08-17T17:30:21.732Z</time>
      </trkpt>
      <trkpt lat="38.97595" lon="1.34318833">
        <ele>30.0</ele>
        <time>2020-08-17T17:30:22.712Z</time>
      </trkpt>
      <trkpt lat="38.97584167" lon="1.34317833">
        <ele>31.0</ele>
        <time>2020-08-17T17:30:23.716Z</time>
      </trkpt>
      <trkpt lat="38.97584167" lon="1.34317833">
        <ele>31.0</ele>
        <time>2020-08-17T17:30:24.714Z</time>
      </trkpt>
      <trkpt lat="38.97573" lon="1.34315167">
        <ele>32.0</ele>
        <time>2020-08-17T17:30:25.742Z</time>
      </trkpt>
      <trkpt lat="38.97567667" lon="1.34313667">
        <ele>32.0</ele>
        <time>2020-08-17T17:30:26.740Z</time>
      </trkpt>
      <trkpt lat="38.97562167" lon="1.34311833">
        <ele>32.0</ele>
        <time>2020-08-17T17:30:27.724Z</time>
      </trkpt>
      <trkpt lat="38.97562167" lon="1.34311833">
        <ele>32.0</ele>
        <time>2020-08-17T17:30:28.712Z</time>
      </trkpt>
      <trkpt lat="38.97550667" lon="1.343075">
        <ele>33.0</ele>
        <time>2020-08-17T17:30:29.732Z</time>
      </trkpt>
      <trkpt lat="38.975445" lon="1.343055">
        <ele>33.0</ele>
        <time>2020-08-17T17:30:30.721Z</time>
      </trkpt>
      <trkpt lat="38.975445" lon="1.343055">
        <ele>33.0</ele>
        <time>2020-08-17T17:30:31.747Z</time>
      </trkpt>
      <trkpt lat="38.97532333" lon="1.34300333">
        <ele>32.0</ele>
        <time>2020-08-17T17:30:32.726Z</time>
      </trkpt>
      <trkpt lat="38.97526167" lon="1.342975">
        <ele>33.0</ele>
        <time>2020-08-17T17:30:33.748Z</time>
      </trkpt>
      <trkpt lat="38.97526167" lon="1.342975">
        <ele>33.0</ele>
        <time>2020-08-17T17:30:34.729Z</time>
      </trkpt>
      <trkpt lat="38.97513333" lon="1.34291667">
        <ele>33.0</ele>
        <time>2020-08-17T17:30:35.716Z</time>
      </trkpt>
      <trkpt lat="38.97513333" lon="1.34291667">
        <ele>33.0</ele>
        <time>2020-08-17T17:30:36.713Z</time>
      </trkpt>
      <trkpt lat="38.97500833" lon="1.34285333">
        <ele>33.0</ele>
        <time>2020-08-17T17:30:37.733Z</time>
      </trkpt>
      <trkpt lat="38.97500833" lon="1.34285333">
        <ele>33.0</ele>
        <time>2020-08-17T17:30:38.713Z</time>
      </trkpt>
      <trkpt lat="38.97488667" lon="1.34277833">
        <ele>34.0</ele>
        <time>2020-08-17T17:30:39.715Z</time>
      </trkpt>
      <trkpt lat="38.97488667" lon="1.34277833">
        <ele>34.0</ele>
        <time>2020-08-17T17:30:40.742Z</time>
      </trkpt>
      <trkpt lat="38.97477" lon="1.3427">
        <ele>34.0</ele>
        <time>2020-08-17T17:30:41.725Z</time>
      </trkpt>
      <trkpt lat="38.97477" lon="1.3427">
        <ele>34.0</ele>
        <time>2020-08-17T17:30:42.711Z</time>
      </trkpt>
      <trkpt lat="38.97465167" lon="1.34262167">
        <ele>34.0</ele>
        <time>2020-08-17T17:30:43.731Z</time>
      </trkpt>
      <trkpt lat="38.97459667" lon="1.34258">
        <ele>34.0</ele>
        <time>2020-08-17T17:30:44.715Z</time>
      </trkpt>
      <trkpt lat="38.97459667" lon="1.34258">
        <ele>34.0</ele>
        <time>2020-08-17T17:30:45.712Z</time>
      </trkpt>
      <trkpt lat="38.97448833" lon="1.34250167">
        <ele>35.0</ele>
        <time>2020-08-17T17:30:46.731Z</time>
      </trkpt>
      <trkpt lat="38.974435" lon="1.342465">
        <ele>35.0</ele>
        <time>2020-08-17T17:30:47.714Z</time>
      </trkpt>
      <trkpt lat="38.974435" lon="1.342465">
        <ele>35.0</ele>
        <time>2020-08-17T17:30:48.712Z</time>
      </trkpt>
      <trkpt lat="38.97433333" lon="1.34239167">
        <ele>35.0</ele>
        <time>2020-08-17T17:30:49.715Z</time>
      </trkpt>
      <trkpt lat="38.97433333" lon="1.34239167">
        <ele>35.0</ele>
        <time>2020-08-17T17:30:50.712Z</time>
      </trkpt>
      <trkpt lat="38.974225" lon="1.34231333">
        <ele>34.0</ele>
        <time>2020-08-17T17:30:51.715Z</time>
      </trkpt>
      <trkpt lat="38.974225" lon="1.34231333">
        <ele>34.0</ele>
        <time>2020-08-17T17:30:52.713Z</time>
      </trkpt>
      <trkpt lat="38.97411333" lon="1.34223167">
        <ele>34.0</ele>
        <time>2020-08-17T17:30:53.715Z</time>
      </trkpt>
      <trkpt lat="38.97411333" lon="1.34223167">
        <ele>34.0</ele>
        <time>2020-08-17T17:30:54.714Z</time>
      </trkpt>
      <trkpt lat="38.97399" lon="1.34216167">
        <ele>34.0</ele>
        <time>2020-08-17T17:30:55.714Z</time>
      </trkpt>
      <trkpt lat="38.97399" lon="1.34216167">
        <ele>34.0</ele>
        <time>2020-08-17T17:30:56.729Z</time>
      </trkpt>
      <trkpt lat="38.97386833" lon="1.34208667">
        <ele>34.0</ele>
        <time>2020-08-17T17:30:57.724Z</time>
      </trkpt>
      <trkpt lat="38.97386833" lon="1.34208667">
        <ele>34.0</ele>
        <time>2020-08-17T17:30:58.744Z</time>
      </trkpt>
      <trkpt lat="38.97374" lon="1.34201667">
        <ele>33.0</ele>
        <time>2020-08-17T17:30:59.724Z</time>
      </trkpt>
      <trkpt lat="38.97374" lon="1.34201667">
        <ele>33.0</ele>
        <time>2020-08-17T17:31:00.727Z</time>
      </trkpt>
      <trkpt lat="38.973605" lon="1.34195667">
        <ele>32.0</ele>
        <time>2020-08-17T17:31:01.717Z</time>
      </trkpt>
      <trkpt lat="38.973605" lon="1.34195667">
        <ele>32.0</ele>
        <time>2020-08-17T17:31:02.713Z</time>
      </trkpt>
      <trkpt lat="38.973475" lon="1.341885">
        <ele>32.0</ele>
        <time>2020-08-17T17:31:03.714Z</time>
      </trkpt>
      <trkpt lat="38.973475" lon="1.341885">
        <ele>32.0</ele>
        <time>2020-08-17T17:31:04.713Z</time>
      </trkpt>
      <trkpt lat="38.97335667" lon="1.34181833">
        <ele>32.0</ele>
        <time>2020-08-17T17:31:05.716Z</time>
      </trkpt>
      <trkpt lat="38.97335667" lon="1.34181833">
        <ele>32.0</ele>
        <time>2020-08-17T17:31:06.718Z</time>
      </trkpt>
      <trkpt lat="38.97325833" lon="1.34179667">
        <ele>32.0</ele>
        <time>2020-08-17T17:31:07.742Z</time>
      </trkpt>
      <trkpt lat="38.97325833" lon="1.34179667">
        <ele>32.0</ele>
        <time>2020-08-17T17:31:08.721Z</time>
      </trkpt>
      <trkpt lat="38.97317" lon="1.34184167">
        <ele>31.0</ele>
        <time>2020-08-17T17:31:09.712Z</time>
      </trkpt>
      <trkpt lat="38.97317" lon="1.34184167">
        <ele>31.0</ele>
        <time>2020-08-17T17:31:10.713Z</time>
      </trkpt>
      <trkpt lat="38.97309833" lon="1.34194167">
        <ele>31.0</ele>
        <time>2020-08-17T17:31:11.713Z</time>
      </trkpt>
      <trkpt lat="38.97309833" lon="1.34194167">
        <ele>31.0</ele>
        <time>2020-08-17T17:31:12.741Z</time>
      </trkpt>
      <trkpt lat="38.97306" lon="1.34207333">
        <ele>31.0</ele>
        <time>2020-08-17T17:31:13.721Z</time>
      </trkpt>
      <trkpt lat="38.97304833" lon="1.34214167">
        <ele>32.0</ele>
        <time>2020-08-17T17:31:14.714Z</time>
      </trkpt>
      <trkpt lat="38.97304833" lon="1.34214167">
        <ele>32.0</ele>
        <time>2020-08-17T17:31:15.713Z</time>
      </trkpt>
      <trkpt lat="38.97302333" lon="1.34229167">
        <ele>33.0</ele>
        <time>2020-08-17T17:31:16.747Z</time>
      </trkpt>
      <trkpt lat="38.97301" lon="1.342365">
        <ele>33.0</ele>
        <time>2020-08-17T17:31:17.729Z</time>
      </trkpt>
      <trkpt lat="38.97301" lon="1.342365">
        <ele>33.0</ele>
        <time>2020-08-17T17:31:18.716Z</time>
      </trkpt>
      <trkpt lat="38.97297667" lon="1.34251333">
        <ele>33.0</ele>
        <time>2020-08-17T17:31:19.713Z</time>
      </trkpt>
      <trkpt lat="38.97297667" lon="1.34251333">
        <ele>33.0</ele>
        <time>2020-08-17T17:31:20.713Z</time>
      </trkpt>
      <trkpt lat="38.972945" lon="1.34266167">
        <ele>34.0</ele>
        <time>2020-08-17T17:31:21.738Z</time>
      </trkpt>
      <trkpt lat="38.97292833" lon="1.34273667">
        <ele>34.0</ele>
        <time>2020-08-17T17:31:22.718Z</time>
      </trkpt>
      <trkpt lat="38.97291333" lon="1.34281333">
        <ele>34.0</ele>
        <time>2020-08-17T17:31:23.715Z</time>
      </trkpt>
      <trkpt lat="38.97291333" lon="1.34281333">
        <ele>34.0</ele>
        <time>2020-08-17T17:31:24.712Z</time>
      </trkpt>
      <trkpt lat="38.97288" lon="1.34296333">
        <ele>35.0</ele>
        <time>2020-08-17T17:31:25.748Z</time>
      </trkpt>
      <trkpt lat="38.97288" lon="1.34296333">
        <ele>35.0</ele>
        <time>2020-08-17T17:31:26.728Z</time>
      </trkpt>
      <trkpt lat="38.97284833" lon="1.34311833">
        <ele>35.0</ele>
        <time>2020-08-17T17:31:27.716Z</time>
      </trkpt>
      <trkpt lat="38.97283167" lon="1.343195">
        <ele>35.0</ele>
        <time>2020-08-17T17:31:28.714Z</time>
      </trkpt>
      <trkpt lat="38.97281667" lon="1.34327167">
        <ele>36.0</ele>
        <time>2020-08-17T17:31:29.715Z</time>
      </trkpt>
      <trkpt lat="38.97281667" lon="1.34327167">
        <ele>36.0</ele>
        <time>2020-08-17T17:31:30.743Z</time>
      </trkpt>
      <trkpt lat="38.972785" lon="1.34342333">
        <ele>36.0</ele>
        <time>2020-08-17T17:31:31.722Z</time>
      </trkpt>
      <trkpt lat="38.97277" lon="1.3435">
        <ele>36.0</ele>
        <time>2020-08-17T17:31:32.714Z</time>
      </trkpt>
      <trkpt lat="38.97277" lon="1.3435">
        <ele>36.0</ele>
        <time>2020-08-17T17:31:33.728Z</time>
      </trkpt>
      <trkpt lat="38.97273833" lon="1.34365167">
        <ele>37.0</ele>
        <time>2020-08-17T17:31:34.714Z</time>
      </trkpt>
      <trkpt lat="38.97272333" lon="1.34372833">
        <ele>37.0</ele>
        <time>2020-08-17T17:31:35.713Z</time>
      </trkpt>
      <trkpt lat="38.97272333" lon="1.34372833">
        <ele>37.0</ele>
        <time>2020-08-17T17:31:36.727Z</time>
      </trkpt>
      <trkpt lat="38.97268833" lon="1.34388333">
        <ele>38.0</ele>
        <time>2020-08-17T17:31:37.712Z</time>
      </trkpt>
      <trkpt lat="38.97268833" lon="1.34388333">
        <ele>38.0</ele>
        <time>2020-08-17T17:31:38.715Z</time>
      </trkpt>
      <trkpt lat="38.97265667" lon="1.344035">
        <ele>39.0</ele>
        <time>2020-08-17T17:31:39.712Z</time>
      </trkpt>
      <trkpt lat="38.972625" lon="1.34419">
        <ele>39.0</ele>
        <time>2020-08-17T17:31:40.745Z</time>
      </trkpt>
      <trkpt lat="38.972625" lon="1.34419">
        <ele>39.0</ele>
        <time>2020-08-17T17:31:41.719Z</time>
      </trkpt>
      <trkpt lat="38.97261" lon="1.34426667">
        <ele>40.0</ele>
        <time>2020-08-17T17:31:42.713Z</time>
      </trkpt>
      <trkpt lat="38.97259667" lon="1.34434167">
        <ele>40.0</ele>
        <time>2020-08-17T17:31:43.749Z</time>
      </trkpt>
      <trkpt lat="38.97259667" lon="1.34434167">
        <ele>40.0</ele>
        <time>2020-08-17T17:31:44.728Z</time>
      </trkpt>
      <trkpt lat="38.972565" lon="1.34449167">
        <ele>41.0</ele>
        <time>2020-08-17T17:31:45.748Z</time>
      </trkpt>
      <trkpt lat="38.97254667" lon="1.34456667">
        <ele>41.0</ele>
        <time>2020-08-17T17:31:46.728Z</time>
      </trkpt>
      <trkpt lat="38.97253" lon="1.34464333">
        <ele>41.0</ele>
        <time>2020-08-17T17:31:47.716Z</time>
      </trkpt>
      <trkpt lat="38.97253" lon="1.34464333">
        <ele>41.0</ele>
        <time>2020-08-17T17:31:48.749Z</time>
      </trkpt>
      <trkpt lat="38.9725" lon="1.34479333">
        <ele>42.0</ele>
        <time>2020-08-17T17:31:49.730Z</time>
      </trkpt>
      <trkpt lat="38.9725" lon="1.34479333">
        <ele>42.0</ele>
        <time>2020-08-17T17:31:50.712Z</time>
      </trkpt>
      <trkpt lat="38.97246833" lon="1.344945">
        <ele>42.0</ele>
        <time>2020-08-17T17:31:51.732Z</time>
      </trkpt>
      <trkpt lat="38.97246833" lon="1.344945">
        <ele>42.0</ele>
        <time>2020-08-17T17:31:52.712Z</time>
      </trkpt>
      <trkpt lat="38.97243667" lon="1.345095">
        <ele>42.0</ele>
        <time>2020-08-17T17:31:53.732Z</time>
      </trkpt>
      <trkpt lat="38.97243667" lon="1.345095">
        <ele>42.0</ele>
        <time>2020-08-17T17:31:54.711Z</time>
      </trkpt>
      <trkpt lat="38.97240667" lon="1.34524167">
        <ele>43.0</ele>
        <time>2020-08-17T17:31:55.730Z</time>
      </trkpt>
      <trkpt lat="38.97240667" lon="1.34524167">
        <ele>43.0</ele>
        <time>2020-08-17T17:31:56.714Z</time>
      </trkpt>
      <trkpt lat="38.972375" lon="1.34538667">
        <ele>43.0</ele>
        <time>2020-08-17T17:31:57.715Z</time>
      </trkpt>
      <trkpt lat="38.972375" lon="1.34538667">
        <ele>43.0</ele>
        <time>2020-08-17T17:31:58.746Z</time>
      </trkpt>
      <trkpt lat="38.972345" lon="1.34553167">
        <ele>43.0</ele>
        <time>2020-08-17T17:31:59.726Z</time>
      </trkpt>
      <trkpt lat="38.972345" lon="1.34553167">
        <ele>43.0</ele>
        <time>2020-08-17T17:32:00.720Z</time>
      </trkpt>
      <trkpt lat="38.97231667" lon="1.34567833">
        <ele>44.0</ele>
        <time>2020-08-17T17:32:01.712Z</time>
      </trkpt>
      <trkpt lat="38.97231667" lon="1.34567833">
        <ele>44.0</ele>
        <time>2020-08-17T17:32:02.732Z</time>
      </trkpt>
      <trkpt lat="38.97228667" lon="1.34582333">
        <ele>44.0</ele>
        <time>2020-08-17T17:32:03.715Z</time>
      </trkpt>
      <trkpt lat="38.97227167" lon="1.34589667">
        <ele>44.0</ele>
        <time>2020-08-17T17:32:04.715Z</time>
      </trkpt>
      <trkpt lat="38.972255" lon="1.34597">
        <ele>45.0</ele>
        <time>2020-08-17T17:32:05.745Z</time>
      </trkpt>
      <trkpt lat="38.972255" lon="1.34597">
        <ele>45.0</ele>
        <time>2020-08-17T17:32:06.723Z</time>
      </trkpt>
      <trkpt lat="38.97222333" lon="1.34611667">
        <ele>45.0</ele>
        <time>2020-08-17T17:32:07.711Z</time>
      </trkpt>
      <trkpt lat="38.97220833" lon="1.34619">
        <ele>45.0</ele>
        <time>2020-08-17T17:32:08.723Z</time>
      </trkpt>
      <trkpt lat="38.97220833" lon="1.34619">
        <ele>45.0</ele>
        <time>2020-08-17T17:32:09.713Z</time>
      </trkpt>
      <trkpt lat="38.97217833" lon="1.34633833">
        <ele>46.0</ele>
        <time>2020-08-17T17:32:10.742Z</time>
      </trkpt>
      <trkpt lat="38.97217833" lon="1.34633833">
        <ele>46.0</ele>
        <time>2020-08-17T17:32:11.721Z</time>
      </trkpt>
      <trkpt lat="38.97214667" lon="1.346485">
        <ele>46.0</ele>
        <time>2020-08-17T17:32:12.728Z</time>
      </trkpt>
      <trkpt lat="38.97212667" lon="1.34655833">
        <ele>46.0</ele>
        <time>2020-08-17T17:32:13.713Z</time>
      </trkpt>
      <trkpt lat="38.97212667" lon="1.34655833">
        <ele>46.0</ele>
        <time>2020-08-17T17:32:14.753Z</time>
      </trkpt>
      <trkpt lat="38.972095" lon="1.346705">
        <ele>47.0</ele>
        <time>2020-08-17T17:32:15.731Z</time>
      </trkpt>
      <trkpt lat="38.972095" lon="1.346705">
        <ele>47.0</ele>
        <time>2020-08-17T17:32:16.713Z</time>
      </trkpt>
      <trkpt lat="38.972065" lon="1.34685167">
        <ele>47.0</ele>
        <time>2020-08-17T17:32:17.730Z</time>
      </trkpt>
      <trkpt lat="38.972065" lon="1.34685167">
        <ele>47.0</ele>
        <time>2020-08-17T17:32:18.713Z</time>
      </trkpt>
      <trkpt lat="38.972035" lon="1.34699833">
        <ele>48.0</ele>
        <time>2020-08-17T17:32:19.741Z</time>
      </trkpt>
      <trkpt lat="38.97202167" lon="1.34707333">
        <ele>49.0</ele>
        <time>2020-08-17T17:32:20.721Z</time>
      </trkpt>
      <trkpt lat="38.97200667" lon="1.34714833">
        <ele>49.0</ele>
        <time>2020-08-17T17:32:21.714Z</time>
      </trkpt>
      <trkpt lat="38.97200667" lon="1.34714833">
        <ele>49.0</ele>
        <time>2020-08-17T17:32:22.748Z</time>
      </trkpt>
      <trkpt lat="38.971975" lon="1.3473">
        <ele>49.0</ele>
        <time>2020-08-17T17:32:23.727Z</time>
      </trkpt>
      <trkpt lat="38.971975" lon="1.3473">
        <ele>49.0</ele>
        <time>2020-08-17T17:32:24.746Z</time>
      </trkpt>
      <trkpt lat="38.97194167" lon="1.34745">
        <ele>50.0</ele>
        <time>2020-08-17T17:32:25.726Z</time>
      </trkpt>
      <trkpt lat="38.97194167" lon="1.34745">
        <ele>50.0</ele>
        <time>2020-08-17T17:32:26.712Z</time>
      </trkpt>
      <trkpt lat="38.97191333" lon="1.34760333">
        <ele>51.0</ele>
        <time>2020-08-17T17:32:27.715Z</time>
      </trkpt>
      <trkpt lat="38.97190167" lon="1.34767833">
        <ele>52.0</ele>
        <time>2020-08-17T17:32:28.712Z</time>
      </trkpt>
      <trkpt lat="38.97188833" lon="1.347755">
        <ele>52.0</ele>
        <time>2020-08-17T17:32:29.731Z</time>
      </trkpt>
      <trkpt lat="38.97188833" lon="1.347755">
        <ele>52.0</ele>
        <time>2020-08-17T17:32:30.713Z</time>
      </trkpt>
      <trkpt lat="38.97185333" lon="1.34790667">
        <ele>52.0</ele>
        <time>2020-08-17T17:32:31.712Z</time>
      </trkpt>
      <trkpt lat="38.97185333" lon="1.34790667">
        <ele>52.0</ele>
        <time>2020-08-17T17:32:32.715Z</time>
      </trkpt>
      <trkpt lat="38.97181833" lon="1.34806167">
        <ele>53.0</ele>
        <time>2020-08-17T17:32:33.712Z</time>
      </trkpt>
      <trkpt lat="38.97181833" lon="1.34806167">
        <ele>53.0</ele>
        <time>2020-08-17T17:32:34.731Z</time>
      </trkpt>
      <trkpt lat="38.97178833" lon="1.34821833">
        <ele>53.0</ele>
        <time>2020-08-17T17:32:35.714Z</time>
      </trkpt>
      <trkpt lat="38.97178833" lon="1.34821833">
        <ele>53.0</ele>
        <time>2020-08-17T17:32:36.714Z</time>
      </trkpt>
      <trkpt lat="38.97175333" lon="1.34837167">
        <ele>54.0</ele>
        <time>2020-08-17T17:32:37.715Z</time>
      </trkpt>
      <trkpt lat="38.97175333" lon="1.34837167">
        <ele>54.0</ele>
        <time>2020-08-17T17:32:38.712Z</time>
      </trkpt>
      <trkpt lat="38.971725" lon="1.348525">
        <ele>55.0</ele>
        <time>2020-08-17T17:32:39.731Z</time>
      </trkpt>
      <trkpt lat="38.97171167" lon="1.34860333">
        <ele>55.0</ele>
        <time>2020-08-17T17:32:40.717Z</time>
      </trkpt>
      <trkpt lat="38.97171167" lon="1.34860333">
        <ele>55.0</ele>
        <time>2020-08-17T17:32:41.740Z</time>
      </trkpt>
      <trkpt lat="38.97168" lon="1.34875333">
        <ele>55.0</ele>
        <time>2020-08-17T17:32:42.748Z</time>
      </trkpt>
      <trkpt lat="38.97168" lon="1.34875333">
        <ele>55.0</ele>
        <time>2020-08-17T17:32:43.714Z</time>
      </trkpt>
      <trkpt lat="38.97164167" lon="1.3489">
        <ele>56.0</ele>
        <time>2020-08-17T17:32:44.715Z</time>
      </trkpt>
      <trkpt lat="38.97164167" lon="1.3489">
        <ele>56.0</ele>
        <time>2020-08-17T17:32:45.724Z</time>
      </trkpt>
      <trkpt lat="38.97161" lon="1.34905">
        <ele>56.0</ele>
        <time>2020-08-17T17:32:46.728Z</time>
      </trkpt>
      <trkpt lat="38.971595" lon="1.349125">
        <ele>57.0</ele>
        <time>2020-08-17T17:32:47.718Z</time>
      </trkpt>
      <trkpt lat="38.971595" lon="1.349125">
        <ele>57.0</ele>
        <time>2020-08-17T17:32:48.713Z</time>
      </trkpt>
      <trkpt lat="38.97156333" lon="1.34927667">
        <ele>57.0</ele>
        <time>2020-08-17T17:32:49.714Z</time>
      </trkpt>
      <trkpt lat="38.97156333" lon="1.34927667">
        <ele>57.0</ele>
        <time>2020-08-17T17:32:50.713Z</time>
      </trkpt>
      <trkpt lat="38.971535" lon="1.349425">
        <ele>58.0</ele>
        <time>2020-08-17T17:32:51.713Z</time>
      </trkpt>
      <trkpt lat="38.97152167" lon="1.3495">
        <ele>58.0</ele>
        <time>2020-08-17T17:32:52.715Z</time>
      </trkpt>
      <trkpt lat="38.97152167" lon="1.3495">
        <ele>58.0</ele>
        <time>2020-08-17T17:32:53.712Z</time>
      </trkpt>
      <trkpt lat="38.97149167" lon="1.349645">
        <ele>59.0</ele>
        <time>2020-08-17T17:32:54.732Z</time>
      </trkpt>
      <trkpt lat="38.97149167" lon="1.349645">
        <ele>59.0</ele>
        <time>2020-08-17T17:32:55.713Z</time>
      </trkpt>
      <trkpt lat="38.97146" lon="1.34979">
        <ele>59.0</ele>
        <time>2020-08-17T17:32:56.712Z</time>
      </trkpt>
      <trkpt lat="38.97146" lon="1.34979">
        <ele>59.0</ele>
        <time>2020-08-17T17:32:57.744Z</time>
      </trkpt>
      <trkpt lat="38.97142833" lon="1.34993333">
        <ele>60.0</ele>
        <time>2020-08-17T17:32:58.725Z</time>
      </trkpt>
      <trkpt lat="38.97142833" lon="1.34993333">
        <ele>60.0</ele>
        <time>2020-08-17T17:32:59.714Z</time>
      </trkpt>
      <trkpt lat="38.97140833" lon="1.35007333">
        <ele>60.0</ele>
        <time>2020-08-17T17:33:00.725Z</time>
      </trkpt>
      <trkpt lat="38.97139833" lon="1.35013833">
        <ele>60.0</ele>
        <time>2020-08-17T17:33:01.713Z</time>
      </trkpt>
      <trkpt lat="38.97139833" lon="1.35013833">
        <ele>60.0</ele>
        <time>2020-08-17T17:33:02.713Z</time>
      </trkpt>
      <trkpt lat="38.97133333" lon="1.35022833">
        <ele>61.0</ele>
        <time>2020-08-17T17:33:03.732Z</time>
      </trkpt>
      <trkpt lat="38.97133333" lon="1.35022833">
        <ele>61.0</ele>
        <time>2020-08-17T17:33:04.713Z</time>
      </trkpt>
      <trkpt lat="38.97124167" lon="1.35025">
        <ele>61.0</ele>
        <time>2020-08-17T17:33:05.733Z</time>
      </trkpt>
      <trkpt lat="38.97124167" lon="1.35025">
        <ele>61.0</ele>
        <time>2020-08-17T17:33:06.714Z</time>
      </trkpt>
      <trkpt lat="38.97113333" lon="1.35024167">
        <ele>61.0</ele>
        <time>2020-08-17T17:33:07.742Z</time>
      </trkpt>
      <trkpt lat="38.97108" lon="1.350265">
        <ele>61.0</ele>
        <time>2020-08-17T17:33:08.721Z</time>
      </trkpt>
      <trkpt lat="38.97108" lon="1.350265">
        <ele>61.0</ele>
        <time>2020-08-17T17:33:09.713Z</time>
      </trkpt>
      <trkpt lat="38.97098333" lon="1.35036">
        <ele>61.0</ele>
        <time>2020-08-17T17:33:10.715Z</time>
      </trkpt>
      <trkpt lat="38.97098333" lon="1.35036">
        <ele>61.0</ele>
        <time>2020-08-17T17:33:11.714Z</time>
      </trkpt>
      <trkpt lat="38.97093167" lon="1.350505">
        <ele>60.0</ele>
        <time>2020-08-17T17:33:12.747Z</time>
      </trkpt>
      <trkpt lat="38.97093167" lon="1.350505">
        <ele>60.0</ele>
        <time>2020-08-17T17:33:13.727Z</time>
      </trkpt>
      <trkpt lat="38.970935" lon="1.35067333">
        <ele>60.0</ele>
        <time>2020-08-17T17:33:14.715Z</time>
      </trkpt>
      <trkpt lat="38.970935" lon="1.35067333">
        <ele>60.0</ele>
        <time>2020-08-17T17:33:15.748Z</time>
      </trkpt>
      <trkpt lat="38.97095" lon="1.35084833">
        <ele>60.0</ele>
        <time>2020-08-17T17:33:16.726Z</time>
      </trkpt>
      <trkpt lat="38.97095" lon="1.35084833">
        <ele>60.0</ele>
        <time>2020-08-17T17:33:17.712Z</time>
      </trkpt>
      <trkpt lat="38.97094667" lon="1.35103">
        <ele>60.0</ele>
        <time>2020-08-17T17:33:18.732Z</time>
      </trkpt>
      <trkpt lat="38.97093833" lon="1.35112167">
        <ele>60.0</ele>
        <time>2020-08-17T17:33:19.720Z</time>
      </trkpt>
      <trkpt lat="38.97093833" lon="1.35112167">
        <ele>60.0</ele>
        <time>2020-08-17T17:33:20.715Z</time>
      </trkpt>
      <trkpt lat="38.97091333" lon="1.351305">
        <ele>60.0</ele>
        <time>2020-08-17T17:33:21.716Z</time>
      </trkpt>
      <trkpt lat="38.97091333" lon="1.351305">
        <ele>60.0</ele>
        <time>2020-08-17T17:33:22.721Z</time>
      </trkpt>
      <trkpt lat="38.97088833" lon="1.351495">
        <ele>60.0</ele>
        <time>2020-08-17T17:33:23.713Z</time>
      </trkpt>
      <trkpt lat="38.97088833" lon="1.351495">
        <ele>60.0</ele>
        <time>2020-08-17T17:33:24.710Z</time>
      </trkpt>
      <trkpt lat="38.97086333" lon="1.35168667">
        <ele>60.0</ele>
        <time>2020-08-17T17:33:25.731Z</time>
      </trkpt>
      <trkpt lat="38.97086333" lon="1.35168667">
        <ele>60.0</ele>
        <time>2020-08-17T17:33:26.714Z</time>
      </trkpt>
      <trkpt lat="38.97083333" lon="1.35188333">
        <ele>60.0</ele>
        <time>2020-08-17T17:33:27.717Z</time>
      </trkpt>
      <trkpt lat="38.97081667" lon="1.35198333">
        <ele>59.0</ele>
        <time>2020-08-17T17:33:28.714Z</time>
      </trkpt>
      <trkpt lat="38.97081667" lon="1.35198333">
        <ele>59.0</ele>
        <time>2020-08-17T17:33:29.743Z</time>
      </trkpt>
      <trkpt lat="38.97078333" lon="1.35218333">
        <ele>59.0</ele>
        <time>2020-08-17T17:33:30.724Z</time>
      </trkpt>
      <trkpt lat="38.97078333" lon="1.35218333">
        <ele>59.0</ele>
        <time>2020-08-17T17:33:31.744Z</time>
      </trkpt>
      <trkpt lat="38.97075" lon="1.35238667">
        <ele>59.0</ele>
        <time>2020-08-17T17:33:32.724Z</time>
      </trkpt>
      <trkpt lat="38.97073333" lon="1.35249">
        <ele>59.0</ele>
        <time>2020-08-17T17:33:33.715Z</time>
      </trkpt>
      <trkpt lat="38.97073333" lon="1.35249">
        <ele>59.0</ele>
        <time>2020-08-17T17:33:34.742Z</time>
      </trkpt>
      <trkpt lat="38.97069833" lon="1.35269667">
        <ele>59.0</ele>
        <time>2020-08-17T17:33:35.722Z</time>
      </trkpt>
      <trkpt lat="38.97069833" lon="1.35269667">
        <ele>59.0</ele>
        <time>2020-08-17T17:33:36.713Z</time>
      </trkpt>
      <trkpt lat="38.97066167" lon="1.35290333">
        <ele>59.0</ele>
        <time>2020-08-17T17:33:37.724Z</time>
      </trkpt>
      <trkpt lat="38.97066167" lon="1.35290333">
        <ele>59.0</ele>
        <time>2020-08-17T17:33:38.713Z</time>
      </trkpt>
      <trkpt lat="38.97062667" lon="1.35311167">
        <ele>59.0</ele>
        <time>2020-08-17T17:33:39.732Z</time>
      </trkpt>
      <trkpt lat="38.97062667" lon="1.35311167">
        <ele>59.0</ele>
        <time>2020-08-17T17:33:40.743Z</time>
      </trkpt>
      <trkpt lat="38.97059" lon="1.35332333">
        <ele>59.0</ele>
        <time>2020-08-17T17:33:41.715Z</time>
      </trkpt>
      <trkpt lat="38.97056833" lon="1.35343167">
        <ele>58.0</ele>
        <time>2020-08-17T17:33:42.721Z</time>
      </trkpt>
      <trkpt lat="38.97056833" lon="1.35343167">
        <ele>58.0</ele>
        <time>2020-08-17T17:33:43.744Z</time>
      </trkpt>
      <trkpt lat="38.97052667" lon="1.35364667">
        <ele>58.0</ele>
        <time>2020-08-17T17:33:44.725Z</time>
      </trkpt>
      <trkpt lat="38.97052667" lon="1.35364667">
        <ele>58.0</ele>
        <time>2020-08-17T17:33:45.747Z</time>
      </trkpt>
      <trkpt lat="38.970485" lon="1.35386167">
        <ele>58.0</ele>
        <time>2020-08-17T17:33:46.727Z</time>
      </trkpt>
      <trkpt lat="38.970485" lon="1.35386167">
        <ele>58.0</ele>
        <time>2020-08-17T17:33:47.712Z</time>
      </trkpt>
      <trkpt lat="38.97043667" lon="1.35407833">
        <ele>58.0</ele>
        <time>2020-08-17T17:33:48.731Z</time>
      </trkpt>
      <trkpt lat="38.97043667" lon="1.35407833">
        <ele>58.0</ele>
        <time>2020-08-17T17:33:49.714Z</time>
      </trkpt>
      <trkpt lat="38.97039167" lon="1.35429833">
        <ele>57.0</ele>
        <time>2020-08-17T17:33:50.715Z</time>
      </trkpt>
      <trkpt lat="38.97039167" lon="1.35429833">
        <ele>57.0</ele>
        <time>2020-08-17T17:33:51.713Z</time>
      </trkpt>
      <trkpt lat="38.97034667" lon="1.35452167">
        <ele>57.0</ele>
        <time>2020-08-17T17:33:52.732Z</time>
      </trkpt>
      <trkpt lat="38.97032333" lon="1.35463333">
        <ele>57.0</ele>
        <time>2020-08-17T17:33:53.714Z</time>
      </trkpt>
      <trkpt lat="38.97032333" lon="1.35463333">
        <ele>57.0</ele>
        <time>2020-08-17T17:33:54.713Z</time>
      </trkpt>
      <trkpt lat="38.97027833" lon="1.35485333">
        <ele>57.0</ele>
        <time>2020-08-17T17:33:55.712Z</time>
      </trkpt>
      <trkpt lat="38.97027833" lon="1.35485333">
        <ele>57.0</ele>
        <time>2020-08-17T17:33:56.732Z</time>
      </trkpt>
      <trkpt lat="38.970235" lon="1.35507333">
        <ele>57.0</ele>
        <time>2020-08-17T17:33:57.721Z</time>
      </trkpt>
      <trkpt lat="38.970235" lon="1.35507333">
        <ele>57.0</ele>
        <time>2020-08-17T17:33:58.713Z</time>
      </trkpt>
      <trkpt lat="38.97019" lon="1.35529167">
        <ele>58.0</ele>
        <time>2020-08-17T17:33:59.732Z</time>
      </trkpt>
      <trkpt lat="38.97019" lon="1.35529167">
        <ele>58.0</ele>
        <time>2020-08-17T17:34:00.715Z</time>
      </trkpt>
      <trkpt lat="38.97014667" lon="1.35550833">
        <ele>58.0</ele>
        <time>2020-08-17T17:34:01.746Z</time>
      </trkpt>
      <trkpt lat="38.97014667" lon="1.35550833">
        <ele>58.0</ele>
        <time>2020-08-17T17:34:02.725Z</time>
      </trkpt>
      <trkpt lat="38.97010333" lon="1.35572">
        <ele>58.0</ele>
        <time>2020-08-17T17:34:03.713Z</time>
      </trkpt>
      <trkpt lat="38.97010333" lon="1.35572">
        <ele>58.0</ele>
        <time>2020-08-17T17:34:04.732Z</time>
      </trkpt>
      <trkpt lat="38.97005833" lon="1.35593">
        <ele>58.0</ele>
        <time>2020-08-17T17:34:05.718Z</time>
      </trkpt>
      <trkpt lat="38.97005833" lon="1.35593">
        <ele>58.0</ele>
        <time>2020-08-17T17:34:06.714Z</time>
      </trkpt>
      <trkpt lat="38.970015" lon="1.356135">
        <ele>59.0</ele>
        <time>2020-08-17T17:34:07.748Z</time>
      </trkpt>
      <trkpt lat="38.970015" lon="1.356135">
        <ele>59.0</ele>
        <time>2020-08-17T17:34:08.726Z</time>
      </trkpt>
      <trkpt lat="38.96997167" lon="1.35634">
        <ele>59.0</ele>
        <time>2020-08-17T17:34:09.713Z</time>
      </trkpt>
      <trkpt lat="38.96997167" lon="1.35634">
        <ele>59.0</ele>
        <time>2020-08-17T17:34:10.732Z</time>
      </trkpt>
      <trkpt lat="38.96993" lon="1.35654333">
        <ele>59.0</ele>
        <time>2020-08-17T17:34:11.714Z</time>
      </trkpt>
      <trkpt lat="38.96993" lon="1.35654333">
        <ele>59.0</ele>
        <time>2020-08-17T17:34:12.713Z</time>
      </trkpt>
      <trkpt lat="38.96988833" lon="1.35674667">
        <ele>59.0</ele>
        <time>2020-08-17T17:34:13.718Z</time>
      </trkpt>
      <trkpt lat="38.96988833" lon="1.35674667">
        <ele>59.0</ele>
        <time>2020-08-17T17:34:14.713Z</time>
      </trkpt>
      <trkpt lat="38.969845" lon="1.35694833">
        <ele>60.0</ele>
        <time>2020-08-17T17:34:15.731Z</time>
      </trkpt>
      <trkpt lat="38.969845" lon="1.35694833">
        <ele>60.0</ele>
        <time>2020-08-17T17:34:16.732Z</time>
      </trkpt>
      <trkpt lat="38.96980333" lon="1.35715">
        <ele>60.0</ele>
        <time>2020-08-17T17:34:17.713Z</time>
      </trkpt>
      <trkpt lat="38.96978333" lon="1.35725">
        <ele>60.0</ele>
        <time>2020-08-17T17:34:18.742Z</time>
      </trkpt>
      <trkpt lat="38.96978333" lon="1.35725">
        <ele>60.0</ele>
        <time>2020-08-17T17:34:19.721Z</time>
      </trkpt>
      <trkpt lat="38.96973833" lon="1.35745">
        <ele>60.0</ele>
        <time>2020-08-17T17:34:20.716Z</time>
      </trkpt>
      <trkpt lat="38.96973833" lon="1.35745">
        <ele>60.0</ele>
        <time>2020-08-17T17:34:21.713Z</time>
      </trkpt>
      <trkpt lat="38.96969667" lon="1.35764833">
        <ele>61.0</ele>
        <time>2020-08-17T17:34:22.714Z</time>
      </trkpt>
      <trkpt lat="38.96967667" lon="1.35774833">
        <ele>61.0</ele>
        <time>2020-08-17T17:34:23.734Z</time>
      </trkpt>
      <trkpt lat="38.96967667" lon="1.35774833">
        <ele>61.0</ele>
        <time>2020-08-17T17:34:24.713Z</time>
      </trkpt>
      <trkpt lat="38.969635" lon="1.357945">
        <ele>62.0</ele>
        <time>2020-08-17T17:34:25.717Z</time>
      </trkpt>
      <trkpt lat="38.969635" lon="1.357945">
        <ele>62.0</ele>
        <time>2020-08-17T17:34:26.712Z</time>
      </trkpt>
      <trkpt lat="38.969595" lon="1.35814">
        <ele>62.0</ele>
        <time>2020-08-17T17:34:27.732Z</time>
      </trkpt>
      <trkpt lat="38.969595" lon="1.35814">
        <ele>62.0</ele>
        <time>2020-08-17T17:34:28.714Z</time>
      </trkpt>
      <trkpt lat="38.96955333" lon="1.35833333">
        <ele>62.0</ele>
        <time>2020-08-17T17:34:29.716Z</time>
      </trkpt>
      <trkpt lat="38.96955333" lon="1.35833333">
        <ele>62.0</ele>
        <time>2020-08-17T17:34:30.712Z</time>
      </trkpt>
      <trkpt lat="38.96951833" lon="1.35852667">
        <ele>63.0</ele>
        <time>2020-08-17T17:34:31.732Z</time>
      </trkpt>
      <trkpt lat="38.96951833" lon="1.35852667">
        <ele>63.0</ele>
        <time>2020-08-17T17:34:32.714Z</time>
      </trkpt>
      <trkpt lat="38.96948333" lon="1.35872">
        <ele>64.0</ele>
        <time>2020-08-17T17:34:33.716Z</time>
      </trkpt>
      <trkpt lat="38.96948333" lon="1.35872">
        <ele>64.0</ele>
        <time>2020-08-17T17:34:34.712Z</time>
      </trkpt>
      <trkpt lat="38.969445" lon="1.35891333">
        <ele>64.0</ele>
        <time>2020-08-17T17:34:35.732Z</time>
      </trkpt>
      <trkpt lat="38.969445" lon="1.35891333">
        <ele>64.0</ele>
        <time>2020-08-17T17:34:36.712Z</time>
      </trkpt>
      <trkpt lat="38.96940667" lon="1.35910333">
        <ele>65.0</ele>
        <time>2020-08-17T17:34:37.744Z</time>
      </trkpt>
      <trkpt lat="38.969385" lon="1.3592">
        <ele>65.0</ele>
        <time>2020-08-17T17:34:38.718Z</time>
      </trkpt>
      <trkpt lat="38.969385" lon="1.3592">
        <ele>65.0</ele>
        <time>2020-08-17T17:34:39.712Z</time>
      </trkpt>
      <trkpt lat="38.969345" lon="1.35939167">
        <ele>66.0</ele>
        <time>2020-08-17T17:34:40.736Z</time>
      </trkpt>
      <trkpt lat="38.969325" lon="1.35948833">
        <ele>66.0</ele>
        <time>2020-08-17T17:34:41.721Z</time>
      </trkpt>
      <trkpt lat="38.969305" lon="1.35958333">
        <ele>66.0</ele>
        <time>2020-08-17T17:34:42.730Z</time>
      </trkpt>
      <trkpt lat="38.96928333" lon="1.35967667">
        <ele>67.0</ele>
        <time>2020-08-17T17:34:43.710Z</time>
      </trkpt>
      <trkpt lat="38.96928333" lon="1.35967667">
        <ele>67.0</ele>
        <time>2020-08-17T17:34:44.730Z</time>
      </trkpt>
      <trkpt lat="38.96923667" lon="1.35985833">
        <ele>67.0</ele>
        <time>2020-08-17T17:34:45.713Z</time>
      </trkpt>
      <trkpt lat="38.96921667" lon="1.35994667">
        <ele>67.0</ele>
        <time>2020-08-17T17:34:46.716Z</time>
      </trkpt>
      <trkpt lat="38.96921667" lon="1.35994667">
        <ele>67.0</ele>
        <time>2020-08-17T17:34:47.748Z</time>
      </trkpt>
      <trkpt lat="38.96918" lon="1.36012167">
        <ele>68.0</ele>
        <time>2020-08-17T17:34:48.723Z</time>
      </trkpt>
      <trkpt lat="38.96916167" lon="1.36020833">
        <ele>68.0</ele>
        <time>2020-08-17T17:34:49.712Z</time>
      </trkpt>
      <trkpt lat="38.96916167" lon="1.36020833">
        <ele>68.0</ele>
        <time>2020-08-17T17:34:50.732Z</time>
      </trkpt>
      <trkpt lat="38.969125" lon="1.36038">
        <ele>69.0</ele>
        <time>2020-08-17T17:34:51.716Z</time>
      </trkpt>
      <trkpt lat="38.969125" lon="1.36038">
        <ele>69.0</ele>
        <time>2020-08-17T17:34:52.714Z</time>
      </trkpt>
      <trkpt lat="38.96908833" lon="1.36055167">
        <ele>70.0</ele>
        <time>2020-08-17T17:34:53.715Z</time>
      </trkpt>
      <trkpt lat="38.96908833" lon="1.36055167">
        <ele>70.0</ele>
        <time>2020-08-17T17:34:54.714Z</time>
      </trkpt>
      <trkpt lat="38.969055" lon="1.36071833">
        <ele>70.0</ele>
        <time>2020-08-17T17:34:55.742Z</time>
      </trkpt>
      <trkpt lat="38.969055" lon="1.36071833">
        <ele>70.0</ele>
        <time>2020-08-17T17:34:56.721Z</time>
      </trkpt>
      <trkpt lat="38.96901833" lon="1.360885">
        <ele>71.0</ele>
        <time>2020-08-17T17:34:57.716Z</time>
      </trkpt>
      <trkpt lat="38.96901833" lon="1.360885">
        <ele>71.0</ele>
        <time>2020-08-17T17:34:58.746Z</time>
      </trkpt>
      <trkpt lat="38.96898333" lon="1.36105333">
        <ele>71.0</ele>
        <time>2020-08-17T17:34:59.725Z</time>
      </trkpt>
      <trkpt lat="38.96896667" lon="1.36113667">
        <ele>71.0</ele>
        <time>2020-08-17T17:35:00.715Z</time>
      </trkpt>
      <trkpt lat="38.96895" lon="1.36122">
        <ele>71.0</ele>
        <time>2020-08-17T17:35:01.743Z</time>
      </trkpt>
      <trkpt lat="38.96895" lon="1.36122">
        <ele>71.0</ele>
        <time>2020-08-17T17:35:02.722Z</time>
      </trkpt>
      <trkpt lat="38.968915" lon="1.36139">
        <ele>71.0</ele>
        <time>2020-08-17T17:35:03.716Z</time>
      </trkpt>
      <trkpt lat="38.968915" lon="1.36139">
        <ele>71.0</ele>
        <time>2020-08-17T17:35:04.713Z</time>
      </trkpt>
      <trkpt lat="38.96887667" lon="1.36156333">
        <ele>71.0</ele>
        <time>2020-08-17T17:35:05.733Z</time>
      </trkpt>
      <trkpt lat="38.96887667" lon="1.36156333">
        <ele>71.0</ele>
        <time>2020-08-17T17:35:06.714Z</time>
      </trkpt>
      <trkpt lat="38.96883833" lon="1.36173833">
        <ele>72.0</ele>
        <time>2020-08-17T17:35:07.744Z</time>
      </trkpt>
      <trkpt lat="38.96882" lon="1.36182833">
        <ele>72.0</ele>
        <time>2020-08-17T17:35:08.724Z</time>
      </trkpt>
      <trkpt lat="38.96882" lon="1.36182833">
        <ele>72.0</ele>
        <time>2020-08-17T17:35:09.714Z</time>
      </trkpt>
      <trkpt lat="38.96878333" lon="1.36201">
        <ele>72.0</ele>
        <time>2020-08-17T17:35:10.713Z</time>
      </trkpt>
      <trkpt lat="38.96878333" lon="1.36201">
        <ele>72.0</ele>
        <time>2020-08-17T17:35:11.732Z</time>
      </trkpt>
      <trkpt lat="38.96875" lon="1.36219333">
        <ele>73.0</ele>
        <time>2020-08-17T17:35:12.717Z</time>
      </trkpt>
      <trkpt lat="38.96873167" lon="1.36228667">
        <ele>73.0</ele>
        <time>2020-08-17T17:35:13.717Z</time>
      </trkpt>
      <trkpt lat="38.96873167" lon="1.36228667">
        <ele>73.0</ele>
        <time>2020-08-17T17:35:14.714Z</time>
      </trkpt>
      <trkpt lat="38.968695" lon="1.36247167">
        <ele>73.0</ele>
        <time>2020-08-17T17:35:15.712Z</time>
      </trkpt>
      <trkpt lat="38.968675" lon="1.362565">
        <ele>73.0</ele>
        <time>2020-08-17T17:35:16.735Z</time>
      </trkpt>
      <trkpt lat="38.968675" lon="1.362565">
        <ele>73.0</ele>
        <time>2020-08-17T17:35:17.721Z</time>
      </trkpt>
      <trkpt lat="38.96864" lon="1.36276">
        <ele>73.0</ele>
        <time>2020-08-17T17:35:18.714Z</time>
      </trkpt>
      <trkpt lat="38.96862" lon="1.36286">
        <ele>72.0</ele>
        <time>2020-08-17T17:35:19.710Z</time>
      </trkpt>
      <trkpt lat="38.96862" lon="1.36286">
        <ele>72.0</ele>
        <time>2020-08-17T17:35:20.730Z</time>
      </trkpt>
      <trkpt lat="38.96858167" lon="1.36306167">
        <ele>72.0</ele>
        <time>2020-08-17T17:35:21.718Z</time>
      </trkpt>
      <trkpt lat="38.96858167" lon="1.36306167">
        <ele>72.0</ele>
        <time>2020-08-17T17:35:22.715Z</time>
      </trkpt>
      <trkpt lat="38.96854333" lon="1.36326833">
        <ele>72.0</ele>
        <time>2020-08-17T17:35:23.715Z</time>
      </trkpt>
      <trkpt lat="38.96854333" lon="1.36326833">
        <ele>72.0</ele>
        <time>2020-08-17T17:35:24.748Z</time>
      </trkpt>
      <trkpt lat="38.968505" lon="1.36347833">
        <ele>71.0</ele>
        <time>2020-08-17T17:35:25.730Z</time>
      </trkpt>
      <trkpt lat="38.968505" lon="1.36347833">
        <ele>71.0</ele>
        <time>2020-08-17T17:35:26.713Z</time>
      </trkpt>
      <trkpt lat="38.968465" lon="1.36368833">
        <ele>71.0</ele>
        <time>2020-08-17T17:35:27.715Z</time>
      </trkpt>
      <trkpt lat="38.968465" lon="1.36368833">
        <ele>71.0</ele>
        <time>2020-08-17T17:35:28.713Z</time>
      </trkpt>
      <trkpt lat="38.96842833" lon="1.36389833">
        <ele>71.0</ele>
        <time>2020-08-17T17:35:29.733Z</time>
      </trkpt>
      <trkpt lat="38.96840833" lon="1.36400333">
        <ele>71.0</ele>
        <time>2020-08-17T17:35:30.718Z</time>
      </trkpt>
      <trkpt lat="38.96839" lon="1.36410833">
        <ele>70.0</ele>
        <time>2020-08-17T17:35:31.717Z</time>
      </trkpt>
      <trkpt lat="38.96839" lon="1.36410833">
        <ele>70.0</ele>
        <time>2020-08-17T17:35:32.714Z</time>
      </trkpt>
      <trkpt lat="38.968355" lon="1.36431667">
        <ele>71.0</ele>
        <time>2020-08-17T17:35:33.716Z</time>
      </trkpt>
      <trkpt lat="38.96833667" lon="1.36442">
        <ele>71.0</ele>
        <time>2020-08-17T17:35:34.743Z</time>
      </trkpt>
      <trkpt lat="38.96833667" lon="1.36442">
        <ele>71.0</ele>
        <time>2020-08-17T17:35:35.722Z</time>
      </trkpt>
      <trkpt lat="38.96830333" lon="1.36462333">
        <ele>71.0</ele>
        <time>2020-08-17T17:35:36.716Z</time>
      </trkpt>
      <trkpt lat="38.968285" lon="1.364725">
        <ele>71.0</ele>
        <time>2020-08-17T17:35:37.715Z</time>
      </trkpt>
      <trkpt lat="38.968285" lon="1.364725">
        <ele>71.0</ele>
        <time>2020-08-17T17:35:38.745Z</time>
      </trkpt>
      <trkpt lat="38.96825333" lon="1.36492333">
        <ele>71.0</ele>
        <time>2020-08-17T17:35:39.724Z</time>
      </trkpt>
      <trkpt lat="38.96825333" lon="1.36492333">
        <ele>71.0</ele>
        <time>2020-08-17T17:35:40.745Z</time>
      </trkpt>
      <trkpt lat="38.96822" lon="1.36512167">
        <ele>72.0</ele>
        <time>2020-08-17T17:35:41.713Z</time>
      </trkpt>
      <trkpt lat="38.96820333" lon="1.36521833">
        <ele>72.0</ele>
        <time>2020-08-17T17:35:42.716Z</time>
      </trkpt>
      <trkpt lat="38.96818833" lon="1.36531333">
        <ele>73.0</ele>
        <time>2020-08-17T17:35:43.743Z</time>
      </trkpt>
      <trkpt lat="38.96818833" lon="1.36531333">
        <ele>73.0</ele>
        <time>2020-08-17T17:35:44.722Z</time>
      </trkpt>
      <trkpt lat="38.96815167" lon="1.36550167">
        <ele>73.0</ele>
        <time>2020-08-17T17:35:45.715Z</time>
      </trkpt>
      <trkpt lat="38.96815167" lon="1.36550167">
        <ele>73.0</ele>
        <time>2020-08-17T17:35:46.713Z</time>
      </trkpt>
      <trkpt lat="38.968115" lon="1.36568667">
        <ele>73.0</ele>
        <time>2020-08-17T17:35:47.733Z</time>
      </trkpt>
      <trkpt lat="38.968115" lon="1.36568667">
        <ele>73.0</ele>
        <time>2020-08-17T17:35:48.714Z</time>
      </trkpt>
      <trkpt lat="38.96808167" lon="1.36586667">
        <ele>74.0</ele>
        <time>2020-08-17T17:35:49.740Z</time>
      </trkpt>
      <trkpt lat="38.96808167" lon="1.36586667">
        <ele>74.0</ele>
        <time>2020-08-17T17:35:50.721Z</time>
      </trkpt>
      <trkpt lat="38.96805" lon="1.36604667">
        <ele>74.0</ele>
        <time>2020-08-17T17:35:51.713Z</time>
      </trkpt>
      <trkpt lat="38.96803333" lon="1.366135">
        <ele>75.0</ele>
        <time>2020-08-17T17:35:52.734Z</time>
      </trkpt>
      <trkpt lat="38.96803333" lon="1.366135">
        <ele>75.0</ele>
        <time>2020-08-17T17:35:53.715Z</time>
      </trkpt>
      <trkpt lat="38.96800167" lon="1.36631333">
        <ele>75.0</ele>
        <time>2020-08-17T17:35:54.716Z</time>
      </trkpt>
      <trkpt lat="38.96800167" lon="1.36631333">
        <ele>75.0</ele>
        <time>2020-08-17T17:35:55.744Z</time>
      </trkpt>
      <trkpt lat="38.96797" lon="1.36648833">
        <ele>75.0</ele>
        <time>2020-08-17T17:35:56.723Z</time>
      </trkpt>
      <trkpt lat="38.96795333" lon="1.36657667">
        <ele>75.0</ele>
        <time>2020-08-17T17:35:57.716Z</time>
      </trkpt>
      <trkpt lat="38.96795333" lon="1.36657667">
        <ele>75.0</ele>
        <time>2020-08-17T17:35:58.716Z</time>
      </trkpt>
      <trkpt lat="38.96792" lon="1.36675333">
        <ele>75.0</ele>
        <time>2020-08-17T17:35:59.715Z</time>
      </trkpt>
      <trkpt lat="38.967905" lon="1.36684">
        <ele>75.0</ele>
        <time>2020-08-17T17:36:00.740Z</time>
      </trkpt>
      <trkpt lat="38.967905" lon="1.36684">
        <ele>75.0</ele>
        <time>2020-08-17T17:36:01.721Z</time>
      </trkpt>
      <trkpt lat="38.96787167" lon="1.36701333">
        <ele>75.0</ele>
        <time>2020-08-17T17:36:02.714Z</time>
      </trkpt>
      <trkpt lat="38.96787167" lon="1.36701333">
        <ele>75.0</ele>
        <time>2020-08-17T17:36:03.733Z</time>
      </trkpt>
      <trkpt lat="38.967835" lon="1.367185">
        <ele>75.0</ele>
        <time>2020-08-17T17:36:04.716Z</time>
      </trkpt>
      <trkpt lat="38.96781833" lon="1.36727">
        <ele>76.0</ele>
        <time>2020-08-17T17:36:05.714Z</time>
      </trkpt>
      <trkpt lat="38.96781833" lon="1.36727">
        <ele>76.0</ele>
        <time>2020-08-17T17:36:06.715Z</time>
      </trkpt>
      <trkpt lat="38.96777833" lon="1.36744167">
        <ele>76.0</ele>
        <time>2020-08-17T17:36:07.714Z</time>
      </trkpt>
      <trkpt lat="38.96777833" lon="1.36744167">
        <ele>76.0</ele>
        <time>2020-08-17T17:36:08.733Z</time>
      </trkpt>
      <trkpt lat="38.96774167" lon="1.367615">
        <ele>77.0</ele>
        <time>2020-08-17T17:36:09.716Z</time>
      </trkpt>
      <trkpt lat="38.96774167" lon="1.367615">
        <ele>77.0</ele>
        <time>2020-08-17T17:36:10.710Z</time>
      </trkpt>
      <trkpt lat="38.96770833" lon="1.36778667">
        <ele>78.0</ele>
        <time>2020-08-17T17:36:11.730Z</time>
      </trkpt>
      <trkpt lat="38.96770833" lon="1.36778667">
        <ele>78.0</ele>
        <time>2020-08-17T17:36:12.749Z</time>
      </trkpt>
      <trkpt lat="38.967675" lon="1.36795667">
        <ele>78.0</ele>
        <time>2020-08-17T17:36:13.728Z</time>
      </trkpt>
      <trkpt lat="38.967675" lon="1.36795667">
        <ele>78.0</ele>
        <time>2020-08-17T17:36:14.713Z</time>
      </trkpt>
      <trkpt lat="38.96764" lon="1.36813">
        <ele>79.0</ele>
        <time>2020-08-17T17:36:15.733Z</time>
      </trkpt>
      <trkpt lat="38.96762167" lon="1.368215">
        <ele>79.0</ele>
        <time>2020-08-17T17:36:16.739Z</time>
      </trkpt>
      <trkpt lat="38.96762167" lon="1.368215">
        <ele>79.0</ele>
        <time>2020-08-17T17:36:17.719Z</time>
      </trkpt>
      <trkpt lat="38.96759167" lon="1.36838833">
        <ele>80.0</ele>
        <time>2020-08-17T17:36:18.716Z</time>
      </trkpt>
      <trkpt lat="38.96757167" lon="1.36847333">
        <ele>80.0</ele>
        <time>2020-08-17T17:36:19.722Z</time>
      </trkpt>
      <trkpt lat="38.96757167" lon="1.36847333">
        <ele>80.0</ele>
        <time>2020-08-17T17:36:20.715Z</time>
      </trkpt>
      <trkpt lat="38.96753" lon="1.36863833">
        <ele>81.0</ele>
        <time>2020-08-17T17:36:21.724Z</time>
      </trkpt>
      <trkpt lat="38.96753" lon="1.36863833">
        <ele>81.0</ele>
        <time>2020-08-17T17:36:22.746Z</time>
      </trkpt>
      <trkpt lat="38.96749" lon="1.36880667">
        <ele>81.0</ele>
        <time>2020-08-17T17:36:23.727Z</time>
      </trkpt>
      <trkpt lat="38.96749" lon="1.36880667">
        <ele>81.0</ele>
        <time>2020-08-17T17:36:24.749Z</time>
      </trkpt>
      <trkpt lat="38.96745333" lon="1.368975">
        <ele>81.0</ele>
        <time>2020-08-17T17:36:25.728Z</time>
      </trkpt>
      <trkpt lat="38.96745333" lon="1.368975">
        <ele>81.0</ele>
        <time>2020-08-17T17:36:26.728Z</time>
      </trkpt>
      <trkpt lat="38.967415" lon="1.36914667">
        <ele>82.0</ele>
        <time>2020-08-17T17:36:27.715Z</time>
      </trkpt>
      <trkpt lat="38.967415" lon="1.36914667">
        <ele>82.0</ele>
        <time>2020-08-17T17:36:28.715Z</time>
      </trkpt>
      <trkpt lat="38.96737333" lon="1.36931667">
        <ele>83.0</ele>
        <time>2020-08-17T17:36:29.743Z</time>
      </trkpt>
      <trkpt lat="38.96737333" lon="1.36931667">
        <ele>83.0</ele>
        <time>2020-08-17T17:36:30.723Z</time>
      </trkpt>
      <trkpt lat="38.967335" lon="1.36949">
        <ele>83.0</ele>
        <time>2020-08-17T17:36:31.744Z</time>
      </trkpt>
      <trkpt lat="38.967315" lon="1.36957667">
        <ele>84.0</ele>
        <time>2020-08-17T17:36:32.725Z</time>
      </trkpt>
      <trkpt lat="38.967315" lon="1.36957667">
        <ele>84.0</ele>
        <time>2020-08-17T17:36:33.714Z</time>
      </trkpt>
      <trkpt lat="38.96727333" lon="1.36975167">
        <ele>84.0</ele>
        <time>2020-08-17T17:36:34.715Z</time>
      </trkpt>
      <trkpt lat="38.96727333" lon="1.36975167">
        <ele>84.0</ele>
        <time>2020-08-17T17:36:35.714Z</time>
      </trkpt>
      <trkpt lat="38.96722833" lon="1.36992667">
        <ele>84.0</ele>
        <time>2020-08-17T17:36:36.716Z</time>
      </trkpt>
      <trkpt lat="38.96720667" lon="1.370015">
        <ele>84.0</ele>
        <time>2020-08-17T17:36:37.713Z</time>
      </trkpt>
      <trkpt lat="38.96720667" lon="1.370015">
        <ele>84.0</ele>
        <time>2020-08-17T17:36:38.733Z</time>
      </trkpt>
      <trkpt lat="38.967165" lon="1.37019">
        <ele>85.0</ele>
        <time>2020-08-17T17:36:39.714Z</time>
      </trkpt>
      <trkpt lat="38.967165" lon="1.37019">
        <ele>85.0</ele>
        <time>2020-08-17T17:36:40.748Z</time>
      </trkpt>
      <trkpt lat="38.96712167" lon="1.37036667">
        <ele>85.0</ele>
        <time>2020-08-17T17:36:41.721Z</time>
      </trkpt>
      <trkpt lat="38.96710167" lon="1.370455">
        <ele>86.0</ele>
        <time>2020-08-17T17:36:42.716Z</time>
      </trkpt>
      <trkpt lat="38.96708167" lon="1.37054167">
        <ele>86.0</ele>
        <time>2020-08-17T17:36:43.742Z</time>
      </trkpt>
      <trkpt lat="38.96708167" lon="1.37054167">
        <ele>86.0</ele>
        <time>2020-08-17T17:36:44.722Z</time>
      </trkpt>
      <trkpt lat="38.96704" lon="1.37071667">
        <ele>86.0</ele>
        <time>2020-08-17T17:36:45.715Z</time>
      </trkpt>
      <trkpt lat="38.96701667" lon="1.37080333">
        <ele>86.0</ele>
        <time>2020-08-17T17:36:46.716Z</time>
      </trkpt>
      <trkpt lat="38.96699167" lon="1.37088833">
        <ele>87.0</ele>
        <time>2020-08-17T17:36:47.717Z</time>
      </trkpt>
      <trkpt lat="38.96696667" lon="1.370975">
        <ele>87.0</ele>
        <time>2020-08-17T17:36:48.710Z</time>
      </trkpt>
      <trkpt lat="38.96696667" lon="1.370975">
        <ele>87.0</ele>
        <time>2020-08-17T17:36:49.747Z</time>
      </trkpt>
      <trkpt lat="38.96692167" lon="1.37115">
        <ele>87.0</ele>
        <time>2020-08-17T17:36:50.727Z</time>
      </trkpt>
      <trkpt lat="38.96692167" lon="1.37115">
        <ele>87.0</ele>
        <time>2020-08-17T17:36:51.714Z</time>
      </trkpt>
      <trkpt lat="38.96687667" lon="1.37132667">
        <ele>88.0</ele>
        <time>2020-08-17T17:36:52.749Z</time>
      </trkpt>
      <trkpt lat="38.96685167" lon="1.37141333">
        <ele>88.0</ele>
        <time>2020-08-17T17:36:53.730Z</time>
      </trkpt>
      <trkpt lat="38.96685167" lon="1.37141333">
        <ele>88.0</ele>
        <time>2020-08-17T17:36:54.715Z</time>
      </trkpt>
      <trkpt lat="38.96680333" lon="1.37158667">
        <ele>88.0</ele>
        <time>2020-08-17T17:36:55.722Z</time>
      </trkpt>
      <trkpt lat="38.96680333" lon="1.37158667">
        <ele>88.0</ele>
        <time>2020-08-17T17:36:56.744Z</time>
      </trkpt>
      <trkpt lat="38.96675167" lon="1.371755">
        <ele>89.0</ele>
        <time>2020-08-17T17:36:57.724Z</time>
      </trkpt>
      <trkpt lat="38.96675167" lon="1.371755">
        <ele>89.0</ele>
        <time>2020-08-17T17:36:58.747Z</time>
      </trkpt>
      <trkpt lat="38.966705" lon="1.37192667">
        <ele>89.0</ele>
        <time>2020-08-17T17:36:59.727Z</time>
      </trkpt>
      <trkpt lat="38.966705" lon="1.37192667">
        <ele>89.0</ele>
        <time>2020-08-17T17:37:00.734Z</time>
      </trkpt>
      <trkpt lat="38.96666167" lon="1.37210167">
        <ele>90.0</ele>
        <time>2020-08-17T17:37:01.716Z</time>
      </trkpt>
      <trkpt lat="38.96666167" lon="1.37210167">
        <ele>90.0</ele>
        <time>2020-08-17T17:37:02.741Z</time>
      </trkpt>
      <trkpt lat="38.96661667" lon="1.37227667">
        <ele>90.0</ele>
        <time>2020-08-17T17:37:03.726Z</time>
      </trkpt>
      <trkpt lat="38.96661667" lon="1.37227667">
        <ele>90.0</ele>
        <time>2020-08-17T17:37:04.746Z</time>
      </trkpt>
      <trkpt lat="38.96657" lon="1.37245">
        <ele>90.0</ele>
        <time>2020-08-17T17:37:05.726Z</time>
      </trkpt>
      <trkpt lat="38.96657" lon="1.37245">
        <ele>90.0</ele>
        <time>2020-08-17T17:37:06.713Z</time>
      </trkpt>
      <trkpt lat="38.96652" lon="1.37262167">
        <ele>90.0</ele>
        <time>2020-08-17T17:37:07.733Z</time>
      </trkpt>
      <trkpt lat="38.96652" lon="1.37262167">
        <ele>90.0</ele>
        <time>2020-08-17T17:37:08.719Z</time>
      </trkpt>
      <trkpt lat="38.96646833" lon="1.37279167">
        <ele>91.0</ele>
        <time>2020-08-17T17:37:09.716Z</time>
      </trkpt>
      <trkpt lat="38.96646833" lon="1.37279167">
        <ele>91.0</ele>
        <time>2020-08-17T17:37:10.715Z</time>
      </trkpt>
      <trkpt lat="38.96641667" lon="1.37296167">
        <ele>91.0</ele>
        <time>2020-08-17T17:37:11.734Z</time>
      </trkpt>
      <trkpt lat="38.96639333" lon="1.37304667">
        <ele>91.0</ele>
        <time>2020-08-17T17:37:12.715Z</time>
      </trkpt>
      <trkpt lat="38.96637" lon="1.37313333">
        <ele>91.0</ele>
        <time>2020-08-17T17:37:13.713Z</time>
      </trkpt>
      <trkpt lat="38.96637" lon="1.37313333">
        <ele>91.0</ele>
        <time>2020-08-17T17:37:14.732Z</time>
      </trkpt>
      <trkpt lat="38.96632167" lon="1.37331">
        <ele>91.0</ele>
        <time>2020-08-17T17:37:15.715Z</time>
      </trkpt>
      <trkpt lat="38.96632167" lon="1.37331">
        <ele>91.0</ele>
        <time>2020-08-17T17:37:16.746Z</time>
      </trkpt>
      <trkpt lat="38.966275" lon="1.37348667">
        <ele>91.0</ele>
        <time>2020-08-17T17:37:17.726Z</time>
      </trkpt>
      <trkpt lat="38.966275" lon="1.37348667">
        <ele>91.0</ele>
        <time>2020-08-17T17:37:18.715Z</time>
      </trkpt>
      <trkpt lat="38.96622" lon="1.37366">
        <ele>92.0</ele>
        <time>2020-08-17T17:37:19.715Z</time>
      </trkpt>
      <trkpt lat="38.96622" lon="1.37366">
        <ele>92.0</ele>
        <time>2020-08-17T17:37:20.745Z</time>
      </trkpt>
      <trkpt lat="38.96616333" lon="1.37383333">
        <ele>92.0</ele>
        <time>2020-08-17T17:37:21.735Z</time>
      </trkpt>
      <trkpt lat="38.96616333" lon="1.37383333">
        <ele>92.0</ele>
        <time>2020-08-17T17:37:22.716Z</time>
      </trkpt>
      <trkpt lat="38.96611167" lon="1.374005">
        <ele>92.0</ele>
        <time>2020-08-17T17:37:23.715Z</time>
      </trkpt>
      <trkpt lat="38.96611167" lon="1.374005">
        <ele>92.0</ele>
        <time>2020-08-17T17:37:24.715Z</time>
      </trkpt>
      <trkpt lat="38.96606" lon="1.37415833">
        <ele>93.0</ele>
        <time>2020-08-17T17:37:25.715Z</time>
      </trkpt>
      <trkpt lat="38.96606" lon="1.37415833">
        <ele>93.0</ele>
        <time>2020-08-17T17:37:26.714Z</time>
      </trkpt>
      <trkpt lat="38.96601667" lon="1.37429667">
        <ele>93.0</ele>
        <time>2020-08-17T17:37:27.733Z</time>
      </trkpt>
      <trkpt lat="38.96601667" lon="1.37429667">
        <ele>93.0</ele>
        <time>2020-08-17T17:37:28.715Z</time>
      </trkpt>
      <trkpt lat="38.96597333" lon="1.37442167">
        <ele>93.0</ele>
        <time>2020-08-17T17:37:29.719Z</time>
      </trkpt>
      <trkpt lat="38.96597333" lon="1.37442167">
        <ele>93.0</ele>
        <time>2020-08-17T17:37:30.746Z</time>
      </trkpt>
      <trkpt lat="38.965935" lon="1.37453833">
        <ele>93.0</ele>
        <time>2020-08-17T17:37:31.725Z</time>
      </trkpt>
      <trkpt lat="38.965935" lon="1.37453833">
        <ele>93.0</ele>
        <time>2020-08-17T17:37:32.714Z</time>
      </trkpt>
      <trkpt lat="38.96590333" lon="1.37464167">
        <ele>94.0</ele>
        <time>2020-08-17T17:37:33.717Z</time>
      </trkpt>
      <trkpt lat="38.96590333" lon="1.37464167">
        <ele>94.0</ele>
        <time>2020-08-17T17:37:34.745Z</time>
      </trkpt>
      <trkpt lat="38.96588167" lon="1.37473">
        <ele>95.0</ele>
        <time>2020-08-17T17:37:35.724Z</time>
      </trkpt>
      <trkpt lat="38.96588167" lon="1.37473">
        <ele>95.0</ele>
        <time>2020-08-17T17:37:36.746Z</time>
      </trkpt>
      <trkpt lat="38.96586" lon="1.3748">
        <ele>95.0</ele>
        <time>2020-08-17T17:37:37.725Z</time>
      </trkpt>
      <trkpt lat="38.96586" lon="1.3748">
        <ele>95.0</ele>
        <time>2020-08-17T17:37:38.715Z</time>
      </trkpt>
      <trkpt lat="38.96585" lon="1.37485167">
        <ele>96.0</ele>
        <time>2020-08-17T17:37:39.749Z</time>
      </trkpt>
      <trkpt lat="38.96585" lon="1.37485167">
        <ele>96.0</ele>
        <time>2020-08-17T17:37:40.746Z</time>
      </trkpt>
      <trkpt lat="38.965845" lon="1.37486833">
        <ele>96.0</ele>
        <time>2020-08-17T17:37:41.713Z</time>
      </trkpt>
      <trkpt lat="38.96584167" lon="1.37486833">
        <ele>96.0</ele>
        <time>2020-08-17T17:37:42.726Z</time>
      </trkpt>
      <trkpt lat="38.96584333" lon="1.37486667">
        <ele>96.0</ele>
        <time>2020-08-17T17:37:52.728Z</time>
      </trkpt>
      <trkpt lat="38.96584333" lon="1.374905">
        <ele>97.0</ele>
        <time>2020-08-17T17:37:53.721Z</time>
      </trkpt>
      <trkpt lat="38.96584333" lon="1.374905">
        <ele>97.0</ele>
        <time>2020-08-17T17:37:54.747Z</time>
      </trkpt>
      <trkpt lat="38.96581167" lon="1.37498167">
        <ele>97.0</ele>
        <time>2020-08-17T17:37:55.726Z</time>
      </trkpt>
      <trkpt lat="38.96581167" lon="1.37498167">
        <ele>97.0</ele>
        <time>2020-08-17T17:37:56.747Z</time>
      </trkpt>
      <trkpt lat="38.965775" lon="1.37509667">
        <ele>98.0</ele>
        <time>2020-08-17T17:37:57.731Z</time>
      </trkpt>
      <trkpt lat="38.96575667" lon="1.37515833">
        <ele>98.0</ele>
        <time>2020-08-17T17:37:58.754Z</time>
      </trkpt>
      <trkpt lat="38.96573667" lon="1.37522">
        <ele>99.0</ele>
        <time>2020-08-17T17:37:59.734Z</time>
      </trkpt>
      <trkpt lat="38.96573667" lon="1.37522">
        <ele>99.0</ele>
        <time>2020-08-17T17:38:00.727Z</time>
      </trkpt>
      <trkpt lat="38.96570667" lon="1.37535667">
        <ele>99.0</ele>
        <time>2020-08-17T17:38:01.755Z</time>
      </trkpt>
      <trkpt lat="38.96569333" lon="1.37543167">
        <ele>99.0</ele>
        <time>2020-08-17T17:38:02.741Z</time>
      </trkpt>
      <trkpt lat="38.96567833" lon="1.37551">
        <ele>100.0</ele>
        <time>2020-08-17T17:38:03.721Z</time>
      </trkpt>
      <trkpt lat="38.96566" lon="1.37559">
        <ele>100.0</ele>
        <time>2020-08-17T17:38:04.755Z</time>
      </trkpt>
      <trkpt lat="38.96563833" lon="1.37566833">
        <ele>100.0</ele>
        <time>2020-08-17T17:38:05.741Z</time>
      </trkpt>
      <trkpt lat="38.96563833" lon="1.37566833">
        <ele>100.0</ele>
        <time>2020-08-17T17:38:06.720Z</time>
      </trkpt>
      <trkpt lat="38.96559833" lon="1.37583167">
        <ele>101.0</ele>
        <time>2020-08-17T17:38:07.721Z</time>
      </trkpt>
      <trkpt lat="38.96559833" lon="1.37583167">
        <ele>101.0</ele>
        <time>2020-08-17T17:38:08.748Z</time>
      </trkpt>
      <trkpt lat="38.96555833" lon="1.375995">
        <ele>101.0</ele>
        <time>2020-08-17T17:38:09.728Z</time>
      </trkpt>
      <trkpt lat="38.965535" lon="1.37607667">
        <ele>102.0</ele>
        <time>2020-08-17T17:38:10.749Z</time>
      </trkpt>
      <trkpt lat="38.96551333" lon="1.37615833">
        <ele>102.0</ele>
        <time>2020-08-17T17:38:11.729Z</time>
      </trkpt>
      <trkpt lat="38.96551333" lon="1.37615833">
        <ele>102.0</ele>
        <time>2020-08-17T17:38:12.755Z</time>
      </trkpt>
      <trkpt lat="38.96547333" lon="1.37632333">
        <ele>103.0</ele>
        <time>2020-08-17T17:38:13.741Z</time>
      </trkpt>
      <trkpt lat="38.96547333" lon="1.37632333">
        <ele>103.0</ele>
        <time>2020-08-17T17:38:14.720Z</time>
      </trkpt>
      <trkpt lat="38.96543333" lon="1.37648833">
        <ele>103.0</ele>
        <time>2020-08-17T17:38:15.754Z</time>
      </trkpt>
      <trkpt lat="38.96543333" lon="1.37648833">
        <ele>103.0</ele>
        <time>2020-08-17T17:38:16.735Z</time>
      </trkpt>
      <trkpt lat="38.96539667" lon="1.37665667">
        <ele>104.0</ele>
        <time>2020-08-17T17:38:17.756Z</time>
      </trkpt>
      <trkpt lat="38.965375" lon="1.37673833">
        <ele>104.0</ele>
        <time>2020-08-17T17:38:18.719Z</time>
      </trkpt>
      <trkpt lat="38.965375" lon="1.37673833">
        <ele>104.0</ele>
        <time>2020-08-17T17:38:19.750Z</time>
      </trkpt>
      <trkpt lat="38.96533833" lon="1.37690333">
        <ele>105.0</ele>
        <time>2020-08-17T17:38:20.729Z</time>
      </trkpt>
      <trkpt lat="38.96532" lon="1.37698667">
        <ele>105.0</ele>
        <time>2020-08-17T17:38:21.757Z</time>
      </trkpt>
      <trkpt lat="38.96530333" lon="1.37706833">
        <ele>105.0</ele>
        <time>2020-08-17T17:38:22.742Z</time>
      </trkpt>
      <trkpt lat="38.96530333" lon="1.37706833">
        <ele>105.0</ele>
        <time>2020-08-17T17:38:23.725Z</time>
      </trkpt>
      <trkpt lat="38.965265" lon="1.37723">
        <ele>106.0</ele>
        <time>2020-08-17T17:38:24.749Z</time>
      </trkpt>
      <trkpt lat="38.96524833" lon="1.37731">
        <ele>106.0</ele>
        <time>2020-08-17T17:38:25.730Z</time>
      </trkpt>
      <trkpt lat="38.96524833" lon="1.37731">
        <ele>106.0</ele>
        <time>2020-08-17T17:38:26.754Z</time>
      </trkpt>
      <trkpt lat="38.965215" lon="1.37747">
        <ele>107.0</ele>
        <time>2020-08-17T17:38:27.744Z</time>
      </trkpt>
      <trkpt lat="38.965215" lon="1.37747">
        <ele>107.0</ele>
        <time>2020-08-17T17:38:28.724Z</time>
      </trkpt>
      <trkpt lat="38.96518167" lon="1.37763167">
        <ele>107.0</ele>
        <time>2020-08-17T17:38:29.755Z</time>
      </trkpt>
      <trkpt lat="38.96518167" lon="1.37763167">
        <ele>107.0</ele>
        <time>2020-08-17T17:38:30.730Z</time>
      </trkpt>
      <trkpt lat="38.96514667" lon="1.37779167">
        <ele>108.0</ele>
        <time>2020-08-17T17:38:31.754Z</time>
      </trkpt>
      <trkpt lat="38.96514667" lon="1.37779167">
        <ele>108.0</ele>
        <time>2020-08-17T17:38:32.741Z</time>
      </trkpt>
      <trkpt lat="38.965115" lon="1.377955">
        <ele>108.0</ele>
        <time>2020-08-17T17:38:33.724Z</time>
      </trkpt>
      <trkpt lat="38.965115" lon="1.377955">
        <ele>108.0</ele>
        <time>2020-08-17T17:38:34.755Z</time>
      </trkpt>
      <trkpt lat="38.96508667" lon="1.37812">
        <ele>109.0</ele>
        <time>2020-08-17T17:38:35.735Z</time>
      </trkpt>
      <trkpt lat="38.96508667" lon="1.37812">
        <ele>109.0</ele>
        <time>2020-08-17T17:38:36.754Z</time>
      </trkpt>
      <trkpt lat="38.96505167" lon="1.37828333">
        <ele>109.0</ele>
        <time>2020-08-17T17:38:37.747Z</time>
      </trkpt>
      <trkpt lat="38.96505167" lon="1.37828333">
        <ele>109.0</ele>
        <time>2020-08-17T17:38:38.727Z</time>
      </trkpt>
      <trkpt lat="38.96502" lon="1.378445">
        <ele>109.0</ele>
        <time>2020-08-17T17:38:39.748Z</time>
      </trkpt>
      <trkpt lat="38.96502" lon="1.378445">
        <ele>109.0</ele>
        <time>2020-08-17T17:38:40.725Z</time>
      </trkpt>
      <trkpt lat="38.96499333" lon="1.37860833">
        <ele>110.0</ele>
        <time>2020-08-17T17:38:41.755Z</time>
      </trkpt>
      <trkpt lat="38.96498" lon="1.37869">
        <ele>110.0</ele>
        <time>2020-08-17T17:38:42.755Z</time>
      </trkpt>
      <trkpt lat="38.96498" lon="1.37869">
        <ele>110.0</ele>
        <time>2020-08-17T17:38:43.740Z</time>
      </trkpt>
      <trkpt lat="38.96496333" lon="1.37885333">
        <ele>111.0</ele>
        <time>2020-08-17T17:38:44.719Z</time>
      </trkpt>
      <trkpt lat="38.96496333" lon="1.37885333">
        <ele>111.0</ele>
        <time>2020-08-17T17:38:45.753Z</time>
      </trkpt>
      <trkpt lat="38.96493833" lon="1.37902333">
        <ele>111.0</ele>
        <time>2020-08-17T17:38:46.741Z</time>
      </trkpt>
      <trkpt lat="38.96493833" lon="1.37902333">
        <ele>111.0</ele>
        <time>2020-08-17T17:38:47.720Z</time>
      </trkpt>
      <trkpt lat="38.96492" lon="1.37919">
        <ele>112.0</ele>
        <time>2020-08-17T17:38:48.756Z</time>
      </trkpt>
      <trkpt lat="38.964905" lon="1.37927167">
        <ele>112.0</ele>
        <time>2020-08-17T17:38:49.747Z</time>
      </trkpt>
      <trkpt lat="38.964905" lon="1.37927167">
        <ele>112.0</ele>
        <time>2020-08-17T17:38:50.726Z</time>
      </trkpt>
      <trkpt lat="38.96488167" lon="1.37943667">
        <ele>113.0</ele>
        <time>2020-08-17T17:38:51.732Z</time>
      </trkpt>
      <trkpt lat="38.96488167" lon="1.37943667">
        <ele>113.0</ele>
        <time>2020-08-17T17:38:52.740Z</time>
      </trkpt>
      <trkpt lat="38.96486167" lon="1.37960333">
        <ele>113.0</ele>
        <time>2020-08-17T17:38:53.720Z</time>
      </trkpt>
      <trkpt lat="38.96485" lon="1.37968833">
        <ele>114.0</ele>
        <time>2020-08-17T17:38:54.755Z</time>
      </trkpt>
      <trkpt lat="38.96483833" lon="1.37977333">
        <ele>114.0</ele>
        <time>2020-08-17T17:38:55.741Z</time>
      </trkpt>
      <trkpt lat="38.96483833" lon="1.37977333">
        <ele>114.0</ele>
        <time>2020-08-17T17:38:56.721Z</time>
      </trkpt>
      <trkpt lat="38.96481667" lon="1.37994833">
        <ele>114.0</ele>
        <time>2020-08-17T17:38:57.756Z</time>
      </trkpt>
      <trkpt lat="38.96481667" lon="1.37994833">
        <ele>114.0</ele>
        <time>2020-08-17T17:38:58.740Z</time>
      </trkpt>
      <trkpt lat="38.964795" lon="1.38013167">
        <ele>114.0</ele>
        <time>2020-08-17T17:38:59.720Z</time>
      </trkpt>
      <trkpt lat="38.964795" lon="1.38013167">
        <ele>114.0</ele>
        <time>2020-08-17T17:39:00.719Z</time>
      </trkpt>
      <trkpt lat="38.96477" lon="1.38032">
        <ele>115.0</ele>
        <time>2020-08-17T17:39:01.722Z</time>
      </trkpt>
      <trkpt lat="38.96475667" lon="1.38041333">
        <ele>115.0</ele>
        <time>2020-08-17T17:39:02.757Z</time>
      </trkpt>
      <trkpt lat="38.96475667" lon="1.38041333">
        <ele>115.0</ele>
        <time>2020-08-17T17:39:03.740Z</time>
      </trkpt>
      <trkpt lat="38.964735" lon="1.38060333">
        <ele>116.0</ele>
        <time>2020-08-17T17:39:04.720Z</time>
      </trkpt>
      <trkpt lat="38.96472167" lon="1.3807">
        <ele>116.0</ele>
        <time>2020-08-17T17:39:05.750Z</time>
      </trkpt>
      <trkpt lat="38.96472167" lon="1.3807">
        <ele>116.0</ele>
        <time>2020-08-17T17:39:06.730Z</time>
      </trkpt>
      <trkpt lat="38.96469667" lon="1.38089833">
        <ele>116.0</ele>
        <time>2020-08-17T17:39:07.755Z</time>
      </trkpt>
      <trkpt lat="38.96469667" lon="1.38089833">
        <ele>116.0</ele>
        <time>2020-08-17T17:39:08.740Z</time>
      </trkpt>
      <trkpt lat="38.96467333" lon="1.3811">
        <ele>116.0</ele>
        <time>2020-08-17T17:39:09.725Z</time>
      </trkpt>
      <trkpt lat="38.96467333" lon="1.3811">
        <ele>116.0</ele>
        <time>2020-08-17T17:39:10.722Z</time>
      </trkpt>
      <trkpt lat="38.96465667" lon="1.381305">
        <ele>116.0</ele>
        <time>2020-08-17T17:39:11.719Z</time>
      </trkpt>
      <trkpt lat="38.96465667" lon="1.381305">
        <ele>116.0</ele>
        <time>2020-08-17T17:39:12.755Z</time>
      </trkpt>
      <trkpt lat="38.96463667" lon="1.38151333">
        <ele>116.0</ele>
        <time>2020-08-17T17:39:13.740Z</time>
      </trkpt>
      <trkpt lat="38.96462667" lon="1.38161667">
        <ele>116.0</ele>
        <time>2020-08-17T17:39:14.720Z</time>
      </trkpt>
      <trkpt lat="38.96462667" lon="1.38161667">
        <ele>116.0</ele>
        <time>2020-08-17T17:39:15.751Z</time>
      </trkpt>
      <trkpt lat="38.96461" lon="1.38182833">
        <ele>116.0</ele>
        <time>2020-08-17T17:39:16.740Z</time>
      </trkpt>
      <trkpt lat="38.96461" lon="1.38182833">
        <ele>116.0</ele>
        <time>2020-08-17T17:39:17.719Z</time>
      </trkpt>
      <trkpt lat="38.96459333" lon="1.38204167">
        <ele>116.0</ele>
        <time>2020-08-17T17:39:18.756Z</time>
      </trkpt>
      <trkpt lat="38.96458333" lon="1.38215">
        <ele>116.0</ele>
        <time>2020-08-17T17:39:19.741Z</time>
      </trkpt>
      <trkpt lat="38.96458333" lon="1.38215">
        <ele>116.0</ele>
        <time>2020-08-17T17:39:20.726Z</time>
      </trkpt>
      <trkpt lat="38.964565" lon="1.38237">
        <ele>116.0</ele>
        <time>2020-08-17T17:39:21.757Z</time>
      </trkpt>
      <trkpt lat="38.96455667" lon="1.38248167">
        <ele>116.0</ele>
        <time>2020-08-17T17:39:22.741Z</time>
      </trkpt>
      <trkpt lat="38.96455667" lon="1.38248167">
        <ele>116.0</ele>
        <time>2020-08-17T17:39:23.720Z</time>
      </trkpt>
      <trkpt lat="38.96453667" lon="1.38270833">
        <ele>116.0</ele>
        <time>2020-08-17T17:39:24.734Z</time>
      </trkpt>
      <trkpt lat="38.96453" lon="1.38282333">
        <ele>116.0</ele>
        <time>2020-08-17T17:39:25.718Z</time>
      </trkpt>
      <trkpt lat="38.96453" lon="1.38282333">
        <ele>116.0</ele>
        <time>2020-08-17T17:39:26.755Z</time>
      </trkpt>
      <trkpt lat="38.964515" lon="1.38305833">
        <ele>115.0</ele>
        <time>2020-08-17T17:39:27.741Z</time>
      </trkpt>
      <trkpt lat="38.964515" lon="1.38305833">
        <ele>115.0</ele>
        <time>2020-08-17T17:39:28.720Z</time>
      </trkpt>
      <trkpt lat="38.9645" lon="1.3833">
        <ele>115.0</ele>
        <time>2020-08-17T17:39:29.751Z</time>
      </trkpt>
      <trkpt lat="38.9645" lon="1.3833">
        <ele>115.0</ele>
        <time>2020-08-17T17:39:30.739Z</time>
      </trkpt>
      <trkpt lat="38.96448167" lon="1.383545">
        <ele>115.0</ele>
        <time>2020-08-17T17:39:31.720Z</time>
      </trkpt>
      <trkpt lat="38.964475" lon="1.38366833">
        <ele>115.0</ele>
        <time>2020-08-17T17:39:32.755Z</time>
      </trkpt>
      <trkpt lat="38.96446833" lon="1.38379">
        <ele>115.0</ele>
        <time>2020-08-17T17:39:33.741Z</time>
      </trkpt>
      <trkpt lat="38.96446833" lon="1.38379">
        <ele>115.0</ele>
        <time>2020-08-17T17:39:34.732Z</time>
      </trkpt>
      <trkpt lat="38.96445833" lon="1.38403667">
        <ele>115.0</ele>
        <time>2020-08-17T17:39:35.755Z</time>
      </trkpt>
      <trkpt lat="38.96445833" lon="1.38403667">
        <ele>115.0</ele>
        <time>2020-08-17T17:39:36.740Z</time>
      </trkpt>
      <trkpt lat="38.964445" lon="1.384285">
        <ele>115.0</ele>
        <time>2020-08-17T17:39:37.723Z</time>
      </trkpt>
      <trkpt lat="38.96443667" lon="1.38440833">
        <ele>115.0</ele>
        <time>2020-08-17T17:39:38.756Z</time>
      </trkpt>
      <trkpt lat="38.96443667" lon="1.38440833">
        <ele>115.0</ele>
        <time>2020-08-17T17:39:39.740Z</time>
      </trkpt>
      <trkpt lat="38.96442" lon="1.38465833">
        <ele>115.0</ele>
        <time>2020-08-17T17:39:40.725Z</time>
      </trkpt>
      <trkpt lat="38.96441333" lon="1.38478333">
        <ele>115.0</ele>
        <time>2020-08-17T17:39:41.755Z</time>
      </trkpt>
      <trkpt lat="38.96440333" lon="1.38491">
        <ele>115.0</ele>
        <time>2020-08-17T17:39:42.741Z</time>
      </trkpt>
      <trkpt lat="38.964395" lon="1.38503667">
        <ele>115.0</ele>
        <time>2020-08-17T17:39:43.721Z</time>
      </trkpt>
      <trkpt lat="38.964395" lon="1.38503667">
        <ele>115.0</ele>
        <time>2020-08-17T17:39:44.755Z</time>
      </trkpt>
      <trkpt lat="38.964375" lon="1.38529">
        <ele>114.0</ele>
        <time>2020-08-17T17:39:45.732Z</time>
      </trkpt>
      <trkpt lat="38.964375" lon="1.38529">
        <ele>114.0</ele>
        <time>2020-08-17T17:39:46.757Z</time>
      </trkpt>
      <trkpt lat="38.96435333" lon="1.38554667">
        <ele>114.0</ele>
        <time>2020-08-17T17:39:47.742Z</time>
      </trkpt>
      <trkpt lat="38.96435333" lon="1.38554667">
        <ele>114.0</ele>
        <time>2020-08-17T17:39:48.723Z</time>
      </trkpt>
      <trkpt lat="38.96432333" lon="1.38580167">
        <ele>114.0</ele>
        <time>2020-08-17T17:39:49.748Z</time>
      </trkpt>
      <trkpt lat="38.96432333" lon="1.38580167">
        <ele>114.0</ele>
        <time>2020-08-17T17:39:50.757Z</time>
      </trkpt>
      <trkpt lat="38.96429333" lon="1.386055">
        <ele>114.0</ele>
        <time>2020-08-17T17:39:51.741Z</time>
      </trkpt>
      <trkpt lat="38.96429333" lon="1.386055">
        <ele>114.0</ele>
        <time>2020-08-17T17:39:52.722Z</time>
      </trkpt>
      <trkpt lat="38.96426167" lon="1.38631167">
        <ele>114.0</ele>
        <time>2020-08-17T17:39:53.754Z</time>
      </trkpt>
      <trkpt lat="38.96426167" lon="1.38631167">
        <ele>114.0</ele>
        <time>2020-08-17T17:39:54.734Z</time>
      </trkpt>
      <trkpt lat="38.96423167" lon="1.38657">
        <ele>114.0</ele>
        <time>2020-08-17T17:39:55.722Z</time>
      </trkpt>
      <trkpt lat="38.96423167" lon="1.38657">
        <ele>114.0</ele>
        <time>2020-08-17T17:39:56.755Z</time>
      </trkpt>
      <trkpt lat="38.96419833" lon="1.38683">
        <ele>114.0</ele>
        <time>2020-08-17T17:39:57.756Z</time>
      </trkpt>
      <trkpt lat="38.96419833" lon="1.38683">
        <ele>114.0</ele>
        <time>2020-08-17T17:39:58.740Z</time>
      </trkpt>
      <trkpt lat="38.96416333" lon="1.38709167">
        <ele>114.0</ele>
        <time>2020-08-17T17:39:59.720Z</time>
      </trkpt>
      <trkpt lat="38.96416333" lon="1.38709167">
        <ele>114.0</ele>
        <time>2020-08-17T17:40:00.737Z</time>
      </trkpt>
      <trkpt lat="38.96412" lon="1.38735333">
        <ele>113.0</ele>
        <time>2020-08-17T17:40:01.720Z</time>
      </trkpt>
      <trkpt lat="38.96412" lon="1.38735333">
        <ele>113.0</ele>
        <time>2020-08-17T17:40:02.746Z</time>
      </trkpt>
      <trkpt lat="38.96407" lon="1.38761167">
        <ele>113.0</ele>
        <time>2020-08-17T17:40:03.729Z</time>
      </trkpt>
      <trkpt lat="38.96407" lon="1.38761167">
        <ele>113.0</ele>
        <time>2020-08-17T17:40:04.749Z</time>
      </trkpt>
      <trkpt lat="38.96401667" lon="1.38786667">
        <ele>113.0</ele>
        <time>2020-08-17T17:40:05.730Z</time>
      </trkpt>
      <trkpt lat="38.96401667" lon="1.38786667">
        <ele>113.0</ele>
        <time>2020-08-17T17:40:06.756Z</time>
      </trkpt>
      <trkpt lat="38.96394833" lon="1.38811667">
        <ele>113.0</ele>
        <time>2020-08-17T17:40:07.741Z</time>
      </trkpt>
      <trkpt lat="38.96394833" lon="1.38811667">
        <ele>113.0</ele>
        <time>2020-08-17T17:40:08.721Z</time>
      </trkpt>
      <trkpt lat="38.96388167" lon="1.38836167">
        <ele>113.0</ele>
        <time>2020-08-17T17:40:09.748Z</time>
      </trkpt>
      <trkpt lat="38.96385333" lon="1.388485">
        <ele>113.0</ele>
        <time>2020-08-17T17:40:10.748Z</time>
      </trkpt>
      <trkpt lat="38.96382667" lon="1.38860833">
        <ele>113.0</ele>
        <time>2020-08-17T17:40:11.729Z</time>
      </trkpt>
      <trkpt lat="38.96382667" lon="1.38860833">
        <ele>113.0</ele>
        <time>2020-08-17T17:40:12.755Z</time>
      </trkpt>
      <trkpt lat="38.96377667" lon="1.388855">
        <ele>113.0</ele>
        <time>2020-08-17T17:40:13.741Z</time>
      </trkpt>
      <trkpt lat="38.96377667" lon="1.388855">
        <ele>113.0</ele>
        <time>2020-08-17T17:40:14.721Z</time>
      </trkpt>
      <trkpt lat="38.96372833" lon="1.38909333">
        <ele>113.0</ele>
        <time>2020-08-17T17:40:15.718Z</time>
      </trkpt>
      <trkpt lat="38.96372833" lon="1.38909333">
        <ele>113.0</ele>
        <time>2020-08-17T17:40:16.757Z</time>
      </trkpt>
      <trkpt lat="38.96368" lon="1.38932667">
        <ele>114.0</ele>
        <time>2020-08-17T17:40:17.742Z</time>
      </trkpt>
      <trkpt lat="38.96368" lon="1.38932667">
        <ele>114.0</ele>
        <time>2020-08-17T17:40:18.722Z</time>
      </trkpt>
      <trkpt lat="38.96363167" lon="1.38954833">
        <ele>114.0</ele>
        <time>2020-08-17T17:40:19.755Z</time>
      </trkpt>
      <trkpt lat="38.96363167" lon="1.38954833">
        <ele>114.0</ele>
        <time>2020-08-17T17:40:20.748Z</time>
      </trkpt>
      <trkpt lat="38.96358333" lon="1.38976333">
        <ele>115.0</ele>
        <time>2020-08-17T17:40:21.731Z</time>
      </trkpt>
      <trkpt lat="38.96355833" lon="1.38986667">
        <ele>115.0</ele>
        <time>2020-08-17T17:40:22.756Z</time>
      </trkpt>
      <trkpt lat="38.96353667" lon="1.38996833">
        <ele>115.0</ele>
        <time>2020-08-17T17:40:23.735Z</time>
      </trkpt>
      <trkpt lat="38.96353667" lon="1.38996833">
        <ele>115.0</ele>
        <time>2020-08-17T17:40:24.755Z</time>
      </trkpt>
      <trkpt lat="38.96349" lon="1.39016833">
        <ele>116.0</ele>
        <time>2020-08-17T17:40:25.757Z</time>
      </trkpt>
      <trkpt lat="38.96346667" lon="1.39026833">
        <ele>116.0</ele>
        <time>2020-08-17T17:40:26.741Z</time>
      </trkpt>
      <trkpt lat="38.96346667" lon="1.39026833">
        <ele>116.0</ele>
        <time>2020-08-17T17:40:27.721Z</time>
      </trkpt>
      <trkpt lat="38.963425" lon="1.39046167">
        <ele>117.0</ele>
        <time>2020-08-17T17:40:28.718Z</time>
      </trkpt>
      <trkpt lat="38.963425" lon="1.39046167">
        <ele>117.0</ele>
        <time>2020-08-17T17:40:29.754Z</time>
      </trkpt>
      <trkpt lat="38.96337833" lon="1.39065333">
        <ele>117.0</ele>
        <time>2020-08-17T17:40:30.752Z</time>
      </trkpt>
      <trkpt lat="38.96335333" lon="1.39074833">
        <ele>118.0</ele>
        <time>2020-08-17T17:40:31.728Z</time>
      </trkpt>
      <trkpt lat="38.96335333" lon="1.39074833">
        <ele>118.0</ele>
        <time>2020-08-17T17:40:32.749Z</time>
      </trkpt>
      <trkpt lat="38.96330667" lon="1.39094167">
        <ele>118.0</ele>
        <time>2020-08-17T17:40:33.729Z</time>
      </trkpt>
      <trkpt lat="38.96330667" lon="1.39094167">
        <ele>118.0</ele>
        <time>2020-08-17T17:40:34.754Z</time>
      </trkpt>
      <trkpt lat="38.96325833" lon="1.39112833">
        <ele>119.0</ele>
        <time>2020-08-17T17:40:35.733Z</time>
      </trkpt>
      <trkpt lat="38.96325833" lon="1.39112833">
        <ele>119.0</ele>
        <time>2020-08-17T17:40:36.755Z</time>
      </trkpt>
      <trkpt lat="38.96320167" lon="1.39132167">
        <ele>119.0</ele>
        <time>2020-08-17T17:40:37.740Z</time>
      </trkpt>
      <trkpt lat="38.96320167" lon="1.39132167">
        <ele>119.0</ele>
        <time>2020-08-17T17:40:38.720Z</time>
      </trkpt>
      <trkpt lat="38.96314833" lon="1.391515">
        <ele>119.0</ele>
        <time>2020-08-17T17:40:39.756Z</time>
      </trkpt>
      <trkpt lat="38.96312167" lon="1.39161333">
        <ele>119.0</ele>
        <time>2020-08-17T17:40:40.750Z</time>
      </trkpt>
      <trkpt lat="38.96312167" lon="1.39161333">
        <ele>119.0</ele>
        <time>2020-08-17T17:40:41.719Z</time>
      </trkpt>
      <trkpt lat="38.96306" lon="1.39180833">
        <ele>120.0</ele>
        <time>2020-08-17T17:40:42.756Z</time>
      </trkpt>
      <trkpt lat="38.96306" lon="1.39180833">
        <ele>120.0</ele>
        <time>2020-08-17T17:40:43.741Z</time>
      </trkpt>
      <trkpt lat="38.96300833" lon="1.39200167">
        <ele>120.0</ele>
        <time>2020-08-17T17:40:44.720Z</time>
      </trkpt>
      <trkpt lat="38.96298333" lon="1.39209833">
        <ele>120.0</ele>
        <time>2020-08-17T17:40:45.755Z</time>
      </trkpt>
      <trkpt lat="38.96295167" lon="1.39219667">
        <ele>120.0</ele>
        <time>2020-08-17T17:40:46.741Z</time>
      </trkpt>
      <trkpt lat="38.96295167" lon="1.39219667">
        <ele>120.0</ele>
        <time>2020-08-17T17:40:47.730Z</time>
      </trkpt>
      <trkpt lat="38.96289167" lon="1.39239333">
        <ele>121.0</ele>
        <time>2020-08-17T17:40:48.757Z</time>
      </trkpt>
      <trkpt lat="38.962865" lon="1.39249167">
        <ele>121.0</ele>
        <time>2020-08-17T17:40:49.745Z</time>
      </trkpt>
      <trkpt lat="38.962865" lon="1.39249167">
        <ele>121.0</ele>
        <time>2020-08-17T17:40:50.746Z</time>
      </trkpt>
      <trkpt lat="38.96280667" lon="1.39268333">
        <ele>122.0</ele>
        <time>2020-08-17T17:40:51.756Z</time>
      </trkpt>
      <trkpt lat="38.96280667" lon="1.39268333">
        <ele>122.0</ele>
        <time>2020-08-17T17:40:52.741Z</time>
      </trkpt>
      <trkpt lat="38.96274833" lon="1.392865">
        <ele>123.0</ele>
        <time>2020-08-17T17:40:53.735Z</time>
      </trkpt>
      <trkpt lat="38.96274833" lon="1.392865">
        <ele>123.0</ele>
        <time>2020-08-17T17:40:54.756Z</time>
      </trkpt>
      <trkpt lat="38.962695" lon="1.393045">
        <ele>124.0</ele>
        <time>2020-08-17T17:40:55.746Z</time>
      </trkpt>
      <trkpt lat="38.962695" lon="1.393045">
        <ele>124.0</ele>
        <time>2020-08-17T17:40:56.725Z</time>
      </trkpt>
      <trkpt lat="38.96263333" lon="1.39322167">
        <ele>126.0</ele>
        <time>2020-08-17T17:40:57.750Z</time>
      </trkpt>
      <trkpt lat="38.96260167" lon="1.39330833">
        <ele>126.0</ele>
        <time>2020-08-17T17:40:58.730Z</time>
      </trkpt>
      <trkpt lat="38.96257" lon="1.393395">
        <ele>127.0</ele>
        <time>2020-08-17T17:40:59.756Z</time>
      </trkpt>
      <trkpt lat="38.96254167" lon="1.39348167">
        <ele>127.0</ele>
        <time>2020-08-17T17:41:00.754Z</time>
      </trkpt>
      <trkpt lat="38.96251" lon="1.39356833">
        <ele>128.0</ele>
        <time>2020-08-17T17:41:01.741Z</time>
      </trkpt>
      <trkpt lat="38.96251" lon="1.39356833">
        <ele>128.0</ele>
        <time>2020-08-17T17:41:02.721Z</time>
      </trkpt>
      <trkpt lat="38.96245667" lon="1.39374833">
        <ele>129.0</ele>
        <time>2020-08-17T17:41:03.754Z</time>
      </trkpt>
      <trkpt lat="38.96245667" lon="1.39374833">
        <ele>129.0</ele>
        <time>2020-08-17T17:41:04.735Z</time>
      </trkpt>
      <trkpt lat="38.962415" lon="1.39393167">
        <ele>130.0</ele>
        <time>2020-08-17T17:41:05.757Z</time>
      </trkpt>
      <trkpt lat="38.96239" lon="1.39402333">
        <ele>130.0</ele>
        <time>2020-08-17T17:41:06.742Z</time>
      </trkpt>
      <trkpt lat="38.96239" lon="1.39402333">
        <ele>130.0</ele>
        <time>2020-08-17T17:41:07.721Z</time>
      </trkpt>
      <trkpt lat="38.962345" lon="1.39421833">
        <ele>131.0</ele>
        <time>2020-08-17T17:41:08.718Z</time>
      </trkpt>
      <trkpt lat="38.962345" lon="1.39421833">
        <ele>131.0</ele>
        <time>2020-08-17T17:41:09.756Z</time>
      </trkpt>
      <trkpt lat="38.962305" lon="1.39440167">
        <ele>131.0</ele>
        <time>2020-08-17T17:41:10.746Z</time>
      </trkpt>
      <trkpt lat="38.962305" lon="1.39440167">
        <ele>131.0</ele>
        <time>2020-08-17T17:41:11.726Z</time>
      </trkpt>
      <trkpt lat="38.96225667" lon="1.39457833">
        <ele>131.0</ele>
        <time>2020-08-17T17:41:12.757Z</time>
      </trkpt>
      <trkpt lat="38.96225667" lon="1.39457833">
        <ele>131.0</ele>
        <time>2020-08-17T17:41:13.741Z</time>
      </trkpt>
      <trkpt lat="38.96220167" lon="1.39474667">
        <ele>132.0</ele>
        <time>2020-08-17T17:41:14.721Z</time>
      </trkpt>
      <trkpt lat="38.96220167" lon="1.39474667">
        <ele>132.0</ele>
        <time>2020-08-17T17:41:15.719Z</time>
      </trkpt>
      <trkpt lat="38.96213833" lon="1.39490833">
        <ele>132.0</ele>
        <time>2020-08-17T17:41:16.749Z</time>
      </trkpt>
      <trkpt lat="38.96210667" lon="1.394985">
        <ele>132.0</ele>
        <time>2020-08-17T17:41:17.729Z</time>
      </trkpt>
      <trkpt lat="38.96210667" lon="1.394985">
        <ele>132.0</ele>
        <time>2020-08-17T17:41:18.755Z</time>
      </trkpt>
      <trkpt lat="38.962045" lon="1.39512333">
        <ele>132.0</ele>
        <time>2020-08-17T17:41:19.741Z</time>
      </trkpt>
      <trkpt lat="38.962045" lon="1.39512333">
        <ele>132.0</ele>
        <time>2020-08-17T17:41:20.720Z</time>
      </trkpt>
      <trkpt lat="38.96198833" lon="1.395245">
        <ele>133.0</ele>
        <time>2020-08-17T17:41:21.756Z</time>
      </trkpt>
      <trkpt lat="38.96198833" lon="1.395245">
        <ele>133.0</ele>
        <time>2020-08-17T17:41:22.741Z</time>
      </trkpt>
      <trkpt lat="38.96195667" lon="1.39535333">
        <ele>133.0</ele>
        <time>2020-08-17T17:41:23.720Z</time>
      </trkpt>
      <trkpt lat="38.96195667" lon="1.39535333">
        <ele>133.0</ele>
        <time>2020-08-17T17:41:24.741Z</time>
      </trkpt>
      <trkpt lat="38.96200833" lon="1.39538167">
        <ele>133.0</ele>
        <time>2020-08-17T17:41:25.722Z</time>
      </trkpt>
      <trkpt lat="38.96200833" lon="1.39538167">
        <ele>133.0</ele>
        <time>2020-08-17T17:41:26.725Z</time>
      </trkpt>
      <trkpt lat="38.962045" lon="1.395315">
        <ele>134.0</ele>
        <time>2020-08-17T17:41:27.749Z</time>
      </trkpt>
      <trkpt lat="38.96205833" lon="1.395275">
        <ele>134.0</ele>
        <time>2020-08-17T17:41:28.735Z</time>
      </trkpt>
      <trkpt lat="38.96205833" lon="1.395275">
        <ele>134.0</ele>
        <time>2020-08-17T17:56:37.571Z</time>
      </trkpt>
      <trkpt lat="38.96211667" lon="1.394985">
        <ele>123.0</ele>
        <time>2020-08-17T17:56:38.561Z</time>
      </trkpt>
      <trkpt lat="38.962135" lon="1.39500167">
        <ele>123.0</ele>
        <time>2020-08-17T17:56:39.561Z</time>
      </trkpt>
      <trkpt lat="38.962135" lon="1.39500167">
        <ele>123.0</ele>
        <time>2020-08-17T17:56:40.569Z</time>
      </trkpt>
      <trkpt lat="38.96219833" lon="1.39499">
        <ele>123.0</ele>
        <time>2020-08-17T17:56:41.563Z</time>
      </trkpt>
      <trkpt lat="38.96222833" lon="1.39497333">
        <ele>123.0</ele>
        <time>2020-08-17T17:56:42.567Z</time>
      </trkpt>
      <trkpt lat="38.96222833" lon="1.39497333">
        <ele>123.0</ele>
        <time>2020-08-17T17:56:43.565Z</time>
      </trkpt>
      <trkpt lat="38.96228667" lon="1.39492833">
        <ele>123.0</ele>
        <time>2020-08-17T17:59:04.612Z</time>
      </trkpt>
      <trkpt lat="38.96259667" lon="1.39433833">
        <ele>128.0</ele>
        <time>2020-08-17T17:59:05.606Z</time>
      </trkpt>
      <trkpt lat="38.96259667" lon="1.39433833">
        <ele>128.0</ele>
        <time>2020-08-17T17:59:06.594Z</time>
      </trkpt>
      <trkpt lat="38.96263167" lon="1.39435833">
        <ele>129.0</ele>
        <time>2020-08-17T17:59:12.089Z</time>
      </trkpt>
      <trkpt lat="38.96264167" lon="1.39438">
        <ele>129.0</ele>
        <time>2020-08-17T17:59:13.119Z</time>
      </trkpt>
      <trkpt lat="38.96264167" lon="1.39438">
        <ele>129.0</ele>
        <time>2020-08-17T17:59:14.117Z</time>
      </trkpt>
      <trkpt lat="38.96267333" lon="1.39444833">
        <ele>129.0</ele>
        <time>2020-08-17T17:59:15.115Z</time>
      </trkpt>
      <trkpt lat="38.96269667" lon="1.394495">
        <ele>129.0</ele>
        <time>2020-08-17T17:59:16.117Z</time>
      </trkpt>
      <trkpt lat="38.96269667" lon="1.394495">
        <ele>129.0</ele>
        <time>2020-08-17T17:59:17.115Z</time>
      </trkpt>
      <trkpt lat="38.962735" lon="1.394595">
        <ele>129.0</ele>
        <time>2020-08-17T17:59:18.118Z</time>
      </trkpt>
      <trkpt lat="38.96274" lon="1.39464333">
        <ele>129.0</ele>
        <time>2020-08-17T17:59:19.116Z</time>
      </trkpt>
      <trkpt lat="38.96274" lon="1.39464333">
        <ele>129.0</ele>
        <time>2020-08-17T17:59:20.112Z</time>
      </trkpt>
      <trkpt lat="38.962745" lon="1.39473167">
        <ele>129.0</ele>
        <time>2020-08-17T17:59:21.092Z</time>
      </trkpt>
      <trkpt lat="38.96273667" lon="1.39478">
        <ele>129.0</ele>
        <time>2020-08-17T17:59:22.112Z</time>
      </trkpt>
      <trkpt lat="38.96271667" lon="1.39483333">
        <ele>129.0</ele>
        <time>2020-08-17T17:59:23.109Z</time>
      </trkpt>
      <trkpt lat="38.96271667" lon="1.39483333">
        <ele>129.0</ele>
        <time>2020-08-17T17:59:24.116Z</time>
      </trkpt>
      <trkpt lat="38.96265833" lon="1.39490667">
        <ele>130.0</ele>
        <time>2020-08-17T17:59:25.091Z</time>
      </trkpt>
      <trkpt lat="38.96263" lon="1.39494">
        <ele>130.0</ele>
        <time>2020-08-17T17:59:26.118Z</time>
      </trkpt>
      <trkpt lat="38.96263" lon="1.39494">
        <ele>130.0</ele>
        <time>2020-08-17T17:59:27.115Z</time>
      </trkpt>
      <trkpt lat="38.962605" lon="1.39503333">
        <ele>129.0</ele>
        <time>2020-08-17T17:59:28.118Z</time>
      </trkpt>
      <trkpt lat="38.96261333" lon="1.39509333">
        <ele>129.0</ele>
        <time>2020-08-17T17:59:29.118Z</time>
      </trkpt>
      <trkpt lat="38.96261333" lon="1.39509333">
        <ele>129.0</ele>
        <time>2020-08-17T17:59:30.119Z</time>
      </trkpt>
      <trkpt lat="38.96269833" lon="1.395215">
        <ele>128.0</ele>
        <time>2020-08-17T17:59:31.115Z</time>
      </trkpt>
      <trkpt lat="38.96275833" lon="1.39526667">
        <ele>128.0</ele>
        <time>2020-08-17T17:59:32.117Z</time>
      </trkpt>
      <trkpt lat="38.96275833" lon="1.39526667">
        <ele>128.0</ele>
        <time>2020-08-17T17:59:33.116Z</time>
      </trkpt>
      <trkpt lat="38.96286667" lon="1.39536833">
        <ele>126.0</ele>
        <time>2020-08-17T17:59:34.117Z</time>
      </trkpt>
      <trkpt lat="38.96291667" lon="1.39542833">
        <ele>126.0</ele>
        <time>2020-08-17T17:59:35.118Z</time>
      </trkpt>
      <trkpt lat="38.96291667" lon="1.39542833">
        <ele>126.0</ele>
        <time>2020-08-17T17:59:36.115Z</time>
      </trkpt>
      <trkpt lat="38.963" lon="1.395575">
        <ele>125.0</ele>
        <time>2020-08-17T17:59:37.118Z</time>
      </trkpt>
      <trkpt lat="38.963" lon="1.395575">
        <ele>125.0</ele>
        <time>2020-08-17T17:59:38.115Z</time>
      </trkpt>
      <trkpt lat="38.96303" lon="1.395745">
        <ele>124.0</ele>
        <time>2020-08-17T17:59:39.117Z</time>
      </trkpt>
      <trkpt lat="38.96303" lon="1.395745">
        <ele>124.0</ele>
        <time>2020-08-17T17:59:40.119Z</time>
      </trkpt>
      <trkpt lat="38.96303833" lon="1.3959">
        <ele>124.0</ele>
        <time>2020-08-17T17:59:41.111Z</time>
      </trkpt>
      <trkpt lat="38.96303833" lon="1.395975">
        <ele>123.0</ele>
        <time>2020-08-17T17:59:42.096Z</time>
      </trkpt>
      <trkpt lat="38.96303833" lon="1.395975">
        <ele>123.0</ele>
        <time>2020-08-17T17:59:43.118Z</time>
      </trkpt>
      <trkpt lat="38.96301667" lon="1.39612667">
        <ele>123.0</ele>
        <time>2020-08-17T17:59:44.118Z</time>
      </trkpt>
      <trkpt lat="38.96301667" lon="1.39612667">
        <ele>123.0</ele>
        <time>2020-08-17T17:59:45.115Z</time>
      </trkpt>
      <trkpt lat="38.96299333" lon="1.39627333">
        <ele>123.0</ele>
        <time>2020-08-17T17:59:46.117Z</time>
      </trkpt>
      <trkpt lat="38.96299333" lon="1.39627333">
        <ele>123.0</ele>
        <time>2020-08-17T17:59:47.116Z</time>
      </trkpt>
      <trkpt lat="38.962955" lon="1.396425">
        <ele>122.0</ele>
        <time>2020-08-17T17:59:48.118Z</time>
      </trkpt>
      <trkpt lat="38.962955" lon="1.396425">
        <ele>122.0</ele>
        <time>2020-08-17T17:59:49.115Z</time>
      </trkpt>
      <trkpt lat="38.96290333" lon="1.39657833">
        <ele>122.0</ele>
        <time>2020-08-17T17:59:50.120Z</time>
      </trkpt>
      <trkpt lat="38.96290333" lon="1.39657833">
        <ele>122.0</ele>
        <time>2020-08-17T17:59:51.109Z</time>
      </trkpt>
      <trkpt lat="38.962845" lon="1.39673833">
        <ele>121.0</ele>
        <time>2020-08-17T17:59:52.088Z</time>
      </trkpt>
      <trkpt lat="38.962845" lon="1.39673833">
        <ele>121.0</ele>
        <time>2020-08-17T17:59:53.113Z</time>
      </trkpt>
      <trkpt lat="38.962775" lon="1.39689333">
        <ele>120.0</ele>
        <time>2020-08-17T17:59:54.093Z</time>
      </trkpt>
      <trkpt lat="38.962775" lon="1.39689333">
        <ele>120.0</ele>
        <time>2020-08-17T17:59:55.115Z</time>
      </trkpt>
      <trkpt lat="38.9627" lon="1.39704333">
        <ele>120.0</ele>
        <time>2020-08-17T17:59:56.089Z</time>
      </trkpt>
      <trkpt lat="38.9627" lon="1.39704333">
        <ele>120.0</ele>
        <time>2020-08-17T17:59:57.112Z</time>
      </trkpt>
      <trkpt lat="38.96263167" lon="1.39719833">
        <ele>119.0</ele>
        <time>2020-08-17T17:59:58.092Z</time>
      </trkpt>
      <trkpt lat="38.96263167" lon="1.39719833">
        <ele>119.0</ele>
        <time>2020-08-17T17:59:59.099Z</time>
      </trkpt>
      <trkpt lat="38.962575" lon="1.39735833">
        <ele>119.0</ele>
        <time>2020-08-17T18:00:00.086Z</time>
      </trkpt>
      <trkpt lat="38.962575" lon="1.39735833">
        <ele>119.0</ele>
        <time>2020-08-17T18:00:01.097Z</time>
      </trkpt>
      <trkpt lat="38.962515" lon="1.39751667">
        <ele>120.0</ele>
        <time>2020-08-17T18:00:02.119Z</time>
      </trkpt>
      <trkpt lat="38.962515" lon="1.39751667">
        <ele>120.0</ele>
        <time>2020-08-17T18:00:03.115Z</time>
      </trkpt>
      <trkpt lat="38.96244333" lon="1.39768">
        <ele>120.0</ele>
        <time>2020-08-17T18:00:04.118Z</time>
      </trkpt>
      <trkpt lat="38.96244333" lon="1.39768">
        <ele>120.0</ele>
        <time>2020-08-17T18:00:05.116Z</time>
      </trkpt>
      <trkpt lat="38.96237167" lon="1.39784167">
        <ele>120.0</ele>
        <time>2020-08-17T18:00:06.118Z</time>
      </trkpt>
      <trkpt lat="38.96237167" lon="1.39784167">
        <ele>120.0</ele>
        <time>2020-08-17T18:00:07.116Z</time>
      </trkpt>
      <trkpt lat="38.96229667" lon="1.39800667">
        <ele>120.0</ele>
        <time>2020-08-17T18:00:08.117Z</time>
      </trkpt>
      <trkpt lat="38.96226" lon="1.39809167">
        <ele>120.0</ele>
        <time>2020-08-17T18:00:09.119Z</time>
      </trkpt>
      <trkpt lat="38.96226" lon="1.39809167">
        <ele>120.0</ele>
        <time>2020-08-17T18:00:10.119Z</time>
      </trkpt>
      <trkpt lat="38.962185" lon="1.39825833">
        <ele>120.0</ele>
        <time>2020-08-17T18:00:11.119Z</time>
      </trkpt>
      <trkpt lat="38.962185" lon="1.39825833">
        <ele>120.0</ele>
        <time>2020-08-17T18:00:12.115Z</time>
      </trkpt>
      <trkpt lat="38.96211167" lon="1.39843">
        <ele>119.0</ele>
        <time>2020-08-17T18:00:13.119Z</time>
      </trkpt>
      <trkpt lat="38.96207167" lon="1.39851833">
        <ele>120.0</ele>
        <time>2020-08-17T18:00:14.118Z</time>
      </trkpt>
      <trkpt lat="38.96207167" lon="1.39851833">
        <ele>120.0</ele>
        <time>2020-08-17T18:00:15.115Z</time>
      </trkpt>
      <trkpt lat="38.96198667" lon="1.39868667">
        <ele>119.0</ele>
        <time>2020-08-17T18:00:16.118Z</time>
      </trkpt>
      <trkpt lat="38.96198667" lon="1.39868667">
        <ele>119.0</ele>
        <time>2020-08-17T18:00:17.098Z</time>
      </trkpt>
      <trkpt lat="38.961895" lon="1.398845">
        <ele>119.0</ele>
        <time>2020-08-17T18:00:18.120Z</time>
      </trkpt>
      <trkpt lat="38.96184333" lon="1.39891333">
        <ele>119.0</ele>
        <time>2020-08-17T18:00:19.118Z</time>
      </trkpt>
      <trkpt lat="38.96184333" lon="1.39891333">
        <ele>119.0</ele>
        <time>2020-08-17T18:00:20.119Z</time>
      </trkpt>
      <trkpt lat="38.961725" lon="1.399025">
        <ele>119.0</ele>
        <time>2020-08-17T18:00:21.098Z</time>
      </trkpt>
      <trkpt lat="38.96165833" lon="1.39907">
        <ele>119.0</ele>
        <time>2020-08-17T18:00:22.119Z</time>
      </trkpt>
      <trkpt lat="38.96165833" lon="1.39907">
        <ele>119.0</ele>
        <time>2020-08-17T18:00:23.125Z</time>
      </trkpt>
      <trkpt lat="38.96152167" lon="1.39912667">
        <ele>120.0</ele>
        <time>2020-08-17T18:00:24.090Z</time>
      </trkpt>
      <trkpt lat="38.96152167" lon="1.39912667">
        <ele>120.0</ele>
        <time>2020-08-17T18:00:25.097Z</time>
      </trkpt>
      <trkpt lat="38.96138333" lon="1.39913833">
        <ele>120.0</ele>
        <time>2020-08-17T18:00:26.107Z</time>
      </trkpt>
      <trkpt lat="38.96131" lon="1.39913333">
        <ele>120.0</ele>
        <time>2020-08-17T18:00:27.091Z</time>
      </trkpt>
      <trkpt lat="38.96131" lon="1.39913333">
        <ele>120.0</ele>
        <time>2020-08-17T18:00:28.116Z</time>
      </trkpt>
      <trkpt lat="38.96117" lon="1.399085">
        <ele>120.0</ele>
        <time>2020-08-17T18:00:29.093Z</time>
      </trkpt>
      <trkpt lat="38.96117" lon="1.399085">
        <ele>120.0</ele>
        <time>2020-08-17T18:00:30.114Z</time>
      </trkpt>
      <trkpt lat="38.96103" lon="1.39901667">
        <ele>120.0</ele>
        <time>2020-08-17T18:00:31.119Z</time>
      </trkpt>
      <trkpt lat="38.96103" lon="1.39901667">
        <ele>120.0</ele>
        <time>2020-08-17T18:00:32.120Z</time>
      </trkpt>
      <trkpt lat="38.96088167" lon="1.39894833">
        <ele>120.0</ele>
        <time>2020-08-17T18:00:33.118Z</time>
      </trkpt>
      <trkpt lat="38.96088167" lon="1.39894833">
        <ele>120.0</ele>
        <time>2020-08-17T18:00:34.115Z</time>
      </trkpt>
      <trkpt lat="38.96074667" lon="1.39886">
        <ele>120.0</ele>
        <time>2020-08-17T18:00:35.118Z</time>
      </trkpt>
      <trkpt lat="38.96074667" lon="1.39886">
        <ele>120.0</ele>
        <time>2020-08-17T18:00:36.115Z</time>
      </trkpt>
      <trkpt lat="38.96060667" lon="1.39877667">
        <ele>119.0</ele>
        <time>2020-08-17T18:00:37.118Z</time>
      </trkpt>
      <trkpt lat="38.96060667" lon="1.39877667">
        <ele>119.0</ele>
        <time>2020-08-17T18:00:38.115Z</time>
      </trkpt>
      <trkpt lat="38.960465" lon="1.39868667">
        <ele>120.0</ele>
        <time>2020-08-17T18:00:39.118Z</time>
      </trkpt>
      <trkpt lat="38.960465" lon="1.39868667">
        <ele>120.0</ele>
        <time>2020-08-17T18:00:40.119Z</time>
      </trkpt>
      <trkpt lat="38.96036" lon="1.39854333">
        <ele>121.0</ele>
        <time>2020-08-17T18:00:41.094Z</time>
      </trkpt>
      <trkpt lat="38.96036" lon="1.39854333">
        <ele>121.0</ele>
        <time>2020-08-17T18:00:42.125Z</time>
      </trkpt>
      <trkpt lat="38.96027" lon="1.39842833">
        <ele>120.0</ele>
        <time>2020-08-17T18:00:43.118Z</time>
      </trkpt>
      <trkpt lat="38.96027" lon="1.39842833">
        <ele>120.0</ele>
        <time>2020-08-17T18:00:44.112Z</time>
      </trkpt>
      <trkpt lat="38.96014667" lon="1.39844667">
        <ele>118.0</ele>
        <time>2020-08-17T18:00:45.093Z</time>
      </trkpt>
      <trkpt lat="38.96014667" lon="1.39844667">
        <ele>118.0</ele>
        <time>2020-08-17T18:00:46.116Z</time>
      </trkpt>
      <trkpt lat="38.960055" lon="1.39858667">
        <ele>118.0</ele>
        <time>2020-08-17T18:00:47.119Z</time>
      </trkpt>
      <trkpt lat="38.960055" lon="1.39858667">
        <ele>118.0</ele>
        <time>2020-08-17T18:00:48.115Z</time>
      </trkpt>
      <trkpt lat="38.960015" lon="1.39878833">
        <ele>117.0</ele>
        <time>2020-08-17T18:00:49.114Z</time>
      </trkpt>
      <trkpt lat="38.95998667" lon="1.39888833">
        <ele>116.0</ele>
        <time>2020-08-17T18:00:50.122Z</time>
      </trkpt>
      <trkpt lat="38.95998667" lon="1.39888833">
        <ele>116.0</ele>
        <time>2020-08-17T18:00:51.115Z</time>
      </trkpt>
      <trkpt lat="38.959895" lon="1.399075">
        <ele>116.0</ele>
        <time>2020-08-17T18:00:52.116Z</time>
      </trkpt>
      <trkpt lat="38.95983667" lon="1.39916167">
        <ele>115.0</ele>
        <time>2020-08-17T18:00:53.117Z</time>
      </trkpt>
      <trkpt lat="38.95983667" lon="1.39916167">
        <ele>115.0</ele>
        <time>2020-08-17T18:00:54.113Z</time>
      </trkpt>
      <trkpt lat="38.95970667" lon="1.39932333">
        <ele>114.0</ele>
        <time>2020-08-17T18:00:55.092Z</time>
      </trkpt>
      <trkpt lat="38.95970667" lon="1.39932333">
        <ele>114.0</ele>
        <time>2020-08-17T18:00:56.116Z</time>
      </trkpt>
      <trkpt lat="38.95954167" lon="1.399465">
        <ele>113.0</ele>
        <time>2020-08-17T18:00:57.117Z</time>
      </trkpt>
      <trkpt lat="38.95954167" lon="1.399465">
        <ele>113.0</ele>
        <time>2020-08-17T18:00:58.112Z</time>
      </trkpt>
      <trkpt lat="38.95936167" lon="1.39963">
        <ele>111.0</ele>
        <time>2020-08-17T18:00:59.099Z</time>
      </trkpt>
      <trkpt lat="38.95927833" lon="1.399735">
        <ele>110.0</ele>
        <time>2020-08-17T18:01:00.112Z</time>
      </trkpt>
      <trkpt lat="38.95927833" lon="1.399735">
        <ele>110.0</ele>
        <time>2020-08-17T18:01:01.097Z</time>
      </trkpt>
      <trkpt lat="38.95913" lon="1.39996833">
        <ele>108.0</ele>
        <time>2020-08-17T18:01:02.122Z</time>
      </trkpt>
      <trkpt lat="38.95913" lon="1.39996833">
        <ele>108.0</ele>
        <time>2020-08-17T18:01:03.117Z</time>
      </trkpt>
      <trkpt lat="38.95898333" lon="1.400215">
        <ele>106.0</ele>
        <time>2020-08-17T18:01:04.118Z</time>
      </trkpt>
      <trkpt lat="38.95898333" lon="1.400215">
        <ele>106.0</ele>
        <time>2020-08-17T18:01:05.115Z</time>
      </trkpt>
      <trkpt lat="38.95882" lon="1.40046833">
        <ele>104.0</ele>
        <time>2020-08-17T18:01:06.108Z</time>
      </trkpt>
      <trkpt lat="38.95882" lon="1.40046833">
        <ele>104.0</ele>
        <time>2020-08-17T18:01:07.115Z</time>
      </trkpt>
      <trkpt lat="38.95865333" lon="1.400735">
        <ele>102.0</ele>
        <time>2020-08-17T18:01:08.121Z</time>
      </trkpt>
      <trkpt lat="38.95857" lon="1.400875">
        <ele>101.0</ele>
        <time>2020-08-17T18:01:09.087Z</time>
      </trkpt>
      <trkpt lat="38.95857" lon="1.400875">
        <ele>101.0</ele>
        <time>2020-08-17T18:01:10.116Z</time>
      </trkpt>
      <trkpt lat="38.95840333" lon="1.40116833">
        <ele>99.0</ele>
        <time>2020-08-17T18:01:11.094Z</time>
      </trkpt>
      <trkpt lat="38.958325" lon="1.40131333">
        <ele>99.0</ele>
        <time>2020-08-17T18:01:12.119Z</time>
      </trkpt>
      <trkpt lat="38.958325" lon="1.40131333">
        <ele>99.0</ele>
        <time>2020-08-17T18:01:13.115Z</time>
      </trkpt>
      <trkpt lat="38.95816333" lon="1.40159167">
        <ele>98.0</ele>
        <time>2020-08-17T18:01:14.117Z</time>
      </trkpt>
      <trkpt lat="38.95816333" lon="1.40159167">
        <ele>98.0</ele>
        <time>2020-08-17T18:01:15.114Z</time>
      </trkpt>
      <trkpt lat="38.95799833" lon="1.40185667">
        <ele>98.0</ele>
        <time>2020-08-17T18:01:16.117Z</time>
      </trkpt>
      <trkpt lat="38.95791667" lon="1.401985">
        <ele>98.0</ele>
        <time>2020-08-17T18:01:17.118Z</time>
      </trkpt>
      <trkpt lat="38.95791667" lon="1.401985">
        <ele>98.0</ele>
        <time>2020-08-17T18:01:18.114Z</time>
      </trkpt>
      <trkpt lat="38.95776" lon="1.40223833">
        <ele>97.0</ele>
        <time>2020-08-17T18:01:19.093Z</time>
      </trkpt>
      <trkpt lat="38.95776" lon="1.40223833">
        <ele>97.0</ele>
        <time>2020-08-17T18:01:20.119Z</time>
      </trkpt>
      <trkpt lat="38.95760667" lon="1.40249">
        <ele>97.0</ele>
        <time>2020-08-17T18:01:21.093Z</time>
      </trkpt>
      <trkpt lat="38.95760667" lon="1.40249">
        <ele>97.0</ele>
        <time>2020-08-17T18:01:22.110Z</time>
      </trkpt>
      <trkpt lat="38.95745" lon="1.40273833">
        <ele>96.0</ele>
        <time>2020-08-17T18:01:23.108Z</time>
      </trkpt>
      <trkpt lat="38.95745" lon="1.40273833">
        <ele>96.0</ele>
        <time>2020-08-17T18:01:24.114Z</time>
      </trkpt>
      <trkpt lat="38.95729833" lon="1.40296667">
        <ele>95.0</ele>
        <time>2020-08-17T18:01:25.120Z</time>
      </trkpt>
      <trkpt lat="38.95729833" lon="1.40296667">
        <ele>95.0</ele>
        <time>2020-08-17T18:01:26.114Z</time>
      </trkpt>
      <trkpt lat="38.95716" lon="1.403135">
        <ele>95.0</ele>
        <time>2020-08-17T18:01:27.093Z</time>
      </trkpt>
      <trkpt lat="38.95716" lon="1.403135">
        <ele>95.0</ele>
        <time>2020-08-17T18:01:28.090Z</time>
      </trkpt>
      <trkpt lat="38.95705" lon="1.403295">
        <ele>94.0</ele>
        <time>2020-08-17T18:01:29.119Z</time>
      </trkpt>
      <trkpt lat="38.95705" lon="1.403295">
        <ele>94.0</ele>
        <time>2020-08-17T18:01:30.114Z</time>
      </trkpt>
      <trkpt lat="38.95699833" lon="1.4035">
        <ele>94.0</ele>
        <time>2020-08-17T18:01:31.118Z</time>
      </trkpt>
      <trkpt lat="38.95696833" lon="1.40360667">
        <ele>94.0</ele>
        <time>2020-08-17T18:01:32.117Z</time>
      </trkpt>
      <trkpt lat="38.95696833" lon="1.40360667">
        <ele>94.0</ele>
        <time>2020-08-17T18:01:33.114Z</time>
      </trkpt>
      <trkpt lat="38.95686833" lon="1.40380333">
        <ele>93.0</ele>
        <time>2020-08-17T18:01:34.117Z</time>
      </trkpt>
      <trkpt lat="38.95680167" lon="1.40389167">
        <ele>92.0</ele>
        <time>2020-08-17T18:01:35.119Z</time>
      </trkpt>
      <trkpt lat="38.95673" lon="1.40398167">
        <ele>91.0</ele>
        <time>2020-08-17T18:01:36.118Z</time>
      </trkpt>
      <trkpt lat="38.95673" lon="1.40398167">
        <ele>91.0</ele>
        <time>2020-08-17T18:01:37.113Z</time>
      </trkpt>
      <trkpt lat="38.95658167" lon="1.404165">
        <ele>91.0</ele>
        <time>2020-08-17T18:01:38.092Z</time>
      </trkpt>
      <trkpt lat="38.95658167" lon="1.404165">
        <ele>91.0</ele>
        <time>2020-08-17T18:01:39.115Z</time>
      </trkpt>
      <trkpt lat="38.95642" lon="1.40435167">
        <ele>90.0</ele>
        <time>2020-08-17T18:01:40.118Z</time>
      </trkpt>
      <trkpt lat="38.95642" lon="1.40435167">
        <ele>90.0</ele>
        <time>2020-08-17T18:01:41.117Z</time>
      </trkpt>
      <trkpt lat="38.95625167" lon="1.40454">
        <ele>89.0</ele>
        <time>2020-08-17T18:01:42.110Z</time>
      </trkpt>
      <trkpt lat="38.95616333" lon="1.404635">
        <ele>88.0</ele>
        <time>2020-08-17T18:01:43.090Z</time>
      </trkpt>
      <trkpt lat="38.95616333" lon="1.404635">
        <ele>88.0</ele>
        <time>2020-08-17T18:01:44.114Z</time>
      </trkpt>
      <trkpt lat="38.95597833" lon="1.40482333">
        <ele>87.0</ele>
        <time>2020-08-17T18:01:45.094Z</time>
      </trkpt>
      <trkpt lat="38.95597833" lon="1.40482333">
        <ele>87.0</ele>
        <time>2020-08-17T18:01:46.114Z</time>
      </trkpt>
      <trkpt lat="38.95578833" lon="1.40501">
        <ele>85.0</ele>
        <time>2020-08-17T18:01:47.093Z</time>
      </trkpt>
      <trkpt lat="38.95568667" lon="1.40510667">
        <ele>85.0</ele>
        <time>2020-08-17T18:01:48.117Z</time>
      </trkpt>
      <trkpt lat="38.95568667" lon="1.40510667">
        <ele>85.0</ele>
        <time>2020-08-17T18:01:49.115Z</time>
      </trkpt>
      <trkpt lat="38.95547" lon="1.40530333">
        <ele>84.0</ele>
        <time>2020-08-17T18:01:50.116Z</time>
      </trkpt>
      <trkpt lat="38.95547" lon="1.40530333">
        <ele>84.0</ele>
        <time>2020-08-17T18:01:51.115Z</time>
      </trkpt>
      <trkpt lat="38.95524667" lon="1.40548167">
        <ele>83.0</ele>
        <time>2020-08-17T18:01:52.121Z</time>
      </trkpt>
      <trkpt lat="38.95513167" lon="1.40557">
        <ele>82.0</ele>
        <time>2020-08-17T18:01:53.118Z</time>
      </trkpt>
      <trkpt lat="38.95513167" lon="1.40557">
        <ele>82.0</ele>
        <time>2020-08-17T18:01:54.114Z</time>
      </trkpt>
      <trkpt lat="38.954895" lon="1.405745">
        <ele>82.0</ele>
        <time>2020-08-17T18:01:55.092Z</time>
      </trkpt>
      <trkpt lat="38.954895" lon="1.405745">
        <ele>82.0</ele>
        <time>2020-08-17T18:01:56.114Z</time>
      </trkpt>
      <trkpt lat="38.95465167" lon="1.40591333">
        <ele>80.0</ele>
        <time>2020-08-17T18:01:57.094Z</time>
      </trkpt>
      <trkpt lat="38.95465167" lon="1.40591333">
        <ele>80.0</ele>
        <time>2020-08-17T18:01:58.114Z</time>
      </trkpt>
      <trkpt lat="38.95439833" lon="1.40606833">
        <ele>79.0</ele>
        <time>2020-08-17T18:01:59.121Z</time>
      </trkpt>
      <trkpt lat="38.95439833" lon="1.40606833">
        <ele>79.0</ele>
        <time>2020-08-17T18:02:00.122Z</time>
      </trkpt>
      <trkpt lat="38.95414167" lon="1.40621833">
        <ele>78.0</ele>
        <time>2020-08-17T18:02:01.118Z</time>
      </trkpt>
      <trkpt lat="38.95414167" lon="1.40621833">
        <ele>78.0</ele>
        <time>2020-08-17T18:02:02.114Z</time>
      </trkpt>
      <trkpt lat="38.95388167" lon="1.40635833">
        <ele>76.0</ele>
        <time>2020-08-17T18:02:03.118Z</time>
      </trkpt>
      <trkpt lat="38.95388167" lon="1.40635833">
        <ele>76.0</ele>
        <time>2020-08-17T18:02:04.112Z</time>
      </trkpt>
      <trkpt lat="38.95361833" lon="1.40649333">
        <ele>75.0</ele>
        <time>2020-08-17T18:02:05.093Z</time>
      </trkpt>
      <trkpt lat="38.95361833" lon="1.40649333">
        <ele>75.0</ele>
        <time>2020-08-17T18:02:06.115Z</time>
      </trkpt>
      <trkpt lat="38.953355" lon="1.406615">
        <ele>73.0</ele>
        <time>2020-08-17T18:02:07.117Z</time>
      </trkpt>
      <trkpt lat="38.953355" lon="1.406615">
        <ele>73.0</ele>
        <time>2020-08-17T18:02:08.112Z</time>
      </trkpt>
      <trkpt lat="38.95309333" lon="1.40672667">
        <ele>72.0</ele>
        <time>2020-08-17T18:02:09.091Z</time>
      </trkpt>
      <trkpt lat="38.95309333" lon="1.40672667">
        <ele>72.0</ele>
        <time>2020-08-17T18:02:10.114Z</time>
      </trkpt>
      <trkpt lat="38.95283167" lon="1.40682833">
        <ele>70.0</ele>
        <time>2020-08-17T18:02:11.092Z</time>
      </trkpt>
      <trkpt lat="38.95283167" lon="1.40682833">
        <ele>70.0</ele>
        <time>2020-08-17T18:02:12.115Z</time>
      </trkpt>
      <trkpt lat="38.95257167" lon="1.40693">
        <ele>69.0</ele>
        <time>2020-08-17T18:02:13.093Z</time>
      </trkpt>
      <trkpt lat="38.95257167" lon="1.40693">
        <ele>69.0</ele>
        <time>2020-08-17T18:02:14.115Z</time>
      </trkpt>
      <trkpt lat="38.95231" lon="1.40702667">
        <ele>68.0</ele>
        <time>2020-08-17T18:02:15.117Z</time>
      </trkpt>
      <trkpt lat="38.95231" lon="1.40702667">
        <ele>68.0</ele>
        <time>2020-08-17T18:02:16.114Z</time>
      </trkpt>
      <trkpt lat="38.952055" lon="1.40712167">
        <ele>67.0</ele>
        <time>2020-08-17T18:02:17.094Z</time>
      </trkpt>
      <trkpt lat="38.952055" lon="1.40712167">
        <ele>67.0</ele>
        <time>2020-08-17T18:02:18.119Z</time>
      </trkpt>
      <trkpt lat="38.951805" lon="1.40721833">
        <ele>66.0</ele>
        <time>2020-08-17T18:02:19.086Z</time>
      </trkpt>
      <trkpt lat="38.95168167" lon="1.40726667">
        <ele>66.0</ele>
        <time>2020-08-17T18:02:20.093Z</time>
      </trkpt>
      <trkpt lat="38.95168167" lon="1.40726667">
        <ele>66.0</ele>
        <time>2020-08-17T18:02:21.104Z</time>
      </trkpt>
      <trkpt lat="38.951435" lon="1.40736333">
        <ele>65.0</ele>
        <time>2020-08-17T18:02:22.093Z</time>
      </trkpt>
      <trkpt lat="38.951435" lon="1.40736333">
        <ele>65.0</ele>
        <time>2020-08-17T18:02:23.114Z</time>
      </trkpt>
      <trkpt lat="38.95118833" lon="1.40746167">
        <ele>64.0</ele>
        <time>2020-08-17T18:02:24.094Z</time>
      </trkpt>
      <trkpt lat="38.95106833" lon="1.40750833">
        <ele>64.0</ele>
        <time>2020-08-17T18:02:25.118Z</time>
      </trkpt>
      <trkpt lat="38.95106833" lon="1.40750833">
        <ele>64.0</ele>
        <time>2020-08-17T18:02:26.113Z</time>
      </trkpt>
      <trkpt lat="38.95083167" lon="1.40760833">
        <ele>63.0</ele>
        <time>2020-08-17T18:02:27.117Z</time>
      </trkpt>
      <trkpt lat="38.95083167" lon="1.40760833">
        <ele>63.0</ele>
        <time>2020-08-17T18:02:28.113Z</time>
      </trkpt>
      <trkpt lat="38.95059833" lon="1.40771167">
        <ele>63.0</ele>
        <time>2020-08-17T18:02:29.092Z</time>
      </trkpt>
      <trkpt lat="38.950485" lon="1.40776167">
        <ele>62.0</ele>
        <time>2020-08-17T18:02:30.112Z</time>
      </trkpt>
      <trkpt lat="38.950485" lon="1.40776167">
        <ele>62.0</ele>
        <time>2020-08-17T18:02:31.091Z</time>
      </trkpt>
      <trkpt lat="38.95026167" lon="1.40784333">
        <ele>62.0</ele>
        <time>2020-08-17T18:02:32.118Z</time>
      </trkpt>
      <trkpt lat="38.95026167" lon="1.40784333">
        <ele>62.0</ele>
        <time>2020-08-17T18:02:33.116Z</time>
      </trkpt>
      <trkpt lat="38.950055" lon="1.40784167">
        <ele>61.0</ele>
        <time>2020-08-17T18:02:34.118Z</time>
      </trkpt>
      <trkpt lat="38.950055" lon="1.40784167">
        <ele>61.0</ele>
        <time>2020-08-17T18:02:35.116Z</time>
      </trkpt>
      <trkpt lat="38.94984333" lon="1.407835">
        <ele>62.0</ele>
        <time>2020-08-17T18:02:36.117Z</time>
      </trkpt>
      <trkpt lat="38.94973833" lon="1.40786833">
        <ele>62.0</ele>
        <time>2020-08-17T18:02:37.118Z</time>
      </trkpt>
      <trkpt lat="38.94973833" lon="1.40786833">
        <ele>62.0</ele>
        <time>2020-08-17T18:02:38.114Z</time>
      </trkpt>
      <trkpt lat="38.94954167" lon="1.40799333">
        <ele>61.0</ele>
        <time>2020-08-17T18:02:39.117Z</time>
      </trkpt>
      <trkpt lat="38.94944667" lon="1.40806167">
        <ele>61.0</ele>
        <time>2020-08-17T18:02:40.117Z</time>
      </trkpt>
      <trkpt lat="38.949345" lon="1.408125">
        <ele>61.0</ele>
        <time>2020-08-17T18:02:41.119Z</time>
      </trkpt>
      <trkpt lat="38.949345" lon="1.408125">
        <ele>61.0</ele>
        <time>2020-08-17T18:02:42.115Z</time>
      </trkpt>
      <trkpt lat="38.94913333" lon="1.40824167">
        <ele>61.0</ele>
        <time>2020-08-17T18:02:43.098Z</time>
      </trkpt>
      <trkpt lat="38.94913333" lon="1.40824167">
        <ele>61.0</ele>
        <time>2020-08-17T18:02:44.118Z</time>
      </trkpt>
      <trkpt lat="38.94891667" lon="1.40836167">
        <ele>61.0</ele>
        <time>2020-08-17T18:02:45.118Z</time>
      </trkpt>
      <trkpt lat="38.94881333" lon="1.40842333">
        <ele>61.0</ele>
        <time>2020-08-17T18:02:46.117Z</time>
      </trkpt>
      <trkpt lat="38.948705" lon="1.408485">
        <ele>61.0</ele>
        <time>2020-08-17T18:02:47.099Z</time>
      </trkpt>
      <trkpt lat="38.948705" lon="1.408485">
        <ele>61.0</ele>
        <time>2020-08-17T18:02:48.119Z</time>
      </trkpt>
      <trkpt lat="38.94848667" lon="1.40860833">
        <ele>61.0</ele>
        <time>2020-08-17T18:02:49.118Z</time>
      </trkpt>
      <trkpt lat="38.94848667" lon="1.40860833">
        <ele>61.0</ele>
        <time>2020-08-17T18:02:50.122Z</time>
      </trkpt>
      <trkpt lat="38.94826667" lon="1.40873">
        <ele>60.0</ele>
        <time>2020-08-17T18:02:51.118Z</time>
      </trkpt>
      <trkpt lat="38.94826667" lon="1.40873">
        <ele>60.0</ele>
        <time>2020-08-17T18:02:52.097Z</time>
      </trkpt>
      <trkpt lat="38.94804" lon="1.40886833">
        <ele>59.0</ele>
        <time>2020-08-17T18:02:53.119Z</time>
      </trkpt>
      <trkpt lat="38.94804" lon="1.40886833">
        <ele>59.0</ele>
        <time>2020-08-17T18:02:54.114Z</time>
      </trkpt>
      <trkpt lat="38.94780667" lon="1.40900833">
        <ele>58.0</ele>
        <time>2020-08-17T18:02:55.118Z</time>
      </trkpt>
      <trkpt lat="38.94780667" lon="1.40900833">
        <ele>58.0</ele>
        <time>2020-08-17T18:02:56.115Z</time>
      </trkpt>
      <trkpt lat="38.94757333" lon="1.40915167">
        <ele>57.0</ele>
        <time>2020-08-17T18:02:57.114Z</time>
      </trkpt>
      <trkpt lat="38.947455" lon="1.40922667">
        <ele>57.0</ele>
        <time>2020-08-17T18:02:58.110Z</time>
      </trkpt>
      <trkpt lat="38.947455" lon="1.40922667">
        <ele>57.0</ele>
        <time>2020-08-17T18:02:59.094Z</time>
      </trkpt>
      <trkpt lat="38.94721333" lon="1.40936667">
        <ele>56.0</ele>
        <time>2020-08-17T18:03:00.125Z</time>
      </trkpt>
      <trkpt lat="38.94709167" lon="1.40944">
        <ele>55.0</ele>
        <time>2020-08-17T18:03:01.120Z</time>
      </trkpt>
      <trkpt lat="38.94709167" lon="1.40944">
        <ele>55.0</ele>
        <time>2020-08-17T18:03:02.116Z</time>
      </trkpt>
      <trkpt lat="38.94684333" lon="1.40959167">
        <ele>54.0</ele>
        <time>2020-08-17T18:03:03.117Z</time>
      </trkpt>
      <trkpt lat="38.94684333" lon="1.40959167">
        <ele>54.0</ele>
        <time>2020-08-17T18:03:04.112Z</time>
      </trkpt>
      <trkpt lat="38.94659667" lon="1.40973667">
        <ele>53.0</ele>
        <time>2020-08-17T18:03:05.093Z</time>
      </trkpt>
      <trkpt lat="38.94659667" lon="1.40973667">
        <ele>53.0</ele>
        <time>2020-08-17T18:03:06.115Z</time>
      </trkpt>
      <trkpt lat="38.94634333" lon="1.40987667">
        <ele>52.0</ele>
        <time>2020-08-17T18:03:07.118Z</time>
      </trkpt>
      <trkpt lat="38.94634333" lon="1.40987667">
        <ele>52.0</ele>
        <time>2020-08-17T18:03:08.115Z</time>
      </trkpt>
      <trkpt lat="38.946095" lon="1.41001667">
        <ele>51.0</ele>
        <time>2020-08-17T18:03:09.117Z</time>
      </trkpt>
      <trkpt lat="38.94597167" lon="1.41008667">
        <ele>51.0</ele>
        <time>2020-08-17T18:03:10.118Z</time>
      </trkpt>
      <trkpt lat="38.94597167" lon="1.41008667">
        <ele>51.0</ele>
        <time>2020-08-17T18:03:11.116Z</time>
      </trkpt>
      <trkpt lat="38.94572667" lon="1.41022167">
        <ele>50.0</ele>
        <time>2020-08-17T18:03:12.098Z</time>
      </trkpt>
      <trkpt lat="38.94572667" lon="1.41022167">
        <ele>50.0</ele>
        <time>2020-08-17T18:03:13.118Z</time>
      </trkpt>
      <trkpt lat="38.94548833" lon="1.41036333">
        <ele>49.0</ele>
        <time>2020-08-17T18:03:14.117Z</time>
      </trkpt>
      <trkpt lat="38.94548833" lon="1.41036333">
        <ele>49.0</ele>
        <time>2020-08-17T18:03:15.114Z</time>
      </trkpt>
      <trkpt lat="38.94524667" lon="1.41050333">
        <ele>48.0</ele>
        <time>2020-08-17T18:03:16.094Z</time>
      </trkpt>
      <trkpt lat="38.945125" lon="1.410575">
        <ele>47.0</ele>
        <time>2020-08-17T18:03:17.117Z</time>
      </trkpt>
      <trkpt lat="38.945125" lon="1.410575">
        <ele>47.0</ele>
        <time>2020-08-17T18:03:18.113Z</time>
      </trkpt>
      <trkpt lat="38.94488167" lon="1.41071167">
        <ele>46.0</ele>
        <time>2020-08-17T18:03:19.093Z</time>
      </trkpt>
      <trkpt lat="38.94488167" lon="1.41071167">
        <ele>46.0</ele>
        <time>2020-08-17T18:03:20.116Z</time>
      </trkpt>
      <trkpt lat="38.94464167" lon="1.410845">
        <ele>45.0</ele>
        <time>2020-08-17T18:03:21.094Z</time>
      </trkpt>
      <trkpt lat="38.94464167" lon="1.410845">
        <ele>45.0</ele>
        <time>2020-08-17T18:03:22.089Z</time>
      </trkpt>
      <trkpt lat="38.944405" lon="1.41097167">
        <ele>45.0</ele>
        <time>2020-08-17T18:03:23.114Z</time>
      </trkpt>
      <trkpt lat="38.944405" lon="1.41097167">
        <ele>45.0</ele>
        <time>2020-08-17T18:03:24.120Z</time>
      </trkpt>
      <trkpt lat="38.94417" lon="1.41109167">
        <ele>44.0</ele>
        <time>2020-08-17T18:03:25.086Z</time>
      </trkpt>
      <trkpt lat="38.944055" lon="1.41115333">
        <ele>43.0</ele>
        <time>2020-08-17T18:03:26.118Z</time>
      </trkpt>
      <trkpt lat="38.944055" lon="1.41115333">
        <ele>43.0</ele>
        <time>2020-08-17T18:03:27.115Z</time>
      </trkpt>
      <trkpt lat="38.94382833" lon="1.41127333">
        <ele>43.0</ele>
        <time>2020-08-17T18:03:28.118Z</time>
      </trkpt>
      <trkpt lat="38.94371833" lon="1.41133167">
        <ele>42.0</ele>
        <time>2020-08-17T18:03:29.119Z</time>
      </trkpt>
      <trkpt lat="38.94371833" lon="1.41133167">
        <ele>42.0</ele>
        <time>2020-08-17T18:03:30.119Z</time>
      </trkpt>
      <trkpt lat="38.9435" lon="1.41145167">
        <ele>41.0</ele>
        <time>2020-08-17T18:03:31.115Z</time>
      </trkpt>
      <trkpt lat="38.9435" lon="1.41145167">
        <ele>41.0</ele>
        <time>2020-08-17T18:03:32.114Z</time>
      </trkpt>
      <trkpt lat="38.94329167" lon="1.41156667">
        <ele>41.0</ele>
        <time>2020-08-17T18:03:33.111Z</time>
      </trkpt>
      <trkpt lat="38.943185" lon="1.41161833">
        <ele>41.0</ele>
        <time>2020-08-17T18:03:34.093Z</time>
      </trkpt>
      <trkpt lat="38.94307833" lon="1.41165333">
        <ele>40.0</ele>
        <time>2020-08-17T18:03:35.119Z</time>
      </trkpt>
      <trkpt lat="38.94307833" lon="1.41165333">
        <ele>40.0</ele>
        <time>2020-08-17T18:03:36.115Z</time>
      </trkpt>
      <trkpt lat="38.94286667" lon="1.41165167">
        <ele>40.0</ele>
        <time>2020-08-17T18:03:37.117Z</time>
      </trkpt>
      <trkpt lat="38.94286667" lon="1.41165167">
        <ele>40.0</ele>
        <time>2020-08-17T18:03:38.115Z</time>
      </trkpt>
      <trkpt lat="38.94266833" lon="1.41171">
        <ele>40.0</ele>
        <time>2020-08-17T18:03:39.097Z</time>
      </trkpt>
      <trkpt lat="38.94266833" lon="1.41171">
        <ele>40.0</ele>
        <time>2020-08-17T18:03:40.117Z</time>
      </trkpt>
      <trkpt lat="38.94253333" lon="1.41188667">
        <ele>40.0</ele>
        <time>2020-08-17T18:03:41.119Z</time>
      </trkpt>
      <trkpt lat="38.94253333" lon="1.41188667">
        <ele>40.0</ele>
        <time>2020-08-17T18:03:42.113Z</time>
      </trkpt>
      <trkpt lat="38.942385" lon="1.41206833">
        <ele>39.0</ele>
        <time>2020-08-17T18:03:43.095Z</time>
      </trkpt>
      <trkpt lat="38.94229333" lon="1.412135">
        <ele>39.0</ele>
        <time>2020-08-17T18:03:44.117Z</time>
      </trkpt>
      <trkpt lat="38.94229333" lon="1.412135">
        <ele>39.0</ele>
        <time>2020-08-17T18:03:45.116Z</time>
      </trkpt>
      <trkpt lat="38.94210333" lon="1.41224833">
        <ele>38.0</ele>
        <time>2020-08-17T18:03:46.117Z</time>
      </trkpt>
      <trkpt lat="38.94200833" lon="1.412305">
        <ele>38.0</ele>
        <time>2020-08-17T18:03:47.119Z</time>
      </trkpt>
      <trkpt lat="38.94200833" lon="1.412305">
        <ele>38.0</ele>
        <time>2020-08-17T18:03:48.113Z</time>
      </trkpt>
      <trkpt lat="38.94182" lon="1.41241667">
        <ele>38.0</ele>
        <time>2020-08-17T18:03:49.118Z</time>
      </trkpt>
      <trkpt lat="38.94182" lon="1.41241667">
        <ele>38.0</ele>
        <time>2020-08-17T18:03:50.119Z</time>
      </trkpt>
      <trkpt lat="38.94163333" lon="1.412525">
        <ele>37.0</ele>
        <time>2020-08-17T18:03:51.095Z</time>
      </trkpt>
      <trkpt lat="38.94154167" lon="1.41258">
        <ele>37.0</ele>
        <time>2020-08-17T18:03:52.117Z</time>
      </trkpt>
      <trkpt lat="38.94145167" lon="1.41263333">
        <ele>37.0</ele>
        <time>2020-08-17T18:03:53.122Z</time>
      </trkpt>
      <trkpt lat="38.94145167" lon="1.41263333">
        <ele>37.0</ele>
        <time>2020-08-17T18:03:54.115Z</time>
      </trkpt>
      <trkpt lat="38.94127167" lon="1.41273833">
        <ele>37.0</ele>
        <time>2020-08-17T18:03:55.118Z</time>
      </trkpt>
      <trkpt lat="38.94127167" lon="1.41273833">
        <ele>37.0</ele>
        <time>2020-08-17T18:03:56.117Z</time>
      </trkpt>
      <trkpt lat="38.94109667" lon="1.41284667">
        <ele>37.0</ele>
        <time>2020-08-17T18:03:57.118Z</time>
      </trkpt>
      <trkpt lat="38.94109667" lon="1.41284667">
        <ele>37.0</ele>
        <time>2020-08-17T18:03:58.114Z</time>
      </trkpt>
      <trkpt lat="38.94092667" lon="1.41294667">
        <ele>37.0</ele>
        <time>2020-08-17T18:03:59.118Z</time>
      </trkpt>
      <trkpt lat="38.94084167" lon="1.41299333">
        <ele>37.0</ele>
        <time>2020-08-17T18:04:00.120Z</time>
      </trkpt>
      <trkpt lat="38.94084167" lon="1.41299333">
        <ele>37.0</ele>
        <time>2020-08-17T18:04:01.114Z</time>
      </trkpt>
      <trkpt lat="38.94067167" lon="1.413095">
        <ele>36.0</ele>
        <time>2020-08-17T18:04:02.117Z</time>
      </trkpt>
      <trkpt lat="38.94058833" lon="1.413145">
        <ele>36.0</ele>
        <time>2020-08-17T18:04:03.122Z</time>
      </trkpt>
      <trkpt lat="38.94058833" lon="1.413145">
        <ele>36.0</ele>
        <time>2020-08-17T18:04:04.115Z</time>
      </trkpt>
      <trkpt lat="38.94042333" lon="1.41324667">
        <ele>36.0</ele>
        <time>2020-08-17T18:04:05.095Z</time>
      </trkpt>
      <trkpt lat="38.94042333" lon="1.41324667">
        <ele>36.0</ele>
        <time>2020-08-17T18:04:06.116Z</time>
      </trkpt>
      <trkpt lat="38.94026" lon="1.41334333">
        <ele>36.0</ele>
        <time>2020-08-17T18:04:07.118Z</time>
      </trkpt>
      <trkpt lat="38.94026" lon="1.41334333">
        <ele>36.0</ele>
        <time>2020-08-17T18:04:08.116Z</time>
      </trkpt>
      <trkpt lat="38.94009667" lon="1.41344">
        <ele>36.0</ele>
        <time>2020-08-17T18:04:09.118Z</time>
      </trkpt>
      <trkpt lat="38.94009667" lon="1.41344">
        <ele>36.0</ele>
        <time>2020-08-17T18:04:10.117Z</time>
      </trkpt>
      <trkpt lat="38.939935" lon="1.41353667">
        <ele>36.0</ele>
        <time>2020-08-17T18:04:11.119Z</time>
      </trkpt>
      <trkpt lat="38.939855" lon="1.41358333">
        <ele>36.0</ele>
        <time>2020-08-17T18:04:12.119Z</time>
      </trkpt>
      <trkpt lat="38.939855" lon="1.41358333">
        <ele>36.0</ele>
        <time>2020-08-17T18:04:13.117Z</time>
      </trkpt>
      <trkpt lat="38.939695" lon="1.41368167">
        <ele>35.0</ele>
        <time>2020-08-17T18:04:14.095Z</time>
      </trkpt>
      <trkpt lat="38.939695" lon="1.41368167">
        <ele>35.0</ele>
        <time>2020-08-17T18:04:15.115Z</time>
      </trkpt>
      <trkpt lat="38.93953667" lon="1.41378167">
        <ele>35.0</ele>
        <time>2020-08-17T18:04:16.098Z</time>
      </trkpt>
      <trkpt lat="38.93945833" lon="1.41382833">
        <ele>35.0</ele>
        <time>2020-08-17T18:04:17.120Z</time>
      </trkpt>
      <trkpt lat="38.93945833" lon="1.41382833">
        <ele>35.0</ele>
        <time>2020-08-17T18:04:18.116Z</time>
      </trkpt>
      <trkpt lat="38.93930167" lon="1.41392">
        <ele>35.0</ele>
        <time>2020-08-17T18:04:19.118Z</time>
      </trkpt>
      <trkpt lat="38.93930167" lon="1.41392">
        <ele>35.0</ele>
        <time>2020-08-17T18:04:20.119Z</time>
      </trkpt>
      <trkpt lat="38.93914667" lon="1.41401">
        <ele>35.0</ele>
        <time>2020-08-17T18:04:21.117Z</time>
      </trkpt>
      <trkpt lat="38.93907" lon="1.41405833">
        <ele>35.0</ele>
        <time>2020-08-17T18:04:22.114Z</time>
      </trkpt>
      <trkpt lat="38.93907" lon="1.41405833">
        <ele>35.0</ele>
        <time>2020-08-17T18:04:23.094Z</time>
      </trkpt>
      <trkpt lat="38.938915" lon="1.41415167">
        <ele>35.0</ele>
        <time>2020-08-17T18:04:24.101Z</time>
      </trkpt>
      <trkpt lat="38.93883667" lon="1.41419833">
        <ele>35.0</ele>
        <time>2020-08-17T18:04:25.119Z</time>
      </trkpt>
      <trkpt lat="38.93883667" lon="1.41419833">
        <ele>35.0</ele>
        <time>2020-08-17T18:04:26.115Z</time>
      </trkpt>
      <trkpt lat="38.93868" lon="1.414295">
        <ele>34.0</ele>
        <time>2020-08-17T18:04:27.119Z</time>
      </trkpt>
      <trkpt lat="38.93868" lon="1.414295">
        <ele>34.0</ele>
        <time>2020-08-17T18:04:28.116Z</time>
      </trkpt>
      <trkpt lat="38.93851667" lon="1.41439333">
        <ele>34.0</ele>
        <time>2020-08-17T18:04:29.120Z</time>
      </trkpt>
      <trkpt lat="38.93851667" lon="1.41439333">
        <ele>34.0</ele>
        <time>2020-08-17T18:04:30.119Z</time>
      </trkpt>
      <trkpt lat="38.93835833" lon="1.41449">
        <ele>34.0</ele>
        <time>2020-08-17T18:04:31.094Z</time>
      </trkpt>
      <trkpt lat="38.93835833" lon="1.41449">
        <ele>34.0</ele>
        <time>2020-08-17T18:04:32.116Z</time>
      </trkpt>
      <trkpt lat="38.93819667" lon="1.414585">
        <ele>34.0</ele>
        <time>2020-08-17T18:04:33.117Z</time>
      </trkpt>
      <trkpt lat="38.938115" lon="1.41463167">
        <ele>34.0</ele>
        <time>2020-08-17T18:04:34.119Z</time>
      </trkpt>
      <trkpt lat="38.938115" lon="1.41463167">
        <ele>34.0</ele>
        <time>2020-08-17T18:04:35.117Z</time>
      </trkpt>
      <trkpt lat="38.93795333" lon="1.41472667">
        <ele>34.0</ele>
        <time>2020-08-17T18:04:36.118Z</time>
      </trkpt>
      <trkpt lat="38.93787333" lon="1.41477667">
        <ele>34.0</ele>
        <time>2020-08-17T18:04:37.098Z</time>
      </trkpt>
      <trkpt lat="38.93787333" lon="1.41477667">
        <ele>34.0</ele>
        <time>2020-08-17T18:04:38.089Z</time>
      </trkpt>
      <trkpt lat="38.93771833" lon="1.41487333">
        <ele>33.0</ele>
        <time>2020-08-17T18:04:39.117Z</time>
      </trkpt>
      <trkpt lat="38.93771833" lon="1.41487333">
        <ele>33.0</ele>
        <time>2020-08-17T18:04:40.119Z</time>
      </trkpt>
      <trkpt lat="38.93755833" lon="1.41497">
        <ele>33.0</ele>
        <time>2020-08-17T18:04:41.095Z</time>
      </trkpt>
      <trkpt lat="38.93755833" lon="1.41497">
        <ele>33.0</ele>
        <time>2020-08-17T18:04:42.117Z</time>
      </trkpt>
      <trkpt lat="38.93740167" lon="1.41506167">
        <ele>33.0</ele>
        <time>2020-08-17T18:04:43.119Z</time>
      </trkpt>
      <trkpt lat="38.93740167" lon="1.41506167">
        <ele>33.0</ele>
        <time>2020-08-17T18:04:44.116Z</time>
      </trkpt>
      <trkpt lat="38.937245" lon="1.41515167">
        <ele>33.0</ele>
        <time>2020-08-17T18:04:45.118Z</time>
      </trkpt>
      <trkpt lat="38.937245" lon="1.41515167">
        <ele>33.0</ele>
        <time>2020-08-17T18:04:46.116Z</time>
      </trkpt>
      <trkpt lat="38.93709" lon="1.415245">
        <ele>33.0</ele>
        <time>2020-08-17T18:04:47.095Z</time>
      </trkpt>
      <trkpt lat="38.93709" lon="1.415245">
        <ele>33.0</ele>
        <time>2020-08-17T18:04:48.116Z</time>
      </trkpt>
      <trkpt lat="38.93693333" lon="1.41533833">
        <ele>33.0</ele>
        <time>2020-08-17T18:04:49.118Z</time>
      </trkpt>
      <trkpt lat="38.93693333" lon="1.41533833">
        <ele>33.0</ele>
        <time>2020-08-17T18:04:50.117Z</time>
      </trkpt>
      <trkpt lat="38.93677833" lon="1.41542667">
        <ele>32.0</ele>
        <time>2020-08-17T18:04:51.117Z</time>
      </trkpt>
      <trkpt lat="38.93677833" lon="1.41542667">
        <ele>32.0</ele>
        <time>2020-08-17T18:04:52.112Z</time>
      </trkpt>
      <trkpt lat="38.93662667" lon="1.41551833">
        <ele>32.0</ele>
        <time>2020-08-17T18:04:53.093Z</time>
      </trkpt>
      <trkpt lat="38.93662667" lon="1.41551833">
        <ele>32.0</ele>
        <time>2020-08-17T18:04:54.121Z</time>
      </trkpt>
      <trkpt lat="38.936475" lon="1.41561167">
        <ele>32.0</ele>
        <time>2020-08-17T18:04:55.118Z</time>
      </trkpt>
      <trkpt lat="38.936475" lon="1.41561167">
        <ele>32.0</ele>
        <time>2020-08-17T18:04:56.112Z</time>
      </trkpt>
      <trkpt lat="38.93632167" lon="1.41570167">
        <ele>32.0</ele>
        <time>2020-08-17T18:04:57.094Z</time>
      </trkpt>
      <trkpt lat="38.93632167" lon="1.41570167">
        <ele>32.0</ele>
        <time>2020-08-17T18:04:58.097Z</time>
      </trkpt>
      <trkpt lat="38.93617167" lon="1.41579333">
        <ele>32.0</ele>
        <time>2020-08-17T18:04:59.120Z</time>
      </trkpt>
      <trkpt lat="38.93617167" lon="1.41579333">
        <ele>32.0</ele>
        <time>2020-08-17T18:05:00.122Z</time>
      </trkpt>
      <trkpt lat="38.936015" lon="1.415885">
        <ele>32.0</ele>
        <time>2020-08-17T18:05:01.116Z</time>
      </trkpt>
      <trkpt lat="38.936015" lon="1.415885">
        <ele>32.0</ele>
        <time>2020-08-17T18:05:02.113Z</time>
      </trkpt>
      <trkpt lat="38.93586333" lon="1.41597833">
        <ele>32.0</ele>
        <time>2020-08-17T18:05:03.094Z</time>
      </trkpt>
      <trkpt lat="38.93579" lon="1.41602167">
        <ele>32.0</ele>
        <time>2020-08-17T18:05:04.119Z</time>
      </trkpt>
      <trkpt lat="38.93579" lon="1.41602167">
        <ele>32.0</ele>
        <time>2020-08-17T18:05:05.117Z</time>
      </trkpt>
      <trkpt lat="38.93564333" lon="1.41611333">
        <ele>32.0</ele>
        <time>2020-08-17T18:05:06.118Z</time>
      </trkpt>
      <trkpt lat="38.93564333" lon="1.41611333">
        <ele>32.0</ele>
        <time>2020-08-17T18:05:07.100Z</time>
      </trkpt>
      <trkpt lat="38.93549333" lon="1.41619333">
        <ele>32.0</ele>
        <time>2020-08-17T18:05:08.120Z</time>
      </trkpt>
      <trkpt lat="38.93541833" lon="1.416235">
        <ele>32.0</ele>
        <time>2020-08-17T18:05:09.119Z</time>
      </trkpt>
      <trkpt lat="38.93541833" lon="1.416235">
        <ele>32.0</ele>
        <time>2020-08-17T18:05:10.119Z</time>
      </trkpt>
      <trkpt lat="38.93526667" lon="1.41632167">
        <ele>32.0</ele>
        <time>2020-08-17T18:05:11.096Z</time>
      </trkpt>
      <trkpt lat="38.93526667" lon="1.41632167">
        <ele>32.0</ele>
        <time>2020-08-17T18:05:12.116Z</time>
      </trkpt>
      <trkpt lat="38.93512" lon="1.41641">
        <ele>32.0</ele>
        <time>2020-08-17T18:05:13.118Z</time>
      </trkpt>
      <trkpt lat="38.93512" lon="1.41641">
        <ele>32.0</ele>
        <time>2020-08-17T18:05:14.115Z</time>
      </trkpt>
      <trkpt lat="38.93497167" lon="1.41650333">
        <ele>31.0</ele>
        <time>2020-08-17T18:05:15.094Z</time>
      </trkpt>
      <trkpt lat="38.934895" lon="1.41654833">
        <ele>31.0</ele>
        <time>2020-08-17T18:05:16.119Z</time>
      </trkpt>
      <trkpt lat="38.934895" lon="1.41654833">
        <ele>31.0</ele>
        <time>2020-08-17T18:05:17.114Z</time>
      </trkpt>
      <trkpt lat="38.93474667" lon="1.41664">
        <ele>31.0</ele>
        <time>2020-08-17T18:05:18.093Z</time>
      </trkpt>
      <trkpt lat="38.93467167" lon="1.41668833">
        <ele>31.0</ele>
        <time>2020-08-17T18:05:19.118Z</time>
      </trkpt>
      <trkpt lat="38.93467167" lon="1.41668833">
        <ele>31.0</ele>
        <time>2020-08-17T18:05:20.119Z</time>
      </trkpt>
      <trkpt lat="38.93451667" lon="1.41678667">
        <ele>31.0</ele>
        <time>2020-08-17T18:05:21.095Z</time>
      </trkpt>
      <trkpt lat="38.93451667" lon="1.41678667">
        <ele>31.0</ele>
        <time>2020-08-17T18:05:22.091Z</time>
      </trkpt>
      <trkpt lat="38.934365" lon="1.41687667">
        <ele>31.0</ele>
        <time>2020-08-17T18:05:23.112Z</time>
      </trkpt>
      <trkpt lat="38.934365" lon="1.41687667">
        <ele>31.0</ele>
        <time>2020-08-17T18:05:24.118Z</time>
      </trkpt>
      <trkpt lat="38.93421333" lon="1.41696667">
        <ele>30.0</ele>
        <time>2020-08-17T18:05:25.087Z</time>
      </trkpt>
      <trkpt lat="38.93421333" lon="1.41696667">
        <ele>30.0</ele>
        <time>2020-08-17T18:05:26.115Z</time>
      </trkpt>
      <trkpt lat="38.934065" lon="1.417055">
        <ele>30.0</ele>
        <time>2020-08-17T18:05:27.118Z</time>
      </trkpt>
      <trkpt lat="38.93398833" lon="1.41709833">
        <ele>30.0</ele>
        <time>2020-08-17T18:05:28.118Z</time>
      </trkpt>
      <trkpt lat="38.93391167" lon="1.41714333">
        <ele>30.0</ele>
        <time>2020-08-17T18:05:29.119Z</time>
      </trkpt>
      <trkpt lat="38.93391167" lon="1.41714333">
        <ele>30.0</ele>
        <time>2020-08-17T18:05:30.116Z</time>
      </trkpt>
      <trkpt lat="38.93375833" lon="1.41723667">
        <ele>30.0</ele>
        <time>2020-08-17T18:05:31.120Z</time>
      </trkpt>
      <trkpt lat="38.93375833" lon="1.41723667">
        <ele>30.0</ele>
        <time>2020-08-17T18:05:32.100Z</time>
      </trkpt>
      <trkpt lat="38.93360333" lon="1.41733167">
        <ele>30.0</ele>
        <time>2020-08-17T18:05:33.121Z</time>
      </trkpt>
      <trkpt lat="38.93360333" lon="1.41733167">
        <ele>30.0</ele>
        <time>2020-08-17T18:05:34.122Z</time>
      </trkpt>
      <trkpt lat="38.93345167" lon="1.41742833">
        <ele>31.0</ele>
        <time>2020-08-17T18:05:35.116Z</time>
      </trkpt>
      <trkpt lat="38.93345167" lon="1.41742833">
        <ele>31.0</ele>
        <time>2020-08-17T18:05:36.097Z</time>
      </trkpt>
      <trkpt lat="38.9333" lon="1.41752167">
        <ele>31.0</ele>
        <time>2020-08-17T18:05:37.122Z</time>
      </trkpt>
      <trkpt lat="38.933225" lon="1.41756667">
        <ele>31.0</ele>
        <time>2020-08-17T18:05:38.088Z</time>
      </trkpt>
      <trkpt lat="38.933225" lon="1.41756667">
        <ele>31.0</ele>
        <time>2020-08-17T18:05:39.095Z</time>
      </trkpt>
      <trkpt lat="38.93307667" lon="1.41765333">
        <ele>30.0</ele>
        <time>2020-08-17T18:05:40.106Z</time>
      </trkpt>
      <trkpt lat="38.93300333" lon="1.417695">
        <ele>30.0</ele>
        <time>2020-08-17T18:05:41.086Z</time>
      </trkpt>
      <trkpt lat="38.93300333" lon="1.417695">
        <ele>30.0</ele>
        <time>2020-08-17T18:05:42.114Z</time>
      </trkpt>
      <trkpt lat="38.93285833" lon="1.41778167">
        <ele>30.0</ele>
        <time>2020-08-17T18:05:43.094Z</time>
      </trkpt>
      <trkpt lat="38.93285833" lon="1.41778167">
        <ele>30.0</ele>
        <time>2020-08-17T18:05:44.119Z</time>
      </trkpt>
      <trkpt lat="38.932715" lon="1.41786667">
        <ele>30.0</ele>
        <time>2020-08-17T18:05:45.093Z</time>
      </trkpt>
      <trkpt lat="38.932715" lon="1.41786667">
        <ele>30.0</ele>
        <time>2020-08-17T18:05:46.115Z</time>
      </trkpt>
      <trkpt lat="38.93257167" lon="1.41795333">
        <ele>30.0</ele>
        <time>2020-08-17T18:05:47.095Z</time>
      </trkpt>
      <trkpt lat="38.93257167" lon="1.41795333">
        <ele>30.0</ele>
        <time>2020-08-17T18:05:48.116Z</time>
      </trkpt>
      <trkpt lat="38.93242667" lon="1.41804">
        <ele>30.0</ele>
        <time>2020-08-17T18:05:49.119Z</time>
      </trkpt>
      <trkpt lat="38.93242667" lon="1.41804">
        <ele>30.0</ele>
        <time>2020-08-17T18:05:50.125Z</time>
      </trkpt>
      <trkpt lat="38.93227833" lon="1.418125">
        <ele>29.0</ele>
        <time>2020-08-17T18:05:51.118Z</time>
      </trkpt>
      <trkpt lat="38.93227833" lon="1.418125">
        <ele>29.0</ele>
        <time>2020-08-17T18:05:52.116Z</time>
      </trkpt>
      <trkpt lat="38.93213" lon="1.41821333">
        <ele>29.0</ele>
        <time>2020-08-17T18:05:53.095Z</time>
      </trkpt>
      <trkpt lat="38.93205333" lon="1.41825833">
        <ele>29.0</ele>
        <time>2020-08-17T18:05:54.119Z</time>
      </trkpt>
      <trkpt lat="38.93205333" lon="1.41825833">
        <ele>29.0</ele>
        <time>2020-08-17T18:05:55.116Z</time>
      </trkpt>
      <trkpt lat="38.93190167" lon="1.41835">
        <ele>29.0</ele>
        <time>2020-08-17T18:05:56.117Z</time>
      </trkpt>
      <trkpt lat="38.93190167" lon="1.41835">
        <ele>29.0</ele>
        <time>2020-08-17T18:05:57.115Z</time>
      </trkpt>
      <trkpt lat="38.93175167" lon="1.41844167">
        <ele>28.0</ele>
        <time>2020-08-17T18:05:58.117Z</time>
      </trkpt>
      <trkpt lat="38.931675" lon="1.41849">
        <ele>28.0</ele>
        <time>2020-08-17T18:05:59.120Z</time>
      </trkpt>
      <trkpt lat="38.931675" lon="1.41849">
        <ele>28.0</ele>
        <time>2020-08-17T18:06:00.086Z</time>
      </trkpt>
      <trkpt lat="38.93152167" lon="1.41858333">
        <ele>28.0</ele>
        <time>2020-08-17T18:06:01.121Z</time>
      </trkpt>
      <trkpt lat="38.93152167" lon="1.41858333">
        <ele>28.0</ele>
        <time>2020-08-17T18:06:02.115Z</time>
      </trkpt>
      <trkpt lat="38.93137167" lon="1.41868167">
        <ele>28.0</ele>
        <time>2020-08-17T18:06:03.117Z</time>
      </trkpt>
      <trkpt lat="38.93137167" lon="1.41868167">
        <ele>28.0</ele>
        <time>2020-08-17T18:06:04.122Z</time>
      </trkpt>
      <trkpt lat="38.93122" lon="1.41877833">
        <ele>28.0</ele>
        <time>2020-08-17T18:06:05.087Z</time>
      </trkpt>
      <trkpt lat="38.93122" lon="1.41877833">
        <ele>28.0</ele>
        <time>2020-08-17T18:06:06.114Z</time>
      </trkpt>
      <trkpt lat="38.93106667" lon="1.418875">
        <ele>28.0</ele>
        <time>2020-08-17T18:06:07.094Z</time>
      </trkpt>
      <trkpt lat="38.93106667" lon="1.418875">
        <ele>28.0</ele>
        <time>2020-08-17T18:06:08.116Z</time>
      </trkpt>
      <trkpt lat="38.93091167" lon="1.41896833">
        <ele>28.0</ele>
        <time>2020-08-17T18:06:09.098Z</time>
      </trkpt>
      <trkpt lat="38.93091167" lon="1.41896833">
        <ele>28.0</ele>
        <time>2020-08-17T18:06:10.125Z</time>
      </trkpt>
      <trkpt lat="38.93076" lon="1.41906667">
        <ele>27.0</ele>
        <time>2020-08-17T18:06:11.119Z</time>
      </trkpt>
      <trkpt lat="38.93076" lon="1.41906667">
        <ele>27.0</ele>
        <time>2020-08-17T18:06:12.115Z</time>
      </trkpt>
      <trkpt lat="38.93060833" lon="1.41916">
        <ele>27.0</ele>
        <time>2020-08-17T18:06:13.119Z</time>
      </trkpt>
      <trkpt lat="38.93060833" lon="1.41916">
        <ele>27.0</ele>
        <time>2020-08-17T18:06:14.112Z</time>
      </trkpt>
      <trkpt lat="38.93045833" lon="1.419255">
        <ele>27.0</ele>
        <time>2020-08-17T18:06:15.118Z</time>
      </trkpt>
      <trkpt lat="38.93045833" lon="1.419255">
        <ele>27.0</ele>
        <time>2020-08-17T18:06:16.116Z</time>
      </trkpt>
      <trkpt lat="38.93030667" lon="1.41934833">
        <ele>26.0</ele>
        <time>2020-08-17T18:06:17.095Z</time>
      </trkpt>
      <trkpt lat="38.93030667" lon="1.41934833">
        <ele>26.0</ele>
        <time>2020-08-17T18:06:18.117Z</time>
      </trkpt>
      <trkpt lat="38.93015667" lon="1.419445">
        <ele>26.0</ele>
        <time>2020-08-17T18:06:19.116Z</time>
      </trkpt>
      <trkpt lat="38.93015667" lon="1.419445">
        <ele>26.0</ele>
        <time>2020-08-17T18:06:20.119Z</time>
      </trkpt>
      <trkpt lat="38.93000667" lon="1.41954167">
        <ele>26.0</ele>
        <time>2020-08-17T18:06:21.094Z</time>
      </trkpt>
      <trkpt lat="38.93000667" lon="1.41954167">
        <ele>26.0</ele>
        <time>2020-08-17T18:06:22.090Z</time>
      </trkpt>
      <trkpt lat="38.929855" lon="1.41964">
        <ele>26.0</ele>
        <time>2020-08-17T18:06:23.120Z</time>
      </trkpt>
      <trkpt lat="38.929855" lon="1.41964">
        <ele>26.0</ele>
        <time>2020-08-17T18:06:24.116Z</time>
      </trkpt>
      <trkpt lat="38.92970167" lon="1.41974167">
        <ele>25.0</ele>
        <time>2020-08-17T18:06:25.116Z</time>
      </trkpt>
      <trkpt lat="38.92970167" lon="1.41974167">
        <ele>25.0</ele>
        <time>2020-08-17T18:06:26.114Z</time>
      </trkpt>
      <trkpt lat="38.92954833" lon="1.41983833">
        <ele>25.0</ele>
        <time>2020-08-17T18:06:27.094Z</time>
      </trkpt>
      <trkpt lat="38.92954833" lon="1.41983833">
        <ele>25.0</ele>
        <time>2020-08-17T18:06:28.116Z</time>
      </trkpt>
      <trkpt lat="38.92939667" lon="1.41993333">
        <ele>24.0</ele>
        <time>2020-08-17T18:06:29.095Z</time>
      </trkpt>
      <trkpt lat="38.92939667" lon="1.41993333">
        <ele>24.0</ele>
        <time>2020-08-17T18:06:30.125Z</time>
      </trkpt>
      <trkpt lat="38.929245" lon="1.42002667">
        <ele>24.0</ele>
        <time>2020-08-17T18:06:31.117Z</time>
      </trkpt>
      <trkpt lat="38.929245" lon="1.42002667">
        <ele>24.0</ele>
        <time>2020-08-17T18:06:32.116Z</time>
      </trkpt>
      <trkpt lat="38.929095" lon="1.42012333">
        <ele>23.0</ele>
        <time>2020-08-17T18:06:33.119Z</time>
      </trkpt>
      <trkpt lat="38.929095" lon="1.42012333">
        <ele>23.0</ele>
        <time>2020-08-17T18:06:34.116Z</time>
      </trkpt>
      <trkpt lat="38.92894333" lon="1.42021167">
        <ele>23.0</ele>
        <time>2020-08-17T18:06:35.126Z</time>
      </trkpt>
      <trkpt lat="38.92894333" lon="1.42021167">
        <ele>23.0</ele>
        <time>2020-08-17T18:06:36.117Z</time>
      </trkpt>
      <trkpt lat="38.92878833" lon="1.42026333">
        <ele>22.0</ele>
        <time>2020-08-17T18:06:37.120Z</time>
      </trkpt>
      <trkpt lat="38.92878833" lon="1.42026333">
        <ele>22.0</ele>
        <time>2020-08-17T18:06:38.115Z</time>
      </trkpt>
      <trkpt lat="38.92863167" lon="1.42028167">
        <ele>22.0</ele>
        <time>2020-08-17T18:06:39.118Z</time>
      </trkpt>
      <trkpt lat="38.92855" lon="1.42027333">
        <ele>22.0</ele>
        <time>2020-08-17T18:06:40.120Z</time>
      </trkpt>
      <trkpt lat="38.92846833" lon="1.42026667">
        <ele>22.0</ele>
        <time>2020-08-17T18:06:41.120Z</time>
      </trkpt>
      <trkpt lat="38.92846833" lon="1.42026667">
        <ele>22.0</ele>
        <time>2020-08-17T18:06:42.117Z</time>
      </trkpt>
      <trkpt lat="38.92830667" lon="1.420315">
        <ele>22.0</ele>
        <time>2020-08-17T18:06:43.116Z</time>
      </trkpt>
      <trkpt lat="38.92830667" lon="1.420315">
        <ele>22.0</ele>
        <time>2020-08-17T18:06:44.117Z</time>
      </trkpt>
      <trkpt lat="38.928185" lon="1.42045">
        <ele>22.0</ele>
        <time>2020-08-17T18:06:45.118Z</time>
      </trkpt>
      <trkpt lat="38.928185" lon="1.42045">
        <ele>22.0</ele>
        <time>2020-08-17T18:06:46.116Z</time>
      </trkpt>
      <trkpt lat="38.92808833" lon="1.42061667">
        <ele>21.0</ele>
        <time>2020-08-17T18:06:47.096Z</time>
      </trkpt>
      <trkpt lat="38.92808833" lon="1.42061667">
        <ele>21.0</ele>
        <time>2020-08-17T18:06:48.116Z</time>
      </trkpt>
      <trkpt lat="38.92797667" lon="1.42077167">
        <ele>21.0</ele>
        <time>2020-08-17T18:06:49.120Z</time>
      </trkpt>
      <trkpt lat="38.92797667" lon="1.42077167">
        <ele>21.0</ele>
        <time>2020-08-17T18:06:50.125Z</time>
      </trkpt>
      <trkpt lat="38.92784167" lon="1.42089167">
        <ele>20.0</ele>
        <time>2020-08-17T18:06:51.119Z</time>
      </trkpt>
      <trkpt lat="38.92784167" lon="1.42089167">
        <ele>20.0</ele>
        <time>2020-08-17T18:06:52.115Z</time>
      </trkpt>
      <trkpt lat="38.927695" lon="1.42098833">
        <ele>20.0</ele>
        <time>2020-08-17T18:06:53.094Z</time>
      </trkpt>
      <trkpt lat="38.927695" lon="1.42098833">
        <ele>20.0</ele>
        <time>2020-08-17T18:06:54.115Z</time>
      </trkpt>
      <trkpt lat="38.92754833" lon="1.42108">
        <ele>20.0</ele>
        <time>2020-08-17T18:06:55.119Z</time>
      </trkpt>
      <trkpt lat="38.92754833" lon="1.42108">
        <ele>20.0</ele>
        <time>2020-08-17T18:06:56.102Z</time>
      </trkpt>
      <trkpt lat="38.92740167" lon="1.42116667">
        <ele>19.0</ele>
        <time>2020-08-17T18:06:57.123Z</time>
      </trkpt>
      <trkpt lat="38.92740167" lon="1.42116667">
        <ele>19.0</ele>
        <time>2020-08-17T18:06:58.116Z</time>
      </trkpt>
      <trkpt lat="38.92725667" lon="1.421255">
        <ele>19.0</ele>
        <time>2020-08-17T18:06:59.096Z</time>
      </trkpt>
      <trkpt lat="38.92725667" lon="1.421255">
        <ele>19.0</ele>
        <time>2020-08-17T18:07:00.090Z</time>
      </trkpt>
      <trkpt lat="38.92711167" lon="1.42134167">
        <ele>19.0</ele>
        <time>2020-08-17T18:07:01.118Z</time>
      </trkpt>
      <trkpt lat="38.92711167" lon="1.42134167">
        <ele>19.0</ele>
        <time>2020-08-17T18:07:02.115Z</time>
      </trkpt>
      <trkpt lat="38.92696833" lon="1.42143">
        <ele>19.0</ele>
        <time>2020-08-17T18:07:03.119Z</time>
      </trkpt>
      <trkpt lat="38.92689833" lon="1.42147">
        <ele>19.0</ele>
        <time>2020-08-17T18:07:04.119Z</time>
      </trkpt>
      <trkpt lat="38.92682333" lon="1.42150833">
        <ele>19.0</ele>
        <time>2020-08-17T18:07:05.114Z</time>
      </trkpt>
      <trkpt lat="38.92682333" lon="1.42150833">
        <ele>19.0</ele>
        <time>2020-08-17T18:07:06.095Z</time>
      </trkpt>
      <trkpt lat="38.92667833" lon="1.42159333">
        <ele>18.0</ele>
        <time>2020-08-17T18:07:07.087Z</time>
      </trkpt>
      <trkpt lat="38.92667833" lon="1.42159333">
        <ele>18.0</ele>
        <time>2020-08-17T18:07:08.115Z</time>
      </trkpt>
      <trkpt lat="38.92653667" lon="1.42167833">
        <ele>18.0</ele>
        <time>2020-08-17T18:07:09.119Z</time>
      </trkpt>
      <trkpt lat="38.926465" lon="1.42172">
        <ele>18.0</ele>
        <time>2020-08-17T18:07:10.124Z</time>
      </trkpt>
      <trkpt lat="38.926465" lon="1.42172">
        <ele>18.0</ele>
        <time>2020-08-17T18:07:11.117Z</time>
      </trkpt>
      <trkpt lat="38.92632167" lon="1.421805">
        <ele>18.0</ele>
        <time>2020-08-17T18:07:12.119Z</time>
      </trkpt>
      <trkpt lat="38.92625333" lon="1.421845">
        <ele>18.0</ele>
        <time>2020-08-17T18:07:13.116Z</time>
      </trkpt>
      <trkpt lat="38.92625333" lon="1.421845">
        <ele>18.0</ele>
        <time>2020-08-17T18:07:14.114Z</time>
      </trkpt>
      <trkpt lat="38.92611167" lon="1.42193">
        <ele>17.0</ele>
        <time>2020-08-17T18:07:15.116Z</time>
      </trkpt>
      <trkpt lat="38.92611167" lon="1.42193">
        <ele>17.0</ele>
        <time>2020-08-17T18:07:16.116Z</time>
      </trkpt>
      <trkpt lat="38.925965" lon="1.422015">
        <ele>17.0</ele>
        <time>2020-08-17T18:07:17.096Z</time>
      </trkpt>
      <trkpt lat="38.925965" lon="1.422015">
        <ele>17.0</ele>
        <time>2020-08-17T18:07:18.117Z</time>
      </trkpt>
      <trkpt lat="38.92582667" lon="1.42209833">
        <ele>16.0</ele>
        <time>2020-08-17T18:07:19.119Z</time>
      </trkpt>
      <trkpt lat="38.92582667" lon="1.42209833">
        <ele>16.0</ele>
        <time>2020-08-17T18:07:20.125Z</time>
      </trkpt>
      <trkpt lat="38.92568333" lon="1.42218667">
        <ele>16.0</ele>
        <time>2020-08-17T18:07:21.119Z</time>
      </trkpt>
      <trkpt lat="38.92568333" lon="1.42218667">
        <ele>16.0</ele>
        <time>2020-08-17T18:07:22.115Z</time>
      </trkpt>
      <trkpt lat="38.92554" lon="1.42227">
        <ele>15.0</ele>
        <time>2020-08-17T18:07:23.120Z</time>
      </trkpt>
      <trkpt lat="38.92554" lon="1.42227">
        <ele>15.0</ele>
        <time>2020-08-17T18:07:24.113Z</time>
      </trkpt>
      <trkpt lat="38.92539833" lon="1.42235">
        <ele>15.0</ele>
        <time>2020-08-17T18:07:25.098Z</time>
      </trkpt>
      <trkpt lat="38.92532167" lon="1.42239167">
        <ele>15.0</ele>
        <time>2020-08-17T18:07:26.120Z</time>
      </trkpt>
      <trkpt lat="38.92524833" lon="1.422435">
        <ele>15.0</ele>
        <time>2020-08-17T18:07:27.119Z</time>
      </trkpt>
      <trkpt lat="38.92524833" lon="1.422435">
        <ele>15.0</ele>
        <time>2020-08-17T18:07:28.117Z</time>
      </trkpt>
      <trkpt lat="38.925095" lon="1.42253333">
        <ele>16.0</ele>
        <time>2020-08-17T18:07:29.096Z</time>
      </trkpt>
      <trkpt lat="38.925095" lon="1.42253333">
        <ele>16.0</ele>
        <time>2020-08-17T18:07:30.125Z</time>
      </trkpt>
      <trkpt lat="38.924945" lon="1.42262167">
        <ele>17.0</ele>
        <time>2020-08-17T18:07:31.119Z</time>
      </trkpt>
      <trkpt lat="38.924945" lon="1.42262167">
        <ele>17.0</ele>
        <time>2020-08-17T18:07:32.117Z</time>
      </trkpt>
      <trkpt lat="38.92479833" lon="1.42271333">
        <ele>17.0</ele>
        <time>2020-08-17T18:07:33.116Z</time>
      </trkpt>
      <trkpt lat="38.92479833" lon="1.42271333">
        <ele>17.0</ele>
        <time>2020-08-17T18:07:34.113Z</time>
      </trkpt>
      <trkpt lat="38.92465833" lon="1.4228">
        <ele>17.0</ele>
        <time>2020-08-17T18:07:35.108Z</time>
      </trkpt>
      <trkpt lat="38.92465833" lon="1.4228">
        <ele>17.0</ele>
        <time>2020-08-17T18:07:36.088Z</time>
      </trkpt>
      <trkpt lat="38.92451" lon="1.42288833">
        <ele>17.0</ele>
        <time>2020-08-17T18:07:37.119Z</time>
      </trkpt>
      <trkpt lat="38.92451" lon="1.42288833">
        <ele>17.0</ele>
        <time>2020-08-17T18:07:38.113Z</time>
      </trkpt>
      <trkpt lat="38.92436167" lon="1.42297833">
        <ele>18.0</ele>
        <time>2020-08-17T18:07:39.092Z</time>
      </trkpt>
      <trkpt lat="38.92436167" lon="1.42297833">
        <ele>18.0</ele>
        <time>2020-08-17T18:07:40.122Z</time>
      </trkpt>
      <trkpt lat="38.92422333" lon="1.42306">
        <ele>18.0</ele>
        <time>2020-08-17T18:07:41.120Z</time>
      </trkpt>
      <trkpt lat="38.92422333" lon="1.42306">
        <ele>18.0</ele>
        <time>2020-08-17T18:07:42.116Z</time>
      </trkpt>
      <trkpt lat="38.92408167" lon="1.42314333">
        <ele>18.0</ele>
        <time>2020-08-17T18:07:43.117Z</time>
      </trkpt>
      <trkpt lat="38.92408167" lon="1.42314333">
        <ele>18.0</ele>
        <time>2020-08-17T18:07:44.117Z</time>
      </trkpt>
      <trkpt lat="38.92393833" lon="1.42323">
        <ele>18.0</ele>
        <time>2020-08-17T18:07:45.120Z</time>
      </trkpt>
      <trkpt lat="38.92386667" lon="1.42327333">
        <ele>18.0</ele>
        <time>2020-08-17T18:07:46.119Z</time>
      </trkpt>
      <trkpt lat="38.92386667" lon="1.42327333">
        <ele>18.0</ele>
        <time>2020-08-17T18:07:47.115Z</time>
      </trkpt>
      <trkpt lat="38.92372833" lon="1.42335667">
        <ele>18.0</ele>
        <time>2020-08-17T18:07:48.095Z</time>
      </trkpt>
      <trkpt lat="38.92372833" lon="1.42335667">
        <ele>18.0</ele>
        <time>2020-08-17T18:07:49.116Z</time>
      </trkpt>
      <trkpt lat="38.92358833" lon="1.42344333">
        <ele>18.0</ele>
        <time>2020-08-17T18:07:50.105Z</time>
      </trkpt>
      <trkpt lat="38.92358833" lon="1.42344333">
        <ele>18.0</ele>
        <time>2020-08-17T18:07:51.126Z</time>
      </trkpt>
      <trkpt lat="38.92344833" lon="1.42353">
        <ele>18.0</ele>
        <time>2020-08-17T18:07:52.118Z</time>
      </trkpt>
      <trkpt lat="38.92337667" lon="1.42357167">
        <ele>18.0</ele>
        <time>2020-08-17T18:07:53.120Z</time>
      </trkpt>
      <trkpt lat="38.92337667" lon="1.42357167">
        <ele>18.0</ele>
        <time>2020-08-17T18:07:54.118Z</time>
      </trkpt>
      <trkpt lat="38.92323833" lon="1.42365667">
        <ele>18.0</ele>
        <time>2020-08-17T18:07:55.119Z</time>
      </trkpt>
      <trkpt lat="38.92323833" lon="1.42365667">
        <ele>18.0</ele>
        <time>2020-08-17T18:07:56.095Z</time>
      </trkpt>
      <trkpt lat="38.92310167" lon="1.42373833">
        <ele>18.0</ele>
        <time>2020-08-17T18:07:57.118Z</time>
      </trkpt>
      <trkpt lat="38.92310167" lon="1.42373833">
        <ele>18.0</ele>
        <time>2020-08-17T18:07:58.116Z</time>
      </trkpt>
      <trkpt lat="38.922965" lon="1.42382667">
        <ele>17.0</ele>
        <time>2020-08-17T18:07:59.094Z</time>
      </trkpt>
      <trkpt lat="38.922965" lon="1.42382667">
        <ele>17.0</ele>
        <time>2020-08-17T18:08:00.124Z</time>
      </trkpt>
      <trkpt lat="38.92282667" lon="1.423905">
        <ele>16.0</ele>
        <time>2020-08-17T18:08:01.117Z</time>
      </trkpt>
      <trkpt lat="38.92282667" lon="1.423905">
        <ele>16.0</ele>
        <time>2020-08-17T18:08:02.117Z</time>
      </trkpt>
      <trkpt lat="38.92269" lon="1.42398333">
        <ele>16.0</ele>
        <time>2020-08-17T18:08:03.116Z</time>
      </trkpt>
      <trkpt lat="38.92262167" lon="1.424025">
        <ele>16.0</ele>
        <time>2020-08-17T18:08:04.120Z</time>
      </trkpt>
      <trkpt lat="38.92262167" lon="1.424025">
        <ele>16.0</ele>
        <time>2020-08-17T18:08:05.118Z</time>
      </trkpt>
      <trkpt lat="38.922485" lon="1.42410667">
        <ele>15.0</ele>
        <time>2020-08-17T18:08:06.119Z</time>
      </trkpt>
      <trkpt lat="38.92241667" lon="1.42414667">
        <ele>15.0</ele>
        <time>2020-08-17T18:08:07.119Z</time>
      </trkpt>
      <trkpt lat="38.92241667" lon="1.42414667">
        <ele>15.0</ele>
        <time>2020-08-17T18:08:08.106Z</time>
      </trkpt>
      <trkpt lat="38.92227833" lon="1.42423167">
        <ele>14.0</ele>
        <time>2020-08-17T18:08:09.086Z</time>
      </trkpt>
      <trkpt lat="38.92221" lon="1.42427333">
        <ele>14.0</ele>
        <time>2020-08-17T18:08:10.122Z</time>
      </trkpt>
      <trkpt lat="38.92214167" lon="1.42431333">
        <ele>14.0</ele>
        <time>2020-08-17T18:08:11.121Z</time>
      </trkpt>
      <trkpt lat="38.92214167" lon="1.42431333">
        <ele>14.0</ele>
        <time>2020-08-17T18:08:12.117Z</time>
      </trkpt>
      <trkpt lat="38.92200333" lon="1.42439333">
        <ele>13.0</ele>
        <time>2020-08-17T18:08:13.119Z</time>
      </trkpt>
      <trkpt lat="38.92200333" lon="1.42439333">
        <ele>13.0</ele>
        <time>2020-08-17T18:08:14.117Z</time>
      </trkpt>
      <trkpt lat="38.92185833" lon="1.424485">
        <ele>13.0</ele>
        <time>2020-08-17T18:08:15.119Z</time>
      </trkpt>
      <trkpt lat="38.92185833" lon="1.424485">
        <ele>13.0</ele>
        <time>2020-08-17T18:08:16.115Z</time>
      </trkpt>
      <trkpt lat="38.921715" lon="1.42457">
        <ele>13.0</ele>
        <time>2020-08-17T18:08:17.095Z</time>
      </trkpt>
      <trkpt lat="38.921715" lon="1.42457">
        <ele>13.0</ele>
        <time>2020-08-17T18:08:18.116Z</time>
      </trkpt>
      <trkpt lat="38.92156167" lon="1.42465833">
        <ele>13.0</ele>
        <time>2020-08-17T18:08:19.117Z</time>
      </trkpt>
      <trkpt lat="38.92156167" lon="1.42465833">
        <ele>13.0</ele>
        <time>2020-08-17T18:08:20.121Z</time>
      </trkpt>
      <trkpt lat="38.92141333" lon="1.42474833">
        <ele>12.0</ele>
        <time>2020-08-17T18:08:21.119Z</time>
      </trkpt>
      <trkpt lat="38.92133667" lon="1.424795">
        <ele>12.0</ele>
        <time>2020-08-17T18:08:22.113Z</time>
      </trkpt>
      <trkpt lat="38.92133667" lon="1.424795">
        <ele>12.0</ele>
        <time>2020-08-17T18:08:23.117Z</time>
      </trkpt>
      <trkpt lat="38.92118333" lon="1.42488667">
        <ele>12.0</ele>
        <time>2020-08-17T18:08:24.123Z</time>
      </trkpt>
      <trkpt lat="38.92110333" lon="1.42493167">
        <ele>12.0</ele>
        <time>2020-08-17T18:08:25.120Z</time>
      </trkpt>
      <trkpt lat="38.92102333" lon="1.42498">
        <ele>11.0</ele>
        <time>2020-08-17T18:08:26.121Z</time>
      </trkpt>
      <trkpt lat="38.92102333" lon="1.42498">
        <ele>11.0</ele>
        <time>2020-08-17T18:08:27.117Z</time>
      </trkpt>
      <trkpt lat="38.92086667" lon="1.42507667">
        <ele>11.0</ele>
        <time>2020-08-17T18:08:28.119Z</time>
      </trkpt>
      <trkpt lat="38.92078833" lon="1.425125">
        <ele>11.0</ele>
        <time>2020-08-17T18:08:29.120Z</time>
      </trkpt>
      <trkpt lat="38.92078833" lon="1.425125">
        <ele>11.0</ele>
        <time>2020-08-17T18:08:30.114Z</time>
      </trkpt>
      <trkpt lat="38.92062833" lon="1.42520167">
        <ele>13.0</ele>
        <time>2020-08-17T18:08:31.094Z</time>
      </trkpt>
      <trkpt lat="38.92062833" lon="1.42520167">
        <ele>13.0</ele>
        <time>2020-08-17T18:08:32.116Z</time>
      </trkpt>
      <trkpt lat="38.920475" lon="1.42523667">
        <ele>15.0</ele>
        <time>2020-08-17T18:08:33.119Z</time>
      </trkpt>
      <trkpt lat="38.920475" lon="1.42523667">
        <ele>15.0</ele>
        <time>2020-08-17T18:08:34.116Z</time>
      </trkpt>
      <trkpt lat="38.92034" lon="1.42523667">
        <ele>16.0</ele>
        <time>2020-08-17T18:08:35.096Z</time>
      </trkpt>
      <trkpt lat="38.92034" lon="1.42523667">
        <ele>16.0</ele>
        <time>2020-08-17T18:08:36.117Z</time>
      </trkpt>
      <trkpt lat="38.92020667" lon="1.42521667">
        <ele>17.0</ele>
        <time>2020-08-17T18:08:37.119Z</time>
      </trkpt>
      <trkpt lat="38.92020667" lon="1.42521667">
        <ele>17.0</ele>
        <time>2020-08-17T18:08:38.116Z</time>
      </trkpt>
      <trkpt lat="38.92007" lon="1.42524">
        <ele>17.0</ele>
        <time>2020-08-17T18:08:39.117Z</time>
      </trkpt>
      <trkpt lat="38.92007" lon="1.42524">
        <ele>17.0</ele>
        <time>2020-08-17T18:08:40.113Z</time>
      </trkpt>
      <trkpt lat="38.91995667" lon="1.42535167">
        <ele>17.0</ele>
        <time>2020-08-17T18:08:41.094Z</time>
      </trkpt>
      <trkpt lat="38.91995667" lon="1.42535167">
        <ele>17.0</ele>
        <time>2020-08-17T18:08:42.117Z</time>
      </trkpt>
      <trkpt lat="38.91987667" lon="1.42550333">
        <ele>17.0</ele>
        <time>2020-08-17T18:08:43.119Z</time>
      </trkpt>
      <trkpt lat="38.91987667" lon="1.42550333">
        <ele>17.0</ele>
        <time>2020-08-17T18:08:44.113Z</time>
      </trkpt>
      <trkpt lat="38.91979" lon="1.42565333">
        <ele>16.0</ele>
        <time>2020-08-17T18:08:45.118Z</time>
      </trkpt>
      <trkpt lat="38.919735" lon="1.42571833">
        <ele>16.0</ele>
        <time>2020-08-17T18:08:46.100Z</time>
      </trkpt>
      <trkpt lat="38.919735" lon="1.42571833">
        <ele>16.0</ele>
        <time>2020-08-17T18:08:47.120Z</time>
      </trkpt>
      <trkpt lat="38.91960833" lon="1.425825">
        <ele>15.0</ele>
        <time>2020-08-17T18:08:48.119Z</time>
      </trkpt>
      <trkpt lat="38.91954" lon="1.425875">
        <ele>15.0</ele>
        <time>2020-08-17T18:08:49.116Z</time>
      </trkpt>
      <trkpt lat="38.91954" lon="1.425875">
        <ele>15.0</ele>
        <time>2020-08-17T18:08:50.117Z</time>
      </trkpt>
      <trkpt lat="38.919395" lon="1.42596333">
        <ele>14.0</ele>
        <time>2020-08-17T18:08:51.118Z</time>
      </trkpt>
      <trkpt lat="38.91932" lon="1.42600833">
        <ele>13.0</ele>
        <time>2020-08-17T18:08:52.118Z</time>
      </trkpt>
      <trkpt lat="38.91924167" lon="1.426055">
        <ele>13.0</ele>
        <time>2020-08-17T18:08:53.121Z</time>
      </trkpt>
      <trkpt lat="38.91924167" lon="1.426055">
        <ele>13.0</ele>
        <time>2020-08-17T18:08:54.114Z</time>
      </trkpt>
      <trkpt lat="38.91908167" lon="1.42614833">
        <ele>11.0</ele>
        <time>2020-08-17T18:08:55.117Z</time>
      </trkpt>
      <trkpt lat="38.91908167" lon="1.42614833">
        <ele>11.0</ele>
        <time>2020-08-17T18:08:56.099Z</time>
      </trkpt>
      <trkpt lat="38.91891333" lon="1.42624">
        <ele>10.0</ele>
        <time>2020-08-17T18:08:57.119Z</time>
      </trkpt>
      <trkpt lat="38.91891333" lon="1.42624">
        <ele>10.0</ele>
        <time>2020-08-17T18:08:58.113Z</time>
      </trkpt>
      <trkpt lat="38.91874" lon="1.42632833">
        <ele>9.0</ele>
        <time>2020-08-17T18:08:59.099Z</time>
      </trkpt>
      <trkpt lat="38.91874" lon="1.42632833">
        <ele>9.0</ele>
        <time>2020-08-17T18:09:00.098Z</time>
      </trkpt>
      <trkpt lat="38.91856833" lon="1.42642667">
        <ele>7.0</ele>
        <time>2020-08-17T18:09:01.117Z</time>
      </trkpt>
      <trkpt lat="38.91856833" lon="1.42642667">
        <ele>7.0</ele>
        <time>2020-08-17T18:09:02.099Z</time>
      </trkpt>
      <trkpt lat="38.91839333" lon="1.42652167">
        <ele>6.0</ele>
        <time>2020-08-17T18:09:03.119Z</time>
      </trkpt>
      <trkpt lat="38.91839333" lon="1.42652167">
        <ele>6.0</ele>
        <time>2020-08-17T18:09:04.114Z</time>
      </trkpt>
      <trkpt lat="38.91821833" lon="1.42663167">
        <ele>5.0</ele>
        <time>2020-08-17T18:09:05.094Z</time>
      </trkpt>
      <trkpt lat="38.91821833" lon="1.42663167">
        <ele>5.0</ele>
        <time>2020-08-17T18:09:06.117Z</time>
      </trkpt>
      <trkpt lat="38.91804" lon="1.42674">
        <ele>3.0</ele>
        <time>2020-08-17T18:09:07.119Z</time>
      </trkpt>
      <trkpt lat="38.91804" lon="1.42674">
        <ele>3.0</ele>
        <time>2020-08-17T18:09:08.112Z</time>
      </trkpt>
      <trkpt lat="38.91786" lon="1.42685167">
        <ele>3.0</ele>
        <time>2020-08-17T18:09:09.093Z</time>
      </trkpt>
      <trkpt lat="38.91786" lon="1.42685167">
        <ele>3.0</ele>
        <time>2020-08-17T18:09:10.117Z</time>
      </trkpt>
      <trkpt lat="38.917685" lon="1.426955">
        <ele>2.0</ele>
        <time>2020-08-17T18:09:11.095Z</time>
      </trkpt>
      <trkpt lat="38.91759833" lon="1.427005">
        <ele>1.0</ele>
        <time>2020-08-17T18:09:12.117Z</time>
      </trkpt>
      <trkpt lat="38.91751" lon="1.427055">
        <ele>1.0</ele>
        <time>2020-08-17T18:09:13.117Z</time>
      </trkpt>
      <trkpt lat="38.91751" lon="1.427055">
        <ele>1.0</ele>
        <time>2020-08-17T18:09:14.116Z</time>
      </trkpt>
      <trkpt lat="38.91733833" lon="1.42715333">
        <ele>0.0</ele>
        <time>2020-08-17T18:09:15.119Z</time>
      </trkpt>
      <trkpt lat="38.91733833" lon="1.42715333">
        <ele>0.0</ele>
        <time>2020-08-17T18:09:16.117Z</time>
      </trkpt>
      <trkpt lat="38.91717333" lon="1.42725667">
        <ele>0.0</ele>
        <time>2020-08-17T18:09:17.121Z</time>
      </trkpt>
      <trkpt lat="38.91717333" lon="1.42725667">
        <ele>0.0</ele>
        <time>2020-08-17T18:09:18.117Z</time>
      </trkpt>
      <trkpt lat="38.91701167" lon="1.42736">
        <ele>-1.0</ele>
        <time>2020-08-17T18:09:19.120Z</time>
      </trkpt>
      <trkpt lat="38.91701167" lon="1.42736">
        <ele>-1.0</ele>
        <time>2020-08-17T18:09:20.117Z</time>
      </trkpt>
      <trkpt lat="38.91685167" lon="1.42745833">
        <ele>-1.0</ele>
        <time>2020-08-17T18:09:21.095Z</time>
      </trkpt>
      <trkpt lat="38.91685167" lon="1.42745833">
        <ele>-1.0</ele>
        <time>2020-08-17T18:09:22.090Z</time>
      </trkpt>
      <trkpt lat="38.91669167" lon="1.42755333">
        <ele>-2.0</ele>
        <time>2020-08-17T18:09:23.098Z</time>
      </trkpt>
      <trkpt lat="38.91669167" lon="1.42755333">
        <ele>-2.0</ele>
        <time>2020-08-17T18:09:24.108Z</time>
      </trkpt>
      <trkpt lat="38.91653833" lon="1.42764">
        <ele>-2.0</ele>
        <time>2020-08-17T18:09:25.115Z</time>
      </trkpt>
      <trkpt lat="38.91646333" lon="1.42768">
        <ele>-2.0</ele>
        <time>2020-08-17T18:09:26.115Z</time>
      </trkpt>
      <trkpt lat="38.91646333" lon="1.42768">
        <ele>-2.0</ele>
        <time>2020-08-17T18:09:27.114Z</time>
      </trkpt>
      <trkpt lat="38.91632" lon="1.42776333">
        <ele>-3.0</ele>
        <time>2020-08-17T18:09:28.095Z</time>
      </trkpt>
      <trkpt lat="38.91624667" lon="1.42779667">
        <ele>-3.0</ele>
        <time>2020-08-17T18:09:29.119Z</time>
      </trkpt>
      <trkpt lat="38.91624667" lon="1.42779667">
        <ele>-3.0</ele>
        <time>2020-08-17T18:09:30.118Z</time>
      </trkpt>
      <trkpt lat="38.91609833" lon="1.42781667">
        <ele>-4.0</ele>
        <time>2020-08-17T18:09:31.120Z</time>
      </trkpt>
      <trkpt lat="38.91609833" lon="1.42781667">
        <ele>-4.0</ele>
        <time>2020-08-17T18:09:32.117Z</time>
      </trkpt>
      <trkpt lat="38.91595167" lon="1.42777">
        <ele>-5.0</ele>
        <time>2020-08-17T18:09:33.120Z</time>
      </trkpt>
      <trkpt lat="38.91595167" lon="1.42777">
        <ele>-5.0</ele>
        <time>2020-08-17T18:09:34.117Z</time>
      </trkpt>
      <trkpt lat="38.91582167" lon="1.42767667">
        <ele>-5.0</ele>
        <time>2020-08-17T18:09:35.117Z</time>
      </trkpt>
      <trkpt lat="38.91582167" lon="1.42767667">
        <ele>-5.0</ele>
        <time>2020-08-17T18:09:36.124Z</time>
      </trkpt>
      <trkpt lat="38.915725" lon="1.42753667">
        <ele>-5.0</ele>
        <time>2020-08-17T18:09:37.120Z</time>
      </trkpt>
      <trkpt lat="38.915725" lon="1.42753667">
        <ele>-5.0</ele>
        <time>2020-08-17T18:09:38.117Z</time>
      </trkpt>
      <trkpt lat="38.91565333" lon="1.42738333">
        <ele>-4.0</ele>
        <time>2020-08-17T18:09:39.119Z</time>
      </trkpt>
      <trkpt lat="38.91565333" lon="1.42738333">
        <ele>-4.0</ele>
        <time>2020-08-17T18:09:40.086Z</time>
      </trkpt>
      <trkpt lat="38.91558333" lon="1.42723833">
        <ele>-3.0</ele>
        <time>2020-08-17T18:09:41.118Z</time>
      </trkpt>
      <trkpt lat="38.91558333" lon="1.42723833">
        <ele>-3.0</ele>
        <time>2020-08-17T18:09:42.117Z</time>
      </trkpt>
      <trkpt lat="38.91551" lon="1.42710167">
        <ele>-2.0</ele>
        <time>2020-08-17T18:09:43.120Z</time>
      </trkpt>
      <trkpt lat="38.91551" lon="1.42710167">
        <ele>-2.0</ele>
        <time>2020-08-17T18:09:44.117Z</time>
      </trkpt>
      <trkpt lat="38.915445" lon="1.42696167">
        <ele>-1.0</ele>
        <time>2020-08-17T18:09:45.119Z</time>
      </trkpt>
      <trkpt lat="38.91540833" lon="1.426895">
        <ele>-1.0</ele>
        <time>2020-08-17T18:09:46.119Z</time>
      </trkpt>
      <trkpt lat="38.91540833" lon="1.426895">
        <ele>-1.0</ele>
        <time>2020-08-17T18:09:47.094Z</time>
      </trkpt>
      <trkpt lat="38.91534" lon="1.42676167">
        <ele>0.0</ele>
        <time>2020-08-17T18:09:48.120Z</time>
      </trkpt>
      <trkpt lat="38.91530667" lon="1.42669167">
        <ele>0.0</ele>
        <time>2020-08-17T18:09:49.121Z</time>
      </trkpt>
      <trkpt lat="38.91530667" lon="1.42669167">
        <ele>0.0</ele>
        <time>2020-08-17T18:09:50.086Z</time>
      </trkpt>
      <trkpt lat="38.91524" lon="1.42655667">
        <ele>0.0</ele>
        <time>2020-08-17T18:09:51.120Z</time>
      </trkpt>
      <trkpt lat="38.91524" lon="1.42655667">
        <ele>0.0</ele>
        <time>2020-08-17T18:09:52.117Z</time>
      </trkpt>
      <trkpt lat="38.91517" lon="1.42642">
        <ele>0.0</ele>
        <time>2020-08-17T18:09:53.096Z</time>
      </trkpt>
      <trkpt lat="38.91517" lon="1.42642">
        <ele>0.0</ele>
        <time>2020-08-17T18:09:54.116Z</time>
      </trkpt>
      <trkpt lat="38.91509833" lon="1.42628167">
        <ele>0.0</ele>
        <time>2020-08-17T18:09:55.096Z</time>
      </trkpt>
      <trkpt lat="38.91509833" lon="1.42628167">
        <ele>0.0</ele>
        <time>2020-08-17T18:09:56.118Z</time>
      </trkpt>
      <trkpt lat="38.91502333" lon="1.42614667">
        <ele>0.0</ele>
        <time>2020-08-17T18:09:57.089Z</time>
      </trkpt>
      <trkpt lat="38.91502333" lon="1.42614667">
        <ele>0.0</ele>
        <time>2020-08-17T18:09:58.116Z</time>
      </trkpt>
      <trkpt lat="38.91494833" lon="1.42601333">
        <ele>0.0</ele>
        <time>2020-08-17T18:09:59.097Z</time>
      </trkpt>
      <trkpt lat="38.91494833" lon="1.42601333">
        <ele>0.0</ele>
        <time>2020-08-17T18:10:00.125Z</time>
      </trkpt>
      <trkpt lat="38.91486833" lon="1.42588333">
        <ele>0.0</ele>
        <time>2020-08-17T18:10:01.121Z</time>
      </trkpt>
      <trkpt lat="38.91482833" lon="1.42581833">
        <ele>0.0</ele>
        <time>2020-08-17T18:10:02.120Z</time>
      </trkpt>
      <trkpt lat="38.91482833" lon="1.42581833">
        <ele>0.0</ele>
        <time>2020-08-17T18:10:03.117Z</time>
      </trkpt>
      <trkpt lat="38.91474667" lon="1.42569">
        <ele>0.0</ele>
        <time>2020-08-17T18:10:04.119Z</time>
      </trkpt>
      <trkpt lat="38.914705" lon="1.425625">
        <ele>0.0</ele>
        <time>2020-08-17T18:10:05.121Z</time>
      </trkpt>
      <trkpt lat="38.914705" lon="1.425625">
        <ele>0.0</ele>
        <time>2020-08-17T18:10:06.100Z</time>
      </trkpt>
      <trkpt lat="38.91462167" lon="1.42550167">
        <ele>0.0</ele>
        <time>2020-08-17T18:10:07.092Z</time>
      </trkpt>
      <trkpt lat="38.91462167" lon="1.42550167">
        <ele>0.0</ele>
        <time>2020-08-17T18:10:08.117Z</time>
      </trkpt>
      <trkpt lat="38.914535" lon="1.42538">
        <ele>1.0</ele>
        <time>2020-08-17T18:10:09.118Z</time>
      </trkpt>
      <trkpt lat="38.914535" lon="1.42538">
        <ele>1.0</ele>
        <time>2020-08-17T18:10:10.117Z</time>
      </trkpt>
      <trkpt lat="38.914445" lon="1.425265">
        <ele>1.0</ele>
        <time>2020-08-17T18:10:11.120Z</time>
      </trkpt>
      <trkpt lat="38.9144" lon="1.42520667">
        <ele>1.0</ele>
        <time>2020-08-17T18:10:12.118Z</time>
      </trkpt>
      <trkpt lat="38.9144" lon="1.42520667">
        <ele>1.0</ele>
        <time>2020-08-17T18:10:13.117Z</time>
      </trkpt>
      <trkpt lat="38.91430833" lon="1.425095">
        <ele>1.0</ele>
        <time>2020-08-17T18:10:14.118Z</time>
      </trkpt>
      <trkpt lat="38.91430833" lon="1.425095">
        <ele>1.0</ele>
        <time>2020-08-17T18:10:15.116Z</time>
      </trkpt>
      <trkpt lat="38.91421333" lon="1.42498333">
        <ele>1.0</ele>
        <time>2020-08-17T18:10:16.119Z</time>
      </trkpt>
      <trkpt lat="38.91421333" lon="1.42498333">
        <ele>1.0</ele>
        <time>2020-08-17T18:10:17.117Z</time>
      </trkpt>
      <trkpt lat="38.91411667" lon="1.42487333">
        <ele>1.0</ele>
        <time>2020-08-17T18:10:18.119Z</time>
      </trkpt>
      <trkpt lat="38.91406667" lon="1.42481833">
        <ele>1.0</ele>
        <time>2020-08-17T18:10:19.119Z</time>
      </trkpt>
      <trkpt lat="38.91406667" lon="1.42481833">
        <ele>1.0</ele>
        <time>2020-08-17T18:10:20.086Z</time>
      </trkpt>
      <trkpt lat="38.91397" lon="1.42471167">
        <ele>1.0</ele>
        <time>2020-08-17T18:10:21.119Z</time>
      </trkpt>
      <trkpt lat="38.91397" lon="1.42471167">
        <ele>1.0</ele>
        <time>2020-08-17T18:10:22.118Z</time>
      </trkpt>
      <trkpt lat="38.91387" lon="1.42460333">
        <ele>1.0</ele>
        <time>2020-08-17T18:10:23.125Z</time>
      </trkpt>
      <trkpt lat="38.91387" lon="1.42460333">
        <ele>1.0</ele>
        <time>2020-08-17T18:10:24.091Z</time>
      </trkpt>
      <trkpt lat="38.91377167" lon="1.424495">
        <ele>1.0</ele>
        <time>2020-08-17T18:10:25.098Z</time>
      </trkpt>
      <trkpt lat="38.913725" lon="1.42444">
        <ele>1.0</ele>
        <time>2020-08-17T18:10:26.096Z</time>
      </trkpt>
      <trkpt lat="38.913725" lon="1.42444">
        <ele>1.0</ele>
        <time>2020-08-17T18:10:27.087Z</time>
      </trkpt>
      <trkpt lat="38.91365667" lon="1.42434">
        <ele>1.0</ele>
        <time>2020-08-17T18:10:28.119Z</time>
      </trkpt>
      <trkpt lat="38.91363333" lon="1.42430333">
        <ele>1.0</ele>
        <time>2020-08-17T18:10:29.121Z</time>
      </trkpt>
      <trkpt lat="38.91363333" lon="1.42430333">
        <ele>1.0</ele>
        <time>2020-08-17T18:10:30.089Z</time>
      </trkpt>
      <trkpt lat="38.913595" lon="1.42423333">
        <ele>1.0</ele>
        <time>2020-08-17T18:10:31.095Z</time>
      </trkpt>
      <trkpt lat="38.91357833" lon="1.42418667">
        <ele>1.0</ele>
        <time>2020-08-17T18:10:32.119Z</time>
      </trkpt>
      <trkpt lat="38.91357833" lon="1.42418667">
        <ele>1.0</ele>
        <time>2020-08-17T18:10:33.113Z</time>
      </trkpt>
      <trkpt lat="38.91354167" lon="1.424075">
        <ele>1.0</ele>
        <time>2020-08-17T18:10:34.094Z</time>
      </trkpt>
      <trkpt lat="38.91354167" lon="1.424075">
        <ele>1.0</ele>
        <time>2020-08-17T18:10:35.118Z</time>
      </trkpt>
      <trkpt lat="38.91348" lon="1.423965">
        <ele>1.0</ele>
        <time>2020-08-17T18:10:36.119Z</time>
      </trkpt>
      <trkpt lat="38.91343667" lon="1.42391667">
        <ele>2.0</ele>
        <time>2020-08-17T18:10:37.120Z</time>
      </trkpt>
      <trkpt lat="38.91343667" lon="1.42391667">
        <ele>2.0</ele>
        <time>2020-08-17T18:10:38.114Z</time>
      </trkpt>
      <trkpt lat="38.91333833" lon="1.42385333">
        <ele>2.0</ele>
        <time>2020-08-17T18:10:39.094Z</time>
      </trkpt>
      <trkpt lat="38.91328333" lon="1.42383333">
        <ele>1.0</ele>
        <time>2020-08-17T18:10:40.119Z</time>
      </trkpt>
      <trkpt lat="38.91328333" lon="1.42383333">
        <ele>1.0</ele>
        <time>2020-08-17T18:10:41.118Z</time>
      </trkpt>
      <trkpt lat="38.913165" lon="1.42382667">
        <ele>1.0</ele>
        <time>2020-08-17T18:10:42.115Z</time>
      </trkpt>
      <trkpt lat="38.91310333" lon="1.42383833">
        <ele>0.0</ele>
        <time>2020-08-17T18:10:43.119Z</time>
      </trkpt>
      <trkpt lat="38.91310333" lon="1.42383833">
        <ele>0.0</ele>
        <time>2020-08-17T18:10:44.117Z</time>
      </trkpt>
      <trkpt lat="38.912985" lon="1.42384167">
        <ele>-1.0</ele>
        <time>2020-08-17T18:10:45.119Z</time>
      </trkpt>
      <trkpt lat="38.912985" lon="1.42384167">
        <ele>-1.0</ele>
        <time>2020-08-17T18:10:46.116Z</time>
      </trkpt>
      <trkpt lat="38.91285833" lon="1.42380667">
        <ele>-1.0</ele>
        <time>2020-08-17T18:10:47.101Z</time>
      </trkpt>
      <trkpt lat="38.91285833" lon="1.42380667">
        <ele>-1.0</ele>
        <time>2020-08-17T18:10:48.121Z</time>
      </trkpt>
      <trkpt lat="38.912735" lon="1.42375">
        <ele>-1.0</ele>
        <time>2020-08-17T18:10:49.119Z</time>
      </trkpt>
      <trkpt lat="38.912735" lon="1.42375">
        <ele>-1.0</ele>
        <time>2020-08-17T18:10:50.118Z</time>
      </trkpt>
      <trkpt lat="38.91261833" lon="1.42368833">
        <ele>-1.0</ele>
        <time>2020-08-17T18:10:51.117Z</time>
      </trkpt>
      <trkpt lat="38.91261833" lon="1.42368833">
        <ele>-1.0</ele>
        <time>2020-08-17T18:10:52.113Z</time>
      </trkpt>
      <trkpt lat="38.912495" lon="1.423625">
        <ele>-1.0</ele>
        <time>2020-08-17T18:10:53.095Z</time>
      </trkpt>
      <trkpt lat="38.912495" lon="1.423625">
        <ele>-1.0</ele>
        <time>2020-08-17T18:10:54.116Z</time>
      </trkpt>
      <trkpt lat="38.91237333" lon="1.42356333">
        <ele>-1.0</ele>
        <time>2020-08-17T18:10:55.120Z</time>
      </trkpt>
      <trkpt lat="38.91237333" lon="1.42356333">
        <ele>-1.0</ele>
        <time>2020-08-17T18:10:56.100Z</time>
      </trkpt>
      <trkpt lat="38.91225667" lon="1.42349667">
        <ele>-1.0</ele>
        <time>2020-08-17T18:10:57.121Z</time>
      </trkpt>
      <trkpt lat="38.91219833" lon="1.42346667">
        <ele>-1.0</ele>
        <time>2020-08-17T18:10:58.119Z</time>
      </trkpt>
      <trkpt lat="38.91214" lon="1.423435">
        <ele>-1.0</ele>
        <time>2020-08-17T18:10:59.121Z</time>
      </trkpt>
      <trkpt lat="38.91214" lon="1.423435">
        <ele>-1.0</ele>
        <time>2020-08-17T18:11:00.087Z</time>
      </trkpt>
      <trkpt lat="38.91202" lon="1.42337333">
        <ele>-1.0</ele>
        <time>2020-08-17T18:11:01.117Z</time>
      </trkpt>
      <trkpt lat="38.91202" lon="1.42337333">
        <ele>-1.0</ele>
        <time>2020-08-17T18:11:02.117Z</time>
      </trkpt>
      <trkpt lat="38.91190167" lon="1.42331167">
        <ele>-1.0</ele>
        <time>2020-08-17T18:11:03.125Z</time>
      </trkpt>
      <trkpt lat="38.91184167" lon="1.42328167">
        <ele>-1.0</ele>
        <time>2020-08-17T18:11:04.091Z</time>
      </trkpt>
      <trkpt lat="38.91178" lon="1.42325167">
        <ele>-1.0</ele>
        <time>2020-08-17T18:11:05.100Z</time>
      </trkpt>
      <trkpt lat="38.91178" lon="1.42325167">
        <ele>-1.0</ele>
        <time>2020-08-17T18:11:06.121Z</time>
      </trkpt>
      <trkpt lat="38.91165667" lon="1.42319">
        <ele>-1.0</ele>
        <time>2020-08-17T18:11:07.110Z</time>
      </trkpt>
      <trkpt lat="38.911595" lon="1.42315833">
        <ele>-1.0</ele>
        <time>2020-08-17T18:11:08.093Z</time>
      </trkpt>
      <trkpt lat="38.911535" lon="1.42312667">
        <ele>-1.0</ele>
        <time>2020-08-17T18:11:09.108Z</time>
      </trkpt>
      <trkpt lat="38.911535" lon="1.42312667">
        <ele>-1.0</ele>
        <time>2020-08-17T18:11:10.114Z</time>
      </trkpt>
      <trkpt lat="38.91141333" lon="1.42306333">
        <ele>-1.0</ele>
        <time>2020-08-17T18:11:11.120Z</time>
      </trkpt>
      <trkpt lat="38.91141333" lon="1.42306333">
        <ele>-1.0</ele>
        <time>2020-08-17T18:11:12.125Z</time>
      </trkpt>
      <trkpt lat="38.91128833" lon="1.42300167">
        <ele>-1.0</ele>
        <time>2020-08-17T18:11:13.119Z</time>
      </trkpt>
      <trkpt lat="38.91128833" lon="1.42300167">
        <ele>-1.0</ele>
        <time>2020-08-17T18:11:14.113Z</time>
      </trkpt>
      <trkpt lat="38.91116" lon="1.42293667">
        <ele>-1.0</ele>
        <time>2020-08-17T18:11:15.094Z</time>
      </trkpt>
      <trkpt lat="38.91116" lon="1.42293667">
        <ele>-1.0</ele>
        <time>2020-08-17T18:11:16.116Z</time>
      </trkpt>
      <trkpt lat="38.91103333" lon="1.42287333">
        <ele>-1.0</ele>
        <time>2020-08-17T18:11:17.096Z</time>
      </trkpt>
      <trkpt lat="38.91096833" lon="1.42284167">
        <ele>-1.0</ele>
        <time>2020-08-17T18:11:18.118Z</time>
      </trkpt>
      <trkpt lat="38.910905" lon="1.42280833">
        <ele>-1.0</ele>
        <time>2020-08-17T18:11:19.120Z</time>
      </trkpt>
      <trkpt lat="38.910905" lon="1.42280833">
        <ele>-1.0</ele>
        <time>2020-08-17T18:11:20.116Z</time>
      </trkpt>
      <trkpt lat="38.91077833" lon="1.422745">
        <ele>-1.0</ele>
        <time>2020-08-17T18:11:21.098Z</time>
      </trkpt>
      <trkpt lat="38.91077833" lon="1.422745">
        <ele>-1.0</ele>
        <time>2020-08-17T18:11:22.092Z</time>
      </trkpt>
      <trkpt lat="38.91065333" lon="1.422675">
        <ele>-1.0</ele>
        <time>2020-08-17T18:11:23.122Z</time>
      </trkpt>
      <trkpt lat="38.91065333" lon="1.422675">
        <ele>-1.0</ele>
        <time>2020-08-17T18:11:24.088Z</time>
      </trkpt>
      <trkpt lat="38.91053167" lon="1.42261167">
        <ele>-1.0</ele>
        <time>2020-08-17T18:11:25.095Z</time>
      </trkpt>
      <trkpt lat="38.91053167" lon="1.42261167">
        <ele>-1.0</ele>
        <time>2020-08-17T18:11:26.088Z</time>
      </trkpt>
      <trkpt lat="38.91041" lon="1.42255">
        <ele>0.0</ele>
        <time>2020-08-17T18:11:27.118Z</time>
      </trkpt>
      <trkpt lat="38.91041" lon="1.42255">
        <ele>0.0</ele>
        <time>2020-08-17T18:11:28.113Z</time>
      </trkpt>
      <trkpt lat="38.91028667" lon="1.42249">
        <ele>0.0</ele>
        <time>2020-08-17T18:11:29.095Z</time>
      </trkpt>
      <trkpt lat="38.91028667" lon="1.42249">
        <ele>0.0</ele>
        <time>2020-08-17T18:11:30.116Z</time>
      </trkpt>
      <trkpt lat="38.91016167" lon="1.42243">
        <ele>0.0</ele>
        <time>2020-08-17T18:11:31.095Z</time>
      </trkpt>
      <trkpt lat="38.91016167" lon="1.42243">
        <ele>0.0</ele>
        <time>2020-08-17T18:11:32.116Z</time>
      </trkpt>
      <trkpt lat="38.910035" lon="1.42236833">
        <ele>0.0</ele>
        <time>2020-08-17T18:11:33.119Z</time>
      </trkpt>
      <trkpt lat="38.910035" lon="1.42236833">
        <ele>0.0</ele>
        <time>2020-08-17T18:11:34.115Z</time>
      </trkpt>
      <trkpt lat="38.90991333" lon="1.42230167">
        <ele>0.0</ele>
        <time>2020-08-17T18:11:35.095Z</time>
      </trkpt>
      <trkpt lat="38.90991333" lon="1.42230167">
        <ele>0.0</ele>
        <time>2020-08-17T18:11:36.116Z</time>
      </trkpt>
      <trkpt lat="38.90979333" lon="1.422235">
        <ele>0.0</ele>
        <time>2020-08-17T18:11:37.119Z</time>
      </trkpt>
      <trkpt lat="38.90979333" lon="1.422235">
        <ele>0.0</ele>
        <time>2020-08-17T18:11:38.094Z</time>
      </trkpt>
      <trkpt lat="38.90967" lon="1.42217">
        <ele>0.0</ele>
        <time>2020-08-17T18:11:39.119Z</time>
      </trkpt>
      <trkpt lat="38.90967" lon="1.42217">
        <ele>0.0</ele>
        <time>2020-08-17T18:11:40.117Z</time>
      </trkpt>
      <trkpt lat="38.909545" lon="1.42211167">
        <ele>0.0</ele>
        <time>2020-08-17T18:11:41.097Z</time>
      </trkpt>
      <trkpt lat="38.909545" lon="1.42211167">
        <ele>0.0</ele>
        <time>2020-08-17T18:11:42.118Z</time>
      </trkpt>
      <trkpt lat="38.90942333" lon="1.42204833">
        <ele>0.0</ele>
        <time>2020-08-17T18:11:43.116Z</time>
      </trkpt>
      <trkpt lat="38.90942333" lon="1.42204833">
        <ele>0.0</ele>
        <time>2020-08-17T18:11:44.116Z</time>
      </trkpt>
      <trkpt lat="38.909305" lon="1.421985">
        <ele>0.0</ele>
        <time>2020-08-17T18:11:45.119Z</time>
      </trkpt>
      <trkpt lat="38.909245" lon="1.421955">
        <ele>0.0</ele>
        <time>2020-08-17T18:11:46.116Z</time>
      </trkpt>
      <trkpt lat="38.909245" lon="1.421955">
        <ele>0.0</ele>
        <time>2020-08-17T18:11:47.100Z</time>
      </trkpt>
      <trkpt lat="38.909125" lon="1.42189833">
        <ele>0.0</ele>
        <time>2020-08-17T18:11:48.091Z</time>
      </trkpt>
      <trkpt lat="38.90906333" lon="1.42186667">
        <ele>0.0</ele>
        <time>2020-08-17T18:11:49.120Z</time>
      </trkpt>
      <trkpt lat="38.90906333" lon="1.42186667">
        <ele>0.0</ele>
        <time>2020-08-17T18:11:50.119Z</time>
      </trkpt>
      <trkpt lat="38.90894" lon="1.42180167">
        <ele>0.0</ele>
        <time>2020-08-17T18:11:51.094Z</time>
      </trkpt>
      <trkpt lat="38.90894" lon="1.42180167">
        <ele>0.0</ele>
        <time>2020-08-17T18:11:52.116Z</time>
      </trkpt>
      <trkpt lat="38.90881667" lon="1.42173333">
        <ele>0.0</ele>
        <time>2020-08-17T18:11:53.095Z</time>
      </trkpt>
      <trkpt lat="38.90881667" lon="1.42173333">
        <ele>0.0</ele>
        <time>2020-08-17T18:11:54.116Z</time>
      </trkpt>
      <trkpt lat="38.9087" lon="1.42166667">
        <ele>0.0</ele>
        <time>2020-08-17T18:11:55.119Z</time>
      </trkpt>
      <trkpt lat="38.9087" lon="1.42166667">
        <ele>0.0</ele>
        <time>2020-08-17T18:11:56.116Z</time>
      </trkpt>
      <trkpt lat="38.908585" lon="1.4216">
        <ele>0.0</ele>
        <time>2020-08-17T18:11:57.118Z</time>
      </trkpt>
      <trkpt lat="38.90852833" lon="1.421565">
        <ele>0.0</ele>
        <time>2020-08-17T18:11:58.118Z</time>
      </trkpt>
      <trkpt lat="38.90852833" lon="1.421565">
        <ele>0.0</ele>
        <time>2020-08-17T18:11:59.115Z</time>
      </trkpt>
      <trkpt lat="38.90841167" lon="1.42150333">
        <ele>0.0</ele>
        <time>2020-08-17T18:12:00.097Z</time>
      </trkpt>
      <trkpt lat="38.90841167" lon="1.42150333">
        <ele>0.0</ele>
        <time>2020-08-17T18:12:01.116Z</time>
      </trkpt>
      <trkpt lat="38.90829" lon="1.421445">
        <ele>0.0</ele>
        <time>2020-08-17T18:12:02.117Z</time>
      </trkpt>
      <trkpt lat="38.90829" lon="1.421445">
        <ele>0.0</ele>
        <time>2020-08-17T18:12:03.117Z</time>
      </trkpt>
      <trkpt lat="38.90817167" lon="1.42138333">
        <ele>0.0</ele>
        <time>2020-08-17T18:12:04.119Z</time>
      </trkpt>
      <trkpt lat="38.90811333" lon="1.42135333">
        <ele>0.0</ele>
        <time>2020-08-17T18:12:05.117Z</time>
      </trkpt>
      <trkpt lat="38.90811333" lon="1.42135333">
        <ele>0.0</ele>
        <time>2020-08-17T18:12:06.114Z</time>
      </trkpt>
      <trkpt lat="38.908" lon="1.42129">
        <ele>-1.0</ele>
        <time>2020-08-17T18:12:07.119Z</time>
      </trkpt>
      <trkpt lat="38.908" lon="1.42129">
        <ele>-1.0</ele>
        <time>2020-08-17T18:12:08.116Z</time>
      </trkpt>
      <trkpt lat="38.90787833" lon="1.42124167">
        <ele>-1.0</ele>
        <time>2020-08-17T18:12:09.119Z</time>
      </trkpt>
      <trkpt lat="38.90787833" lon="1.42124167">
        <ele>-1.0</ele>
        <time>2020-08-17T18:12:10.115Z</time>
      </trkpt>
      <trkpt lat="38.90775167" lon="1.42119167">
        <ele>0.0</ele>
        <time>2020-08-17T18:12:11.094Z</time>
      </trkpt>
      <trkpt lat="38.90775167" lon="1.42119167">
        <ele>0.0</ele>
        <time>2020-08-17T18:12:12.116Z</time>
      </trkpt>
      <trkpt lat="38.90762" lon="1.42114">
        <ele>1.0</ele>
        <time>2020-08-17T18:12:13.119Z</time>
      </trkpt>
      <trkpt lat="38.90762" lon="1.42114">
        <ele>1.0</ele>
        <time>2020-08-17T18:12:14.116Z</time>
      </trkpt>
      <trkpt lat="38.907495" lon="1.42108167">
        <ele>1.0</ele>
        <time>2020-08-17T18:12:15.119Z</time>
      </trkpt>
      <trkpt lat="38.90743167" lon="1.42105">
        <ele>1.0</ele>
        <time>2020-08-17T18:12:16.099Z</time>
      </trkpt>
      <trkpt lat="38.90743167" lon="1.42105">
        <ele>1.0</ele>
        <time>2020-08-17T18:12:17.120Z</time>
      </trkpt>
      <trkpt lat="38.907305" lon="1.42098833">
        <ele>2.0</ele>
        <time>2020-08-17T18:12:18.099Z</time>
      </trkpt>
      <trkpt lat="38.90724" lon="1.42095667">
        <ele>3.0</ele>
        <time>2020-08-17T18:12:19.121Z</time>
      </trkpt>
      <trkpt lat="38.90724" lon="1.42095667">
        <ele>3.0</ele>
        <time>2020-08-17T18:12:20.114Z</time>
      </trkpt>
      <trkpt lat="38.90712167" lon="1.42088167">
        <ele>4.0</ele>
        <time>2020-08-17T18:12:21.121Z</time>
      </trkpt>
      <trkpt lat="38.90712167" lon="1.42088167">
        <ele>4.0</ele>
        <time>2020-08-17T18:12:22.095Z</time>
      </trkpt>
      <trkpt lat="38.90701833" lon="1.42078333">
        <ele>4.0</ele>
        <time>2020-08-17T18:12:23.113Z</time>
      </trkpt>
      <trkpt lat="38.90701833" lon="1.42078333">
        <ele>4.0</ele>
        <time>2020-08-17T18:12:24.119Z</time>
      </trkpt>
      <trkpt lat="38.90692833" lon="1.420665">
        <ele>4.0</ele>
        <time>2020-08-17T18:12:25.125Z</time>
      </trkpt>
      <trkpt lat="38.90688833" lon="1.42060167">
        <ele>4.0</ele>
        <time>2020-08-17T18:12:26.119Z</time>
      </trkpt>
      <trkpt lat="38.90688833" lon="1.42060167">
        <ele>4.0</ele>
        <time>2020-08-17T18:12:27.117Z</time>
      </trkpt>
      <trkpt lat="38.90682333" lon="1.42045833">
        <ele>4.0</ele>
        <time>2020-08-17T18:12:28.119Z</time>
      </trkpt>
      <trkpt lat="38.9068" lon="1.42038167">
        <ele>5.0</ele>
        <time>2020-08-17T18:12:29.119Z</time>
      </trkpt>
      <trkpt lat="38.9068" lon="1.42038167">
        <ele>5.0</ele>
        <time>2020-08-17T18:12:30.088Z</time>
      </trkpt>
      <trkpt lat="38.90674667" lon="1.42022833">
        <ele>5.0</ele>
        <time>2020-08-17T18:12:31.119Z</time>
      </trkpt>
      <trkpt lat="38.90674667" lon="1.42022833">
        <ele>5.0</ele>
        <time>2020-08-17T18:12:32.115Z</time>
      </trkpt>
      <trkpt lat="38.90665667" lon="1.42011">
        <ele>4.0</ele>
        <time>2020-08-17T18:12:33.096Z</time>
      </trkpt>
      <trkpt lat="38.90665667" lon="1.42011">
        <ele>4.0</ele>
        <time>2020-08-17T18:12:34.117Z</time>
      </trkpt>
      <trkpt lat="38.906535" lon="1.42005667">
        <ele>4.0</ele>
        <time>2020-08-17T18:12:35.120Z</time>
      </trkpt>
      <trkpt lat="38.906535" lon="1.42005667">
        <ele>4.0</ele>
        <time>2020-08-17T18:12:36.117Z</time>
      </trkpt>
      <trkpt lat="38.90641167" lon="1.42007833">
        <ele>4.0</ele>
        <time>2020-08-17T18:12:37.119Z</time>
      </trkpt>
      <trkpt lat="38.90641167" lon="1.42007833">
        <ele>4.0</ele>
        <time>2020-08-17T18:12:38.117Z</time>
      </trkpt>
      <trkpt lat="38.906305" lon="1.42015167">
        <ele>4.0</ele>
        <time>2020-08-17T18:12:39.120Z</time>
      </trkpt>
      <trkpt lat="38.906305" lon="1.42015167">
        <ele>4.0</ele>
        <time>2020-08-17T18:12:40.119Z</time>
      </trkpt>
      <trkpt lat="38.90622" lon="1.42026">
        <ele>4.0</ele>
        <time>2020-08-17T18:12:41.095Z</time>
      </trkpt>
      <trkpt lat="38.90622" lon="1.42026">
        <ele>4.0</ele>
        <time>2020-08-17T18:12:42.117Z</time>
      </trkpt>
      <trkpt lat="38.90610833" lon="1.420285">
        <ele>3.0</ele>
        <time>2020-08-17T18:12:43.117Z</time>
      </trkpt>
      <trkpt lat="38.90610833" lon="1.420285">
        <ele>3.0</ele>
        <time>2020-08-17T18:12:44.117Z</time>
      </trkpt>
      <trkpt lat="38.90598667" lon="1.42021">
        <ele>1.0</ele>
        <time>2020-08-17T18:12:45.119Z</time>
      </trkpt>
      <trkpt lat="38.90598667" lon="1.42021">
        <ele>1.0</ele>
        <time>2020-08-17T18:12:46.100Z</time>
      </trkpt>
      <trkpt lat="38.90588" lon="1.420115">
        <ele>0.0</ele>
        <time>2020-08-17T18:12:47.120Z</time>
      </trkpt>
      <trkpt lat="38.90588" lon="1.420115">
        <ele>0.0</ele>
        <time>2020-08-17T18:12:48.116Z</time>
      </trkpt>
      <trkpt lat="38.905805" lon="1.41999333">
        <ele>2.0</ele>
        <time>2020-08-17T18:12:49.120Z</time>
      </trkpt>
      <trkpt lat="38.905805" lon="1.41999333">
        <ele>2.0</ele>
        <time>2020-08-17T18:12:50.087Z</time>
      </trkpt>
      <trkpt lat="38.90576667" lon="1.41985333">
        <ele>3.0</ele>
        <time>2020-08-17T18:12:51.118Z</time>
      </trkpt>
      <trkpt lat="38.905735" lon="1.419795">
        <ele>3.0</ele>
        <time>2020-08-17T18:12:52.119Z</time>
      </trkpt>
      <trkpt lat="38.90569" lon="1.41974667">
        <ele>3.0</ele>
        <time>2020-08-17T18:12:53.120Z</time>
      </trkpt>
      <trkpt lat="38.90569" lon="1.41974667">
        <ele>3.0</ele>
        <time>2020-08-17T18:12:54.117Z</time>
      </trkpt>
      <trkpt lat="38.90559333" lon="1.41966333">
        <ele>2.0</ele>
        <time>2020-08-17T18:12:55.119Z</time>
      </trkpt>
      <trkpt lat="38.90559333" lon="1.41966333">
        <ele>2.0</ele>
        <time>2020-08-17T18:12:56.117Z</time>
      </trkpt>
      <trkpt lat="38.90549167" lon="1.419585">
        <ele>2.0</ele>
        <time>2020-08-17T18:12:57.119Z</time>
      </trkpt>
      <trkpt lat="38.90549167" lon="1.419585">
        <ele>2.0</ele>
        <time>2020-08-17T18:12:58.110Z</time>
      </trkpt>
      <trkpt lat="38.9054" lon="1.41949667">
        <ele>1.0</ele>
        <time>2020-08-17T18:12:59.089Z</time>
      </trkpt>
      <trkpt lat="38.9054" lon="1.41949667">
        <ele>1.0</ele>
        <time>2020-08-17T18:13:00.098Z</time>
      </trkpt>
      <trkpt lat="38.90533" lon="1.41938167">
        <ele>0.0</ele>
        <time>2020-08-17T18:13:01.121Z</time>
      </trkpt>
      <trkpt lat="38.90533" lon="1.41938167">
        <ele>0.0</ele>
        <time>2020-08-17T18:13:02.114Z</time>
      </trkpt>
      <trkpt lat="38.90529833" lon="1.41924333">
        <ele>0.0</ele>
        <time>2020-08-17T18:13:03.095Z</time>
      </trkpt>
      <trkpt lat="38.90529833" lon="1.41924333">
        <ele>0.0</ele>
        <time>2020-08-17T18:13:04.117Z</time>
      </trkpt>
      <trkpt lat="38.905275" lon="1.41909667">
        <ele>0.0</ele>
        <time>2020-08-17T18:13:05.090Z</time>
      </trkpt>
      <trkpt lat="38.905275" lon="1.41909667">
        <ele>0.0</ele>
        <time>2020-08-17T18:13:06.117Z</time>
      </trkpt>
      <trkpt lat="38.90525" lon="1.418935">
        <ele>0.0</ele>
        <time>2020-08-17T18:13:07.117Z</time>
      </trkpt>
      <trkpt lat="38.90525" lon="1.418935">
        <ele>0.0</ele>
        <time>2020-08-17T18:13:08.121Z</time>
      </trkpt>
      <trkpt lat="38.90522" lon="1.41877833">
        <ele>0.0</ele>
        <time>2020-08-17T18:13:09.119Z</time>
      </trkpt>
      <trkpt lat="38.90522" lon="1.41877833">
        <ele>0.0</ele>
        <time>2020-08-17T18:13:10.119Z</time>
      </trkpt>
      <trkpt lat="38.90518167" lon="1.41861667">
        <ele>0.0</ele>
        <time>2020-08-17T18:13:11.100Z</time>
      </trkpt>
      <trkpt lat="38.90518167" lon="1.41861667">
        <ele>0.0</ele>
        <time>2020-08-17T18:13:12.120Z</time>
      </trkpt>
      <trkpt lat="38.905135" lon="1.41846">
        <ele>1.0</ele>
        <time>2020-08-17T18:13:13.120Z</time>
      </trkpt>
      <trkpt lat="38.905135" lon="1.41846">
        <ele>1.0</ele>
        <time>2020-08-17T18:13:14.117Z</time>
      </trkpt>
      <trkpt lat="38.905095" lon="1.41830667">
        <ele>2.0</ele>
        <time>2020-08-17T18:13:15.119Z</time>
      </trkpt>
      <trkpt lat="38.90507833" lon="1.41822167">
        <ele>3.0</ele>
        <time>2020-08-17T18:13:16.122Z</time>
      </trkpt>
      <trkpt lat="38.90506167" lon="1.41813833">
        <ele>3.0</ele>
        <time>2020-08-17T18:13:17.118Z</time>
      </trkpt>
      <trkpt lat="38.90506167" lon="1.41813833">
        <ele>3.0</ele>
        <time>2020-08-17T18:13:18.119Z</time>
      </trkpt>
      <trkpt lat="38.90502333" lon="1.41797333">
        <ele>4.0</ele>
        <time>2020-08-17T18:13:19.120Z</time>
      </trkpt>
      <trkpt lat="38.90502333" lon="1.41797333">
        <ele>4.0</ele>
        <time>2020-08-17T18:13:20.088Z</time>
      </trkpt>
      <trkpt lat="38.90499333" lon="1.417805">
        <ele>3.0</ele>
        <time>2020-08-17T18:13:21.120Z</time>
      </trkpt>
      <trkpt lat="38.90499333" lon="1.417805">
        <ele>3.0</ele>
        <time>2020-08-17T18:13:22.121Z</time>
      </trkpt>
      <trkpt lat="38.90495333" lon="1.41764">
        <ele>3.0</ele>
        <time>2020-08-17T18:13:23.109Z</time>
      </trkpt>
      <trkpt lat="38.90493667" lon="1.41755667">
        <ele>3.0</ele>
        <time>2020-08-17T18:13:24.115Z</time>
      </trkpt>
      <trkpt lat="38.90493667" lon="1.41755667">
        <ele>3.0</ele>
        <time>2020-08-17T18:13:25.120Z</time>
      </trkpt>
      <trkpt lat="38.90489833" lon="1.41739">
        <ele>3.0</ele>
        <time>2020-08-17T18:13:26.120Z</time>
      </trkpt>
      <trkpt lat="38.90489833" lon="1.41739">
        <ele>3.0</ele>
        <time>2020-08-17T18:13:27.117Z</time>
      </trkpt>
      <trkpt lat="38.90486667" lon="1.41722667">
        <ele>4.0</ele>
        <time>2020-08-17T18:13:28.119Z</time>
      </trkpt>
      <trkpt lat="38.904855" lon="1.41714333">
        <ele>4.0</ele>
        <time>2020-08-17T18:13:29.118Z</time>
      </trkpt>
      <trkpt lat="38.904855" lon="1.41714333">
        <ele>4.0</ele>
        <time>2020-08-17T18:13:30.114Z</time>
      </trkpt>
      <trkpt lat="38.90486333" lon="1.41694667">
        <ele>7.0</ele>
        <time>2020-08-17T18:13:31.099Z</time>
      </trkpt>
      <trkpt lat="38.90486333" lon="1.41694667">
        <ele>7.0</ele>
        <time>2020-08-17T18:13:32.121Z</time>
      </trkpt>
      <trkpt lat="38.90484333" lon="1.41678">
        <ele>8.0</ele>
        <time>2020-08-17T18:13:33.119Z</time>
      </trkpt>
      <trkpt lat="38.90484333" lon="1.41678">
        <ele>8.0</ele>
        <time>2020-08-17T18:13:34.117Z</time>
      </trkpt>
      <trkpt lat="38.90481" lon="1.416625">
        <ele>9.0</ele>
        <time>2020-08-17T18:13:35.097Z</time>
      </trkpt>
      <trkpt lat="38.90481" lon="1.416625">
        <ele>9.0</ele>
        <time>2020-08-17T18:13:36.118Z</time>
      </trkpt>
      <trkpt lat="38.90477167" lon="1.41647">
        <ele>9.0</ele>
        <time>2020-08-17T18:13:37.120Z</time>
      </trkpt>
      <trkpt lat="38.90477167" lon="1.41647">
        <ele>9.0</ele>
        <time>2020-08-17T18:13:38.117Z</time>
      </trkpt>
      <trkpt lat="38.90473333" lon="1.41631833">
        <ele>10.0</ele>
        <time>2020-08-17T18:13:39.094Z</time>
      </trkpt>
      <trkpt lat="38.90471667" lon="1.41624">
        <ele>10.0</ele>
        <time>2020-08-17T18:13:40.119Z</time>
      </trkpt>
      <trkpt lat="38.90469833" lon="1.416165">
        <ele>10.0</ele>
        <time>2020-08-17T18:13:41.095Z</time>
      </trkpt>
      <trkpt lat="38.90469833" lon="1.416165">
        <ele>10.0</ele>
        <time>2020-08-17T18:13:42.117Z</time>
      </trkpt>
      <trkpt lat="38.90466833" lon="1.41601">
        <ele>10.0</ele>
        <time>2020-08-17T18:13:43.120Z</time>
      </trkpt>
      <trkpt lat="38.90466833" lon="1.41601">
        <ele>10.0</ele>
        <time>2020-08-17T18:13:44.114Z</time>
      </trkpt>
      <trkpt lat="38.90464333" lon="1.415855">
        <ele>10.0</ele>
        <time>2020-08-17T18:13:45.096Z</time>
      </trkpt>
      <trkpt lat="38.90463167" lon="1.41577833">
        <ele>10.0</ele>
        <time>2020-08-17T18:13:46.120Z</time>
      </trkpt>
      <trkpt lat="38.90461833" lon="1.41569833">
        <ele>10.0</ele>
        <time>2020-08-17T18:13:47.118Z</time>
      </trkpt>
      <trkpt lat="38.90461833" lon="1.41569833">
        <ele>10.0</ele>
        <time>2020-08-17T18:13:48.115Z</time>
      </trkpt>
      <trkpt lat="38.90458833" lon="1.415545">
        <ele>11.0</ele>
        <time>2020-08-17T18:13:49.120Z</time>
      </trkpt>
      <trkpt lat="38.90457333" lon="1.41547">
        <ele>11.0</ele>
        <time>2020-08-17T18:13:50.120Z</time>
      </trkpt>
      <trkpt lat="38.90457333" lon="1.41547">
        <ele>11.0</ele>
        <time>2020-08-17T18:13:51.095Z</time>
      </trkpt>
      <trkpt lat="38.90455" lon="1.41531667">
        <ele>11.0</ele>
        <time>2020-08-17T18:13:52.118Z</time>
      </trkpt>
      <trkpt lat="38.90455" lon="1.41531667">
        <ele>11.0</ele>
        <time>2020-08-17T18:13:53.116Z</time>
      </trkpt>
      <trkpt lat="38.90452167" lon="1.41516667">
        <ele>11.0</ele>
        <time>2020-08-17T18:13:54.096Z</time>
      </trkpt>
      <trkpt lat="38.904505" lon="1.41509333">
        <ele>11.0</ele>
        <time>2020-08-17T18:13:55.120Z</time>
      </trkpt>
      <trkpt lat="38.904505" lon="1.41509333">
        <ele>11.0</ele>
        <time>2020-08-17T18:13:56.117Z</time>
      </trkpt>
      <trkpt lat="38.90447333" lon="1.41494833">
        <ele>10.0</ele>
        <time>2020-08-17T18:13:57.119Z</time>
      </trkpt>
      <trkpt lat="38.90447333" lon="1.41494833">
        <ele>10.0</ele>
        <time>2020-08-17T18:13:58.112Z</time>
      </trkpt>
      <trkpt lat="38.90444667" lon="1.41478333">
        <ele>11.0</ele>
        <time>2020-08-17T18:13:59.124Z</time>
      </trkpt>
      <trkpt lat="38.90444667" lon="1.41478333">
        <ele>11.0</ele>
        <time>2020-08-17T18:14:00.125Z</time>
      </trkpt>
      <trkpt lat="38.90442" lon="1.41462">
        <ele>12.0</ele>
        <time>2020-08-17T18:14:01.121Z</time>
      </trkpt>
      <trkpt lat="38.90442" lon="1.41462">
        <ele>12.0</ele>
        <time>2020-08-17T18:14:02.117Z</time>
      </trkpt>
      <trkpt lat="38.90438" lon="1.41447167">
        <ele>13.0</ele>
        <time>2020-08-17T18:14:03.119Z</time>
      </trkpt>
      <trkpt lat="38.90438" lon="1.41447167">
        <ele>13.0</ele>
        <time>2020-08-17T18:14:04.114Z</time>
      </trkpt>
      <trkpt lat="38.90434667" lon="1.41431667">
        <ele>13.0</ele>
        <time>2020-08-17T18:14:05.095Z</time>
      </trkpt>
      <trkpt lat="38.90434667" lon="1.41431667">
        <ele>13.0</ele>
        <time>2020-08-17T18:14:06.117Z</time>
      </trkpt>
      <trkpt lat="38.90432" lon="1.414165">
        <ele>14.0</ele>
        <time>2020-08-17T18:14:07.121Z</time>
      </trkpt>
      <trkpt lat="38.90432" lon="1.414165">
        <ele>14.0</ele>
        <time>2020-08-17T18:14:08.117Z</time>
      </trkpt>
      <trkpt lat="38.90428667" lon="1.414005">
        <ele>14.0</ele>
        <time>2020-08-17T18:14:09.120Z</time>
      </trkpt>
      <trkpt lat="38.90428667" lon="1.414005">
        <ele>14.0</ele>
        <time>2020-08-17T18:14:10.117Z</time>
      </trkpt>
      <trkpt lat="38.90425167" lon="1.413845">
        <ele>14.0</ele>
        <time>2020-08-17T18:14:11.100Z</time>
      </trkpt>
      <trkpt lat="38.90425167" lon="1.413845">
        <ele>14.0</ele>
        <time>2020-08-17T18:14:12.120Z</time>
      </trkpt>
      <trkpt lat="38.90421667" lon="1.41368167">
        <ele>15.0</ele>
        <time>2020-08-17T18:14:13.121Z</time>
      </trkpt>
      <trkpt lat="38.90421667" lon="1.41368167">
        <ele>15.0</ele>
        <time>2020-08-17T18:14:14.114Z</time>
      </trkpt>
      <trkpt lat="38.90417333" lon="1.41352167">
        <ele>16.0</ele>
        <time>2020-08-17T18:14:15.095Z</time>
      </trkpt>
      <trkpt lat="38.904155" lon="1.41344667">
        <ele>16.0</ele>
        <time>2020-08-17T18:14:16.120Z</time>
      </trkpt>
      <trkpt lat="38.904155" lon="1.41344667">
        <ele>16.0</ele>
        <time>2020-08-17T18:14:17.118Z</time>
      </trkpt>
      <trkpt lat="38.90412167" lon="1.41329167">
        <ele>16.0</ele>
        <time>2020-08-17T18:14:18.119Z</time>
      </trkpt>
      <trkpt lat="38.90412167" lon="1.41329167">
        <ele>16.0</ele>
        <time>2020-08-17T18:14:19.115Z</time>
      </trkpt>
      <trkpt lat="38.904085" lon="1.41313333">
        <ele>15.0</ele>
        <time>2020-08-17T18:14:20.113Z</time>
      </trkpt>
      <trkpt lat="38.904085" lon="1.41313333">
        <ele>15.0</ele>
        <time>2020-08-17T18:14:21.087Z</time>
      </trkpt>
      <trkpt lat="38.90404333" lon="1.412975">
        <ele>15.0</ele>
        <time>2020-08-17T18:14:22.090Z</time>
      </trkpt>
      <trkpt lat="38.90404333" lon="1.412975">
        <ele>15.0</ele>
        <time>2020-08-17T18:14:23.092Z</time>
      </trkpt>
      <trkpt lat="38.904005" lon="1.41281333">
        <ele>14.0</ele>
        <time>2020-08-17T18:14:24.098Z</time>
      </trkpt>
      <trkpt lat="38.904005" lon="1.41281333">
        <ele>14.0</ele>
        <time>2020-08-17T18:14:25.105Z</time>
      </trkpt>
      <trkpt lat="38.90398" lon="1.41264">
        <ele>15.0</ele>
        <time>2020-08-17T18:14:26.120Z</time>
      </trkpt>
      <trkpt lat="38.90396833" lon="1.41255">
        <ele>16.0</ele>
        <time>2020-08-17T18:14:27.120Z</time>
      </trkpt>
      <trkpt lat="38.90396833" lon="1.41255">
        <ele>16.0</ele>
        <time>2020-08-17T18:14:28.117Z</time>
      </trkpt>
      <trkpt lat="38.903935" lon="1.412385">
        <ele>16.0</ele>
        <time>2020-08-17T18:14:29.097Z</time>
      </trkpt>
      <trkpt lat="38.903935" lon="1.412385">
        <ele>16.0</ele>
        <time>2020-08-17T18:14:30.118Z</time>
      </trkpt>
      <trkpt lat="38.90390333" lon="1.41222">
        <ele>16.0</ele>
        <time>2020-08-17T18:14:31.100Z</time>
      </trkpt>
      <trkpt lat="38.903895" lon="1.412135">
        <ele>17.0</ele>
        <time>2020-08-17T18:14:32.121Z</time>
      </trkpt>
      <trkpt lat="38.903895" lon="1.412135">
        <ele>17.0</ele>
        <time>2020-08-17T18:14:33.117Z</time>
      </trkpt>
      <trkpt lat="38.90386" lon="1.41197667">
        <ele>17.0</ele>
        <time>2020-08-17T18:14:34.120Z</time>
      </trkpt>
      <trkpt lat="38.903845" lon="1.41189833">
        <ele>16.0</ele>
        <time>2020-08-17T18:14:35.121Z</time>
      </trkpt>
      <trkpt lat="38.90382833" lon="1.41182">
        <ele>16.0</ele>
        <time>2020-08-17T18:14:36.121Z</time>
      </trkpt>
      <trkpt lat="38.90382833" lon="1.41182">
        <ele>16.0</ele>
        <time>2020-08-17T18:14:37.115Z</time>
      </trkpt>
      <trkpt lat="38.90380333" lon="1.41166167">
        <ele>16.0</ele>
        <time>2020-08-17T18:14:38.095Z</time>
      </trkpt>
      <trkpt lat="38.90380333" lon="1.41166167">
        <ele>16.0</ele>
        <time>2020-08-17T18:14:39.117Z</time>
      </trkpt>
      <trkpt lat="38.90377333" lon="1.41149667">
        <ele>17.0</ele>
        <time>2020-08-17T18:14:40.119Z</time>
      </trkpt>
      <trkpt lat="38.90376" lon="1.411415">
        <ele>18.0</ele>
        <time>2020-08-17T18:14:41.095Z</time>
      </trkpt>
      <trkpt lat="38.90376" lon="1.411415">
        <ele>18.0</ele>
        <time>2020-08-17T18:14:42.117Z</time>
      </trkpt>
      <trkpt lat="38.90373" lon="1.41125667">
        <ele>18.0</ele>
        <time>2020-08-17T18:14:43.120Z</time>
      </trkpt>
      <trkpt lat="38.90373" lon="1.41125667">
        <ele>18.0</ele>
        <time>2020-08-17T18:14:44.118Z</time>
      </trkpt>
      <trkpt lat="38.90370167" lon="1.41109833">
        <ele>18.0</ele>
        <time>2020-08-17T18:14:45.119Z</time>
      </trkpt>
      <trkpt lat="38.90370167" lon="1.41109833">
        <ele>18.0</ele>
        <time>2020-08-17T18:14:46.118Z</time>
      </trkpt>
      <trkpt lat="38.90366833" lon="1.41093667">
        <ele>19.0</ele>
        <time>2020-08-17T18:14:47.097Z</time>
      </trkpt>
      <trkpt lat="38.90366833" lon="1.41093667">
        <ele>19.0</ele>
        <time>2020-08-17T18:14:48.118Z</time>
      </trkpt>
      <trkpt lat="38.903625" lon="1.41077833">
        <ele>20.0</ele>
        <time>2020-08-17T18:14:49.099Z</time>
      </trkpt>
      <trkpt lat="38.90360833" lon="1.4107">
        <ele>20.0</ele>
        <time>2020-08-17T18:14:50.119Z</time>
      </trkpt>
      <trkpt lat="38.90360833" lon="1.4107">
        <ele>20.0</ele>
        <time>2020-08-17T18:14:51.117Z</time>
      </trkpt>
      <trkpt lat="38.90357167" lon="1.41054167">
        <ele>20.0</ele>
        <time>2020-08-17T18:14:52.100Z</time>
      </trkpt>
      <trkpt lat="38.90355" lon="1.41046333">
        <ele>20.0</ele>
        <time>2020-08-17T18:14:53.122Z</time>
      </trkpt>
      <trkpt lat="38.90355" lon="1.41046333">
        <ele>20.0</ele>
        <time>2020-08-17T18:14:54.117Z</time>
      </trkpt>
      <trkpt lat="38.90351333" lon="1.41030667">
        <ele>20.0</ele>
        <time>2020-08-17T18:14:55.121Z</time>
      </trkpt>
      <trkpt lat="38.90351333" lon="1.41030667">
        <ele>20.0</ele>
        <time>2020-08-17T18:14:56.100Z</time>
      </trkpt>
      <trkpt lat="38.903485" lon="1.41015">
        <ele>20.0</ele>
        <time>2020-08-17T18:14:57.120Z</time>
      </trkpt>
      <trkpt lat="38.90346833" lon="1.41007">
        <ele>21.0</ele>
        <time>2020-08-17T18:14:58.118Z</time>
      </trkpt>
      <trkpt lat="38.90346833" lon="1.41007">
        <ele>21.0</ele>
        <time>2020-08-17T18:14:59.089Z</time>
      </trkpt>
      <trkpt lat="38.90342833" lon="1.40991">
        <ele>22.0</ele>
        <time>2020-08-17T18:15:00.125Z</time>
      </trkpt>
      <trkpt lat="38.903415" lon="1.40983">
        <ele>22.0</ele>
        <time>2020-08-17T18:15:01.123Z</time>
      </trkpt>
      <trkpt lat="38.903415" lon="1.40983">
        <ele>22.0</ele>
        <time>2020-08-17T18:15:02.118Z</time>
      </trkpt>
      <trkpt lat="38.90339333" lon="1.40967667">
        <ele>22.0</ele>
        <time>2020-08-17T18:15:03.120Z</time>
      </trkpt>
      <trkpt lat="38.90337667" lon="1.40960333">
        <ele>22.0</ele>
        <time>2020-08-17T18:15:04.121Z</time>
      </trkpt>
      <trkpt lat="38.90336333" lon="1.40953333">
        <ele>23.0</ele>
        <time>2020-08-17T18:15:05.123Z</time>
      </trkpt>
      <trkpt lat="38.90336333" lon="1.40953333">
        <ele>23.0</ele>
        <time>2020-08-17T18:15:06.118Z</time>
      </trkpt>
      <trkpt lat="38.90334" lon="1.40942">
        <ele>23.0</ele>
        <time>2020-08-17T18:15:07.121Z</time>
      </trkpt>
      <trkpt lat="38.90334" lon="1.40942">
        <ele>23.0</ele>
        <time>2020-08-17T18:15:08.114Z</time>
      </trkpt>
      <trkpt lat="38.90332333" lon="1.409325">
        <ele>23.0</ele>
        <time>2020-08-17T18:15:09.097Z</time>
      </trkpt>
      <trkpt lat="38.90330833" lon="1.40927">
        <ele>23.0</ele>
        <time>2020-08-17T18:15:10.119Z</time>
      </trkpt>
      <trkpt lat="38.90329167" lon="1.40921333">
        <ele>23.0</ele>
        <time>2020-08-17T18:15:11.095Z</time>
      </trkpt>
      <trkpt lat="38.90329167" lon="1.40921333">
        <ele>23.0</ele>
        <time>2020-08-17T18:15:12.118Z</time>
      </trkpt>
      <trkpt lat="38.90325833" lon="1.409095">
        <ele>23.0</ele>
        <time>2020-08-17T18:15:13.120Z</time>
      </trkpt>
      <trkpt lat="38.90325833" lon="1.409095">
        <ele>23.0</ele>
        <time>2020-08-17T18:15:14.117Z</time>
      </trkpt>
      <trkpt lat="38.90322167" lon="1.40896667">
        <ele>23.0</ele>
        <time>2020-08-17T18:15:15.120Z</time>
      </trkpt>
      <trkpt lat="38.90322167" lon="1.40896667">
        <ele>23.0</ele>
        <time>2020-08-17T18:15:16.117Z</time>
      </trkpt>
      <trkpt lat="38.90319167" lon="1.408825">
        <ele>23.0</ele>
        <time>2020-08-17T18:15:17.101Z</time>
      </trkpt>
      <trkpt lat="38.90319167" lon="1.408825">
        <ele>23.0</ele>
        <time>2020-08-17T18:15:18.121Z</time>
      </trkpt>
      <trkpt lat="38.903165" lon="1.40869333">
        <ele>24.0</ele>
        <time>2020-08-17T18:15:19.121Z</time>
      </trkpt>
      <trkpt lat="38.903165" lon="1.40869333">
        <ele>24.0</ele>
        <time>2020-08-17T18:15:20.117Z</time>
      </trkpt>
      <trkpt lat="38.90314333" lon="1.40855667">
        <ele>24.0</ele>
        <time>2020-08-17T18:15:21.094Z</time>
      </trkpt>
      <trkpt lat="38.90314333" lon="1.40855667">
        <ele>24.0</ele>
        <time>2020-08-17T18:15:22.090Z</time>
      </trkpt>
      <trkpt lat="38.90311833" lon="1.40843167">
        <ele>23.0</ele>
        <time>2020-08-17T18:15:23.093Z</time>
      </trkpt>
      <trkpt lat="38.90311833" lon="1.40843167">
        <ele>23.0</ele>
        <time>2020-08-17T18:15:24.105Z</time>
      </trkpt>
      <trkpt lat="38.90312" lon="1.40846">
        <ele>4.0</ele>
        <time>2020-06-22T08:36:22.618Z</time>
      </trkpt>
      <trkpt lat="38.90312" lon="1.40846">
        <ele>4.0</ele>
        <time>2020-06-22T08:36:23.631Z</time>
      </trkpt>
      <trkpt lat="38.90311" lon="1.4084">
        <ele>4.0</ele>
        <time>2020-06-22T08:36:24.601Z</time>
      </trkpt>
      <trkpt lat="38.90311" lon="1.4084">
        <ele>4.0</ele>
        <time>2020-06-22T08:36:25.619Z</time>
      </trkpt>
      <trkpt lat="38.90309333" lon="1.40835167">
        <ele>4.0</ele>
        <time>2020-06-22T08:36:26.630Z</time>
      </trkpt>
      <trkpt lat="38.90307833" lon="1.40832167">
        <ele>4.0</ele>
        <time>2020-06-22T08:36:27.632Z</time>
      </trkpt>
      <trkpt lat="38.90307833" lon="1.40832167">
        <ele>4.0</ele>
        <time>2020-06-22T08:36:28.630Z</time>
      </trkpt>
      <trkpt lat="38.90312167" lon="1.40828333">
        <ele>5.0</ele>
        <time>2020-06-22T08:36:29.633Z</time>
      </trkpt>
      <trkpt lat="38.90312167" lon="1.40828333">
        <ele>5.0</ele>
        <time>2020-06-22T08:36:30.594Z</time>
      </trkpt>
      <trkpt lat="38.90316667" lon="1.40834667">
        <ele>6.0</ele>
        <time>2020-06-22T08:36:31.595Z</time>
      </trkpt>
      <trkpt lat="38.90317833" lon="1.40839333">
        <ele>6.0</ele>
        <time>2020-06-22T08:36:32.632Z</time>
      </trkpt>
      <trkpt lat="38.90317833" lon="1.40839333">
        <ele>6.0</ele>
        <time>2020-06-22T08:36:33.627Z</time>
      </trkpt>
      <trkpt lat="38.90319667" lon="1.408495">
        <ele>6.0</ele>
        <time>2020-06-22T08:36:34.616Z</time>
      </trkpt>
      <trkpt lat="38.90319667" lon="1.408495">
        <ele>6.0</ele>
        <time>2020-06-22T08:36:35.601Z</time>
      </trkpt>
      <trkpt lat="38.90321833" lon="1.40861">
        <ele>6.0</ele>
        <time>2020-06-22T08:36:36.598Z</time>
      </trkpt>
      <trkpt lat="38.90321833" lon="1.40861">
        <ele>6.0</ele>
        <time>2020-06-22T08:36:37.628Z</time>
      </trkpt>
      <trkpt lat="38.90323667" lon="1.40873667">
        <ele>7.0</ele>
        <time>2020-06-22T08:36:38.596Z</time>
      </trkpt>
      <trkpt lat="38.90323667" lon="1.40873667">
        <ele>7.0</ele>
        <time>2020-06-22T08:36:39.636Z</time>
      </trkpt>
      <trkpt lat="38.90326167" lon="1.408865">
        <ele>7.0</ele>
        <time>2020-06-22T08:36:40.602Z</time>
      </trkpt>
      <trkpt lat="38.90328" lon="1.40892667">
        <ele>7.0</ele>
        <time>2020-06-22T08:36:41.598Z</time>
      </trkpt>
      <trkpt lat="38.90328" lon="1.40892667">
        <ele>7.0</ele>
        <time>2020-06-22T08:36:42.629Z</time>
      </trkpt>
      <trkpt lat="38.90330833" lon="1.40906167">
        <ele>6.0</ele>
        <time>2020-06-22T08:36:43.631Z</time>
      </trkpt>
      <trkpt lat="38.90331833" lon="1.40913333">
        <ele>6.0</ele>
        <time>2020-06-22T08:36:44.595Z</time>
      </trkpt>
      <trkpt lat="38.903325" lon="1.40920167">
        <ele>6.0</ele>
        <time>2020-06-22T08:36:45.594Z</time>
      </trkpt>
      <trkpt lat="38.903325" lon="1.40920167">
        <ele>6.0</ele>
        <time>2020-06-22T08:36:46.628Z</time>
      </trkpt>
      <trkpt lat="38.903325" lon="1.40933333">
        <ele>6.0</ele>
        <time>2020-06-22T08:36:47.632Z</time>
      </trkpt>
      <trkpt lat="38.90330333" lon="1.409395">
        <ele>5.0</ele>
        <time>2020-06-22T08:36:48.633Z</time>
      </trkpt>
      <trkpt lat="38.90330333" lon="1.409395">
        <ele>5.0</ele>
        <time>2020-06-22T08:36:49.626Z</time>
      </trkpt>
      <trkpt lat="38.90322" lon="1.409485">
        <ele>5.0</ele>
        <time>2020-06-22T08:36:50.611Z</time>
      </trkpt>
      <trkpt lat="38.90317" lon="1.409525">
        <ele>4.0</ele>
        <time>2020-06-22T08:36:51.596Z</time>
      </trkpt>
      <trkpt lat="38.90317" lon="1.409525">
        <ele>4.0</ele>
        <time>2020-06-22T08:36:52.626Z</time>
      </trkpt>
      <trkpt lat="38.903065" lon="1.40960833">
        <ele>3.0</ele>
        <time>2020-06-22T08:36:53.633Z</time>
      </trkpt>
      <trkpt lat="38.903005" lon="1.40962667">
        <ele>2.0</ele>
        <time>2020-06-22T08:36:54.597Z</time>
      </trkpt>
      <trkpt lat="38.903005" lon="1.40962667">
        <ele>2.0</ele>
        <time>2020-06-22T08:36:55.627Z</time>
      </trkpt>
      <trkpt lat="38.902895" lon="1.409565">
        <ele>1.0</ele>
        <time>2020-06-22T08:36:56.632Z</time>
      </trkpt>
      <trkpt lat="38.902895" lon="1.409565">
        <ele>1.0</ele>
        <time>2020-06-22T08:36:57.627Z</time>
      </trkpt>
      <trkpt lat="38.90283" lon="1.40944">
        <ele>0.0</ele>
        <time>2020-06-22T08:36:58.632Z</time>
      </trkpt>
      <trkpt lat="38.90283" lon="1.40944">
        <ele>0.0</ele>
        <time>2020-06-22T08:36:59.627Z</time>
      </trkpt>
      <trkpt lat="38.90277333" lon="1.40929833">
        <ele>0.0</ele>
        <time>2020-06-22T08:37:00.607Z</time>
      </trkpt>
      <trkpt lat="38.90277333" lon="1.40929833">
        <ele>0.0</ele>
        <time>2020-06-22T08:37:01.630Z</time>
      </trkpt>
      <trkpt lat="38.90271833" lon="1.40915833">
        <ele>0.0</ele>
        <time>2020-06-22T08:37:02.633Z</time>
      </trkpt>
      <trkpt lat="38.90271833" lon="1.40915833">
        <ele>0.0</ele>
        <time>2020-06-22T08:37:03.627Z</time>
      </trkpt>
      <trkpt lat="38.90266" lon="1.40901333">
        <ele>0.0</ele>
        <time>2020-06-22T08:37:04.633Z</time>
      </trkpt>
      <trkpt lat="38.90263333" lon="1.40893833">
        <ele>0.0</ele>
        <time>2020-06-22T08:37:05.633Z</time>
      </trkpt>
      <trkpt lat="38.902605" lon="1.408865">
        <ele>0.0</ele>
        <time>2020-06-22T08:37:06.633Z</time>
      </trkpt>
      <trkpt lat="38.902605" lon="1.408865">
        <ele>0.0</ele>
        <time>2020-06-22T08:37:07.627Z</time>
      </trkpt>
      <trkpt lat="38.90255" lon="1.408715">
        <ele>0.0</ele>
        <time>2020-06-22T08:37:08.633Z</time>
      </trkpt>
      <trkpt lat="38.90255" lon="1.408715">
        <ele>0.0</ele>
        <time>2020-06-22T08:37:09.627Z</time>
      </trkpt>
      <trkpt lat="38.90249" lon="1.40856667">
        <ele>0.0</ele>
        <time>2020-06-22T08:37:10.601Z</time>
      </trkpt>
      <trkpt lat="38.90249" lon="1.40856667">
        <ele>0.0</ele>
        <time>2020-06-22T08:37:11.628Z</time>
      </trkpt>
      <trkpt lat="38.902415" lon="1.40842333">
        <ele>0.0</ele>
        <time>2020-06-22T08:37:12.601Z</time>
      </trkpt>
      <trkpt lat="38.902415" lon="1.40842333">
        <ele>0.0</ele>
        <time>2020-06-22T08:37:13.627Z</time>
      </trkpt>
      <trkpt lat="38.90234167" lon="1.40828333">
        <ele>0.0</ele>
        <time>2020-06-22T08:37:14.594Z</time>
      </trkpt>
      <trkpt lat="38.90234167" lon="1.40828333">
        <ele>0.0</ele>
        <time>2020-06-22T08:37:15.627Z</time>
      </trkpt>
      <trkpt lat="38.90226167" lon="1.40814833">
        <ele>0.0</ele>
        <time>2020-06-22T08:37:16.607Z</time>
      </trkpt>
      <trkpt lat="38.90221833" lon="1.40808333">
        <ele>0.0</ele>
        <time>2020-06-22T08:37:17.633Z</time>
      </trkpt>
      <trkpt lat="38.90217667" lon="1.40802">
        <ele>0.0</ele>
        <time>2020-06-22T08:37:18.594Z</time>
      </trkpt>
      <trkpt lat="38.90213167" lon="1.40795333">
        <ele>1.0</ele>
        <time>2020-06-22T08:37:19.594Z</time>
      </trkpt>
      <trkpt lat="38.90213167" lon="1.40795333">
        <ele>1.0</ele>
        <time>2020-06-22T08:37:20.631Z</time>
      </trkpt>
      <trkpt lat="38.90204167" lon="1.40782333">
        <ele>0.0</ele>
        <time>2020-06-22T08:37:21.598Z</time>
      </trkpt>
      <trkpt lat="38.90199833" lon="1.40775667">
        <ele>0.0</ele>
        <time>2020-06-22T08:37:22.596Z</time>
      </trkpt>
      <trkpt lat="38.90199833" lon="1.40775667">
        <ele>0.0</ele>
        <time>2020-06-22T08:37:23.627Z</time>
      </trkpt>
      <trkpt lat="38.90190833" lon="1.40762333">
        <ele>0.0</ele>
        <time>2020-06-22T08:37:24.630Z</time>
      </trkpt>
      <trkpt lat="38.90190833" lon="1.40762333">
        <ele>0.0</ele>
        <time>2020-06-22T08:37:25.626Z</time>
      </trkpt>
      <trkpt lat="38.90181667" lon="1.40749">
        <ele>0.0</ele>
        <time>2020-06-22T08:37:26.595Z</time>
      </trkpt>
      <trkpt lat="38.90181667" lon="1.40749">
        <ele>0.0</ele>
        <time>2020-06-22T08:37:27.626Z</time>
      </trkpt>
      <trkpt lat="38.90172333" lon="1.40736333">
        <ele>-1.0</ele>
        <time>2020-06-22T08:37:28.633Z</time>
      </trkpt>
      <trkpt lat="38.90172333" lon="1.40736333">
        <ele>-1.0</ele>
        <time>2020-06-22T08:37:29.632Z</time>
      </trkpt>
      <trkpt lat="38.90168333" lon="1.40720667">
        <ele>-1.0</ele>
        <time>2020-06-22T08:37:30.602Z</time>
      </trkpt>
      <trkpt lat="38.9017" lon="1.407135">
        <ele>-1.0</ele>
        <time>2020-06-22T08:37:31.631Z</time>
      </trkpt>
      <trkpt lat="38.9017" lon="1.407135">
        <ele>-1.0</ele>
        <time>2020-06-22T08:37:32.626Z</time>
      </trkpt>
      <trkpt lat="38.90177667" lon="1.40702667">
        <ele>-1.0</ele>
        <time>2020-06-22T08:37:33.596Z</time>
      </trkpt>
      <trkpt lat="38.90177667" lon="1.40702667">
        <ele>-1.0</ele>
        <time>2020-06-22T08:37:34.626Z</time>
      </trkpt>
      <trkpt lat="38.90186333" lon="1.40692333">
        <ele>0.0</ele>
        <time>2020-06-22T08:37:35.606Z</time>
      </trkpt>
      <trkpt lat="38.90186333" lon="1.40692333">
        <ele>0.0</ele>
        <time>2020-06-22T08:37:36.627Z</time>
      </trkpt>
      <trkpt lat="38.90195833" lon="1.40682667">
        <ele>0.0</ele>
        <time>2020-06-22T08:37:37.595Z</time>
      </trkpt>
      <trkpt lat="38.902" lon="1.40677">
        <ele>0.0</ele>
        <time>2020-06-22T08:37:38.633Z</time>
      </trkpt>
      <trkpt lat="38.902" lon="1.40677">
        <ele>0.0</ele>
        <time>2020-06-22T08:37:39.627Z</time>
      </trkpt>
      <trkpt lat="38.90202833" lon="1.40664">
        <ele>0.0</ele>
        <time>2020-06-22T08:37:40.611Z</time>
      </trkpt>
      <trkpt lat="38.90202833" lon="1.40664">
        <ele>0.0</ele>
        <time>2020-06-22T08:37:41.594Z</time>
      </trkpt>
      <trkpt lat="38.90197667" lon="1.40652">
        <ele>1.0</ele>
        <time>2020-06-22T08:37:42.632Z</time>
      </trkpt>
      <trkpt lat="38.90197667" lon="1.40652">
        <ele>1.0</ele>
        <time>2020-06-22T08:37:43.627Z</time>
      </trkpt>
      <trkpt lat="38.90188167" lon="1.406415">
        <ele>0.0</ele>
        <time>2020-06-22T08:37:44.634Z</time>
      </trkpt>
      <trkpt lat="38.90188167" lon="1.406415">
        <ele>0.0</ele>
        <time>2020-06-22T08:37:45.626Z</time>
      </trkpt>
      <trkpt lat="38.90177333" lon="1.40631167">
        <ele>0.0</ele>
        <time>2020-06-22T08:37:46.632Z</time>
      </trkpt>
      <trkpt lat="38.90177333" lon="1.40631167">
        <ele>0.0</ele>
        <time>2020-06-22T08:37:47.626Z</time>
      </trkpt>
      <trkpt lat="38.90166333" lon="1.40621">
        <ele>0.0</ele>
        <time>2020-06-22T08:37:48.597Z</time>
      </trkpt>
      <trkpt lat="38.90166333" lon="1.40621">
        <ele>0.0</ele>
        <time>2020-06-22T08:37:49.629Z</time>
      </trkpt>
      <trkpt lat="38.90155167" lon="1.40611">
        <ele>0.0</ele>
        <time>2020-06-22T08:37:50.596Z</time>
      </trkpt>
      <trkpt lat="38.901495" lon="1.40606">
        <ele>0.0</ele>
        <time>2020-06-22T08:37:51.633Z</time>
      </trkpt>
      <trkpt lat="38.901495" lon="1.40606">
        <ele>0.0</ele>
        <time>2020-06-22T08:37:52.625Z</time>
      </trkpt>
      <trkpt lat="38.90138" lon="1.40596333">
        <ele>-1.0</ele>
        <time>2020-06-22T08:37:53.611Z</time>
      </trkpt>
      <trkpt lat="38.90132167" lon="1.40591333">
        <ele>0.0</ele>
        <time>2020-06-22T08:37:54.633Z</time>
      </trkpt>
      <trkpt lat="38.90126167" lon="1.40586333">
        <ele>0.0</ele>
        <time>2020-06-22T08:37:55.615Z</time>
      </trkpt>
      <trkpt lat="38.90126167" lon="1.40586333">
        <ele>0.0</ele>
        <time>2020-06-22T08:37:56.624Z</time>
      </trkpt>
      <trkpt lat="38.90114333" lon="1.40575833">
        <ele>0.0</ele>
        <time>2020-06-22T08:37:57.601Z</time>
      </trkpt>
      <trkpt lat="38.90114333" lon="1.40575833">
        <ele>0.0</ele>
        <time>2020-06-22T08:37:58.607Z</time>
      </trkpt>
      <trkpt lat="38.90102167" lon="1.40565333">
        <ele>0.0</ele>
        <time>2020-06-22T08:37:59.619Z</time>
      </trkpt>
      <trkpt lat="38.90096" lon="1.40560167">
        <ele>0.0</ele>
        <time>2020-06-22T08:38:00.627Z</time>
      </trkpt>
      <trkpt lat="38.90096" lon="1.40560167">
        <ele>0.0</ele>
        <time>2020-06-22T08:38:01.633Z</time>
      </trkpt>
      <trkpt lat="38.900835" lon="1.40549167">
        <ele>0.0</ele>
        <time>2020-06-22T08:38:02.629Z</time>
      </trkpt>
      <trkpt lat="38.900835" lon="1.40549167">
        <ele>0.0</ele>
        <time>2020-06-22T08:38:03.626Z</time>
      </trkpt>
      <trkpt lat="38.90071167" lon="1.40538">
        <ele>0.0</ele>
        <time>2020-06-22T08:38:04.609Z</time>
      </trkpt>
      <trkpt lat="38.90071167" lon="1.40538">
        <ele>0.0</ele>
        <time>2020-06-22T08:38:05.630Z</time>
      </trkpt>
      <trkpt lat="38.90059167" lon="1.405265">
        <ele>0.0</ele>
        <time>2020-06-22T08:38:06.599Z</time>
      </trkpt>
      <trkpt lat="38.90059167" lon="1.405265">
        <ele>0.0</ele>
        <time>2020-06-22T08:38:07.626Z</time>
      </trkpt>
      <trkpt lat="38.90047833" lon="1.405145">
        <ele>0.0</ele>
        <time>2020-06-22T08:38:08.607Z</time>
      </trkpt>
      <trkpt lat="38.90047833" lon="1.405145">
        <ele>0.0</ele>
        <time>2020-06-22T08:38:09.631Z</time>
      </trkpt>
      <trkpt lat="38.90037167" lon="1.405015">
        <ele>-1.0</ele>
        <time>2020-06-22T08:38:10.620Z</time>
      </trkpt>
      <trkpt lat="38.90037167" lon="1.405015">
        <ele>-1.0</ele>
        <time>2020-06-22T08:38:11.602Z</time>
      </trkpt>
      <trkpt lat="38.90026333" lon="1.40488833">
        <ele>-1.0</ele>
        <time>2020-06-22T08:38:12.633Z</time>
      </trkpt>
      <trkpt lat="38.90020333" lon="1.40483">
        <ele>-1.0</ele>
        <time>2020-06-22T08:38:13.629Z</time>
      </trkpt>
      <trkpt lat="38.90020333" lon="1.40483">
        <ele>-1.0</ele>
        <time>2020-06-22T08:38:14.628Z</time>
      </trkpt>
      <trkpt lat="38.90007833" lon="1.40471333">
        <ele>-1.0</ele>
        <time>2020-06-22T08:38:15.597Z</time>
      </trkpt>
      <trkpt lat="38.90007833" lon="1.40471333">
        <ele>-1.0</ele>
        <time>2020-06-22T08:38:16.627Z</time>
      </trkpt>
      <trkpt lat="38.89995167" lon="1.40459667">
        <ele>-2.0</ele>
        <time>2020-06-22T08:38:17.632Z</time>
      </trkpt>
      <trkpt lat="38.89989" lon="1.40454167">
        <ele>-2.0</ele>
        <time>2020-06-22T08:38:18.594Z</time>
      </trkpt>
      <trkpt lat="38.89989" lon="1.40454167">
        <ele>-2.0</ele>
        <time>2020-06-22T08:38:19.627Z</time>
      </trkpt>
      <trkpt lat="38.89976167" lon="1.40443">
        <ele>-2.0</ele>
        <time>2020-06-22T08:38:20.608Z</time>
      </trkpt>
      <trkpt lat="38.89976167" lon="1.40443">
        <ele>-2.0</ele>
        <time>2020-06-22T08:38:21.634Z</time>
      </trkpt>
      <trkpt lat="38.89963333" lon="1.40431833">
        <ele>-2.0</ele>
        <time>2020-06-22T08:38:22.610Z</time>
      </trkpt>
      <trkpt lat="38.89963333" lon="1.40431833">
        <ele>-2.0</ele>
        <time>2020-06-22T08:38:23.631Z</time>
      </trkpt>
      <trkpt lat="38.899505" lon="1.40421167">
        <ele>-2.0</ele>
        <time>2020-06-22T08:38:24.597Z</time>
      </trkpt>
      <trkpt lat="38.899505" lon="1.40421167">
        <ele>-2.0</ele>
        <time>2020-06-22T08:38:25.627Z</time>
      </trkpt>
      <trkpt lat="38.89937667" lon="1.404105">
        <ele>-2.0</ele>
        <time>2020-06-22T08:38:26.607Z</time>
      </trkpt>
      <trkpt lat="38.89937667" lon="1.404105">
        <ele>-2.0</ele>
        <time>2020-06-22T08:38:27.594Z</time>
      </trkpt>
      <trkpt lat="38.89925" lon="1.40399167">
        <ele>-2.0</ele>
        <time>2020-06-22T08:38:28.632Z</time>
      </trkpt>
      <trkpt lat="38.89925" lon="1.40399167">
        <ele>-2.0</ele>
        <time>2020-06-22T08:38:29.626Z</time>
      </trkpt>
      <trkpt lat="38.899125" lon="1.403885">
        <ele>-2.0</ele>
        <time>2020-06-22T08:38:30.608Z</time>
      </trkpt>
      <trkpt lat="38.899125" lon="1.403885">
        <ele>-2.0</ele>
        <time>2020-06-22T08:38:31.630Z</time>
      </trkpt>
      <trkpt lat="38.899" lon="1.40378167">
        <ele>-2.0</ele>
        <time>2020-06-22T08:38:32.604Z</time>
      </trkpt>
      <trkpt lat="38.89893667" lon="1.40372833">
        <ele>-2.0</ele>
        <time>2020-06-22T08:38:33.632Z</time>
      </trkpt>
      <trkpt lat="38.89893667" lon="1.40372833">
        <ele>-2.0</ele>
        <time>2020-06-22T08:38:34.597Z</time>
      </trkpt>
      <trkpt lat="38.89881" lon="1.40362167">
        <ele>-2.0</ele>
        <time>2020-06-22T08:38:35.623Z</time>
      </trkpt>
      <trkpt lat="38.89874833" lon="1.40356833">
        <ele>-2.0</ele>
        <time>2020-06-22T08:38:36.605Z</time>
      </trkpt>
      <trkpt lat="38.89874833" lon="1.40356833">
        <ele>-2.0</ele>
        <time>2020-06-22T08:38:37.626Z</time>
      </trkpt>
      <trkpt lat="38.89862167" lon="1.40346667">
        <ele>-2.0</ele>
        <time>2020-06-22T08:38:38.633Z</time>
      </trkpt>
      <trkpt lat="38.89862167" lon="1.40346667">
        <ele>-2.0</ele>
        <time>2020-06-22T08:38:39.627Z</time>
      </trkpt>
      <trkpt lat="38.89849833" lon="1.403365">
        <ele>-2.0</ele>
        <time>2020-06-22T08:38:40.609Z</time>
      </trkpt>
      <trkpt lat="38.898435" lon="1.40331333">
        <ele>-2.0</ele>
        <time>2020-06-22T08:38:41.631Z</time>
      </trkpt>
      <trkpt lat="38.898375" lon="1.40326333">
        <ele>-2.0</ele>
        <time>2020-06-22T08:38:42.597Z</time>
      </trkpt>
      <trkpt lat="38.898375" lon="1.40326333">
        <ele>-2.0</ele>
        <time>2020-06-22T08:38:43.627Z</time>
      </trkpt>
      <trkpt lat="38.89825" lon="1.40316167">
        <ele>-2.0</ele>
        <time>2020-06-22T08:38:44.633Z</time>
      </trkpt>
      <trkpt lat="38.89825" lon="1.40316167">
        <ele>-2.0</ele>
        <time>2020-06-22T08:38:45.628Z</time>
      </trkpt>
      <trkpt lat="38.89811667" lon="1.40308833">
        <ele>-2.0</ele>
        <time>2020-06-22T08:38:46.633Z</time>
      </trkpt>
      <trkpt lat="38.89811667" lon="1.40308833">
        <ele>-2.0</ele>
        <time>2020-06-22T08:38:47.626Z</time>
      </trkpt>
      <trkpt lat="38.89797667" lon="1.40307167">
        <ele>-2.0</ele>
        <time>2020-06-22T08:38:48.608Z</time>
      </trkpt>
      <trkpt lat="38.89797667" lon="1.40307167">
        <ele>-2.0</ele>
        <time>2020-06-22T08:38:49.630Z</time>
      </trkpt>
      <trkpt lat="38.897835" lon="1.40306167">
        <ele>-3.0</ele>
        <time>2020-06-22T08:38:50.610Z</time>
      </trkpt>
      <trkpt lat="38.897835" lon="1.40306167">
        <ele>-3.0</ele>
        <time>2020-06-22T08:38:51.594Z</time>
      </trkpt>
      <trkpt lat="38.897705" lon="1.40299">
        <ele>-4.0</ele>
        <time>2020-06-22T08:38:52.631Z</time>
      </trkpt>
      <trkpt lat="38.897705" lon="1.40299">
        <ele>-4.0</ele>
        <time>2020-06-22T08:38:53.627Z</time>
      </trkpt>
      <trkpt lat="38.89760667" lon="1.40285667">
        <ele>-5.0</ele>
        <time>2020-06-22T08:38:54.607Z</time>
      </trkpt>
      <trkpt lat="38.89760667" lon="1.40285667">
        <ele>-5.0</ele>
        <time>2020-06-22T08:38:55.628Z</time>
      </trkpt>
      <trkpt lat="38.89753667" lon="1.40269833">
        <ele>-4.0</ele>
        <time>2020-06-22T08:38:56.617Z</time>
      </trkpt>
      <trkpt lat="38.89753667" lon="1.40269833">
        <ele>-4.0</ele>
        <time>2020-06-22T08:38:57.608Z</time>
      </trkpt>
      <trkpt lat="38.89742833" lon="1.40257833">
        <ele>-4.0</ele>
        <time>2020-06-22T08:38:58.631Z</time>
      </trkpt>
      <trkpt lat="38.89742833" lon="1.40257833">
        <ele>-4.0</ele>
        <time>2020-06-22T08:38:59.627Z</time>
      </trkpt>
      <trkpt lat="38.897305" lon="1.40247667">
        <ele>-4.0</ele>
        <time>2020-06-22T08:39:00.621Z</time>
      </trkpt>
      <trkpt lat="38.897305" lon="1.40247667">
        <ele>-4.0</ele>
        <time>2020-06-22T08:39:01.604Z</time>
      </trkpt>
      <trkpt lat="38.89718167" lon="1.402375">
        <ele>-4.0</ele>
        <time>2020-06-22T08:39:02.631Z</time>
      </trkpt>
      <trkpt lat="38.897125" lon="1.40232833">
        <ele>-4.0</ele>
        <time>2020-06-22T08:39:03.594Z</time>
      </trkpt>
      <trkpt lat="38.897125" lon="1.40232833">
        <ele>-4.0</ele>
        <time>2020-06-22T08:39:04.628Z</time>
      </trkpt>
      <trkpt lat="38.89701833" lon="1.402235">
        <ele>-5.0</ele>
        <time>2020-06-22T08:39:05.632Z</time>
      </trkpt>
      <trkpt lat="38.89699333" lon="1.40217667">
        <ele>-5.0</ele>
        <time>2020-06-22T08:39:06.596Z</time>
      </trkpt>
      <trkpt lat="38.89699333" lon="1.40217667">
        <ele>-5.0</ele>
        <time>2020-06-22T08:39:07.628Z</time>
      </trkpt>
      <trkpt lat="38.896985" lon="1.40204">
        <ele>-4.0</ele>
        <time>2020-06-22T08:39:08.594Z</time>
      </trkpt>
      <trkpt lat="38.896985" lon="1.40204">
        <ele>-4.0</ele>
        <time>2020-06-22T08:39:09.627Z</time>
      </trkpt>
      <trkpt lat="38.89696167" lon="1.40190833">
        <ele>-2.0</ele>
        <time>2020-06-22T08:39:10.598Z</time>
      </trkpt>
      <trkpt lat="38.89693" lon="1.40184167">
        <ele>-1.0</ele>
        <time>2020-06-22T08:39:11.632Z</time>
      </trkpt>
      <trkpt lat="38.89689333" lon="1.40178167">
        <ele>-1.0</ele>
        <time>2020-06-22T08:39:12.594Z</time>
      </trkpt>
      <trkpt lat="38.89689333" lon="1.40178167">
        <ele>-1.0</ele>
        <time>2020-06-22T08:39:13.626Z</time>
      </trkpt>
      <trkpt lat="38.89679667" lon="1.40169167">
        <ele>0.0</ele>
        <time>2020-06-22T08:39:14.607Z</time>
      </trkpt>
      <trkpt lat="38.89679667" lon="1.40169167">
        <ele>0.0</ele>
        <time>2020-06-22T08:39:15.629Z</time>
      </trkpt>
      <trkpt lat="38.896695" lon="1.401605">
        <ele>-1.0</ele>
        <time>2020-06-22T08:39:16.630Z</time>
      </trkpt>
      <trkpt lat="38.896695" lon="1.401605">
        <ele>-1.0</ele>
        <time>2020-06-22T08:39:17.627Z</time>
      </trkpt>
      <trkpt lat="38.89658667" lon="1.40152167">
        <ele>-1.0</ele>
        <time>2020-06-22T08:39:18.607Z</time>
      </trkpt>
      <trkpt lat="38.89658667" lon="1.40152167">
        <ele>-1.0</ele>
        <time>2020-06-22T08:39:19.628Z</time>
      </trkpt>
      <trkpt lat="38.896475" lon="1.40143667">
        <ele>0.0</ele>
        <time>2020-06-22T08:39:20.611Z</time>
      </trkpt>
      <trkpt lat="38.89641833" lon="1.40139333">
        <ele>0.0</ele>
        <time>2020-06-22T08:39:21.594Z</time>
      </trkpt>
      <trkpt lat="38.89641833" lon="1.40139333">
        <ele>0.0</ele>
        <time>2020-06-22T08:39:22.629Z</time>
      </trkpt>
      <trkpt lat="38.89630167" lon="1.40130667">
        <ele>0.0</ele>
        <time>2020-06-22T08:39:23.633Z</time>
      </trkpt>
      <trkpt lat="38.89624" lon="1.40126667">
        <ele>0.0</ele>
        <time>2020-06-22T08:39:24.595Z</time>
      </trkpt>
      <trkpt lat="38.89624" lon="1.40126667">
        <ele>0.0</ele>
        <time>2020-06-22T08:39:25.628Z</time>
      </trkpt>
      <trkpt lat="38.896115" lon="1.40118833">
        <ele>0.0</ele>
        <time>2020-06-22T08:39:26.633Z</time>
      </trkpt>
      <trkpt lat="38.896115" lon="1.40118833">
        <ele>0.0</ele>
        <time>2020-06-22T08:39:27.628Z</time>
      </trkpt>
      <trkpt lat="38.89598833" lon="1.40111667">
        <ele>0.0</ele>
        <time>2020-06-22T08:39:28.633Z</time>
      </trkpt>
      <trkpt lat="38.89598833" lon="1.40111667">
        <ele>0.0</ele>
        <time>2020-06-22T08:39:29.628Z</time>
      </trkpt>
      <trkpt lat="38.89586" lon="1.40104667">
        <ele>0.0</ele>
        <time>2020-06-22T08:39:30.610Z</time>
      </trkpt>
      <trkpt lat="38.89586" lon="1.40104667">
        <ele>0.0</ele>
        <time>2020-06-22T08:39:31.631Z</time>
      </trkpt>
      <trkpt lat="38.89573167" lon="1.40097833">
        <ele>0.0</ele>
        <time>2020-06-22T08:39:32.602Z</time>
      </trkpt>
      <trkpt lat="38.89573167" lon="1.40097833">
        <ele>0.0</ele>
        <time>2020-06-22T08:39:33.598Z</time>
      </trkpt>
      <trkpt lat="38.89560167" lon="1.40091833">
        <ele>0.0</ele>
        <time>2020-06-22T08:39:34.605Z</time>
      </trkpt>
      <trkpt lat="38.89553833" lon="1.40088833">
        <ele>0.0</ele>
        <time>2020-06-22T08:39:35.597Z</time>
      </trkpt>
      <trkpt lat="38.895475" lon="1.400855">
        <ele>0.0</ele>
        <time>2020-06-22T08:39:36.604Z</time>
      </trkpt>
      <trkpt lat="38.895475" lon="1.400855">
        <ele>0.0</ele>
        <time>2020-06-22T08:39:37.632Z</time>
      </trkpt>
      <trkpt lat="38.89536833" lon="1.40075">
        <ele>-1.0</ele>
        <time>2020-06-22T08:39:38.597Z</time>
      </trkpt>
      <trkpt lat="38.89536833" lon="1.40075">
        <ele>-1.0</ele>
        <time>2020-06-22T08:39:39.629Z</time>
      </trkpt>
      <trkpt lat="38.8953" lon="1.40060833">
        <ele>-1.0</ele>
        <time>2020-06-22T08:39:40.604Z</time>
      </trkpt>
      <trkpt lat="38.89528167" lon="1.40053833">
        <ele>-2.0</ele>
        <time>2020-06-22T08:39:41.598Z</time>
      </trkpt>
      <trkpt lat="38.89526333" lon="1.40047667">
        <ele>-1.0</ele>
        <time>2020-06-22T08:39:42.596Z</time>
      </trkpt>
      <trkpt lat="38.89526333" lon="1.40047667">
        <ele>-1.0</ele>
        <time>2020-06-22T08:39:43.632Z</time>
      </trkpt>
      <trkpt lat="38.89520167" lon="1.40036833">
        <ele>-1.0</ele>
        <time>2020-06-22T08:39:44.595Z</time>
      </trkpt>
      <trkpt lat="38.89520167" lon="1.40036833">
        <ele>-1.0</ele>
        <time>2020-06-22T08:39:45.630Z</time>
      </trkpt>
      <trkpt lat="38.89514167" lon="1.40024333">
        <ele>-1.0</ele>
        <time>2020-06-22T08:39:46.598Z</time>
      </trkpt>
      <trkpt lat="38.89511167" lon="1.40017667">
        <ele>-1.0</ele>
        <time>2020-06-22T08:39:47.632Z</time>
      </trkpt>
      <trkpt lat="38.89511167" lon="1.40017667">
        <ele>-1.0</ele>
        <time>2020-06-22T08:39:48.629Z</time>
      </trkpt>
      <trkpt lat="38.89503833" lon="1.40007">
        <ele>-1.0</ele>
        <time>2020-06-22T08:39:49.595Z</time>
      </trkpt>
      <trkpt lat="38.89503833" lon="1.40007">
        <ele>-1.0</ele>
        <time>2020-06-22T08:39:50.629Z</time>
      </trkpt>
      <trkpt lat="38.89495" lon="1.399995">
        <ele>-1.0</ele>
        <time>2020-06-22T08:39:51.594Z</time>
      </trkpt>
      <trkpt lat="38.89491167" lon="1.39995833">
        <ele>-2.0</ele>
        <time>2020-06-22T08:39:52.633Z</time>
      </trkpt>
      <trkpt lat="38.89491167" lon="1.39995833">
        <ele>-2.0</ele>
        <time>2020-06-22T08:39:53.628Z</time>
      </trkpt>
      <trkpt lat="38.89485833" lon="1.39985333">
        <ele>-2.0</ele>
        <time>2020-06-22T08:39:54.595Z</time>
      </trkpt>
      <trkpt lat="38.89485833" lon="1.39985333">
        <ele>-2.0</ele>
        <time>2020-06-22T08:39:55.630Z</time>
      </trkpt>
      <trkpt lat="38.89482167" lon="1.39972667">
        <ele>-2.0</ele>
        <time>2020-06-22T08:39:56.632Z</time>
      </trkpt>
      <trkpt lat="38.89482167" lon="1.39972667">
        <ele>-2.0</ele>
        <time>2020-06-22T08:39:57.629Z</time>
      </trkpt>
      <trkpt lat="38.89482333" lon="1.399605">
        <ele>-3.0</ele>
        <time>2020-06-22T08:39:58.594Z</time>
      </trkpt>
      <trkpt lat="38.894855" lon="1.39954833">
        <ele>-3.0</ele>
        <time>2020-06-22T08:39:59.596Z</time>
      </trkpt>
      <trkpt lat="38.894855" lon="1.39954833">
        <ele>-3.0</ele>
        <time>2020-06-22T08:40:00.596Z</time>
      </trkpt>
      <trkpt lat="38.89493333" lon="1.39944">
        <ele>-3.0</ele>
        <time>2020-06-22T08:40:01.617Z</time>
      </trkpt>
      <trkpt lat="38.89493333" lon="1.39944">
        <ele>-3.0</ele>
        <time>2020-06-22T08:40:02.634Z</time>
      </trkpt>
      <trkpt lat="38.89503167" lon="1.39936333">
        <ele>-2.0</ele>
        <time>2020-06-22T08:40:03.607Z</time>
      </trkpt>
      <trkpt lat="38.89503167" lon="1.39936333">
        <ele>-2.0</ele>
        <time>2020-06-22T08:40:04.617Z</time>
      </trkpt>
      <trkpt lat="38.89513333" lon="1.3993">
        <ele>-1.0</ele>
        <time>2020-06-22T08:40:05.605Z</time>
      </trkpt>
      <trkpt lat="38.89518333" lon="1.39926833">
        <ele>0.0</ele>
        <time>2020-06-22T08:40:06.596Z</time>
      </trkpt>
      <trkpt lat="38.89523667" lon="1.39924167">
        <ele>0.0</ele>
        <time>2020-06-22T08:40:07.594Z</time>
      </trkpt>
      <trkpt lat="38.89523667" lon="1.39924167">
        <ele>0.0</ele>
        <time>2020-06-22T08:40:08.598Z</time>
      </trkpt>
      <trkpt lat="38.89534167" lon="1.399185">
        <ele>-1.0</ele>
        <time>2020-06-22T08:40:09.633Z</time>
      </trkpt>
      <trkpt lat="38.89534167" lon="1.399185">
        <ele>-1.0</ele>
        <time>2020-06-22T08:40:10.607Z</time>
      </trkpt>
      <trkpt lat="38.895445" lon="1.399125">
        <ele>-1.0</ele>
        <time>2020-06-22T08:40:11.594Z</time>
      </trkpt>
      <trkpt lat="38.895495" lon="1.399095">
        <ele>0.0</ele>
        <time>2020-06-22T08:40:12.600Z</time>
      </trkpt>
      <trkpt lat="38.895495" lon="1.399095">
        <ele>0.0</ele>
        <time>2020-06-22T08:40:13.630Z</time>
      </trkpt>
      <trkpt lat="38.89559833" lon="1.39903667">
        <ele>0.0</ele>
        <time>2020-06-22T08:40:14.596Z</time>
      </trkpt>
      <trkpt lat="38.89559833" lon="1.39903667">
        <ele>0.0</ele>
        <time>2020-06-22T08:40:15.632Z</time>
      </trkpt>
      <trkpt lat="38.89570167" lon="1.39898">
        <ele>0.0</ele>
        <time>2020-06-22T08:40:16.595Z</time>
      </trkpt>
      <trkpt lat="38.89570167" lon="1.39898">
        <ele>0.0</ele>
        <time>2020-06-22T08:40:17.628Z</time>
      </trkpt>
      <trkpt lat="38.89580667" lon="1.39891333">
        <ele>1.0</ele>
        <time>2020-06-22T08:40:18.594Z</time>
      </trkpt>
      <trkpt lat="38.89580667" lon="1.39891333">
        <ele>1.0</ele>
        <time>2020-06-22T08:40:19.594Z</time>
      </trkpt>
      <trkpt lat="38.89591167" lon="1.39884667">
        <ele>1.0</ele>
        <time>2020-06-22T08:40:20.606Z</time>
      </trkpt>
      <trkpt lat="38.89591167" lon="1.39884667">
        <ele>1.0</ele>
        <time>2020-06-22T08:40:21.609Z</time>
      </trkpt>
      <trkpt lat="38.89601167" lon="1.39878167">
        <ele>0.0</ele>
        <time>2020-06-22T08:40:22.607Z</time>
      </trkpt>
      <trkpt lat="38.89601167" lon="1.39878167">
        <ele>0.0</ele>
        <time>2020-06-22T08:40:23.615Z</time>
      </trkpt>
      <trkpt lat="38.89610667" lon="1.39871167">
        <ele>1.0</ele>
        <time>2020-06-22T08:40:24.624Z</time>
      </trkpt>
      <trkpt lat="38.89610667" lon="1.39871167">
        <ele>1.0</ele>
        <time>2020-06-22T08:40:25.631Z</time>
      </trkpt>
      <trkpt lat="38.89620167" lon="1.39865">
        <ele>1.0</ele>
        <time>2020-06-22T08:40:26.604Z</time>
      </trkpt>
      <trkpt lat="38.89620167" lon="1.39865">
        <ele>1.0</ele>
        <time>2020-06-22T08:40:27.601Z</time>
      </trkpt>
      <trkpt lat="38.89629833" lon="1.39858833">
        <ele>1.0</ele>
        <time>2020-06-22T08:40:28.609Z</time>
      </trkpt>
      <trkpt lat="38.89629833" lon="1.39858833">
        <ele>1.0</ele>
        <time>2020-06-22T08:40:29.598Z</time>
      </trkpt>
      <trkpt lat="38.89639667" lon="1.39853333">
        <ele>2.0</ele>
        <time>2020-06-22T08:40:30.621Z</time>
      </trkpt>
      <trkpt lat="38.89644667" lon="1.39851">
        <ele>2.0</ele>
        <time>2020-06-22T08:40:31.596Z</time>
      </trkpt>
      <trkpt lat="38.89644667" lon="1.39851">
        <ele>2.0</ele>
        <time>2020-06-22T08:40:32.607Z</time>
      </trkpt>
      <trkpt lat="38.89655333" lon="1.39846667">
        <ele>3.0</ele>
        <time>2020-06-22T08:40:33.619Z</time>
      </trkpt>
      <trkpt lat="38.896605" lon="1.398445">
        <ele>3.0</ele>
        <time>2020-06-22T08:40:34.608Z</time>
      </trkpt>
      <trkpt lat="38.896605" lon="1.398445">
        <ele>3.0</ele>
        <time>2020-06-22T08:40:35.602Z</time>
      </trkpt>
      <trkpt lat="38.89671167" lon="1.39840167">
        <ele>4.0</ele>
        <time>2020-06-22T08:40:36.612Z</time>
      </trkpt>
      <trkpt lat="38.89671167" lon="1.39840167">
        <ele>4.0</ele>
        <time>2020-06-22T08:40:37.603Z</time>
      </trkpt>
      <trkpt lat="38.89681833" lon="1.398355">
        <ele>4.0</ele>
        <time>2020-06-22T08:40:38.606Z</time>
      </trkpt>
      <trkpt lat="38.89681833" lon="1.398355">
        <ele>4.0</ele>
        <time>2020-06-22T08:40:39.604Z</time>
      </trkpt>
      <trkpt lat="38.89692333" lon="1.39831167">
        <ele>5.0</ele>
        <time>2020-06-22T08:40:40.627Z</time>
      </trkpt>
      <trkpt lat="38.89697667" lon="1.39829">
        <ele>5.0</ele>
        <time>2020-06-22T08:40:41.594Z</time>
      </trkpt>
      <trkpt lat="38.89697667" lon="1.39829">
        <ele>5.0</ele>
        <time>2020-06-22T08:40:42.601Z</time>
      </trkpt>
      <trkpt lat="38.89708667" lon="1.39824833">
        <ele>5.0</ele>
        <time>2020-06-22T08:40:43.611Z</time>
      </trkpt>
      <trkpt lat="38.89708667" lon="1.39824833">
        <ele>5.0</ele>
        <time>2020-06-22T08:40:44.622Z</time>
      </trkpt>
      <trkpt lat="38.897195" lon="1.39820667">
        <ele>5.0</ele>
        <time>2020-06-22T08:40:45.596Z</time>
      </trkpt>
      <trkpt lat="38.89724833" lon="1.398185">
        <ele>5.0</ele>
        <time>2020-06-22T08:40:46.622Z</time>
      </trkpt>
      <trkpt lat="38.89724833" lon="1.398185">
        <ele>5.0</ele>
        <time>2020-06-22T08:40:47.627Z</time>
      </trkpt>
      <trkpt lat="38.89735667" lon="1.39814167">
        <ele>6.0</ele>
        <time>2020-06-22T08:40:48.616Z</time>
      </trkpt>
      <trkpt lat="38.89735667" lon="1.39814167">
        <ele>6.0</ele>
        <time>2020-06-22T08:40:49.628Z</time>
      </trkpt>
      <trkpt lat="38.897465" lon="1.39809667">
        <ele>6.0</ele>
        <time>2020-06-22T08:40:50.626Z</time>
      </trkpt>
      <trkpt lat="38.89751833" lon="1.39807333">
        <ele>6.0</ele>
        <time>2020-06-22T08:40:51.610Z</time>
      </trkpt>
      <trkpt lat="38.89756667" lon="1.39804667">
        <ele>7.0</ele>
        <time>2020-06-22T08:40:52.616Z</time>
      </trkpt>
      <trkpt lat="38.89756667" lon="1.39804667">
        <ele>7.0</ele>
        <time>2020-06-22T08:40:53.627Z</time>
      </trkpt>
      <trkpt lat="38.89766833" lon="1.398">
        <ele>8.0</ele>
        <time>2020-06-22T08:40:54.614Z</time>
      </trkpt>
      <trkpt lat="38.89766833" lon="1.398">
        <ele>8.0</ele>
        <time>2020-06-22T08:40:55.606Z</time>
      </trkpt>
      <trkpt lat="38.89777" lon="1.39794833">
        <ele>9.0</ele>
        <time>2020-06-22T08:40:56.611Z</time>
      </trkpt>
      <trkpt lat="38.89782" lon="1.397925">
        <ele>9.0</ele>
        <time>2020-06-22T08:40:57.622Z</time>
      </trkpt>
      <trkpt lat="38.89782" lon="1.397925">
        <ele>9.0</ele>
        <time>2020-06-22T08:40:58.627Z</time>
      </trkpt>
      <trkpt lat="38.89792" lon="1.39787167">
        <ele>9.0</ele>
        <time>2020-06-22T08:40:59.615Z</time>
      </trkpt>
      <trkpt lat="38.89792" lon="1.39787167">
        <ele>9.0</ele>
        <time>2020-06-22T08:41:00.612Z</time>
      </trkpt>
      <trkpt lat="38.89802" lon="1.39781167">
        <ele>10.0</ele>
        <time>2020-06-22T08:41:01.598Z</time>
      </trkpt>
      <trkpt lat="38.89807" lon="1.39778">
        <ele>10.0</ele>
        <time>2020-06-22T08:41:02.601Z</time>
      </trkpt>
      <trkpt lat="38.89807" lon="1.39778">
        <ele>10.0</ele>
        <time>2020-06-22T08:41:03.632Z</time>
      </trkpt>
      <trkpt lat="38.89816833" lon="1.39771333">
        <ele>10.0</ele>
        <time>2020-06-22T08:41:04.610Z</time>
      </trkpt>
      <trkpt lat="38.89816833" lon="1.39771333">
        <ele>10.0</ele>
        <time>2020-06-22T08:41:05.600Z</time>
      </trkpt>
      <trkpt lat="38.89826667" lon="1.39764833">
        <ele>11.0</ele>
        <time>2020-06-22T08:41:06.615Z</time>
      </trkpt>
      <trkpt lat="38.89826667" lon="1.39764833">
        <ele>11.0</ele>
        <time>2020-06-22T08:41:07.627Z</time>
      </trkpt>
      <trkpt lat="38.89836167" lon="1.39758833">
        <ele>11.0</ele>
        <time>2020-06-22T08:41:08.595Z</time>
      </trkpt>
      <trkpt lat="38.89840833" lon="1.39755833">
        <ele>12.0</ele>
        <time>2020-06-22T08:41:09.623Z</time>
      </trkpt>
      <trkpt lat="38.89840833" lon="1.39755833">
        <ele>12.0</ele>
        <time>2020-06-22T08:41:10.633Z</time>
      </trkpt>
      <trkpt lat="38.89850333" lon="1.39749667">
        <ele>12.0</ele>
        <time>2020-06-22T08:41:11.599Z</time>
      </trkpt>
      <trkpt lat="38.89855333" lon="1.39746667">
        <ele>12.0</ele>
        <time>2020-06-22T08:41:12.614Z</time>
      </trkpt>
      <trkpt lat="38.89855333" lon="1.39746667">
        <ele>12.0</ele>
        <time>2020-06-22T08:41:13.608Z</time>
      </trkpt>
      <trkpt lat="38.89865167" lon="1.39740167">
        <ele>13.0</ele>
        <time>2020-06-22T08:41:14.613Z</time>
      </trkpt>
      <trkpt lat="38.89865167" lon="1.39740167">
        <ele>13.0</ele>
        <time>2020-06-22T08:41:15.627Z</time>
      </trkpt>
      <trkpt lat="38.89875" lon="1.397335">
        <ele>14.0</ele>
        <time>2020-06-22T08:41:16.600Z</time>
      </trkpt>
      <trkpt lat="38.89879833" lon="1.397305">
        <ele>14.0</ele>
        <time>2020-06-22T08:41:17.610Z</time>
      </trkpt>
      <trkpt lat="38.89879833" lon="1.397305">
        <ele>14.0</ele>
        <time>2020-06-22T08:41:18.602Z</time>
      </trkpt>
      <trkpt lat="38.89889833" lon="1.397245">
        <ele>15.0</ele>
        <time>2020-06-22T08:41:19.603Z</time>
      </trkpt>
      <trkpt lat="38.89889833" lon="1.397245">
        <ele>15.0</ele>
        <time>2020-06-22T08:41:20.600Z</time>
      </trkpt>
      <trkpt lat="38.89899333" lon="1.39718">
        <ele>15.0</ele>
        <time>2020-06-22T08:41:21.617Z</time>
      </trkpt>
      <trkpt lat="38.89899333" lon="1.39718">
        <ele>15.0</ele>
        <time>2020-06-22T08:41:22.603Z</time>
      </trkpt>
      <trkpt lat="38.89909" lon="1.39711833">
        <ele>16.0</ele>
        <time>2020-06-22T08:41:23.606Z</time>
      </trkpt>
      <trkpt lat="38.89913833" lon="1.39708667">
        <ele>17.0</ele>
        <time>2020-06-22T08:41:24.617Z</time>
      </trkpt>
      <trkpt lat="38.89913833" lon="1.39708667">
        <ele>17.0</ele>
        <time>2020-06-22T08:41:25.627Z</time>
      </trkpt>
      <trkpt lat="38.899235" lon="1.39702333">
        <ele>17.0</ele>
        <time>2020-06-22T08:41:26.621Z</time>
      </trkpt>
      <trkpt lat="38.899235" lon="1.39702333">
        <ele>17.0</ele>
        <time>2020-06-22T08:41:27.628Z</time>
      </trkpt>
      <trkpt lat="38.89933167" lon="1.39696">
        <ele>18.0</ele>
        <time>2020-06-22T08:41:28.611Z</time>
      </trkpt>
      <trkpt lat="38.89933167" lon="1.39696">
        <ele>18.0</ele>
        <time>2020-06-22T08:41:29.601Z</time>
      </trkpt>
      <trkpt lat="38.89943167" lon="1.39689667">
        <ele>18.0</ele>
        <time>2020-06-22T08:41:30.614Z</time>
      </trkpt>
      <trkpt lat="38.89943167" lon="1.39689667">
        <ele>18.0</ele>
        <time>2020-06-22T08:41:31.604Z</time>
      </trkpt>
      <trkpt lat="38.89953333" lon="1.39683667">
        <ele>18.0</ele>
        <time>2020-06-22T08:41:32.614Z</time>
      </trkpt>
      <trkpt lat="38.89953333" lon="1.39683667">
        <ele>18.0</ele>
        <time>2020-06-22T08:41:33.606Z</time>
      </trkpt>
      <trkpt lat="38.89962833" lon="1.396765">
        <ele>18.0</ele>
        <time>2020-06-22T08:41:34.610Z</time>
      </trkpt>
      <trkpt lat="38.89962833" lon="1.396765">
        <ele>18.0</ele>
        <time>2020-06-22T08:41:35.601Z</time>
      </trkpt>
      <trkpt lat="38.89973167" lon="1.39670833">
        <ele>19.0</ele>
        <time>2020-06-22T08:41:36.612Z</time>
      </trkpt>
      <trkpt lat="38.89973167" lon="1.39670833">
        <ele>19.0</ele>
        <time>2020-06-22T08:41:37.604Z</time>
      </trkpt>
      <trkpt lat="38.89984" lon="1.39666">
        <ele>19.0</ele>
        <time>2020-06-22T08:41:38.613Z</time>
      </trkpt>
      <trkpt lat="38.89984" lon="1.39666">
        <ele>19.0</ele>
        <time>2020-06-22T08:41:39.603Z</time>
      </trkpt>
      <trkpt lat="38.89994667" lon="1.396605">
        <ele>19.0</ele>
        <time>2020-06-22T08:41:40.630Z</time>
      </trkpt>
      <trkpt lat="38.9" lon="1.39657667">
        <ele>19.0</ele>
        <time>2020-06-22T08:41:41.606Z</time>
      </trkpt>
      <trkpt lat="38.90005333" lon="1.39655167">
        <ele>19.0</ele>
        <time>2020-06-22T08:41:42.614Z</time>
      </trkpt>
      <trkpt lat="38.90005333" lon="1.39655167">
        <ele>19.0</ele>
        <time>2020-06-22T08:41:43.603Z</time>
      </trkpt>
      <trkpt lat="38.90015833" lon="1.3965">
        <ele>20.0</ele>
        <time>2020-06-22T08:41:44.626Z</time>
      </trkpt>
      <trkpt lat="38.90015833" lon="1.3965">
        <ele>20.0</ele>
        <time>2020-06-22T08:41:45.609Z</time>
      </trkpt>
      <trkpt lat="38.90026333" lon="1.39645833">
        <ele>20.0</ele>
        <time>2020-06-22T08:41:46.619Z</time>
      </trkpt>
      <trkpt lat="38.900315" lon="1.39644333">
        <ele>20.0</ele>
        <time>2020-06-22T08:41:47.616Z</time>
      </trkpt>
      <trkpt lat="38.900315" lon="1.39644333">
        <ele>20.0</ele>
        <time>2020-06-22T08:41:48.608Z</time>
      </trkpt>
      <trkpt lat="38.90042333" lon="1.39644">
        <ele>20.0</ele>
        <time>2020-06-22T08:41:49.610Z</time>
      </trkpt>
      <trkpt lat="38.90042333" lon="1.39644">
        <ele>20.0</ele>
        <time>2020-06-22T08:41:50.600Z</time>
      </trkpt>
      <trkpt lat="38.90053" lon="1.396445">
        <ele>21.0</ele>
        <time>2020-06-22T08:41:51.615Z</time>
      </trkpt>
      <trkpt lat="38.90053" lon="1.396445">
        <ele>21.0</ele>
        <time>2020-06-22T08:41:52.606Z</time>
      </trkpt>
      <trkpt lat="38.90064" lon="1.39646">
        <ele>22.0</ele>
        <time>2020-06-22T08:41:53.616Z</time>
      </trkpt>
      <trkpt lat="38.900695" lon="1.39646333">
        <ele>22.0</ele>
        <time>2020-06-22T08:41:54.607Z</time>
      </trkpt>
      <trkpt lat="38.900695" lon="1.39646333">
        <ele>22.0</ele>
        <time>2020-06-22T08:41:55.628Z</time>
      </trkpt>
      <trkpt lat="38.90080333" lon="1.39647">
        <ele>23.0</ele>
        <time>2020-06-22T08:41:56.602Z</time>
      </trkpt>
      <trkpt lat="38.90080333" lon="1.39647">
        <ele>23.0</ele>
        <time>2020-06-22T08:41:57.628Z</time>
      </trkpt>
      <trkpt lat="38.90090833" lon="1.39646333">
        <ele>23.0</ele>
        <time>2020-06-22T08:41:58.604Z</time>
      </trkpt>
      <trkpt lat="38.90090833" lon="1.39646333">
        <ele>23.0</ele>
        <time>2020-06-22T08:41:59.630Z</time>
      </trkpt>
      <trkpt lat="38.90101333" lon="1.39645333">
        <ele>23.0</ele>
        <time>2020-06-22T08:42:00.603Z</time>
      </trkpt>
      <trkpt lat="38.901065" lon="1.39644667">
        <ele>23.0</ele>
        <time>2020-06-22T08:42:01.615Z</time>
      </trkpt>
      <trkpt lat="38.901065" lon="1.39644667">
        <ele>23.0</ele>
        <time>2020-06-22T08:42:02.623Z</time>
      </trkpt>
      <trkpt lat="38.90116667" lon="1.39643333">
        <ele>24.0</ele>
        <time>2020-06-22T08:42:03.618Z</time>
      </trkpt>
      <trkpt lat="38.90116667" lon="1.39643333">
        <ele>24.0</ele>
        <time>2020-06-22T08:42:04.624Z</time>
      </trkpt>
      <trkpt lat="38.90126167" lon="1.39642333">
        <ele>24.0</ele>
        <time>2020-06-22T08:42:05.598Z</time>
      </trkpt>
      <trkpt lat="38.901305" lon="1.39643">
        <ele>24.0</ele>
        <time>2020-06-22T08:42:06.617Z</time>
      </trkpt>
      <trkpt lat="38.901305" lon="1.39643">
        <ele>24.0</ele>
        <time>2020-06-22T08:42:07.601Z</time>
      </trkpt>
      <trkpt lat="38.90136333" lon="1.396465">
        <ele>24.0</ele>
        <time>2020-06-22T08:42:08.624Z</time>
      </trkpt>
      <trkpt lat="38.90136333" lon="1.396465">
        <ele>24.0</ele>
        <time>2020-06-22T08:42:09.601Z</time>
      </trkpt>
      <trkpt lat="38.90143167" lon="1.39649333">
        <ele>24.0</ele>
        <time>2020-06-22T08:42:10.600Z</time>
      </trkpt>
      <trkpt lat="38.90143167" lon="1.39649333">
        <ele>24.0</ele>
        <time>2020-06-22T08:42:11.628Z</time>
      </trkpt>
      <trkpt lat="38.90153167" lon="1.39650833">
        <ele>24.0</ele>
        <time>2020-06-22T08:42:12.606Z</time>
      </trkpt>
      <trkpt lat="38.90158667" lon="1.39650667">
        <ele>24.0</ele>
        <time>2020-06-22T08:42:13.626Z</time>
      </trkpt>
      <trkpt lat="38.90158667" lon="1.39650667">
        <ele>24.0</ele>
        <time>2020-06-22T08:42:14.605Z</time>
      </trkpt>
      <trkpt lat="38.901695" lon="1.39645833">
        <ele>24.0</ele>
        <time>2020-06-22T08:42:15.622Z</time>
      </trkpt>
      <trkpt lat="38.901695" lon="1.39645833">
        <ele>24.0</ele>
        <time>2020-06-22T08:42:16.603Z</time>
      </trkpt>
      <trkpt lat="38.90175167" lon="1.39634333">
        <ele>23.0</ele>
        <time>2020-06-22T08:42:17.616Z</time>
      </trkpt>
      <trkpt lat="38.90176" lon="1.39627667">
        <ele>24.0</ele>
        <time>2020-06-22T08:42:18.626Z</time>
      </trkpt>
      <trkpt lat="38.90176" lon="1.39627667">
        <ele>24.0</ele>
        <time>2020-06-22T08:42:19.605Z</time>
      </trkpt>
      <trkpt lat="38.90172833" lon="1.39614667">
        <ele>25.0</ele>
        <time>2020-06-22T08:42:20.614Z</time>
      </trkpt>
      <trkpt lat="38.90172833" lon="1.39614667">
        <ele>25.0</ele>
        <time>2020-06-22T08:42:21.594Z</time>
      </trkpt>
      <trkpt lat="38.90165833" lon="1.39604167">
        <ele>26.0</ele>
        <time>2020-06-22T08:42:22.616Z</time>
      </trkpt>
      <trkpt lat="38.90165833" lon="1.39604167">
        <ele>26.0</ele>
        <time>2020-06-22T08:42:23.596Z</time>
      </trkpt>
      <trkpt lat="38.90157667" lon="1.39593667">
        <ele>26.0</ele>
        <time>2020-06-22T08:42:24.617Z</time>
      </trkpt>
      <trkpt lat="38.90154167" lon="1.39587833">
        <ele>25.0</ele>
        <time>2020-06-22T08:42:25.626Z</time>
      </trkpt>
      <trkpt lat="38.90151833" lon="1.39581">
        <ele>24.0</ele>
        <time>2020-06-22T08:42:26.627Z</time>
      </trkpt>
      <trkpt lat="38.90151833" lon="1.39581">
        <ele>24.0</ele>
        <time>2020-06-22T08:42:27.605Z</time>
      </trkpt>
      <trkpt lat="38.90148333" lon="1.39566667">
        <ele>24.0</ele>
        <time>2020-06-22T08:42:28.609Z</time>
      </trkpt>
      <trkpt lat="38.901465" lon="1.39559333">
        <ele>24.0</ele>
        <time>2020-06-22T08:42:29.616Z</time>
      </trkpt>
      <trkpt lat="38.901465" lon="1.39559333">
        <ele>24.0</ele>
        <time>2020-06-22T08:42:30.599Z</time>
      </trkpt>
      <trkpt lat="38.90142167" lon="1.39545">
        <ele>24.0</ele>
        <time>2020-06-22T08:42:31.616Z</time>
      </trkpt>
      <trkpt lat="38.90142167" lon="1.39545">
        <ele>24.0</ele>
        <time>2020-06-22T08:42:32.602Z</time>
      </trkpt>
      <trkpt lat="38.90139" lon="1.39530333">
        <ele>23.0</ele>
        <time>2020-06-22T08:42:33.602Z</time>
      </trkpt>
      <trkpt lat="38.90137833" lon="1.39523167">
        <ele>24.0</ele>
        <time>2020-06-22T08:42:34.616Z</time>
      </trkpt>
      <trkpt lat="38.90137833" lon="1.39523167">
        <ele>24.0</ele>
        <time>2020-06-22T08:42:35.595Z</time>
      </trkpt>
      <trkpt lat="38.90135333" lon="1.395085">
        <ele>25.0</ele>
        <time>2020-06-22T08:42:36.616Z</time>
      </trkpt>
      <trkpt lat="38.90135333" lon="1.395085">
        <ele>25.0</ele>
        <time>2020-06-22T08:42:37.632Z</time>
      </trkpt>
      <trkpt lat="38.901325" lon="1.39493667">
        <ele>26.0</ele>
        <time>2020-06-22T08:42:38.632Z</time>
      </trkpt>
      <trkpt lat="38.90131" lon="1.394865">
        <ele>26.0</ele>
        <time>2020-06-22T08:42:39.626Z</time>
      </trkpt>
      <trkpt lat="38.90131" lon="1.394865">
        <ele>26.0</ele>
        <time>2020-06-22T08:42:40.615Z</time>
      </trkpt>
      <trkpt lat="38.90127833" lon="1.39471667">
        <ele>27.0</ele>
        <time>2020-06-22T08:42:41.631Z</time>
      </trkpt>
      <trkpt lat="38.90126167" lon="1.39464333">
        <ele>27.0</ele>
        <time>2020-06-22T08:42:42.622Z</time>
      </trkpt>
      <trkpt lat="38.90126167" lon="1.39464333">
        <ele>27.0</ele>
        <time>2020-06-22T08:42:43.599Z</time>
      </trkpt>
      <trkpt lat="38.90123167" lon="1.39449833">
        <ele>27.0</ele>
        <time>2020-06-22T08:42:44.606Z</time>
      </trkpt>
      <trkpt lat="38.90123167" lon="1.39449833">
        <ele>27.0</ele>
        <time>2020-06-22T08:42:45.629Z</time>
      </trkpt>
      <trkpt lat="38.90120167" lon="1.39435167">
        <ele>27.0</ele>
        <time>2020-06-22T08:42:46.607Z</time>
      </trkpt>
      <trkpt lat="38.90120167" lon="1.39435167">
        <ele>27.0</ele>
        <time>2020-06-22T08:42:47.630Z</time>
      </trkpt>
      <trkpt lat="38.90117167" lon="1.39420333">
        <ele>27.0</ele>
        <time>2020-06-22T08:42:48.626Z</time>
      </trkpt>
      <trkpt lat="38.90117167" lon="1.39420333">
        <ele>27.0</ele>
        <time>2020-06-22T08:42:49.606Z</time>
      </trkpt>
      <trkpt lat="38.90114" lon="1.394055">
        <ele>27.0</ele>
        <time>2020-06-22T08:42:50.626Z</time>
      </trkpt>
      <trkpt lat="38.90112333" lon="1.39398333">
        <ele>28.0</ele>
        <time>2020-06-22T08:42:51.606Z</time>
      </trkpt>
      <trkpt lat="38.90112333" lon="1.39398333">
        <ele>28.0</ele>
        <time>2020-06-22T08:42:52.631Z</time>
      </trkpt>
      <trkpt lat="38.90109167" lon="1.39383667">
        <ele>28.0</ele>
        <time>2020-06-22T08:42:53.608Z</time>
      </trkpt>
      <trkpt lat="38.901075" lon="1.39376167">
        <ele>28.0</ele>
        <time>2020-06-22T08:42:54.604Z</time>
      </trkpt>
      <trkpt lat="38.901075" lon="1.39376167">
        <ele>28.0</ele>
        <time>2020-06-22T08:42:55.598Z</time>
      </trkpt>
      <trkpt lat="38.901045" lon="1.39361333">
        <ele>29.0</ele>
        <time>2020-06-22T08:42:56.619Z</time>
      </trkpt>
      <trkpt lat="38.901045" lon="1.39361333">
        <ele>29.0</ele>
        <time>2020-06-22T08:42:57.603Z</time>
      </trkpt>
      <trkpt lat="38.90101667" lon="1.39346667">
        <ele>28.0</ele>
        <time>2020-06-22T08:42:58.617Z</time>
      </trkpt>
      <trkpt lat="38.90101667" lon="1.39346667">
        <ele>28.0</ele>
        <time>2020-06-22T08:42:59.595Z</time>
      </trkpt>
      <trkpt lat="38.900985" lon="1.39332167">
        <ele>29.0</ele>
        <time>2020-06-22T08:43:00.628Z</time>
      </trkpt>
      <trkpt lat="38.90097" lon="1.39324833">
        <ele>29.0</ele>
        <time>2020-06-22T08:43:01.607Z</time>
      </trkpt>
      <trkpt lat="38.90097" lon="1.39324833">
        <ele>29.0</ele>
        <time>2020-06-22T08:43:02.633Z</time>
      </trkpt>
      <trkpt lat="38.90094167" lon="1.39310333">
        <ele>29.0</ele>
        <time>2020-06-22T08:43:03.626Z</time>
      </trkpt>
      <trkpt lat="38.90094167" lon="1.39310333">
        <ele>29.0</ele>
        <time>2020-06-22T08:43:04.602Z</time>
      </trkpt>
      <trkpt lat="38.90090667" lon="1.39296333">
        <ele>29.0</ele>
        <time>2020-06-22T08:43:05.620Z</time>
      </trkpt>
      <trkpt lat="38.90089167" lon="1.39289">
        <ele>29.0</ele>
        <time>2020-06-22T08:43:06.617Z</time>
      </trkpt>
      <trkpt lat="38.90089167" lon="1.39289">
        <ele>29.0</ele>
        <time>2020-06-22T08:43:07.596Z</time>
      </trkpt>
      <trkpt lat="38.90086" lon="1.392745">
        <ele>30.0</ele>
        <time>2020-06-22T08:43:08.619Z</time>
      </trkpt>
      <trkpt lat="38.90086" lon="1.392745">
        <ele>30.0</ele>
        <time>2020-06-22T08:43:09.594Z</time>
      </trkpt>
      <trkpt lat="38.90082667" lon="1.3926">
        <ele>30.0</ele>
        <time>2020-06-22T08:43:10.606Z</time>
      </trkpt>
      <trkpt lat="38.90081" lon="1.39253">
        <ele>31.0</ele>
        <time>2020-06-22T08:43:11.595Z</time>
      </trkpt>
      <trkpt lat="38.90079667" lon="1.39245667">
        <ele>31.0</ele>
        <time>2020-06-22T08:43:12.625Z</time>
      </trkpt>
      <trkpt lat="38.90079667" lon="1.39245667">
        <ele>31.0</ele>
        <time>2020-06-22T08:43:13.602Z</time>
      </trkpt>
      <trkpt lat="38.90076667" lon="1.39231">
        <ele>31.0</ele>
        <time>2020-06-22T08:43:14.626Z</time>
      </trkpt>
      <trkpt lat="38.90076667" lon="1.39231">
        <ele>31.0</ele>
        <time>2020-06-22T08:43:15.603Z</time>
      </trkpt>
      <trkpt lat="38.90073667" lon="1.39216333">
        <ele>31.0</ele>
        <time>2020-06-22T08:43:16.611Z</time>
      </trkpt>
      <trkpt lat="38.90073667" lon="1.39216333">
        <ele>31.0</ele>
        <time>2020-06-22T08:43:17.629Z</time>
      </trkpt>
      <trkpt lat="38.90070833" lon="1.39201333">
        <ele>31.0</ele>
        <time>2020-06-22T08:43:18.609Z</time>
      </trkpt>
      <trkpt lat="38.90070833" lon="1.39201333">
        <ele>31.0</ele>
        <time>2020-06-22T08:43:19.629Z</time>
      </trkpt>
      <trkpt lat="38.90067833" lon="1.39186333">
        <ele>31.0</ele>
        <time>2020-06-22T08:43:20.604Z</time>
      </trkpt>
      <trkpt lat="38.90067833" lon="1.39186333">
        <ele>31.0</ele>
        <time>2020-06-22T08:43:21.629Z</time>
      </trkpt>
      <trkpt lat="38.90064833" lon="1.391715">
        <ele>32.0</ele>
        <time>2020-06-22T08:43:22.624Z</time>
      </trkpt>
      <trkpt lat="38.90063333" lon="1.39164">
        <ele>32.0</ele>
        <time>2020-06-22T08:43:23.626Z</time>
      </trkpt>
      <trkpt lat="38.90061833" lon="1.391565">
        <ele>32.0</ele>
        <time>2020-06-22T08:43:24.598Z</time>
      </trkpt>
      <trkpt lat="38.90061833" lon="1.391565">
        <ele>32.0</ele>
        <time>2020-06-22T08:43:25.629Z</time>
      </trkpt>
      <trkpt lat="38.90059" lon="1.39141333">
        <ele>32.0</ele>
        <time>2020-06-22T08:43:26.600Z</time>
      </trkpt>
      <trkpt lat="38.90059" lon="1.39141333">
        <ele>32.0</ele>
        <time>2020-06-22T08:43:27.629Z</time>
      </trkpt>
      <trkpt lat="38.90056167" lon="1.39126167">
        <ele>32.0</ele>
        <time>2020-06-22T08:43:28.616Z</time>
      </trkpt>
      <trkpt lat="38.90056167" lon="1.39126167">
        <ele>32.0</ele>
        <time>2020-06-22T08:43:29.632Z</time>
      </trkpt>
      <trkpt lat="38.90053" lon="1.39111">
        <ele>32.0</ele>
        <time>2020-06-22T08:43:30.603Z</time>
      </trkpt>
      <trkpt lat="38.90053" lon="1.39111">
        <ele>32.0</ele>
        <time>2020-06-22T08:43:31.627Z</time>
      </trkpt>
      <trkpt lat="38.9005" lon="1.39095833">
        <ele>33.0</ele>
        <time>2020-06-22T08:43:32.599Z</time>
      </trkpt>
      <trkpt lat="38.9005" lon="1.39095833">
        <ele>33.0</ele>
        <time>2020-06-22T08:43:33.628Z</time>
      </trkpt>
      <trkpt lat="38.90047" lon="1.39081">
        <ele>33.0</ele>
        <time>2020-06-22T08:43:34.596Z</time>
      </trkpt>
      <trkpt lat="38.90047" lon="1.39081">
        <ele>33.0</ele>
        <time>2020-06-22T08:43:35.627Z</time>
      </trkpt>
      <trkpt lat="38.90044167" lon="1.390665">
        <ele>33.0</ele>
        <time>2020-06-22T08:43:36.603Z</time>
      </trkpt>
      <trkpt lat="38.90042833" lon="1.39058667">
        <ele>33.0</ele>
        <time>2020-06-22T08:43:37.607Z</time>
      </trkpt>
      <trkpt lat="38.90042833" lon="1.39058667">
        <ele>33.0</ele>
        <time>2020-06-22T08:43:38.632Z</time>
      </trkpt>
      <trkpt lat="38.90039833" lon="1.39044167">
        <ele>33.0</ele>
        <time>2020-06-22T08:43:39.606Z</time>
      </trkpt>
      <trkpt lat="38.90039833" lon="1.39044167">
        <ele>33.0</ele>
        <time>2020-06-22T08:43:40.598Z</time>
      </trkpt>
      <trkpt lat="38.90036833" lon="1.39029">
        <ele>33.0</ele>
        <time>2020-06-22T08:43:41.612Z</time>
      </trkpt>
      <trkpt lat="38.900355" lon="1.39021667">
        <ele>33.0</ele>
        <time>2020-06-22T08:43:42.626Z</time>
      </trkpt>
      <trkpt lat="38.900355" lon="1.39021667">
        <ele>33.0</ele>
        <time>2020-06-22T08:43:43.605Z</time>
      </trkpt>
      <trkpt lat="38.90032667" lon="1.39006667">
        <ele>33.0</ele>
        <time>2020-06-22T08:43:44.621Z</time>
      </trkpt>
      <trkpt lat="38.90032667" lon="1.39006667">
        <ele>33.0</ele>
        <time>2020-06-22T08:43:45.601Z</time>
      </trkpt>
      <trkpt lat="38.90029667" lon="1.38991833">
        <ele>33.0</ele>
        <time>2020-06-22T08:43:46.627Z</time>
      </trkpt>
      <trkpt lat="38.90029667" lon="1.38991833">
        <ele>33.0</ele>
        <time>2020-06-22T08:43:47.604Z</time>
      </trkpt>
      <trkpt lat="38.900265" lon="1.38977333">
        <ele>33.0</ele>
        <time>2020-06-22T08:43:48.613Z</time>
      </trkpt>
      <trkpt lat="38.900265" lon="1.38977333">
        <ele>33.0</ele>
        <time>2020-06-22T08:43:49.630Z</time>
      </trkpt>
      <trkpt lat="38.90023167" lon="1.389625">
        <ele>33.0</ele>
        <time>2020-06-22T08:43:50.596Z</time>
      </trkpt>
      <trkpt lat="38.90023167" lon="1.389625">
        <ele>33.0</ele>
        <time>2020-06-22T08:43:51.596Z</time>
      </trkpt>
      <trkpt lat="38.9002" lon="1.38947833">
        <ele>33.0</ele>
        <time>2020-06-22T08:43:52.618Z</time>
      </trkpt>
      <trkpt lat="38.9002" lon="1.38947833">
        <ele>33.0</ele>
        <time>2020-06-22T08:43:53.598Z</time>
      </trkpt>
      <trkpt lat="38.90016833" lon="1.38932833">
        <ele>33.0</ele>
        <time>2020-06-22T08:43:54.622Z</time>
      </trkpt>
      <trkpt lat="38.90016833" lon="1.38932833">
        <ele>33.0</ele>
        <time>2020-06-22T08:43:55.603Z</time>
      </trkpt>
      <trkpt lat="38.90014" lon="1.38918">
        <ele>34.0</ele>
        <time>2020-06-22T08:43:56.626Z</time>
      </trkpt>
      <trkpt lat="38.90014" lon="1.38918">
        <ele>34.0</ele>
        <time>2020-06-22T08:43:57.608Z</time>
      </trkpt>
      <trkpt lat="38.90012" lon="1.38903167">
        <ele>34.0</ele>
        <time>2020-06-22T08:43:58.619Z</time>
      </trkpt>
      <trkpt lat="38.90012" lon="1.38903167">
        <ele>34.0</ele>
        <time>2020-06-22T08:43:59.597Z</time>
      </trkpt>
      <trkpt lat="38.900115" lon="1.38888333">
        <ele>35.0</ele>
        <time>2020-06-22T08:44:00.612Z</time>
      </trkpt>
      <trkpt lat="38.900115" lon="1.38888333">
        <ele>35.0</ele>
        <time>2020-06-22T08:44:01.631Z</time>
      </trkpt>
      <trkpt lat="38.900145" lon="1.388745">
        <ele>34.0</ele>
        <time>2020-06-22T08:44:02.616Z</time>
      </trkpt>
      <trkpt lat="38.900145" lon="1.388745">
        <ele>34.0</ele>
        <time>2020-06-22T08:44:03.627Z</time>
      </trkpt>
      <trkpt lat="38.90019167" lon="1.38861">
        <ele>34.0</ele>
        <time>2020-06-22T08:44:04.595Z</time>
      </trkpt>
      <trkpt lat="38.90019167" lon="1.38861">
        <ele>34.0</ele>
        <time>2020-06-22T08:44:05.628Z</time>
      </trkpt>
      <trkpt lat="38.90020833" lon="1.38846167">
        <ele>35.0</ele>
        <time>2020-06-22T08:44:06.606Z</time>
      </trkpt>
      <trkpt lat="38.90020833" lon="1.38846167">
        <ele>35.0</ele>
        <time>2020-06-22T08:44:07.628Z</time>
      </trkpt>
      <trkpt lat="38.90018167" lon="1.38831167">
        <ele>35.0</ele>
        <time>2020-06-22T08:44:08.626Z</time>
      </trkpt>
      <trkpt lat="38.90018167" lon="1.38831167">
        <ele>35.0</ele>
        <time>2020-06-22T08:44:09.616Z</time>
      </trkpt>
      <trkpt lat="38.90011833" lon="1.38818167">
        <ele>35.0</ele>
        <time>2020-06-22T08:44:10.602Z</time>
      </trkpt>
      <trkpt lat="38.90006833" lon="1.38813167">
        <ele>35.0</ele>
        <time>2020-06-22T08:44:11.617Z</time>
      </trkpt>
      <trkpt lat="38.90002167" lon="1.38808">
        <ele>35.0</ele>
        <time>2020-06-22T08:44:12.616Z</time>
      </trkpt>
      <trkpt lat="38.89997667" lon="1.38802">
        <ele>34.0</ele>
        <time>2020-06-22T08:44:13.596Z</time>
      </trkpt>
      <trkpt lat="38.89997667" lon="1.38802">
        <ele>34.0</ele>
        <time>2020-06-22T08:44:14.631Z</time>
      </trkpt>
      <trkpt lat="38.89991667" lon="1.38787333">
        <ele>34.0</ele>
        <time>2020-06-22T08:44:15.622Z</time>
      </trkpt>
      <trkpt lat="38.89991667" lon="1.38787333">
        <ele>34.0</ele>
        <time>2020-06-22T08:44:16.598Z</time>
      </trkpt>
      <trkpt lat="38.89988" lon="1.38771333">
        <ele>34.0</ele>
        <time>2020-06-22T08:44:17.616Z</time>
      </trkpt>
      <trkpt lat="38.89986333" lon="1.387635">
        <ele>34.0</ele>
        <time>2020-06-22T08:44:18.617Z</time>
      </trkpt>
      <trkpt lat="38.89986333" lon="1.387635">
        <ele>34.0</ele>
        <time>2020-06-22T08:44:19.594Z</time>
      </trkpt>
      <trkpt lat="38.89983" lon="1.38747667">
        <ele>34.0</ele>
        <time>2020-06-22T08:44:20.616Z</time>
      </trkpt>
      <trkpt lat="38.89981333" lon="1.38739833">
        <ele>34.0</ele>
        <time>2020-06-22T08:44:21.626Z</time>
      </trkpt>
      <trkpt lat="38.89981333" lon="1.38739833">
        <ele>34.0</ele>
        <time>2020-06-22T08:44:22.629Z</time>
      </trkpt>
      <trkpt lat="38.89978167" lon="1.387245">
        <ele>34.0</ele>
        <time>2020-06-22T08:44:23.596Z</time>
      </trkpt>
      <trkpt lat="38.89976667" lon="1.38716833">
        <ele>34.0</ele>
        <time>2020-06-22T08:44:24.614Z</time>
      </trkpt>
      <trkpt lat="38.89976667" lon="1.38716833">
        <ele>34.0</ele>
        <time>2020-06-22T08:44:25.595Z</time>
      </trkpt>
      <trkpt lat="38.899735" lon="1.38701167">
        <ele>34.0</ele>
        <time>2020-06-22T08:44:26.596Z</time>
      </trkpt>
      <trkpt lat="38.899735" lon="1.38701167">
        <ele>34.0</ele>
        <time>2020-06-22T08:44:27.628Z</time>
      </trkpt>
      <trkpt lat="38.89970667" lon="1.386855">
        <ele>34.0</ele>
        <time>2020-06-22T08:44:28.596Z</time>
      </trkpt>
      <trkpt lat="38.89970667" lon="1.386855">
        <ele>34.0</ele>
        <time>2020-06-22T08:44:29.628Z</time>
      </trkpt>
      <trkpt lat="38.89967333" lon="1.3867">
        <ele>34.0</ele>
        <time>2020-06-22T08:44:30.596Z</time>
      </trkpt>
      <trkpt lat="38.89967333" lon="1.3867">
        <ele>34.0</ele>
        <time>2020-06-22T08:44:31.631Z</time>
      </trkpt>
      <trkpt lat="38.89964167" lon="1.38654333">
        <ele>34.0</ele>
        <time>2020-06-22T08:44:32.616Z</time>
      </trkpt>
      <trkpt lat="38.89964167" lon="1.38654333">
        <ele>34.0</ele>
        <time>2020-06-22T08:44:33.600Z</time>
      </trkpt>
      <trkpt lat="38.89961" lon="1.38638667">
        <ele>33.0</ele>
        <time>2020-06-22T08:44:34.617Z</time>
      </trkpt>
      <trkpt lat="38.89961" lon="1.38638667">
        <ele>33.0</ele>
        <time>2020-06-22T08:44:35.594Z</time>
      </trkpt>
      <trkpt lat="38.899575" lon="1.38623">
        <ele>33.0</ele>
        <time>2020-06-22T08:44:36.619Z</time>
      </trkpt>
      <trkpt lat="38.899575" lon="1.38623">
        <ele>33.0</ele>
        <time>2020-06-22T08:44:37.594Z</time>
      </trkpt>
      <trkpt lat="38.89954333" lon="1.38606833">
        <ele>33.0</ele>
        <time>2020-06-22T08:44:38.624Z</time>
      </trkpt>
      <trkpt lat="38.89954333" lon="1.38606833">
        <ele>33.0</ele>
        <time>2020-06-22T08:44:39.627Z</time>
      </trkpt>
      <trkpt lat="38.89951" lon="1.38590333">
        <ele>33.0</ele>
        <time>2020-06-22T08:44:40.596Z</time>
      </trkpt>
      <trkpt lat="38.89949333" lon="1.38582167">
        <ele>33.0</ele>
        <time>2020-06-22T08:44:41.626Z</time>
      </trkpt>
      <trkpt lat="38.89947667" lon="1.38573833">
        <ele>33.0</ele>
        <time>2020-06-22T08:44:42.606Z</time>
      </trkpt>
      <trkpt lat="38.89947667" lon="1.38573833">
        <ele>33.0</ele>
        <time>2020-06-22T08:44:43.596Z</time>
      </trkpt>
      <trkpt lat="38.89944167" lon="1.38556833">
        <ele>33.0</ele>
        <time>2020-06-22T08:44:44.611Z</time>
      </trkpt>
      <trkpt lat="38.89944167" lon="1.38556833">
        <ele>33.0</ele>
        <time>2020-06-22T08:44:45.629Z</time>
      </trkpt>
      <trkpt lat="38.89940333" lon="1.38539833">
        <ele>33.0</ele>
        <time>2020-06-22T08:44:46.602Z</time>
      </trkpt>
      <trkpt lat="38.89940333" lon="1.38539833">
        <ele>33.0</ele>
        <time>2020-06-22T08:44:47.628Z</time>
      </trkpt>
      <trkpt lat="38.89937" lon="1.38522667">
        <ele>32.0</ele>
        <time>2020-06-22T08:44:48.595Z</time>
      </trkpt>
      <trkpt lat="38.89937" lon="1.38522667">
        <ele>32.0</ele>
        <time>2020-06-22T08:44:49.629Z</time>
      </trkpt>
      <trkpt lat="38.89933667" lon="1.385055">
        <ele>32.0</ele>
        <time>2020-06-22T08:44:50.596Z</time>
      </trkpt>
      <trkpt lat="38.89931833" lon="1.38496833">
        <ele>32.0</ele>
        <time>2020-06-22T08:44:51.609Z</time>
      </trkpt>
      <trkpt lat="38.89931833" lon="1.38496833">
        <ele>32.0</ele>
        <time>2020-06-22T08:44:52.626Z</time>
      </trkpt>
      <trkpt lat="38.899285" lon="1.38479667">
        <ele>32.0</ele>
        <time>2020-06-22T08:44:53.611Z</time>
      </trkpt>
      <trkpt lat="38.89927" lon="1.38471167">
        <ele>31.0</ele>
        <time>2020-06-22T08:44:54.632Z</time>
      </trkpt>
      <trkpt lat="38.89927" lon="1.38471167">
        <ele>31.0</ele>
        <time>2020-06-22T08:44:55.628Z</time>
      </trkpt>
      <trkpt lat="38.89923333" lon="1.38454167">
        <ele>31.0</ele>
        <time>2020-06-22T08:44:56.600Z</time>
      </trkpt>
      <trkpt lat="38.899215" lon="1.38445667">
        <ele>31.0</ele>
        <time>2020-06-22T08:44:57.616Z</time>
      </trkpt>
      <trkpt lat="38.899215" lon="1.38445667">
        <ele>31.0</ele>
        <time>2020-06-22T08:44:58.632Z</time>
      </trkpt>
      <trkpt lat="38.89918167" lon="1.38428833">
        <ele>31.0</ele>
        <time>2020-06-22T08:44:59.627Z</time>
      </trkpt>
      <trkpt lat="38.89918167" lon="1.38428833">
        <ele>31.0</ele>
        <time>2020-06-22T08:45:00.596Z</time>
      </trkpt>
      <trkpt lat="38.89914833" lon="1.38412">
        <ele>31.0</ele>
        <time>2020-06-22T08:45:01.606Z</time>
      </trkpt>
      <trkpt lat="38.89913167" lon="1.384035">
        <ele>30.0</ele>
        <time>2020-06-22T08:45:02.626Z</time>
      </trkpt>
      <trkpt lat="38.89913167" lon="1.384035">
        <ele>30.0</ele>
        <time>2020-06-22T08:45:03.604Z</time>
      </trkpt>
      <trkpt lat="38.89909667" lon="1.38386667">
        <ele>30.0</ele>
        <time>2020-06-22T08:45:04.606Z</time>
      </trkpt>
      <trkpt lat="38.89908" lon="1.38378167">
        <ele>30.0</ele>
        <time>2020-06-22T08:45:05.612Z</time>
      </trkpt>
      <trkpt lat="38.89908" lon="1.38378167">
        <ele>30.0</ele>
        <time>2020-06-22T08:45:06.632Z</time>
      </trkpt>
      <trkpt lat="38.89904667" lon="1.38361333">
        <ele>30.0</ele>
        <time>2020-06-22T08:45:07.626Z</time>
      </trkpt>
      <trkpt lat="38.89904667" lon="1.38361333">
        <ele>30.0</ele>
        <time>2020-06-22T08:45:08.602Z</time>
      </trkpt>
      <trkpt lat="38.89901167" lon="1.38344">
        <ele>30.0</ele>
        <time>2020-06-22T08:45:09.615Z</time>
      </trkpt>
      <trkpt lat="38.89901167" lon="1.38344">
        <ele>30.0</ele>
        <time>2020-06-22T08:45:10.600Z</time>
      </trkpt>
      <trkpt lat="38.898975" lon="1.383265">
        <ele>30.0</ele>
        <time>2020-06-22T08:45:11.629Z</time>
      </trkpt>
      <trkpt lat="38.89895833" lon="1.38317667">
        <ele>30.0</ele>
        <time>2020-06-22T08:45:12.605Z</time>
      </trkpt>
      <trkpt lat="38.89895833" lon="1.38317667">
        <ele>30.0</ele>
        <time>2020-06-22T08:45:13.629Z</time>
      </trkpt>
      <trkpt lat="38.89892333" lon="1.38299833">
        <ele>29.0</ele>
        <time>2020-06-22T08:45:14.594Z</time>
      </trkpt>
      <trkpt lat="38.89892333" lon="1.38299833">
        <ele>29.0</ele>
        <time>2020-06-22T08:45:15.610Z</time>
      </trkpt>
      <trkpt lat="38.89888667" lon="1.382815">
        <ele>29.0</ele>
        <time>2020-06-22T08:45:16.619Z</time>
      </trkpt>
      <trkpt lat="38.89888667" lon="1.382815">
        <ele>29.0</ele>
        <time>2020-06-22T08:45:17.595Z</time>
      </trkpt>
      <trkpt lat="38.89884833" lon="1.38262833">
        <ele>29.0</ele>
        <time>2020-06-22T08:45:18.620Z</time>
      </trkpt>
      <trkpt lat="38.89884833" lon="1.38262833">
        <ele>29.0</ele>
        <time>2020-06-22T08:45:19.627Z</time>
      </trkpt>
      <trkpt lat="38.89881167" lon="1.38243667">
        <ele>28.0</ele>
        <time>2020-06-22T08:45:20.597Z</time>
      </trkpt>
      <trkpt lat="38.89881167" lon="1.38243667">
        <ele>28.0</ele>
        <time>2020-06-22T08:45:21.630Z</time>
      </trkpt>
      <trkpt lat="38.89877167" lon="1.38224">
        <ele>28.0</ele>
        <time>2020-06-22T08:45:22.601Z</time>
      </trkpt>
      <trkpt lat="38.89877167" lon="1.38224">
        <ele>28.0</ele>
        <time>2020-06-22T08:45:23.628Z</time>
      </trkpt>
      <trkpt lat="38.89873167" lon="1.38203833">
        <ele>28.0</ele>
        <time>2020-06-22T08:45:24.609Z</time>
      </trkpt>
      <trkpt lat="38.89871167" lon="1.38193667">
        <ele>27.0</ele>
        <time>2020-06-22T08:45:25.612Z</time>
      </trkpt>
      <trkpt lat="38.89871167" lon="1.38193667">
        <ele>27.0</ele>
        <time>2020-06-22T08:45:26.630Z</time>
      </trkpt>
      <trkpt lat="38.89866833" lon="1.38173333">
        <ele>27.0</ele>
        <time>2020-06-22T08:45:27.626Z</time>
      </trkpt>
      <trkpt lat="38.89866833" lon="1.38173333">
        <ele>27.0</ele>
        <time>2020-06-22T08:45:28.602Z</time>
      </trkpt>
      <trkpt lat="38.89862833" lon="1.38152667">
        <ele>27.0</ele>
        <time>2020-06-22T08:45:29.596Z</time>
      </trkpt>
      <trkpt lat="38.89860667" lon="1.38142333">
        <ele>27.0</ele>
        <time>2020-06-22T08:45:30.596Z</time>
      </trkpt>
      <trkpt lat="38.89860667" lon="1.38142333">
        <ele>27.0</ele>
        <time>2020-06-22T08:45:31.630Z</time>
      </trkpt>
      <trkpt lat="38.898565" lon="1.38121333">
        <ele>27.0</ele>
        <time>2020-06-22T08:45:32.606Z</time>
      </trkpt>
      <trkpt lat="38.898565" lon="1.38121333">
        <ele>27.0</ele>
        <time>2020-06-22T08:45:33.626Z</time>
      </trkpt>
      <trkpt lat="38.89852167" lon="1.38100333">
        <ele>26.0</ele>
        <time>2020-06-22T08:45:34.621Z</time>
      </trkpt>
      <trkpt lat="38.89852167" lon="1.38100333">
        <ele>26.0</ele>
        <time>2020-06-22T08:45:35.596Z</time>
      </trkpt>
      <trkpt lat="38.89847833" lon="1.38079333">
        <ele>26.0</ele>
        <time>2020-06-22T08:45:36.627Z</time>
      </trkpt>
      <trkpt lat="38.89847833" lon="1.38079333">
        <ele>26.0</ele>
        <time>2020-06-22T08:45:37.602Z</time>
      </trkpt>
      <trkpt lat="38.898435" lon="1.380585">
        <ele>26.0</ele>
        <time>2020-06-22T08:45:38.626Z</time>
      </trkpt>
      <trkpt lat="38.898435" lon="1.380585">
        <ele>26.0</ele>
        <time>2020-06-22T08:45:39.603Z</time>
      </trkpt>
      <trkpt lat="38.89839167" lon="1.38037667">
        <ele>26.0</ele>
        <time>2020-06-22T08:45:40.632Z</time>
      </trkpt>
      <trkpt lat="38.89836833" lon="1.38027333">
        <ele>26.0</ele>
        <time>2020-06-22T08:45:41.627Z</time>
      </trkpt>
      <trkpt lat="38.89836833" lon="1.38027333">
        <ele>26.0</ele>
        <time>2020-06-22T08:45:42.603Z</time>
      </trkpt>
      <trkpt lat="38.89832333" lon="1.38007167">
        <ele>25.0</ele>
        <time>2020-06-22T08:45:43.606Z</time>
      </trkpt>
      <trkpt lat="38.89830167" lon="1.37997167">
        <ele>25.0</ele>
        <time>2020-06-22T08:45:44.616Z</time>
      </trkpt>
      <trkpt lat="38.89830167" lon="1.37997167">
        <ele>25.0</ele>
        <time>2020-06-22T08:45:45.614Z</time>
      </trkpt>
      <trkpt lat="38.89825667" lon="1.37977167">
        <ele>25.0</ele>
        <time>2020-06-22T08:45:46.628Z</time>
      </trkpt>
      <trkpt lat="38.89825667" lon="1.37977167">
        <ele>25.0</ele>
        <time>2020-06-22T08:45:47.606Z</time>
      </trkpt>
      <trkpt lat="38.89821667" lon="1.37956833">
        <ele>25.0</ele>
        <time>2020-06-22T08:45:48.626Z</time>
      </trkpt>
      <trkpt lat="38.89821667" lon="1.37956833">
        <ele>25.0</ele>
        <time>2020-06-22T08:45:49.601Z</time>
      </trkpt>
      <trkpt lat="38.89818167" lon="1.37936333">
        <ele>25.0</ele>
        <time>2020-06-22T08:45:50.627Z</time>
      </trkpt>
      <trkpt lat="38.89816167" lon="1.37926167">
        <ele>25.0</ele>
        <time>2020-06-22T08:45:51.624Z</time>
      </trkpt>
      <trkpt lat="38.89816167" lon="1.37926167">
        <ele>25.0</ele>
        <time>2020-06-22T08:45:52.600Z</time>
      </trkpt>
      <trkpt lat="38.89812167" lon="1.37905833">
        <ele>25.0</ele>
        <time>2020-06-22T08:45:53.620Z</time>
      </trkpt>
      <trkpt lat="38.89810167" lon="1.378955">
        <ele>25.0</ele>
        <time>2020-06-22T08:45:54.627Z</time>
      </trkpt>
      <trkpt lat="38.89810167" lon="1.378955">
        <ele>25.0</ele>
        <time>2020-06-22T08:45:55.606Z</time>
      </trkpt>
      <trkpt lat="38.89806" lon="1.378755">
        <ele>25.0</ele>
        <time>2020-06-22T08:45:56.627Z</time>
      </trkpt>
      <trkpt lat="38.89804167" lon="1.37865667">
        <ele>25.0</ele>
        <time>2020-06-22T08:45:57.608Z</time>
      </trkpt>
      <trkpt lat="38.89804167" lon="1.37865667">
        <ele>25.0</ele>
        <time>2020-06-22T08:45:58.629Z</time>
      </trkpt>
      <trkpt lat="38.89800333" lon="1.37846167">
        <ele>25.0</ele>
        <time>2020-06-22T08:45:59.601Z</time>
      </trkpt>
      <trkpt lat="38.89800333" lon="1.37846167">
        <ele>25.0</ele>
        <time>2020-06-22T08:46:00.623Z</time>
      </trkpt>
      <trkpt lat="38.89796" lon="1.378265">
        <ele>26.0</ele>
        <time>2020-06-22T08:46:01.617Z</time>
      </trkpt>
      <trkpt lat="38.89794333" lon="1.378165">
        <ele>26.0</ele>
        <time>2020-06-22T08:46:02.626Z</time>
      </trkpt>
      <trkpt lat="38.89792667" lon="1.37806833">
        <ele>26.0</ele>
        <time>2020-06-22T08:46:03.609Z</time>
      </trkpt>
      <trkpt lat="38.89792667" lon="1.37806833">
        <ele>26.0</ele>
        <time>2020-06-22T08:46:04.596Z</time>
      </trkpt>
      <trkpt lat="38.89788667" lon="1.377875">
        <ele>26.0</ele>
        <time>2020-06-22T08:46:05.620Z</time>
      </trkpt>
      <trkpt lat="38.89786667" lon="1.37778">
        <ele>26.0</ele>
        <time>2020-06-22T08:46:06.616Z</time>
      </trkpt>
      <trkpt lat="38.89786667" lon="1.37778">
        <ele>26.0</ele>
        <time>2020-06-22T08:46:07.598Z</time>
      </trkpt>
      <trkpt lat="38.897825" lon="1.37759">
        <ele>26.0</ele>
        <time>2020-06-22T08:46:08.626Z</time>
      </trkpt>
      <trkpt lat="38.897825" lon="1.37759">
        <ele>26.0</ele>
        <time>2020-06-22T08:46:09.602Z</time>
      </trkpt>
      <trkpt lat="38.89778833" lon="1.3774">
        <ele>26.0</ele>
        <time>2020-06-22T08:46:10.628Z</time>
      </trkpt>
      <trkpt lat="38.89777" lon="1.37730667">
        <ele>27.0</ele>
        <time>2020-06-22T08:46:11.600Z</time>
      </trkpt>
      <trkpt lat="38.89775333" lon="1.37721333">
        <ele>27.0</ele>
        <time>2020-06-22T08:46:12.616Z</time>
      </trkpt>
      <trkpt lat="38.89775333" lon="1.37721333">
        <ele>27.0</ele>
        <time>2020-06-22T08:46:13.633Z</time>
      </trkpt>
      <trkpt lat="38.89771833" lon="1.377025">
        <ele>27.0</ele>
        <time>2020-06-22T08:46:14.611Z</time>
      </trkpt>
      <trkpt lat="38.89771833" lon="1.377025">
        <ele>27.0</ele>
        <time>2020-06-22T08:46:15.629Z</time>
      </trkpt>
      <trkpt lat="38.89768167" lon="1.376835">
        <ele>27.0</ele>
        <time>2020-06-22T08:46:16.604Z</time>
      </trkpt>
      <trkpt lat="38.897665" lon="1.37674">
        <ele>26.0</ele>
        <time>2020-06-22T08:46:17.623Z</time>
      </trkpt>
      <trkpt lat="38.89764667" lon="1.376645">
        <ele>26.0</ele>
        <time>2020-06-22T08:46:18.626Z</time>
      </trkpt>
      <trkpt lat="38.89764667" lon="1.376645">
        <ele>26.0</ele>
        <time>2020-06-22T08:46:19.603Z</time>
      </trkpt>
      <trkpt lat="38.89761" lon="1.37645667">
        <ele>27.0</ele>
        <time>2020-06-22T08:46:20.616Z</time>
      </trkpt>
      <trkpt lat="38.89759167" lon="1.37636333">
        <ele>27.0</ele>
        <time>2020-06-22T08:46:21.624Z</time>
      </trkpt>
      <trkpt lat="38.89759167" lon="1.37636333">
        <ele>27.0</ele>
        <time>2020-06-22T08:46:22.608Z</time>
      </trkpt>
      <trkpt lat="38.89755833" lon="1.37618">
        <ele>28.0</ele>
        <time>2020-06-22T08:46:23.629Z</time>
      </trkpt>
      <trkpt lat="38.89753833" lon="1.37609167">
        <ele>28.0</ele>
        <time>2020-06-22T08:46:24.604Z</time>
      </trkpt>
      <trkpt lat="38.89753833" lon="1.37609167">
        <ele>28.0</ele>
        <time>2020-06-22T08:46:25.597Z</time>
      </trkpt>
      <trkpt lat="38.89749833" lon="1.37591">
        <ele>28.0</ele>
        <time>2020-06-22T08:46:26.620Z</time>
      </trkpt>
      <trkpt lat="38.89749833" lon="1.37591">
        <ele>28.0</ele>
        <time>2020-06-22T08:46:27.597Z</time>
      </trkpt>
      <trkpt lat="38.89746167" lon="1.37572667">
        <ele>28.0</ele>
        <time>2020-06-22T08:46:28.608Z</time>
      </trkpt>
      <trkpt lat="38.89746167" lon="1.37572667">
        <ele>28.0</ele>
        <time>2020-06-22T08:46:29.629Z</time>
      </trkpt>
      <trkpt lat="38.897425" lon="1.37554333">
        <ele>28.0</ele>
        <time>2020-06-22T08:46:30.606Z</time>
      </trkpt>
      <trkpt lat="38.897405" lon="1.37545167">
        <ele>28.0</ele>
        <time>2020-06-22T08:46:31.626Z</time>
      </trkpt>
      <trkpt lat="38.89738667" lon="1.37536">
        <ele>28.0</ele>
        <time>2020-06-22T08:46:32.611Z</time>
      </trkpt>
      <trkpt lat="38.89738667" lon="1.37536">
        <ele>28.0</ele>
        <time>2020-06-22T08:46:33.605Z</time>
      </trkpt>
      <trkpt lat="38.89734833" lon="1.37518">
        <ele>28.0</ele>
        <time>2020-06-22T08:46:34.602Z</time>
      </trkpt>
      <trkpt lat="38.89734833" lon="1.37518">
        <ele>28.0</ele>
        <time>2020-06-22T08:46:35.629Z</time>
      </trkpt>
      <trkpt lat="38.89731333" lon="1.37499833">
        <ele>29.0</ele>
        <time>2020-06-22T08:46:36.627Z</time>
      </trkpt>
      <trkpt lat="38.89731333" lon="1.37499833">
        <ele>29.0</ele>
        <time>2020-06-22T08:46:37.602Z</time>
      </trkpt>
      <trkpt lat="38.89727667" lon="1.37482167">
        <ele>29.0</ele>
        <time>2020-06-22T08:46:38.626Z</time>
      </trkpt>
      <trkpt lat="38.89727667" lon="1.37482167">
        <ele>29.0</ele>
        <time>2020-06-22T08:46:39.602Z</time>
      </trkpt>
      <trkpt lat="38.89724167" lon="1.37465">
        <ele>29.0</ele>
        <time>2020-06-22T08:46:40.623Z</time>
      </trkpt>
      <trkpt lat="38.89724167" lon="1.37465">
        <ele>29.0</ele>
        <time>2020-06-22T08:46:41.604Z</time>
      </trkpt>
      <trkpt lat="38.89720667" lon="1.374485">
        <ele>29.0</ele>
        <time>2020-06-22T08:46:42.626Z</time>
      </trkpt>
      <trkpt lat="38.89720667" lon="1.374485">
        <ele>29.0</ele>
        <time>2020-06-22T08:46:43.607Z</time>
      </trkpt>
      <trkpt lat="38.89717333" lon="1.374325">
        <ele>30.0</ele>
        <time>2020-06-22T08:46:44.624Z</time>
      </trkpt>
      <trkpt lat="38.89717333" lon="1.374325">
        <ele>30.0</ele>
        <time>2020-06-22T08:46:45.608Z</time>
      </trkpt>
      <trkpt lat="38.89714167" lon="1.37416833">
        <ele>30.0</ele>
        <time>2020-06-22T08:46:46.601Z</time>
      </trkpt>
      <trkpt lat="38.89714167" lon="1.37416833">
        <ele>30.0</ele>
        <time>2020-06-22T08:46:47.626Z</time>
      </trkpt>
      <trkpt lat="38.89711167" lon="1.37401833">
        <ele>31.0</ele>
        <time>2020-06-22T08:46:48.616Z</time>
      </trkpt>
      <trkpt lat="38.89711167" lon="1.37401833">
        <ele>31.0</ele>
        <time>2020-06-22T08:46:49.633Z</time>
      </trkpt>
      <trkpt lat="38.89707833" lon="1.37386833">
        <ele>32.0</ele>
        <time>2020-06-22T08:46:50.596Z</time>
      </trkpt>
      <trkpt lat="38.89707833" lon="1.37386833">
        <ele>32.0</ele>
        <time>2020-06-22T08:46:51.629Z</time>
      </trkpt>
      <trkpt lat="38.89705167" lon="1.37372333">
        <ele>34.0</ele>
        <time>2020-06-22T08:46:52.617Z</time>
      </trkpt>
      <trkpt lat="38.89705167" lon="1.37372333">
        <ele>34.0</ele>
        <time>2020-06-22T08:46:53.633Z</time>
      </trkpt>
      <trkpt lat="38.89702667" lon="1.373575">
        <ele>34.0</ele>
        <time>2020-06-22T08:46:54.613Z</time>
      </trkpt>
      <trkpt lat="38.89702667" lon="1.373575">
        <ele>34.0</ele>
        <time>2020-06-22T08:46:55.598Z</time>
      </trkpt>
      <trkpt lat="38.89699667" lon="1.37342167">
        <ele>35.0</ele>
        <time>2020-06-22T08:46:56.627Z</time>
      </trkpt>
      <trkpt lat="38.89699667" lon="1.37342167">
        <ele>35.0</ele>
        <time>2020-06-22T08:46:57.608Z</time>
      </trkpt>
      <trkpt lat="38.89696667" lon="1.373265">
        <ele>35.0</ele>
        <time>2020-06-22T08:46:58.625Z</time>
      </trkpt>
      <trkpt lat="38.89696667" lon="1.373265">
        <ele>35.0</ele>
        <time>2020-06-22T08:46:59.605Z</time>
      </trkpt>
      <trkpt lat="38.896935" lon="1.373105">
        <ele>36.0</ele>
        <time>2020-06-22T08:47:00.601Z</time>
      </trkpt>
      <trkpt lat="38.896935" lon="1.373105">
        <ele>36.0</ele>
        <time>2020-06-22T08:47:01.629Z</time>
      </trkpt>
      <trkpt lat="38.89690167" lon="1.37296">
        <ele>36.0</ele>
        <time>2020-06-22T08:47:02.611Z</time>
      </trkpt>
      <trkpt lat="38.89690167" lon="1.37296">
        <ele>36.0</ele>
        <time>2020-06-22T08:47:03.629Z</time>
      </trkpt>
      <trkpt lat="38.89687333" lon="1.372815">
        <ele>36.0</ele>
        <time>2020-06-22T08:47:04.611Z</time>
      </trkpt>
      <trkpt lat="38.89687333" lon="1.372815">
        <ele>36.0</ele>
        <time>2020-06-22T08:47:05.630Z</time>
      </trkpt>
      <trkpt lat="38.896845" lon="1.37267333">
        <ele>36.0</ele>
        <time>2020-06-22T08:47:06.613Z</time>
      </trkpt>
      <trkpt lat="38.896845" lon="1.37267333">
        <ele>36.0</ele>
        <time>2020-06-22T08:47:07.629Z</time>
      </trkpt>
      <trkpt lat="38.89682" lon="1.37253667">
        <ele>36.0</ele>
        <time>2020-06-22T08:47:08.597Z</time>
      </trkpt>
      <trkpt lat="38.89682" lon="1.37253667">
        <ele>36.0</ele>
        <time>2020-06-22T08:47:09.594Z</time>
      </trkpt>
      <trkpt lat="38.89679667" lon="1.37240167">
        <ele>37.0</ele>
        <time>2020-06-22T08:47:10.606Z</time>
      </trkpt>
      <trkpt lat="38.89678333" lon="1.37233667">
        <ele>37.0</ele>
        <time>2020-06-22T08:47:11.596Z</time>
      </trkpt>
      <trkpt lat="38.89677167" lon="1.37227167">
        <ele>37.0</ele>
        <time>2020-06-22T08:47:12.626Z</time>
      </trkpt>
      <trkpt lat="38.89677167" lon="1.37227167">
        <ele>37.0</ele>
        <time>2020-06-22T08:47:13.602Z</time>
      </trkpt>
      <trkpt lat="38.89674667" lon="1.37214">
        <ele>38.0</ele>
        <time>2020-06-22T08:47:14.604Z</time>
      </trkpt>
      <trkpt lat="38.89674667" lon="1.37214">
        <ele>38.0</ele>
        <time>2020-06-22T08:47:15.595Z</time>
      </trkpt>
      <trkpt lat="38.89672167" lon="1.37201167">
        <ele>38.0</ele>
        <time>2020-06-22T08:47:16.595Z</time>
      </trkpt>
      <trkpt lat="38.89672167" lon="1.37201167">
        <ele>38.0</ele>
        <time>2020-06-22T08:47:17.629Z</time>
      </trkpt>
      <trkpt lat="38.8967" lon="1.37188333">
        <ele>39.0</ele>
        <time>2020-06-22T08:47:18.596Z</time>
      </trkpt>
      <trkpt lat="38.8967" lon="1.37188333">
        <ele>39.0</ele>
        <time>2020-06-22T08:47:19.629Z</time>
      </trkpt>
      <trkpt lat="38.896675" lon="1.37175667">
        <ele>39.0</ele>
        <time>2020-06-22T08:47:20.606Z</time>
      </trkpt>
      <trkpt lat="38.896675" lon="1.37175667">
        <ele>39.0</ele>
        <time>2020-06-22T08:47:21.629Z</time>
      </trkpt>
      <trkpt lat="38.896655" lon="1.37162333">
        <ele>40.0</ele>
        <time>2020-06-22T08:47:22.626Z</time>
      </trkpt>
      <trkpt lat="38.896655" lon="1.37162333">
        <ele>40.0</ele>
        <time>2020-06-22T08:47:23.604Z</time>
      </trkpt>
      <trkpt lat="38.89662167" lon="1.37148667">
        <ele>40.0</ele>
        <time>2020-06-22T08:47:24.596Z</time>
      </trkpt>
      <trkpt lat="38.89662167" lon="1.37148667">
        <ele>40.0</ele>
        <time>2020-06-22T08:47:25.600Z</time>
      </trkpt>
      <trkpt lat="38.89659167" lon="1.37135167">
        <ele>40.0</ele>
        <time>2020-06-22T08:47:26.622Z</time>
      </trkpt>
      <trkpt lat="38.89659167" lon="1.37135167">
        <ele>40.0</ele>
        <time>2020-06-22T08:47:27.598Z</time>
      </trkpt>
      <trkpt lat="38.896565" lon="1.371215">
        <ele>40.0</ele>
        <time>2020-06-22T08:47:28.623Z</time>
      </trkpt>
      <trkpt lat="38.896565" lon="1.371215">
        <ele>40.0</ele>
        <time>2020-06-22T08:47:29.598Z</time>
      </trkpt>
      <trkpt lat="38.89653833" lon="1.37107833">
        <ele>40.0</ele>
        <time>2020-06-22T08:47:30.617Z</time>
      </trkpt>
      <trkpt lat="38.89653833" lon="1.37107833">
        <ele>40.0</ele>
        <time>2020-06-22T08:47:31.608Z</time>
      </trkpt>
      <trkpt lat="38.89651333" lon="1.37094667">
        <ele>40.0</ele>
        <time>2020-06-22T08:47:32.626Z</time>
      </trkpt>
      <trkpt lat="38.89651333" lon="1.37094667">
        <ele>40.0</ele>
        <time>2020-06-22T08:47:33.601Z</time>
      </trkpt>
      <trkpt lat="38.89649" lon="1.37081667">
        <ele>40.0</ele>
        <time>2020-06-22T08:47:34.614Z</time>
      </trkpt>
      <trkpt lat="38.89649" lon="1.37081667">
        <ele>40.0</ele>
        <time>2020-06-22T08:47:35.602Z</time>
      </trkpt>
      <trkpt lat="38.89646333" lon="1.37068167">
        <ele>40.0</ele>
        <time>2020-06-22T08:47:36.617Z</time>
      </trkpt>
      <trkpt lat="38.89646333" lon="1.37068167">
        <ele>40.0</ele>
        <time>2020-06-22T08:47:37.632Z</time>
      </trkpt>
      <trkpt lat="38.896435" lon="1.37054833">
        <ele>40.0</ele>
        <time>2020-06-22T08:47:38.614Z</time>
      </trkpt>
      <trkpt lat="38.896435" lon="1.37054833">
        <ele>40.0</ele>
        <time>2020-06-22T08:47:39.623Z</time>
      </trkpt>
      <trkpt lat="38.89640833" lon="1.37042167">
        <ele>41.0</ele>
        <time>2020-06-22T08:47:40.596Z</time>
      </trkpt>
      <trkpt lat="38.89639667" lon="1.37035833">
        <ele>41.0</ele>
        <time>2020-06-22T08:47:41.602Z</time>
      </trkpt>
      <trkpt lat="38.89639667" lon="1.37035833">
        <ele>41.0</ele>
        <time>2020-06-22T08:47:42.607Z</time>
      </trkpt>
      <trkpt lat="38.89637" lon="1.37023333">
        <ele>41.0</ele>
        <time>2020-06-22T08:47:43.626Z</time>
      </trkpt>
      <trkpt lat="38.89637" lon="1.37023333">
        <ele>41.0</ele>
        <time>2020-06-22T08:47:44.601Z</time>
      </trkpt>
      <trkpt lat="38.89635" lon="1.37010333">
        <ele>41.0</ele>
        <time>2020-06-22T08:47:45.618Z</time>
      </trkpt>
      <trkpt lat="38.89635" lon="1.37010333">
        <ele>41.0</ele>
        <time>2020-06-22T08:47:46.634Z</time>
      </trkpt>
      <trkpt lat="38.89632" lon="1.36997167">
        <ele>41.0</ele>
        <time>2020-06-22T08:47:47.621Z</time>
      </trkpt>
      <trkpt lat="38.896305" lon="1.369905">
        <ele>41.0</ele>
        <time>2020-06-22T08:47:48.606Z</time>
      </trkpt>
      <trkpt lat="38.896305" lon="1.369905">
        <ele>41.0</ele>
        <time>2020-06-22T08:47:49.630Z</time>
      </trkpt>
      <trkpt lat="38.896275" lon="1.36976833">
        <ele>41.0</ele>
        <time>2020-06-22T08:47:50.596Z</time>
      </trkpt>
      <trkpt lat="38.896265" lon="1.3697">
        <ele>41.0</ele>
        <time>2020-06-22T08:47:51.609Z</time>
      </trkpt>
      <trkpt lat="38.896265" lon="1.3697">
        <ele>41.0</ele>
        <time>2020-06-22T08:47:52.630Z</time>
      </trkpt>
      <trkpt lat="38.89624167" lon="1.369565">
        <ele>41.0</ele>
        <time>2020-06-22T08:47:53.595Z</time>
      </trkpt>
      <trkpt lat="38.89622833" lon="1.36949833">
        <ele>41.0</ele>
        <time>2020-06-22T08:47:54.626Z</time>
      </trkpt>
      <trkpt lat="38.89621333" lon="1.36943">
        <ele>41.0</ele>
        <time>2020-06-22T08:47:55.601Z</time>
      </trkpt>
      <trkpt lat="38.89621333" lon="1.36943">
        <ele>41.0</ele>
        <time>2020-06-22T08:47:56.606Z</time>
      </trkpt>
      <trkpt lat="38.89618333" lon="1.36929333">
        <ele>42.0</ele>
        <time>2020-06-22T08:47:57.613Z</time>
      </trkpt>
      <trkpt lat="38.89617" lon="1.36922333">
        <ele>42.0</ele>
        <time>2020-06-22T08:47:58.628Z</time>
      </trkpt>
      <trkpt lat="38.89617" lon="1.36922333">
        <ele>42.0</ele>
        <time>2020-06-22T08:47:59.608Z</time>
      </trkpt>
      <trkpt lat="38.89614667" lon="1.36908667">
        <ele>42.0</ele>
        <time>2020-06-22T08:48:00.608Z</time>
      </trkpt>
      <trkpt lat="38.89614667" lon="1.36908667">
        <ele>42.0</ele>
        <time>2020-06-22T08:48:01.632Z</time>
      </trkpt>
      <trkpt lat="38.89611667" lon="1.36894667">
        <ele>42.0</ele>
        <time>2020-06-22T08:48:02.625Z</time>
      </trkpt>
      <trkpt lat="38.89611667" lon="1.36894667">
        <ele>42.0</ele>
        <time>2020-06-22T08:48:03.601Z</time>
      </trkpt>
      <trkpt lat="38.89608667" lon="1.36880833">
        <ele>43.0</ele>
        <time>2020-06-22T08:48:04.612Z</time>
      </trkpt>
      <trkpt lat="38.89608667" lon="1.36880833">
        <ele>43.0</ele>
        <time>2020-06-22T08:48:05.630Z</time>
      </trkpt>
      <trkpt lat="38.896055" lon="1.36867">
        <ele>44.0</ele>
        <time>2020-06-22T08:48:06.595Z</time>
      </trkpt>
      <trkpt lat="38.89604333" lon="1.368605">
        <ele>44.0</ele>
        <time>2020-06-22T08:48:07.596Z</time>
      </trkpt>
      <trkpt lat="38.89604333" lon="1.368605">
        <ele>44.0</ele>
        <time>2020-06-22T08:48:08.633Z</time>
      </trkpt>
      <trkpt lat="38.89601333" lon="1.368465">
        <ele>44.0</ele>
        <time>2020-06-22T08:48:09.614Z</time>
      </trkpt>
      <trkpt lat="38.89601333" lon="1.368465">
        <ele>44.0</ele>
        <time>2020-06-22T08:48:10.601Z</time>
      </trkpt>
      <trkpt lat="38.895985" lon="1.368325">
        <ele>44.0</ele>
        <time>2020-06-22T08:48:11.600Z</time>
      </trkpt>
      <trkpt lat="38.895985" lon="1.368325">
        <ele>44.0</ele>
        <time>2020-06-22T08:48:12.601Z</time>
      </trkpt>
      <trkpt lat="38.89595667" lon="1.36818333">
        <ele>44.0</ele>
        <time>2020-06-22T08:48:13.629Z</time>
      </trkpt>
      <trkpt lat="38.89595667" lon="1.36818333">
        <ele>44.0</ele>
        <time>2020-06-22T08:48:14.604Z</time>
      </trkpt>
      <trkpt lat="38.89592833" lon="1.36804">
        <ele>44.0</ele>
        <time>2020-06-22T08:48:15.611Z</time>
      </trkpt>
      <trkpt lat="38.89592833" lon="1.36804">
        <ele>44.0</ele>
        <time>2020-06-22T08:48:16.600Z</time>
      </trkpt>
      <trkpt lat="38.8959" lon="1.36789333">
        <ele>44.0</ele>
        <time>2020-06-22T08:48:17.630Z</time>
      </trkpt>
      <trkpt lat="38.8959" lon="1.36789333">
        <ele>44.0</ele>
        <time>2020-06-22T08:48:18.605Z</time>
      </trkpt>
      <trkpt lat="38.89587167" lon="1.36774833">
        <ele>44.0</ele>
        <time>2020-06-22T08:48:19.619Z</time>
      </trkpt>
      <trkpt lat="38.89587167" lon="1.36774833">
        <ele>44.0</ele>
        <time>2020-06-22T08:48:20.602Z</time>
      </trkpt>
      <trkpt lat="38.895845" lon="1.36760667">
        <ele>44.0</ele>
        <time>2020-06-22T08:48:21.629Z</time>
      </trkpt>
      <trkpt lat="38.89583" lon="1.367535">
        <ele>44.0</ele>
        <time>2020-06-22T08:48:22.595Z</time>
      </trkpt>
      <trkpt lat="38.89583" lon="1.367535">
        <ele>44.0</ele>
        <time>2020-06-22T08:48:23.633Z</time>
      </trkpt>
      <trkpt lat="38.89580333" lon="1.36739">
        <ele>45.0</ele>
        <time>2020-06-22T08:48:24.616Z</time>
      </trkpt>
      <trkpt lat="38.89579" lon="1.36731833">
        <ele>45.0</ele>
        <time>2020-06-22T08:48:25.612Z</time>
      </trkpt>
      <trkpt lat="38.89579" lon="1.36731833">
        <ele>45.0</ele>
        <time>2020-06-22T08:48:26.596Z</time>
      </trkpt>
      <trkpt lat="38.895755" lon="1.36717167">
        <ele>45.0</ele>
        <time>2020-06-22T08:48:27.607Z</time>
      </trkpt>
      <trkpt lat="38.895755" lon="1.36717167">
        <ele>45.0</ele>
        <time>2020-06-22T08:48:28.633Z</time>
      </trkpt>
      <trkpt lat="38.89572667" lon="1.367025">
        <ele>46.0</ele>
        <time>2020-06-22T08:48:29.626Z</time>
      </trkpt>
      <trkpt lat="38.89571333" lon="1.36695333">
        <ele>46.0</ele>
        <time>2020-06-22T08:48:30.627Z</time>
      </trkpt>
      <trkpt lat="38.89571333" lon="1.36695333">
        <ele>46.0</ele>
        <time>2020-06-22T08:48:31.608Z</time>
      </trkpt>
      <trkpt lat="38.89568333" lon="1.36681333">
        <ele>46.0</ele>
        <time>2020-06-22T08:48:32.595Z</time>
      </trkpt>
      <trkpt lat="38.89566833" lon="1.36674167">
        <ele>46.0</ele>
        <time>2020-06-22T08:48:33.625Z</time>
      </trkpt>
      <trkpt lat="38.89566833" lon="1.36674167">
        <ele>46.0</ele>
        <time>2020-06-22T08:48:34.600Z</time>
      </trkpt>
      <trkpt lat="38.89564" lon="1.366595">
        <ele>47.0</ele>
        <time>2020-06-22T08:48:35.613Z</time>
      </trkpt>
      <trkpt lat="38.89564" lon="1.366595">
        <ele>47.0</ele>
        <time>2020-06-22T08:48:36.603Z</time>
      </trkpt>
      <trkpt lat="38.89561" lon="1.36645">
        <ele>47.0</ele>
        <time>2020-06-22T08:48:37.622Z</time>
      </trkpt>
      <trkpt lat="38.895595" lon="1.36637667">
        <ele>47.0</ele>
        <time>2020-06-22T08:48:38.599Z</time>
      </trkpt>
      <trkpt lat="38.895595" lon="1.36637667">
        <ele>47.0</ele>
        <time>2020-06-22T08:48:39.631Z</time>
      </trkpt>
      <trkpt lat="38.89556833" lon="1.36623">
        <ele>47.0</ele>
        <time>2020-06-22T08:48:40.617Z</time>
      </trkpt>
      <trkpt lat="38.89555333" lon="1.36615833">
        <ele>47.0</ele>
        <time>2020-06-22T08:48:41.615Z</time>
      </trkpt>
      <trkpt lat="38.89555333" lon="1.36615833">
        <ele>47.0</ele>
        <time>2020-06-22T08:48:42.596Z</time>
      </trkpt>
      <trkpt lat="38.895525" lon="1.36600833">
        <ele>47.0</ele>
        <time>2020-06-22T08:48:43.595Z</time>
      </trkpt>
      <trkpt lat="38.895525" lon="1.36600833">
        <ele>47.0</ele>
        <time>2020-06-22T08:48:44.631Z</time>
      </trkpt>
      <trkpt lat="38.89549667" lon="1.36586333">
        <ele>47.0</ele>
        <time>2020-06-22T08:48:45.613Z</time>
      </trkpt>
      <trkpt lat="38.89549667" lon="1.36586333">
        <ele>47.0</ele>
        <time>2020-06-22T08:48:46.595Z</time>
      </trkpt>
      <trkpt lat="38.89547" lon="1.36571833">
        <ele>48.0</ele>
        <time>2020-06-22T08:48:47.632Z</time>
      </trkpt>
      <trkpt lat="38.89547" lon="1.36571833">
        <ele>48.0</ele>
        <time>2020-06-22T08:48:48.607Z</time>
      </trkpt>
      <trkpt lat="38.89543833" lon="1.36556833">
        <ele>49.0</ele>
        <time>2020-06-22T08:48:49.622Z</time>
      </trkpt>
      <trkpt lat="38.89543833" lon="1.36556833">
        <ele>49.0</ele>
        <time>2020-06-22T08:48:50.610Z</time>
      </trkpt>
      <trkpt lat="38.89540667" lon="1.36542">
        <ele>49.0</ele>
        <time>2020-06-22T08:48:51.610Z</time>
      </trkpt>
      <trkpt lat="38.89539333" lon="1.36534667">
        <ele>49.0</ele>
        <time>2020-06-22T08:48:52.618Z</time>
      </trkpt>
      <trkpt lat="38.89539333" lon="1.36534667">
        <ele>49.0</ele>
        <time>2020-06-22T08:48:53.633Z</time>
      </trkpt>
      <trkpt lat="38.89536667" lon="1.3652">
        <ele>49.0</ele>
        <time>2020-06-22T08:48:54.627Z</time>
      </trkpt>
      <trkpt lat="38.89535167" lon="1.36512833">
        <ele>49.0</ele>
        <time>2020-06-22T08:48:55.606Z</time>
      </trkpt>
      <trkpt lat="38.89535167" lon="1.36512833">
        <ele>49.0</ele>
        <time>2020-06-22T08:48:56.599Z</time>
      </trkpt>
      <trkpt lat="38.89532333" lon="1.36498333">
        <ele>50.0</ele>
        <time>2020-06-22T08:48:57.626Z</time>
      </trkpt>
      <trkpt lat="38.89531" lon="1.36491">
        <ele>50.0</ele>
        <time>2020-06-22T08:48:58.605Z</time>
      </trkpt>
      <trkpt lat="38.89531" lon="1.36491">
        <ele>50.0</ele>
        <time>2020-06-22T08:48:59.633Z</time>
      </trkpt>
      <trkpt lat="38.89528167" lon="1.36476333">
        <ele>50.0</ele>
        <time>2020-06-22T08:49:00.616Z</time>
      </trkpt>
      <trkpt lat="38.89528167" lon="1.36476333">
        <ele>50.0</ele>
        <time>2020-06-22T08:49:01.598Z</time>
      </trkpt>
      <trkpt lat="38.895255" lon="1.36461833">
        <ele>50.0</ele>
        <time>2020-06-22T08:49:02.627Z</time>
      </trkpt>
      <trkpt lat="38.895255" lon="1.36461833">
        <ele>50.0</ele>
        <time>2020-06-22T08:49:03.604Z</time>
      </trkpt>
      <trkpt lat="38.895225" lon="1.36447167">
        <ele>50.0</ele>
        <time>2020-06-22T08:49:04.627Z</time>
      </trkpt>
      <trkpt lat="38.89521" lon="1.36439833">
        <ele>50.0</ele>
        <time>2020-06-22T08:49:05.622Z</time>
      </trkpt>
      <trkpt lat="38.89521" lon="1.36439833">
        <ele>50.0</ele>
        <time>2020-06-22T08:49:06.606Z</time>
      </trkpt>
      <trkpt lat="38.89518" lon="1.36424833">
        <ele>50.0</ele>
        <time>2020-06-22T08:49:07.628Z</time>
      </trkpt>
      <trkpt lat="38.89518" lon="1.36424833">
        <ele>50.0</ele>
        <time>2020-06-22T08:49:08.603Z</time>
      </trkpt>
      <trkpt lat="38.89515167" lon="1.364095">
        <ele>50.0</ele>
        <time>2020-06-22T08:49:09.611Z</time>
      </trkpt>
      <trkpt lat="38.89515167" lon="1.364095">
        <ele>50.0</ele>
        <time>2020-06-22T08:49:10.599Z</time>
      </trkpt>
      <trkpt lat="38.89512167" lon="1.36394">
        <ele>50.0</ele>
        <time>2020-06-22T08:49:11.626Z</time>
      </trkpt>
      <trkpt lat="38.89512167" lon="1.36394">
        <ele>50.0</ele>
        <time>2020-06-22T08:49:12.601Z</time>
      </trkpt>
      <trkpt lat="38.89509" lon="1.363785">
        <ele>50.0</ele>
        <time>2020-06-22T08:49:13.612Z</time>
      </trkpt>
      <trkpt lat="38.895075" lon="1.36370667">
        <ele>50.0</ele>
        <time>2020-06-22T08:49:14.621Z</time>
      </trkpt>
      <trkpt lat="38.895075" lon="1.36370667">
        <ele>50.0</ele>
        <time>2020-06-22T08:49:15.598Z</time>
      </trkpt>
      <trkpt lat="38.89504333" lon="1.36355167">
        <ele>50.0</ele>
        <time>2020-06-22T08:49:16.610Z</time>
      </trkpt>
      <trkpt lat="38.89502833" lon="1.363475">
        <ele>50.0</ele>
        <time>2020-06-22T08:49:17.626Z</time>
      </trkpt>
      <trkpt lat="38.89502833" lon="1.363475">
        <ele>50.0</ele>
        <time>2020-06-22T08:49:18.613Z</time>
      </trkpt>
      <trkpt lat="38.895" lon="1.36331667">
        <ele>50.0</ele>
        <time>2020-06-22T08:49:19.635Z</time>
      </trkpt>
      <trkpt lat="38.895" lon="1.36331667">
        <ele>50.0</ele>
        <time>2020-06-22T08:49:20.615Z</time>
      </trkpt>
      <trkpt lat="38.89496833" lon="1.36315833">
        <ele>51.0</ele>
        <time>2020-06-22T08:49:21.597Z</time>
      </trkpt>
      <trkpt lat="38.89495333" lon="1.36308">
        <ele>51.0</ele>
        <time>2020-06-22T08:49:22.614Z</time>
      </trkpt>
      <trkpt lat="38.89495333" lon="1.36308">
        <ele>51.0</ele>
        <time>2020-06-22T08:49:23.633Z</time>
      </trkpt>
      <trkpt lat="38.89492167" lon="1.36292333">
        <ele>51.0</ele>
        <time>2020-06-22T08:49:24.614Z</time>
      </trkpt>
      <trkpt lat="38.894905" lon="1.36284333">
        <ele>51.0</ele>
        <time>2020-06-22T08:49:25.626Z</time>
      </trkpt>
      <trkpt lat="38.89488833" lon="1.362765">
        <ele>51.0</ele>
        <time>2020-06-22T08:49:26.606Z</time>
      </trkpt>
      <trkpt lat="38.89488833" lon="1.362765">
        <ele>51.0</ele>
        <time>2020-06-22T08:49:27.631Z</time>
      </trkpt>
      <trkpt lat="38.89485833" lon="1.36260667">
        <ele>51.0</ele>
        <time>2020-06-22T08:49:28.617Z</time>
      </trkpt>
      <trkpt lat="38.89485833" lon="1.36260667">
        <ele>51.0</ele>
        <time>2020-06-22T08:49:29.594Z</time>
      </trkpt>
      <trkpt lat="38.89482833" lon="1.362445">
        <ele>51.0</ele>
        <time>2020-06-22T08:49:30.632Z</time>
      </trkpt>
      <trkpt lat="38.89482833" lon="1.362445">
        <ele>51.0</ele>
        <time>2020-06-22T08:49:31.608Z</time>
      </trkpt>
      <trkpt lat="38.89479667" lon="1.36228333">
        <ele>51.0</ele>
        <time>2020-06-22T08:49:32.621Z</time>
      </trkpt>
      <trkpt lat="38.89479667" lon="1.36228333">
        <ele>51.0</ele>
        <time>2020-06-22T08:49:33.596Z</time>
      </trkpt>
      <trkpt lat="38.894765" lon="1.36212167">
        <ele>51.0</ele>
        <time>2020-06-22T08:49:34.626Z</time>
      </trkpt>
      <trkpt lat="38.89475" lon="1.36204167">
        <ele>51.0</ele>
        <time>2020-06-22T08:49:35.611Z</time>
      </trkpt>
      <trkpt lat="38.89475" lon="1.36204167">
        <ele>51.0</ele>
        <time>2020-06-22T08:49:36.594Z</time>
      </trkpt>
      <trkpt lat="38.89471667" lon="1.36187833">
        <ele>51.0</ele>
        <time>2020-06-22T08:49:37.614Z</time>
      </trkpt>
      <trkpt lat="38.8947" lon="1.36179667">
        <ele>50.0</ele>
        <time>2020-06-22T08:49:38.627Z</time>
      </trkpt>
      <trkpt lat="38.8947" lon="1.36179667">
        <ele>50.0</ele>
        <time>2020-06-22T08:49:39.603Z</time>
      </trkpt>
      <trkpt lat="38.89466833" lon="1.36163167">
        <ele>50.0</ele>
        <time>2020-06-22T08:49:40.632Z</time>
      </trkpt>
      <trkpt lat="38.89465333" lon="1.36154833">
        <ele>50.0</ele>
        <time>2020-06-22T08:49:41.598Z</time>
      </trkpt>
      <trkpt lat="38.89465333" lon="1.36154833">
        <ele>50.0</ele>
        <time>2020-06-22T08:49:42.630Z</time>
      </trkpt>
      <trkpt lat="38.89462" lon="1.36138167">
        <ele>50.0</ele>
        <time>2020-06-22T08:49:43.625Z</time>
      </trkpt>
      <trkpt lat="38.89460333" lon="1.36129667">
        <ele>50.0</ele>
        <time>2020-06-22T08:49:44.605Z</time>
      </trkpt>
      <trkpt lat="38.89460333" lon="1.36129667">
        <ele>50.0</ele>
        <time>2020-06-22T08:49:45.594Z</time>
      </trkpt>
      <trkpt lat="38.89457333" lon="1.36112833">
        <ele>50.0</ele>
        <time>2020-06-22T08:49:46.602Z</time>
      </trkpt>
      <trkpt lat="38.89457333" lon="1.36112833">
        <ele>50.0</ele>
        <time>2020-06-22T08:49:47.607Z</time>
      </trkpt>
      <trkpt lat="38.89454833" lon="1.36095833">
        <ele>50.0</ele>
        <time>2020-06-22T08:49:48.621Z</time>
      </trkpt>
      <trkpt lat="38.894535" lon="1.360875">
        <ele>50.0</ele>
        <time>2020-06-22T08:49:49.600Z</time>
      </trkpt>
      <trkpt lat="38.894535" lon="1.360875">
        <ele>50.0</ele>
        <time>2020-06-22T08:49:50.604Z</time>
      </trkpt>
      <trkpt lat="38.89450667" lon="1.36070667">
        <ele>49.0</ele>
        <time>2020-06-22T08:49:51.601Z</time>
      </trkpt>
      <trkpt lat="38.89449167" lon="1.36062333">
        <ele>49.0</ele>
        <time>2020-06-22T08:49:52.616Z</time>
      </trkpt>
      <trkpt lat="38.89449167" lon="1.36062333">
        <ele>49.0</ele>
        <time>2020-06-22T08:49:53.594Z</time>
      </trkpt>
      <trkpt lat="38.89446167" lon="1.360455">
        <ele>49.0</ele>
        <time>2020-06-22T08:49:54.626Z</time>
      </trkpt>
      <trkpt lat="38.894445" lon="1.36037">
        <ele>49.0</ele>
        <time>2020-06-22T08:49:55.618Z</time>
      </trkpt>
      <trkpt lat="38.89442833" lon="1.360285">
        <ele>49.0</ele>
        <time>2020-06-22T08:49:56.626Z</time>
      </trkpt>
      <trkpt lat="38.89442833" lon="1.360285">
        <ele>49.0</ele>
        <time>2020-06-22T08:49:57.594Z</time>
      </trkpt>
      <trkpt lat="38.894395" lon="1.36011667">
        <ele>49.0</ele>
        <time>2020-06-22T08:49:58.600Z</time>
      </trkpt>
      <trkpt lat="38.89437667" lon="1.36003167">
        <ele>49.0</ele>
        <time>2020-06-22T08:49:59.614Z</time>
      </trkpt>
      <trkpt lat="38.89436" lon="1.35994667">
        <ele>49.0</ele>
        <time>2020-06-22T08:50:00.599Z</time>
      </trkpt>
      <trkpt lat="38.89434333" lon="1.35986">
        <ele>49.0</ele>
        <time>2020-06-22T08:50:01.616Z</time>
      </trkpt>
      <trkpt lat="38.89434333" lon="1.35986">
        <ele>49.0</ele>
        <time>2020-06-22T08:50:02.633Z</time>
      </trkpt>
      <trkpt lat="38.89430667" lon="1.35968667">
        <ele>49.0</ele>
        <time>2020-06-22T08:50:03.630Z</time>
      </trkpt>
      <trkpt lat="38.89430667" lon="1.35968667">
        <ele>49.0</ele>
        <time>2020-06-22T08:50:04.605Z</time>
      </trkpt>
      <trkpt lat="38.894275" lon="1.35951167">
        <ele>49.0</ele>
        <time>2020-06-22T08:50:05.621Z</time>
      </trkpt>
      <trkpt lat="38.894275" lon="1.35951167">
        <ele>49.0</ele>
        <time>2020-06-22T08:50:06.597Z</time>
      </trkpt>
      <trkpt lat="38.89423833" lon="1.35934">
        <ele>48.0</ele>
        <time>2020-06-22T08:50:07.616Z</time>
      </trkpt>
      <trkpt lat="38.89422" lon="1.35925333">
        <ele>48.0</ele>
        <time>2020-06-22T08:50:08.611Z</time>
      </trkpt>
      <trkpt lat="38.89422" lon="1.35925333">
        <ele>48.0</ele>
        <time>2020-06-22T08:50:09.633Z</time>
      </trkpt>
      <trkpt lat="38.89416833" lon="1.359085">
        <ele>48.0</ele>
        <time>2020-06-22T08:50:10.617Z</time>
      </trkpt>
      <trkpt lat="38.89416833" lon="1.359085">
        <ele>48.0</ele>
        <time>2020-06-22T08:50:11.594Z</time>
      </trkpt>
      <trkpt lat="38.89410833" lon="1.35892">
        <ele>48.0</ele>
        <time>2020-06-22T08:50:12.627Z</time>
      </trkpt>
      <trkpt lat="38.89408167" lon="1.358835">
        <ele>48.0</ele>
        <time>2020-06-22T08:50:13.611Z</time>
      </trkpt>
      <trkpt lat="38.894065" lon="1.358745">
        <ele>48.0</ele>
        <time>2020-06-22T08:50:14.625Z</time>
      </trkpt>
      <trkpt lat="38.894065" lon="1.358745">
        <ele>48.0</ele>
        <time>2020-06-22T08:50:15.605Z</time>
      </trkpt>
      <trkpt lat="38.89405167" lon="1.35855667">
        <ele>48.0</ele>
        <time>2020-06-22T08:50:16.632Z</time>
      </trkpt>
      <trkpt lat="38.89405167" lon="1.35855667">
        <ele>48.0</ele>
        <time>2020-06-22T08:50:17.607Z</time>
      </trkpt>
      <trkpt lat="38.89404333" lon="1.35836333">
        <ele>48.0</ele>
        <time>2020-06-22T08:50:18.627Z</time>
      </trkpt>
      <trkpt lat="38.89403167" lon="1.35826667">
        <ele>47.0</ele>
        <time>2020-06-22T08:50:19.623Z</time>
      </trkpt>
      <trkpt lat="38.894015" lon="1.35817">
        <ele>47.0</ele>
        <time>2020-06-22T08:50:20.626Z</time>
      </trkpt>
      <trkpt lat="38.894015" lon="1.35817">
        <ele>47.0</ele>
        <time>2020-06-22T08:50:21.611Z</time>
      </trkpt>
      <trkpt lat="38.893975" lon="1.35797167">
        <ele>47.0</ele>
        <time>2020-06-22T08:50:22.615Z</time>
      </trkpt>
      <trkpt lat="38.893955" lon="1.357875">
        <ele>47.0</ele>
        <time>2020-06-22T08:50:23.594Z</time>
      </trkpt>
      <trkpt lat="38.893955" lon="1.357875">
        <ele>47.0</ele>
        <time>2020-06-22T08:50:24.623Z</time>
      </trkpt>
      <trkpt lat="38.893915" lon="1.35768167">
        <ele>47.0</ele>
        <time>2020-06-22T08:50:25.606Z</time>
      </trkpt>
      <trkpt lat="38.89389667" lon="1.35758333">
        <ele>47.0</ele>
        <time>2020-06-22T08:50:26.616Z</time>
      </trkpt>
      <trkpt lat="38.89389667" lon="1.35758333">
        <ele>47.0</ele>
        <time>2020-06-22T08:50:27.607Z</time>
      </trkpt>
      <trkpt lat="38.89385667" lon="1.35738833">
        <ele>47.0</ele>
        <time>2020-06-22T08:50:28.616Z</time>
      </trkpt>
      <trkpt lat="38.89383667" lon="1.35729">
        <ele>47.0</ele>
        <time>2020-06-22T08:50:29.616Z</time>
      </trkpt>
      <trkpt lat="38.89383667" lon="1.35729">
        <ele>47.0</ele>
        <time>2020-06-22T08:50:30.616Z</time>
      </trkpt>
      <trkpt lat="38.89379667" lon="1.35709333">
        <ele>47.0</ele>
        <time>2020-06-22T08:50:31.628Z</time>
      </trkpt>
      <trkpt lat="38.89379667" lon="1.35709333">
        <ele>47.0</ele>
        <time>2020-06-22T08:50:32.603Z</time>
      </trkpt>
      <trkpt lat="38.89375667" lon="1.35689667">
        <ele>47.0</ele>
        <time>2020-06-22T08:50:33.613Z</time>
      </trkpt>
      <trkpt lat="38.89375667" lon="1.35689667">
        <ele>47.0</ele>
        <time>2020-06-22T08:50:34.594Z</time>
      </trkpt>
      <trkpt lat="38.89371667" lon="1.35670167">
        <ele>47.0</ele>
        <time>2020-06-22T08:50:35.614Z</time>
      </trkpt>
      <trkpt lat="38.89369667" lon="1.356605">
        <ele>46.0</ele>
        <time>2020-06-22T08:50:36.619Z</time>
      </trkpt>
      <trkpt lat="38.89369667" lon="1.356605">
        <ele>46.0</ele>
        <time>2020-06-22T08:50:37.594Z</time>
      </trkpt>
      <trkpt lat="38.89365833" lon="1.35641333">
        <ele>47.0</ele>
        <time>2020-06-22T08:50:38.594Z</time>
      </trkpt>
      <trkpt lat="38.89365833" lon="1.35641333">
        <ele>47.0</ele>
        <time>2020-06-22T08:50:39.610Z</time>
      </trkpt>
      <trkpt lat="38.89362" lon="1.35622333">
        <ele>47.0</ele>
        <time>2020-06-22T08:50:40.618Z</time>
      </trkpt>
      <trkpt lat="38.8936" lon="1.35612833">
        <ele>47.0</ele>
        <time>2020-06-22T08:50:41.602Z</time>
      </trkpt>
      <trkpt lat="38.8936" lon="1.35612833">
        <ele>47.0</ele>
        <time>2020-06-22T08:50:42.594Z</time>
      </trkpt>
      <trkpt lat="38.89356167" lon="1.35593833">
        <ele>47.0</ele>
        <time>2020-06-22T08:50:43.600Z</time>
      </trkpt>
      <trkpt lat="38.89354167" lon="1.35584333">
        <ele>47.0</ele>
        <time>2020-06-22T08:50:44.616Z</time>
      </trkpt>
      <trkpt lat="38.89354167" lon="1.35584333">
        <ele>47.0</ele>
        <time>2020-06-22T08:50:45.632Z</time>
      </trkpt>
      <trkpt lat="38.89350333" lon="1.355655">
        <ele>47.0</ele>
        <time>2020-06-22T08:50:46.626Z</time>
      </trkpt>
      <trkpt lat="38.89350333" lon="1.355655">
        <ele>47.0</ele>
        <time>2020-06-22T08:50:47.603Z</time>
      </trkpt>
      <trkpt lat="38.893465" lon="1.35546667">
        <ele>47.0</ele>
        <time>2020-06-22T08:50:48.626Z</time>
      </trkpt>
      <trkpt lat="38.89344667" lon="1.35537167">
        <ele>47.0</ele>
        <time>2020-06-22T08:50:49.628Z</time>
      </trkpt>
      <trkpt lat="38.89342667" lon="1.35527833">
        <ele>47.0</ele>
        <time>2020-06-22T08:50:50.597Z</time>
      </trkpt>
      <trkpt lat="38.89340667" lon="1.35518333">
        <ele>47.0</ele>
        <time>2020-06-22T08:50:51.626Z</time>
      </trkpt>
      <trkpt lat="38.89340667" lon="1.35518333">
        <ele>47.0</ele>
        <time>2020-06-22T08:50:52.608Z</time>
      </trkpt>
      <trkpt lat="38.89336833" lon="1.35499667">
        <ele>47.0</ele>
        <time>2020-06-22T08:50:53.602Z</time>
      </trkpt>
      <trkpt lat="38.89336833" lon="1.35499667">
        <ele>47.0</ele>
        <time>2020-06-22T08:50:54.633Z</time>
      </trkpt>
      <trkpt lat="38.89332833" lon="1.354815">
        <ele>47.0</ele>
        <time>2020-06-22T08:50:55.615Z</time>
      </trkpt>
      <trkpt lat="38.89330833" lon="1.35472333">
        <ele>47.0</ele>
        <time>2020-06-22T08:50:56.627Z</time>
      </trkpt>
      <trkpt lat="38.89330833" lon="1.35472333">
        <ele>47.0</ele>
        <time>2020-06-22T08:50:57.603Z</time>
      </trkpt>
      <trkpt lat="38.89327167" lon="1.35453833">
        <ele>47.0</ele>
        <time>2020-06-22T08:50:58.626Z</time>
      </trkpt>
      <trkpt lat="38.89325333" lon="1.354445">
        <ele>47.0</ele>
        <time>2020-06-22T08:50:59.606Z</time>
      </trkpt>
      <trkpt lat="38.89325333" lon="1.354445">
        <ele>47.0</ele>
        <time>2020-06-22T08:51:00.627Z</time>
      </trkpt>
      <trkpt lat="38.893215" lon="1.35426167">
        <ele>47.0</ele>
        <time>2020-06-22T08:51:01.621Z</time>
      </trkpt>
      <trkpt lat="38.893215" lon="1.35426167">
        <ele>47.0</ele>
        <time>2020-06-22T08:51:02.597Z</time>
      </trkpt>
      <trkpt lat="38.89317667" lon="1.35408">
        <ele>47.0</ele>
        <time>2020-06-22T08:51:03.630Z</time>
      </trkpt>
      <trkpt lat="38.893155" lon="1.35398833">
        <ele>47.0</ele>
        <time>2020-06-22T08:51:04.625Z</time>
      </trkpt>
      <trkpt lat="38.893155" lon="1.35398833">
        <ele>47.0</ele>
        <time>2020-06-22T08:51:05.601Z</time>
      </trkpt>
      <trkpt lat="38.89311667" lon="1.35380667">
        <ele>47.0</ele>
        <time>2020-06-22T08:51:06.626Z</time>
      </trkpt>
      <trkpt lat="38.89311667" lon="1.35380667">
        <ele>47.0</ele>
        <time>2020-06-22T08:51:07.602Z</time>
      </trkpt>
      <trkpt lat="38.89308167" lon="1.353625">
        <ele>47.0</ele>
        <time>2020-06-22T08:51:08.616Z</time>
      </trkpt>
      <trkpt lat="38.89306333" lon="1.35353667">
        <ele>47.0</ele>
        <time>2020-06-22T08:51:09.599Z</time>
      </trkpt>
      <trkpt lat="38.89304333" lon="1.35344833">
        <ele>47.0</ele>
        <time>2020-06-22T08:51:10.624Z</time>
      </trkpt>
      <trkpt lat="38.89304333" lon="1.35344833">
        <ele>47.0</ele>
        <time>2020-06-22T08:51:11.629Z</time>
      </trkpt>
      <trkpt lat="38.89300667" lon="1.35327">
        <ele>47.0</ele>
        <time>2020-06-22T08:51:12.627Z</time>
      </trkpt>
      <trkpt lat="38.89300667" lon="1.35327">
        <ele>47.0</ele>
        <time>2020-06-22T08:51:13.603Z</time>
      </trkpt>
      <trkpt lat="38.89296667" lon="1.35309833">
        <ele>48.0</ele>
        <time>2020-06-22T08:51:14.620Z</time>
      </trkpt>
      <trkpt lat="38.89296667" lon="1.35309833">
        <ele>48.0</ele>
        <time>2020-06-22T08:51:15.626Z</time>
      </trkpt>
      <trkpt lat="38.89292833" lon="1.35292167">
        <ele>48.0</ele>
        <time>2020-06-22T08:51:16.633Z</time>
      </trkpt>
      <trkpt lat="38.89291" lon="1.352835">
        <ele>48.0</ele>
        <time>2020-06-22T08:51:17.609Z</time>
      </trkpt>
      <trkpt lat="38.89291" lon="1.352835">
        <ele>48.0</ele>
        <time>2020-06-22T08:51:18.598Z</time>
      </trkpt>
      <trkpt lat="38.892875" lon="1.35266167">
        <ele>48.0</ele>
        <time>2020-06-22T08:51:19.598Z</time>
      </trkpt>
      <trkpt lat="38.89285667" lon="1.35257667">
        <ele>48.0</ele>
        <time>2020-06-22T08:51:20.616Z</time>
      </trkpt>
      <trkpt lat="38.89285667" lon="1.35257667">
        <ele>48.0</ele>
        <time>2020-06-22T08:51:21.608Z</time>
      </trkpt>
      <trkpt lat="38.89282" lon="1.35240833">
        <ele>48.0</ele>
        <time>2020-06-22T08:51:22.606Z</time>
      </trkpt>
      <trkpt lat="38.89282" lon="1.35240833">
        <ele>48.0</ele>
        <time>2020-06-22T08:51:23.624Z</time>
      </trkpt>
      <trkpt lat="38.89278667" lon="1.35224333">
        <ele>48.0</ele>
        <time>2020-06-22T08:51:24.596Z</time>
      </trkpt>
      <trkpt lat="38.89278667" lon="1.35224333">
        <ele>48.0</ele>
        <time>2020-06-22T08:51:25.612Z</time>
      </trkpt>
      <trkpt lat="38.892755" lon="1.35207833">
        <ele>49.0</ele>
        <time>2020-06-22T08:51:26.629Z</time>
      </trkpt>
      <trkpt lat="38.892755" lon="1.35207833">
        <ele>49.0</ele>
        <time>2020-06-22T08:51:27.618Z</time>
      </trkpt>
      <trkpt lat="38.89272167" lon="1.35191667">
        <ele>49.0</ele>
        <time>2020-06-22T08:51:28.615Z</time>
      </trkpt>
      <trkpt lat="38.892705" lon="1.35183667">
        <ele>49.0</ele>
        <time>2020-06-22T08:51:29.626Z</time>
      </trkpt>
      <trkpt lat="38.892705" lon="1.35183667">
        <ele>49.0</ele>
        <time>2020-06-22T08:51:30.626Z</time>
      </trkpt>
      <trkpt lat="38.89266833" lon="1.35167833">
        <ele>49.0</ele>
        <time>2020-06-22T08:51:31.618Z</time>
      </trkpt>
      <trkpt lat="38.89265167" lon="1.3516">
        <ele>50.0</ele>
        <time>2020-06-22T08:51:32.627Z</time>
      </trkpt>
      <trkpt lat="38.89265167" lon="1.3516">
        <ele>50.0</ele>
        <time>2020-06-22T08:51:33.602Z</time>
      </trkpt>
      <trkpt lat="38.89262" lon="1.35144333">
        <ele>50.0</ele>
        <time>2020-06-22T08:51:34.596Z</time>
      </trkpt>
      <trkpt lat="38.89262" lon="1.35144333">
        <ele>50.0</ele>
        <time>2020-06-22T08:51:35.633Z</time>
      </trkpt>
      <trkpt lat="38.89258833" lon="1.35128833">
        <ele>51.0</ele>
        <time>2020-06-22T08:51:36.616Z</time>
      </trkpt>
      <trkpt lat="38.89257333" lon="1.35120833">
        <ele>51.0</ele>
        <time>2020-06-22T08:51:37.625Z</time>
      </trkpt>
      <trkpt lat="38.89255833" lon="1.35113">
        <ele>51.0</ele>
        <time>2020-06-22T08:51:38.608Z</time>
      </trkpt>
      <trkpt lat="38.89255833" lon="1.35113">
        <ele>51.0</ele>
        <time>2020-06-22T08:51:39.633Z</time>
      </trkpt>
      <trkpt lat="38.89252667" lon="1.35097667">
        <ele>51.0</ele>
        <time>2020-06-22T08:51:40.601Z</time>
      </trkpt>
      <trkpt lat="38.89252667" lon="1.35097667">
        <ele>51.0</ele>
        <time>2020-06-22T08:51:41.594Z</time>
      </trkpt>
      <trkpt lat="38.892495" lon="1.35082167">
        <ele>51.0</ele>
        <time>2020-06-22T08:51:42.627Z</time>
      </trkpt>
      <trkpt lat="38.892495" lon="1.35082167">
        <ele>51.0</ele>
        <time>2020-06-22T08:51:43.604Z</time>
      </trkpt>
      <trkpt lat="38.89246" lon="1.35066">
        <ele>52.0</ele>
        <time>2020-06-22T08:51:44.616Z</time>
      </trkpt>
      <trkpt lat="38.89246" lon="1.35066">
        <ele>52.0</ele>
        <time>2020-06-22T08:51:45.598Z</time>
      </trkpt>
      <trkpt lat="38.892435" lon="1.35049667">
        <ele>52.0</ele>
        <time>2020-06-22T08:51:46.598Z</time>
      </trkpt>
      <trkpt lat="38.892435" lon="1.35049667">
        <ele>52.0</ele>
        <time>2020-06-22T08:51:47.633Z</time>
      </trkpt>
      <trkpt lat="38.89240833" lon="1.35033333">
        <ele>53.0</ele>
        <time>2020-06-22T08:51:48.628Z</time>
      </trkpt>
      <trkpt lat="38.89240833" lon="1.35033333">
        <ele>53.0</ele>
        <time>2020-06-22T08:51:49.630Z</time>
      </trkpt>
      <trkpt lat="38.89238167" lon="1.35017333">
        <ele>54.0</ele>
        <time>2020-06-22T08:51:50.616Z</time>
      </trkpt>
      <trkpt lat="38.89237" lon="1.35009167">
        <ele>54.0</ele>
        <time>2020-06-22T08:51:51.606Z</time>
      </trkpt>
      <trkpt lat="38.89237" lon="1.35009167">
        <ele>54.0</ele>
        <time>2020-06-22T08:51:52.633Z</time>
      </trkpt>
      <trkpt lat="38.89234667" lon="1.34993">
        <ele>55.0</ele>
        <time>2020-06-22T08:51:53.626Z</time>
      </trkpt>
      <trkpt lat="38.89234667" lon="1.34993">
        <ele>55.0</ele>
        <time>2020-06-22T08:51:54.602Z</time>
      </trkpt>
      <trkpt lat="38.892325" lon="1.349765">
        <ele>55.0</ele>
        <time>2020-06-22T08:51:55.616Z</time>
      </trkpt>
      <trkpt lat="38.892325" lon="1.349765">
        <ele>55.0</ele>
        <time>2020-06-22T08:51:56.598Z</time>
      </trkpt>
      <trkpt lat="38.89230833" lon="1.34959833">
        <ele>56.0</ele>
        <time>2020-06-22T08:51:57.627Z</time>
      </trkpt>
      <trkpt lat="38.89230833" lon="1.34959833">
        <ele>56.0</ele>
        <time>2020-06-22T08:51:58.602Z</time>
      </trkpt>
      <trkpt lat="38.89229167" lon="1.34942667">
        <ele>56.0</ele>
        <time>2020-06-22T08:51:59.616Z</time>
      </trkpt>
      <trkpt lat="38.89229167" lon="1.34942667">
        <ele>56.0</ele>
        <time>2020-06-22T08:52:00.627Z</time>
      </trkpt>
      <trkpt lat="38.89227833" lon="1.34925667">
        <ele>56.0</ele>
        <time>2020-06-22T08:52:01.615Z</time>
      </trkpt>
      <trkpt lat="38.89227833" lon="1.34925667">
        <ele>56.0</ele>
        <time>2020-06-22T08:52:02.631Z</time>
      </trkpt>
      <trkpt lat="38.89226667" lon="1.34908667">
        <ele>57.0</ele>
        <time>2020-06-22T08:52:03.616Z</time>
      </trkpt>
      <trkpt lat="38.89226667" lon="1.34908667">
        <ele>57.0</ele>
        <time>2020-06-22T08:52:04.594Z</time>
      </trkpt>
      <trkpt lat="38.89225667" lon="1.34891667">
        <ele>57.0</ele>
        <time>2020-06-22T08:52:05.626Z</time>
      </trkpt>
      <trkpt lat="38.89225667" lon="1.34891667">
        <ele>57.0</ele>
        <time>2020-06-22T08:52:06.601Z</time>
      </trkpt>
      <trkpt lat="38.89225333" lon="1.34875">
        <ele>57.0</ele>
        <time>2020-06-22T08:52:07.631Z</time>
      </trkpt>
      <trkpt lat="38.89225167" lon="1.34866667">
        <ele>57.0</ele>
        <time>2020-06-22T08:52:08.604Z</time>
      </trkpt>
      <trkpt lat="38.89225167" lon="1.34866667">
        <ele>57.0</ele>
        <time>2020-06-22T08:52:09.633Z</time>
      </trkpt>
      <trkpt lat="38.89224833" lon="1.3485">
        <ele>57.0</ele>
        <time>2020-06-22T08:52:10.624Z</time>
      </trkpt>
      <trkpt lat="38.89224833" lon="1.3485">
        <ele>57.0</ele>
        <time>2020-06-22T08:52:11.599Z</time>
      </trkpt>
      <trkpt lat="38.89225" lon="1.34833333">
        <ele>58.0</ele>
        <time>2020-06-22T08:52:12.627Z</time>
      </trkpt>
      <trkpt lat="38.89225" lon="1.34833333">
        <ele>58.0</ele>
        <time>2020-06-22T08:52:13.603Z</time>
      </trkpt>
      <trkpt lat="38.89224833" lon="1.348165">
        <ele>58.0</ele>
        <time>2020-06-22T08:52:14.597Z</time>
      </trkpt>
      <trkpt lat="38.89224833" lon="1.348165">
        <ele>58.0</ele>
        <time>2020-06-22T08:52:15.594Z</time>
      </trkpt>
      <trkpt lat="38.89225" lon="1.34799833">
        <ele>58.0</ele>
        <time>2020-06-22T08:52:16.616Z</time>
      </trkpt>
      <trkpt lat="38.89225" lon="1.34799833">
        <ele>58.0</ele>
        <time>2020-06-22T08:52:17.633Z</time>
      </trkpt>
      <trkpt lat="38.89225333" lon="1.34782833">
        <ele>58.0</ele>
        <time>2020-06-22T08:52:18.596Z</time>
      </trkpt>
      <trkpt lat="38.89225333" lon="1.34782833">
        <ele>58.0</ele>
        <time>2020-06-22T08:52:19.618Z</time>
      </trkpt>
      <trkpt lat="38.89226" lon="1.34766">
        <ele>58.0</ele>
        <time>2020-06-22T08:52:20.618Z</time>
      </trkpt>
      <trkpt lat="38.89226167" lon="1.34757333">
        <ele>58.0</ele>
        <time>2020-06-22T08:52:21.629Z</time>
      </trkpt>
      <trkpt lat="38.89226167" lon="1.34757333">
        <ele>58.0</ele>
        <time>2020-06-22T08:52:22.601Z</time>
      </trkpt>
      <trkpt lat="38.89226833" lon="1.34740167">
        <ele>58.0</ele>
        <time>2020-06-22T08:52:23.627Z</time>
      </trkpt>
      <trkpt lat="38.89226833" lon="1.34740167">
        <ele>58.0</ele>
        <time>2020-06-22T08:52:24.602Z</time>
      </trkpt>
      <trkpt lat="38.892275" lon="1.34722833">
        <ele>58.0</ele>
        <time>2020-06-22T08:52:25.633Z</time>
      </trkpt>
      <trkpt lat="38.89227833" lon="1.34714167">
        <ele>58.0</ele>
        <time>2020-06-22T08:52:26.616Z</time>
      </trkpt>
      <trkpt lat="38.89227833" lon="1.34714167">
        <ele>58.0</ele>
        <time>2020-06-22T08:52:27.597Z</time>
      </trkpt>
      <trkpt lat="38.89228333" lon="1.34696833">
        <ele>58.0</ele>
        <time>2020-06-22T08:52:28.596Z</time>
      </trkpt>
      <trkpt lat="38.89228333" lon="1.34696833">
        <ele>58.0</ele>
        <time>2020-06-22T08:52:29.614Z</time>
      </trkpt>
      <trkpt lat="38.89228833" lon="1.34679333">
        <ele>58.0</ele>
        <time>2020-06-22T08:52:30.606Z</time>
      </trkpt>
      <trkpt lat="38.89228833" lon="1.34679333">
        <ele>58.0</ele>
        <time>2020-06-22T08:52:31.631Z</time>
      </trkpt>
      <trkpt lat="38.89229167" lon="1.34661833">
        <ele>59.0</ele>
        <time>2020-06-22T08:52:32.616Z</time>
      </trkpt>
      <trkpt lat="38.89229167" lon="1.34661833">
        <ele>59.0</ele>
        <time>2020-06-22T08:52:33.594Z</time>
      </trkpt>
      <trkpt lat="38.892295" lon="1.346445">
        <ele>59.0</ele>
        <time>2020-06-22T08:52:34.595Z</time>
      </trkpt>
      <trkpt lat="38.892295" lon="1.346445">
        <ele>59.0</ele>
        <time>2020-06-22T08:52:35.610Z</time>
      </trkpt>
      <trkpt lat="38.89230333" lon="1.34627333">
        <ele>59.0</ele>
        <time>2020-06-22T08:52:36.598Z</time>
      </trkpt>
      <trkpt lat="38.89230667" lon="1.34618833">
        <ele>59.0</ele>
        <time>2020-06-22T08:52:37.606Z</time>
      </trkpt>
      <trkpt lat="38.89230667" lon="1.34618833">
        <ele>59.0</ele>
        <time>2020-06-22T08:52:38.594Z</time>
      </trkpt>
      <trkpt lat="38.89231333" lon="1.34602167">
        <ele>59.0</ele>
        <time>2020-06-22T08:52:39.624Z</time>
      </trkpt>
      <trkpt lat="38.89231833" lon="1.34593833">
        <ele>59.0</ele>
        <time>2020-06-22T08:52:40.627Z</time>
      </trkpt>
      <trkpt lat="38.89231833" lon="1.34593833">
        <ele>59.0</ele>
        <time>2020-06-22T08:52:41.603Z</time>
      </trkpt>
      <trkpt lat="38.89233" lon="1.34577">
        <ele>59.0</ele>
        <time>2020-06-22T08:52:42.596Z</time>
      </trkpt>
      <trkpt lat="38.89233833" lon="1.34568833">
        <ele>59.0</ele>
        <time>2020-06-22T08:52:43.616Z</time>
      </trkpt>
      <trkpt lat="38.89233833" lon="1.34568833">
        <ele>59.0</ele>
        <time>2020-06-22T08:52:44.595Z</time>
      </trkpt>
      <trkpt lat="38.89235333" lon="1.34552167">
        <ele>59.0</ele>
        <time>2020-06-22T08:52:45.616Z</time>
      </trkpt>
      <trkpt lat="38.89236167" lon="1.34544">
        <ele>59.0</ele>
        <time>2020-06-22T08:52:46.597Z</time>
      </trkpt>
      <trkpt lat="38.89236167" lon="1.34544">
        <ele>59.0</ele>
        <time>2020-06-22T08:52:47.633Z</time>
      </trkpt>
      <trkpt lat="38.89238" lon="1.345275">
        <ele>59.0</ele>
        <time>2020-06-22T08:52:48.621Z</time>
      </trkpt>
      <trkpt lat="38.89238833" lon="1.34519333">
        <ele>59.0</ele>
        <time>2020-06-22T08:52:49.623Z</time>
      </trkpt>
      <trkpt lat="38.89238833" lon="1.34519333">
        <ele>59.0</ele>
        <time>2020-06-22T08:52:50.605Z</time>
      </trkpt>
      <trkpt lat="38.89241" lon="1.34503333">
        <ele>60.0</ele>
        <time>2020-06-22T08:52:51.596Z</time>
      </trkpt>
      <trkpt lat="38.89241" lon="1.34503333">
        <ele>60.0</ele>
        <time>2020-06-22T08:52:52.633Z</time>
      </trkpt>
      <trkpt lat="38.89243" lon="1.34487">
        <ele>60.0</ele>
        <time>2020-06-22T08:52:53.604Z</time>
      </trkpt>
      <trkpt lat="38.89244167" lon="1.34478833">
        <ele>60.0</ele>
        <time>2020-06-22T08:52:54.596Z</time>
      </trkpt>
      <trkpt lat="38.89244167" lon="1.34478833">
        <ele>60.0</ele>
        <time>2020-06-22T08:52:55.611Z</time>
      </trkpt>
      <trkpt lat="38.89247167" lon="1.34462833">
        <ele>60.0</ele>
        <time>2020-06-22T08:52:56.596Z</time>
      </trkpt>
      <trkpt lat="38.89247167" lon="1.34462833">
        <ele>60.0</ele>
        <time>2020-06-22T08:52:57.633Z</time>
      </trkpt>
      <trkpt lat="38.89250167" lon="1.34447">
        <ele>60.0</ele>
        <time>2020-06-22T08:52:58.629Z</time>
      </trkpt>
      <trkpt lat="38.89250167" lon="1.34447">
        <ele>60.0</ele>
        <time>2020-06-22T08:52:59.607Z</time>
      </trkpt>
      <trkpt lat="38.89253833" lon="1.344315">
        <ele>60.0</ele>
        <time>2020-06-22T08:53:00.596Z</time>
      </trkpt>
      <trkpt lat="38.89253833" lon="1.344315">
        <ele>60.0</ele>
        <time>2020-06-22T08:53:01.598Z</time>
      </trkpt>
      <trkpt lat="38.89257167" lon="1.34416167">
        <ele>61.0</ele>
        <time>2020-06-22T08:53:02.626Z</time>
      </trkpt>
      <trkpt lat="38.89257167" lon="1.34416167">
        <ele>61.0</ele>
        <time>2020-06-22T08:53:03.631Z</time>
      </trkpt>
      <trkpt lat="38.892605" lon="1.34400667">
        <ele>61.0</ele>
        <time>2020-06-22T08:53:04.629Z</time>
      </trkpt>
      <trkpt lat="38.89262333" lon="1.34393">
        <ele>61.0</ele>
        <time>2020-06-22T08:53:05.603Z</time>
      </trkpt>
      <trkpt lat="38.89262333" lon="1.34393">
        <ele>61.0</ele>
        <time>2020-06-22T08:53:06.594Z</time>
      </trkpt>
      <trkpt lat="38.89266333" lon="1.34378167">
        <ele>62.0</ele>
        <time>2020-06-22T08:53:07.598Z</time>
      </trkpt>
      <trkpt lat="38.89268333" lon="1.34370833">
        <ele>62.0</ele>
        <time>2020-06-22T08:53:08.616Z</time>
      </trkpt>
      <trkpt lat="38.89268333" lon="1.34370833">
        <ele>62.0</ele>
        <time>2020-06-22T08:53:09.596Z</time>
      </trkpt>
      <trkpt lat="38.89272333" lon="1.34356">
        <ele>62.0</ele>
        <time>2020-06-22T08:53:10.626Z</time>
      </trkpt>
      <trkpt lat="38.89274167" lon="1.34348667">
        <ele>62.0</ele>
        <time>2020-06-22T08:53:11.626Z</time>
      </trkpt>
      <trkpt lat="38.89276167" lon="1.34341167">
        <ele>62.0</ele>
        <time>2020-06-22T08:53:12.616Z</time>
      </trkpt>
      <trkpt lat="38.89276167" lon="1.34341167">
        <ele>62.0</ele>
        <time>2020-06-22T08:53:13.633Z</time>
      </trkpt>
      <trkpt lat="38.89280333" lon="1.34326833">
        <ele>62.0</ele>
        <time>2020-06-22T08:53:14.596Z</time>
      </trkpt>
      <trkpt lat="38.89280333" lon="1.34326833">
        <ele>62.0</ele>
        <time>2020-06-22T08:53:15.611Z</time>
      </trkpt>
      <trkpt lat="38.89284333" lon="1.34312333">
        <ele>62.0</ele>
        <time>2020-06-22T08:53:16.606Z</time>
      </trkpt>
      <trkpt lat="38.89284333" lon="1.34312333">
        <ele>62.0</ele>
        <time>2020-06-22T08:53:17.594Z</time>
      </trkpt>
      <trkpt lat="38.89288167" lon="1.34297833">
        <ele>63.0</ele>
        <time>2020-06-22T08:53:18.629Z</time>
      </trkpt>
      <trkpt lat="38.89290167" lon="1.342905">
        <ele>63.0</ele>
        <time>2020-06-22T08:53:19.598Z</time>
      </trkpt>
      <trkpt lat="38.89290167" lon="1.342905">
        <ele>63.0</ele>
        <time>2020-06-22T08:53:20.615Z</time>
      </trkpt>
      <trkpt lat="38.89294167" lon="1.34276167">
        <ele>63.0</ele>
        <time>2020-06-22T08:53:21.598Z</time>
      </trkpt>
      <trkpt lat="38.89294167" lon="1.34276167">
        <ele>63.0</ele>
        <time>2020-06-22T08:53:22.616Z</time>
      </trkpt>
      <trkpt lat="38.89298" lon="1.342615">
        <ele>63.0</ele>
        <time>2020-06-22T08:53:23.596Z</time>
      </trkpt>
      <trkpt lat="38.89299833" lon="1.34254333">
        <ele>63.0</ele>
        <time>2020-06-22T08:53:24.607Z</time>
      </trkpt>
      <trkpt lat="38.89299833" lon="1.34254333">
        <ele>63.0</ele>
        <time>2020-06-22T08:53:25.594Z</time>
      </trkpt>
      <trkpt lat="38.893035" lon="1.3424">
        <ele>63.0</ele>
        <time>2020-06-22T08:53:26.626Z</time>
      </trkpt>
      <trkpt lat="38.893035" lon="1.3424">
        <ele>63.0</ele>
        <time>2020-06-22T08:53:27.602Z</time>
      </trkpt>
      <trkpt lat="38.893075" lon="1.34226">
        <ele>63.0</ele>
        <time>2020-06-22T08:53:28.606Z</time>
      </trkpt>
      <trkpt lat="38.893075" lon="1.34226">
        <ele>63.0</ele>
        <time>2020-06-22T08:53:29.633Z</time>
      </trkpt>
      <trkpt lat="38.89311" lon="1.34212167">
        <ele>64.0</ele>
        <time>2020-06-22T08:53:30.616Z</time>
      </trkpt>
      <trkpt lat="38.89311" lon="1.34212167">
        <ele>64.0</ele>
        <time>2020-06-22T08:53:31.594Z</time>
      </trkpt>
      <trkpt lat="38.89315" lon="1.34198667">
        <ele>64.0</ele>
        <time>2020-06-22T08:53:32.628Z</time>
      </trkpt>
      <trkpt lat="38.89315" lon="1.34198667">
        <ele>64.0</ele>
        <time>2020-06-22T08:53:33.613Z</time>
      </trkpt>
      <trkpt lat="38.89318833" lon="1.34185167">
        <ele>64.0</ele>
        <time>2020-06-22T08:53:34.597Z</time>
      </trkpt>
      <trkpt lat="38.89318833" lon="1.34185167">
        <ele>64.0</ele>
        <time>2020-06-22T08:53:35.633Z</time>
      </trkpt>
      <trkpt lat="38.893225" lon="1.34171667">
        <ele>64.0</ele>
        <time>2020-06-22T08:53:36.594Z</time>
      </trkpt>
      <trkpt lat="38.893225" lon="1.34171667">
        <ele>64.0</ele>
        <time>2020-06-22T08:53:37.609Z</time>
      </trkpt>
      <trkpt lat="38.89326333" lon="1.34158">
        <ele>65.0</ele>
        <time>2020-06-22T08:53:38.604Z</time>
      </trkpt>
      <trkpt lat="38.89326333" lon="1.34158">
        <ele>65.0</ele>
        <time>2020-06-22T08:53:39.594Z</time>
      </trkpt>
      <trkpt lat="38.89329833" lon="1.341445">
        <ele>65.0</ele>
        <time>2020-06-22T08:53:40.622Z</time>
      </trkpt>
      <trkpt lat="38.893315" lon="1.34137833">
        <ele>65.0</ele>
        <time>2020-06-22T08:53:41.630Z</time>
      </trkpt>
      <trkpt lat="38.89333333" lon="1.34131167">
        <ele>66.0</ele>
        <time>2020-06-22T08:53:42.629Z</time>
      </trkpt>
      <trkpt lat="38.89333333" lon="1.34131167">
        <ele>66.0</ele>
        <time>2020-06-22T08:53:43.607Z</time>
      </trkpt>
      <trkpt lat="38.89336833" lon="1.34118167">
        <ele>66.0</ele>
        <time>2020-06-22T08:53:44.599Z</time>
      </trkpt>
      <trkpt lat="38.89336833" lon="1.34118167">
        <ele>66.0</ele>
        <time>2020-06-22T08:53:45.633Z</time>
      </trkpt>
      <trkpt lat="38.8934" lon="1.34104833">
        <ele>67.0</ele>
        <time>2020-06-22T08:53:46.615Z</time>
      </trkpt>
      <trkpt lat="38.89342" lon="1.34097667">
        <ele>67.0</ele>
        <time>2020-06-22T08:53:47.595Z</time>
      </trkpt>
      <trkpt lat="38.89344" lon="1.34090667">
        <ele>67.0</ele>
        <time>2020-06-22T08:53:48.626Z</time>
      </trkpt>
      <trkpt lat="38.89344" lon="1.34090667">
        <ele>67.0</ele>
        <time>2020-06-22T08:53:49.601Z</time>
      </trkpt>
      <trkpt lat="38.893475" lon="1.34077333">
        <ele>68.0</ele>
        <time>2020-06-22T08:53:50.608Z</time>
      </trkpt>
      <trkpt lat="38.89349167" lon="1.34071167">
        <ele>68.0</ele>
        <time>2020-06-22T08:53:51.601Z</time>
      </trkpt>
      <trkpt lat="38.89349167" lon="1.34071167">
        <ele>68.0</ele>
        <time>2020-06-22T08:53:52.594Z</time>
      </trkpt>
      <trkpt lat="38.89352333" lon="1.34058667">
        <ele>68.0</ele>
        <time>2020-06-22T08:53:53.601Z</time>
      </trkpt>
      <trkpt lat="38.89354167" lon="1.34052333">
        <ele>69.0</ele>
        <time>2020-06-22T08:53:54.628Z</time>
      </trkpt>
      <trkpt lat="38.89354167" lon="1.34052333">
        <ele>69.0</ele>
        <time>2020-06-22T08:53:55.605Z</time>
      </trkpt>
      <trkpt lat="38.89357833" lon="1.34039333">
        <ele>69.0</ele>
        <time>2020-06-22T08:53:56.626Z</time>
      </trkpt>
      <trkpt lat="38.893595" lon="1.34033">
        <ele>70.0</ele>
        <time>2020-06-22T08:53:57.616Z</time>
      </trkpt>
      <trkpt lat="38.893595" lon="1.34033">
        <ele>70.0</ele>
        <time>2020-06-22T08:53:58.594Z</time>
      </trkpt>
      <trkpt lat="38.89363333" lon="1.34019">
        <ele>70.0</ele>
        <time>2020-06-22T08:53:59.606Z</time>
      </trkpt>
      <trkpt lat="38.89363333" lon="1.34019">
        <ele>70.0</ele>
        <time>2020-06-22T08:54:00.613Z</time>
      </trkpt>
      <trkpt lat="38.89367167" lon="1.34005333">
        <ele>71.0</ele>
        <time>2020-06-22T08:54:01.606Z</time>
      </trkpt>
      <trkpt lat="38.89368833" lon="1.33998667">
        <ele>71.0</ele>
        <time>2020-06-22T08:54:02.628Z</time>
      </trkpt>
      <trkpt lat="38.89368833" lon="1.33998667">
        <ele>71.0</ele>
        <time>2020-06-22T08:54:03.603Z</time>
      </trkpt>
      <trkpt lat="38.89372333" lon="1.33985833">
        <ele>71.0</ele>
        <time>2020-06-22T08:54:04.627Z</time>
      </trkpt>
      <trkpt lat="38.89372333" lon="1.33985833">
        <ele>71.0</ele>
        <time>2020-06-22T08:54:05.603Z</time>
      </trkpt>
      <trkpt lat="38.89375833" lon="1.33973">
        <ele>71.0</ele>
        <time>2020-06-22T08:54:06.630Z</time>
      </trkpt>
      <trkpt lat="38.89375833" lon="1.33973">
        <ele>71.0</ele>
        <time>2020-06-22T08:54:07.609Z</time>
      </trkpt>
      <trkpt lat="38.89379" lon="1.33960333">
        <ele>72.0</ele>
        <time>2020-06-22T08:54:08.595Z</time>
      </trkpt>
      <trkpt lat="38.89379" lon="1.33960333">
        <ele>72.0</ele>
        <time>2020-06-22T08:54:09.610Z</time>
      </trkpt>
      <trkpt lat="38.89382333" lon="1.339475">
        <ele>72.0</ele>
        <time>2020-06-22T08:54:10.624Z</time>
      </trkpt>
      <trkpt lat="38.89384167" lon="1.33941167">
        <ele>72.0</ele>
        <time>2020-06-22T08:54:11.600Z</time>
      </trkpt>
      <trkpt lat="38.89385833" lon="1.33934667">
        <ele>72.0</ele>
        <time>2020-06-22T08:54:12.629Z</time>
      </trkpt>
      <trkpt lat="38.89385833" lon="1.33934667">
        <ele>72.0</ele>
        <time>2020-06-22T08:54:13.613Z</time>
      </trkpt>
      <trkpt lat="38.89389333" lon="1.33921333">
        <ele>72.0</ele>
        <time>2020-06-22T08:54:14.615Z</time>
      </trkpt>
      <trkpt lat="38.89389333" lon="1.33921333">
        <ele>72.0</ele>
        <time>2020-06-22T08:54:15.594Z</time>
      </trkpt>
      <trkpt lat="38.89392833" lon="1.33908333">
        <ele>72.0</ele>
        <time>2020-06-22T08:54:16.606Z</time>
      </trkpt>
      <trkpt lat="38.89392833" lon="1.33908333">
        <ele>72.0</ele>
        <time>2020-06-22T08:54:17.594Z</time>
      </trkpt>
      <trkpt lat="38.89396333" lon="1.338955">
        <ele>73.0</ele>
        <time>2020-06-22T08:54:18.596Z</time>
      </trkpt>
      <trkpt lat="38.89396333" lon="1.338955">
        <ele>73.0</ele>
        <time>2020-06-22T08:54:19.624Z</time>
      </trkpt>
      <trkpt lat="38.89399667" lon="1.338825">
        <ele>73.0</ele>
        <time>2020-06-22T08:54:20.597Z</time>
      </trkpt>
      <trkpt lat="38.89399667" lon="1.338825">
        <ele>73.0</ele>
        <time>2020-06-22T08:54:21.599Z</time>
      </trkpt>
      <trkpt lat="38.89403" lon="1.338695">
        <ele>73.0</ele>
        <time>2020-06-22T08:54:22.616Z</time>
      </trkpt>
      <trkpt lat="38.89403" lon="1.338695">
        <ele>73.0</ele>
        <time>2020-06-22T08:54:23.633Z</time>
      </trkpt>
      <trkpt lat="38.894065" lon="1.33856833">
        <ele>74.0</ele>
        <time>2020-06-22T08:54:24.616Z</time>
      </trkpt>
      <trkpt lat="38.894065" lon="1.33856833">
        <ele>74.0</ele>
        <time>2020-06-22T08:54:25.594Z</time>
      </trkpt>
      <trkpt lat="38.8941" lon="1.33844167">
        <ele>74.0</ele>
        <time>2020-06-22T08:54:26.606Z</time>
      </trkpt>
      <trkpt lat="38.8941" lon="1.33844167">
        <ele>74.0</ele>
        <time>2020-06-22T08:54:27.631Z</time>
      </trkpt>
      <trkpt lat="38.894135" lon="1.338315">
        <ele>74.0</ele>
        <time>2020-06-22T08:54:28.611Z</time>
      </trkpt>
      <trkpt lat="38.894135" lon="1.338315">
        <ele>74.0</ele>
        <time>2020-06-22T08:54:29.633Z</time>
      </trkpt>
      <trkpt lat="38.89417167" lon="1.33819">
        <ele>74.0</ele>
        <time>2020-06-22T08:54:30.606Z</time>
      </trkpt>
      <trkpt lat="38.89417167" lon="1.33819">
        <ele>74.0</ele>
        <time>2020-06-22T08:54:31.595Z</time>
      </trkpt>
      <trkpt lat="38.89421" lon="1.33806667">
        <ele>74.0</ele>
        <time>2020-06-22T08:54:32.598Z</time>
      </trkpt>
      <trkpt lat="38.89421" lon="1.33806667">
        <ele>74.0</ele>
        <time>2020-06-22T08:54:33.594Z</time>
      </trkpt>
      <trkpt lat="38.89424833" lon="1.33794667">
        <ele>75.0</ele>
        <time>2020-06-22T08:54:34.596Z</time>
      </trkpt>
      <trkpt lat="38.89424833" lon="1.33794667">
        <ele>75.0</ele>
        <time>2020-06-22T08:54:35.611Z</time>
      </trkpt>
      <trkpt lat="38.89429167" lon="1.33782667">
        <ele>75.0</ele>
        <time>2020-06-22T08:54:36.598Z</time>
      </trkpt>
      <trkpt lat="38.89429167" lon="1.33782667">
        <ele>75.0</ele>
        <time>2020-06-22T08:54:37.594Z</time>
      </trkpt>
      <trkpt lat="38.89433833" lon="1.337705">
        <ele>75.0</ele>
        <time>2020-06-22T08:54:38.596Z</time>
      </trkpt>
      <trkpt lat="38.89433833" lon="1.337705">
        <ele>75.0</ele>
        <time>2020-06-22T08:54:39.612Z</time>
      </trkpt>
      <trkpt lat="38.89438333" lon="1.337585">
        <ele>75.0</ele>
        <time>2020-06-22T08:54:40.632Z</time>
      </trkpt>
      <trkpt lat="38.89438333" lon="1.337585">
        <ele>75.0</ele>
        <time>2020-06-22T08:54:41.607Z</time>
      </trkpt>
      <trkpt lat="38.89443333" lon="1.337465">
        <ele>76.0</ele>
        <time>2020-06-22T08:54:42.600Z</time>
      </trkpt>
      <trkpt lat="38.89443333" lon="1.337465">
        <ele>76.0</ele>
        <time>2020-06-22T08:54:43.594Z</time>
      </trkpt>
      <trkpt lat="38.894485" lon="1.33734667">
        <ele>76.0</ele>
        <time>2020-06-22T08:54:44.597Z</time>
      </trkpt>
      <trkpt lat="38.894485" lon="1.33734667">
        <ele>76.0</ele>
        <time>2020-06-22T08:54:45.613Z</time>
      </trkpt>
      <trkpt lat="38.89454167" lon="1.33723">
        <ele>76.0</ele>
        <time>2020-06-22T08:54:46.596Z</time>
      </trkpt>
      <trkpt lat="38.89454167" lon="1.33723">
        <ele>76.0</ele>
        <time>2020-06-22T08:54:47.611Z</time>
      </trkpt>
      <trkpt lat="38.89459667" lon="1.33711833">
        <ele>77.0</ele>
        <time>2020-06-22T08:54:48.599Z</time>
      </trkpt>
      <trkpt lat="38.89459667" lon="1.33711833">
        <ele>77.0</ele>
        <time>2020-06-22T08:54:49.594Z</time>
      </trkpt>
      <trkpt lat="38.89465667" lon="1.33700833">
        <ele>77.0</ele>
        <time>2020-06-22T08:54:50.618Z</time>
      </trkpt>
      <trkpt lat="38.89465667" lon="1.33700833">
        <ele>77.0</ele>
        <time>2020-06-22T08:54:51.603Z</time>
      </trkpt>
      <trkpt lat="38.89471333" lon="1.336895">
        <ele>77.0</ele>
        <time>2020-06-22T08:54:52.612Z</time>
      </trkpt>
      <trkpt lat="38.89471333" lon="1.336895">
        <ele>77.0</ele>
        <time>2020-06-22T08:54:53.594Z</time>
      </trkpt>
      <trkpt lat="38.89477333" lon="1.33678">
        <ele>78.0</ele>
        <time>2020-06-22T08:54:54.628Z</time>
      </trkpt>
      <trkpt lat="38.89477333" lon="1.33678">
        <ele>78.0</ele>
        <time>2020-06-22T08:54:55.606Z</time>
      </trkpt>
      <trkpt lat="38.89484333" lon="1.336665">
        <ele>78.0</ele>
        <time>2020-06-22T08:54:56.600Z</time>
      </trkpt>
      <trkpt lat="38.89484333" lon="1.336665">
        <ele>78.0</ele>
        <time>2020-06-22T08:54:57.632Z</time>
      </trkpt>
      <trkpt lat="38.89491" lon="1.336555">
        <ele>78.0</ele>
        <time>2020-06-22T08:54:58.616Z</time>
      </trkpt>
      <trkpt lat="38.89491" lon="1.336555">
        <ele>78.0</ele>
        <time>2020-06-22T08:54:59.594Z</time>
      </trkpt>
      <trkpt lat="38.894975" lon="1.33644167">
        <ele>78.0</ele>
        <time>2020-06-22T08:55:00.626Z</time>
      </trkpt>
      <trkpt lat="38.894975" lon="1.33644167">
        <ele>78.0</ele>
        <time>2020-06-22T08:55:01.594Z</time>
      </trkpt>
      <trkpt lat="38.89504" lon="1.33633">
        <ele>78.0</ele>
        <time>2020-06-22T08:55:02.596Z</time>
      </trkpt>
      <trkpt lat="38.89504" lon="1.33633">
        <ele>78.0</ele>
        <time>2020-06-22T08:55:03.611Z</time>
      </trkpt>
      <trkpt lat="38.89510667" lon="1.33622">
        <ele>78.0</ele>
        <time>2020-06-22T08:55:04.630Z</time>
      </trkpt>
      <trkpt lat="38.89510667" lon="1.33622">
        <ele>78.0</ele>
        <time>2020-06-22T08:55:05.607Z</time>
      </trkpt>
      <trkpt lat="38.895175" lon="1.33610667">
        <ele>78.0</ele>
        <time>2020-06-22T08:55:06.629Z</time>
      </trkpt>
      <trkpt lat="38.895175" lon="1.33610667">
        <ele>78.0</ele>
        <time>2020-06-22T08:55:07.614Z</time>
      </trkpt>
      <trkpt lat="38.89524667" lon="1.33599167">
        <ele>78.0</ele>
        <time>2020-06-22T08:55:08.613Z</time>
      </trkpt>
      <trkpt lat="38.89524667" lon="1.33599167">
        <ele>78.0</ele>
        <time>2020-06-22T08:55:09.594Z</time>
      </trkpt>
      <trkpt lat="38.89532167" lon="1.33587667">
        <ele>78.0</ele>
        <time>2020-06-22T08:55:10.596Z</time>
      </trkpt>
      <trkpt lat="38.89532167" lon="1.33587667">
        <ele>78.0</ele>
        <time>2020-06-22T08:55:11.611Z</time>
      </trkpt>
      <trkpt lat="38.89539333" lon="1.33575333">
        <ele>78.0</ele>
        <time>2020-06-22T08:55:12.620Z</time>
      </trkpt>
      <trkpt lat="38.89539333" lon="1.33575333">
        <ele>78.0</ele>
        <time>2020-06-22T08:55:13.627Z</time>
      </trkpt>
      <trkpt lat="38.89546833" lon="1.33563">
        <ele>78.0</ele>
        <time>2020-06-22T08:55:14.595Z</time>
      </trkpt>
      <trkpt lat="38.89546833" lon="1.33563">
        <ele>78.0</ele>
        <time>2020-06-22T08:55:15.602Z</time>
      </trkpt>
      <trkpt lat="38.89554667" lon="1.335505">
        <ele>78.0</ele>
        <time>2020-06-22T08:55:16.616Z</time>
      </trkpt>
      <trkpt lat="38.89554667" lon="1.335505">
        <ele>78.0</ele>
        <time>2020-06-22T08:55:17.602Z</time>
      </trkpt>
      <trkpt lat="38.895625" lon="1.335375">
        <ele>78.0</ele>
        <time>2020-06-22T08:55:18.596Z</time>
      </trkpt>
      <trkpt lat="38.895625" lon="1.335375">
        <ele>78.0</ele>
        <time>2020-06-22T08:55:19.612Z</time>
      </trkpt>
      <trkpt lat="38.895695" lon="1.335235">
        <ele>78.0</ele>
        <time>2020-06-22T08:55:20.595Z</time>
      </trkpt>
      <trkpt lat="38.895695" lon="1.335235">
        <ele>78.0</ele>
        <time>2020-06-22T08:55:21.616Z</time>
      </trkpt>
      <trkpt lat="38.89576333" lon="1.33508833">
        <ele>78.0</ele>
        <time>2020-06-22T08:55:22.629Z</time>
      </trkpt>
      <trkpt lat="38.89576333" lon="1.33508833">
        <ele>78.0</ele>
        <time>2020-06-22T08:55:23.609Z</time>
      </trkpt>
      <trkpt lat="38.89583833" lon="1.33494667">
        <ele>78.0</ele>
        <time>2020-06-22T08:55:24.600Z</time>
      </trkpt>
      <trkpt lat="38.89583833" lon="1.33494667">
        <ele>78.0</ele>
        <time>2020-06-22T08:55:25.594Z</time>
      </trkpt>
      <trkpt lat="38.89592" lon="1.33480667">
        <ele>78.0</ele>
        <time>2020-06-22T08:55:26.629Z</time>
      </trkpt>
      <trkpt lat="38.89592" lon="1.33480667">
        <ele>78.0</ele>
        <time>2020-06-22T08:55:27.606Z</time>
      </trkpt>
      <trkpt lat="38.89600167" lon="1.33466833">
        <ele>79.0</ele>
        <time>2020-06-22T08:55:28.628Z</time>
      </trkpt>
      <trkpt lat="38.89600167" lon="1.33466833">
        <ele>79.0</ele>
        <time>2020-06-22T08:55:29.603Z</time>
      </trkpt>
      <trkpt lat="38.896085" lon="1.33453167">
        <ele>79.0</ele>
        <time>2020-06-22T08:55:30.597Z</time>
      </trkpt>
      <trkpt lat="38.896085" lon="1.33453167">
        <ele>79.0</ele>
        <time>2020-06-22T08:55:31.619Z</time>
      </trkpt>
      <trkpt lat="38.89616833" lon="1.33439667">
        <ele>79.0</ele>
        <time>2020-06-22T08:55:32.597Z</time>
      </trkpt>
      <trkpt lat="38.89616833" lon="1.33439667">
        <ele>79.0</ele>
        <time>2020-06-22T08:55:33.634Z</time>
      </trkpt>
      <trkpt lat="38.89625" lon="1.33426">
        <ele>79.0</ele>
        <time>2020-06-22T08:55:34.631Z</time>
      </trkpt>
      <trkpt lat="38.89625" lon="1.33426">
        <ele>79.0</ele>
        <time>2020-06-22T08:55:35.617Z</time>
      </trkpt>
      <trkpt lat="38.89633333" lon="1.33412667">
        <ele>79.0</ele>
        <time>2020-06-22T08:55:36.608Z</time>
      </trkpt>
      <trkpt lat="38.89633333" lon="1.33412667">
        <ele>79.0</ele>
        <time>2020-06-22T08:55:37.594Z</time>
      </trkpt>
      <trkpt lat="38.89641167" lon="1.33399167">
        <ele>80.0</ele>
        <time>2020-06-22T08:55:38.599Z</time>
      </trkpt>
      <trkpt lat="38.89641167" lon="1.33399167">
        <ele>80.0</ele>
        <time>2020-06-22T08:55:39.594Z</time>
      </trkpt>
      <trkpt lat="38.89648833" lon="1.33386">
        <ele>80.0</ele>
        <time>2020-06-22T08:55:40.619Z</time>
      </trkpt>
      <trkpt lat="38.89652833" lon="1.333795">
        <ele>80.0</ele>
        <time>2020-06-22T08:55:41.603Z</time>
      </trkpt>
      <trkpt lat="38.89652833" lon="1.333795">
        <ele>80.0</ele>
        <time>2020-06-22T08:55:42.608Z</time>
      </trkpt>
      <trkpt lat="38.89660667" lon="1.33366333">
        <ele>80.0</ele>
        <time>2020-06-22T08:55:43.618Z</time>
      </trkpt>
      <trkpt lat="38.89660667" lon="1.33366333">
        <ele>80.0</ele>
        <time>2020-06-22T08:55:44.626Z</time>
      </trkpt>
      <trkpt lat="38.89668167" lon="1.33353333">
        <ele>80.0</ele>
        <time>2020-06-22T08:55:45.628Z</time>
      </trkpt>
      <trkpt lat="38.89672" lon="1.33346833">
        <ele>80.0</ele>
        <time>2020-06-22T08:55:46.611Z</time>
      </trkpt>
      <trkpt lat="38.89672" lon="1.33346833">
        <ele>80.0</ele>
        <time>2020-06-22T08:55:47.594Z</time>
      </trkpt>
      <trkpt lat="38.896795" lon="1.33334">
        <ele>80.0</ele>
        <time>2020-06-22T08:55:48.632Z</time>
      </trkpt>
      <trkpt lat="38.896795" lon="1.33334">
        <ele>80.0</ele>
        <time>2020-06-22T08:55:49.607Z</time>
      </trkpt>
      <trkpt lat="38.89687333" lon="1.33321667">
        <ele>81.0</ele>
        <time>2020-06-22T08:55:50.617Z</time>
      </trkpt>
      <trkpt lat="38.89691333" lon="1.33315333">
        <ele>81.0</ele>
        <time>2020-06-22T08:55:51.601Z</time>
      </trkpt>
      <trkpt lat="38.89691333" lon="1.33315333">
        <ele>81.0</ele>
        <time>2020-06-22T08:55:52.594Z</time>
      </trkpt>
      <trkpt lat="38.89698833" lon="1.33302167">
        <ele>81.0</ele>
        <time>2020-06-22T08:55:53.597Z</time>
      </trkpt>
      <trkpt lat="38.89702667" lon="1.33295833">
        <ele>81.0</ele>
        <time>2020-06-22T08:55:54.595Z</time>
      </trkpt>
      <trkpt lat="38.89702667" lon="1.33295833">
        <ele>81.0</ele>
        <time>2020-06-22T08:55:55.613Z</time>
      </trkpt>
      <trkpt lat="38.897105" lon="1.33283167">
        <ele>81.0</ele>
        <time>2020-06-22T08:55:56.627Z</time>
      </trkpt>
      <trkpt lat="38.897105" lon="1.33283167">
        <ele>81.0</ele>
        <time>2020-06-22T08:55:57.604Z</time>
      </trkpt>
      <trkpt lat="38.89718167" lon="1.332705">
        <ele>81.0</ele>
        <time>2020-06-22T08:55:58.606Z</time>
      </trkpt>
      <trkpt lat="38.89718167" lon="1.332705">
        <ele>81.0</ele>
        <time>2020-06-22T08:55:59.595Z</time>
      </trkpt>
      <trkpt lat="38.89726167" lon="1.33258167">
        <ele>81.0</ele>
        <time>2020-06-22T08:56:00.625Z</time>
      </trkpt>
      <trkpt lat="38.89726167" lon="1.33258167">
        <ele>81.0</ele>
        <time>2020-06-22T08:56:01.631Z</time>
      </trkpt>
      <trkpt lat="38.89733667" lon="1.33245833">
        <ele>81.0</ele>
        <time>2020-06-22T08:56:02.616Z</time>
      </trkpt>
      <trkpt lat="38.89733667" lon="1.33245833">
        <ele>81.0</ele>
        <time>2020-06-22T08:56:03.596Z</time>
      </trkpt>
      <trkpt lat="38.89740667" lon="1.33234333">
        <ele>81.0</ele>
        <time>2020-06-22T08:56:04.628Z</time>
      </trkpt>
      <trkpt lat="38.89740667" lon="1.33234333">
        <ele>81.0</ele>
        <time>2020-06-22T08:56:05.603Z</time>
      </trkpt>
      <trkpt lat="38.897475" lon="1.33222667">
        <ele>81.0</ele>
        <time>2020-06-22T08:56:06.594Z</time>
      </trkpt>
      <trkpt lat="38.897475" lon="1.33222667">
        <ele>81.0</ele>
        <time>2020-06-22T08:56:07.613Z</time>
      </trkpt>
      <trkpt lat="38.897535" lon="1.33208833">
        <ele>82.0</ele>
        <time>2020-06-22T08:56:08.596Z</time>
      </trkpt>
      <trkpt lat="38.897535" lon="1.33208833">
        <ele>82.0</ele>
        <time>2020-06-22T08:56:09.606Z</time>
      </trkpt>
      <trkpt lat="38.89757167" lon="1.33194167">
        <ele>82.0</ele>
        <time>2020-06-22T08:56:10.603Z</time>
      </trkpt>
      <trkpt lat="38.89757167" lon="1.33194167">
        <ele>82.0</ele>
        <time>2020-06-22T08:56:11.594Z</time>
      </trkpt>
      <trkpt lat="38.89751833" lon="1.33182833">
        <ele>82.0</ele>
        <time>2020-06-22T08:56:12.626Z</time>
      </trkpt>
      <trkpt lat="38.89751833" lon="1.33182833">
        <ele>82.0</ele>
        <time>2020-06-22T08:56:13.611Z</time>
      </trkpt>
      <trkpt lat="38.897405" lon="1.33179833">
        <ele>81.0</ele>
        <time>2020-06-22T08:56:14.600Z</time>
      </trkpt>
      <trkpt lat="38.897405" lon="1.33179833">
        <ele>81.0</ele>
        <time>2020-06-22T08:56:15.595Z</time>
      </trkpt>
      <trkpt lat="38.89727333" lon="1.33180167">
        <ele>80.0</ele>
        <time>2020-06-22T08:56:16.631Z</time>
      </trkpt>
      <trkpt lat="38.89727333" lon="1.33180167">
        <ele>80.0</ele>
        <time>2020-06-22T08:56:17.594Z</time>
      </trkpt>
      <trkpt lat="38.89713333" lon="1.33179333">
        <ele>79.0</ele>
        <time>2020-06-22T08:56:18.616Z</time>
      </trkpt>
      <trkpt lat="38.89713333" lon="1.33179333">
        <ele>79.0</ele>
        <time>2020-06-22T08:56:19.595Z</time>
      </trkpt>
      <trkpt lat="38.89699167" lon="1.33176833">
        <ele>79.0</ele>
        <time>2020-06-22T08:56:20.596Z</time>
      </trkpt>
      <trkpt lat="38.89699167" lon="1.33176833">
        <ele>79.0</ele>
        <time>2020-06-22T08:56:21.612Z</time>
      </trkpt>
      <trkpt lat="38.89684" lon="1.33175667">
        <ele>78.0</ele>
        <time>2020-06-22T08:56:22.631Z</time>
      </trkpt>
      <trkpt lat="38.89675833" lon="1.33174667">
        <ele>77.0</ele>
        <time>2020-06-22T08:56:23.596Z</time>
      </trkpt>
      <trkpt lat="38.89667667" lon="1.33171167">
        <ele>76.0</ele>
        <time>2020-06-22T08:56:24.614Z</time>
      </trkpt>
      <trkpt lat="38.89667667" lon="1.33171167">
        <ele>76.0</ele>
        <time>2020-06-22T08:56:25.595Z</time>
      </trkpt>
      <trkpt lat="38.89653167" lon="1.33157333">
        <ele>75.0</ele>
        <time>2020-06-22T08:56:26.626Z</time>
      </trkpt>
      <trkpt lat="38.89646" lon="1.33150167">
        <ele>75.0</ele>
        <time>2020-06-22T08:56:27.616Z</time>
      </trkpt>
      <trkpt lat="38.89646" lon="1.33150167">
        <ele>75.0</ele>
        <time>2020-06-22T08:56:28.632Z</time>
      </trkpt>
      <trkpt lat="38.896295" lon="1.33141333">
        <ele>74.0</ele>
        <time>2020-06-22T08:56:29.627Z</time>
      </trkpt>
      <trkpt lat="38.89620833" lon="1.33140833">
        <ele>74.0</ele>
        <time>2020-06-22T08:56:30.601Z</time>
      </trkpt>
      <trkpt lat="38.89620833" lon="1.33140833">
        <ele>74.0</ele>
        <time>2020-06-22T08:56:31.595Z</time>
      </trkpt>
      <trkpt lat="38.89606" lon="1.33145">
        <ele>75.0</ele>
        <time>2020-06-22T08:56:32.596Z</time>
      </trkpt>
      <trkpt lat="38.89606" lon="1.33145">
        <ele>75.0</ele>
        <time>2020-06-22T08:56:33.611Z</time>
      </trkpt>
      <trkpt lat="38.895935" lon="1.331515">
        <ele>77.0</ele>
        <time>2020-06-22T08:56:34.627Z</time>
      </trkpt>
      <trkpt lat="38.895935" lon="1.331515">
        <ele>77.0</ele>
        <time>2020-06-22T08:56:35.605Z</time>
      </trkpt>
      <trkpt lat="38.89582333" lon="1.331585">
        <ele>77.0</ele>
        <time>2020-06-22T08:56:36.630Z</time>
      </trkpt>
      <trkpt lat="38.89582333" lon="1.331585">
        <ele>77.0</ele>
        <time>2020-06-22T08:56:37.617Z</time>
      </trkpt>
      <trkpt lat="38.89571833" lon="1.33166333">
        <ele>78.0</ele>
        <time>2020-06-22T08:56:38.616Z</time>
      </trkpt>
      <trkpt lat="38.89571833" lon="1.33166333">
        <ele>78.0</ele>
        <time>2020-06-22T08:56:39.595Z</time>
      </trkpt>
      <trkpt lat="38.89561167" lon="1.33173167">
        <ele>79.0</ele>
        <time>2020-06-22T08:56:40.616Z</time>
      </trkpt>
      <trkpt lat="38.89556" lon="1.33175833">
        <ele>79.0</ele>
        <time>2020-06-22T08:56:41.600Z</time>
      </trkpt>
      <trkpt lat="38.89556" lon="1.33175833">
        <ele>79.0</ele>
        <time>2020-06-22T08:56:42.622Z</time>
      </trkpt>
      <trkpt lat="38.895455" lon="1.33181">
        <ele>81.0</ele>
        <time>2020-06-22T08:56:43.606Z</time>
      </trkpt>
      <trkpt lat="38.89540167" lon="1.33183">
        <ele>81.0</ele>
        <time>2020-06-22T08:56:44.606Z</time>
      </trkpt>
      <trkpt lat="38.89540167" lon="1.33183">
        <ele>81.0</ele>
        <time>2020-06-22T08:56:45.595Z</time>
      </trkpt>
      <trkpt lat="38.89530167" lon="1.33187">
        <ele>81.0</ele>
        <time>2020-06-22T08:56:46.628Z</time>
      </trkpt>
      <trkpt lat="38.89525167" lon="1.33189">
        <ele>81.0</ele>
        <time>2020-06-22T08:56:47.596Z</time>
      </trkpt>
      <trkpt lat="38.895205" lon="1.33191">
        <ele>81.0</ele>
        <time>2020-06-22T08:56:48.616Z</time>
      </trkpt>
      <trkpt lat="38.895205" lon="1.33191">
        <ele>81.0</ele>
        <time>2020-06-22T08:56:49.595Z</time>
      </trkpt>
      <trkpt lat="38.89511167" lon="1.33195833">
        <ele>81.0</ele>
        <time>2020-06-22T08:56:50.632Z</time>
      </trkpt>
      <trkpt lat="38.89511167" lon="1.33195833">
        <ele>81.0</ele>
        <time>2020-06-22T08:56:51.612Z</time>
      </trkpt>
      <trkpt lat="38.89501333" lon="1.33202">
        <ele>81.0</ele>
        <time>2020-06-22T08:56:52.602Z</time>
      </trkpt>
      <trkpt lat="38.89501333" lon="1.33202">
        <ele>81.0</ele>
        <time>2020-06-22T08:56:53.614Z</time>
      </trkpt>
      <trkpt lat="38.89490833" lon="1.33209">
        <ele>81.0</ele>
        <time>2020-06-22T08:56:54.620Z</time>
      </trkpt>
      <trkpt lat="38.89490833" lon="1.33209">
        <ele>81.0</ele>
        <time>2020-06-22T08:56:55.626Z</time>
      </trkpt>
      <trkpt lat="38.89479667" lon="1.33216667">
        <ele>81.0</ele>
        <time>2020-06-22T08:56:56.624Z</time>
      </trkpt>
      <trkpt lat="38.89479667" lon="1.33216667">
        <ele>81.0</ele>
        <time>2020-06-22T08:56:57.600Z</time>
      </trkpt>
      <trkpt lat="38.894675" lon="1.33224167">
        <ele>81.0</ele>
        <time>2020-06-22T08:56:58.598Z</time>
      </trkpt>
      <trkpt lat="38.894675" lon="1.33224167">
        <ele>81.0</ele>
        <time>2020-06-22T08:56:59.608Z</time>
      </trkpt>
      <trkpt lat="38.89456167" lon="1.33232">
        <ele>81.0</ele>
        <time>2020-06-22T08:57:00.619Z</time>
      </trkpt>
      <trkpt lat="38.89456167" lon="1.33232">
        <ele>81.0</ele>
        <time>2020-06-22T08:57:01.597Z</time>
      </trkpt>
      <trkpt lat="38.89444" lon="1.33239667">
        <ele>81.0</ele>
        <time>2020-06-22T08:57:02.622Z</time>
      </trkpt>
      <trkpt lat="38.89444" lon="1.33239667">
        <ele>81.0</ele>
        <time>2020-06-22T08:57:03.598Z</time>
      </trkpt>
      <trkpt lat="38.894325" lon="1.33247667">
        <ele>81.0</ele>
        <time>2020-06-22T08:57:04.595Z</time>
      </trkpt>
      <trkpt lat="38.89426833" lon="1.33251833">
        <ele>82.0</ele>
        <time>2020-06-22T08:57:05.617Z</time>
      </trkpt>
      <trkpt lat="38.89426833" lon="1.33251833">
        <ele>82.0</ele>
        <time>2020-06-22T08:57:06.596Z</time>
      </trkpt>
      <trkpt lat="38.89415667" lon="1.33259667">
        <ele>81.0</ele>
        <time>2020-06-22T08:57:07.597Z</time>
      </trkpt>
      <trkpt lat="38.89410333" lon="1.33263833">
        <ele>81.0</ele>
        <time>2020-06-22T08:57:08.629Z</time>
      </trkpt>
      <trkpt lat="38.89410333" lon="1.33263833">
        <ele>81.0</ele>
        <time>2020-06-22T08:57:09.604Z</time>
      </trkpt>
      <trkpt lat="38.89399833" lon="1.33272167">
        <ele>81.0</ele>
        <time>2020-06-22T08:57:10.596Z</time>
      </trkpt>
      <trkpt lat="38.89399833" lon="1.33272167">
        <ele>81.0</ele>
        <time>2020-06-22T08:57:11.612Z</time>
      </trkpt>
      <trkpt lat="38.893895" lon="1.33280333">
        <ele>81.0</ele>
        <time>2020-06-22T08:57:12.602Z</time>
      </trkpt>
      <trkpt lat="38.893895" lon="1.33280333">
        <ele>81.0</ele>
        <time>2020-06-22T08:57:13.595Z</time>
      </trkpt>
      <trkpt lat="38.89379667" lon="1.332875">
        <ele>82.0</ele>
        <time>2020-06-22T08:57:14.596Z</time>
      </trkpt>
      <trkpt lat="38.89379667" lon="1.332875">
        <ele>82.0</ele>
        <time>2020-06-22T08:57:15.611Z</time>
      </trkpt>
      <trkpt lat="38.89369333" lon="1.33294667">
        <ele>82.0</ele>
        <time>2020-06-22T08:57:16.597Z</time>
      </trkpt>
      <trkpt lat="38.89363667" lon="1.33297833">
        <ele>82.0</ele>
        <time>2020-06-22T08:57:17.606Z</time>
      </trkpt>
      <trkpt lat="38.89358" lon="1.33301">
        <ele>82.0</ele>
        <time>2020-06-22T08:57:18.598Z</time>
      </trkpt>
      <trkpt lat="38.89358" lon="1.33301">
        <ele>82.0</ele>
        <time>2020-06-22T08:57:19.603Z</time>
      </trkpt>
      <trkpt lat="38.89347167" lon="1.33308167">
        <ele>82.0</ele>
        <time>2020-06-22T08:57:20.610Z</time>
      </trkpt>
      <trkpt lat="38.89347167" lon="1.33308167">
        <ele>82.0</ele>
        <time>2020-06-22T08:57:21.615Z</time>
      </trkpt>
      <trkpt lat="38.893355" lon="1.33315667">
        <ele>83.0</ele>
        <time>2020-06-22T08:57:22.626Z</time>
      </trkpt>
      <trkpt lat="38.893355" lon="1.33315667">
        <ele>83.0</ele>
        <time>2020-06-22T08:57:23.594Z</time>
      </trkpt>
      <trkpt lat="38.89324667" lon="1.33322167">
        <ele>83.0</ele>
        <time>2020-06-22T08:57:24.629Z</time>
      </trkpt>
      <trkpt lat="38.89324667" lon="1.33322167">
        <ele>83.0</ele>
        <time>2020-06-22T08:57:25.604Z</time>
      </trkpt>
      <trkpt lat="38.89313833" lon="1.33328667">
        <ele>84.0</ele>
        <time>2020-06-22T08:57:26.633Z</time>
      </trkpt>
      <trkpt lat="38.89313833" lon="1.33328667">
        <ele>84.0</ele>
        <time>2020-06-22T08:57:27.614Z</time>
      </trkpt>
      <trkpt lat="38.89303667" lon="1.33335667">
        <ele>84.0</ele>
        <time>2020-06-22T08:57:28.596Z</time>
      </trkpt>
      <trkpt lat="38.89299" lon="1.33339167">
        <ele>84.0</ele>
        <time>2020-06-22T08:57:29.595Z</time>
      </trkpt>
      <trkpt lat="38.892945" lon="1.33343333">
        <ele>84.0</ele>
        <time>2020-06-22T08:57:30.601Z</time>
      </trkpt>
      <trkpt lat="38.892945" lon="1.33343333">
        <ele>84.0</ele>
        <time>2020-06-22T08:57:31.607Z</time>
      </trkpt>
      <trkpt lat="38.89286" lon="1.33353667">
        <ele>84.0</ele>
        <time>2020-06-22T08:57:32.616Z</time>
      </trkpt>
      <trkpt lat="38.89286" lon="1.33353667">
        <ele>84.0</ele>
        <time>2020-06-22T08:57:33.594Z</time>
      </trkpt>
      <trkpt lat="38.89279" lon="1.33365667">
        <ele>84.0</ele>
        <time>2020-06-22T08:57:34.608Z</time>
      </trkpt>
      <trkpt lat="38.89279" lon="1.33365667">
        <ele>84.0</ele>
        <time>2020-06-22T08:57:35.595Z</time>
      </trkpt>
      <trkpt lat="38.89273167" lon="1.33379">
        <ele>85.0</ele>
        <time>2020-06-22T08:57:36.594Z</time>
      </trkpt>
      <trkpt lat="38.89273167" lon="1.33379">
        <ele>85.0</ele>
        <time>2020-06-22T08:57:37.609Z</time>
      </trkpt>
      <trkpt lat="38.89269" lon="1.33392333">
        <ele>85.0</ele>
        <time>2020-06-22T08:57:38.596Z</time>
      </trkpt>
      <trkpt lat="38.89269" lon="1.33392333">
        <ele>85.0</ele>
        <time>2020-06-22T08:57:39.611Z</time>
      </trkpt>
      <trkpt lat="38.89266833" lon="1.33404667">
        <ele>85.0</ele>
        <time>2020-06-22T08:57:40.605Z</time>
      </trkpt>
      <trkpt lat="38.89266833" lon="1.33404667">
        <ele>85.0</ele>
        <time>2020-06-22T08:57:41.596Z</time>
      </trkpt>
      <trkpt lat="38.89264833" lon="1.33417333">
        <ele>86.0</ele>
        <time>2020-06-22T08:57:42.596Z</time>
      </trkpt>
      <trkpt lat="38.89264833" lon="1.33417333">
        <ele>86.0</ele>
        <time>2020-06-22T08:57:43.602Z</time>
      </trkpt>
      <trkpt lat="38.89263" lon="1.33428667">
        <ele>87.0</ele>
        <time>2020-06-22T08:57:44.609Z</time>
      </trkpt>
      <trkpt lat="38.89262167" lon="1.334335">
        <ele>87.0</ele>
        <time>2020-06-22T08:57:45.626Z</time>
      </trkpt>
      <trkpt lat="38.89262167" lon="1.334335">
        <ele>87.0</ele>
        <time>2020-06-22T08:57:46.603Z</time>
      </trkpt>
      <trkpt lat="38.892605" lon="1.334435">
        <ele>88.0</ele>
        <time>2020-06-22T08:57:47.626Z</time>
      </trkpt>
      <trkpt lat="38.8926" lon="1.33448833">
        <ele>88.0</ele>
        <time>2020-06-22T08:57:48.596Z</time>
      </trkpt>
      <trkpt lat="38.892595" lon="1.334545">
        <ele>88.0</ele>
        <time>2020-06-22T08:57:49.616Z</time>
      </trkpt>
      <trkpt lat="38.892595" lon="1.334545">
        <ele>88.0</ele>
        <time>2020-06-22T08:57:50.605Z</time>
      </trkpt>
      <trkpt lat="38.89257667" lon="1.33466333">
        <ele>89.0</ele>
        <time>2020-06-22T08:57:51.630Z</time>
      </trkpt>
      <trkpt lat="38.89256667" lon="1.33472167">
        <ele>89.0</ele>
        <time>2020-06-22T08:57:52.616Z</time>
      </trkpt>
      <trkpt lat="38.89256667" lon="1.33472167">
        <ele>89.0</ele>
        <time>2020-06-22T08:57:53.595Z</time>
      </trkpt>
      <trkpt lat="38.89253833" lon="1.33484167">
        <ele>90.0</ele>
        <time>2020-06-22T08:57:54.619Z</time>
      </trkpt>
      <trkpt lat="38.89253833" lon="1.33484167">
        <ele>90.0</ele>
        <time>2020-06-22T08:57:55.598Z</time>
      </trkpt>
      <trkpt lat="38.89250833" lon="1.33496">
        <ele>90.0</ele>
        <time>2020-06-22T08:57:56.595Z</time>
      </trkpt>
      <trkpt lat="38.89250833" lon="1.33496">
        <ele>90.0</ele>
        <time>2020-06-22T08:57:57.611Z</time>
      </trkpt>
      <trkpt lat="38.892455" lon="1.33508167">
        <ele>91.0</ele>
        <time>2020-06-22T08:57:58.628Z</time>
      </trkpt>
      <trkpt lat="38.89242333" lon="1.33513833">
        <ele>91.0</ele>
        <time>2020-06-22T08:57:59.618Z</time>
      </trkpt>
      <trkpt lat="38.89242333" lon="1.33513833">
        <ele>91.0</ele>
        <time>2020-06-22T08:58:00.625Z</time>
      </trkpt>
      <trkpt lat="38.89235167" lon="1.33524667">
        <ele>92.0</ele>
        <time>2020-06-22T08:58:01.616Z</time>
      </trkpt>
      <trkpt lat="38.892315" lon="1.33530167">
        <ele>92.0</ele>
        <time>2020-06-22T08:58:02.606Z</time>
      </trkpt>
      <trkpt lat="38.892315" lon="1.33530167">
        <ele>92.0</ele>
        <time>2020-06-22T08:58:03.619Z</time>
      </trkpt>
      <trkpt lat="38.89223667" lon="1.33541">
        <ele>93.0</ele>
        <time>2020-06-22T08:58:04.626Z</time>
      </trkpt>
      <trkpt lat="38.89223667" lon="1.33541">
        <ele>93.0</ele>
        <time>2020-06-22T08:58:05.601Z</time>
      </trkpt>
      <trkpt lat="38.89214167" lon="1.33551833">
        <ele>93.0</ele>
        <time>2020-06-22T08:58:06.597Z</time>
      </trkpt>
      <trkpt lat="38.89214167" lon="1.33551833">
        <ele>93.0</ele>
        <time>2020-06-22T08:58:07.613Z</time>
      </trkpt>
      <trkpt lat="38.89204167" lon="1.33559333">
        <ele>93.0</ele>
        <time>2020-06-22T08:58:08.606Z</time>
      </trkpt>
      <trkpt lat="38.89204167" lon="1.33559333">
        <ele>93.0</ele>
        <time>2020-06-22T08:58:09.596Z</time>
      </trkpt>
      <trkpt lat="38.89191667" lon="1.335605">
        <ele>92.0</ele>
        <time>2020-06-22T08:58:10.624Z</time>
      </trkpt>
      <trkpt lat="38.89185833" lon="1.33557167">
        <ele>92.0</ele>
        <time>2020-06-22T08:58:11.618Z</time>
      </trkpt>
      <trkpt lat="38.89180333" lon="1.33552667">
        <ele>92.0</ele>
        <time>2020-06-22T08:58:12.594Z</time>
      </trkpt>
      <trkpt lat="38.89180333" lon="1.33552667">
        <ele>92.0</ele>
        <time>2020-06-22T08:58:13.621Z</time>
      </trkpt>
      <trkpt lat="38.89169833" lon="1.33539667">
        <ele>92.0</ele>
        <time>2020-06-22T08:58:14.630Z</time>
      </trkpt>
      <trkpt lat="38.89169833" lon="1.33539667">
        <ele>92.0</ele>
        <time>2020-06-22T08:58:15.607Z</time>
      </trkpt>
      <trkpt lat="38.89161333" lon="1.33523333">
        <ele>93.0</ele>
        <time>2020-06-22T08:58:16.625Z</time>
      </trkpt>
      <trkpt lat="38.89161333" lon="1.33523333">
        <ele>93.0</ele>
        <time>2020-06-22T08:58:17.600Z</time>
      </trkpt>
      <trkpt lat="38.89157" lon="1.335055">
        <ele>92.0</ele>
        <time>2020-06-22T08:58:18.629Z</time>
      </trkpt>
      <trkpt lat="38.89157" lon="1.335055">
        <ele>92.0</ele>
        <time>2020-06-22T08:58:19.596Z</time>
      </trkpt>
      <trkpt lat="38.89155833" lon="1.334865">
        <ele>93.0</ele>
        <time>2020-06-22T08:58:20.627Z</time>
      </trkpt>
      <trkpt lat="38.89155833" lon="1.334865">
        <ele>93.0</ele>
        <time>2020-06-22T08:58:21.603Z</time>
      </trkpt>
      <trkpt lat="38.89155333" lon="1.33468333">
        <ele>93.0</ele>
        <time>2020-06-22T08:58:22.616Z</time>
      </trkpt>
      <trkpt lat="38.89155" lon="1.33459333">
        <ele>93.0</ele>
        <time>2020-06-22T08:58:23.620Z</time>
      </trkpt>
      <trkpt lat="38.89155" lon="1.33459333">
        <ele>93.0</ele>
        <time>2020-06-22T08:58:24.631Z</time>
      </trkpt>
      <trkpt lat="38.89153" lon="1.33443167">
        <ele>93.0</ele>
        <time>2020-06-22T08:58:25.599Z</time>
      </trkpt>
      <trkpt lat="38.89153" lon="1.33443167">
        <ele>93.0</ele>
        <time>2020-06-22T08:58:26.604Z</time>
      </trkpt>
      <trkpt lat="38.89148833" lon="1.33428">
        <ele>93.0</ele>
        <time>2020-06-22T08:58:27.616Z</time>
      </trkpt>
      <trkpt lat="38.89148833" lon="1.33428">
        <ele>93.0</ele>
        <time>2020-06-22T08:58:28.611Z</time>
      </trkpt>
      <trkpt lat="38.89142333" lon="1.33414667">
        <ele>94.0</ele>
        <time>2020-06-22T08:58:29.596Z</time>
      </trkpt>
      <trkpt lat="38.89138333" lon="1.334085">
        <ele>94.0</ele>
        <time>2020-06-22T08:58:30.627Z</time>
      </trkpt>
      <trkpt lat="38.89138333" lon="1.334085">
        <ele>94.0</ele>
        <time>2020-06-22T08:58:31.603Z</time>
      </trkpt>
      <trkpt lat="38.89129667" lon="1.33395833">
        <ele>94.0</ele>
        <time>2020-06-22T08:58:32.628Z</time>
      </trkpt>
      <trkpt lat="38.89129667" lon="1.33395833">
        <ele>94.0</ele>
        <time>2020-06-22T08:58:33.603Z</time>
      </trkpt>
      <trkpt lat="38.89120167" lon="1.33383">
        <ele>94.0</ele>
        <time>2020-06-22T08:58:34.605Z</time>
      </trkpt>
      <trkpt lat="38.89120167" lon="1.33383">
        <ele>94.0</ele>
        <time>2020-06-22T08:58:35.595Z</time>
      </trkpt>
      <trkpt lat="38.89110333" lon="1.33370167">
        <ele>95.0</ele>
        <time>2020-06-22T08:58:36.616Z</time>
      </trkpt>
      <trkpt lat="38.89110333" lon="1.33370167">
        <ele>95.0</ele>
        <time>2020-06-22T08:58:37.595Z</time>
      </trkpt>
      <trkpt lat="38.89099667" lon="1.333585">
        <ele>95.0</ele>
        <time>2020-06-22T08:58:38.600Z</time>
      </trkpt>
      <trkpt lat="38.89099667" lon="1.333585">
        <ele>95.0</ele>
        <time>2020-06-22T08:58:39.595Z</time>
      </trkpt>
      <trkpt lat="38.89086333" lon="1.333505">
        <ele>95.0</ele>
        <time>2020-06-22T08:58:40.613Z</time>
      </trkpt>
      <trkpt lat="38.89086333" lon="1.333505">
        <ele>95.0</ele>
        <time>2020-06-22T08:58:41.595Z</time>
      </trkpt>
      <trkpt lat="38.890725" lon="1.33344833">
        <ele>96.0</ele>
        <time>2020-06-22T08:58:42.597Z</time>
      </trkpt>
      <trkpt lat="38.890725" lon="1.33344833">
        <ele>96.0</ele>
        <time>2020-06-22T08:58:43.602Z</time>
      </trkpt>
      <trkpt lat="38.89059333" lon="1.33339333">
        <ele>96.0</ele>
        <time>2020-06-22T08:58:44.608Z</time>
      </trkpt>
      <trkpt lat="38.89059333" lon="1.33339333">
        <ele>96.0</ele>
        <time>2020-06-22T08:58:45.613Z</time>
      </trkpt>
      <trkpt lat="38.89046333" lon="1.33332333">
        <ele>96.0</ele>
        <time>2020-06-22T08:58:46.615Z</time>
      </trkpt>
      <trkpt lat="38.89046333" lon="1.33332333">
        <ele>96.0</ele>
        <time>2020-06-22T08:58:47.600Z</time>
      </trkpt>
      <trkpt lat="38.89033167" lon="1.333245">
        <ele>96.0</ele>
        <time>2020-06-22T08:58:48.628Z</time>
      </trkpt>
      <trkpt lat="38.89033167" lon="1.333245">
        <ele>96.0</ele>
        <time>2020-06-22T08:58:49.603Z</time>
      </trkpt>
      <trkpt lat="38.89019667" lon="1.33316333">
        <ele>96.0</ele>
        <time>2020-06-22T08:58:50.606Z</time>
      </trkpt>
      <trkpt lat="38.89013" lon="1.33312833">
        <ele>96.0</ele>
        <time>2020-06-22T08:58:51.626Z</time>
      </trkpt>
      <trkpt lat="38.89013" lon="1.33312833">
        <ele>96.0</ele>
        <time>2020-06-22T08:58:52.602Z</time>
      </trkpt>
      <trkpt lat="38.88999333" lon="1.33308667">
        <ele>96.0</ele>
        <time>2020-06-22T08:58:53.632Z</time>
      </trkpt>
      <trkpt lat="38.88992167" lon="1.33307333">
        <ele>96.0</ele>
        <time>2020-06-22T08:58:54.629Z</time>
      </trkpt>
      <trkpt lat="38.88992167" lon="1.33307333">
        <ele>96.0</ele>
        <time>2020-06-22T08:58:55.606Z</time>
      </trkpt>
      <trkpt lat="38.88977833" lon="1.33305833">
        <ele>96.0</ele>
        <time>2020-06-22T08:58:56.610Z</time>
      </trkpt>
      <trkpt lat="38.88977833" lon="1.33305833">
        <ele>96.0</ele>
        <time>2020-06-22T08:58:57.601Z</time>
      </trkpt>
      <trkpt lat="38.88964333" lon="1.33304667">
        <ele>96.0</ele>
        <time>2020-06-22T08:58:58.609Z</time>
      </trkpt>
      <trkpt lat="38.88964333" lon="1.33304667">
        <ele>96.0</ele>
        <time>2020-06-22T08:58:59.614Z</time>
      </trkpt>
      <trkpt lat="38.88950833" lon="1.333035">
        <ele>96.0</ele>
        <time>2020-06-22T08:59:00.596Z</time>
      </trkpt>
      <trkpt lat="38.88950833" lon="1.333035">
        <ele>96.0</ele>
        <time>2020-06-22T08:59:01.595Z</time>
      </trkpt>
      <trkpt lat="38.88938667" lon="1.33300667">
        <ele>98.0</ele>
        <time>2020-06-22T08:59:02.640Z</time>
      </trkpt>
      <trkpt lat="38.88938667" lon="1.33300667">
        <ele>98.0</ele>
        <time>2020-06-22T08:59:03.608Z</time>
      </trkpt>
      <trkpt lat="38.88926" lon="1.332975">
        <ele>98.0</ele>
        <time>2020-06-22T08:59:04.596Z</time>
      </trkpt>
      <trkpt lat="38.88926" lon="1.332975">
        <ele>98.0</ele>
        <time>2020-06-22T08:59:05.611Z</time>
      </trkpt>
      <trkpt lat="38.88914" lon="1.332945">
        <ele>97.0</ele>
        <time>2020-06-22T08:59:06.595Z</time>
      </trkpt>
      <trkpt lat="38.88914" lon="1.332945">
        <ele>97.0</ele>
        <time>2020-06-22T08:59:07.617Z</time>
      </trkpt>
      <trkpt lat="38.88902167" lon="1.332915">
        <ele>96.0</ele>
        <time>2020-06-22T08:59:08.606Z</time>
      </trkpt>
      <trkpt lat="38.88902167" lon="1.332915">
        <ele>96.0</ele>
        <time>2020-06-22T08:59:09.633Z</time>
      </trkpt>
      <trkpt lat="38.88890333" lon="1.332875">
        <ele>97.0</ele>
        <time>2020-06-22T08:59:10.597Z</time>
      </trkpt>
      <trkpt lat="38.88890333" lon="1.332875">
        <ele>97.0</ele>
        <time>2020-06-22T08:59:11.613Z</time>
      </trkpt>
      <trkpt lat="38.88878667" lon="1.33282833">
        <ele>97.0</ele>
        <time>2020-06-22T08:59:12.629Z</time>
      </trkpt>
      <trkpt lat="38.88878667" lon="1.33282833">
        <ele>97.0</ele>
        <time>2020-06-22T08:59:13.604Z</time>
      </trkpt>
      <trkpt lat="38.88867" lon="1.33277">
        <ele>97.0</ele>
        <time>2020-06-22T08:59:14.596Z</time>
      </trkpt>
      <trkpt lat="38.88867" lon="1.33277">
        <ele>97.0</ele>
        <time>2020-06-22T08:59:15.626Z</time>
      </trkpt>
      <trkpt lat="38.88854667" lon="1.33269833">
        <ele>97.0</ele>
        <time>2020-06-22T08:59:16.624Z</time>
      </trkpt>
      <trkpt lat="38.88854667" lon="1.33269833">
        <ele>97.0</ele>
        <time>2020-06-22T08:59:17.600Z</time>
      </trkpt>
      <trkpt lat="38.88842667" lon="1.332625">
        <ele>96.0</ele>
        <time>2020-06-22T08:59:18.633Z</time>
      </trkpt>
      <trkpt lat="38.88842667" lon="1.332625">
        <ele>96.0</ele>
        <time>2020-06-22T08:59:19.613Z</time>
      </trkpt>
      <trkpt lat="38.88829667" lon="1.33255167">
        <ele>96.0</ele>
        <time>2020-06-22T08:59:20.598Z</time>
      </trkpt>
      <trkpt lat="38.88829667" lon="1.33255167">
        <ele>96.0</ele>
        <time>2020-06-22T08:59:21.623Z</time>
      </trkpt>
      <trkpt lat="38.88817" lon="1.33248">
        <ele>96.0</ele>
        <time>2020-06-22T08:59:22.631Z</time>
      </trkpt>
      <trkpt lat="38.88810667" lon="1.33244167">
        <ele>96.0</ele>
        <time>2020-06-22T08:59:23.629Z</time>
      </trkpt>
      <trkpt lat="38.88810667" lon="1.33244167">
        <ele>96.0</ele>
        <time>2020-06-22T08:59:24.608Z</time>
      </trkpt>
      <trkpt lat="38.887985" lon="1.33236333">
        <ele>95.0</ele>
        <time>2020-06-22T08:59:25.603Z</time>
      </trkpt>
      <trkpt lat="38.88791833" lon="1.33232333">
        <ele>95.0</ele>
        <time>2020-06-22T08:59:26.595Z</time>
      </trkpt>
      <trkpt lat="38.88791833" lon="1.33232333">
        <ele>95.0</ele>
        <time>2020-06-22T08:59:27.617Z</time>
      </trkpt>
      <trkpt lat="38.88777667" lon="1.33223667">
        <ele>95.0</ele>
        <time>2020-06-22T08:59:28.630Z</time>
      </trkpt>
      <trkpt lat="38.88777667" lon="1.33223667">
        <ele>95.0</ele>
        <time>2020-06-22T08:59:29.605Z</time>
      </trkpt>
      <trkpt lat="38.88764833" lon="1.33213667">
        <ele>94.0</ele>
        <time>2020-06-22T08:59:30.606Z</time>
      </trkpt>
      <trkpt lat="38.88764833" lon="1.33213667">
        <ele>94.0</ele>
        <time>2020-06-22T08:59:31.596Z</time>
      </trkpt>
      <trkpt lat="38.88751667" lon="1.33203">
        <ele>94.0</ele>
        <time>2020-06-22T08:59:32.630Z</time>
      </trkpt>
      <trkpt lat="38.88751667" lon="1.33203">
        <ele>94.0</ele>
        <time>2020-06-22T08:59:33.617Z</time>
      </trkpt>
      <trkpt lat="38.88738" lon="1.33192667">
        <ele>95.0</ele>
        <time>2020-06-22T08:59:34.622Z</time>
      </trkpt>
      <trkpt lat="38.88731333" lon="1.33187333">
        <ele>94.0</ele>
        <time>2020-06-22T08:59:35.596Z</time>
      </trkpt>
      <trkpt lat="38.88724833" lon="1.33182167">
        <ele>94.0</ele>
        <time>2020-06-22T08:59:36.632Z</time>
      </trkpt>
      <trkpt lat="38.88724833" lon="1.33182167">
        <ele>94.0</ele>
        <time>2020-06-22T08:59:37.622Z</time>
      </trkpt>
      <trkpt lat="38.88712333" lon="1.33172833">
        <ele>94.0</ele>
        <time>2020-06-22T08:59:38.606Z</time>
      </trkpt>
      <trkpt lat="38.88712333" lon="1.33172833">
        <ele>94.0</ele>
        <time>2020-06-22T08:59:39.598Z</time>
      </trkpt>
      <trkpt lat="38.887" lon="1.331645">
        <ele>93.0</ele>
        <time>2020-06-22T08:59:40.611Z</time>
      </trkpt>
      <trkpt lat="38.886945" lon="1.33159833">
        <ele>93.0</ele>
        <time>2020-06-22T08:59:41.629Z</time>
      </trkpt>
      <trkpt lat="38.88689167" lon="1.33155">
        <ele>93.0</ele>
        <time>2020-06-22T08:59:42.631Z</time>
      </trkpt>
      <trkpt lat="38.88689167" lon="1.33155">
        <ele>93.0</ele>
        <time>2020-06-22T08:59:43.607Z</time>
      </trkpt>
      <trkpt lat="38.88678333" lon="1.33146">
        <ele>93.0</ele>
        <time>2020-06-22T08:59:44.614Z</time>
      </trkpt>
      <trkpt lat="38.88678333" lon="1.33146">
        <ele>93.0</ele>
        <time>2020-06-22T08:59:45.631Z</time>
      </trkpt>
      <trkpt lat="38.88667" lon="1.33136">
        <ele>93.0</ele>
        <time>2020-06-22T08:59:46.598Z</time>
      </trkpt>
      <trkpt lat="38.88667" lon="1.33136">
        <ele>93.0</ele>
        <time>2020-06-22T08:59:47.602Z</time>
      </trkpt>
      <trkpt lat="38.88656" lon="1.33126333">
        <ele>93.0</ele>
        <time>2020-06-22T08:59:48.630Z</time>
      </trkpt>
      <trkpt lat="38.88656" lon="1.33126333">
        <ele>93.0</ele>
        <time>2020-06-22T08:59:49.605Z</time>
      </trkpt>
      <trkpt lat="38.88643833" lon="1.331175">
        <ele>92.0</ele>
        <time>2020-06-22T08:59:50.606Z</time>
      </trkpt>
      <trkpt lat="38.88638" lon="1.33112833">
        <ele>92.0</ele>
        <time>2020-06-22T08:59:51.603Z</time>
      </trkpt>
      <trkpt lat="38.88638" lon="1.33112833">
        <ele>92.0</ele>
        <time>2020-06-22T08:59:52.596Z</time>
      </trkpt>
      <trkpt lat="38.88625833" lon="1.331035">
        <ele>92.0</ele>
        <time>2020-06-22T08:59:53.598Z</time>
      </trkpt>
      <trkpt lat="38.88620167" lon="1.330985">
        <ele>92.0</ele>
        <time>2020-06-22T08:59:54.596Z</time>
      </trkpt>
      <trkpt lat="38.88620167" lon="1.330985">
        <ele>92.0</ele>
        <time>2020-06-22T08:59:55.601Z</time>
      </trkpt>
      <trkpt lat="38.886095" lon="1.33088833">
        <ele>92.0</ele>
        <time>2020-06-22T08:59:56.619Z</time>
      </trkpt>
      <trkpt lat="38.88604" lon="1.33083833">
        <ele>92.0</ele>
        <time>2020-06-22T08:59:57.597Z</time>
      </trkpt>
      <trkpt lat="38.88604" lon="1.33083833">
        <ele>92.0</ele>
        <time>2020-06-22T08:59:58.613Z</time>
      </trkpt>
      <trkpt lat="38.88592833" lon="1.330745">
        <ele>91.0</ele>
        <time>2020-06-22T08:59:59.630Z</time>
      </trkpt>
      <trkpt lat="38.88586167" lon="1.33069333">
        <ele>91.0</ele>
        <time>2020-06-22T09:00:00.599Z</time>
      </trkpt>
      <trkpt lat="38.88586167" lon="1.33069333">
        <ele>91.0</ele>
        <time>2020-06-22T09:00:01.617Z</time>
      </trkpt>
      <trkpt lat="38.885725" lon="1.33059">
        <ele>90.0</ele>
        <time>2020-06-22T09:00:02.629Z</time>
      </trkpt>
      <trkpt lat="38.885725" lon="1.33059">
        <ele>90.0</ele>
        <time>2020-06-22T09:00:03.606Z</time>
      </trkpt>
      <trkpt lat="38.88558833" lon="1.33048333">
        <ele>89.0</ele>
        <time>2020-06-22T09:00:04.620Z</time>
      </trkpt>
      <trkpt lat="38.88558833" lon="1.33048333">
        <ele>89.0</ele>
        <time>2020-06-22T09:00:05.626Z</time>
      </trkpt>
      <trkpt lat="38.88544833" lon="1.33037167">
        <ele>89.0</ele>
        <time>2020-06-22T09:00:06.596Z</time>
      </trkpt>
      <trkpt lat="38.88544833" lon="1.33037167">
        <ele>89.0</ele>
        <time>2020-06-22T09:00:07.602Z</time>
      </trkpt>
      <trkpt lat="38.88529833" lon="1.33027167">
        <ele>89.0</ele>
        <time>2020-06-22T09:00:08.616Z</time>
      </trkpt>
      <trkpt lat="38.88529833" lon="1.33027167">
        <ele>89.0</ele>
        <time>2020-06-22T09:00:09.595Z</time>
      </trkpt>
      <trkpt lat="38.88514" lon="1.3302">
        <ele>89.0</ele>
        <time>2020-06-22T09:00:10.610Z</time>
      </trkpt>
      <trkpt lat="38.88514" lon="1.3302">
        <ele>89.0</ele>
        <time>2020-06-22T09:00:11.633Z</time>
      </trkpt>
      <trkpt lat="38.88497667" lon="1.330145">
        <ele>89.0</ele>
        <time>2020-06-22T09:00:12.619Z</time>
      </trkpt>
      <trkpt lat="38.88497667" lon="1.330145">
        <ele>89.0</ele>
        <time>2020-06-22T09:00:13.595Z</time>
      </trkpt>
      <trkpt lat="38.88481667" lon="1.3301">
        <ele>89.0</ele>
        <time>2020-06-22T09:00:14.596Z</time>
      </trkpt>
      <trkpt lat="38.88481667" lon="1.3301">
        <ele>89.0</ele>
        <time>2020-06-22T09:00:15.619Z</time>
      </trkpt>
      <trkpt lat="38.88466833" lon="1.33005333">
        <ele>88.0</ele>
        <time>2020-06-22T09:00:16.616Z</time>
      </trkpt>
      <trkpt lat="38.88466833" lon="1.33005333">
        <ele>88.0</ele>
        <time>2020-06-22T09:00:17.594Z</time>
      </trkpt>
      <trkpt lat="38.884525" lon="1.330005">
        <ele>88.0</ele>
        <time>2020-06-22T09:00:18.618Z</time>
      </trkpt>
      <trkpt lat="38.884525" lon="1.330005">
        <ele>88.0</ele>
        <time>2020-06-22T09:00:19.596Z</time>
      </trkpt>
      <trkpt lat="38.88437833" lon="1.32995833">
        <ele>87.0</ele>
        <time>2020-06-22T09:00:20.595Z</time>
      </trkpt>
      <trkpt lat="38.88437833" lon="1.32995833">
        <ele>87.0</ele>
        <time>2020-06-22T09:00:21.596Z</time>
      </trkpt>
      <trkpt lat="38.884225" lon="1.32990667">
        <ele>86.0</ele>
        <time>2020-06-22T09:00:22.599Z</time>
      </trkpt>
      <trkpt lat="38.884225" lon="1.32990667">
        <ele>86.0</ele>
        <time>2020-06-22T09:00:23.605Z</time>
      </trkpt>
      <trkpt lat="38.884065" lon="1.329845">
        <ele>85.0</ele>
        <time>2020-06-22T09:00:24.612Z</time>
      </trkpt>
      <trkpt lat="38.884065" lon="1.329845">
        <ele>85.0</ele>
        <time>2020-06-22T09:00:25.618Z</time>
      </trkpt>
      <trkpt lat="38.88388833" lon="1.32978667">
        <ele>84.0</ele>
        <time>2020-06-22T09:00:26.627Z</time>
      </trkpt>
      <trkpt lat="38.88388833" lon="1.32978667">
        <ele>84.0</ele>
        <time>2020-06-22T09:00:27.633Z</time>
      </trkpt>
      <trkpt lat="38.88370333" lon="1.329715">
        <ele>83.0</ele>
        <time>2020-06-22T09:00:28.602Z</time>
      </trkpt>
      <trkpt lat="38.88361" lon="1.32967333">
        <ele>83.0</ele>
        <time>2020-06-22T09:00:29.615Z</time>
      </trkpt>
      <trkpt lat="38.88351833" lon="1.32962833">
        <ele>83.0</ele>
        <time>2020-06-22T09:00:30.608Z</time>
      </trkpt>
      <trkpt lat="38.88351833" lon="1.32962833">
        <ele>83.0</ele>
        <time>2020-06-22T09:00:31.607Z</time>
      </trkpt>
      <trkpt lat="38.883335" lon="1.32951">
        <ele>82.0</ele>
        <time>2020-06-22T09:00:32.597Z</time>
      </trkpt>
      <trkpt lat="38.883335" lon="1.32951">
        <ele>82.0</ele>
        <time>2020-06-22T09:00:33.612Z</time>
      </trkpt>
      <trkpt lat="38.883165" lon="1.32935833">
        <ele>82.0</ele>
        <time>2020-06-22T09:00:34.600Z</time>
      </trkpt>
      <trkpt lat="38.883165" lon="1.32935833">
        <ele>82.0</ele>
        <time>2020-06-22T09:00:35.596Z</time>
      </trkpt>
      <trkpt lat="38.88300333" lon="1.329205">
        <ele>81.0</ele>
        <time>2020-06-22T09:00:36.627Z</time>
      </trkpt>
      <trkpt lat="38.88300333" lon="1.329205">
        <ele>81.0</ele>
        <time>2020-06-22T09:00:37.615Z</time>
      </trkpt>
      <trkpt lat="38.88282333" lon="1.32908">
        <ele>80.0</ele>
        <time>2020-06-22T09:00:38.598Z</time>
      </trkpt>
      <trkpt lat="38.88282333" lon="1.32908">
        <ele>80.0</ele>
        <time>2020-06-22T09:00:39.613Z</time>
      </trkpt>
      <trkpt lat="38.88262167" lon="1.328975">
        <ele>80.0</ele>
        <time>2020-06-22T09:00:40.596Z</time>
      </trkpt>
      <trkpt lat="38.88262167" lon="1.328975">
        <ele>80.0</ele>
        <time>2020-06-22T09:00:41.612Z</time>
      </trkpt>
      <trkpt lat="38.88240833" lon="1.32887333">
        <ele>79.0</ele>
        <time>2020-06-22T09:00:42.601Z</time>
      </trkpt>
      <trkpt lat="38.88240833" lon="1.32887333">
        <ele>79.0</ele>
        <time>2020-06-22T09:00:43.596Z</time>
      </trkpt>
      <trkpt lat="38.88218833" lon="1.32875333">
        <ele>78.0</ele>
        <time>2020-06-22T09:00:44.613Z</time>
      </trkpt>
      <trkpt lat="38.88218833" lon="1.32875333">
        <ele>78.0</ele>
        <time>2020-06-22T09:00:45.603Z</time>
      </trkpt>
      <trkpt lat="38.88196833" lon="1.32862333">
        <ele>78.0</ele>
        <time>2020-06-22T09:00:46.595Z</time>
      </trkpt>
      <trkpt lat="38.88196833" lon="1.32862333">
        <ele>78.0</ele>
        <time>2020-06-22T09:00:47.601Z</time>
      </trkpt>
      <trkpt lat="38.88175" lon="1.32849167">
        <ele>77.0</ele>
        <time>2020-06-22T09:00:48.607Z</time>
      </trkpt>
      <trkpt lat="38.88175" lon="1.32849167">
        <ele>77.0</ele>
        <time>2020-06-22T09:00:49.624Z</time>
      </trkpt>
      <trkpt lat="38.881535" lon="1.32836">
        <ele>76.0</ele>
        <time>2020-06-22T09:00:50.606Z</time>
      </trkpt>
      <trkpt lat="38.881535" lon="1.32836">
        <ele>76.0</ele>
        <time>2020-06-22T09:00:51.595Z</time>
      </trkpt>
      <trkpt lat="38.88132" lon="1.328225">
        <ele>75.0</ele>
        <time>2020-06-22T09:00:52.616Z</time>
      </trkpt>
      <trkpt lat="38.88132" lon="1.328225">
        <ele>75.0</ele>
        <time>2020-06-22T09:00:53.633Z</time>
      </trkpt>
      <trkpt lat="38.88108667" lon="1.32813167">
        <ele>73.0</ele>
        <time>2020-06-22T09:00:54.598Z</time>
      </trkpt>
      <trkpt lat="38.88108667" lon="1.32813167">
        <ele>73.0</ele>
        <time>2020-06-22T09:00:55.608Z</time>
      </trkpt>
      <trkpt lat="38.880835" lon="1.32810833">
        <ele>71.0</ele>
        <time>2020-06-22T09:00:56.596Z</time>
      </trkpt>
      <trkpt lat="38.880835" lon="1.32810833">
        <ele>71.0</ele>
        <time>2020-06-22T09:00:57.612Z</time>
      </trkpt>
      <trkpt lat="38.88058833" lon="1.32815">
        <ele>69.0</ele>
        <time>2020-06-22T09:00:58.616Z</time>
      </trkpt>
      <trkpt lat="38.88058833" lon="1.32815">
        <ele>69.0</ele>
        <time>2020-06-22T09:00:59.596Z</time>
      </trkpt>
      <trkpt lat="38.88034667" lon="1.32820833">
        <ele>67.0</ele>
        <time>2020-06-22T09:01:00.626Z</time>
      </trkpt>
      <trkpt lat="38.88034667" lon="1.32820833">
        <ele>67.0</ele>
        <time>2020-06-22T09:01:01.601Z</time>
      </trkpt>
      <trkpt lat="38.88010667" lon="1.32827">
        <ele>64.0</ele>
        <time>2020-06-22T09:01:02.597Z</time>
      </trkpt>
      <trkpt lat="38.88010667" lon="1.32827">
        <ele>64.0</ele>
        <time>2020-06-22T09:01:03.612Z</time>
      </trkpt>
      <trkpt lat="38.87988167" lon="1.32834">
        <ele>62.0</ele>
        <time>2020-06-22T09:01:04.596Z</time>
      </trkpt>
      <trkpt lat="38.87988167" lon="1.32834">
        <ele>62.0</ele>
        <time>2020-06-22T09:01:05.626Z</time>
      </trkpt>
      <trkpt lat="38.87965" lon="1.32840333">
        <ele>60.0</ele>
        <time>2020-06-22T09:01:06.603Z</time>
      </trkpt>
      <trkpt lat="38.87965" lon="1.32840333">
        <ele>60.0</ele>
        <time>2020-06-22T09:01:07.594Z</time>
      </trkpt>
      <trkpt lat="38.87942" lon="1.32846">
        <ele>58.0</ele>
        <time>2020-06-22T09:01:08.615Z</time>
      </trkpt>
      <trkpt lat="38.87942" lon="1.32846">
        <ele>58.0</ele>
        <time>2020-06-22T09:01:09.594Z</time>
      </trkpt>
      <trkpt lat="38.879185" lon="1.32852333">
        <ele>56.0</ele>
        <time>2020-06-22T09:01:10.596Z</time>
      </trkpt>
      <trkpt lat="38.879065" lon="1.32855833">
        <ele>55.0</ele>
        <time>2020-06-22T09:01:11.603Z</time>
      </trkpt>
      <trkpt lat="38.879065" lon="1.32855833">
        <ele>55.0</ele>
        <time>2020-06-22T09:01:12.594Z</time>
      </trkpt>
      <trkpt lat="38.87882667" lon="1.328625">
        <ele>53.0</ele>
        <time>2020-06-22T09:01:13.616Z</time>
      </trkpt>
      <trkpt lat="38.87870667" lon="1.32865667">
        <ele>53.0</ele>
        <time>2020-06-22T09:01:14.601Z</time>
      </trkpt>
      <trkpt lat="38.87870667" lon="1.32865667">
        <ele>53.0</ele>
        <time>2020-06-22T09:01:15.609Z</time>
      </trkpt>
      <trkpt lat="38.87847" lon="1.328715">
        <ele>52.0</ele>
        <time>2020-06-22T09:01:16.599Z</time>
      </trkpt>
      <trkpt lat="38.878355" lon="1.32874">
        <ele>51.0</ele>
        <time>2020-06-22T09:01:17.606Z</time>
      </trkpt>
      <trkpt lat="38.878355" lon="1.32874">
        <ele>51.0</ele>
        <time>2020-06-22T09:01:18.607Z</time>
      </trkpt>
      <trkpt lat="38.87814167" lon="1.32879833">
        <ele>52.0</ele>
        <time>2020-06-22T09:01:19.603Z</time>
      </trkpt>
      <trkpt lat="38.87814167" lon="1.32879833">
        <ele>52.0</ele>
        <time>2020-06-22T09:01:20.621Z</time>
      </trkpt>
      <trkpt lat="38.87794" lon="1.32886833">
        <ele>52.0</ele>
        <time>2020-06-22T09:01:21.616Z</time>
      </trkpt>
      <trkpt lat="38.87784167" lon="1.32890167">
        <ele>52.0</ele>
        <time>2020-06-22T09:01:22.596Z</time>
      </trkpt>
      <trkpt lat="38.87784167" lon="1.32890167">
        <ele>52.0</ele>
        <time>2020-06-22T09:01:23.596Z</time>
      </trkpt>
      <trkpt lat="38.87763833" lon="1.32898333">
        <ele>51.0</ele>
        <time>2020-06-22T09:01:24.609Z</time>
      </trkpt>
      <trkpt lat="38.87763833" lon="1.32898333">
        <ele>51.0</ele>
        <time>2020-06-22T09:01:25.605Z</time>
      </trkpt>
      <trkpt lat="38.877425" lon="1.32907167">
        <ele>50.0</ele>
        <time>2020-06-22T09:01:26.599Z</time>
      </trkpt>
      <trkpt lat="38.877425" lon="1.32907167">
        <ele>50.0</ele>
        <time>2020-06-22T09:01:27.615Z</time>
      </trkpt>
      <trkpt lat="38.877195" lon="1.32911333">
        <ele>48.0</ele>
        <time>2020-06-22T09:01:28.612Z</time>
      </trkpt>
      <trkpt lat="38.87707333" lon="1.32911333">
        <ele>47.0</ele>
        <time>2020-06-22T09:01:29.616Z</time>
      </trkpt>
      <trkpt lat="38.87707333" lon="1.32911333">
        <ele>47.0</ele>
        <time>2020-06-22T09:01:30.606Z</time>
      </trkpt>
      <trkpt lat="38.87682" lon="1.32908667">
        <ele>44.0</ele>
        <time>2020-06-22T09:01:31.616Z</time>
      </trkpt>
      <trkpt lat="38.87682" lon="1.32908667">
        <ele>44.0</ele>
        <time>2020-06-22T09:01:32.597Z</time>
      </trkpt>
      <trkpt lat="38.876565" lon="1.32900333">
        <ele>41.0</ele>
        <time>2020-06-22T09:01:33.616Z</time>
      </trkpt>
      <trkpt lat="38.876565" lon="1.32900333">
        <ele>41.0</ele>
        <time>2020-06-22T09:01:34.597Z</time>
      </trkpt>
      <trkpt lat="38.87633667" lon="1.32885333">
        <ele>38.0</ele>
        <time>2020-06-22T09:01:35.598Z</time>
      </trkpt>
      <trkpt lat="38.87633667" lon="1.32885333">
        <ele>38.0</ele>
        <time>2020-06-22T09:01:36.615Z</time>
      </trkpt>
      <trkpt lat="38.87610833" lon="1.32866833">
        <ele>36.0</ele>
        <time>2020-06-22T09:01:37.602Z</time>
      </trkpt>
      <trkpt lat="38.87599" lon="1.32858">
        <ele>35.0</ele>
        <time>2020-06-22T09:01:38.599Z</time>
      </trkpt>
      <trkpt lat="38.87599" lon="1.32858">
        <ele>35.0</ele>
        <time>2020-06-22T09:01:39.596Z</time>
      </trkpt>
      <trkpt lat="38.875735" lon="1.32846167">
        <ele>32.0</ele>
        <time>2020-06-22T09:01:40.625Z</time>
      </trkpt>
      <trkpt lat="38.87560167" lon="1.32843">
        <ele>31.0</ele>
        <time>2020-06-22T09:01:41.606Z</time>
      </trkpt>
      <trkpt lat="38.87546333" lon="1.32842">
        <ele>30.0</ele>
        <time>2020-06-22T09:01:42.601Z</time>
      </trkpt>
      <trkpt lat="38.87546333" lon="1.32842">
        <ele>30.0</ele>
        <time>2020-06-22T09:01:43.594Z</time>
      </trkpt>
      <trkpt lat="38.87519833" lon="1.32848">
        <ele>28.0</ele>
        <time>2020-06-22T09:01:44.616Z</time>
      </trkpt>
      <trkpt lat="38.87519833" lon="1.32848">
        <ele>28.0</ele>
        <time>2020-06-22T09:01:45.597Z</time>
      </trkpt>
      <trkpt lat="38.87495667" lon="1.32861833">
        <ele>26.0</ele>
        <time>2020-06-22T09:01:46.616Z</time>
      </trkpt>
      <trkpt lat="38.87495667" lon="1.32861833">
        <ele>26.0</ele>
        <time>2020-06-22T09:01:47.595Z</time>
      </trkpt>
      <trkpt lat="38.87472833" lon="1.32876833">
        <ele>24.0</ele>
        <time>2020-06-22T09:01:48.597Z</time>
      </trkpt>
      <trkpt lat="38.87472833" lon="1.32876833">
        <ele>24.0</ele>
        <time>2020-06-22T09:01:49.612Z</time>
      </trkpt>
      <trkpt lat="38.87449167" lon="1.32888667">
        <ele>23.0</ele>
        <time>2020-06-22T09:01:50.596Z</time>
      </trkpt>
      <trkpt lat="38.87449167" lon="1.32888667">
        <ele>23.0</ele>
        <time>2020-06-22T09:01:51.601Z</time>
      </trkpt>
      <trkpt lat="38.874245" lon="1.32896">
        <ele>22.0</ele>
        <time>2020-06-22T09:01:52.602Z</time>
      </trkpt>
      <trkpt lat="38.874245" lon="1.32896">
        <ele>22.0</ele>
        <time>2020-06-22T09:01:53.594Z</time>
      </trkpt>
      <trkpt lat="38.874" lon="1.32902833">
        <ele>22.0</ele>
        <time>2020-06-22T09:01:54.608Z</time>
      </trkpt>
      <trkpt lat="38.87388167" lon="1.32906">
        <ele>21.0</ele>
        <time>2020-06-22T09:01:55.626Z</time>
      </trkpt>
      <trkpt lat="38.87388167" lon="1.32906">
        <ele>21.0</ele>
        <time>2020-06-22T09:01:56.606Z</time>
      </trkpt>
      <trkpt lat="38.87364833" lon="1.329125">
        <ele>20.0</ele>
        <time>2020-06-22T09:01:57.611Z</time>
      </trkpt>
      <trkpt lat="38.873535" lon="1.32915667">
        <ele>19.0</ele>
        <time>2020-06-22T09:01:58.604Z</time>
      </trkpt>
      <trkpt lat="38.873535" lon="1.32915667">
        <ele>19.0</ele>
        <time>2020-06-22T09:01:59.596Z</time>
      </trkpt>
      <trkpt lat="38.87331" lon="1.32923">
        <ele>18.0</ele>
        <time>2020-06-22T09:02:00.608Z</time>
      </trkpt>
      <trkpt lat="38.87331" lon="1.32923">
        <ele>18.0</ele>
        <time>2020-06-22T09:02:01.597Z</time>
      </trkpt>
      <trkpt lat="38.87309667" lon="1.32928333">
        <ele>17.0</ele>
        <time>2020-06-22T09:02:02.601Z</time>
      </trkpt>
      <trkpt lat="38.87309667" lon="1.32928333">
        <ele>17.0</ele>
        <time>2020-06-22T09:02:03.596Z</time>
      </trkpt>
      <trkpt lat="38.872885" lon="1.32931">
        <ele>17.0</ele>
        <time>2020-06-22T09:02:04.617Z</time>
      </trkpt>
      <trkpt lat="38.872885" lon="1.32931">
        <ele>17.0</ele>
        <time>2020-06-22T09:02:05.627Z</time>
      </trkpt>
      <trkpt lat="38.872685" lon="1.32930333">
        <ele>16.0</ele>
        <time>2020-06-22T09:02:06.596Z</time>
      </trkpt>
      <trkpt lat="38.87258667" lon="1.32929">
        <ele>16.0</ele>
        <time>2020-06-22T09:02:07.616Z</time>
      </trkpt>
      <trkpt lat="38.87258667" lon="1.32929">
        <ele>16.0</ele>
        <time>2020-06-22T09:02:08.598Z</time>
      </trkpt>
      <trkpt lat="38.87239667" lon="1.32926667">
        <ele>15.0</ele>
        <time>2020-06-22T09:02:09.606Z</time>
      </trkpt>
      <trkpt lat="38.87239667" lon="1.32926667">
        <ele>15.0</ele>
        <time>2020-06-22T09:02:10.606Z</time>
      </trkpt>
      <trkpt lat="38.872205" lon="1.32927833">
        <ele>14.0</ele>
        <time>2020-06-22T09:02:11.615Z</time>
      </trkpt>
      <trkpt lat="38.87211167" lon="1.329305">
        <ele>14.0</ele>
        <time>2020-06-22T09:02:12.596Z</time>
      </trkpt>
      <trkpt lat="38.87211167" lon="1.329305">
        <ele>14.0</ele>
        <time>2020-06-22T09:02:13.611Z</time>
      </trkpt>
      <trkpt lat="38.87194333" lon="1.32940833">
        <ele>13.0</ele>
        <time>2020-06-22T09:02:14.594Z</time>
      </trkpt>
      <trkpt lat="38.87194333" lon="1.32940833">
        <ele>13.0</ele>
        <time>2020-06-22T09:02:15.610Z</time>
      </trkpt>
      <trkpt lat="38.871805" lon="1.329555">
        <ele>14.0</ele>
        <time>2020-06-22T09:02:16.619Z</time>
      </trkpt>
      <trkpt lat="38.87174667" lon="1.32964">
        <ele>14.0</ele>
        <time>2020-06-22T09:02:17.596Z</time>
      </trkpt>
      <trkpt lat="38.87169333" lon="1.32972667">
        <ele>15.0</ele>
        <time>2020-06-22T09:02:18.598Z</time>
      </trkpt>
      <trkpt lat="38.87169333" lon="1.32972667">
        <ele>15.0</ele>
        <time>2020-06-22T09:02:19.623Z</time>
      </trkpt>
      <trkpt lat="38.87158833" lon="1.329905">
        <ele>15.0</ele>
        <time>2020-06-22T09:02:20.595Z</time>
      </trkpt>
      <trkpt lat="38.87153833" lon="1.32999333">
        <ele>15.0</ele>
        <time>2020-06-22T09:02:21.613Z</time>
      </trkpt>
      <trkpt lat="38.87153833" lon="1.32999333">
        <ele>15.0</ele>
        <time>2020-06-22T09:02:22.628Z</time>
      </trkpt>
      <trkpt lat="38.87144667" lon="1.330185">
        <ele>15.0</ele>
        <time>2020-06-22T09:02:23.598Z</time>
      </trkpt>
      <trkpt lat="38.87140833" lon="1.33028833">
        <ele>14.0</ele>
        <time>2020-06-22T09:02:24.596Z</time>
      </trkpt>
      <trkpt lat="38.87140833" lon="1.33028833">
        <ele>14.0</ele>
        <time>2020-06-22T09:02:25.611Z</time>
      </trkpt>
      <trkpt lat="38.871335" lon="1.3305">
        <ele>13.0</ele>
        <time>2020-06-22T09:02:26.619Z</time>
      </trkpt>
      <trkpt lat="38.871335" lon="1.3305">
        <ele>13.0</ele>
        <time>2020-06-22T09:02:27.626Z</time>
      </trkpt>
      <trkpt lat="38.87126167" lon="1.33071167">
        <ele>13.0</ele>
        <time>2020-06-22T09:02:28.633Z</time>
      </trkpt>
      <trkpt lat="38.87126167" lon="1.33071167">
        <ele>13.0</ele>
        <time>2020-06-22T09:02:29.598Z</time>
      </trkpt>
      <trkpt lat="38.87118667" lon="1.33092">
        <ele>13.0</ele>
        <time>2020-06-22T09:02:30.596Z</time>
      </trkpt>
      <trkpt lat="38.87118667" lon="1.33092">
        <ele>13.0</ele>
        <time>2020-06-22T09:02:31.614Z</time>
      </trkpt>
      <trkpt lat="38.87110333" lon="1.33111667">
        <ele>12.0</ele>
        <time>2020-06-22T09:02:32.631Z</time>
      </trkpt>
      <trkpt lat="38.87110333" lon="1.33111667">
        <ele>12.0</ele>
        <time>2020-06-22T09:02:33.609Z</time>
      </trkpt>
      <trkpt lat="38.87101167" lon="1.331305">
        <ele>12.0</ele>
        <time>2020-06-22T09:02:34.625Z</time>
      </trkpt>
      <trkpt lat="38.87101167" lon="1.331305">
        <ele>12.0</ele>
        <time>2020-06-22T09:02:35.605Z</time>
      </trkpt>
      <trkpt lat="38.87091333" lon="1.33148167">
        <ele>13.0</ele>
        <time>2020-06-22T09:02:36.594Z</time>
      </trkpt>
      <trkpt lat="38.87091333" lon="1.33148167">
        <ele>13.0</ele>
        <time>2020-06-22T09:02:37.611Z</time>
      </trkpt>
      <trkpt lat="38.870805" lon="1.331645">
        <ele>13.0</ele>
        <time>2020-06-22T09:02:38.617Z</time>
      </trkpt>
      <trkpt lat="38.87075" lon="1.33172">
        <ele>13.0</ele>
        <time>2020-06-22T09:02:39.616Z</time>
      </trkpt>
      <trkpt lat="38.87075" lon="1.33172">
        <ele>13.0</ele>
        <time>2020-06-22T09:02:40.605Z</time>
      </trkpt>
      <trkpt lat="38.87064" lon="1.331865">
        <ele>13.0</ele>
        <time>2020-06-22T09:02:41.603Z</time>
      </trkpt>
      <trkpt lat="38.870585" lon="1.33193667">
        <ele>13.0</ele>
        <time>2020-06-22T09:02:42.627Z</time>
      </trkpt>
      <trkpt lat="38.870585" lon="1.33193667">
        <ele>13.0</ele>
        <time>2020-06-22T09:02:43.633Z</time>
      </trkpt>
      <trkpt lat="38.87048333" lon="1.33208833">
        <ele>13.0</ele>
        <time>2020-06-22T09:02:44.599Z</time>
      </trkpt>
      <trkpt lat="38.87044" lon="1.33217">
        <ele>12.0</ele>
        <time>2020-06-22T09:02:45.598Z</time>
      </trkpt>
      <trkpt lat="38.87039833" lon="1.332255">
        <ele>12.0</ele>
        <time>2020-06-22T09:02:46.626Z</time>
      </trkpt>
      <trkpt lat="38.87039833" lon="1.332255">
        <ele>12.0</ele>
        <time>2020-06-22T09:02:47.632Z</time>
      </trkpt>
      <trkpt lat="38.87031833" lon="1.33243167">
        <ele>12.0</ele>
        <time>2020-06-22T09:02:48.598Z</time>
      </trkpt>
      <trkpt lat="38.87031833" lon="1.33243167">
        <ele>12.0</ele>
        <time>2020-06-22T09:02:49.603Z</time>
      </trkpt>
      <trkpt lat="38.87024167" lon="1.33260833">
        <ele>12.0</ele>
        <time>2020-06-22T09:02:50.594Z</time>
      </trkpt>
      <trkpt lat="38.87024167" lon="1.33260833">
        <ele>12.0</ele>
        <time>2020-06-22T09:02:51.611Z</time>
      </trkpt>
      <trkpt lat="38.87016333" lon="1.33278833">
        <ele>11.0</ele>
        <time>2020-06-22T09:02:52.598Z</time>
      </trkpt>
      <trkpt lat="38.87016333" lon="1.33278833">
        <ele>11.0</ele>
        <time>2020-06-22T09:02:53.613Z</time>
      </trkpt>
      <trkpt lat="38.87008667" lon="1.33296833">
        <ele>11.0</ele>
        <time>2020-06-22T09:02:54.631Z</time>
      </trkpt>
      <trkpt lat="38.87008667" lon="1.33296833">
        <ele>11.0</ele>
        <time>2020-06-22T09:02:55.609Z</time>
      </trkpt>
      <trkpt lat="38.87001167" lon="1.33315167">
        <ele>10.0</ele>
        <time>2020-06-22T09:02:56.606Z</time>
      </trkpt>
      <trkpt lat="38.87001167" lon="1.33315167">
        <ele>10.0</ele>
        <time>2020-06-22T09:02:57.632Z</time>
      </trkpt>
      <trkpt lat="38.86994667" lon="1.33334167">
        <ele>10.0</ele>
        <time>2020-06-22T09:02:58.598Z</time>
      </trkpt>
      <trkpt lat="38.86994667" lon="1.33334167">
        <ele>10.0</ele>
        <time>2020-06-22T09:02:59.604Z</time>
      </trkpt>
      <trkpt lat="38.869885" lon="1.33353667">
        <ele>9.0</ele>
        <time>2020-06-22T09:03:00.626Z</time>
      </trkpt>
      <trkpt lat="38.869885" lon="1.33353667">
        <ele>9.0</ele>
        <time>2020-06-22T09:03:01.631Z</time>
      </trkpt>
      <trkpt lat="38.86982333" lon="1.333735">
        <ele>9.0</ele>
        <time>2020-06-22T09:03:02.604Z</time>
      </trkpt>
      <trkpt lat="38.86979333" lon="1.33383833">
        <ele>9.0</ele>
        <time>2020-06-22T09:03:03.606Z</time>
      </trkpt>
      <trkpt lat="38.86979333" lon="1.33383833">
        <ele>9.0</ele>
        <time>2020-06-22T09:03:04.596Z</time>
      </trkpt>
      <trkpt lat="38.86973333" lon="1.33404667">
        <ele>8.0</ele>
        <time>2020-06-22T09:03:05.616Z</time>
      </trkpt>
      <trkpt lat="38.86970167" lon="1.33415">
        <ele>8.0</ele>
        <time>2020-06-22T09:03:06.601Z</time>
      </trkpt>
      <trkpt lat="38.86970167" lon="1.33415">
        <ele>8.0</ele>
        <time>2020-06-22T09:03:07.620Z</time>
      </trkpt>
      <trkpt lat="38.869635" lon="1.33435667">
        <ele>7.0</ele>
        <time>2020-06-22T09:03:08.612Z</time>
      </trkpt>
      <trkpt lat="38.869635" lon="1.33435667">
        <ele>7.0</ele>
        <time>2020-06-22T09:03:09.594Z</time>
      </trkpt>
      <trkpt lat="38.86957167" lon="1.33456333">
        <ele>7.0</ele>
        <time>2020-06-22T09:03:10.626Z</time>
      </trkpt>
      <trkpt lat="38.86957167" lon="1.33456333">
        <ele>7.0</ele>
        <time>2020-06-22T09:03:11.605Z</time>
      </trkpt>
      <trkpt lat="38.86950833" lon="1.33476833">
        <ele>6.0</ele>
        <time>2020-06-22T09:03:12.600Z</time>
      </trkpt>
      <trkpt lat="38.86950833" lon="1.33476833">
        <ele>6.0</ele>
        <time>2020-06-22T09:03:13.594Z</time>
      </trkpt>
      <trkpt lat="38.86945" lon="1.33496833">
        <ele>6.0</ele>
        <time>2020-06-22T09:03:14.619Z</time>
      </trkpt>
      <trkpt lat="38.86945" lon="1.33496833">
        <ele>6.0</ele>
        <time>2020-06-22T09:03:15.596Z</time>
      </trkpt>
      <trkpt lat="38.86938667" lon="1.33516333">
        <ele>6.0</ele>
        <time>2020-06-22T09:03:16.616Z</time>
      </trkpt>
      <trkpt lat="38.86938667" lon="1.33516333">
        <ele>6.0</ele>
        <time>2020-06-22T09:03:17.598Z</time>
      </trkpt>
      <trkpt lat="38.86931833" lon="1.33535667">
        <ele>5.0</ele>
        <time>2020-06-22T09:03:18.633Z</time>
      </trkpt>
      <trkpt lat="38.86931833" lon="1.33535667">
        <ele>5.0</ele>
        <time>2020-06-22T09:03:19.614Z</time>
      </trkpt>
      <trkpt lat="38.86925667" lon="1.33554667">
        <ele>5.0</ele>
        <time>2020-06-22T09:03:20.597Z</time>
      </trkpt>
      <trkpt lat="38.86925667" lon="1.33554667">
        <ele>5.0</ele>
        <time>2020-06-22T09:03:21.614Z</time>
      </trkpt>
      <trkpt lat="38.86919833" lon="1.33572833">
        <ele>5.0</ele>
        <time>2020-06-22T09:03:22.633Z</time>
      </trkpt>
      <trkpt lat="38.86919833" lon="1.33572833">
        <ele>5.0</ele>
        <time>2020-06-22T09:03:23.594Z</time>
      </trkpt>
      <trkpt lat="38.869145" lon="1.33590167">
        <ele>6.0</ele>
        <time>2020-06-22T09:03:24.620Z</time>
      </trkpt>
      <trkpt lat="38.869145" lon="1.33590167">
        <ele>6.0</ele>
        <time>2020-06-22T09:03:25.598Z</time>
      </trkpt>
      <trkpt lat="38.86909167" lon="1.33607">
        <ele>7.0</ele>
        <time>2020-06-22T09:03:26.606Z</time>
      </trkpt>
      <trkpt lat="38.86909167" lon="1.33607">
        <ele>7.0</ele>
        <time>2020-06-22T09:03:27.597Z</time>
      </trkpt>
      <trkpt lat="38.86904667" lon="1.33625333">
        <ele>6.0</ele>
        <time>2020-06-22T09:03:28.606Z</time>
      </trkpt>
      <trkpt lat="38.86904667" lon="1.33625333">
        <ele>6.0</ele>
        <time>2020-06-22T09:03:29.594Z</time>
      </trkpt>
      <trkpt lat="38.869015" lon="1.336445">
        <ele>6.0</ele>
        <time>2020-06-22T09:03:30.598Z</time>
      </trkpt>
      <trkpt lat="38.869015" lon="1.336445">
        <ele>6.0</ele>
        <time>2020-06-22T09:03:31.614Z</time>
      </trkpt>
      <trkpt lat="38.86900167" lon="1.33664">
        <ele>6.0</ele>
        <time>2020-06-22T09:03:32.602Z</time>
      </trkpt>
      <trkpt lat="38.86900167" lon="1.33664">
        <ele>6.0</ele>
        <time>2020-06-22T09:03:33.595Z</time>
      </trkpt>
      <trkpt lat="38.869015" lon="1.33684">
        <ele>6.0</ele>
        <time>2020-06-22T09:03:34.599Z</time>
      </trkpt>
      <trkpt lat="38.869015" lon="1.33684">
        <ele>6.0</ele>
        <time>2020-06-22T09:03:35.615Z</time>
      </trkpt>
      <trkpt lat="38.86906167" lon="1.33703167">
        <ele>7.0</ele>
        <time>2020-06-22T09:03:36.603Z</time>
      </trkpt>
      <trkpt lat="38.86906167" lon="1.33703167">
        <ele>7.0</ele>
        <time>2020-06-22T09:03:37.596Z</time>
      </trkpt>
      <trkpt lat="38.86914" lon="1.33721333">
        <ele>7.0</ele>
        <time>2020-06-22T09:03:38.603Z</time>
      </trkpt>
      <trkpt lat="38.86914" lon="1.33721333">
        <ele>7.0</ele>
        <time>2020-06-22T09:03:39.594Z</time>
      </trkpt>
      <trkpt lat="38.86922667" lon="1.33739">
        <ele>7.0</ele>
        <time>2020-06-22T09:03:40.626Z</time>
      </trkpt>
      <trkpt lat="38.86922667" lon="1.33739">
        <ele>7.0</ele>
        <time>2020-06-22T09:03:41.601Z</time>
      </trkpt>
      <trkpt lat="38.86928167" lon="1.33758167">
        <ele>6.0</ele>
        <time>2020-06-22T09:03:42.632Z</time>
      </trkpt>
      <trkpt lat="38.86928167" lon="1.33758167">
        <ele>6.0</ele>
        <time>2020-06-22T09:03:43.614Z</time>
      </trkpt>
      <trkpt lat="38.8693" lon="1.33778833">
        <ele>6.0</ele>
        <time>2020-06-22T09:03:44.623Z</time>
      </trkpt>
      <trkpt lat="38.8693" lon="1.33778833">
        <ele>6.0</ele>
        <time>2020-06-22T09:03:45.596Z</time>
      </trkpt>
      <trkpt lat="38.86929833" lon="1.33799667">
        <ele>6.0</ele>
        <time>2020-06-22T09:03:46.595Z</time>
      </trkpt>
      <trkpt lat="38.86929833" lon="1.33799667">
        <ele>6.0</ele>
        <time>2020-06-22T09:03:47.613Z</time>
      </trkpt>
      <trkpt lat="38.869295" lon="1.33821333">
        <ele>6.0</ele>
        <time>2020-06-22T09:03:48.601Z</time>
      </trkpt>
      <trkpt lat="38.869295" lon="1.33821333">
        <ele>6.0</ele>
        <time>2020-06-22T09:03:49.596Z</time>
      </trkpt>
      <trkpt lat="38.86931167" lon="1.33843667">
        <ele>5.0</ele>
        <time>2020-06-22T09:03:50.596Z</time>
      </trkpt>
      <trkpt lat="38.86931167" lon="1.33843667">
        <ele>5.0</ele>
        <time>2020-06-22T09:03:51.611Z</time>
      </trkpt>
      <trkpt lat="38.86936" lon="1.33865667">
        <ele>6.0</ele>
        <time>2020-06-22T09:03:52.601Z</time>
      </trkpt>
      <trkpt lat="38.86936" lon="1.33865667">
        <ele>6.0</ele>
        <time>2020-06-22T09:03:53.594Z</time>
      </trkpt>
      <trkpt lat="38.86943" lon="1.33885333">
        <ele>6.0</ele>
        <time>2020-06-22T09:03:54.598Z</time>
      </trkpt>
      <trkpt lat="38.86946667" lon="1.33894167">
        <ele>6.0</ele>
        <time>2020-06-22T09:03:55.616Z</time>
      </trkpt>
      <trkpt lat="38.86950667" lon="1.33902333">
        <ele>6.0</ele>
        <time>2020-06-22T09:03:56.601Z</time>
      </trkpt>
      <trkpt lat="38.86950667" lon="1.33902333">
        <ele>6.0</ele>
        <time>2020-06-22T09:03:57.600Z</time>
      </trkpt>
      <trkpt lat="38.869595" lon="1.339175">
        <ele>6.0</ele>
        <time>2020-06-22T09:03:58.597Z</time>
      </trkpt>
      <trkpt lat="38.86964833" lon="1.33924167">
        <ele>6.0</ele>
        <time>2020-06-22T09:03:59.604Z</time>
      </trkpt>
      <trkpt lat="38.86964833" lon="1.33924167">
        <ele>6.0</ele>
        <time>2020-06-22T09:04:00.609Z</time>
      </trkpt>
      <trkpt lat="38.86975667" lon="1.33936667">
        <ele>6.0</ele>
        <time>2020-06-22T09:04:01.596Z</time>
      </trkpt>
      <trkpt lat="38.86981" lon="1.33943167">
        <ele>6.0</ele>
        <time>2020-06-22T09:04:02.597Z</time>
      </trkpt>
      <trkpt lat="38.86981" lon="1.33943167">
        <ele>6.0</ele>
        <time>2020-06-22T09:04:03.612Z</time>
      </trkpt>
      <trkpt lat="38.86991167" lon="1.33956667">
        <ele>6.0</ele>
        <time>2020-06-22T09:04:04.606Z</time>
      </trkpt>
      <trkpt lat="38.86991167" lon="1.33956667">
        <ele>6.0</ele>
        <time>2020-06-22T09:04:05.608Z</time>
      </trkpt>
      <trkpt lat="38.87002167" lon="1.3397">
        <ele>6.0</ele>
        <time>2020-06-22T09:04:06.610Z</time>
      </trkpt>
      <trkpt lat="38.87002167" lon="1.3397">
        <ele>6.0</ele>
        <time>2020-06-22T09:04:07.595Z</time>
      </trkpt>
      <trkpt lat="38.87011833" lon="1.33984333">
        <ele>5.0</ele>
        <time>2020-06-22T09:04:08.632Z</time>
      </trkpt>
      <trkpt lat="38.87011833" lon="1.33984333">
        <ele>5.0</ele>
        <time>2020-06-22T09:04:09.607Z</time>
      </trkpt>
      <trkpt lat="38.87024" lon="1.33997333">
        <ele>4.0</ele>
        <time>2020-06-22T09:04:10.595Z</time>
      </trkpt>
      <trkpt lat="38.87024" lon="1.33997333">
        <ele>4.0</ele>
        <time>2020-06-22T09:04:11.602Z</time>
      </trkpt>
      <trkpt lat="38.87035833" lon="1.340105">
        <ele>4.0</ele>
        <time>2020-06-22T09:04:12.609Z</time>
      </trkpt>
      <trkpt lat="38.87041333" lon="1.34016833">
        <ele>5.0</ele>
        <time>2020-06-22T09:04:13.633Z</time>
      </trkpt>
      <trkpt lat="38.87047" lon="1.34022833">
        <ele>5.0</ele>
        <time>2020-06-22T09:04:14.632Z</time>
      </trkpt>
      <trkpt lat="38.87047" lon="1.34022833">
        <ele>5.0</ele>
        <time>2020-06-22T09:04:15.611Z</time>
      </trkpt>
      <trkpt lat="38.87058667" lon="1.34033667">
        <ele>5.0</ele>
        <time>2020-06-22T09:04:16.630Z</time>
      </trkpt>
      <trkpt lat="38.87064333" lon="1.34039167">
        <ele>5.0</ele>
        <time>2020-06-22T09:04:17.616Z</time>
      </trkpt>
      <trkpt lat="38.87070167" lon="1.34044">
        <ele>4.0</ele>
        <time>2020-06-22T09:04:18.606Z</time>
      </trkpt>
      <trkpt lat="38.87070167" lon="1.34044">
        <ele>4.0</ele>
        <time>2020-06-22T09:04:19.595Z</time>
      </trkpt>
      <trkpt lat="38.870825" lon="1.34053167">
        <ele>4.0</ele>
        <time>2020-06-22T09:04:20.616Z</time>
      </trkpt>
      <trkpt lat="38.870885" lon="1.34057833">
        <ele>4.0</ele>
        <time>2020-06-22T09:04:21.613Z</time>
      </trkpt>
      <trkpt lat="38.870885" lon="1.34057833">
        <ele>4.0</ele>
        <time>2020-06-22T09:04:22.608Z</time>
      </trkpt>
      <trkpt lat="38.87100667" lon="1.34067">
        <ele>4.0</ele>
        <time>2020-06-22T09:04:23.630Z</time>
      </trkpt>
      <trkpt lat="38.871065" lon="1.34072333">
        <ele>4.0</ele>
        <time>2020-06-22T09:04:24.603Z</time>
      </trkpt>
      <trkpt lat="38.871065" lon="1.34072333">
        <ele>4.0</ele>
        <time>2020-06-22T09:04:25.595Z</time>
      </trkpt>
      <trkpt lat="38.87116667" lon="1.34084667">
        <ele>5.0</ele>
        <time>2020-06-22T09:04:26.599Z</time>
      </trkpt>
      <trkpt lat="38.87116667" lon="1.34084667">
        <ele>5.0</ele>
        <time>2020-06-22T09:04:27.614Z</time>
      </trkpt>
      <trkpt lat="38.87125" lon="1.34101667">
        <ele>5.0</ele>
        <time>2020-06-22T09:04:28.617Z</time>
      </trkpt>
      <trkpt lat="38.87125" lon="1.34101667">
        <ele>5.0</ele>
        <time>2020-06-22T09:04:29.595Z</time>
      </trkpt>
      <trkpt lat="38.87131833" lon="1.34119667">
        <ele>4.0</ele>
        <time>2020-06-22T09:04:30.617Z</time>
      </trkpt>
      <trkpt lat="38.87131833" lon="1.34119667">
        <ele>4.0</ele>
        <time>2020-06-22T09:04:31.623Z</time>
      </trkpt>
      <trkpt lat="38.87138333" lon="1.34138833">
        <ele>3.0</ele>
        <time>2020-06-22T09:04:32.610Z</time>
      </trkpt>
      <trkpt lat="38.87141667" lon="1.341485">
        <ele>3.0</ele>
        <time>2020-06-22T09:04:33.595Z</time>
      </trkpt>
      <trkpt lat="38.87141667" lon="1.341485">
        <ele>3.0</ele>
        <time>2020-06-22T09:04:34.610Z</time>
      </trkpt>
      <trkpt lat="38.871485" lon="1.34168333">
        <ele>3.0</ele>
        <time>2020-06-22T09:04:35.616Z</time>
      </trkpt>
      <trkpt lat="38.87152" lon="1.341785">
        <ele>3.0</ele>
        <time>2020-06-22T09:04:36.614Z</time>
      </trkpt>
      <trkpt lat="38.87152" lon="1.341785">
        <ele>3.0</ele>
        <time>2020-06-22T09:04:37.596Z</time>
      </trkpt>
      <trkpt lat="38.87158667" lon="1.34198833">
        <ele>3.0</ele>
        <time>2020-06-22T09:04:38.606Z</time>
      </trkpt>
      <trkpt lat="38.87158667" lon="1.34198833">
        <ele>3.0</ele>
        <time>2020-06-22T09:04:39.595Z</time>
      </trkpt>
      <trkpt lat="38.87163833" lon="1.3422">
        <ele>2.0</ele>
        <time>2020-06-22T09:04:40.606Z</time>
      </trkpt>
      <trkpt lat="38.87165667" lon="1.34230833">
        <ele>2.0</ele>
        <time>2020-06-22T09:04:41.616Z</time>
      </trkpt>
      <trkpt lat="38.87167" lon="1.34241833">
        <ele>2.0</ele>
        <time>2020-06-22T09:04:42.612Z</time>
      </trkpt>
      <trkpt lat="38.87167" lon="1.34241833">
        <ele>2.0</ele>
        <time>2020-06-22T09:04:43.594Z</time>
      </trkpt>
      <trkpt lat="38.87168667" lon="1.34264">
        <ele>2.0</ele>
        <time>2020-06-22T09:04:44.595Z</time>
      </trkpt>
      <trkpt lat="38.87168667" lon="1.34264">
        <ele>2.0</ele>
        <time>2020-06-22T09:04:45.618Z</time>
      </trkpt>
      <trkpt lat="38.8717" lon="1.342855">
        <ele>2.0</ele>
        <time>2020-06-22T09:04:46.627Z</time>
      </trkpt>
      <trkpt lat="38.8717" lon="1.34295833">
        <ele>2.0</ele>
        <time>2020-06-22T09:04:47.594Z</time>
      </trkpt>
      <trkpt lat="38.8717" lon="1.34295833">
        <ele>2.0</ele>
        <time>2020-06-22T09:04:48.600Z</time>
      </trkpt>
      <trkpt lat="38.87169667" lon="1.34317667">
        <ele>2.0</ele>
        <time>2020-06-22T09:04:49.620Z</time>
      </trkpt>
      <trkpt lat="38.87169667" lon="1.34317667">
        <ele>2.0</ele>
        <time>2020-06-22T09:04:50.607Z</time>
      </trkpt>
      <trkpt lat="38.87170333" lon="1.34339333">
        <ele>2.0</ele>
        <time>2020-06-22T09:04:51.605Z</time>
      </trkpt>
      <trkpt lat="38.87170333" lon="1.34339333">
        <ele>2.0</ele>
        <time>2020-06-22T09:04:52.595Z</time>
      </trkpt>
      <trkpt lat="38.87171833" lon="1.34360333">
        <ele>1.0</ele>
        <time>2020-06-22T09:04:53.616Z</time>
      </trkpt>
      <trkpt lat="38.87173667" lon="1.34370167">
        <ele>0.0</ele>
        <time>2020-06-22T09:04:54.633Z</time>
      </trkpt>
      <trkpt lat="38.87173667" lon="1.34370167">
        <ele>0.0</ele>
        <time>2020-06-22T09:04:55.613Z</time>
      </trkpt>
      <trkpt lat="38.87178" lon="1.34389833">
        <ele>-1.0</ele>
        <time>2020-06-22T09:04:56.618Z</time>
      </trkpt>
      <trkpt lat="38.87178" lon="1.34389833">
        <ele>-1.0</ele>
        <time>2020-06-22T09:04:57.626Z</time>
      </trkpt>
      <trkpt lat="38.87183" lon="1.344095">
        <ele>-1.0</ele>
        <time>2020-06-22T09:04:58.599Z</time>
      </trkpt>
      <trkpt lat="38.871855" lon="1.344195">
        <ele>-1.0</ele>
        <time>2020-06-22T09:04:59.603Z</time>
      </trkpt>
      <trkpt lat="38.87188333" lon="1.34429">
        <ele>-1.0</ele>
        <time>2020-06-22T09:05:00.605Z</time>
      </trkpt>
      <trkpt lat="38.87188333" lon="1.34429">
        <ele>-1.0</ele>
        <time>2020-06-22T09:05:01.614Z</time>
      </trkpt>
      <trkpt lat="38.87193833" lon="1.34447333">
        <ele>-2.0</ele>
        <time>2020-06-22T09:05:02.621Z</time>
      </trkpt>
      <trkpt lat="38.87193833" lon="1.34447333">
        <ele>-2.0</ele>
        <time>2020-06-22T09:05:03.628Z</time>
      </trkpt>
      <trkpt lat="38.87199" lon="1.344655">
        <ele>-1.0</ele>
        <time>2020-06-22T09:05:04.596Z</time>
      </trkpt>
      <trkpt lat="38.87201333" lon="1.34474833">
        <ele>-1.0</ele>
        <time>2020-06-22T09:05:05.626Z</time>
      </trkpt>
      <trkpt lat="38.87201333" lon="1.34474833">
        <ele>-1.0</ele>
        <time>2020-06-22T09:05:06.603Z</time>
      </trkpt>
      <trkpt lat="38.87206" lon="1.34493333">
        <ele>0.0</ele>
        <time>2020-06-22T09:05:07.628Z</time>
      </trkpt>
      <trkpt lat="38.87206" lon="1.34493333">
        <ele>0.0</ele>
        <time>2020-06-22T09:05:08.609Z</time>
      </trkpt>
      <trkpt lat="38.87210833" lon="1.34511833">
        <ele>0.0</ele>
        <time>2020-06-22T09:05:09.613Z</time>
      </trkpt>
      <trkpt lat="38.87210833" lon="1.34511833">
        <ele>0.0</ele>
        <time>2020-06-22T09:05:10.606Z</time>
      </trkpt>
      <trkpt lat="38.87215" lon="1.345305">
        <ele>0.0</ele>
        <time>2020-06-22T09:05:11.600Z</time>
      </trkpt>
      <trkpt lat="38.87215" lon="1.345305">
        <ele>0.0</ele>
        <time>2020-06-22T09:05:12.605Z</time>
      </trkpt>
      <trkpt lat="38.87217667" lon="1.34549667">
        <ele>1.0</ele>
        <time>2020-06-22T09:05:13.612Z</time>
      </trkpt>
      <trkpt lat="38.87217667" lon="1.34549667">
        <ele>1.0</ele>
        <time>2020-06-22T09:05:14.628Z</time>
      </trkpt>
      <trkpt lat="38.87218667" lon="1.34568667">
        <ele>1.0</ele>
        <time>2020-06-22T09:05:15.596Z</time>
      </trkpt>
      <trkpt lat="38.87218667" lon="1.34568667">
        <ele>1.0</ele>
        <time>2020-06-22T09:05:16.612Z</time>
      </trkpt>
      <trkpt lat="38.87218" lon="1.345875">
        <ele>1.0</ele>
        <time>2020-06-22T09:05:17.616Z</time>
      </trkpt>
      <trkpt lat="38.87218" lon="1.345875">
        <ele>1.0</ele>
        <time>2020-06-22T09:05:18.598Z</time>
      </trkpt>
      <trkpt lat="38.87217167" lon="1.34606167">
        <ele>1.0</ele>
        <time>2020-06-22T09:05:19.604Z</time>
      </trkpt>
      <trkpt lat="38.87217167" lon="1.34606167">
        <ele>1.0</ele>
        <time>2020-06-22T09:05:20.620Z</time>
      </trkpt>
      <trkpt lat="38.87216167" lon="1.34624333">
        <ele>1.0</ele>
        <time>2020-06-22T09:05:21.600Z</time>
      </trkpt>
      <trkpt lat="38.87216167" lon="1.34624333">
        <ele>1.0</ele>
        <time>2020-06-22T09:05:22.631Z</time>
      </trkpt>
      <trkpt lat="38.87215" lon="1.34642333">
        <ele>1.0</ele>
        <time>2020-06-22T09:05:23.596Z</time>
      </trkpt>
      <trkpt lat="38.872145" lon="1.34651333">
        <ele>1.0</ele>
        <time>2020-06-22T09:05:24.606Z</time>
      </trkpt>
      <trkpt lat="38.872145" lon="1.34651333">
        <ele>1.0</ele>
        <time>2020-06-22T09:05:25.594Z</time>
      </trkpt>
      <trkpt lat="38.87214" lon="1.34668833">
        <ele>1.0</ele>
        <time>2020-06-22T09:05:26.615Z</time>
      </trkpt>
      <trkpt lat="38.87214" lon="1.34668833">
        <ele>1.0</ele>
        <time>2020-06-22T09:05:27.595Z</time>
      </trkpt>
      <trkpt lat="38.87213833" lon="1.34686167">
        <ele>2.0</ele>
        <time>2020-06-22T09:05:28.600Z</time>
      </trkpt>
      <trkpt lat="38.87213833" lon="1.34686167">
        <ele>2.0</ele>
        <time>2020-06-22T09:05:29.606Z</time>
      </trkpt>
      <trkpt lat="38.87214667" lon="1.347035">
        <ele>1.0</ele>
        <time>2020-06-22T09:05:30.612Z</time>
      </trkpt>
      <trkpt lat="38.87214667" lon="1.347035">
        <ele>1.0</ele>
        <time>2020-06-22T09:05:31.617Z</time>
      </trkpt>
      <trkpt lat="38.87217167" lon="1.347205">
        <ele>1.0</ele>
        <time>2020-06-22T09:05:32.633Z</time>
      </trkpt>
      <trkpt lat="38.87217167" lon="1.347205">
        <ele>1.0</ele>
        <time>2020-06-22T09:05:33.608Z</time>
      </trkpt>
      <trkpt lat="38.872215" lon="1.34736667">
        <ele>1.0</ele>
        <time>2020-06-22T09:05:34.612Z</time>
      </trkpt>
      <trkpt lat="38.872215" lon="1.34736667">
        <ele>1.0</ele>
        <time>2020-06-22T09:05:35.594Z</time>
      </trkpt>
      <trkpt lat="38.87227" lon="1.34752167">
        <ele>1.0</ele>
        <time>2020-06-22T09:05:36.596Z</time>
      </trkpt>
      <trkpt lat="38.87227" lon="1.34752167">
        <ele>1.0</ele>
        <time>2020-06-22T09:05:37.616Z</time>
      </trkpt>
      <trkpt lat="38.87234167" lon="1.347685">
        <ele>1.0</ele>
        <time>2020-06-22T09:05:38.627Z</time>
      </trkpt>
      <trkpt lat="38.87234167" lon="1.347685">
        <ele>1.0</ele>
        <time>2020-06-22T09:05:39.632Z</time>
      </trkpt>
      <trkpt lat="38.872415" lon="1.347835">
        <ele>1.0</ele>
        <time>2020-06-22T09:05:40.598Z</time>
      </trkpt>
      <trkpt lat="38.872415" lon="1.347835">
        <ele>1.0</ele>
        <time>2020-06-22T09:05:41.603Z</time>
      </trkpt>
      <trkpt lat="38.87248333" lon="1.34798">
        <ele>1.0</ele>
        <time>2020-06-22T09:05:42.619Z</time>
      </trkpt>
      <trkpt lat="38.87248333" lon="1.34798">
        <ele>1.0</ele>
        <time>2020-06-22T09:05:43.629Z</time>
      </trkpt>
      <trkpt lat="38.87255667" lon="1.34812167">
        <ele>2.0</ele>
        <time>2020-06-22T09:05:44.598Z</time>
      </trkpt>
      <trkpt lat="38.87259667" lon="1.34819167">
        <ele>2.0</ele>
        <time>2020-06-22T09:05:45.617Z</time>
      </trkpt>
      <trkpt lat="38.87263333" lon="1.34826333">
        <ele>2.0</ele>
        <time>2020-06-22T09:05:46.621Z</time>
      </trkpt>
      <trkpt lat="38.87263333" lon="1.34826333">
        <ele>2.0</ele>
        <time>2020-06-22T09:05:47.599Z</time>
      </trkpt>
      <trkpt lat="38.872705" lon="1.34840667">
        <ele>2.0</ele>
        <time>2020-06-22T09:05:48.606Z</time>
      </trkpt>
      <trkpt lat="38.872705" lon="1.34840667">
        <ele>2.0</ele>
        <time>2020-06-22T09:05:49.611Z</time>
      </trkpt>
      <trkpt lat="38.87277833" lon="1.34854833">
        <ele>2.0</ele>
        <time>2020-06-22T09:05:50.619Z</time>
      </trkpt>
      <trkpt lat="38.87277833" lon="1.34854833">
        <ele>2.0</ele>
        <time>2020-06-22T09:05:51.630Z</time>
      </trkpt>
      <trkpt lat="38.87285667" lon="1.34868667">
        <ele>2.0</ele>
        <time>2020-06-22T09:05:52.633Z</time>
      </trkpt>
      <trkpt lat="38.87285667" lon="1.34868667">
        <ele>2.0</ele>
        <time>2020-06-22T09:05:53.608Z</time>
      </trkpt>
      <trkpt lat="38.872935" lon="1.34882833">
        <ele>2.0</ele>
        <time>2020-06-22T09:05:54.611Z</time>
      </trkpt>
      <trkpt lat="38.872935" lon="1.34882833">
        <ele>2.0</ele>
        <time>2020-06-22T09:05:55.595Z</time>
      </trkpt>
      <trkpt lat="38.87301167" lon="1.34896833">
        <ele>2.0</ele>
        <time>2020-06-22T09:05:56.616Z</time>
      </trkpt>
      <trkpt lat="38.87301167" lon="1.34896833">
        <ele>2.0</ele>
        <time>2020-06-22T09:05:57.595Z</time>
      </trkpt>
      <trkpt lat="38.873085" lon="1.34911167">
        <ele>2.0</ele>
        <time>2020-06-22T09:05:58.597Z</time>
      </trkpt>
      <trkpt lat="38.873085" lon="1.34911167">
        <ele>2.0</ele>
        <time>2020-06-22T09:05:59.602Z</time>
      </trkpt>
      <trkpt lat="38.87315833" lon="1.34925833">
        <ele>2.0</ele>
        <time>2020-06-22T09:06:00.613Z</time>
      </trkpt>
      <trkpt lat="38.87315833" lon="1.34925833">
        <ele>2.0</ele>
        <time>2020-06-22T09:06:01.619Z</time>
      </trkpt>
      <trkpt lat="38.87322833" lon="1.34940667">
        <ele>2.0</ele>
        <time>2020-06-22T09:06:02.596Z</time>
      </trkpt>
      <trkpt lat="38.87322833" lon="1.34940667">
        <ele>2.0</ele>
        <time>2020-06-22T09:06:03.611Z</time>
      </trkpt>
      <trkpt lat="38.873295" lon="1.34955833">
        <ele>2.0</ele>
        <time>2020-06-22T09:06:04.600Z</time>
      </trkpt>
      <trkpt lat="38.873295" lon="1.34955833">
        <ele>2.0</ele>
        <time>2020-06-22T09:06:05.595Z</time>
      </trkpt>
      <trkpt lat="38.87335833" lon="1.34971">
        <ele>2.0</ele>
        <time>2020-06-22T09:06:06.627Z</time>
      </trkpt>
      <trkpt lat="38.87335833" lon="1.34971">
        <ele>2.0</ele>
        <time>2020-06-22T09:06:07.633Z</time>
      </trkpt>
      <trkpt lat="38.87342667" lon="1.34986">
        <ele>2.0</ele>
        <time>2020-06-22T09:06:08.599Z</time>
      </trkpt>
      <trkpt lat="38.87342667" lon="1.34986">
        <ele>2.0</ele>
        <time>2020-06-22T09:06:09.604Z</time>
      </trkpt>
      <trkpt lat="38.87349333" lon="1.35000667">
        <ele>3.0</ele>
        <time>2020-06-22T09:06:10.616Z</time>
      </trkpt>
      <trkpt lat="38.87349333" lon="1.35000667">
        <ele>3.0</ele>
        <time>2020-06-22T09:06:11.599Z</time>
      </trkpt>
      <trkpt lat="38.87355667" lon="1.35015333">
        <ele>3.0</ele>
        <time>2020-06-22T09:06:12.601Z</time>
      </trkpt>
      <trkpt lat="38.87355667" lon="1.35015333">
        <ele>3.0</ele>
        <time>2020-06-22T09:06:13.607Z</time>
      </trkpt>
      <trkpt lat="38.87362" lon="1.35030167">
        <ele>3.0</ele>
        <time>2020-06-22T09:06:14.606Z</time>
      </trkpt>
      <trkpt lat="38.87362" lon="1.35030167">
        <ele>3.0</ele>
        <time>2020-06-22T09:06:15.595Z</time>
      </trkpt>
      <trkpt lat="38.87367667" lon="1.35045167">
        <ele>4.0</ele>
        <time>2020-06-22T09:06:16.626Z</time>
      </trkpt>
      <trkpt lat="38.87367667" lon="1.35045167">
        <ele>4.0</ele>
        <time>2020-06-22T09:06:17.601Z</time>
      </trkpt>
      <trkpt lat="38.87373167" lon="1.3506">
        <ele>4.0</ele>
        <time>2020-06-22T09:06:18.605Z</time>
      </trkpt>
      <trkpt lat="38.87373167" lon="1.3506">
        <ele>4.0</ele>
        <time>2020-06-22T09:06:19.623Z</time>
      </trkpt>
      <trkpt lat="38.87378833" lon="1.35075">
        <ele>4.0</ele>
        <time>2020-06-22T09:06:20.597Z</time>
      </trkpt>
      <trkpt lat="38.87378833" lon="1.35075">
        <ele>4.0</ele>
        <time>2020-06-22T09:06:21.613Z</time>
      </trkpt>
      <trkpt lat="38.87383833" lon="1.35090667">
        <ele>4.0</ele>
        <time>2020-06-22T09:06:22.623Z</time>
      </trkpt>
      <trkpt lat="38.87383833" lon="1.35090667">
        <ele>4.0</ele>
        <time>2020-06-22T09:06:23.597Z</time>
      </trkpt>
      <trkpt lat="38.87388833" lon="1.35106167">
        <ele>4.0</ele>
        <time>2020-06-22T09:06:24.607Z</time>
      </trkpt>
      <trkpt lat="38.87388833" lon="1.35106167">
        <ele>4.0</ele>
        <time>2020-06-22T09:06:25.612Z</time>
      </trkpt>
      <trkpt lat="38.873945" lon="1.35121333">
        <ele>5.0</ele>
        <time>2020-06-22T09:06:26.621Z</time>
      </trkpt>
      <trkpt lat="38.87397333" lon="1.35128833">
        <ele>5.0</ele>
        <time>2020-06-22T09:06:27.633Z</time>
      </trkpt>
      <trkpt lat="38.87397333" lon="1.35128833">
        <ele>5.0</ele>
        <time>2020-06-22T09:06:28.613Z</time>
      </trkpt>
      <trkpt lat="38.87402667" lon="1.351445">
        <ele>4.0</ele>
        <time>2020-06-22T09:06:29.616Z</time>
      </trkpt>
      <trkpt lat="38.87405333" lon="1.351525">
        <ele>4.0</ele>
        <time>2020-06-22T09:06:30.609Z</time>
      </trkpt>
      <trkpt lat="38.87405333" lon="1.351525">
        <ele>4.0</ele>
        <time>2020-06-22T09:06:31.609Z</time>
      </trkpt>
      <trkpt lat="38.87410833" lon="1.35168167">
        <ele>4.0</ele>
        <time>2020-06-22T09:06:32.616Z</time>
      </trkpt>
      <trkpt lat="38.87410833" lon="1.35168167">
        <ele>4.0</ele>
        <time>2020-06-22T09:06:33.598Z</time>
      </trkpt>
      <trkpt lat="38.87415833" lon="1.35184333">
        <ele>4.0</ele>
        <time>2020-06-22T09:06:34.626Z</time>
      </trkpt>
      <trkpt lat="38.87415833" lon="1.35184333">
        <ele>4.0</ele>
        <time>2020-06-22T09:06:35.603Z</time>
      </trkpt>
      <trkpt lat="38.87421167" lon="1.35200333">
        <ele>4.0</ele>
        <time>2020-06-22T09:06:36.611Z</time>
      </trkpt>
      <trkpt lat="38.87421167" lon="1.35200333">
        <ele>4.0</ele>
        <time>2020-06-22T09:06:37.597Z</time>
      </trkpt>
      <trkpt lat="38.87426833" lon="1.35216">
        <ele>3.0</ele>
        <time>2020-06-22T09:06:38.596Z</time>
      </trkpt>
      <trkpt lat="38.87426833" lon="1.35216">
        <ele>3.0</ele>
        <time>2020-06-22T09:06:39.595Z</time>
      </trkpt>
      <trkpt lat="38.874325" lon="1.35231667">
        <ele>3.0</ele>
        <time>2020-06-22T09:06:40.628Z</time>
      </trkpt>
      <trkpt lat="38.87435167" lon="1.35239333">
        <ele>3.0</ele>
        <time>2020-06-22T09:06:41.608Z</time>
      </trkpt>
      <trkpt lat="38.87435167" lon="1.35239333">
        <ele>3.0</ele>
        <time>2020-06-22T09:06:42.596Z</time>
      </trkpt>
      <trkpt lat="38.87440833" lon="1.35254833">
        <ele>3.0</ele>
        <time>2020-06-22T09:06:43.603Z</time>
      </trkpt>
      <trkpt lat="38.87440833" lon="1.35254833">
        <ele>3.0</ele>
        <time>2020-06-22T09:06:44.608Z</time>
      </trkpt>
      <trkpt lat="38.87446333" lon="1.35270667">
        <ele>3.0</ele>
        <time>2020-06-22T09:06:45.615Z</time>
      </trkpt>
      <trkpt lat="38.87446333" lon="1.35270667">
        <ele>3.0</ele>
        <time>2020-06-22T09:06:46.620Z</time>
      </trkpt>
      <trkpt lat="38.87452167" lon="1.35286">
        <ele>3.0</ele>
        <time>2020-06-22T09:06:47.605Z</time>
      </trkpt>
      <trkpt lat="38.87455167" lon="1.35293833">
        <ele>3.0</ele>
        <time>2020-06-22T09:06:48.607Z</time>
      </trkpt>
      <trkpt lat="38.87455167" lon="1.35293833">
        <ele>3.0</ele>
        <time>2020-06-22T09:06:49.613Z</time>
      </trkpt>
      <trkpt lat="38.87461333" lon="1.353095">
        <ele>2.0</ele>
        <time>2020-06-22T09:06:50.621Z</time>
      </trkpt>
      <trkpt lat="38.87461333" lon="1.353095">
        <ele>2.0</ele>
        <time>2020-06-22T09:06:51.628Z</time>
      </trkpt>
      <trkpt lat="38.87468167" lon="1.35324833">
        <ele>2.0</ele>
        <time>2020-06-22T09:06:52.626Z</time>
      </trkpt>
      <trkpt lat="38.87468167" lon="1.35324833">
        <ele>2.0</ele>
        <time>2020-06-22T09:06:53.614Z</time>
      </trkpt>
      <trkpt lat="38.87474833" lon="1.35340667">
        <ele>2.0</ele>
        <time>2020-06-22T09:06:54.603Z</time>
      </trkpt>
      <trkpt lat="38.87474833" lon="1.35340667">
        <ele>2.0</ele>
        <time>2020-06-22T09:06:55.595Z</time>
      </trkpt>
      <trkpt lat="38.87481667" lon="1.35356167">
        <ele>2.0</ele>
        <time>2020-06-22T09:06:56.605Z</time>
      </trkpt>
      <trkpt lat="38.87481667" lon="1.35356167">
        <ele>2.0</ele>
        <time>2020-06-22T09:06:57.595Z</time>
      </trkpt>
      <trkpt lat="38.87488333" lon="1.35371667">
        <ele>2.0</ele>
        <time>2020-06-22T09:06:58.631Z</time>
      </trkpt>
      <trkpt lat="38.87488333" lon="1.35371667">
        <ele>2.0</ele>
        <time>2020-06-22T09:06:59.624Z</time>
      </trkpt>
      <trkpt lat="38.87495167" lon="1.35387167">
        <ele>2.0</ele>
        <time>2020-06-22T09:07:00.626Z</time>
      </trkpt>
      <trkpt lat="38.87495167" lon="1.35387167">
        <ele>2.0</ele>
        <time>2020-06-22T09:07:01.601Z</time>
      </trkpt>
      <trkpt lat="38.87501833" lon="1.35402833">
        <ele>2.0</ele>
        <time>2020-06-22T09:07:02.596Z</time>
      </trkpt>
      <trkpt lat="38.87501833" lon="1.35402833">
        <ele>2.0</ele>
        <time>2020-06-22T09:07:03.611Z</time>
      </trkpt>
      <trkpt lat="38.87508833" lon="1.35418167">
        <ele>2.0</ele>
        <time>2020-06-22T09:07:04.616Z</time>
      </trkpt>
      <trkpt lat="38.87508833" lon="1.35418167">
        <ele>2.0</ele>
        <time>2020-06-22T09:07:05.598Z</time>
      </trkpt>
      <trkpt lat="38.87515833" lon="1.354335">
        <ele>2.0</ele>
        <time>2020-06-22T09:07:06.617Z</time>
      </trkpt>
      <trkpt lat="38.87515833" lon="1.354335">
        <ele>2.0</ele>
        <time>2020-06-22T09:07:07.624Z</time>
      </trkpt>
      <trkpt lat="38.87523" lon="1.354485">
        <ele>2.0</ele>
        <time>2020-06-22T09:07:08.631Z</time>
      </trkpt>
      <trkpt lat="38.87523" lon="1.354485">
        <ele>2.0</ele>
        <time>2020-06-22T09:07:09.600Z</time>
      </trkpt>
      <trkpt lat="38.875305" lon="1.35463333">
        <ele>2.0</ele>
        <time>2020-06-22T09:07:10.604Z</time>
      </trkpt>
      <trkpt lat="38.87534167" lon="1.35470833">
        <ele>2.0</ele>
        <time>2020-06-22T09:07:11.596Z</time>
      </trkpt>
      <trkpt lat="38.87534167" lon="1.35470833">
        <ele>2.0</ele>
        <time>2020-06-22T09:07:12.602Z</time>
      </trkpt>
      <trkpt lat="38.87541" lon="1.35485833">
        <ele>2.0</ele>
        <time>2020-06-22T09:07:13.595Z</time>
      </trkpt>
      <trkpt lat="38.87544667" lon="1.35493167">
        <ele>2.0</ele>
        <time>2020-06-22T09:07:14.628Z</time>
      </trkpt>
      <trkpt lat="38.87544667" lon="1.35493167">
        <ele>2.0</ele>
        <time>2020-06-22T09:07:15.606Z</time>
      </trkpt>
      <trkpt lat="38.87552167" lon="1.355075">
        <ele>3.0</ele>
        <time>2020-06-22T09:07:16.627Z</time>
      </trkpt>
      <trkpt lat="38.87555667" lon="1.35514333">
        <ele>3.0</ele>
        <time>2020-06-22T09:07:17.633Z</time>
      </trkpt>
      <trkpt lat="38.87555667" lon="1.35514333">
        <ele>3.0</ele>
        <time>2020-06-22T09:07:18.598Z</time>
      </trkpt>
      <trkpt lat="38.87563333" lon="1.35527833">
        <ele>4.0</ele>
        <time>2020-06-22T09:07:19.626Z</time>
      </trkpt>
      <trkpt lat="38.87563333" lon="1.35527833">
        <ele>4.0</ele>
        <time>2020-06-22T09:07:20.607Z</time>
      </trkpt>
      <trkpt lat="38.87571167" lon="1.35541">
        <ele>5.0</ele>
        <time>2020-06-22T09:07:21.601Z</time>
      </trkpt>
      <trkpt lat="38.87571167" lon="1.35541">
        <ele>5.0</ele>
        <time>2020-06-22T09:07:22.608Z</time>
      </trkpt>
      <trkpt lat="38.87578333" lon="1.35554833">
        <ele>5.0</ele>
        <time>2020-06-22T09:07:23.611Z</time>
      </trkpt>
      <trkpt lat="38.87578333" lon="1.35554833">
        <ele>5.0</ele>
        <time>2020-06-22T09:07:24.597Z</time>
      </trkpt>
      <trkpt lat="38.87586333" lon="1.35567667">
        <ele>5.0</ele>
        <time>2020-06-22T09:07:25.606Z</time>
      </trkpt>
      <trkpt lat="38.875905" lon="1.35573833">
        <ele>5.0</ele>
        <time>2020-06-22T09:07:26.626Z</time>
      </trkpt>
      <trkpt lat="38.875905" lon="1.35573833">
        <ele>5.0</ele>
        <time>2020-06-22T09:07:27.633Z</time>
      </trkpt>
      <trkpt lat="38.87599167" lon="1.35585667">
        <ele>6.0</ele>
        <time>2020-06-22T09:07:28.599Z</time>
      </trkpt>
      <trkpt lat="38.876035" lon="1.35591833">
        <ele>6.0</ele>
        <time>2020-06-22T09:07:29.608Z</time>
      </trkpt>
      <trkpt lat="38.876035" lon="1.35591833">
        <ele>6.0</ele>
        <time>2020-06-22T09:07:30.605Z</time>
      </trkpt>
      <trkpt lat="38.87612333" lon="1.35603667">
        <ele>6.0</ele>
        <time>2020-06-22T09:07:31.632Z</time>
      </trkpt>
      <trkpt lat="38.876165" lon="1.356095">
        <ele>6.0</ele>
        <time>2020-06-22T09:07:32.610Z</time>
      </trkpt>
      <trkpt lat="38.876165" lon="1.356095">
        <ele>6.0</ele>
        <time>2020-06-22T09:07:33.596Z</time>
      </trkpt>
      <trkpt lat="38.87625667" lon="1.35621167">
        <ele>7.0</ele>
        <time>2020-06-22T09:07:34.626Z</time>
      </trkpt>
      <trkpt lat="38.87625667" lon="1.35621167">
        <ele>7.0</ele>
        <time>2020-06-22T09:07:35.631Z</time>
      </trkpt>
      <trkpt lat="38.87635833" lon="1.35631">
        <ele>7.0</ele>
        <time>2020-06-22T09:07:36.600Z</time>
      </trkpt>
      <trkpt lat="38.87635833" lon="1.35631">
        <ele>7.0</ele>
        <time>2020-06-22T09:07:37.606Z</time>
      </trkpt>
      <trkpt lat="38.87646333" lon="1.35640167">
        <ele>7.0</ele>
        <time>2020-06-22T09:07:38.603Z</time>
      </trkpt>
      <trkpt lat="38.87646333" lon="1.35640167">
        <ele>7.0</ele>
        <time>2020-06-22T09:07:39.595Z</time>
      </trkpt>
      <trkpt lat="38.87656833" lon="1.35649167">
        <ele>8.0</ele>
        <time>2020-06-22T09:07:40.615Z</time>
      </trkpt>
      <trkpt lat="38.87656833" lon="1.35649167">
        <ele>8.0</ele>
        <time>2020-06-22T09:07:41.621Z</time>
      </trkpt>
      <trkpt lat="38.876675" lon="1.35658167">
        <ele>8.0</ele>
        <time>2020-06-22T09:07:42.595Z</time>
      </trkpt>
      <trkpt lat="38.876675" lon="1.35658167">
        <ele>8.0</ele>
        <time>2020-06-22T09:07:43.615Z</time>
      </trkpt>
      <trkpt lat="38.87677667" lon="1.35667333">
        <ele>8.0</ele>
        <time>2020-06-22T09:07:44.599Z</time>
      </trkpt>
      <trkpt lat="38.87677667" lon="1.35667333">
        <ele>8.0</ele>
        <time>2020-06-22T09:07:45.604Z</time>
      </trkpt>
      <trkpt lat="38.87687833" lon="1.35676333">
        <ele>8.0</ele>
        <time>2020-06-22T09:07:46.611Z</time>
      </trkpt>
      <trkpt lat="38.87687833" lon="1.35676333">
        <ele>8.0</ele>
        <time>2020-06-22T09:07:47.618Z</time>
      </trkpt>
      <trkpt lat="38.87697833" lon="1.35686333">
        <ele>8.0</ele>
        <time>2020-06-22T09:07:48.606Z</time>
      </trkpt>
      <trkpt lat="38.87697833" lon="1.35686333">
        <ele>8.0</ele>
        <time>2020-06-22T09:07:49.596Z</time>
      </trkpt>
      <trkpt lat="38.87707667" lon="1.35697167">
        <ele>8.0</ele>
        <time>2020-06-22T09:07:50.630Z</time>
      </trkpt>
      <trkpt lat="38.87707667" lon="1.35697167">
        <ele>8.0</ele>
        <time>2020-06-22T09:07:51.613Z</time>
      </trkpt>
      <trkpt lat="38.87717167" lon="1.35709">
        <ele>8.0</ele>
        <time>2020-06-22T09:07:52.615Z</time>
      </trkpt>
      <trkpt lat="38.87717167" lon="1.35709">
        <ele>8.0</ele>
        <time>2020-06-22T09:07:53.620Z</time>
      </trkpt>
      <trkpt lat="38.87726667" lon="1.35719833">
        <ele>9.0</ele>
        <time>2020-06-22T09:07:54.627Z</time>
      </trkpt>
      <trkpt lat="38.87726667" lon="1.35719833">
        <ele>9.0</ele>
        <time>2020-06-22T09:07:55.633Z</time>
      </trkpt>
      <trkpt lat="38.87735333" lon="1.357305">
        <ele>10.0</ele>
        <time>2020-06-22T09:07:56.629Z</time>
      </trkpt>
      <trkpt lat="38.87735333" lon="1.357305">
        <ele>10.0</ele>
        <time>2020-06-22T09:07:57.613Z</time>
      </trkpt>
      <trkpt lat="38.87742667" lon="1.35742">
        <ele>10.0</ele>
        <time>2020-06-22T09:07:58.618Z</time>
      </trkpt>
      <trkpt lat="38.87742667" lon="1.35742">
        <ele>10.0</ele>
        <time>2020-06-22T09:07:59.595Z</time>
      </trkpt>
      <trkpt lat="38.87748667" lon="1.35754667">
        <ele>11.0</ele>
        <time>2020-06-22T09:08:00.601Z</time>
      </trkpt>
      <trkpt lat="38.87748667" lon="1.35754667">
        <ele>11.0</ele>
        <time>2020-06-22T09:08:01.618Z</time>
      </trkpt>
      <trkpt lat="38.87756" lon="1.35767167">
        <ele>12.0</ele>
        <time>2020-06-22T09:08:02.629Z</time>
      </trkpt>
      <trkpt lat="38.87756" lon="1.35767167">
        <ele>12.0</ele>
        <time>2020-06-22T09:08:03.595Z</time>
      </trkpt>
      <trkpt lat="38.87763333" lon="1.357795">
        <ele>11.0</ele>
        <time>2020-06-22T09:08:04.615Z</time>
      </trkpt>
      <trkpt lat="38.87763333" lon="1.357795">
        <ele>11.0</ele>
        <time>2020-06-22T09:08:05.622Z</time>
      </trkpt>
      <trkpt lat="38.877715" lon="1.35789167">
        <ele>11.0</ele>
        <time>2020-06-22T09:08:06.631Z</time>
      </trkpt>
      <trkpt lat="38.877715" lon="1.35789167">
        <ele>11.0</ele>
        <time>2020-06-22T09:08:07.598Z</time>
      </trkpt>
      <trkpt lat="38.87781667" lon="1.357965">
        <ele>11.0</ele>
        <time>2020-06-22T09:08:08.632Z</time>
      </trkpt>
      <trkpt lat="38.87781667" lon="1.357965">
        <ele>11.0</ele>
        <time>2020-06-22T09:08:09.623Z</time>
      </trkpt>
      <trkpt lat="38.87792667" lon="1.35801333">
        <ele>12.0</ele>
        <time>2020-06-22T09:08:10.595Z</time>
      </trkpt>
      <trkpt lat="38.87792667" lon="1.35801333">
        <ele>12.0</ele>
        <time>2020-06-22T09:08:11.600Z</time>
      </trkpt>
      <trkpt lat="38.87804333" lon="1.358045">
        <ele>13.0</ele>
        <time>2020-06-22T09:08:12.607Z</time>
      </trkpt>
      <trkpt lat="38.87804333" lon="1.358045">
        <ele>13.0</ele>
        <time>2020-06-22T09:08:13.612Z</time>
      </trkpt>
      <trkpt lat="38.87816" lon="1.35807">
        <ele>13.0</ele>
        <time>2020-06-22T09:08:14.614Z</time>
      </trkpt>
      <trkpt lat="38.87816" lon="1.35807">
        <ele>13.0</ele>
        <time>2020-06-22T09:08:15.595Z</time>
      </trkpt>
      <trkpt lat="38.878275" lon="1.35809833">
        <ele>14.0</ele>
        <time>2020-06-22T09:08:16.595Z</time>
      </trkpt>
      <trkpt lat="38.878275" lon="1.35809833">
        <ele>14.0</ele>
        <time>2020-06-22T09:08:17.601Z</time>
      </trkpt>
      <trkpt lat="38.87838667" lon="1.35814">
        <ele>14.0</ele>
        <time>2020-06-22T09:08:18.608Z</time>
      </trkpt>
      <trkpt lat="38.87838667" lon="1.35814">
        <ele>14.0</ele>
        <time>2020-06-22T09:08:19.613Z</time>
      </trkpt>
      <trkpt lat="38.87849333" lon="1.35820167">
        <ele>14.0</ele>
        <time>2020-06-22T09:08:20.632Z</time>
      </trkpt>
      <trkpt lat="38.87854333" lon="1.35824167">
        <ele>14.0</ele>
        <time>2020-06-22T09:08:21.616Z</time>
      </trkpt>
      <trkpt lat="38.87858667" lon="1.35829">
        <ele>14.0</ele>
        <time>2020-06-22T09:08:22.627Z</time>
      </trkpt>
      <trkpt lat="38.87858667" lon="1.35829">
        <ele>14.0</ele>
        <time>2020-06-22T09:08:23.595Z</time>
      </trkpt>
      <trkpt lat="38.87865833" lon="1.35840833">
        <ele>14.0</ele>
        <time>2020-06-22T09:08:24.596Z</time>
      </trkpt>
      <trkpt lat="38.87865833" lon="1.35840833">
        <ele>14.0</ele>
        <time>2020-06-22T09:08:25.612Z</time>
      </trkpt>
      <trkpt lat="38.87871167" lon="1.35854333">
        <ele>14.0</ele>
        <time>2020-06-22T09:08:26.597Z</time>
      </trkpt>
      <trkpt lat="38.87871167" lon="1.35854333">
        <ele>14.0</ele>
        <time>2020-06-22T09:08:27.602Z</time>
      </trkpt>
      <trkpt lat="38.87876333" lon="1.35868667">
        <ele>14.0</ele>
        <time>2020-06-22T09:08:28.617Z</time>
      </trkpt>
      <trkpt lat="38.87876333" lon="1.35868667">
        <ele>14.0</ele>
        <time>2020-06-22T09:08:29.625Z</time>
      </trkpt>
      <trkpt lat="38.878815" lon="1.35883167">
        <ele>14.0</ele>
        <time>2020-06-22T09:08:30.604Z</time>
      </trkpt>
      <trkpt lat="38.87884167" lon="1.358905">
        <ele>14.0</ele>
        <time>2020-06-22T09:08:31.627Z</time>
      </trkpt>
      <trkpt lat="38.87884167" lon="1.358905">
        <ele>14.0</ele>
        <time>2020-06-22T09:08:32.632Z</time>
      </trkpt>
      <trkpt lat="38.87889333" lon="1.35905">
        <ele>14.0</ele>
        <time>2020-06-22T09:08:33.602Z</time>
      </trkpt>
      <trkpt lat="38.87892333" lon="1.35912">
        <ele>15.0</ele>
        <time>2020-06-22T09:08:34.622Z</time>
      </trkpt>
      <trkpt lat="38.87892333" lon="1.35912">
        <ele>15.0</ele>
        <time>2020-06-22T09:08:35.601Z</time>
      </trkpt>
      <trkpt lat="38.87898833" lon="1.35925833">
        <ele>15.0</ele>
        <time>2020-06-22T09:08:36.616Z</time>
      </trkpt>
      <trkpt lat="38.87898833" lon="1.35925833">
        <ele>15.0</ele>
        <time>2020-06-22T09:08:37.596Z</time>
      </trkpt>
      <trkpt lat="38.87906333" lon="1.35939167">
        <ele>15.0</ele>
        <time>2020-06-22T09:08:38.616Z</time>
      </trkpt>
      <trkpt lat="38.87906333" lon="1.35939167">
        <ele>15.0</ele>
        <time>2020-06-22T09:08:39.622Z</time>
      </trkpt>
      <trkpt lat="38.87914333" lon="1.35952">
        <ele>15.0</ele>
        <time>2020-06-22T09:08:40.630Z</time>
      </trkpt>
      <trkpt lat="38.87918667" lon="1.35957833">
        <ele>15.0</ele>
        <time>2020-06-22T09:08:41.616Z</time>
      </trkpt>
      <trkpt lat="38.87922833" lon="1.35963833">
        <ele>15.0</ele>
        <time>2020-06-22T09:08:42.618Z</time>
      </trkpt>
      <trkpt lat="38.87927167" lon="1.35969833">
        <ele>15.0</ele>
        <time>2020-06-22T09:08:43.611Z</time>
      </trkpt>
      <trkpt lat="38.87927167" lon="1.35969833">
        <ele>15.0</ele>
        <time>2020-06-22T09:08:44.616Z</time>
      </trkpt>
      <trkpt lat="38.87935833" lon="1.359815">
        <ele>15.0</ele>
        <time>2020-06-22T09:08:45.627Z</time>
      </trkpt>
      <trkpt lat="38.87940167" lon="1.35987333">
        <ele>15.0</ele>
        <time>2020-06-22T09:08:46.603Z</time>
      </trkpt>
      <trkpt lat="38.87940167" lon="1.35987333">
        <ele>15.0</ele>
        <time>2020-06-22T09:08:47.596Z</time>
      </trkpt>
      <trkpt lat="38.87948667" lon="1.35999">
        <ele>15.0</ele>
        <time>2020-06-22T09:08:48.607Z</time>
      </trkpt>
      <trkpt lat="38.87948667" lon="1.35999">
        <ele>15.0</ele>
        <time>2020-06-22T09:08:49.612Z</time>
      </trkpt>
      <trkpt lat="38.87956333" lon="1.360115">
        <ele>15.0</ele>
        <time>2020-06-22T09:08:50.624Z</time>
      </trkpt>
      <trkpt lat="38.87956333" lon="1.360115">
        <ele>15.0</ele>
        <time>2020-06-22T09:08:51.632Z</time>
      </trkpt>
      <trkpt lat="38.87963" lon="1.36025167">
        <ele>15.0</ele>
        <time>2020-06-22T09:08:52.626Z</time>
      </trkpt>
      <trkpt lat="38.87963" lon="1.36025167">
        <ele>15.0</ele>
        <time>2020-06-22T09:08:53.632Z</time>
      </trkpt>
      <trkpt lat="38.87968333" lon="1.360395">
        <ele>15.0</ele>
        <time>2020-06-22T09:08:54.599Z</time>
      </trkpt>
      <trkpt lat="38.87968333" lon="1.360395">
        <ele>15.0</ele>
        <time>2020-06-22T09:08:55.604Z</time>
      </trkpt>
      <trkpt lat="38.87972833" lon="1.36054167">
        <ele>15.0</ele>
        <time>2020-06-22T09:08:56.618Z</time>
      </trkpt>
      <trkpt lat="38.87972833" lon="1.36054167">
        <ele>15.0</ele>
        <time>2020-06-22T09:08:57.625Z</time>
      </trkpt>
      <trkpt lat="38.87977167" lon="1.36069">
        <ele>15.0</ele>
        <time>2020-06-22T09:08:58.631Z</time>
      </trkpt>
      <trkpt lat="38.87977167" lon="1.36069">
        <ele>15.0</ele>
        <time>2020-06-22T09:08:59.597Z</time>
      </trkpt>
      <trkpt lat="38.87981" lon="1.36084">
        <ele>15.0</ele>
        <time>2020-06-22T09:09:00.613Z</time>
      </trkpt>
      <trkpt lat="38.87981" lon="1.36084">
        <ele>15.0</ele>
        <time>2020-06-22T09:09:01.631Z</time>
      </trkpt>
      <trkpt lat="38.87985" lon="1.36098833">
        <ele>15.0</ele>
        <time>2020-06-22T09:09:02.630Z</time>
      </trkpt>
      <trkpt lat="38.87987333" lon="1.36106">
        <ele>15.0</ele>
        <time>2020-06-22T09:09:03.613Z</time>
      </trkpt>
      <trkpt lat="38.87987333" lon="1.36106">
        <ele>15.0</ele>
        <time>2020-06-22T09:09:04.630Z</time>
      </trkpt>
      <trkpt lat="38.879915" lon="1.36120167">
        <ele>15.0</ele>
        <time>2020-06-22T09:09:05.598Z</time>
      </trkpt>
      <trkpt lat="38.879915" lon="1.36120167">
        <ele>15.0</ele>
        <time>2020-06-22T09:09:06.603Z</time>
      </trkpt>
      <trkpt lat="38.87995" lon="1.36135">
        <ele>15.0</ele>
        <time>2020-06-22T09:09:07.622Z</time>
      </trkpt>
      <trkpt lat="38.87995" lon="1.36135">
        <ele>15.0</ele>
        <time>2020-06-22T09:09:08.629Z</time>
      </trkpt>
      <trkpt lat="38.87995167" lon="1.36152333">
        <ele>15.0</ele>
        <time>2020-06-22T09:09:09.596Z</time>
      </trkpt>
      <trkpt lat="38.87993" lon="1.36160833">
        <ele>15.0</ele>
        <time>2020-06-22T09:09:10.632Z</time>
      </trkpt>
      <trkpt lat="38.87993" lon="1.36160833">
        <ele>15.0</ele>
        <time>2020-06-22T09:09:11.598Z</time>
      </trkpt>
      <trkpt lat="38.87985833" lon="1.36177">
        <ele>15.0</ele>
        <time>2020-06-22T09:09:12.609Z</time>
      </trkpt>
      <trkpt lat="38.87985833" lon="1.36177">
        <ele>15.0</ele>
        <time>2020-06-22T09:09:13.615Z</time>
      </trkpt>
      <trkpt lat="38.87976667" lon="1.36192833">
        <ele>15.0</ele>
        <time>2020-06-22T09:09:14.626Z</time>
      </trkpt>
      <trkpt lat="38.87976667" lon="1.36192833">
        <ele>15.0</ele>
        <time>2020-06-22T09:09:15.631Z</time>
      </trkpt>
      <trkpt lat="38.879675" lon="1.362085">
        <ele>14.0</ele>
        <time>2020-06-22T09:09:16.597Z</time>
      </trkpt>
      <trkpt lat="38.879675" lon="1.362085">
        <ele>14.0</ele>
        <time>2020-06-22T09:09:17.602Z</time>
      </trkpt>
      <trkpt lat="38.87957833" lon="1.36223833">
        <ele>14.0</ele>
        <time>2020-06-22T09:09:18.610Z</time>
      </trkpt>
      <trkpt lat="38.87957833" lon="1.36223833">
        <ele>14.0</ele>
        <time>2020-06-22T09:09:19.615Z</time>
      </trkpt>
      <trkpt lat="38.87948167" lon="1.36238667">
        <ele>14.0</ele>
        <time>2020-06-22T09:09:20.625Z</time>
      </trkpt>
      <trkpt lat="38.87943333" lon="1.36246">
        <ele>13.0</ele>
        <time>2020-06-22T09:09:21.606Z</time>
      </trkpt>
      <trkpt lat="38.87943333" lon="1.36246">
        <ele>13.0</ele>
        <time>2020-06-22T09:09:22.597Z</time>
      </trkpt>
      <trkpt lat="38.87933" lon="1.36259667">
        <ele>13.0</ele>
        <time>2020-06-22T09:09:23.633Z</time>
      </trkpt>
      <trkpt lat="38.879275" lon="1.36266167">
        <ele>13.0</ele>
        <time>2020-06-22T09:09:24.598Z</time>
      </trkpt>
      <trkpt lat="38.879275" lon="1.36266167">
        <ele>13.0</ele>
        <time>2020-06-22T09:09:25.603Z</time>
      </trkpt>
      <trkpt lat="38.87915667" lon="1.36277667">
        <ele>13.0</ele>
        <time>2020-06-22T09:09:26.610Z</time>
      </trkpt>
      <trkpt lat="38.87915667" lon="1.36277667">
        <ele>13.0</ele>
        <time>2020-06-22T09:09:27.616Z</time>
      </trkpt>
      <trkpt lat="38.879035" lon="1.362885">
        <ele>13.0</ele>
        <time>2020-06-22T09:09:28.625Z</time>
      </trkpt>
      <trkpt lat="38.879035" lon="1.362885">
        <ele>13.0</ele>
        <time>2020-06-22T09:09:29.633Z</time>
      </trkpt>
      <trkpt lat="38.87890833" lon="1.36299333">
        <ele>13.0</ele>
        <time>2020-06-22T09:09:30.606Z</time>
      </trkpt>
      <trkpt lat="38.87890833" lon="1.36299333">
        <ele>13.0</ele>
        <time>2020-06-22T09:09:31.611Z</time>
      </trkpt>
      <trkpt lat="38.87877833" lon="1.36309833">
        <ele>13.0</ele>
        <time>2020-06-22T09:09:32.618Z</time>
      </trkpt>
      <trkpt lat="38.87877833" lon="1.36309833">
        <ele>13.0</ele>
        <time>2020-06-22T09:09:33.625Z</time>
      </trkpt>
      <trkpt lat="38.87865" lon="1.363205">
        <ele>12.0</ele>
        <time>2020-06-22T09:09:34.632Z</time>
      </trkpt>
      <trkpt lat="38.87865" lon="1.363205">
        <ele>12.0</ele>
        <time>2020-06-22T09:09:35.597Z</time>
      </trkpt>
      <trkpt lat="38.87852167" lon="1.36331167">
        <ele>12.0</ele>
        <time>2020-06-22T09:09:36.629Z</time>
      </trkpt>
      <trkpt lat="38.87852167" lon="1.36331167">
        <ele>12.0</ele>
        <time>2020-06-22T09:09:37.595Z</time>
      </trkpt>
      <trkpt lat="38.87839333" lon="1.36341667">
        <ele>12.0</ele>
        <time>2020-06-22T09:09:38.601Z</time>
      </trkpt>
      <trkpt lat="38.87839333" lon="1.36341667">
        <ele>12.0</ele>
        <time>2020-06-22T09:09:39.607Z</time>
      </trkpt>
      <trkpt lat="38.87826833" lon="1.36352167">
        <ele>11.0</ele>
        <time>2020-06-22T09:09:40.615Z</time>
      </trkpt>
      <trkpt lat="38.87820667" lon="1.363575">
        <ele>11.0</ele>
        <time>2020-06-22T09:09:41.606Z</time>
      </trkpt>
      <trkpt lat="38.87814333" lon="1.36362667">
        <ele>11.0</ele>
        <time>2020-06-22T09:09:42.626Z</time>
      </trkpt>
      <trkpt lat="38.87814333" lon="1.36362667">
        <ele>11.0</ele>
        <time>2020-06-22T09:09:43.632Z</time>
      </trkpt>
      <trkpt lat="38.87802167" lon="1.36373">
        <ele>11.0</ele>
        <time>2020-06-22T09:09:44.602Z</time>
      </trkpt>
      <trkpt lat="38.87802167" lon="1.36373">
        <ele>11.0</ele>
        <time>2020-06-22T09:09:45.608Z</time>
      </trkpt>
      <trkpt lat="38.87789667" lon="1.36383667">
        <ele>11.0</ele>
        <time>2020-06-22T09:09:46.617Z</time>
      </trkpt>
      <trkpt lat="38.87789667" lon="1.36383667">
        <ele>11.0</ele>
        <time>2020-06-22T09:09:47.629Z</time>
      </trkpt>
      <trkpt lat="38.87777167" lon="1.363945">
        <ele>10.0</ele>
        <time>2020-06-22T09:09:48.607Z</time>
      </trkpt>
      <trkpt lat="38.87777167" lon="1.363945">
        <ele>10.0</ele>
        <time>2020-06-22T09:09:49.612Z</time>
      </trkpt>
      <trkpt lat="38.877645" lon="1.36405333">
        <ele>9.0</ele>
        <time>2020-06-22T09:09:50.629Z</time>
      </trkpt>
      <trkpt lat="38.877645" lon="1.36405333">
        <ele>9.0</ele>
        <time>2020-06-22T09:09:51.594Z</time>
      </trkpt>
      <trkpt lat="38.87752" lon="1.36415833">
        <ele>9.0</ele>
        <time>2020-06-22T09:09:52.630Z</time>
      </trkpt>
      <trkpt lat="38.87745667" lon="1.36421167">
        <ele>9.0</ele>
        <time>2020-06-22T09:09:53.611Z</time>
      </trkpt>
      <trkpt lat="38.87745667" lon="1.36421167">
        <ele>9.0</ele>
        <time>2020-06-22T09:09:54.616Z</time>
      </trkpt>
      <trkpt lat="38.87733333" lon="1.36431833">
        <ele>8.0</ele>
        <time>2020-06-22T09:09:55.624Z</time>
      </trkpt>
      <trkpt lat="38.87733333" lon="1.36431833">
        <ele>8.0</ele>
        <time>2020-06-22T09:09:56.630Z</time>
      </trkpt>
      <trkpt lat="38.87720667" lon="1.36442333">
        <ele>8.0</ele>
        <time>2020-06-22T09:09:57.631Z</time>
      </trkpt>
      <trkpt lat="38.87714333" lon="1.36447667">
        <ele>8.0</ele>
        <time>2020-06-22T09:09:58.603Z</time>
      </trkpt>
      <trkpt lat="38.87714333" lon="1.36447667">
        <ele>8.0</ele>
        <time>2020-06-22T09:09:59.609Z</time>
      </trkpt>
      <trkpt lat="38.877005" lon="1.36456667">
        <ele>8.0</ele>
        <time>2020-06-22T09:10:00.617Z</time>
      </trkpt>
      <trkpt lat="38.877005" lon="1.36456667">
        <ele>8.0</ele>
        <time>2020-06-22T09:10:01.625Z</time>
      </trkpt>
      <trkpt lat="38.87686" lon="1.36461833">
        <ele>7.0</ele>
        <time>2020-06-22T09:10:02.612Z</time>
      </trkpt>
      <trkpt lat="38.87686" lon="1.36461833">
        <ele>7.0</ele>
        <time>2020-06-22T09:10:03.617Z</time>
      </trkpt>
      <trkpt lat="38.87670833" lon="1.36463167">
        <ele>6.0</ele>
        <time>2020-06-22T09:10:04.603Z</time>
      </trkpt>
      <trkpt lat="38.87670833" lon="1.36463167">
        <ele>6.0</ele>
        <time>2020-06-22T09:10:05.609Z</time>
      </trkpt>
      <trkpt lat="38.87655" lon="1.36462333">
        <ele>6.0</ele>
        <time>2020-06-22T09:10:06.629Z</time>
      </trkpt>
      <trkpt lat="38.87655" lon="1.36462333">
        <ele>6.0</ele>
        <time>2020-06-22T09:10:07.595Z</time>
      </trkpt>
      <trkpt lat="38.876395" lon="1.36460667">
        <ele>7.0</ele>
        <time>2020-06-22T09:10:08.601Z</time>
      </trkpt>
      <trkpt lat="38.876395" lon="1.36460667">
        <ele>7.0</ele>
        <time>2020-06-22T09:10:09.607Z</time>
      </trkpt>
      <trkpt lat="38.87624" lon="1.36459167">
        <ele>7.0</ele>
        <time>2020-06-22T09:10:10.633Z</time>
      </trkpt>
      <trkpt lat="38.87616167" lon="1.364585">
        <ele>7.0</ele>
        <time>2020-06-22T09:10:11.600Z</time>
      </trkpt>
      <trkpt lat="38.87608333" lon="1.36458">
        <ele>7.0</ele>
        <time>2020-06-22T09:10:12.631Z</time>
      </trkpt>
      <trkpt lat="38.87608333" lon="1.36458">
        <ele>7.0</ele>
        <time>2020-06-22T09:10:13.612Z</time>
      </trkpt>
      <trkpt lat="38.87592667" lon="1.36456833">
        <ele>7.0</ele>
        <time>2020-06-22T09:10:14.600Z</time>
      </trkpt>
      <trkpt lat="38.87592667" lon="1.36456833">
        <ele>7.0</ele>
        <time>2020-06-22T09:10:15.616Z</time>
      </trkpt>
      <trkpt lat="38.87577" lon="1.36454667">
        <ele>6.0</ele>
        <time>2020-06-22T09:10:16.621Z</time>
      </trkpt>
      <trkpt lat="38.87577" lon="1.36454667">
        <ele>6.0</ele>
        <time>2020-06-22T09:10:17.626Z</time>
      </trkpt>
      <trkpt lat="38.875615" lon="1.36452">
        <ele>6.0</ele>
        <time>2020-06-22T09:10:18.633Z</time>
      </trkpt>
      <trkpt lat="38.875615" lon="1.36452">
        <ele>6.0</ele>
        <time>2020-06-22T09:10:19.599Z</time>
      </trkpt>
      <trkpt lat="38.87546333" lon="1.364485">
        <ele>5.0</ele>
        <time>2020-06-22T09:10:20.595Z</time>
      </trkpt>
      <trkpt lat="38.87546333" lon="1.364485">
        <ele>5.0</ele>
        <time>2020-06-22T09:10:21.600Z</time>
      </trkpt>
      <trkpt lat="38.87531167" lon="1.36443667">
        <ele>5.0</ele>
        <time>2020-06-22T09:10:22.609Z</time>
      </trkpt>
      <trkpt lat="38.87523833" lon="1.36440833">
        <ele>5.0</ele>
        <time>2020-06-22T09:10:23.631Z</time>
      </trkpt>
      <trkpt lat="38.87523833" lon="1.36440833">
        <ele>5.0</ele>
        <time>2020-06-22T09:10:24.596Z</time>
      </trkpt>
      <trkpt lat="38.87509667" lon="1.36435">
        <ele>5.0</ele>
        <time>2020-06-22T09:10:25.603Z</time>
      </trkpt>
      <trkpt lat="38.87509667" lon="1.36435">
        <ele>5.0</ele>
        <time>2020-06-22T09:10:26.608Z</time>
      </trkpt>
      <trkpt lat="38.87495167" lon="1.36429">
        <ele>5.0</ele>
        <time>2020-06-22T09:10:27.601Z</time>
      </trkpt>
      <trkpt lat="38.87495167" lon="1.36429">
        <ele>5.0</ele>
        <time>2020-06-22T09:10:28.607Z</time>
      </trkpt>
      <trkpt lat="38.87481" lon="1.36422667">
        <ele>4.0</ele>
        <time>2020-06-22T09:10:29.614Z</time>
      </trkpt>
      <trkpt lat="38.87481" lon="1.36422667">
        <ele>4.0</ele>
        <time>2020-06-22T09:10:30.619Z</time>
      </trkpt>
      <trkpt lat="38.874665" lon="1.36417333">
        <ele>4.0</ele>
        <time>2020-06-22T09:10:31.609Z</time>
      </trkpt>
      <trkpt lat="38.874665" lon="1.36417333">
        <ele>4.0</ele>
        <time>2020-06-22T09:10:32.614Z</time>
      </trkpt>
      <trkpt lat="38.87452" lon="1.36412167">
        <ele>3.0</ele>
        <time>2020-06-22T09:10:33.621Z</time>
      </trkpt>
      <trkpt lat="38.87452" lon="1.36412167">
        <ele>3.0</ele>
        <time>2020-06-22T09:10:34.602Z</time>
      </trkpt>
      <trkpt lat="38.87437333" lon="1.36407">
        <ele>4.0</ele>
        <time>2020-06-22T09:10:35.605Z</time>
      </trkpt>
      <trkpt lat="38.87429833" lon="1.364045">
        <ele>4.0</ele>
        <time>2020-06-22T09:10:36.611Z</time>
      </trkpt>
      <trkpt lat="38.874225" lon="1.36402">
        <ele>4.0</ele>
        <time>2020-06-22T09:10:37.617Z</time>
      </trkpt>
      <trkpt lat="38.87415333" lon="1.36399333">
        <ele>4.0</ele>
        <time>2020-06-22T09:10:38.627Z</time>
      </trkpt>
      <trkpt lat="38.87415333" lon="1.36399333">
        <ele>4.0</ele>
        <time>2020-06-22T09:10:39.632Z</time>
      </trkpt>
      <trkpt lat="38.87401167" lon="1.36393667">
        <ele>4.0</ele>
        <time>2020-06-22T09:10:40.598Z</time>
      </trkpt>
      <trkpt lat="38.87401167" lon="1.36393667">
        <ele>4.0</ele>
        <time>2020-06-22T09:10:41.607Z</time>
      </trkpt>
      <trkpt lat="38.87386833" lon="1.363885">
        <ele>4.0</ele>
        <time>2020-06-22T09:10:42.616Z</time>
      </trkpt>
      <trkpt lat="38.87386833" lon="1.363885">
        <ele>4.0</ele>
        <time>2020-06-22T09:10:43.622Z</time>
      </trkpt>
      <trkpt lat="38.87372667" lon="1.363835">
        <ele>4.0</ele>
        <time>2020-06-22T09:10:44.630Z</time>
      </trkpt>
      <trkpt lat="38.87372667" lon="1.363835">
        <ele>4.0</ele>
        <time>2020-06-22T09:10:45.595Z</time>
      </trkpt>
      <trkpt lat="38.87358667" lon="1.36377833">
        <ele>4.0</ele>
        <time>2020-06-22T09:10:46.633Z</time>
      </trkpt>
      <trkpt lat="38.87351667" lon="1.36375167">
        <ele>4.0</ele>
        <time>2020-06-22T09:10:47.601Z</time>
      </trkpt>
      <trkpt lat="38.87351667" lon="1.36375167">
        <ele>4.0</ele>
        <time>2020-06-22T09:10:48.606Z</time>
      </trkpt>
      <trkpt lat="38.873375" lon="1.36370167">
        <ele>4.0</ele>
        <time>2020-06-22T09:10:49.619Z</time>
      </trkpt>
      <trkpt lat="38.873375" lon="1.36370167">
        <ele>4.0</ele>
        <time>2020-06-22T09:10:50.606Z</time>
      </trkpt>
      <trkpt lat="38.87323167" lon="1.36365833">
        <ele>3.0</ele>
        <time>2020-06-22T09:10:51.596Z</time>
      </trkpt>
      <trkpt lat="38.87316167" lon="1.363635">
        <ele>4.0</ele>
        <time>2020-06-22T09:10:52.605Z</time>
      </trkpt>
      <trkpt lat="38.87316167" lon="1.363635">
        <ele>4.0</ele>
        <time>2020-06-22T09:10:53.610Z</time>
      </trkpt>
      <trkpt lat="38.87302" lon="1.36358833">
        <ele>4.0</ele>
        <time>2020-06-22T09:10:54.626Z</time>
      </trkpt>
      <trkpt lat="38.87302" lon="1.36358833">
        <ele>4.0</ele>
        <time>2020-06-22T09:10:55.632Z</time>
      </trkpt>
      <trkpt lat="38.87287667" lon="1.363545">
        <ele>3.0</ele>
        <time>2020-06-22T09:10:56.599Z</time>
      </trkpt>
      <trkpt lat="38.87287667" lon="1.363545">
        <ele>3.0</ele>
        <time>2020-06-22T09:10:57.604Z</time>
      </trkpt>
      <trkpt lat="38.872735" lon="1.36350167">
        <ele>3.0</ele>
        <time>2020-06-22T09:10:58.596Z</time>
      </trkpt>
      <trkpt lat="38.872735" lon="1.36350167">
        <ele>3.0</ele>
        <time>2020-06-22T09:10:59.611Z</time>
      </trkpt>
      <trkpt lat="38.87259167" lon="1.36345833">
        <ele>3.0</ele>
        <time>2020-06-22T09:11:00.626Z</time>
      </trkpt>
      <trkpt lat="38.87259167" lon="1.36345833">
        <ele>3.0</ele>
        <time>2020-06-22T09:11:01.609Z</time>
      </trkpt>
      <trkpt lat="38.87244833" lon="1.36341667">
        <ele>3.0</ele>
        <time>2020-06-22T09:11:02.627Z</time>
      </trkpt>
      <trkpt lat="38.87244833" lon="1.36341667">
        <ele>3.0</ele>
        <time>2020-06-22T09:11:03.632Z</time>
      </trkpt>
      <trkpt lat="38.87230333" lon="1.36337333">
        <ele>3.0</ele>
        <time>2020-06-22T09:11:04.606Z</time>
      </trkpt>
      <trkpt lat="38.87230333" lon="1.36337333">
        <ele>3.0</ele>
        <time>2020-06-22T09:11:05.611Z</time>
      </trkpt>
      <trkpt lat="38.87216" lon="1.36332667">
        <ele>3.0</ele>
        <time>2020-06-22T09:11:06.627Z</time>
      </trkpt>
      <trkpt lat="38.87208833" lon="1.36330167">
        <ele>3.0</ele>
        <time>2020-06-22T09:11:07.594Z</time>
      </trkpt>
      <trkpt lat="38.87208833" lon="1.36330167">
        <ele>3.0</ele>
        <time>2020-06-22T09:11:08.600Z</time>
      </trkpt>
      <trkpt lat="38.87194667" lon="1.36325333">
        <ele>3.0</ele>
        <time>2020-06-22T09:11:09.596Z</time>
      </trkpt>
      <trkpt lat="38.87194667" lon="1.36325333">
        <ele>3.0</ele>
        <time>2020-06-22T09:11:10.616Z</time>
      </trkpt>
      <trkpt lat="38.87180167" lon="1.3632">
        <ele>2.0</ele>
        <time>2020-06-22T09:11:11.605Z</time>
      </trkpt>
      <trkpt lat="38.87180167" lon="1.3632">
        <ele>2.0</ele>
        <time>2020-06-22T09:11:12.611Z</time>
      </trkpt>
      <trkpt lat="38.87165667" lon="1.36314167">
        <ele>2.0</ele>
        <time>2020-06-22T09:11:13.618Z</time>
      </trkpt>
      <trkpt lat="38.87165667" lon="1.36314167">
        <ele>2.0</ele>
        <time>2020-06-22T09:11:14.625Z</time>
      </trkpt>
      <trkpt lat="38.871515" lon="1.36307">
        <ele>2.0</ele>
        <time>2020-06-22T09:11:15.622Z</time>
      </trkpt>
      <trkpt lat="38.871515" lon="1.36307">
        <ele>2.0</ele>
        <time>2020-06-22T09:11:16.628Z</time>
      </trkpt>
      <trkpt lat="38.87137667" lon="1.36298833">
        <ele>2.0</ele>
        <time>2020-06-22T09:11:17.616Z</time>
      </trkpt>
      <trkpt lat="38.87131167" lon="1.362935">
        <ele>2.0</ele>
        <time>2020-06-22T09:11:18.627Z</time>
      </trkpt>
      <trkpt lat="38.87131167" lon="1.362935">
        <ele>2.0</ele>
        <time>2020-06-22T09:11:19.633Z</time>
      </trkpt>
      <trkpt lat="38.87120167" lon="1.3628">
        <ele>2.0</ele>
        <time>2020-06-22T09:11:20.604Z</time>
      </trkpt>
      <trkpt lat="38.87120167" lon="1.3628">
        <ele>2.0</ele>
        <time>2020-06-22T09:11:21.609Z</time>
      </trkpt>
      <trkpt lat="38.87111167" lon="1.36263833">
        <ele>2.0</ele>
        <time>2020-06-22T09:11:22.600Z</time>
      </trkpt>
      <trkpt lat="38.87111167" lon="1.36263833">
        <ele>2.0</ele>
        <time>2020-06-22T09:11:23.597Z</time>
      </trkpt>
      <trkpt lat="38.87104" lon="1.36246333">
        <ele>1.0</ele>
        <time>2020-06-22T09:11:24.627Z</time>
      </trkpt>
      <trkpt lat="38.87104" lon="1.36246333">
        <ele>1.0</ele>
        <time>2020-06-22T09:11:25.632Z</time>
      </trkpt>
      <trkpt lat="38.87097" lon="1.36228833">
        <ele>1.0</ele>
        <time>2020-06-22T09:11:26.601Z</time>
      </trkpt>
      <trkpt lat="38.87093667" lon="1.3622">
        <ele>1.0</ele>
        <time>2020-06-22T09:11:27.617Z</time>
      </trkpt>
      <trkpt lat="38.87093667" lon="1.3622">
        <ele>1.0</ele>
        <time>2020-06-22T09:11:28.622Z</time>
      </trkpt>
      <trkpt lat="38.87086833" lon="1.36202167">
        <ele>1.0</ele>
        <time>2020-06-22T09:11:29.631Z</time>
      </trkpt>
      <trkpt lat="38.87086833" lon="1.36202167">
        <ele>1.0</ele>
        <time>2020-06-22T09:11:30.599Z</time>
      </trkpt>
      <trkpt lat="38.87079833" lon="1.36184667">
        <ele>1.0</ele>
        <time>2020-06-22T09:11:31.618Z</time>
      </trkpt>
      <trkpt lat="38.87079833" lon="1.36184667">
        <ele>1.0</ele>
        <time>2020-06-22T09:11:32.594Z</time>
      </trkpt>
      <trkpt lat="38.870725" lon="1.361675">
        <ele>1.0</ele>
        <time>2020-06-22T09:11:33.600Z</time>
      </trkpt>
      <trkpt lat="38.87069167" lon="1.36158833">
        <ele>1.0</ele>
        <time>2020-06-22T09:11:34.633Z</time>
      </trkpt>
      <trkpt lat="38.87069167" lon="1.36158833">
        <ele>1.0</ele>
        <time>2020-06-22T09:11:35.615Z</time>
      </trkpt>
      <trkpt lat="38.870625" lon="1.361415">
        <ele>1.0</ele>
        <time>2020-06-22T09:11:36.627Z</time>
      </trkpt>
      <trkpt lat="38.870625" lon="1.361415">
        <ele>1.0</ele>
        <time>2020-06-22T09:11:37.632Z</time>
      </trkpt>
      <trkpt lat="38.87056" lon="1.36124333">
        <ele>1.0</ele>
        <time>2020-06-22T09:11:38.599Z</time>
      </trkpt>
      <trkpt lat="38.87056" lon="1.36124333">
        <ele>1.0</ele>
        <time>2020-06-22T09:11:39.603Z</time>
      </trkpt>
      <trkpt lat="38.87049" lon="1.36107167">
        <ele>1.0</ele>
        <time>2020-06-22T09:11:40.627Z</time>
      </trkpt>
      <trkpt lat="38.87049" lon="1.36107167">
        <ele>1.0</ele>
        <time>2020-06-22T09:11:41.632Z</time>
      </trkpt>
      <trkpt lat="38.87042" lon="1.36090167">
        <ele>1.0</ele>
        <time>2020-06-22T09:11:42.616Z</time>
      </trkpt>
      <trkpt lat="38.87038667" lon="1.360815">
        <ele>1.0</ele>
        <time>2020-06-22T09:11:43.601Z</time>
      </trkpt>
      <trkpt lat="38.87038667" lon="1.360815">
        <ele>1.0</ele>
        <time>2020-06-22T09:11:44.607Z</time>
      </trkpt>
      <trkpt lat="38.87031833" lon="1.36064">
        <ele>0.0</ele>
        <time>2020-06-22T09:11:45.615Z</time>
      </trkpt>
      <trkpt lat="38.87031833" lon="1.36064">
        <ele>0.0</ele>
        <time>2020-06-22T09:11:46.621Z</time>
      </trkpt>
      <trkpt lat="38.87024833" lon="1.360465">
        <ele>0.0</ele>
        <time>2020-06-22T09:11:47.599Z</time>
      </trkpt>
      <trkpt lat="38.87024833" lon="1.360465">
        <ele>0.0</ele>
        <time>2020-06-22T09:11:48.604Z</time>
      </trkpt>
      <trkpt lat="38.87017833" lon="1.36028833">
        <ele>0.0</ele>
        <time>2020-06-22T09:11:49.611Z</time>
      </trkpt>
      <trkpt lat="38.87017833" lon="1.36028833">
        <ele>0.0</ele>
        <time>2020-06-22T09:11:50.616Z</time>
      </trkpt>
      <trkpt lat="38.87010667" lon="1.36011">
        <ele>0.0</ele>
        <time>2020-06-22T09:11:51.608Z</time>
      </trkpt>
      <trkpt lat="38.87010667" lon="1.36011">
        <ele>0.0</ele>
        <time>2020-06-22T09:11:52.613Z</time>
      </trkpt>
      <trkpt lat="38.87003667" lon="1.35993">
        <ele>0.0</ele>
        <time>2020-06-22T09:11:53.619Z</time>
      </trkpt>
      <trkpt lat="38.87000167" lon="1.35984167">
        <ele>0.0</ele>
        <time>2020-06-22T09:11:54.606Z</time>
      </trkpt>
      <trkpt lat="38.869965" lon="1.35975333">
        <ele>-1.0</ele>
        <time>2020-06-22T09:11:55.613Z</time>
      </trkpt>
      <trkpt lat="38.869965" lon="1.35975333">
        <ele>-1.0</ele>
        <time>2020-06-22T09:11:56.618Z</time>
      </trkpt>
      <trkpt lat="38.86989" lon="1.35957667">
        <ele>-1.0</ele>
        <time>2020-06-22T09:11:57.627Z</time>
      </trkpt>
      <trkpt lat="38.86989" lon="1.35957667">
        <ele>-1.0</ele>
        <time>2020-06-22T09:11:58.633Z</time>
      </trkpt>
      <trkpt lat="38.86981833" lon="1.35940167">
        <ele>-1.0</ele>
        <time>2020-06-22T09:11:59.623Z</time>
      </trkpt>
      <trkpt lat="38.86978167" lon="1.35931333">
        <ele>-1.0</ele>
        <time>2020-06-22T09:12:00.631Z</time>
      </trkpt>
      <trkpt lat="38.86978167" lon="1.35931333">
        <ele>-1.0</ele>
        <time>2020-06-22T09:12:01.596Z</time>
      </trkpt>
      <trkpt lat="38.86970833" lon="1.35914">
        <ele>-1.0</ele>
        <time>2020-06-22T09:12:02.604Z</time>
      </trkpt>
      <trkpt lat="38.86967167" lon="1.359055">
        <ele>-1.0</ele>
        <time>2020-06-22T09:12:03.595Z</time>
      </trkpt>
      <trkpt lat="38.86967167" lon="1.359055">
        <ele>-1.0</ele>
        <time>2020-06-22T09:12:04.620Z</time>
      </trkpt>
      <trkpt lat="38.8696" lon="1.35888333">
        <ele>-1.0</ele>
        <time>2020-06-22T09:12:05.629Z</time>
      </trkpt>
      <trkpt lat="38.86956333" lon="1.35879667">
        <ele>-1.0</ele>
        <time>2020-06-22T09:12:06.606Z</time>
      </trkpt>
      <trkpt lat="38.86952833" lon="1.35871">
        <ele>-1.0</ele>
        <time>2020-06-22T09:12:07.619Z</time>
      </trkpt>
      <trkpt lat="38.86952833" lon="1.35871">
        <ele>-1.0</ele>
        <time>2020-06-22T09:12:08.631Z</time>
      </trkpt>
      <trkpt lat="38.86945667" lon="1.35853667">
        <ele>-1.0</ele>
        <time>2020-06-22T09:12:09.607Z</time>
      </trkpt>
      <trkpt lat="38.86945667" lon="1.35853667">
        <ele>-1.0</ele>
        <time>2020-06-22T09:12:10.612Z</time>
      </trkpt>
      <trkpt lat="38.86938333" lon="1.35836667">
        <ele>-1.0</ele>
        <time>2020-06-22T09:12:11.618Z</time>
      </trkpt>
      <trkpt lat="38.86938333" lon="1.35836667">
        <ele>-1.0</ele>
        <time>2020-06-22T09:12:12.598Z</time>
      </trkpt>
      <trkpt lat="38.86931" lon="1.358195">
        <ele>-1.0</ele>
        <time>2020-06-22T09:12:13.606Z</time>
      </trkpt>
      <trkpt lat="38.86931" lon="1.358195">
        <ele>-1.0</ele>
        <time>2020-06-22T09:12:14.612Z</time>
      </trkpt>
      <trkpt lat="38.869235" lon="1.35802167">
        <ele>-2.0</ele>
        <time>2020-06-22T09:12:15.618Z</time>
      </trkpt>
      <trkpt lat="38.869235" lon="1.35802167">
        <ele>-2.0</ele>
        <time>2020-06-22T09:12:16.626Z</time>
      </trkpt>
      <trkpt lat="38.86916167" lon="1.35784833">
        <ele>-2.0</ele>
        <time>2020-06-22T09:12:17.614Z</time>
      </trkpt>
      <trkpt lat="38.869125" lon="1.35776167">
        <ele>-2.0</ele>
        <time>2020-06-22T09:12:18.619Z</time>
      </trkpt>
      <trkpt lat="38.869125" lon="1.35776167">
        <ele>-2.0</ele>
        <time>2020-06-22T09:12:19.631Z</time>
      </trkpt>
      <trkpt lat="38.86905167" lon="1.35758667">
        <ele>-2.0</ele>
        <time>2020-06-22T09:12:20.631Z</time>
      </trkpt>
      <trkpt lat="38.86901333" lon="1.3575">
        <ele>-2.0</ele>
        <time>2020-06-22T09:12:21.601Z</time>
      </trkpt>
      <trkpt lat="38.86901333" lon="1.3575">
        <ele>-2.0</ele>
        <time>2020-06-22T09:12:22.633Z</time>
      </trkpt>
      <trkpt lat="38.86893833" lon="1.35732667">
        <ele>-2.0</ele>
        <time>2020-06-22T09:12:23.605Z</time>
      </trkpt>
      <trkpt lat="38.8689" lon="1.35723833">
        <ele>-3.0</ele>
        <time>2020-06-22T09:12:24.611Z</time>
      </trkpt>
      <trkpt lat="38.8689" lon="1.35723833">
        <ele>-3.0</ele>
        <time>2020-06-22T09:12:25.616Z</time>
      </trkpt>
      <trkpt lat="38.86882667" lon="1.35706333">
        <ele>-3.0</ele>
        <time>2020-06-22T09:12:26.623Z</time>
      </trkpt>
      <trkpt lat="38.86882667" lon="1.35706333">
        <ele>-3.0</ele>
        <time>2020-06-22T09:12:27.630Z</time>
      </trkpt>
      <trkpt lat="38.86873833" lon="1.3569">
        <ele>-3.0</ele>
        <time>2020-06-22T09:12:28.613Z</time>
      </trkpt>
      <trkpt lat="38.86869667" lon="1.35681833">
        <ele>-3.0</ele>
        <time>2020-06-22T09:12:29.619Z</time>
      </trkpt>
      <trkpt lat="38.86869667" lon="1.35681833">
        <ele>-3.0</ele>
        <time>2020-06-22T09:12:30.594Z</time>
      </trkpt>
      <trkpt lat="38.868635" lon="1.35664333">
        <ele>-3.0</ele>
        <time>2020-06-22T09:12:31.616Z</time>
      </trkpt>
      <trkpt lat="38.86862667" lon="1.35655167">
        <ele>-3.0</ele>
        <time>2020-06-22T09:12:32.628Z</time>
      </trkpt>
      <trkpt lat="38.86862667" lon="1.35655167">
        <ele>-3.0</ele>
        <time>2020-06-22T09:12:33.633Z</time>
      </trkpt>
      <trkpt lat="38.86867167" lon="1.35641167">
        <ele>-3.0</ele>
        <time>2020-06-22T09:12:34.599Z</time>
      </trkpt>
      <trkpt lat="38.86872" lon="1.356365">
        <ele>-3.0</ele>
        <time>2020-06-22T09:12:35.608Z</time>
      </trkpt>
      <trkpt lat="38.868775" lon="1.35633167">
        <ele>-3.0</ele>
        <time>2020-06-22T09:12:36.595Z</time>
      </trkpt>
      <trkpt lat="38.868775" lon="1.35633167">
        <ele>-3.0</ele>
        <time>2020-06-22T09:12:37.601Z</time>
      </trkpt>
      <trkpt lat="38.86888667" lon="1.35626667">
        <ele>-4.0</ele>
        <time>2020-06-22T09:12:38.607Z</time>
      </trkpt>
      <trkpt lat="38.86888667" lon="1.35626667">
        <ele>-4.0</ele>
        <time>2020-06-22T09:12:39.612Z</time>
      </trkpt>
      <trkpt lat="38.86896333" lon="1.356145">
        <ele>-4.0</ele>
        <time>2020-06-22T09:12:40.612Z</time>
      </trkpt>
      <trkpt lat="38.86896333" lon="1.356145">
        <ele>-4.0</ele>
        <time>2020-06-22T09:12:41.632Z</time>
      </trkpt>
      <trkpt lat="38.86898" lon="1.35597833">
        <ele>-4.0</ele>
        <time>2020-06-22T09:12:42.601Z</time>
      </trkpt>
      <trkpt lat="38.86898" lon="1.35597833">
        <ele>-4.0</ele>
        <time>2020-06-22T09:12:43.597Z</time>
      </trkpt>
      <trkpt lat="38.868975" lon="1.35581667">
        <ele>-4.0</ele>
        <time>2020-06-22T09:12:44.599Z</time>
      </trkpt>
      <trkpt lat="38.868975" lon="1.35581667">
        <ele>-4.0</ele>
        <time>2020-06-22T09:12:45.604Z</time>
      </trkpt>
      <trkpt lat="38.86898833" lon="1.35564">
        <ele>-4.0</ele>
        <time>2020-06-22T09:12:46.611Z</time>
      </trkpt>
      <trkpt lat="38.86898833" lon="1.35564">
        <ele>-4.0</ele>
        <time>2020-06-22T09:12:47.617Z</time>
      </trkpt>
      <trkpt lat="38.86906167" lon="1.35550167">
        <ele>-5.0</ele>
        <time>2020-06-22T09:12:48.596Z</time>
      </trkpt>
      <trkpt lat="38.86906167" lon="1.35550167">
        <ele>-5.0</ele>
        <time>2020-06-22T09:12:49.602Z</time>
      </trkpt>
      <trkpt lat="38.869165" lon="1.35541">
        <ele>-4.0</ele>
        <time>2020-06-22T09:12:50.608Z</time>
      </trkpt>
      <trkpt lat="38.869165" lon="1.35541">
        <ele>-4.0</ele>
        <time>2020-06-22T09:12:51.613Z</time>
      </trkpt>
      <trkpt lat="38.86926" lon="1.35531833">
        <ele>-4.0</ele>
        <time>2020-06-22T09:12:52.596Z</time>
      </trkpt>
      <trkpt lat="38.86926" lon="1.35531833">
        <ele>-4.0</ele>
        <time>2020-06-22T09:12:53.601Z</time>
      </trkpt>
      <trkpt lat="38.869305" lon="1.35517667">
        <ele>-4.0</ele>
        <time>2020-06-22T09:12:54.608Z</time>
      </trkpt>
      <trkpt lat="38.869305" lon="1.35517667">
        <ele>-4.0</ele>
        <time>2020-06-22T09:12:55.615Z</time>
      </trkpt>
      <trkpt lat="38.869295" lon="1.355005">
        <ele>-4.0</ele>
        <time>2020-06-22T09:12:56.632Z</time>
      </trkpt>
      <trkpt lat="38.869295" lon="1.355005">
        <ele>-4.0</ele>
        <time>2020-06-22T09:12:57.599Z</time>
      </trkpt>
      <trkpt lat="38.86925667" lon="1.35483333">
        <ele>-4.0</ele>
        <time>2020-06-22T09:12:58.605Z</time>
      </trkpt>
      <trkpt lat="38.86925667" lon="1.35483333">
        <ele>-4.0</ele>
        <time>2020-06-22T09:12:59.610Z</time>
      </trkpt>
      <trkpt lat="38.86921667" lon="1.354655">
        <ele>-4.0</ele>
        <time>2020-06-22T09:13:00.600Z</time>
      </trkpt>
      <trkpt lat="38.86919333" lon="1.35456667">
        <ele>-4.0</ele>
        <time>2020-06-22T09:13:01.608Z</time>
      </trkpt>
      <trkpt lat="38.86919333" lon="1.35456667">
        <ele>-4.0</ele>
        <time>2020-06-22T09:13:02.614Z</time>
      </trkpt>
      <trkpt lat="38.86914667" lon="1.35439">
        <ele>-4.0</ele>
        <time>2020-06-22T09:13:03.597Z</time>
      </trkpt>
      <trkpt lat="38.86912167" lon="1.35429667">
        <ele>-4.0</ele>
        <time>2020-06-22T09:13:04.602Z</time>
      </trkpt>
      <trkpt lat="38.86912167" lon="1.35429667">
        <ele>-4.0</ele>
        <time>2020-06-22T09:13:05.608Z</time>
      </trkpt>
      <trkpt lat="38.86907333" lon="1.354115">
        <ele>-4.0</ele>
        <time>2020-06-22T09:13:06.603Z</time>
      </trkpt>
      <trkpt lat="38.86907333" lon="1.354115">
        <ele>-4.0</ele>
        <time>2020-06-22T09:13:07.608Z</time>
      </trkpt>
      <trkpt lat="38.86902167" lon="1.353935">
        <ele>-4.0</ele>
        <time>2020-06-22T09:13:08.615Z</time>
      </trkpt>
      <trkpt lat="38.86902167" lon="1.353935">
        <ele>-4.0</ele>
        <time>2020-06-22T09:13:09.620Z</time>
      </trkpt>
      <trkpt lat="38.86897" lon="1.35376167">
        <ele>-4.0</ele>
        <time>2020-06-22T09:13:10.632Z</time>
      </trkpt>
      <trkpt lat="38.86897" lon="1.35376167">
        <ele>-4.0</ele>
        <time>2020-06-22T09:13:11.601Z</time>
      </trkpt>
      <trkpt lat="38.86891667" lon="1.35358833">
        <ele>-4.0</ele>
        <time>2020-06-22T09:13:12.623Z</time>
      </trkpt>
      <trkpt lat="38.86891667" lon="1.35358833">
        <ele>-4.0</ele>
        <time>2020-06-22T09:13:13.630Z</time>
      </trkpt>
      <trkpt lat="38.86886" lon="1.35342333">
        <ele>-4.0</ele>
        <time>2020-06-22T09:13:14.599Z</time>
      </trkpt>
      <trkpt lat="38.86883" lon="1.353345">
        <ele>-4.0</ele>
        <time>2020-06-22T09:13:15.616Z</time>
      </trkpt>
      <trkpt lat="38.86883" lon="1.353345">
        <ele>-4.0</ele>
        <time>2020-06-22T09:13:16.597Z</time>
      </trkpt>
      <trkpt lat="38.86878333" lon="1.35319167">
        <ele>-4.0</ele>
        <time>2020-06-22T09:13:17.632Z</time>
      </trkpt>
      <trkpt lat="38.86876667" lon="1.35312">
        <ele>-4.0</ele>
        <time>2020-06-22T09:13:18.603Z</time>
      </trkpt>
      <trkpt lat="38.86876667" lon="1.35312">
        <ele>-4.0</ele>
        <time>2020-06-22T09:13:19.608Z</time>
      </trkpt>
      <trkpt lat="38.86877" lon="1.35297333">
        <ele>-4.0</ele>
        <time>2020-06-22T09:13:20.596Z</time>
      </trkpt>
      <trkpt lat="38.86879167" lon="1.352905">
        <ele>-4.0</ele>
        <time>2020-06-22T09:13:21.617Z</time>
      </trkpt>
      <trkpt lat="38.86881833" lon="1.35284333">
        <ele>-4.0</ele>
        <time>2020-06-22T09:13:22.612Z</time>
      </trkpt>
      <trkpt lat="38.86881833" lon="1.35284333">
        <ele>-4.0</ele>
        <time>2020-06-22T09:13:23.611Z</time>
      </trkpt>
      <trkpt lat="38.86886333" lon="1.35272167">
        <ele>-5.0</ele>
        <time>2020-06-22T09:13:24.618Z</time>
      </trkpt>
      <trkpt lat="38.86886333" lon="1.35272167">
        <ele>-5.0</ele>
        <time>2020-06-22T09:13:25.631Z</time>
      </trkpt>
      <trkpt lat="38.86889333" lon="1.35261667">
        <ele>-4.0</ele>
        <time>2020-06-22T09:13:26.616Z</time>
      </trkpt>
      <trkpt lat="38.86889333" lon="1.35261667">
        <ele>-4.0</ele>
        <time>2020-06-22T09:13:27.606Z</time>
      </trkpt>
      <trkpt lat="38.868915" lon="1.35251833">
        <ele>-4.0</ele>
        <time>2020-06-22T09:13:28.630Z</time>
      </trkpt>
      <trkpt lat="38.868915" lon="1.35251833">
        <ele>-4.0</ele>
        <time>2020-06-22T09:13:29.596Z</time>
      </trkpt>
      <trkpt lat="38.86895333" lon="1.3524">
        <ele>-3.0</ele>
        <time>2020-06-22T09:13:30.603Z</time>
      </trkpt>
      <trkpt lat="38.86895333" lon="1.3524">
        <ele>-3.0</ele>
        <time>2020-06-22T09:13:31.609Z</time>
      </trkpt>
      <trkpt lat="38.86898667" lon="1.35227667">
        <ele>-3.0</ele>
        <time>2020-06-22T09:13:32.612Z</time>
      </trkpt>
      <trkpt lat="38.86898667" lon="1.35227667">
        <ele>-3.0</ele>
        <time>2020-06-22T09:13:33.618Z</time>
      </trkpt>
      <trkpt lat="38.86899667" lon="1.35216">
        <ele>-3.0</ele>
        <time>2020-06-22T09:13:34.625Z</time>
      </trkpt>
      <trkpt lat="38.86899667" lon="1.35216">
        <ele>-3.0</ele>
        <time>2020-06-22T09:13:35.631Z</time>
      </trkpt>
      <trkpt lat="38.86894333" lon="1.35211667">
        <ele>-2.0</ele>
        <time>2020-06-22T09:13:36.605Z</time>
      </trkpt>
      <trkpt lat="38.86894333" lon="1.35211667">
        <ele>-2.0</ele>
        <time>2020-06-22T09:13:37.610Z</time>
      </trkpt>
      <trkpt lat="38.86892167" lon="1.35218167">
        <ele>-2.0</ele>
        <time>2020-06-22T09:13:38.616Z</time>
      </trkpt>
      <trkpt lat="38.86892167" lon="1.35218167">
        <ele>-2.0</ele>
        <time>2020-06-22T09:13:39.622Z</time>
      </trkpt>
      <trkpt lat="38.86893833" lon="1.35227167">
        <ele>-2.0</ele>
        <time>2020-06-22T09:13:40.598Z</time>
      </trkpt>
      <trkpt lat="38.86893833" lon="1.35227167">
        <ele>-2.0</ele>
        <time>2020-06-22T09:13:41.604Z</time>
      </trkpt>
      <trkpt lat="38.86894833" lon="1.35235667">
        <ele>-2.0</ele>
        <time>2020-06-22T09:13:42.611Z</time>
      </trkpt>
      <trkpt lat="38.86894833" lon="1.35235667">
        <ele>-2.0</ele>
        <time>2020-06-22T09:13:43.617Z</time>
      </trkpt>
      <trkpt lat="38.86892667" lon="1.35244">
        <ele>-1.0</ele>
        <time>2020-06-22T09:13:44.604Z</time>
      </trkpt>
      <trkpt lat="38.86892667" lon="1.35244">
        <ele>-1.0</ele>
        <time>2020-06-22T09:13:45.597Z</time>
      </trkpt>
      <trkpt lat="38.868895" lon="1.35253">
        <ele>-1.0</ele>
        <time>2020-06-22T09:13:46.631Z</time>
      </trkpt>
      <trkpt lat="38.86888" lon="1.35257833">
        <ele>-1.0</ele>
        <time>2020-06-22T09:13:47.599Z</time>
      </trkpt>
      <trkpt lat="38.86886167" lon="1.35263167">
        <ele>-1.0</ele>
        <time>2020-06-22T09:13:48.608Z</time>
      </trkpt>
      <trkpt lat="38.86886167" lon="1.35263167">
        <ele>-1.0</ele>
        <time>2020-06-22T09:13:49.613Z</time>
      </trkpt>
      <trkpt lat="38.86881167" lon="1.35275833">
        <ele>0.0</ele>
        <time>2020-06-22T09:13:50.619Z</time>
      </trkpt>
      <trkpt lat="38.86881167" lon="1.35275833">
        <ele>0.0</ele>
        <time>2020-06-22T09:13:51.595Z</time>
      </trkpt>
      <trkpt lat="38.86876667" lon="1.352875">
        <ele>0.0</ele>
        <time>2020-06-22T09:13:52.594Z</time>
      </trkpt>
      <trkpt lat="38.86876667" lon="1.352875">
        <ele>0.0</ele>
        <time>2020-06-22T09:13:53.600Z</time>
      </trkpt>
      <trkpt lat="38.868755" lon="1.35300333">
        <ele>1.0</ele>
        <time>2020-06-22T09:13:54.608Z</time>
      </trkpt>
      <trkpt lat="38.868755" lon="1.35300333">
        <ele>1.0</ele>
        <time>2020-06-22T09:13:55.613Z</time>
      </trkpt>
      <trkpt lat="38.868765" lon="1.35313">
        <ele>1.0</ele>
        <time>2020-06-22T09:13:56.606Z</time>
      </trkpt>
      <trkpt lat="38.868765" lon="1.35313">
        <ele>1.0</ele>
        <time>2020-06-22T09:13:57.612Z</time>
      </trkpt>
      <trkpt lat="38.86880333" lon="1.35326">
        <ele>1.0</ele>
        <time>2020-06-22T09:13:58.618Z</time>
      </trkpt>
      <trkpt lat="38.86880333" lon="1.35326">
        <ele>1.0</ele>
        <time>2020-06-22T09:13:59.630Z</time>
      </trkpt>
      <trkpt lat="38.86885" lon="1.35340667">
        <ele>1.0</ele>
        <time>2020-06-22T09:14:00.616Z</time>
      </trkpt>
      <trkpt lat="38.86885" lon="1.35340667">
        <ele>1.0</ele>
        <time>2020-06-22T09:14:01.622Z</time>
      </trkpt>
      <trkpt lat="38.86889833" lon="1.35355667">
        <ele>1.0</ele>
        <time>2020-06-22T09:14:02.630Z</time>
      </trkpt>
      <trkpt lat="38.86889833" lon="1.35355667">
        <ele>1.0</ele>
        <time>2020-06-22T09:14:03.594Z</time>
      </trkpt>
      <trkpt lat="38.86893833" lon="1.35371333">
        <ele>1.0</ele>
        <time>2020-06-22T09:14:04.626Z</time>
      </trkpt>
      <trkpt lat="38.86895667" lon="1.35379">
        <ele>0.0</ele>
        <time>2020-06-22T09:14:05.595Z</time>
      </trkpt>
      <trkpt lat="38.86895667" lon="1.35379">
        <ele>0.0</ele>
        <time>2020-06-22T09:14:06.600Z</time>
      </trkpt>
      <trkpt lat="38.86899333" lon="1.35394167">
        <ele>0.0</ele>
        <time>2020-06-22T09:14:07.609Z</time>
      </trkpt>
      <trkpt lat="38.86901" lon="1.35402333">
        <ele>0.0</ele>
        <time>2020-06-22T09:14:08.632Z</time>
      </trkpt>
      <trkpt lat="38.86903" lon="1.35409667">
        <ele>0.0</ele>
        <time>2020-06-22T09:14:09.599Z</time>
      </trkpt>
      <trkpt lat="38.86903" lon="1.35409667">
        <ele>0.0</ele>
        <time>2020-06-22T09:14:10.606Z</time>
      </trkpt>
      <trkpt lat="38.86906833" lon="1.35424">
        <ele>0.0</ele>
        <time>2020-06-22T09:14:11.612Z</time>
      </trkpt>
      <trkpt lat="38.86906833" lon="1.35424">
        <ele>0.0</ele>
        <time>2020-06-22T09:14:12.618Z</time>
      </trkpt>
      <trkpt lat="38.869105" lon="1.35438833">
        <ele>0.0</ele>
        <time>2020-06-22T09:14:13.606Z</time>
      </trkpt>
      <trkpt lat="38.869105" lon="1.35438833">
        <ele>0.0</ele>
        <time>2020-06-22T09:14:14.628Z</time>
      </trkpt>
      <trkpt lat="38.86914333" lon="1.35453">
        <ele>0.0</ele>
        <time>2020-06-22T09:14:15.596Z</time>
      </trkpt>
      <trkpt lat="38.86914333" lon="1.35453">
        <ele>0.0</ele>
        <time>2020-06-22T09:14:16.602Z</time>
      </trkpt>
      <trkpt lat="38.86918167" lon="1.35467">
        <ele>0.0</ele>
        <time>2020-06-22T09:14:17.613Z</time>
      </trkpt>
      <trkpt lat="38.86918167" lon="1.35467">
        <ele>0.0</ele>
        <time>2020-06-22T09:14:18.619Z</time>
      </trkpt>
      <trkpt lat="38.86922" lon="1.35481333">
        <ele>0.0</ele>
        <time>2020-06-22T09:14:19.596Z</time>
      </trkpt>
      <trkpt lat="38.86922" lon="1.35481333">
        <ele>0.0</ele>
        <time>2020-06-22T09:14:20.602Z</time>
      </trkpt>
      <trkpt lat="38.86926333" lon="1.354955">
        <ele>0.0</ele>
        <time>2020-06-22T09:14:21.616Z</time>
      </trkpt>
      <trkpt lat="38.86926333" lon="1.354955">
        <ele>0.0</ele>
        <time>2020-06-22T09:14:22.630Z</time>
      </trkpt>
      <trkpt lat="38.86929833" lon="1.35509333">
        <ele>0.0</ele>
        <time>2020-06-22T09:14:23.606Z</time>
      </trkpt>
      <trkpt lat="38.86930833" lon="1.35516333">
        <ele>0.0</ele>
        <time>2020-06-22T09:14:24.627Z</time>
      </trkpt>
      <trkpt lat="38.86930833" lon="1.35516333">
        <ele>0.0</ele>
        <time>2020-06-22T09:14:25.633Z</time>
      </trkpt>
      <trkpt lat="38.86928" lon="1.35528833">
        <ele>1.0</ele>
        <time>2020-06-22T09:14:26.600Z</time>
      </trkpt>
      <trkpt lat="38.86928" lon="1.35528833">
        <ele>1.0</ele>
        <time>2020-06-22T09:14:27.607Z</time>
      </trkpt>
      <trkpt lat="38.86918" lon="1.35537667">
        <ele>2.0</ele>
        <time>2020-06-22T09:14:28.596Z</time>
      </trkpt>
      <trkpt lat="38.86918" lon="1.35537667">
        <ele>2.0</ele>
        <time>2020-06-22T09:14:29.601Z</time>
      </trkpt>
      <trkpt lat="38.86907167" lon="1.35547667">
        <ele>2.0</ele>
        <time>2020-06-22T09:14:30.608Z</time>
      </trkpt>
      <trkpt lat="38.86907167" lon="1.35547667">
        <ele>2.0</ele>
        <time>2020-06-22T09:14:31.614Z</time>
      </trkpt>
      <trkpt lat="38.86899667" lon="1.35562">
        <ele>1.0</ele>
        <time>2020-06-22T09:14:32.606Z</time>
      </trkpt>
      <trkpt lat="38.86899667" lon="1.35562">
        <ele>1.0</ele>
        <time>2020-06-22T09:14:33.612Z</time>
      </trkpt>
      <trkpt lat="38.86897833" lon="1.35578167">
        <ele>0.0</ele>
        <time>2020-06-22T09:14:34.618Z</time>
      </trkpt>
      <trkpt lat="38.86897833" lon="1.35578167">
        <ele>0.0</ele>
        <time>2020-06-22T09:14:35.624Z</time>
      </trkpt>
      <trkpt lat="38.86899167" lon="1.35595167">
        <ele>0.0</ele>
        <time>2020-06-22T09:14:36.612Z</time>
      </trkpt>
      <trkpt lat="38.86899167" lon="1.35595167">
        <ele>0.0</ele>
        <time>2020-06-22T09:14:37.617Z</time>
      </trkpt>
      <trkpt lat="38.86898" lon="1.35612167">
        <ele>-1.0</ele>
        <time>2020-06-22T09:14:38.624Z</time>
      </trkpt>
      <trkpt lat="38.86898" lon="1.35612167">
        <ele>-1.0</ele>
        <time>2020-06-22T09:14:39.633Z</time>
      </trkpt>
      <trkpt lat="38.8689" lon="1.35624">
        <ele>-2.0</ele>
        <time>2020-06-22T09:14:40.631Z</time>
      </trkpt>
      <trkpt lat="38.8689" lon="1.35624">
        <ele>-2.0</ele>
        <time>2020-06-22T09:14:41.596Z</time>
      </trkpt>
      <trkpt lat="38.86879167" lon="1.35632">
        <ele>-2.0</ele>
        <time>2020-06-22T09:14:42.616Z</time>
      </trkpt>
      <trkpt lat="38.86879167" lon="1.35632">
        <ele>-2.0</ele>
        <time>2020-06-22T09:14:43.607Z</time>
      </trkpt>
      <trkpt lat="38.86868333" lon="1.356405">
        <ele>-3.0</ele>
        <time>2020-06-22T09:14:44.606Z</time>
      </trkpt>
      <trkpt lat="38.86868333" lon="1.356405">
        <ele>-3.0</ele>
        <time>2020-06-22T09:14:45.611Z</time>
      </trkpt>
      <trkpt lat="38.86863" lon="1.35655167">
        <ele>-3.0</ele>
        <time>2020-06-22T09:14:46.618Z</time>
      </trkpt>
      <trkpt lat="38.86863" lon="1.35655167">
        <ele>-3.0</ele>
        <time>2020-06-22T09:14:47.624Z</time>
      </trkpt>
      <trkpt lat="38.86866167" lon="1.35671833">
        <ele>-4.0</ele>
        <time>2020-06-22T09:14:48.618Z</time>
      </trkpt>
      <trkpt lat="38.86866167" lon="1.35671833">
        <ele>-4.0</ele>
        <time>2020-06-22T09:14:49.626Z</time>
      </trkpt>
      <trkpt lat="38.86872833" lon="1.35687">
        <ele>-4.0</ele>
        <time>2020-06-22T09:14:50.594Z</time>
      </trkpt>
      <trkpt lat="38.86875833" lon="1.356945">
        <ele>-4.0</ele>
        <time>2020-06-22T09:14:51.624Z</time>
      </trkpt>
      <trkpt lat="38.86875833" lon="1.356945">
        <ele>-4.0</ele>
        <time>2020-06-22T09:14:52.632Z</time>
      </trkpt>
      <trkpt lat="38.86881833" lon="1.35709833">
        <ele>-4.0</ele>
        <time>2020-06-22T09:14:53.603Z</time>
      </trkpt>
      <trkpt lat="38.86884833" lon="1.35717333">
        <ele>-4.0</ele>
        <time>2020-06-22T09:14:54.600Z</time>
      </trkpt>
      <trkpt lat="38.86884833" lon="1.35717333">
        <ele>-4.0</ele>
        <time>2020-06-22T09:14:55.605Z</time>
      </trkpt>
      <trkpt lat="38.86891" lon="1.35732">
        <ele>-3.0</ele>
        <time>2020-06-22T09:14:56.611Z</time>
      </trkpt>
      <trkpt lat="38.86891" lon="1.35732">
        <ele>-3.0</ele>
        <time>2020-06-22T09:14:57.617Z</time>
      </trkpt>
      <trkpt lat="38.86897333" lon="1.35746667">
        <ele>-3.0</ele>
        <time>2020-06-22T09:14:58.632Z</time>
      </trkpt>
      <trkpt lat="38.86897333" lon="1.35746667">
        <ele>-3.0</ele>
        <time>2020-06-22T09:14:59.597Z</time>
      </trkpt>
      <trkpt lat="38.869035" lon="1.35761667">
        <ele>-3.0</ele>
        <time>2020-06-22T09:15:00.604Z</time>
      </trkpt>
      <trkpt lat="38.869035" lon="1.35761667">
        <ele>-3.0</ele>
        <time>2020-06-22T09:15:01.612Z</time>
      </trkpt>
      <trkpt lat="38.8691" lon="1.35776333">
        <ele>-2.0</ele>
        <time>2020-06-22T09:15:02.595Z</time>
      </trkpt>
      <trkpt lat="38.8691" lon="1.35776333">
        <ele>-2.0</ele>
        <time>2020-06-22T09:15:03.601Z</time>
      </trkpt>
      <trkpt lat="38.86916167" lon="1.35791167">
        <ele>-2.0</ele>
        <time>2020-06-22T09:15:04.607Z</time>
      </trkpt>
      <trkpt lat="38.86916167" lon="1.35791167">
        <ele>-2.0</ele>
        <time>2020-06-22T09:15:05.612Z</time>
      </trkpt>
      <trkpt lat="38.86922167" lon="1.35806">
        <ele>-2.0</ele>
        <time>2020-06-22T09:15:06.599Z</time>
      </trkpt>
      <trkpt lat="38.86925" lon="1.35813667">
        <ele>-2.0</ele>
        <time>2020-06-22T09:15:07.606Z</time>
      </trkpt>
      <trkpt lat="38.86925" lon="1.35813667">
        <ele>-2.0</ele>
        <time>2020-06-22T09:15:08.611Z</time>
      </trkpt>
      <trkpt lat="38.86931" lon="1.35829167">
        <ele>-2.0</ele>
        <time>2020-06-22T09:15:09.617Z</time>
      </trkpt>
      <trkpt lat="38.86934167" lon="1.35837">
        <ele>-2.0</ele>
        <time>2020-06-22T09:15:10.622Z</time>
      </trkpt>
      <trkpt lat="38.86934167" lon="1.35837">
        <ele>-2.0</ele>
        <time>2020-06-22T09:15:11.628Z</time>
      </trkpt>
      <trkpt lat="38.86940833" lon="1.35852667">
        <ele>-2.0</ele>
        <time>2020-06-22T09:15:12.627Z</time>
      </trkpt>
      <trkpt lat="38.86940833" lon="1.35852667">
        <ele>-2.0</ele>
        <time>2020-06-22T09:15:13.632Z</time>
      </trkpt>
      <trkpt lat="38.86948333" lon="1.35868333">
        <ele>-2.0</ele>
        <time>2020-06-22T09:15:14.598Z</time>
      </trkpt>
      <trkpt lat="38.86951833" lon="1.358765">
        <ele>-2.0</ele>
        <time>2020-06-22T09:15:15.626Z</time>
      </trkpt>
      <trkpt lat="38.86951833" lon="1.358765">
        <ele>-2.0</ele>
        <time>2020-06-22T09:15:16.602Z</time>
      </trkpt>
      <trkpt lat="38.86958" lon="1.35893">
        <ele>-1.0</ele>
        <time>2020-06-22T09:15:17.600Z</time>
      </trkpt>
      <trkpt lat="38.86958" lon="1.35893">
        <ele>-1.0</ele>
        <time>2020-06-22T09:15:18.606Z</time>
      </trkpt>
      <trkpt lat="38.86964167" lon="1.35908833">
        <ele>-1.0</ele>
        <time>2020-06-22T09:15:19.612Z</time>
      </trkpt>
      <trkpt lat="38.86964167" lon="1.35908833">
        <ele>-1.0</ele>
        <time>2020-06-22T09:15:20.617Z</time>
      </trkpt>
      <trkpt lat="38.86970667" lon="1.35924333">
        <ele>-1.0</ele>
        <time>2020-06-22T09:15:21.616Z</time>
      </trkpt>
      <trkpt lat="38.86974" lon="1.35932167">
        <ele>-1.0</ele>
        <time>2020-06-22T09:15:22.598Z</time>
      </trkpt>
      <trkpt lat="38.86974" lon="1.35932167">
        <ele>-1.0</ele>
        <time>2020-06-22T09:15:23.602Z</time>
      </trkpt>
      <trkpt lat="38.869805" lon="1.35948">
        <ele>-1.0</ele>
        <time>2020-06-22T09:15:24.606Z</time>
      </trkpt>
      <trkpt lat="38.869805" lon="1.35948">
        <ele>-1.0</ele>
        <time>2020-06-22T09:15:25.612Z</time>
      </trkpt>
      <trkpt lat="38.86987333" lon="1.35964167">
        <ele>-1.0</ele>
        <time>2020-06-22T09:15:26.624Z</time>
      </trkpt>
      <trkpt lat="38.86987333" lon="1.35964167">
        <ele>-1.0</ele>
        <time>2020-06-22T09:15:27.631Z</time>
      </trkpt>
      <trkpt lat="38.86993833" lon="1.35980333">
        <ele>-1.0</ele>
        <time>2020-06-22T09:15:28.609Z</time>
      </trkpt>
      <trkpt lat="38.86993833" lon="1.35980333">
        <ele>-1.0</ele>
        <time>2020-06-22T09:15:29.614Z</time>
      </trkpt>
      <trkpt lat="38.87000833" lon="1.359965">
        <ele>-1.0</ele>
        <time>2020-06-22T09:15:30.620Z</time>
      </trkpt>
      <trkpt lat="38.87004167" lon="1.360045">
        <ele>-1.0</ele>
        <time>2020-06-22T09:15:31.633Z</time>
      </trkpt>
      <trkpt lat="38.870075" lon="1.360125">
        <ele>-1.0</ele>
        <time>2020-06-22T09:15:32.607Z</time>
      </trkpt>
      <trkpt lat="38.870075" lon="1.360125">
        <ele>-1.0</ele>
        <time>2020-06-22T09:15:33.612Z</time>
      </trkpt>
      <trkpt lat="38.87014" lon="1.360285">
        <ele>-1.0</ele>
        <time>2020-06-22T09:15:34.620Z</time>
      </trkpt>
      <trkpt lat="38.87014" lon="1.360285">
        <ele>-1.0</ele>
        <time>2020-06-22T09:15:35.633Z</time>
      </trkpt>
      <trkpt lat="38.87020333" lon="1.36044167">
        <ele>-1.0</ele>
        <time>2020-06-22T09:15:36.627Z</time>
      </trkpt>
      <trkpt lat="38.87020333" lon="1.36044167">
        <ele>-1.0</ele>
        <time>2020-06-22T09:15:37.633Z</time>
      </trkpt>
      <trkpt lat="38.870265" lon="1.36060167">
        <ele>-1.0</ele>
        <time>2020-06-22T09:15:38.600Z</time>
      </trkpt>
      <trkpt lat="38.870265" lon="1.36060167">
        <ele>-1.0</ele>
        <time>2020-06-22T09:15:39.605Z</time>
      </trkpt>
      <trkpt lat="38.87032833" lon="1.36075833">
        <ele>-1.0</ele>
        <time>2020-06-22T09:15:40.633Z</time>
      </trkpt>
      <trkpt lat="38.87032833" lon="1.36075833">
        <ele>-1.0</ele>
        <time>2020-06-22T09:15:41.598Z</time>
      </trkpt>
      <trkpt lat="38.87039" lon="1.36091667">
        <ele>-1.0</ele>
        <time>2020-06-22T09:15:42.604Z</time>
      </trkpt>
      <trkpt lat="38.87039" lon="1.36091667">
        <ele>-1.0</ele>
        <time>2020-06-22T09:15:43.614Z</time>
      </trkpt>
      <trkpt lat="38.87045167" lon="1.36107667">
        <ele>-1.0</ele>
        <time>2020-06-22T09:15:44.597Z</time>
      </trkpt>
      <trkpt lat="38.87045167" lon="1.36107667">
        <ele>-1.0</ele>
        <time>2020-06-22T09:15:45.603Z</time>
      </trkpt>
      <trkpt lat="38.87051833" lon="1.36123333">
        <ele>-1.0</ele>
        <time>2020-06-22T09:15:46.615Z</time>
      </trkpt>
      <trkpt lat="38.87051833" lon="1.36123333">
        <ele>-1.0</ele>
        <time>2020-06-22T09:15:47.620Z</time>
      </trkpt>
      <trkpt lat="38.87058333" lon="1.36139333">
        <ele>-1.0</ele>
        <time>2020-06-22T09:15:48.608Z</time>
      </trkpt>
      <trkpt lat="38.87058333" lon="1.36139333">
        <ele>-1.0</ele>
        <time>2020-06-22T09:15:49.613Z</time>
      </trkpt>
      <trkpt lat="38.87064833" lon="1.36155333">
        <ele>-1.0</ele>
        <time>2020-06-22T09:15:50.620Z</time>
      </trkpt>
      <trkpt lat="38.87064833" lon="1.36155333">
        <ele>-1.0</ele>
        <time>2020-06-22T09:15:51.626Z</time>
      </trkpt>
      <trkpt lat="38.87071333" lon="1.361715">
        <ele>-1.0</ele>
        <time>2020-06-22T09:15:52.606Z</time>
      </trkpt>
      <trkpt lat="38.87071333" lon="1.361715">
        <ele>-1.0</ele>
        <time>2020-06-22T09:15:53.611Z</time>
      </trkpt>
      <trkpt lat="38.87077833" lon="1.36187667">
        <ele>-1.0</ele>
        <time>2020-06-22T09:15:54.618Z</time>
      </trkpt>
      <trkpt lat="38.87081333" lon="1.36195667">
        <ele>-1.0</ele>
        <time>2020-06-22T09:15:55.628Z</time>
      </trkpt>
      <trkpt lat="38.87084667" lon="1.36203667">
        <ele>-1.0</ele>
        <time>2020-06-22T09:15:56.600Z</time>
      </trkpt>
      <trkpt lat="38.87084667" lon="1.36203667">
        <ele>-1.0</ele>
        <time>2020-06-22T09:15:57.606Z</time>
      </trkpt>
      <trkpt lat="38.87091" lon="1.36219833">
        <ele>-1.0</ele>
        <time>2020-06-22T09:15:58.613Z</time>
      </trkpt>
      <trkpt lat="38.87091" lon="1.36219833">
        <ele>-1.0</ele>
        <time>2020-06-22T09:15:59.618Z</time>
      </trkpt>
      <trkpt lat="38.870975" lon="1.36236">
        <ele>-1.0</ele>
        <time>2020-06-22T09:16:00.613Z</time>
      </trkpt>
      <trkpt lat="38.870975" lon="1.36236">
        <ele>-1.0</ele>
        <time>2020-06-22T09:16:01.622Z</time>
      </trkpt>
      <trkpt lat="38.87104167" lon="1.36251833">
        <ele>0.0</ele>
        <time>2020-06-22T09:16:02.633Z</time>
      </trkpt>
      <trkpt lat="38.87107667" lon="1.36259667">
        <ele>0.0</ele>
        <time>2020-06-22T09:16:03.607Z</time>
      </trkpt>
      <trkpt lat="38.87107667" lon="1.36259667">
        <ele>0.0</ele>
        <time>2020-06-22T09:16:04.612Z</time>
      </trkpt>
      <trkpt lat="38.87115167" lon="1.36274833">
        <ele>0.0</ele>
        <time>2020-06-22T09:16:05.598Z</time>
      </trkpt>
      <trkpt lat="38.87115167" lon="1.36274833">
        <ele>0.0</ele>
        <time>2020-06-22T09:16:06.603Z</time>
      </trkpt>
      <trkpt lat="38.87123833" lon="1.36288833">
        <ele>0.0</ele>
        <time>2020-06-22T09:16:07.620Z</time>
      </trkpt>
      <trkpt lat="38.87123833" lon="1.36288833">
        <ele>0.0</ele>
        <time>2020-06-22T09:16:08.627Z</time>
      </trkpt>
      <trkpt lat="38.87133667" lon="1.36301167">
        <ele>1.0</ele>
        <time>2020-06-22T09:16:09.594Z</time>
      </trkpt>
      <trkpt lat="38.87133667" lon="1.36301167">
        <ele>1.0</ele>
        <time>2020-06-22T09:16:10.600Z</time>
      </trkpt>
      <trkpt lat="38.87145833" lon="1.36309667">
        <ele>1.0</ele>
        <time>2020-06-22T09:16:11.633Z</time>
      </trkpt>
      <trkpt lat="38.87152333" lon="1.36312833">
        <ele>1.0</ele>
        <time>2020-06-22T09:16:12.599Z</time>
      </trkpt>
      <trkpt lat="38.87152333" lon="1.36312833">
        <ele>1.0</ele>
        <time>2020-06-22T09:16:13.604Z</time>
      </trkpt>
      <trkpt lat="38.87165833" lon="1.36319">
        <ele>1.0</ele>
        <time>2020-06-22T09:16:14.595Z</time>
      </trkpt>
      <trkpt lat="38.87172667" lon="1.36322">
        <ele>1.0</ele>
        <time>2020-06-22T09:16:15.596Z</time>
      </trkpt>
      <trkpt lat="38.87172667" lon="1.36322">
        <ele>1.0</ele>
        <time>2020-06-22T09:16:16.603Z</time>
      </trkpt>
      <trkpt lat="38.87186333" lon="1.363275">
        <ele>2.0</ele>
        <time>2020-06-22T09:16:17.609Z</time>
      </trkpt>
      <trkpt lat="38.87193167" lon="1.36329833">
        <ele>2.0</ele>
        <time>2020-06-22T09:16:18.604Z</time>
      </trkpt>
      <trkpt lat="38.87193167" lon="1.36329833">
        <ele>2.0</ele>
        <time>2020-06-22T09:16:19.609Z</time>
      </trkpt>
      <trkpt lat="38.87207" lon="1.363345">
        <ele>2.0</ele>
        <time>2020-06-22T09:16:20.620Z</time>
      </trkpt>
      <trkpt lat="38.87207" lon="1.363345">
        <ele>2.0</ele>
        <time>2020-06-22T09:16:21.632Z</time>
      </trkpt>
      <trkpt lat="38.87221" lon="1.36338833">
        <ele>2.0</ele>
        <time>2020-06-22T09:16:22.600Z</time>
      </trkpt>
      <trkpt lat="38.87221" lon="1.36338833">
        <ele>2.0</ele>
        <time>2020-06-22T09:16:23.610Z</time>
      </trkpt>
      <trkpt lat="38.87234833" lon="1.36343333">
        <ele>2.0</ele>
        <time>2020-06-22T09:16:24.621Z</time>
      </trkpt>
      <trkpt lat="38.87234833" lon="1.36343333">
        <ele>2.0</ele>
        <time>2020-06-22T09:16:25.630Z</time>
      </trkpt>
      <trkpt lat="38.872485" lon="1.36347833">
        <ele>2.0</ele>
        <time>2020-06-22T09:16:26.620Z</time>
      </trkpt>
      <trkpt lat="38.872485" lon="1.36347833">
        <ele>2.0</ele>
        <time>2020-06-22T09:16:27.632Z</time>
      </trkpt>
      <trkpt lat="38.87262333" lon="1.36352">
        <ele>2.0</ele>
        <time>2020-06-22T09:16:28.599Z</time>
      </trkpt>
      <trkpt lat="38.87269167" lon="1.36354">
        <ele>2.0</ele>
        <time>2020-06-22T09:16:29.614Z</time>
      </trkpt>
      <trkpt lat="38.87269167" lon="1.36354">
        <ele>2.0</ele>
        <time>2020-06-22T09:16:30.610Z</time>
      </trkpt>
      <trkpt lat="38.87282833" lon="1.36358">
        <ele>2.0</ele>
        <time>2020-06-22T09:16:31.618Z</time>
      </trkpt>
      <trkpt lat="38.87282833" lon="1.36358">
        <ele>2.0</ele>
        <time>2020-06-22T09:16:32.623Z</time>
      </trkpt>
      <trkpt lat="38.87296333" lon="1.36362">
        <ele>2.0</ele>
        <time>2020-06-22T09:16:33.595Z</time>
      </trkpt>
      <trkpt lat="38.87296333" lon="1.36362">
        <ele>2.0</ele>
        <time>2020-06-22T09:16:34.600Z</time>
      </trkpt>
      <trkpt lat="38.8731" lon="1.36366167">
        <ele>2.0</ele>
        <time>2020-06-22T09:16:35.596Z</time>
      </trkpt>
      <trkpt lat="38.8731" lon="1.36366167">
        <ele>2.0</ele>
        <time>2020-06-22T09:16:36.606Z</time>
      </trkpt>
      <trkpt lat="38.87323667" lon="1.36370333">
        <ele>3.0</ele>
        <time>2020-06-22T09:16:37.613Z</time>
      </trkpt>
      <trkpt lat="38.873305" lon="1.36372667">
        <ele>3.0</ele>
        <time>2020-06-22T09:16:38.595Z</time>
      </trkpt>
      <trkpt lat="38.873305" lon="1.36372667">
        <ele>3.0</ele>
        <time>2020-06-22T09:16:39.600Z</time>
      </trkpt>
      <trkpt lat="38.87344" lon="1.36377">
        <ele>3.0</ele>
        <time>2020-06-22T09:16:40.606Z</time>
      </trkpt>
      <trkpt lat="38.87350833" lon="1.36378833">
        <ele>3.0</ele>
        <time>2020-06-22T09:16:41.627Z</time>
      </trkpt>
      <trkpt lat="38.87357667" lon="1.36381">
        <ele>3.0</ele>
        <time>2020-06-22T09:16:42.607Z</time>
      </trkpt>
      <trkpt lat="38.87357667" lon="1.36381">
        <ele>3.0</ele>
        <time>2020-06-22T09:16:43.613Z</time>
      </trkpt>
      <trkpt lat="38.87371333" lon="1.36385833">
        <ele>3.0</ele>
        <time>2020-06-22T09:16:44.627Z</time>
      </trkpt>
      <trkpt lat="38.87371333" lon="1.36385833">
        <ele>3.0</ele>
        <time>2020-06-22T09:16:45.632Z</time>
      </trkpt>
      <trkpt lat="38.87385" lon="1.36390667">
        <ele>3.0</ele>
        <time>2020-06-22T09:16:46.600Z</time>
      </trkpt>
      <trkpt lat="38.87385" lon="1.36390667">
        <ele>3.0</ele>
        <time>2020-06-22T09:16:47.616Z</time>
      </trkpt>
      <trkpt lat="38.87398667" lon="1.36395833">
        <ele>3.0</ele>
        <time>2020-06-22T09:16:48.597Z</time>
      </trkpt>
      <trkpt lat="38.874055" lon="1.363985">
        <ele>3.0</ele>
        <time>2020-06-22T09:16:49.608Z</time>
      </trkpt>
      <trkpt lat="38.874055" lon="1.363985">
        <ele>3.0</ele>
        <time>2020-06-22T09:16:50.613Z</time>
      </trkpt>
      <trkpt lat="38.87419167" lon="1.36404">
        <ele>3.0</ele>
        <time>2020-06-22T09:16:51.611Z</time>
      </trkpt>
      <trkpt lat="38.87419167" lon="1.36404">
        <ele>3.0</ele>
        <time>2020-06-22T09:16:52.617Z</time>
      </trkpt>
      <trkpt lat="38.87432833" lon="1.36409333">
        <ele>3.0</ele>
        <time>2020-06-22T09:16:53.625Z</time>
      </trkpt>
      <trkpt lat="38.87439667" lon="1.36411833">
        <ele>3.0</ele>
        <time>2020-06-22T09:16:54.627Z</time>
      </trkpt>
      <trkpt lat="38.87439667" lon="1.36411833">
        <ele>3.0</ele>
        <time>2020-06-22T09:16:55.634Z</time>
      </trkpt>
      <trkpt lat="38.87453333" lon="1.36416833">
        <ele>3.0</ele>
        <time>2020-06-22T09:16:56.618Z</time>
      </trkpt>
      <trkpt lat="38.8746" lon="1.36419167">
        <ele>3.0</ele>
        <time>2020-06-22T09:16:57.630Z</time>
      </trkpt>
      <trkpt lat="38.8746" lon="1.36419167">
        <ele>3.0</ele>
        <time>2020-06-22T09:16:58.596Z</time>
      </trkpt>
      <trkpt lat="38.87473667" lon="1.36424">
        <ele>3.0</ele>
        <time>2020-06-22T09:16:59.611Z</time>
      </trkpt>
      <trkpt lat="38.87480333" lon="1.36426833">
        <ele>3.0</ele>
        <time>2020-06-22T09:17:00.625Z</time>
      </trkpt>
      <trkpt lat="38.87480333" lon="1.36426833">
        <ele>3.0</ele>
        <time>2020-06-22T09:17:01.631Z</time>
      </trkpt>
      <trkpt lat="38.874935" lon="1.364325">
        <ele>3.0</ele>
        <time>2020-06-22T09:17:02.597Z</time>
      </trkpt>
      <trkpt lat="38.874935" lon="1.364325">
        <ele>3.0</ele>
        <time>2020-06-22T09:17:03.602Z</time>
      </trkpt>
      <trkpt lat="38.87506833" lon="1.364385">
        <ele>3.0</ele>
        <time>2020-06-22T09:17:04.601Z</time>
      </trkpt>
      <trkpt lat="38.875135" lon="1.36441667">
        <ele>3.0</ele>
        <time>2020-06-22T09:17:05.607Z</time>
      </trkpt>
      <trkpt lat="38.875135" lon="1.36441667">
        <ele>3.0</ele>
        <time>2020-06-22T09:17:06.612Z</time>
      </trkpt>
      <trkpt lat="38.87527" lon="1.36447167">
        <ele>3.0</ele>
        <time>2020-06-22T09:17:07.613Z</time>
      </trkpt>
      <trkpt lat="38.87527" lon="1.36447167">
        <ele>3.0</ele>
        <time>2020-06-22T09:17:08.619Z</time>
      </trkpt>
      <trkpt lat="38.87540667" lon="1.36452167">
        <ele>3.0</ele>
        <time>2020-06-22T09:17:09.627Z</time>
      </trkpt>
      <trkpt lat="38.87540667" lon="1.36452167">
        <ele>3.0</ele>
        <time>2020-06-22T09:17:10.633Z</time>
      </trkpt>
      <trkpt lat="38.875545" lon="1.36455">
        <ele>3.0</ele>
        <time>2020-06-22T09:17:11.616Z</time>
      </trkpt>
      <trkpt lat="38.87561667" lon="1.36455833">
        <ele>3.0</ele>
        <time>2020-06-22T09:17:12.622Z</time>
      </trkpt>
      <trkpt lat="38.87561667" lon="1.36455833">
        <ele>3.0</ele>
        <time>2020-06-22T09:17:13.627Z</time>
      </trkpt>
      <trkpt lat="38.87575333" lon="1.36457333">
        <ele>3.0</ele>
        <time>2020-06-22T09:17:14.602Z</time>
      </trkpt>
      <trkpt lat="38.87575333" lon="1.36457333">
        <ele>3.0</ele>
        <time>2020-06-22T09:17:15.607Z</time>
      </trkpt>
      <trkpt lat="38.87589" lon="1.36459">
        <ele>3.0</ele>
        <time>2020-06-22T09:17:16.613Z</time>
      </trkpt>
      <trkpt lat="38.87595833" lon="1.36459667">
        <ele>3.0</ele>
        <time>2020-06-22T09:17:17.608Z</time>
      </trkpt>
      <trkpt lat="38.87602667" lon="1.3646">
        <ele>4.0</ele>
        <time>2020-06-22T09:17:18.614Z</time>
      </trkpt>
      <trkpt lat="38.87602667" lon="1.3646">
        <ele>4.0</ele>
        <time>2020-06-22T09:17:19.620Z</time>
      </trkpt>
      <trkpt lat="38.87616333" lon="1.36460833">
        <ele>4.0</ele>
        <time>2020-06-22T09:17:20.616Z</time>
      </trkpt>
      <trkpt lat="38.87623167" lon="1.36461667">
        <ele>4.0</ele>
        <time>2020-06-22T09:17:21.626Z</time>
      </trkpt>
      <trkpt lat="38.87623167" lon="1.36461667">
        <ele>4.0</ele>
        <time>2020-06-22T09:17:22.609Z</time>
      </trkpt>
      <trkpt lat="38.87636833" lon="1.36462833">
        <ele>4.0</ele>
        <time>2020-06-22T09:17:23.594Z</time>
      </trkpt>
      <trkpt lat="38.87643833" lon="1.364635">
        <ele>4.0</ele>
        <time>2020-06-22T09:17:24.602Z</time>
      </trkpt>
      <trkpt lat="38.87643833" lon="1.364635">
        <ele>4.0</ele>
        <time>2020-06-22T09:17:25.609Z</time>
      </trkpt>
      <trkpt lat="38.87657667" lon="1.36464333">
        <ele>4.0</ele>
        <time>2020-06-22T09:17:26.615Z</time>
      </trkpt>
      <trkpt lat="38.87664667" lon="1.36465">
        <ele>5.0</ele>
        <time>2020-06-22T09:17:27.628Z</time>
      </trkpt>
      <trkpt lat="38.87664667" lon="1.36465">
        <ele>5.0</ele>
        <time>2020-06-22T09:17:28.633Z</time>
      </trkpt>
      <trkpt lat="38.87678667" lon="1.364655">
        <ele>5.0</ele>
        <time>2020-06-22T09:17:29.602Z</time>
      </trkpt>
      <trkpt lat="38.87678667" lon="1.364655">
        <ele>5.0</ele>
        <time>2020-06-22T09:17:30.608Z</time>
      </trkpt>
      <trkpt lat="38.876915" lon="1.36463">
        <ele>5.0</ele>
        <time>2020-06-22T09:17:31.605Z</time>
      </trkpt>
      <trkpt lat="38.876915" lon="1.36463">
        <ele>5.0</ele>
        <time>2020-06-22T09:17:32.611Z</time>
      </trkpt>
      <trkpt lat="38.87703" lon="1.36461833">
        <ele>5.0</ele>
        <time>2020-06-22T09:17:33.617Z</time>
      </trkpt>
      <trkpt lat="38.87703" lon="1.36461833">
        <ele>5.0</ele>
        <time>2020-06-22T09:17:34.622Z</time>
      </trkpt>
      <trkpt lat="38.87709667" lon="1.36471167">
        <ele>6.0</ele>
        <time>2020-06-22T09:17:35.597Z</time>
      </trkpt>
      <trkpt lat="38.87709667" lon="1.36471167">
        <ele>6.0</ele>
        <time>2020-06-22T09:17:36.602Z</time>
      </trkpt>
      <trkpt lat="38.87713" lon="1.36484667">
        <ele>6.0</ele>
        <time>2020-06-22T09:17:37.609Z</time>
      </trkpt>
      <trkpt lat="38.87715167" lon="1.36491333">
        <ele>6.0</ele>
        <time>2020-06-22T09:17:38.594Z</time>
      </trkpt>
      <trkpt lat="38.87715167" lon="1.36491333">
        <ele>6.0</ele>
        <time>2020-06-22T09:17:39.599Z</time>
      </trkpt>
      <trkpt lat="38.8772" lon="1.36505">
        <ele>6.0</ele>
        <time>2020-06-22T09:17:40.608Z</time>
      </trkpt>
      <trkpt lat="38.87722833" lon="1.36511667">
        <ele>7.0</ele>
        <time>2020-06-22T09:17:41.628Z</time>
      </trkpt>
      <trkpt lat="38.87725667" lon="1.365185">
        <ele>7.0</ele>
        <time>2020-06-22T09:17:42.602Z</time>
      </trkpt>
      <trkpt lat="38.87725667" lon="1.365185">
        <ele>7.0</ele>
        <time>2020-06-22T09:17:43.607Z</time>
      </trkpt>
      <trkpt lat="38.87731333" lon="1.36531833">
        <ele>7.0</ele>
        <time>2020-06-22T09:17:44.627Z</time>
      </trkpt>
      <trkpt lat="38.87731333" lon="1.36531833">
        <ele>7.0</ele>
        <time>2020-06-22T09:17:45.633Z</time>
      </trkpt>
      <trkpt lat="38.87737" lon="1.36545667">
        <ele>7.0</ele>
        <time>2020-06-22T09:17:46.601Z</time>
      </trkpt>
      <trkpt lat="38.87737" lon="1.36545667">
        <ele>7.0</ele>
        <time>2020-06-22T09:17:47.609Z</time>
      </trkpt>
      <trkpt lat="38.87742833" lon="1.365595">
        <ele>7.0</ele>
        <time>2020-06-22T09:17:48.616Z</time>
      </trkpt>
      <trkpt lat="38.87742833" lon="1.365595">
        <ele>7.0</ele>
        <time>2020-06-22T09:17:49.622Z</time>
      </trkpt>
      <trkpt lat="38.87748833" lon="1.36573333">
        <ele>7.0</ele>
        <time>2020-06-22T09:17:50.628Z</time>
      </trkpt>
      <trkpt lat="38.87748833" lon="1.36573333">
        <ele>7.0</ele>
        <time>2020-06-22T09:17:51.594Z</time>
      </trkpt>
      <trkpt lat="38.87754333" lon="1.36587333">
        <ele>7.0</ele>
        <time>2020-06-22T09:17:52.603Z</time>
      </trkpt>
      <trkpt lat="38.87757167" lon="1.36594167">
        <ele>7.0</ele>
        <time>2020-06-22T09:17:53.609Z</time>
      </trkpt>
      <trkpt lat="38.87759833" lon="1.36601">
        <ele>7.0</ele>
        <time>2020-06-22T09:17:54.614Z</time>
      </trkpt>
      <trkpt lat="38.87759833" lon="1.36601">
        <ele>7.0</ele>
        <time>2020-06-22T09:17:55.620Z</time>
      </trkpt>
      <trkpt lat="38.877655" lon="1.366145">
        <ele>7.0</ele>
        <time>2020-06-22T09:17:56.596Z</time>
      </trkpt>
      <trkpt lat="38.87768333" lon="1.36621333">
        <ele>7.0</ele>
        <time>2020-06-22T09:17:57.619Z</time>
      </trkpt>
      <trkpt lat="38.87768333" lon="1.36621333">
        <ele>7.0</ele>
        <time>2020-06-22T09:17:58.625Z</time>
      </trkpt>
      <trkpt lat="38.87773833" lon="1.36634833">
        <ele>8.0</ele>
        <time>2020-06-22T09:17:59.632Z</time>
      </trkpt>
      <trkpt lat="38.877765" lon="1.366415">
        <ele>8.0</ele>
        <time>2020-06-22T09:18:00.617Z</time>
      </trkpt>
      <trkpt lat="38.877765" lon="1.366415">
        <ele>8.0</ele>
        <time>2020-06-22T09:18:01.622Z</time>
      </trkpt>
      <trkpt lat="38.87782167" lon="1.36654833">
        <ele>8.0</ele>
        <time>2020-06-22T09:18:02.633Z</time>
      </trkpt>
      <trkpt lat="38.87782167" lon="1.36654833">
        <ele>8.0</ele>
        <time>2020-06-22T09:18:03.598Z</time>
      </trkpt>
      <trkpt lat="38.877875" lon="1.36668167">
        <ele>8.0</ele>
        <time>2020-06-22T09:18:04.606Z</time>
      </trkpt>
      <trkpt lat="38.877875" lon="1.36668167">
        <ele>8.0</ele>
        <time>2020-06-22T09:18:05.612Z</time>
      </trkpt>
      <trkpt lat="38.87793167" lon="1.36681333">
        <ele>8.0</ele>
        <time>2020-06-22T09:18:06.618Z</time>
      </trkpt>
      <trkpt lat="38.87796167" lon="1.36688167">
        <ele>8.0</ele>
        <time>2020-06-22T09:18:07.597Z</time>
      </trkpt>
      <trkpt lat="38.87796167" lon="1.36688167">
        <ele>8.0</ele>
        <time>2020-06-22T09:18:08.602Z</time>
      </trkpt>
      <trkpt lat="38.87801667" lon="1.36701667">
        <ele>8.0</ele>
        <time>2020-06-22T09:18:09.609Z</time>
      </trkpt>
      <trkpt lat="38.87801667" lon="1.36701667">
        <ele>8.0</ele>
        <time>2020-06-22T09:18:10.614Z</time>
      </trkpt>
      <trkpt lat="38.87807667" lon="1.36715333">
        <ele>8.0</ele>
        <time>2020-06-22T09:18:11.623Z</time>
      </trkpt>
      <trkpt lat="38.878105" lon="1.36722167">
        <ele>8.0</ele>
        <time>2020-06-22T09:18:12.600Z</time>
      </trkpt>
      <trkpt lat="38.878105" lon="1.36722167">
        <ele>8.0</ele>
        <time>2020-06-22T09:18:13.606Z</time>
      </trkpt>
      <trkpt lat="38.87816" lon="1.36736">
        <ele>8.0</ele>
        <time>2020-06-22T09:18:14.633Z</time>
      </trkpt>
      <trkpt lat="38.878185" lon="1.36743">
        <ele>8.0</ele>
        <time>2020-06-22T09:18:15.604Z</time>
      </trkpt>
      <trkpt lat="38.87821167" lon="1.3675">
        <ele>8.0</ele>
        <time>2020-06-22T09:18:16.610Z</time>
      </trkpt>
      <trkpt lat="38.87821167" lon="1.3675">
        <ele>8.0</ele>
        <time>2020-06-22T09:18:17.615Z</time>
      </trkpt>
      <trkpt lat="38.878265" lon="1.36764">
        <ele>8.0</ele>
        <time>2020-06-22T09:18:18.621Z</time>
      </trkpt>
      <trkpt lat="38.878265" lon="1.36764">
        <ele>8.0</ele>
        <time>2020-06-22T09:18:19.630Z</time>
      </trkpt>
      <trkpt lat="38.87832333" lon="1.36777833">
        <ele>8.0</ele>
        <time>2020-06-22T09:18:20.632Z</time>
      </trkpt>
      <trkpt lat="38.87832333" lon="1.36777833">
        <ele>8.0</ele>
        <time>2020-06-22T09:18:21.597Z</time>
      </trkpt>
      <trkpt lat="38.87838167" lon="1.36791667">
        <ele>8.0</ele>
        <time>2020-06-22T09:18:22.594Z</time>
      </trkpt>
      <trkpt lat="38.87841" lon="1.36798667">
        <ele>8.0</ele>
        <time>2020-06-22T09:18:23.604Z</time>
      </trkpt>
      <trkpt lat="38.87843833" lon="1.368055">
        <ele>8.0</ele>
        <time>2020-06-22T09:18:24.609Z</time>
      </trkpt>
      <trkpt lat="38.87843833" lon="1.368055">
        <ele>8.0</ele>
        <time>2020-06-22T09:18:25.615Z</time>
      </trkpt>
      <trkpt lat="38.878495" lon="1.36819333">
        <ele>8.0</ele>
        <time>2020-06-22T09:18:26.602Z</time>
      </trkpt>
      <trkpt lat="38.87852667" lon="1.36826333">
        <ele>8.0</ele>
        <time>2020-06-22T09:18:27.609Z</time>
      </trkpt>
      <trkpt lat="38.87855667" lon="1.36833167">
        <ele>8.0</ele>
        <time>2020-06-22T09:18:28.615Z</time>
      </trkpt>
      <trkpt lat="38.87855667" lon="1.36833167">
        <ele>8.0</ele>
        <time>2020-06-22T09:18:29.621Z</time>
      </trkpt>
      <trkpt lat="38.878615" lon="1.36847">
        <ele>8.0</ele>
        <time>2020-06-22T09:18:30.631Z</time>
      </trkpt>
      <trkpt lat="38.878615" lon="1.36847">
        <ele>8.0</ele>
        <time>2020-06-22T09:18:31.597Z</time>
      </trkpt>
      <trkpt lat="38.87866667" lon="1.368615">
        <ele>8.0</ele>
        <time>2020-06-22T09:18:32.604Z</time>
      </trkpt>
      <trkpt lat="38.87866667" lon="1.368615">
        <ele>8.0</ele>
        <time>2020-06-22T09:18:33.610Z</time>
      </trkpt>
      <trkpt lat="38.87872333" lon="1.36876">
        <ele>8.0</ele>
        <time>2020-06-22T09:18:34.616Z</time>
      </trkpt>
      <trkpt lat="38.87872333" lon="1.36876">
        <ele>8.0</ele>
        <time>2020-06-22T09:18:35.622Z</time>
      </trkpt>
      <trkpt lat="38.87878333" lon="1.36890333">
        <ele>8.0</ele>
        <time>2020-06-22T09:18:36.596Z</time>
      </trkpt>
      <trkpt lat="38.87878333" lon="1.36890333">
        <ele>8.0</ele>
        <time>2020-06-22T09:18:37.603Z</time>
      </trkpt>
      <trkpt lat="38.878845" lon="1.36904167">
        <ele>8.0</ele>
        <time>2020-06-22T09:18:38.609Z</time>
      </trkpt>
      <trkpt lat="38.878845" lon="1.36904167">
        <ele>8.0</ele>
        <time>2020-06-22T09:18:39.614Z</time>
      </trkpt>
      <trkpt lat="38.87889333" lon="1.36918333">
        <ele>8.0</ele>
        <time>2020-06-22T09:18:40.597Z</time>
      </trkpt>
      <trkpt lat="38.878895" lon="1.36925833">
        <ele>8.0</ele>
        <time>2020-06-22T09:18:41.602Z</time>
      </trkpt>
      <trkpt lat="38.878895" lon="1.36925833">
        <ele>8.0</ele>
        <time>2020-06-22T09:18:42.607Z</time>
      </trkpt>
      <trkpt lat="38.87883167" lon="1.36938667">
        <ele>9.0</ele>
        <time>2020-06-22T09:18:43.616Z</time>
      </trkpt>
      <trkpt lat="38.878785" lon="1.36944">
        <ele>9.0</ele>
        <time>2020-06-22T09:18:44.622Z</time>
      </trkpt>
      <trkpt lat="38.878785" lon="1.36944">
        <ele>9.0</ele>
        <time>2020-06-22T09:18:45.633Z</time>
      </trkpt>
      <trkpt lat="38.878735" lon="1.36956667">
        <ele>9.0</ele>
        <time>2020-06-22T09:18:46.608Z</time>
      </trkpt>
      <trkpt lat="38.878735" lon="1.36956667">
        <ele>9.0</ele>
        <time>2020-06-22T09:18:47.614Z</time>
      </trkpt>
      <trkpt lat="38.87876333" lon="1.36970833">
        <ele>8.0</ele>
        <time>2020-06-22T09:18:48.625Z</time>
      </trkpt>
      <trkpt lat="38.87880167" lon="1.36976667">
        <ele>8.0</ele>
        <time>2020-06-22T09:18:49.623Z</time>
      </trkpt>
      <trkpt lat="38.87880167" lon="1.36976667">
        <ele>8.0</ele>
        <time>2020-06-22T09:18:50.633Z</time>
      </trkpt>
      <trkpt lat="38.87889667" lon="1.36986667">
        <ele>7.0</ele>
        <time>2020-06-22T09:18:51.603Z</time>
      </trkpt>
      <trkpt lat="38.87889667" lon="1.36986667">
        <ele>7.0</ele>
        <time>2020-06-22T09:18:52.608Z</time>
      </trkpt>
      <trkpt lat="38.878985" lon="1.36997833">
        <ele>8.0</ele>
        <time>2020-06-22T09:18:53.627Z</time>
      </trkpt>
      <trkpt lat="38.87902333" lon="1.37004333">
        <ele>8.0</ele>
        <time>2020-06-22T09:18:54.595Z</time>
      </trkpt>
      <trkpt lat="38.87902333" lon="1.37004333">
        <ele>8.0</ele>
        <time>2020-06-22T09:18:55.601Z</time>
      </trkpt>
      <trkpt lat="38.87909333" lon="1.370175">
        <ele>8.0</ele>
        <time>2020-06-22T09:18:56.618Z</time>
      </trkpt>
      <trkpt lat="38.87909333" lon="1.370175">
        <ele>8.0</ele>
        <time>2020-06-22T09:18:57.623Z</time>
      </trkpt>
      <trkpt lat="38.87916" lon="1.37030667">
        <ele>8.0</ele>
        <time>2020-06-22T09:18:58.631Z</time>
      </trkpt>
      <trkpt lat="38.87916" lon="1.37030667">
        <ele>8.0</ele>
        <time>2020-06-22T09:18:59.596Z</time>
      </trkpt>
      <trkpt lat="38.87922667" lon="1.37044">
        <ele>8.0</ele>
        <time>2020-06-22T09:19:00.600Z</time>
      </trkpt>
      <trkpt lat="38.87922667" lon="1.37044">
        <ele>8.0</ele>
        <time>2020-06-22T09:19:01.605Z</time>
      </trkpt>
      <trkpt lat="38.87929167" lon="1.37057833">
        <ele>8.0</ele>
        <time>2020-06-22T09:19:02.612Z</time>
      </trkpt>
      <trkpt lat="38.87929167" lon="1.37057833">
        <ele>8.0</ele>
        <time>2020-06-22T09:19:03.617Z</time>
      </trkpt>
      <trkpt lat="38.87935667" lon="1.37071667">
        <ele>8.0</ele>
        <time>2020-06-22T09:19:04.612Z</time>
      </trkpt>
      <trkpt lat="38.87935667" lon="1.37071667">
        <ele>8.0</ele>
        <time>2020-06-22T09:19:05.608Z</time>
      </trkpt>
      <trkpt lat="38.87942167" lon="1.37085333">
        <ele>9.0</ele>
        <time>2020-06-22T09:19:06.614Z</time>
      </trkpt>
      <trkpt lat="38.87942167" lon="1.37085333">
        <ele>9.0</ele>
        <time>2020-06-22T09:19:07.619Z</time>
      </trkpt>
      <trkpt lat="38.879485" lon="1.37099167">
        <ele>9.0</ele>
        <time>2020-06-22T09:19:08.606Z</time>
      </trkpt>
      <trkpt lat="38.879485" lon="1.37099167">
        <ele>9.0</ele>
        <time>2020-06-22T09:19:09.611Z</time>
      </trkpt>
      <trkpt lat="38.87954667" lon="1.37112833">
        <ele>9.0</ele>
        <time>2020-06-22T09:19:10.618Z</time>
      </trkpt>
      <trkpt lat="38.87957833" lon="1.37119667">
        <ele>9.0</ele>
        <time>2020-06-22T09:19:11.632Z</time>
      </trkpt>
      <trkpt lat="38.87957833" lon="1.37119667">
        <ele>9.0</ele>
        <time>2020-06-22T09:19:12.597Z</time>
      </trkpt>
      <trkpt lat="38.87964167" lon="1.37133167">
        <ele>9.0</ele>
        <time>2020-06-22T09:19:13.604Z</time>
      </trkpt>
      <trkpt lat="38.87964167" lon="1.37133167">
        <ele>9.0</ele>
        <time>2020-06-22T09:19:14.609Z</time>
      </trkpt>
      <trkpt lat="38.879705" lon="1.371465">
        <ele>9.0</ele>
        <time>2020-06-22T09:19:15.606Z</time>
      </trkpt>
      <trkpt lat="38.879705" lon="1.371465">
        <ele>9.0</ele>
        <time>2020-06-22T09:19:16.611Z</time>
      </trkpt>
      <trkpt lat="38.87976667" lon="1.37159833">
        <ele>9.0</ele>
        <time>2020-06-22T09:19:17.626Z</time>
      </trkpt>
      <trkpt lat="38.8798" lon="1.371665">
        <ele>9.0</ele>
        <time>2020-06-22T09:19:18.606Z</time>
      </trkpt>
      <trkpt lat="38.8798" lon="1.371665">
        <ele>9.0</ele>
        <time>2020-06-22T09:19:19.611Z</time>
      </trkpt>
      <trkpt lat="38.87986167" lon="1.3718">
        <ele>9.0</ele>
        <time>2020-06-22T09:19:20.618Z</time>
      </trkpt>
      <trkpt lat="38.87986167" lon="1.3718">
        <ele>9.0</ele>
        <time>2020-06-22T09:19:21.623Z</time>
      </trkpt>
      <trkpt lat="38.879925" lon="1.37193333">
        <ele>9.0</ele>
        <time>2020-06-22T09:19:22.622Z</time>
      </trkpt>
      <trkpt lat="38.879925" lon="1.37193333">
        <ele>9.0</ele>
        <time>2020-06-22T09:19:23.615Z</time>
      </trkpt>
      <trkpt lat="38.879985" lon="1.37207">
        <ele>9.0</ele>
        <time>2020-06-22T09:19:24.623Z</time>
      </trkpt>
      <trkpt lat="38.879985" lon="1.37207">
        <ele>9.0</ele>
        <time>2020-06-22T09:19:25.631Z</time>
      </trkpt>
      <trkpt lat="38.880045" lon="1.372205">
        <ele>9.0</ele>
        <time>2020-06-22T09:19:26.617Z</time>
      </trkpt>
      <trkpt lat="38.880045" lon="1.372205">
        <ele>9.0</ele>
        <time>2020-06-22T09:19:27.623Z</time>
      </trkpt>
      <trkpt lat="38.88011" lon="1.37234">
        <ele>9.0</ele>
        <time>2020-06-22T09:19:28.633Z</time>
      </trkpt>
      <trkpt lat="38.88014167" lon="1.37240833">
        <ele>9.0</ele>
        <time>2020-06-22T09:19:29.606Z</time>
      </trkpt>
      <trkpt lat="38.88014167" lon="1.37240833">
        <ele>9.0</ele>
        <time>2020-06-22T09:19:30.611Z</time>
      </trkpt>
      <trkpt lat="38.8802" lon="1.37254667">
        <ele>9.0</ele>
        <time>2020-06-22T09:19:31.596Z</time>
      </trkpt>
      <trkpt lat="38.88023" lon="1.37261667">
        <ele>9.0</ele>
        <time>2020-06-22T09:19:32.600Z</time>
      </trkpt>
      <trkpt lat="38.88023" lon="1.37261667">
        <ele>9.0</ele>
        <time>2020-06-22T09:19:33.605Z</time>
      </trkpt>
      <trkpt lat="38.88029167" lon="1.37275667">
        <ele>9.0</ele>
        <time>2020-06-22T09:19:34.612Z</time>
      </trkpt>
      <trkpt lat="38.88029167" lon="1.37275667">
        <ele>9.0</ele>
        <time>2020-06-22T09:19:35.618Z</time>
      </trkpt>
      <trkpt lat="38.88035" lon="1.37289833">
        <ele>9.0</ele>
        <time>2020-06-22T09:19:36.629Z</time>
      </trkpt>
      <trkpt lat="38.88035" lon="1.37289833">
        <ele>9.0</ele>
        <time>2020-06-22T09:19:37.595Z</time>
      </trkpt>
      <trkpt lat="38.88041" lon="1.37304167">
        <ele>9.0</ele>
        <time>2020-06-22T09:19:38.602Z</time>
      </trkpt>
      <trkpt lat="38.88041" lon="1.37304167">
        <ele>9.0</ele>
        <time>2020-06-22T09:19:39.608Z</time>
      </trkpt>
      <trkpt lat="38.88047167" lon="1.37319">
        <ele>9.0</ele>
        <time>2020-06-22T09:19:40.632Z</time>
      </trkpt>
      <trkpt lat="38.88047167" lon="1.37319">
        <ele>9.0</ele>
        <time>2020-06-22T09:19:41.597Z</time>
      </trkpt>
      <trkpt lat="38.880535" lon="1.37333833">
        <ele>9.0</ele>
        <time>2020-06-22T09:19:42.604Z</time>
      </trkpt>
      <trkpt lat="38.880535" lon="1.37333833">
        <ele>9.0</ele>
        <time>2020-06-22T09:19:43.609Z</time>
      </trkpt>
      <trkpt lat="38.88059833" lon="1.37349">
        <ele>9.0</ele>
        <time>2020-06-22T09:19:44.609Z</time>
      </trkpt>
      <trkpt lat="38.88059833" lon="1.37349">
        <ele>9.0</ele>
        <time>2020-06-22T09:19:45.614Z</time>
      </trkpt>
      <trkpt lat="38.88066333" lon="1.37364167">
        <ele>9.0</ele>
        <time>2020-06-22T09:19:46.621Z</time>
      </trkpt>
      <trkpt lat="38.88066333" lon="1.37364167">
        <ele>9.0</ele>
        <time>2020-06-22T09:19:47.628Z</time>
      </trkpt>
      <trkpt lat="38.88073" lon="1.373795">
        <ele>9.0</ele>
        <time>2020-06-22T09:19:48.603Z</time>
      </trkpt>
      <trkpt lat="38.88073" lon="1.373795">
        <ele>9.0</ele>
        <time>2020-06-22T09:19:49.608Z</time>
      </trkpt>
      <trkpt lat="38.88079667" lon="1.37395333">
        <ele>8.0</ele>
        <time>2020-06-22T09:19:50.615Z</time>
      </trkpt>
      <trkpt lat="38.88083" lon="1.37403333">
        <ele>8.0</ele>
        <time>2020-06-22T09:19:51.613Z</time>
      </trkpt>
      <trkpt lat="38.88083" lon="1.37403333">
        <ele>8.0</ele>
        <time>2020-06-22T09:19:52.618Z</time>
      </trkpt>
      <trkpt lat="38.88089667" lon="1.37419167">
        <ele>8.0</ele>
        <time>2020-06-22T09:19:53.625Z</time>
      </trkpt>
      <trkpt lat="38.88093" lon="1.37427">
        <ele>8.0</ele>
        <time>2020-06-22T09:19:54.613Z</time>
      </trkpt>
      <trkpt lat="38.88096167" lon="1.37434833">
        <ele>8.0</ele>
        <time>2020-06-22T09:19:55.633Z</time>
      </trkpt>
      <trkpt lat="38.88096167" lon="1.37434833">
        <ele>8.0</ele>
        <time>2020-06-22T09:19:56.598Z</time>
      </trkpt>
      <trkpt lat="38.88102667" lon="1.37450333">
        <ele>8.0</ele>
        <time>2020-06-22T09:19:57.626Z</time>
      </trkpt>
      <trkpt lat="38.88106167" lon="1.37458">
        <ele>8.0</ele>
        <time>2020-06-22T09:19:58.626Z</time>
      </trkpt>
      <trkpt lat="38.88106167" lon="1.37458">
        <ele>8.0</ele>
        <time>2020-06-22T09:19:59.632Z</time>
      </trkpt>
      <trkpt lat="38.881125" lon="1.37473333">
        <ele>8.0</ele>
        <time>2020-06-22T09:20:00.600Z</time>
      </trkpt>
      <trkpt lat="38.881125" lon="1.37473333">
        <ele>8.0</ele>
        <time>2020-06-22T09:20:01.605Z</time>
      </trkpt>
      <trkpt lat="38.88119" lon="1.37489167">
        <ele>7.0</ele>
        <time>2020-06-22T09:20:02.633Z</time>
      </trkpt>
      <trkpt lat="38.88122167" lon="1.37497">
        <ele>7.0</ele>
        <time>2020-06-22T09:20:03.599Z</time>
      </trkpt>
      <trkpt lat="38.88122167" lon="1.37497">
        <ele>7.0</ele>
        <time>2020-06-22T09:20:04.604Z</time>
      </trkpt>
      <trkpt lat="38.88128667" lon="1.37512667">
        <ele>7.0</ele>
        <time>2020-06-22T09:20:05.613Z</time>
      </trkpt>
      <trkpt lat="38.88128667" lon="1.37512667">
        <ele>7.0</ele>
        <time>2020-06-22T09:20:06.618Z</time>
      </trkpt>
      <trkpt lat="38.88135333" lon="1.37528333">
        <ele>7.0</ele>
        <time>2020-06-22T09:20:07.629Z</time>
      </trkpt>
      <trkpt lat="38.88138667" lon="1.37536167">
        <ele>7.0</ele>
        <time>2020-06-22T09:20:08.601Z</time>
      </trkpt>
      <trkpt lat="38.88138667" lon="1.37536167">
        <ele>7.0</ele>
        <time>2020-06-22T09:20:09.606Z</time>
      </trkpt>
      <trkpt lat="38.88145333" lon="1.37552">
        <ele>7.0</ele>
        <time>2020-06-22T09:20:10.619Z</time>
      </trkpt>
      <trkpt lat="38.88145333" lon="1.37552">
        <ele>7.0</ele>
        <time>2020-06-22T09:20:11.628Z</time>
      </trkpt>
      <trkpt lat="38.88152167" lon="1.37568">
        <ele>7.0</ele>
        <time>2020-06-22T09:20:12.604Z</time>
      </trkpt>
      <trkpt lat="38.88152167" lon="1.37568">
        <ele>7.0</ele>
        <time>2020-06-22T09:20:13.609Z</time>
      </trkpt>
      <trkpt lat="38.88158833" lon="1.37584167">
        <ele>6.0</ele>
        <time>2020-06-22T09:20:14.616Z</time>
      </trkpt>
      <trkpt lat="38.88158833" lon="1.37584167">
        <ele>6.0</ele>
        <time>2020-06-22T09:20:15.622Z</time>
      </trkpt>
      <trkpt lat="38.88165833" lon="1.37600333">
        <ele>6.0</ele>
        <time>2020-06-22T09:20:16.618Z</time>
      </trkpt>
      <trkpt lat="38.88165833" lon="1.37600333">
        <ele>6.0</ele>
        <time>2020-06-22T09:20:17.624Z</time>
      </trkpt>
      <trkpt lat="38.88172667" lon="1.376165">
        <ele>6.0</ele>
        <time>2020-06-22T09:20:18.632Z</time>
      </trkpt>
      <trkpt lat="38.88172667" lon="1.376165">
        <ele>6.0</ele>
        <time>2020-06-22T09:20:19.597Z</time>
      </trkpt>
      <trkpt lat="38.88179333" lon="1.376325">
        <ele>6.0</ele>
        <time>2020-06-22T09:20:20.627Z</time>
      </trkpt>
      <trkpt lat="38.88179333" lon="1.376325">
        <ele>6.0</ele>
        <time>2020-06-22T09:20:21.633Z</time>
      </trkpt>
      <trkpt lat="38.88185667" lon="1.37648167">
        <ele>5.0</ele>
        <time>2020-06-22T09:20:22.600Z</time>
      </trkpt>
      <trkpt lat="38.88189" lon="1.37656">
        <ele>5.0</ele>
        <time>2020-06-22T09:20:23.616Z</time>
      </trkpt>
      <trkpt lat="38.88189" lon="1.37656">
        <ele>5.0</ele>
        <time>2020-06-22T09:20:24.621Z</time>
      </trkpt>
      <trkpt lat="38.88194833" lon="1.37671333">
        <ele>5.0</ele>
        <time>2020-06-22T09:20:25.631Z</time>
      </trkpt>
      <trkpt lat="38.88194833" lon="1.37671333">
        <ele>5.0</ele>
        <time>2020-06-22T09:20:26.597Z</time>
      </trkpt>
      <trkpt lat="38.88199833" lon="1.37686833">
        <ele>5.0</ele>
        <time>2020-06-22T09:20:27.606Z</time>
      </trkpt>
      <trkpt lat="38.88199833" lon="1.37686833">
        <ele>5.0</ele>
        <time>2020-06-22T09:20:28.611Z</time>
      </trkpt>
      <trkpt lat="38.88204167" lon="1.37702167">
        <ele>5.0</ele>
        <time>2020-06-22T09:20:29.619Z</time>
      </trkpt>
      <trkpt lat="38.88205833" lon="1.37709833">
        <ele>5.0</ele>
        <time>2020-06-22T09:20:30.604Z</time>
      </trkpt>
      <trkpt lat="38.88206833" lon="1.377175">
        <ele>5.0</ele>
        <time>2020-06-22T09:20:31.606Z</time>
      </trkpt>
      <trkpt lat="38.88206833" lon="1.377175">
        <ele>5.0</ele>
        <time>2020-06-22T09:20:32.624Z</time>
      </trkpt>
      <trkpt lat="38.882035" lon="1.377315">
        <ele>6.0</ele>
        <time>2020-06-22T09:20:33.596Z</time>
      </trkpt>
      <trkpt lat="38.882035" lon="1.377315">
        <ele>6.0</ele>
        <time>2020-06-22T09:20:34.601Z</time>
      </trkpt>
      <trkpt lat="38.88197833" lon="1.37745667">
        <ele>6.0</ele>
        <time>2020-06-22T09:20:35.602Z</time>
      </trkpt>
      <trkpt lat="38.88197833" lon="1.37745667">
        <ele>6.0</ele>
        <time>2020-06-22T09:20:36.607Z</time>
      </trkpt>
      <trkpt lat="38.88198333" lon="1.377615">
        <ele>5.0</ele>
        <time>2020-06-22T09:20:37.613Z</time>
      </trkpt>
      <trkpt lat="38.88201" lon="1.37768833">
        <ele>4.0</ele>
        <time>2020-06-22T09:20:38.594Z</time>
      </trkpt>
      <trkpt lat="38.88201" lon="1.37768833">
        <ele>4.0</ele>
        <time>2020-06-22T09:20:39.599Z</time>
      </trkpt>
      <trkpt lat="38.88208" lon="1.377835">
        <ele>3.0</ele>
        <time>2020-06-22T09:20:40.608Z</time>
      </trkpt>
      <trkpt lat="38.88208" lon="1.377835">
        <ele>3.0</ele>
        <time>2020-06-22T09:20:41.613Z</time>
      </trkpt>
      <trkpt lat="38.88213167" lon="1.37799833">
        <ele>3.0</ele>
        <time>2020-06-22T09:20:42.603Z</time>
      </trkpt>
      <trkpt lat="38.88213167" lon="1.37799833">
        <ele>3.0</ele>
        <time>2020-06-22T09:20:43.609Z</time>
      </trkpt>
      <trkpt lat="38.88213833" lon="1.37817833">
        <ele>3.0</ele>
        <time>2020-06-22T09:20:44.598Z</time>
      </trkpt>
      <trkpt lat="38.88213333" lon="1.37826833">
        <ele>3.0</ele>
        <time>2020-06-22T09:20:45.596Z</time>
      </trkpt>
      <trkpt lat="38.88213333" lon="1.37826833">
        <ele>3.0</ele>
        <time>2020-06-22T09:20:46.612Z</time>
      </trkpt>
      <trkpt lat="38.88211667" lon="1.37845">
        <ele>3.0</ele>
        <time>2020-06-22T09:20:47.633Z</time>
      </trkpt>
      <trkpt lat="38.88211167" lon="1.37854333">
        <ele>2.0</ele>
        <time>2020-06-22T09:20:48.625Z</time>
      </trkpt>
      <trkpt lat="38.88211167" lon="1.37854333">
        <ele>2.0</ele>
        <time>2020-06-22T09:20:49.594Z</time>
      </trkpt>
      <trkpt lat="38.88210333" lon="1.37872167">
        <ele>2.0</ele>
        <time>2020-06-22T09:20:50.607Z</time>
      </trkpt>
      <trkpt lat="38.88210333" lon="1.37872167">
        <ele>2.0</ele>
        <time>2020-06-22T09:20:51.612Z</time>
      </trkpt>
      <trkpt lat="38.8821" lon="1.37890667">
        <ele>2.0</ele>
        <time>2020-06-22T09:20:52.594Z</time>
      </trkpt>
      <trkpt lat="38.8821" lon="1.37890667">
        <ele>2.0</ele>
        <time>2020-06-22T09:20:53.600Z</time>
      </trkpt>
      <trkpt lat="38.882095" lon="1.37909667">
        <ele>2.0</ele>
        <time>2020-06-22T09:20:54.606Z</time>
      </trkpt>
      <trkpt lat="38.882095" lon="1.37909667">
        <ele>2.0</ele>
        <time>2020-06-22T09:20:55.611Z</time>
      </trkpt>
      <trkpt lat="38.88209167" lon="1.37928667">
        <ele>2.0</ele>
        <time>2020-06-22T09:20:56.599Z</time>
      </trkpt>
      <trkpt lat="38.88209167" lon="1.37928667">
        <ele>2.0</ele>
        <time>2020-06-22T09:20:57.604Z</time>
      </trkpt>
      <trkpt lat="38.88209167" lon="1.37947667">
        <ele>2.0</ele>
        <time>2020-06-22T09:20:58.611Z</time>
      </trkpt>
      <trkpt lat="38.88209" lon="1.37957167">
        <ele>2.0</ele>
        <time>2020-06-22T09:20:59.607Z</time>
      </trkpt>
      <trkpt lat="38.88209" lon="1.37957167">
        <ele>2.0</ele>
        <time>2020-06-22T09:21:00.616Z</time>
      </trkpt>
      <trkpt lat="38.88208667" lon="1.37976333">
        <ele>2.0</ele>
        <time>2020-06-22T09:21:01.622Z</time>
      </trkpt>
      <trkpt lat="38.88208667" lon="1.37976333">
        <ele>2.0</ele>
        <time>2020-06-22T09:21:02.594Z</time>
      </trkpt>
      <trkpt lat="38.88207833" lon="1.37995333">
        <ele>2.0</ele>
        <time>2020-06-22T09:21:03.621Z</time>
      </trkpt>
      <trkpt lat="38.88207833" lon="1.37995333">
        <ele>2.0</ele>
        <time>2020-06-22T09:21:04.628Z</time>
      </trkpt>
      <trkpt lat="38.88207167" lon="1.380145">
        <ele>1.0</ele>
        <time>2020-06-22T09:21:05.603Z</time>
      </trkpt>
      <trkpt lat="38.88206833" lon="1.38024">
        <ele>1.0</ele>
        <time>2020-06-22T09:21:06.598Z</time>
      </trkpt>
      <trkpt lat="38.88206833" lon="1.38024">
        <ele>1.0</ele>
        <time>2020-06-22T09:21:07.603Z</time>
      </trkpt>
      <trkpt lat="38.88206167" lon="1.38042667">
        <ele>1.0</ele>
        <time>2020-06-22T09:21:08.610Z</time>
      </trkpt>
      <trkpt lat="38.88205833" lon="1.38052">
        <ele>1.0</ele>
        <time>2020-06-22T09:21:09.630Z</time>
      </trkpt>
      <trkpt lat="38.88205833" lon="1.38052">
        <ele>1.0</ele>
        <time>2020-06-22T09:21:10.626Z</time>
      </trkpt>
      <trkpt lat="38.88204833" lon="1.38070833">
        <ele>2.0</ele>
        <time>2020-06-22T09:21:11.612Z</time>
      </trkpt>
      <trkpt lat="38.88204833" lon="1.38070833">
        <ele>2.0</ele>
        <time>2020-06-22T09:21:12.617Z</time>
      </trkpt>
      <trkpt lat="38.88203667" lon="1.38089333">
        <ele>2.0</ele>
        <time>2020-06-22T09:21:13.623Z</time>
      </trkpt>
      <trkpt lat="38.88203167" lon="1.38098667">
        <ele>2.0</ele>
        <time>2020-06-22T09:21:14.601Z</time>
      </trkpt>
      <trkpt lat="38.88202667" lon="1.38108167">
        <ele>2.0</ele>
        <time>2020-06-22T09:21:15.598Z</time>
      </trkpt>
      <trkpt lat="38.88202667" lon="1.38108167">
        <ele>2.0</ele>
        <time>2020-06-22T09:21:16.604Z</time>
      </trkpt>
      <trkpt lat="38.88201667" lon="1.381275">
        <ele>2.0</ele>
        <time>2020-06-22T09:21:17.610Z</time>
      </trkpt>
      <trkpt lat="38.88201667" lon="1.381275">
        <ele>2.0</ele>
        <time>2020-06-22T09:21:18.615Z</time>
      </trkpt>
      <trkpt lat="38.88201" lon="1.38146833">
        <ele>1.0</ele>
        <time>2020-06-22T09:21:19.631Z</time>
      </trkpt>
      <trkpt lat="38.88201" lon="1.38146833">
        <ele>1.0</ele>
        <time>2020-06-22T09:21:20.596Z</time>
      </trkpt>
      <trkpt lat="38.88200333" lon="1.38166">
        <ele>1.0</ele>
        <time>2020-06-22T09:21:21.602Z</time>
      </trkpt>
      <trkpt lat="38.88199833" lon="1.38175667">
        <ele>1.0</ele>
        <time>2020-06-22T09:21:22.624Z</time>
      </trkpt>
      <trkpt lat="38.88199833" lon="1.38175667">
        <ele>1.0</ele>
        <time>2020-06-22T09:21:23.633Z</time>
      </trkpt>
      <trkpt lat="38.881995" lon="1.38194833">
        <ele>1.0</ele>
        <time>2020-06-22T09:21:24.600Z</time>
      </trkpt>
      <trkpt lat="38.881995" lon="1.38194833">
        <ele>1.0</ele>
        <time>2020-06-22T09:21:25.606Z</time>
      </trkpt>
      <trkpt lat="38.88199333" lon="1.38214">
        <ele>1.0</ele>
        <time>2020-06-22T09:21:26.596Z</time>
      </trkpt>
      <trkpt lat="38.88199333" lon="1.38214">
        <ele>1.0</ele>
        <time>2020-06-22T09:21:27.614Z</time>
      </trkpt>
      <trkpt lat="38.88199" lon="1.38232667">
        <ele>1.0</ele>
        <time>2020-06-22T09:21:28.620Z</time>
      </trkpt>
      <trkpt lat="38.88199" lon="1.38232667">
        <ele>1.0</ele>
        <time>2020-06-22T09:21:29.625Z</time>
      </trkpt>
      <trkpt lat="38.881985" lon="1.38251">
        <ele>1.0</ele>
        <time>2020-06-22T09:21:30.603Z</time>
      </trkpt>
      <trkpt lat="38.881985" lon="1.38251">
        <ele>1.0</ele>
        <time>2020-06-22T09:21:31.608Z</time>
      </trkpt>
      <trkpt lat="38.88198833" lon="1.382695">
        <ele>1.0</ele>
        <time>2020-06-22T09:21:32.615Z</time>
      </trkpt>
      <trkpt lat="38.88198833" lon="1.382695">
        <ele>1.0</ele>
        <time>2020-06-22T09:21:33.613Z</time>
      </trkpt>
      <trkpt lat="38.88198667" lon="1.38287833">
        <ele>1.0</ele>
        <time>2020-06-22T09:21:34.602Z</time>
      </trkpt>
      <trkpt lat="38.88198667" lon="1.38287833">
        <ele>1.0</ele>
        <time>2020-06-22T09:21:35.607Z</time>
      </trkpt>
      <trkpt lat="38.88198667" lon="1.38306">
        <ele>1.0</ele>
        <time>2020-06-22T09:21:36.613Z</time>
      </trkpt>
      <trkpt lat="38.88198667" lon="1.38306">
        <ele>1.0</ele>
        <time>2020-06-22T09:21:37.619Z</time>
      </trkpt>
      <trkpt lat="38.88198667" lon="1.38324">
        <ele>1.0</ele>
        <time>2020-06-22T09:21:38.616Z</time>
      </trkpt>
      <trkpt lat="38.88198667" lon="1.38324">
        <ele>1.0</ele>
        <time>2020-06-22T09:21:39.621Z</time>
      </trkpt>
      <trkpt lat="38.881985" lon="1.38342">
        <ele>2.0</ele>
        <time>2020-06-22T09:21:40.632Z</time>
      </trkpt>
      <trkpt lat="38.88198333" lon="1.38350833">
        <ele>2.0</ele>
        <time>2020-06-22T09:21:41.617Z</time>
      </trkpt>
      <trkpt lat="38.88197667" lon="1.38359833">
        <ele>2.0</ele>
        <time>2020-06-22T09:21:42.600Z</time>
      </trkpt>
      <trkpt lat="38.88197667" lon="1.38359833">
        <ele>2.0</ele>
        <time>2020-06-22T09:21:43.605Z</time>
      </trkpt>
      <trkpt lat="38.88196167" lon="1.38377333">
        <ele>2.0</ele>
        <time>2020-06-22T09:21:44.612Z</time>
      </trkpt>
      <trkpt lat="38.88196167" lon="1.38377333">
        <ele>2.0</ele>
        <time>2020-06-22T09:21:45.617Z</time>
      </trkpt>
      <trkpt lat="38.881975" lon="1.38394667">
        <ele>2.0</ele>
        <time>2020-06-22T09:21:46.597Z</time>
      </trkpt>
      <trkpt lat="38.88199" lon="1.38403333">
        <ele>2.0</ele>
        <time>2020-06-22T09:21:47.603Z</time>
      </trkpt>
      <trkpt lat="38.88200667" lon="1.38412167">
        <ele>2.0</ele>
        <time>2020-06-22T09:21:48.609Z</time>
      </trkpt>
      <trkpt lat="38.88200667" lon="1.38412167">
        <ele>2.0</ele>
        <time>2020-06-22T09:21:49.615Z</time>
      </trkpt>
      <trkpt lat="38.88203667" lon="1.38429833">
        <ele>2.0</ele>
        <time>2020-06-22T09:21:50.622Z</time>
      </trkpt>
      <trkpt lat="38.88205333" lon="1.38438667">
        <ele>2.0</ele>
        <time>2020-06-22T09:21:51.619Z</time>
      </trkpt>
      <trkpt lat="38.88205333" lon="1.38438667">
        <ele>2.0</ele>
        <time>2020-06-22T09:21:52.625Z</time>
      </trkpt>
      <trkpt lat="38.88208333" lon="1.38457">
        <ele>2.0</ele>
        <time>2020-06-22T09:21:53.634Z</time>
      </trkpt>
      <trkpt lat="38.88209833" lon="1.38466333">
        <ele>2.0</ele>
        <time>2020-06-22T09:21:54.594Z</time>
      </trkpt>
      <trkpt lat="38.88209833" lon="1.38466333">
        <ele>2.0</ele>
        <time>2020-06-22T09:21:55.599Z</time>
      </trkpt>
      <trkpt lat="38.882135" lon="1.38485">
        <ele>1.0</ele>
        <time>2020-06-22T09:21:56.606Z</time>
      </trkpt>
      <trkpt lat="38.882135" lon="1.38485">
        <ele>1.0</ele>
        <time>2020-06-22T09:21:57.612Z</time>
      </trkpt>
      <trkpt lat="38.88217667" lon="1.38504333">
        <ele>1.0</ele>
        <time>2020-06-22T09:21:58.614Z</time>
      </trkpt>
      <trkpt lat="38.88217667" lon="1.38504333">
        <ele>1.0</ele>
        <time>2020-06-22T09:21:59.619Z</time>
      </trkpt>
      <trkpt lat="38.88221833" lon="1.38524167">
        <ele>0.0</ele>
        <time>2020-06-22T09:22:00.632Z</time>
      </trkpt>
      <trkpt lat="38.88221833" lon="1.38524167">
        <ele>0.0</ele>
        <time>2020-06-22T09:22:01.597Z</time>
      </trkpt>
      <trkpt lat="38.88226" lon="1.38543833">
        <ele>0.0</ele>
        <time>2020-06-22T09:22:02.623Z</time>
      </trkpt>
      <trkpt lat="38.88226" lon="1.38543833">
        <ele>0.0</ele>
        <time>2020-06-22T09:22:03.629Z</time>
      </trkpt>
      <trkpt lat="38.882305" lon="1.38563333">
        <ele>0.0</ele>
        <time>2020-06-22T09:22:04.597Z</time>
      </trkpt>
      <trkpt lat="38.882305" lon="1.38563333">
        <ele>0.0</ele>
        <time>2020-06-22T09:22:05.602Z</time>
      </trkpt>
      <trkpt lat="38.88235667" lon="1.38582833">
        <ele>-1.0</ele>
        <time>2020-06-22T09:22:06.623Z</time>
      </trkpt>
      <trkpt lat="38.88235667" lon="1.38582833">
        <ele>-1.0</ele>
        <time>2020-06-22T09:22:07.629Z</time>
      </trkpt>
      <trkpt lat="38.88241167" lon="1.38601667">
        <ele>-1.0</ele>
        <time>2020-06-22T09:22:08.596Z</time>
      </trkpt>
      <trkpt lat="38.88244" lon="1.38610833">
        <ele>-1.0</ele>
        <time>2020-06-22T09:22:09.626Z</time>
      </trkpt>
      <trkpt lat="38.88247" lon="1.38619833">
        <ele>-1.0</ele>
        <time>2020-06-22T09:22:10.632Z</time>
      </trkpt>
      <trkpt lat="38.88247" lon="1.38619833">
        <ele>-1.0</ele>
        <time>2020-06-22T09:22:11.598Z</time>
      </trkpt>
      <trkpt lat="38.88252667" lon="1.38637333">
        <ele>0.0</ele>
        <time>2020-06-22T09:22:12.598Z</time>
      </trkpt>
      <trkpt lat="38.88252667" lon="1.38637333">
        <ele>0.0</ele>
        <time>2020-06-22T09:22:13.603Z</time>
      </trkpt>
      <trkpt lat="38.88258" lon="1.38653667">
        <ele>0.0</ele>
        <time>2020-06-22T09:22:14.609Z</time>
      </trkpt>
      <trkpt lat="38.88258" lon="1.38653667">
        <ele>0.0</ele>
        <time>2020-06-22T09:22:15.614Z</time>
      </trkpt>
      <trkpt lat="38.88263333" lon="1.3867">
        <ele>1.0</ele>
        <time>2020-06-22T09:22:16.598Z</time>
      </trkpt>
      <trkpt lat="38.88263333" lon="1.3867">
        <ele>1.0</ele>
        <time>2020-06-22T09:22:17.603Z</time>
      </trkpt>
      <trkpt lat="38.88269333" lon="1.38685833">
        <ele>2.0</ele>
        <time>2020-06-22T09:22:18.610Z</time>
      </trkpt>
      <trkpt lat="38.88269333" lon="1.38685833">
        <ele>2.0</ele>
        <time>2020-06-22T09:22:19.616Z</time>
      </trkpt>
      <trkpt lat="38.88274667" lon="1.38701167">
        <ele>2.0</ele>
        <time>2020-06-22T09:22:20.598Z</time>
      </trkpt>
      <trkpt lat="38.88274667" lon="1.38701167">
        <ele>2.0</ele>
        <time>2020-06-22T09:22:21.605Z</time>
      </trkpt>
      <trkpt lat="38.88280667" lon="1.38716167">
        <ele>3.0</ele>
        <time>2020-06-22T09:22:22.596Z</time>
      </trkpt>
      <trkpt lat="38.88283333" lon="1.38723833">
        <ele>3.0</ele>
        <time>2020-06-22T09:22:23.612Z</time>
      </trkpt>
      <trkpt lat="38.88286167" lon="1.38731833">
        <ele>3.0</ele>
        <time>2020-06-22T09:22:24.618Z</time>
      </trkpt>
      <trkpt lat="38.88286167" lon="1.38731833">
        <ele>3.0</ele>
        <time>2020-06-22T09:22:25.623Z</time>
      </trkpt>
      <trkpt lat="38.88292333" lon="1.387475">
        <ele>3.0</ele>
        <time>2020-06-22T09:22:26.630Z</time>
      </trkpt>
      <trkpt lat="38.88292333" lon="1.387475">
        <ele>3.0</ele>
        <time>2020-06-22T09:22:27.598Z</time>
      </trkpt>
      <trkpt lat="38.88298667" lon="1.387625">
        <ele>4.0</ele>
        <time>2020-06-22T09:22:28.615Z</time>
      </trkpt>
      <trkpt lat="38.88298667" lon="1.387625">
        <ele>4.0</ele>
        <time>2020-06-22T09:22:29.620Z</time>
      </trkpt>
      <trkpt lat="38.883045" lon="1.38777167">
        <ele>4.0</ele>
        <time>2020-06-22T09:22:30.627Z</time>
      </trkpt>
      <trkpt lat="38.883045" lon="1.38777167">
        <ele>4.0</ele>
        <time>2020-06-22T09:22:31.595Z</time>
      </trkpt>
      <trkpt lat="38.88310667" lon="1.38791833">
        <ele>4.0</ele>
        <time>2020-06-22T09:22:32.626Z</time>
      </trkpt>
      <trkpt lat="38.88310667" lon="1.38791833">
        <ele>4.0</ele>
        <time>2020-06-22T09:22:33.595Z</time>
      </trkpt>
      <trkpt lat="38.88316833" lon="1.388065">
        <ele>4.0</ele>
        <time>2020-06-22T09:22:34.604Z</time>
      </trkpt>
      <trkpt lat="38.88316833" lon="1.388065">
        <ele>4.0</ele>
        <time>2020-06-22T09:22:35.610Z</time>
      </trkpt>
      <trkpt lat="38.88323667" lon="1.38821167">
        <ele>4.0</ele>
        <time>2020-06-22T09:22:36.627Z</time>
      </trkpt>
      <trkpt lat="38.88323667" lon="1.38821167">
        <ele>4.0</ele>
        <time>2020-06-22T09:22:37.594Z</time>
      </trkpt>
      <trkpt lat="38.883305" lon="1.38835833">
        <ele>4.0</ele>
        <time>2020-06-22T09:22:38.615Z</time>
      </trkpt>
      <trkpt lat="38.88334" lon="1.38843333">
        <ele>4.0</ele>
        <time>2020-06-22T09:22:39.621Z</time>
      </trkpt>
      <trkpt lat="38.88334" lon="1.38843333">
        <ele>4.0</ele>
        <time>2020-06-22T09:22:40.595Z</time>
      </trkpt>
      <trkpt lat="38.88341167" lon="1.38858">
        <ele>4.0</ele>
        <time>2020-06-22T09:22:41.602Z</time>
      </trkpt>
      <trkpt lat="38.88344667" lon="1.38865167">
        <ele>4.0</ele>
        <time>2020-06-22T09:22:42.626Z</time>
      </trkpt>
      <trkpt lat="38.88344667" lon="1.38865167">
        <ele>4.0</ele>
        <time>2020-06-22T09:22:43.633Z</time>
      </trkpt>
      <trkpt lat="38.88351333" lon="1.3888">
        <ele>4.0</ele>
        <time>2020-06-22T09:22:44.601Z</time>
      </trkpt>
      <trkpt lat="38.88351333" lon="1.3888">
        <ele>4.0</ele>
        <time>2020-06-22T09:22:45.607Z</time>
      </trkpt>
      <trkpt lat="38.88360167" lon="1.38894167">
        <ele>4.0</ele>
        <time>2020-06-22T09:22:46.602Z</time>
      </trkpt>
      <trkpt lat="38.88360167" lon="1.38894167">
        <ele>4.0</ele>
        <time>2020-06-22T09:22:47.608Z</time>
      </trkpt>
      <trkpt lat="38.883685" lon="1.389085">
        <ele>4.0</ele>
        <time>2020-06-22T09:22:48.614Z</time>
      </trkpt>
      <trkpt lat="38.883685" lon="1.389085">
        <ele>4.0</ele>
        <time>2020-06-22T09:22:49.621Z</time>
      </trkpt>
      <trkpt lat="38.88377" lon="1.38923167">
        <ele>4.0</ele>
        <time>2020-06-22T09:22:50.598Z</time>
      </trkpt>
      <trkpt lat="38.88377" lon="1.38923167">
        <ele>4.0</ele>
        <time>2020-06-22T09:22:51.603Z</time>
      </trkpt>
      <trkpt lat="38.88385667" lon="1.38937833">
        <ele>4.0</ele>
        <time>2020-06-22T09:22:52.610Z</time>
      </trkpt>
      <trkpt lat="38.88385667" lon="1.38937833">
        <ele>4.0</ele>
        <time>2020-06-22T09:22:53.614Z</time>
      </trkpt>
      <trkpt lat="38.88394667" lon="1.38952667">
        <ele>4.0</ele>
        <time>2020-06-22T09:22:54.632Z</time>
      </trkpt>
      <trkpt lat="38.88394667" lon="1.38952667">
        <ele>4.0</ele>
        <time>2020-06-22T09:22:55.597Z</time>
      </trkpt>
      <trkpt lat="38.88403333" lon="1.389675">
        <ele>4.0</ele>
        <time>2020-06-22T09:22:56.604Z</time>
      </trkpt>
      <trkpt lat="38.88407833" lon="1.38975">
        <ele>4.0</ele>
        <time>2020-06-22T09:22:57.604Z</time>
      </trkpt>
      <trkpt lat="38.88407833" lon="1.38975">
        <ele>4.0</ele>
        <time>2020-06-22T09:22:58.610Z</time>
      </trkpt>
      <trkpt lat="38.88417" lon="1.3899">
        <ele>3.0</ele>
        <time>2020-06-22T09:22:59.617Z</time>
      </trkpt>
      <trkpt lat="38.88421667" lon="1.38997667">
        <ele>3.0</ele>
        <time>2020-06-22T09:23:00.612Z</time>
      </trkpt>
      <trkpt lat="38.88421667" lon="1.38997667">
        <ele>3.0</ele>
        <time>2020-06-22T09:23:01.627Z</time>
      </trkpt>
      <trkpt lat="38.88431" lon="1.39013">
        <ele>3.0</ele>
        <time>2020-06-22T09:23:02.600Z</time>
      </trkpt>
      <trkpt lat="38.88431" lon="1.39013">
        <ele>3.0</ele>
        <time>2020-06-22T09:23:03.619Z</time>
      </trkpt>
      <trkpt lat="38.88440333" lon="1.390285">
        <ele>3.0</ele>
        <time>2020-06-22T09:23:04.618Z</time>
      </trkpt>
      <trkpt lat="38.88440333" lon="1.390285">
        <ele>3.0</ele>
        <time>2020-06-22T09:23:05.623Z</time>
      </trkpt>
      <trkpt lat="38.88449667" lon="1.39044167">
        <ele>3.0</ele>
        <time>2020-06-22T09:23:06.594Z</time>
      </trkpt>
      <trkpt lat="38.88449667" lon="1.39044167">
        <ele>3.0</ele>
        <time>2020-06-22T09:23:07.600Z</time>
      </trkpt>
      <trkpt lat="38.88459167" lon="1.39060167">
        <ele>2.0</ele>
        <time>2020-06-22T09:23:08.599Z</time>
      </trkpt>
      <trkpt lat="38.88459167" lon="1.39060167">
        <ele>2.0</ele>
        <time>2020-06-22T09:23:09.604Z</time>
      </trkpt>
      <trkpt lat="38.88468833" lon="1.39076167">
        <ele>2.0</ele>
        <time>2020-06-22T09:23:10.610Z</time>
      </trkpt>
      <trkpt lat="38.88468833" lon="1.39076167">
        <ele>2.0</ele>
        <time>2020-06-22T09:23:11.616Z</time>
      </trkpt>
      <trkpt lat="38.88478333" lon="1.39092167">
        <ele>2.0</ele>
        <time>2020-06-22T09:23:12.594Z</time>
      </trkpt>
      <trkpt lat="38.88478333" lon="1.39092167">
        <ele>2.0</ele>
        <time>2020-06-22T09:23:13.599Z</time>
      </trkpt>
      <trkpt lat="38.88487667" lon="1.39107167">
        <ele>3.0</ele>
        <time>2020-06-22T09:23:14.606Z</time>
      </trkpt>
      <trkpt lat="38.88487667" lon="1.39107167">
        <ele>3.0</ele>
        <time>2020-06-22T09:23:15.611Z</time>
      </trkpt>
      <trkpt lat="38.88496667" lon="1.39121833">
        <ele>3.0</ele>
        <time>2020-06-22T09:23:16.598Z</time>
      </trkpt>
      <trkpt lat="38.88496667" lon="1.39121833">
        <ele>3.0</ele>
        <time>2020-06-22T09:23:17.603Z</time>
      </trkpt>
      <trkpt lat="38.88505167" lon="1.39136333">
        <ele>3.0</ele>
        <time>2020-06-22T09:23:18.609Z</time>
      </trkpt>
      <trkpt lat="38.88505167" lon="1.39136333">
        <ele>3.0</ele>
        <time>2020-06-22T09:23:19.614Z</time>
      </trkpt>
      <trkpt lat="38.885135" lon="1.39150833">
        <ele>3.0</ele>
        <time>2020-06-22T09:23:20.626Z</time>
      </trkpt>
      <trkpt lat="38.885135" lon="1.39150833">
        <ele>3.0</ele>
        <time>2020-06-22T09:23:21.633Z</time>
      </trkpt>
      <trkpt lat="38.88521667" lon="1.39165667">
        <ele>3.0</ele>
        <time>2020-06-22T09:23:22.613Z</time>
      </trkpt>
      <trkpt lat="38.88525667" lon="1.39173">
        <ele>3.0</ele>
        <time>2020-06-22T09:23:23.609Z</time>
      </trkpt>
      <trkpt lat="38.88525667" lon="1.39173">
        <ele>3.0</ele>
        <time>2020-06-22T09:23:24.615Z</time>
      </trkpt>
      <trkpt lat="38.88533667" lon="1.39188">
        <ele>2.0</ele>
        <time>2020-06-22T09:23:25.594Z</time>
      </trkpt>
      <trkpt lat="38.88537667" lon="1.39195667">
        <ele>2.0</ele>
        <time>2020-06-22T09:23:26.600Z</time>
      </trkpt>
      <trkpt lat="38.88537667" lon="1.39195667">
        <ele>2.0</ele>
        <time>2020-06-22T09:23:27.607Z</time>
      </trkpt>
      <trkpt lat="38.885455" lon="1.39211167">
        <ele>2.0</ele>
        <time>2020-06-22T09:23:28.627Z</time>
      </trkpt>
      <trkpt lat="38.885455" lon="1.39211167">
        <ele>2.0</ele>
        <time>2020-06-22T09:23:29.633Z</time>
      </trkpt>
      <trkpt lat="38.88552833" lon="1.39227333">
        <ele>2.0</ele>
        <time>2020-06-22T09:23:30.602Z</time>
      </trkpt>
      <trkpt lat="38.88552833" lon="1.39227333">
        <ele>2.0</ele>
        <time>2020-06-22T09:23:31.607Z</time>
      </trkpt>
      <trkpt lat="38.88560167" lon="1.39244333">
        <ele>1.0</ele>
        <time>2020-06-22T09:23:32.613Z</time>
      </trkpt>
      <trkpt lat="38.88560167" lon="1.39244333">
        <ele>1.0</ele>
        <time>2020-06-22T09:23:33.619Z</time>
      </trkpt>
      <trkpt lat="38.88567333" lon="1.39262667">
        <ele>0.0</ele>
        <time>2020-06-22T09:23:34.625Z</time>
      </trkpt>
      <trkpt lat="38.88571" lon="1.39272333">
        <ele>0.0</ele>
        <time>2020-06-22T09:23:35.626Z</time>
      </trkpt>
      <trkpt lat="38.88574667" lon="1.39282333">
        <ele>0.0</ele>
        <time>2020-06-22T09:23:36.596Z</time>
      </trkpt>
      <trkpt lat="38.88574667" lon="1.39282333">
        <ele>0.0</ele>
        <time>2020-06-22T09:23:37.602Z</time>
      </trkpt>
      <trkpt lat="38.88581833" lon="1.39303167">
        <ele>-1.0</ele>
        <time>2020-06-22T09:23:38.619Z</time>
      </trkpt>
      <trkpt lat="38.88581833" lon="1.39303167">
        <ele>-1.0</ele>
        <time>2020-06-22T09:23:39.625Z</time>
      </trkpt>
      <trkpt lat="38.88588333" lon="1.39324833">
        <ele>-2.0</ele>
        <time>2020-06-22T09:23:40.595Z</time>
      </trkpt>
      <trkpt lat="38.885915" lon="1.39335667">
        <ele>-2.0</ele>
        <time>2020-06-22T09:23:41.617Z</time>
      </trkpt>
      <trkpt lat="38.885945" lon="1.39346333">
        <ele>-2.0</ele>
        <time>2020-06-22T09:23:42.622Z</time>
      </trkpt>
      <trkpt lat="38.885945" lon="1.39346333">
        <ele>-2.0</ele>
        <time>2020-06-22T09:23:43.628Z</time>
      </trkpt>
      <trkpt lat="38.886" lon="1.39367167">
        <ele>-2.0</ele>
        <time>2020-06-22T09:23:44.619Z</time>
      </trkpt>
      <trkpt lat="38.886025" lon="1.39377">
        <ele>-2.0</ele>
        <time>2020-06-22T09:23:45.625Z</time>
      </trkpt>
      <trkpt lat="38.886025" lon="1.39377">
        <ele>-2.0</ele>
        <time>2020-06-22T09:23:46.634Z</time>
      </trkpt>
      <trkpt lat="38.88607333" lon="1.39395167">
        <ele>-2.0</ele>
        <time>2020-06-22T09:23:47.597Z</time>
      </trkpt>
      <trkpt lat="38.88607333" lon="1.39395167">
        <ele>-2.0</ele>
        <time>2020-06-22T09:23:48.602Z</time>
      </trkpt>
      <trkpt lat="38.88611833" lon="1.39412667">
        <ele>-1.0</ele>
        <time>2020-06-22T09:23:49.609Z</time>
      </trkpt>
      <trkpt lat="38.88611833" lon="1.39412667">
        <ele>-1.0</ele>
        <time>2020-06-22T09:23:50.621Z</time>
      </trkpt>
      <trkpt lat="38.886155" lon="1.39429333">
        <ele>-1.0</ele>
        <time>2020-06-22T09:23:51.625Z</time>
      </trkpt>
      <trkpt lat="38.886155" lon="1.39429333">
        <ele>-1.0</ele>
        <time>2020-06-22T09:23:52.595Z</time>
      </trkpt>
      <trkpt lat="38.88618167" lon="1.39444833">
        <ele>0.0</ele>
        <time>2020-06-22T09:23:53.602Z</time>
      </trkpt>
      <trkpt lat="38.88619667" lon="1.394525">
        <ele>0.0</ele>
        <time>2020-06-22T09:23:54.631Z</time>
      </trkpt>
      <trkpt lat="38.88619667" lon="1.394525">
        <ele>0.0</ele>
        <time>2020-06-22T09:23:55.596Z</time>
      </trkpt>
      <trkpt lat="38.88622333" lon="1.39467667">
        <ele>1.0</ele>
        <time>2020-06-22T09:23:56.603Z</time>
      </trkpt>
      <trkpt lat="38.88623333" lon="1.39475333">
        <ele>1.0</ele>
        <time>2020-06-22T09:23:57.627Z</time>
      </trkpt>
      <trkpt lat="38.88623833" lon="1.39482833">
        <ele>1.0</ele>
        <time>2020-06-22T09:23:58.616Z</time>
      </trkpt>
      <trkpt lat="38.88623833" lon="1.39482833">
        <ele>1.0</ele>
        <time>2020-06-22T09:23:59.621Z</time>
      </trkpt>
      <trkpt lat="38.88620667" lon="1.39496667">
        <ele>2.0</ele>
        <time>2020-06-22T09:24:00.603Z</time>
      </trkpt>
      <trkpt lat="38.88620667" lon="1.39496667">
        <ele>2.0</ele>
        <time>2020-06-22T09:24:01.609Z</time>
      </trkpt>
      <trkpt lat="38.886095" lon="1.39499333">
        <ele>3.0</ele>
        <time>2020-06-22T09:24:02.606Z</time>
      </trkpt>
      <trkpt lat="38.886095" lon="1.39499333">
        <ele>3.0</ele>
        <time>2020-06-22T09:24:03.611Z</time>
      </trkpt>
      <trkpt lat="38.88596333" lon="1.39495">
        <ele>3.0</ele>
        <time>2020-06-22T09:24:04.617Z</time>
      </trkpt>
      <trkpt lat="38.88589167" lon="1.39492833">
        <ele>2.0</ele>
        <time>2020-06-22T09:24:05.626Z</time>
      </trkpt>
      <trkpt lat="38.88581833" lon="1.394905">
        <ele>2.0</ele>
        <time>2020-06-22T09:24:06.597Z</time>
      </trkpt>
      <trkpt lat="38.88581833" lon="1.394905">
        <ele>2.0</ele>
        <time>2020-06-22T09:24:07.602Z</time>
      </trkpt>
      <trkpt lat="38.88567" lon="1.39485167">
        <ele>2.0</ele>
        <time>2020-06-22T09:24:08.626Z</time>
      </trkpt>
      <trkpt lat="38.88559667" lon="1.394825">
        <ele>2.0</ele>
        <time>2020-06-22T09:24:09.621Z</time>
      </trkpt>
      <trkpt lat="38.88559667" lon="1.394825">
        <ele>2.0</ele>
        <time>2020-06-22T09:24:10.632Z</time>
      </trkpt>
      <trkpt lat="38.88544833" lon="1.39477667">
        <ele>2.0</ele>
        <time>2020-06-22T09:24:11.607Z</time>
      </trkpt>
      <trkpt lat="38.88537333" lon="1.39475167">
        <ele>2.0</ele>
        <time>2020-06-22T09:24:12.597Z</time>
      </trkpt>
      <trkpt lat="38.88537333" lon="1.39475167">
        <ele>2.0</ele>
        <time>2020-06-22T09:24:13.603Z</time>
      </trkpt>
      <trkpt lat="38.88522333" lon="1.3947">
        <ele>1.0</ele>
        <time>2020-06-22T09:24:14.609Z</time>
      </trkpt>
      <trkpt lat="38.88522333" lon="1.3947">
        <ele>1.0</ele>
        <time>2020-06-22T09:24:15.614Z</time>
      </trkpt>
      <trkpt lat="38.88507333" lon="1.39464667">
        <ele>1.0</ele>
        <time>2020-06-22T09:24:16.595Z</time>
      </trkpt>
      <trkpt lat="38.88507333" lon="1.39464667">
        <ele>1.0</ele>
        <time>2020-06-22T09:24:17.601Z</time>
      </trkpt>
      <trkpt lat="38.88492333" lon="1.394595">
        <ele>1.0</ele>
        <time>2020-06-22T09:24:18.611Z</time>
      </trkpt>
      <trkpt lat="38.88492333" lon="1.394595">
        <ele>1.0</ele>
        <time>2020-06-22T09:24:19.606Z</time>
      </trkpt>
      <trkpt lat="38.88477167" lon="1.39454167">
        <ele>1.0</ele>
        <time>2020-06-22T09:24:20.628Z</time>
      </trkpt>
      <trkpt lat="38.88477167" lon="1.39454167">
        <ele>1.0</ele>
        <time>2020-06-22T09:24:21.597Z</time>
      </trkpt>
      <trkpt lat="38.88462167" lon="1.39449">
        <ele>1.0</ele>
        <time>2020-06-22T09:24:22.624Z</time>
      </trkpt>
      <trkpt lat="38.88454667" lon="1.39446333">
        <ele>1.0</ele>
        <time>2020-06-22T09:24:23.606Z</time>
      </trkpt>
      <trkpt lat="38.88447167" lon="1.39443833">
        <ele>1.0</ele>
        <time>2020-06-22T09:24:24.612Z</time>
      </trkpt>
      <trkpt lat="38.88447167" lon="1.39443833">
        <ele>1.0</ele>
        <time>2020-06-22T09:24:25.617Z</time>
      </trkpt>
      <trkpt lat="38.88432333" lon="1.39438667">
        <ele>1.0</ele>
        <time>2020-06-22T09:24:26.603Z</time>
      </trkpt>
      <trkpt lat="38.88425" lon="1.39436">
        <ele>0.0</ele>
        <time>2020-06-22T09:24:27.615Z</time>
      </trkpt>
      <trkpt lat="38.88425" lon="1.39436">
        <ele>0.0</ele>
        <time>2020-06-22T09:24:28.620Z</time>
      </trkpt>
      <trkpt lat="38.88410333" lon="1.39430833">
        <ele>0.0</ele>
        <time>2020-06-22T09:24:29.626Z</time>
      </trkpt>
      <trkpt lat="38.88403" lon="1.39428167">
        <ele>0.0</ele>
        <time>2020-06-22T09:24:30.601Z</time>
      </trkpt>
      <trkpt lat="38.88403" lon="1.39428167">
        <ele>0.0</ele>
        <time>2020-06-22T09:24:31.607Z</time>
      </trkpt>
      <trkpt lat="38.88388167" lon="1.39423">
        <ele>0.0</ele>
        <time>2020-06-22T09:24:32.620Z</time>
      </trkpt>
      <trkpt lat="38.88388167" lon="1.39423">
        <ele>0.0</ele>
        <time>2020-06-22T09:24:33.626Z</time>
      </trkpt>
      <trkpt lat="38.88373667" lon="1.39418">
        <ele>0.0</ele>
        <time>2020-06-22T09:24:34.600Z</time>
      </trkpt>
      <trkpt lat="38.88373667" lon="1.39418">
        <ele>0.0</ele>
        <time>2020-06-22T09:24:35.606Z</time>
      </trkpt>
      <trkpt lat="38.88359" lon="1.39412833">
        <ele>0.0</ele>
        <time>2020-06-22T09:24:36.628Z</time>
      </trkpt>
      <trkpt lat="38.88359" lon="1.39412833">
        <ele>0.0</ele>
        <time>2020-06-22T09:24:37.596Z</time>
      </trkpt>
      <trkpt lat="38.883445" lon="1.39407833">
        <ele>0.0</ele>
        <time>2020-06-22T09:24:38.607Z</time>
      </trkpt>
      <trkpt lat="38.883445" lon="1.39407833">
        <ele>0.0</ele>
        <time>2020-06-22T09:24:39.613Z</time>
      </trkpt>
      <trkpt lat="38.8833" lon="1.394025">
        <ele>-1.0</ele>
        <time>2020-06-22T09:24:40.616Z</time>
      </trkpt>
      <trkpt lat="38.8833" lon="1.394025">
        <ele>-1.0</ele>
        <time>2020-06-22T09:24:41.621Z</time>
      </trkpt>
      <trkpt lat="38.88315667" lon="1.39397333">
        <ele>-1.0</ele>
        <time>2020-06-22T09:24:42.594Z</time>
      </trkpt>
      <trkpt lat="38.88315667" lon="1.39397333">
        <ele>-1.0</ele>
        <time>2020-06-22T09:24:43.615Z</time>
      </trkpt>
      <trkpt lat="38.883015" lon="1.39392167">
        <ele>-1.0</ele>
        <time>2020-06-22T09:24:44.596Z</time>
      </trkpt>
      <trkpt lat="38.883015" lon="1.39392167">
        <ele>-1.0</ele>
        <time>2020-06-22T09:24:45.602Z</time>
      </trkpt>
      <trkpt lat="38.882875" lon="1.39387">
        <ele>-1.0</ele>
        <time>2020-06-22T09:24:46.608Z</time>
      </trkpt>
      <trkpt lat="38.882875" lon="1.39387">
        <ele>-1.0</ele>
        <time>2020-06-22T09:24:47.614Z</time>
      </trkpt>
      <trkpt lat="38.88273167" lon="1.39382167">
        <ele>-1.0</ele>
        <time>2020-06-22T09:24:48.606Z</time>
      </trkpt>
      <trkpt lat="38.88273167" lon="1.39382167">
        <ele>-1.0</ele>
        <time>2020-06-22T09:24:49.611Z</time>
      </trkpt>
      <trkpt lat="38.88258833" lon="1.39377167">
        <ele>-1.0</ele>
        <time>2020-06-22T09:24:50.618Z</time>
      </trkpt>
      <trkpt lat="38.88258833" lon="1.39377167">
        <ele>-1.0</ele>
        <time>2020-06-22T09:24:51.623Z</time>
      </trkpt>
      <trkpt lat="38.88244333" lon="1.39372">
        <ele>-2.0</ele>
        <time>2020-06-22T09:24:52.611Z</time>
      </trkpt>
      <trkpt lat="38.88244333" lon="1.39372">
        <ele>-2.0</ele>
        <time>2020-06-22T09:24:53.616Z</time>
      </trkpt>
      <trkpt lat="38.88229333" lon="1.39366667">
        <ele>-2.0</ele>
        <time>2020-06-22T09:24:54.623Z</time>
      </trkpt>
      <trkpt lat="38.88229333" lon="1.39366667">
        <ele>-2.0</ele>
        <time>2020-06-22T09:24:55.597Z</time>
      </trkpt>
      <trkpt lat="38.882145" lon="1.393615">
        <ele>-2.0</ele>
        <time>2020-06-22T09:24:56.611Z</time>
      </trkpt>
      <trkpt lat="38.88207" lon="1.39359167">
        <ele>-2.0</ele>
        <time>2020-06-22T09:24:57.616Z</time>
      </trkpt>
      <trkpt lat="38.88207" lon="1.39359167">
        <ele>-2.0</ele>
        <time>2020-06-22T09:24:58.622Z</time>
      </trkpt>
      <trkpt lat="38.88192" lon="1.39354167">
        <ele>-2.0</ele>
        <time>2020-06-22T09:24:59.608Z</time>
      </trkpt>
      <trkpt lat="38.881845" lon="1.39351333">
        <ele>-3.0</ele>
        <time>2020-06-22T09:25:00.619Z</time>
      </trkpt>
      <trkpt lat="38.881845" lon="1.39351333">
        <ele>-3.0</ele>
        <time>2020-06-22T09:25:01.624Z</time>
      </trkpt>
      <trkpt lat="38.88169333" lon="1.39346">
        <ele>-3.0</ele>
        <time>2020-06-22T09:25:02.627Z</time>
      </trkpt>
      <trkpt lat="38.88169333" lon="1.39346">
        <ele>-3.0</ele>
        <time>2020-06-22T09:25:03.595Z</time>
      </trkpt>
      <trkpt lat="38.88154167" lon="1.39340667">
        <ele>-3.0</ele>
        <time>2020-06-22T09:25:04.602Z</time>
      </trkpt>
      <trkpt lat="38.88146667" lon="1.39338">
        <ele>-3.0</ele>
        <time>2020-06-22T09:25:05.619Z</time>
      </trkpt>
      <trkpt lat="38.88146667" lon="1.39338">
        <ele>-3.0</ele>
        <time>2020-06-22T09:25:06.625Z</time>
      </trkpt>
      <trkpt lat="38.88131333" lon="1.39332833">
        <ele>-3.0</ele>
        <time>2020-06-22T09:25:07.626Z</time>
      </trkpt>
      <trkpt lat="38.88131333" lon="1.39332833">
        <ele>-3.0</ele>
        <time>2020-06-22T09:25:08.632Z</time>
      </trkpt>
      <trkpt lat="38.88116333" lon="1.393275">
        <ele>-3.0</ele>
        <time>2020-06-22T09:25:09.598Z</time>
      </trkpt>
      <trkpt lat="38.88116333" lon="1.393275">
        <ele>-3.0</ele>
        <time>2020-06-22T09:25:10.604Z</time>
      </trkpt>
      <trkpt lat="38.881015" lon="1.39322167">
        <ele>-3.0</ele>
        <time>2020-06-22T09:25:11.604Z</time>
      </trkpt>
      <trkpt lat="38.88094167" lon="1.393195">
        <ele>-3.0</ele>
        <time>2020-06-22T09:25:12.610Z</time>
      </trkpt>
      <trkpt lat="38.88094167" lon="1.393195">
        <ele>-3.0</ele>
        <time>2020-06-22T09:25:13.615Z</time>
      </trkpt>
      <trkpt lat="38.88079667" lon="1.39314167">
        <ele>-3.0</ele>
        <time>2020-06-22T09:25:14.626Z</time>
      </trkpt>
      <trkpt lat="38.88079667" lon="1.39314167">
        <ele>-3.0</ele>
        <time>2020-06-22T09:25:15.607Z</time>
      </trkpt>
      <trkpt lat="38.88065" lon="1.39309">
        <ele>-3.0</ele>
        <time>2020-06-22T09:25:16.595Z</time>
      </trkpt>
      <trkpt lat="38.88065" lon="1.39309">
        <ele>-3.0</ele>
        <time>2020-06-22T09:25:17.600Z</time>
      </trkpt>
      <trkpt lat="38.88050333" lon="1.39303833">
        <ele>-4.0</ele>
        <time>2020-06-22T09:25:18.616Z</time>
      </trkpt>
      <trkpt lat="38.88050333" lon="1.39303833">
        <ele>-4.0</ele>
        <time>2020-06-22T09:25:19.621Z</time>
      </trkpt>
      <trkpt lat="38.88035333" lon="1.39298333">
        <ele>-4.0</ele>
        <time>2020-06-22T09:25:20.630Z</time>
      </trkpt>
      <trkpt lat="38.88035333" lon="1.39298333">
        <ele>-4.0</ele>
        <time>2020-06-22T09:25:21.597Z</time>
      </trkpt>
      <trkpt lat="38.88020333" lon="1.39293">
        <ele>-4.0</ele>
        <time>2020-06-22T09:25:22.595Z</time>
      </trkpt>
      <trkpt lat="38.88020333" lon="1.39293">
        <ele>-4.0</ele>
        <time>2020-06-22T09:25:23.610Z</time>
      </trkpt>
      <trkpt lat="38.88005333" lon="1.39287833">
        <ele>-4.0</ele>
        <time>2020-06-22T09:25:24.616Z</time>
      </trkpt>
      <trkpt lat="38.88005333" lon="1.39287833">
        <ele>-4.0</ele>
        <time>2020-06-22T09:25:25.621Z</time>
      </trkpt>
      <trkpt lat="38.87990333" lon="1.392825">
        <ele>-4.0</ele>
        <time>2020-06-22T09:25:26.605Z</time>
      </trkpt>
      <trkpt lat="38.87990333" lon="1.392825">
        <ele>-4.0</ele>
        <time>2020-06-22T09:25:27.610Z</time>
      </trkpt>
      <trkpt lat="38.879755" lon="1.39277">
        <ele>-4.0</ele>
        <time>2020-06-22T09:25:28.618Z</time>
      </trkpt>
      <trkpt lat="38.879755" lon="1.39277">
        <ele>-4.0</ele>
        <time>2020-06-22T09:25:29.623Z</time>
      </trkpt>
      <trkpt lat="38.879605" lon="1.39271167">
        <ele>-4.0</ele>
        <time>2020-06-22T09:25:30.602Z</time>
      </trkpt>
      <trkpt lat="38.879605" lon="1.39271167">
        <ele>-4.0</ele>
        <time>2020-06-22T09:25:31.608Z</time>
      </trkpt>
      <trkpt lat="38.87945333" lon="1.39265833">
        <ele>-5.0</ele>
        <time>2020-06-22T09:25:32.614Z</time>
      </trkpt>
      <trkpt lat="38.87945333" lon="1.39265833">
        <ele>-5.0</ele>
        <time>2020-06-22T09:25:33.619Z</time>
      </trkpt>
      <trkpt lat="38.87930167" lon="1.392605">
        <ele>-5.0</ele>
        <time>2020-06-22T09:25:34.601Z</time>
      </trkpt>
      <trkpt lat="38.87930167" lon="1.392605">
        <ele>-5.0</ele>
        <time>2020-06-22T09:25:35.606Z</time>
      </trkpt>
      <trkpt lat="38.87915" lon="1.39255167">
        <ele>-5.0</ele>
        <time>2020-06-22T09:25:36.613Z</time>
      </trkpt>
      <trkpt lat="38.87915" lon="1.39255167">
        <ele>-5.0</ele>
        <time>2020-06-22T09:25:37.618Z</time>
      </trkpt>
      <trkpt lat="38.878995" lon="1.3925">
        <ele>-5.0</ele>
        <time>2020-06-22T09:25:38.601Z</time>
      </trkpt>
      <trkpt lat="38.878995" lon="1.3925">
        <ele>-5.0</ele>
        <time>2020-06-22T09:25:39.606Z</time>
      </trkpt>
      <trkpt lat="38.87884333" lon="1.39244333">
        <ele>-5.0</ele>
        <time>2020-06-22T09:25:40.612Z</time>
      </trkpt>
      <trkpt lat="38.87884333" lon="1.39244333">
        <ele>-5.0</ele>
        <time>2020-06-22T09:25:41.618Z</time>
      </trkpt>
      <trkpt lat="38.87869" lon="1.39239">
        <ele>-5.0</ele>
        <time>2020-06-22T09:25:42.604Z</time>
      </trkpt>
      <trkpt lat="38.87869" lon="1.39239">
        <ele>-5.0</ele>
        <time>2020-06-22T09:25:43.609Z</time>
      </trkpt>
      <trkpt lat="38.87853667" lon="1.39233333">
        <ele>-5.0</ele>
        <time>2020-06-22T09:25:44.623Z</time>
      </trkpt>
      <trkpt lat="38.87853667" lon="1.39233333">
        <ele>-5.0</ele>
        <time>2020-06-22T09:25:45.631Z</time>
      </trkpt>
      <trkpt lat="38.87838167" lon="1.39228167">
        <ele>-5.0</ele>
        <time>2020-06-22T09:25:46.595Z</time>
      </trkpt>
      <trkpt lat="38.87838167" lon="1.39228167">
        <ele>-5.0</ele>
        <time>2020-06-22T09:25:47.600Z</time>
      </trkpt>
      <trkpt lat="38.87823" lon="1.392225">
        <ele>-5.0</ele>
        <time>2020-06-22T09:25:48.608Z</time>
      </trkpt>
      <trkpt lat="38.87823" lon="1.392225">
        <ele>-5.0</ele>
        <time>2020-06-22T09:25:49.616Z</time>
      </trkpt>
      <trkpt lat="38.878075" lon="1.39216833">
        <ele>-5.0</ele>
        <time>2020-06-22T09:25:50.596Z</time>
      </trkpt>
      <trkpt lat="38.87799833" lon="1.39214167">
        <ele>-5.0</ele>
        <time>2020-06-22T09:25:51.605Z</time>
      </trkpt>
      <trkpt lat="38.87799833" lon="1.39214167">
        <ele>-5.0</ele>
        <time>2020-06-22T09:25:52.610Z</time>
      </trkpt>
      <trkpt lat="38.87784333" lon="1.39209">
        <ele>-5.0</ele>
        <time>2020-06-22T09:25:53.626Z</time>
      </trkpt>
      <trkpt lat="38.87776833" lon="1.39206333">
        <ele>-5.0</ele>
        <time>2020-06-22T09:25:54.599Z</time>
      </trkpt>
      <trkpt lat="38.87776833" lon="1.39206333">
        <ele>-5.0</ele>
        <time>2020-06-22T09:25:55.605Z</time>
      </trkpt>
      <trkpt lat="38.87761667" lon="1.39201">
        <ele>-5.0</ele>
        <time>2020-06-22T09:25:56.597Z</time>
      </trkpt>
      <trkpt lat="38.87754167" lon="1.39198333">
        <ele>-5.0</ele>
        <time>2020-06-22T09:25:57.596Z</time>
      </trkpt>
      <trkpt lat="38.87754167" lon="1.39198333">
        <ele>-5.0</ele>
        <time>2020-06-22T09:25:58.605Z</time>
      </trkpt>
      <trkpt lat="38.87739167" lon="1.39192667">
        <ele>-5.0</ele>
        <time>2020-06-22T09:25:59.612Z</time>
      </trkpt>
      <trkpt lat="38.87731667" lon="1.3919">
        <ele>-5.0</ele>
        <time>2020-06-22T09:26:00.620Z</time>
      </trkpt>
      <trkpt lat="38.87731667" lon="1.3919">
        <ele>-5.0</ele>
        <time>2020-06-22T09:26:01.625Z</time>
      </trkpt>
      <trkpt lat="38.877165" lon="1.39184667">
        <ele>-5.0</ele>
        <time>2020-06-22T09:26:02.595Z</time>
      </trkpt>
      <trkpt lat="38.87709" lon="1.39182">
        <ele>-5.0</ele>
        <time>2020-06-22T09:26:03.595Z</time>
      </trkpt>
      <trkpt lat="38.87709" lon="1.39182">
        <ele>-5.0</ele>
        <time>2020-06-22T09:26:04.609Z</time>
      </trkpt>
      <trkpt lat="38.87694" lon="1.391765">
        <ele>-5.0</ele>
        <time>2020-06-22T09:26:05.625Z</time>
      </trkpt>
      <trkpt lat="38.87686667" lon="1.39173833">
        <ele>-5.0</ele>
        <time>2020-06-22T09:26:06.599Z</time>
      </trkpt>
      <trkpt lat="38.87686667" lon="1.39173833">
        <ele>-5.0</ele>
        <time>2020-06-22T09:26:07.604Z</time>
      </trkpt>
      <trkpt lat="38.87671667" lon="1.39168667">
        <ele>-5.0</ele>
        <time>2020-06-22T09:26:08.611Z</time>
      </trkpt>
      <trkpt lat="38.87671667" lon="1.39168667">
        <ele>-5.0</ele>
        <time>2020-06-22T09:26:09.617Z</time>
      </trkpt>
      <trkpt lat="38.87656667" lon="1.39163333">
        <ele>-5.0</ele>
        <time>2020-06-22T09:26:10.604Z</time>
      </trkpt>
      <trkpt lat="38.87649167" lon="1.39160667">
        <ele>-5.0</ele>
        <time>2020-06-22T09:26:11.622Z</time>
      </trkpt>
      <trkpt lat="38.87641667" lon="1.39158">
        <ele>-5.0</ele>
        <time>2020-06-22T09:26:12.618Z</time>
      </trkpt>
      <trkpt lat="38.87641667" lon="1.39158">
        <ele>-5.0</ele>
        <time>2020-06-22T09:26:13.603Z</time>
      </trkpt>
      <trkpt lat="38.87626667" lon="1.39152667">
        <ele>-5.0</ele>
        <time>2020-06-22T09:26:14.633Z</time>
      </trkpt>
      <trkpt lat="38.87626667" lon="1.39152667">
        <ele>-5.0</ele>
        <time>2020-06-22T09:26:15.598Z</time>
      </trkpt>
      <trkpt lat="38.87611667" lon="1.39147333">
        <ele>-6.0</ele>
        <time>2020-06-22T09:26:16.608Z</time>
      </trkpt>
      <trkpt lat="38.87611667" lon="1.39147333">
        <ele>-6.0</ele>
        <time>2020-06-22T09:26:17.613Z</time>
      </trkpt>
      <trkpt lat="38.87596667" lon="1.39142">
        <ele>-6.0</ele>
        <time>2020-06-22T09:26:18.596Z</time>
      </trkpt>
      <trkpt lat="38.87596667" lon="1.39142">
        <ele>-6.0</ele>
        <time>2020-06-22T09:26:19.602Z</time>
      </trkpt>
      <trkpt lat="38.87581833" lon="1.39136833">
        <ele>-6.0</ele>
        <time>2020-06-22T09:26:20.609Z</time>
      </trkpt>
      <trkpt lat="38.87581833" lon="1.39136833">
        <ele>-6.0</ele>
        <time>2020-06-22T09:26:21.614Z</time>
      </trkpt>
      <trkpt lat="38.87566833" lon="1.39131667">
        <ele>-6.0</ele>
        <time>2020-06-22T09:26:22.622Z</time>
      </trkpt>
      <trkpt lat="38.87566833" lon="1.39131667">
        <ele>-6.0</ele>
        <time>2020-06-22T09:26:23.601Z</time>
      </trkpt>
      <trkpt lat="38.87552167" lon="1.39126333">
        <ele>-6.0</ele>
        <time>2020-06-22T09:26:24.612Z</time>
      </trkpt>
      <trkpt lat="38.87552167" lon="1.39126333">
        <ele>-6.0</ele>
        <time>2020-06-22T09:26:25.618Z</time>
      </trkpt>
      <trkpt lat="38.875375" lon="1.39121">
        <ele>-6.0</ele>
        <time>2020-06-22T09:26:26.607Z</time>
      </trkpt>
      <trkpt lat="38.875375" lon="1.39121">
        <ele>-6.0</ele>
        <time>2020-06-22T09:26:27.612Z</time>
      </trkpt>
      <trkpt lat="38.87522667" lon="1.39116">
        <ele>-6.0</ele>
        <time>2020-06-22T09:26:28.619Z</time>
      </trkpt>
      <trkpt lat="38.87522667" lon="1.39116">
        <ele>-6.0</ele>
        <time>2020-06-22T09:26:29.624Z</time>
      </trkpt>
      <trkpt lat="38.87507667" lon="1.39110833">
        <ele>-6.0</ele>
        <time>2020-06-22T09:26:30.627Z</time>
      </trkpt>
      <trkpt lat="38.87500167" lon="1.39108167">
        <ele>-6.0</ele>
        <time>2020-06-22T09:26:31.595Z</time>
      </trkpt>
      <trkpt lat="38.87500167" lon="1.39108167">
        <ele>-6.0</ele>
        <time>2020-06-22T09:26:32.600Z</time>
      </trkpt>
      <trkpt lat="38.87485167" lon="1.39103">
        <ele>-6.0</ele>
        <time>2020-06-22T09:26:33.617Z</time>
      </trkpt>
      <trkpt lat="38.87477667" lon="1.39100333">
        <ele>-6.0</ele>
        <time>2020-06-22T09:26:34.624Z</time>
      </trkpt>
      <trkpt lat="38.87477667" lon="1.39100333">
        <ele>-6.0</ele>
        <time>2020-06-22T09:26:35.596Z</time>
      </trkpt>
      <trkpt lat="38.87462667" lon="1.39095167">
        <ele>-7.0</ele>
        <time>2020-06-22T09:26:36.595Z</time>
      </trkpt>
      <trkpt lat="38.87462667" lon="1.39095167">
        <ele>-7.0</ele>
        <time>2020-06-22T09:26:37.600Z</time>
      </trkpt>
      <trkpt lat="38.874475" lon="1.39090667">
        <ele>-7.0</ele>
        <time>2020-06-22T09:26:38.607Z</time>
      </trkpt>
      <trkpt lat="38.87439833" lon="1.39088333">
        <ele>-7.0</ele>
        <time>2020-06-22T09:26:39.606Z</time>
      </trkpt>
      <trkpt lat="38.87439833" lon="1.39088333">
        <ele>-7.0</ele>
        <time>2020-06-22T09:26:40.611Z</time>
      </trkpt>
      <trkpt lat="38.87424833" lon="1.39083167">
        <ele>-7.0</ele>
        <time>2020-06-22T09:26:41.618Z</time>
      </trkpt>
      <trkpt lat="38.87417333" lon="1.39080333">
        <ele>-7.0</ele>
        <time>2020-06-22T09:26:42.616Z</time>
      </trkpt>
      <trkpt lat="38.87417333" lon="1.39080333">
        <ele>-7.0</ele>
        <time>2020-06-22T09:26:43.621Z</time>
      </trkpt>
      <trkpt lat="38.87402333" lon="1.39074167">
        <ele>-7.0</ele>
        <time>2020-06-22T09:26:44.595Z</time>
      </trkpt>
      <trkpt lat="38.87402333" lon="1.39074167">
        <ele>-7.0</ele>
        <time>2020-06-22T09:26:45.600Z</time>
      </trkpt>
      <trkpt lat="38.87387333" lon="1.39068833">
        <ele>-6.0</ele>
        <time>2020-06-22T09:26:46.616Z</time>
      </trkpt>
      <trkpt lat="38.87379833" lon="1.39065667">
        <ele>-6.0</ele>
        <time>2020-06-22T09:26:47.622Z</time>
      </trkpt>
      <trkpt lat="38.873725" lon="1.39062833">
        <ele>-6.0</ele>
        <time>2020-06-22T09:26:48.628Z</time>
      </trkpt>
      <trkpt lat="38.873725" lon="1.39062833">
        <ele>-6.0</ele>
        <time>2020-06-22T09:26:49.594Z</time>
      </trkpt>
      <trkpt lat="38.87357667" lon="1.39057333">
        <ele>-6.0</ele>
        <time>2020-06-22T09:26:50.598Z</time>
      </trkpt>
      <trkpt lat="38.87357667" lon="1.39057333">
        <ele>-6.0</ele>
        <time>2020-06-22T09:26:51.603Z</time>
      </trkpt>
      <trkpt lat="38.87343" lon="1.39052">
        <ele>-6.0</ele>
        <time>2020-06-22T09:26:52.610Z</time>
      </trkpt>
      <trkpt lat="38.87335667" lon="1.39049333">
        <ele>-6.0</ele>
        <time>2020-06-22T09:26:53.603Z</time>
      </trkpt>
      <trkpt lat="38.87335667" lon="1.39049333">
        <ele>-6.0</ele>
        <time>2020-06-22T09:26:54.608Z</time>
      </trkpt>
      <trkpt lat="38.87321" lon="1.39043833">
        <ele>-6.0</ele>
        <time>2020-06-22T09:26:55.614Z</time>
      </trkpt>
      <trkpt lat="38.87321" lon="1.39043833">
        <ele>-6.0</ele>
        <time>2020-06-22T09:26:56.620Z</time>
      </trkpt>
      <trkpt lat="38.87306167" lon="1.39038167">
        <ele>-6.0</ele>
        <time>2020-06-22T09:26:57.608Z</time>
      </trkpt>
      <trkpt lat="38.87306167" lon="1.39038167">
        <ele>-6.0</ele>
        <time>2020-06-22T09:26:58.613Z</time>
      </trkpt>
      <trkpt lat="38.87291167" lon="1.39033">
        <ele>-6.0</ele>
        <time>2020-06-22T09:26:59.627Z</time>
      </trkpt>
      <trkpt lat="38.87291167" lon="1.39033">
        <ele>-6.0</ele>
        <time>2020-06-22T09:27:00.596Z</time>
      </trkpt>
      <trkpt lat="38.87276333" lon="1.39027667">
        <ele>-6.0</ele>
        <time>2020-06-22T09:27:01.616Z</time>
      </trkpt>
      <trkpt lat="38.87276333" lon="1.39027667">
        <ele>-6.0</ele>
        <time>2020-06-22T09:27:02.622Z</time>
      </trkpt>
      <trkpt lat="38.87261333" lon="1.39022333">
        <ele>-6.0</ele>
        <time>2020-06-22T09:27:03.628Z</time>
      </trkpt>
      <trkpt lat="38.87253833" lon="1.39019833">
        <ele>-6.0</ele>
        <time>2020-06-22T09:27:04.621Z</time>
      </trkpt>
      <trkpt lat="38.87253833" lon="1.39019833">
        <ele>-6.0</ele>
        <time>2020-06-22T09:27:05.626Z</time>
      </trkpt>
      <trkpt lat="38.87238833" lon="1.39014667">
        <ele>-6.0</ele>
        <time>2020-06-22T09:27:06.600Z</time>
      </trkpt>
      <trkpt lat="38.87238833" lon="1.39014667">
        <ele>-6.0</ele>
        <time>2020-06-22T09:27:07.605Z</time>
      </trkpt>
      <trkpt lat="38.87223833" lon="1.39009333">
        <ele>-6.0</ele>
        <time>2020-06-22T09:27:08.606Z</time>
      </trkpt>
      <trkpt lat="38.87223833" lon="1.39009333">
        <ele>-6.0</ele>
        <time>2020-06-22T09:27:09.612Z</time>
      </trkpt>
      <trkpt lat="38.87208833" lon="1.39003833">
        <ele>-6.0</ele>
        <time>2020-06-22T09:27:10.619Z</time>
      </trkpt>
      <trkpt lat="38.87208833" lon="1.39003833">
        <ele>-6.0</ele>
        <time>2020-06-22T09:27:11.625Z</time>
      </trkpt>
      <trkpt lat="38.87193833" lon="1.389985">
        <ele>-7.0</ele>
        <time>2020-06-22T09:27:12.597Z</time>
      </trkpt>
      <trkpt lat="38.87193833" lon="1.389985">
        <ele>-7.0</ele>
        <time>2020-06-22T09:27:13.602Z</time>
      </trkpt>
      <trkpt lat="38.87178833" lon="1.389935">
        <ele>-7.0</ele>
        <time>2020-06-22T09:27:14.609Z</time>
      </trkpt>
      <trkpt lat="38.87178833" lon="1.389935">
        <ele>-7.0</ele>
        <time>2020-06-22T09:27:15.615Z</time>
      </trkpt>
      <trkpt lat="38.87163833" lon="1.38988">
        <ele>-7.0</ele>
        <time>2020-06-22T09:27:16.608Z</time>
      </trkpt>
      <trkpt lat="38.87163833" lon="1.38988">
        <ele>-7.0</ele>
        <time>2020-06-22T09:27:17.613Z</time>
      </trkpt>
      <trkpt lat="38.87149" lon="1.38982667">
        <ele>-7.0</ele>
        <time>2020-06-22T09:27:18.621Z</time>
      </trkpt>
      <trkpt lat="38.87149" lon="1.38982667">
        <ele>-7.0</ele>
        <time>2020-06-22T09:27:19.626Z</time>
      </trkpt>
      <trkpt lat="38.87134" lon="1.38977167">
        <ele>-7.0</ele>
        <time>2020-06-22T09:27:20.614Z</time>
      </trkpt>
      <trkpt lat="38.87134" lon="1.38977167">
        <ele>-7.0</ele>
        <time>2020-06-22T09:27:21.619Z</time>
      </trkpt>
      <trkpt lat="38.87119167" lon="1.38971667">
        <ele>-7.0</ele>
        <time>2020-06-22T09:27:22.627Z</time>
      </trkpt>
      <trkpt lat="38.87111833" lon="1.38969">
        <ele>-7.0</ele>
        <time>2020-06-22T09:27:23.617Z</time>
      </trkpt>
      <trkpt lat="38.87104333" lon="1.38966333">
        <ele>-7.0</ele>
        <time>2020-06-22T09:27:24.623Z</time>
      </trkpt>
      <trkpt lat="38.87104333" lon="1.38966333">
        <ele>-7.0</ele>
        <time>2020-06-22T09:27:25.631Z</time>
      </trkpt>
      <trkpt lat="38.870895" lon="1.38961333">
        <ele>-7.0</ele>
        <time>2020-06-22T09:27:26.631Z</time>
      </trkpt>
      <trkpt lat="38.870895" lon="1.38961333">
        <ele>-7.0</ele>
        <time>2020-06-22T09:27:27.597Z</time>
      </trkpt>
      <trkpt lat="38.87074667" lon="1.38956333">
        <ele>-7.0</ele>
        <time>2020-06-22T09:27:28.603Z</time>
      </trkpt>
      <trkpt lat="38.87074667" lon="1.38956333">
        <ele>-7.0</ele>
        <time>2020-06-22T09:27:29.608Z</time>
      </trkpt>
      <trkpt lat="38.8706" lon="1.38951167">
        <ele>-7.0</ele>
        <time>2020-06-22T09:27:30.614Z</time>
      </trkpt>
      <trkpt lat="38.8706" lon="1.38951167">
        <ele>-7.0</ele>
        <time>2020-06-22T09:27:31.620Z</time>
      </trkpt>
      <trkpt lat="38.870455" lon="1.38945833">
        <ele>-7.0</ele>
        <time>2020-06-22T09:27:32.626Z</time>
      </trkpt>
      <trkpt lat="38.87038167" lon="1.38943333">
        <ele>-7.0</ele>
        <time>2020-06-22T09:27:33.598Z</time>
      </trkpt>
      <trkpt lat="38.87038167" lon="1.38943333">
        <ele>-7.0</ele>
        <time>2020-06-22T09:27:34.603Z</time>
      </trkpt>
      <trkpt lat="38.870235" lon="1.38938167">
        <ele>-7.0</ele>
        <time>2020-06-22T09:27:35.616Z</time>
      </trkpt>
      <trkpt lat="38.87016167" lon="1.389355">
        <ele>-7.0</ele>
        <time>2020-06-22T09:27:36.598Z</time>
      </trkpt>
      <trkpt lat="38.87016167" lon="1.389355">
        <ele>-7.0</ele>
        <time>2020-06-22T09:27:37.604Z</time>
      </trkpt>
      <trkpt lat="38.870015" lon="1.389305">
        <ele>-7.0</ele>
        <time>2020-06-22T09:27:38.610Z</time>
      </trkpt>
      <trkpt lat="38.86994" lon="1.38927833">
        <ele>-7.0</ele>
        <time>2020-06-22T09:27:39.617Z</time>
      </trkpt>
      <trkpt lat="38.86994" lon="1.38927833">
        <ele>-7.0</ele>
        <time>2020-06-22T09:27:40.626Z</time>
      </trkpt>
      <trkpt lat="38.86979167" lon="1.38922333">
        <ele>-7.0</ele>
        <time>2020-06-22T09:27:41.612Z</time>
      </trkpt>
      <trkpt lat="38.86971667" lon="1.3892">
        <ele>-7.0</ele>
        <time>2020-06-22T09:27:42.625Z</time>
      </trkpt>
      <trkpt lat="38.86971667" lon="1.3892">
        <ele>-7.0</ele>
        <time>2020-06-22T09:27:43.633Z</time>
      </trkpt>
      <trkpt lat="38.86956833" lon="1.389155">
        <ele>-7.0</ele>
        <time>2020-06-22T09:27:44.626Z</time>
      </trkpt>
      <trkpt lat="38.86956833" lon="1.389155">
        <ele>-7.0</ele>
        <time>2020-06-22T09:27:45.594Z</time>
      </trkpt>
      <trkpt lat="38.86941667" lon="1.389125">
        <ele>-7.0</ele>
        <time>2020-06-22T09:27:46.603Z</time>
      </trkpt>
      <trkpt lat="38.86941667" lon="1.389125">
        <ele>-7.0</ele>
        <time>2020-06-22T09:27:47.610Z</time>
      </trkpt>
      <trkpt lat="38.86926333" lon="1.38910833">
        <ele>-7.0</ele>
        <time>2020-06-22T09:27:48.594Z</time>
      </trkpt>
      <trkpt lat="38.86926333" lon="1.38910833">
        <ele>-7.0</ele>
        <time>2020-06-22T09:27:49.599Z</time>
      </trkpt>
      <trkpt lat="38.86911167" lon="1.389105">
        <ele>-7.0</ele>
        <time>2020-06-22T09:27:50.609Z</time>
      </trkpt>
      <trkpt lat="38.86911167" lon="1.389105">
        <ele>-7.0</ele>
        <time>2020-06-22T09:27:51.614Z</time>
      </trkpt>
      <trkpt lat="38.86896" lon="1.38911667">
        <ele>-7.0</ele>
        <time>2020-06-22T09:27:52.598Z</time>
      </trkpt>
      <trkpt lat="38.86888167" lon="1.38912833">
        <ele>-7.0</ele>
        <time>2020-06-22T09:27:53.607Z</time>
      </trkpt>
      <trkpt lat="38.86888167" lon="1.38912833">
        <ele>-7.0</ele>
        <time>2020-06-22T09:27:54.612Z</time>
      </trkpt>
      <trkpt lat="38.86873" lon="1.38915333">
        <ele>-7.0</ele>
        <time>2020-06-22T09:27:55.601Z</time>
      </trkpt>
      <trkpt lat="38.86873" lon="1.38915333">
        <ele>-7.0</ele>
        <time>2020-06-22T09:27:56.606Z</time>
      </trkpt>
      <trkpt lat="38.86858" lon="1.38917833">
        <ele>-7.0</ele>
        <time>2020-06-22T09:27:57.613Z</time>
      </trkpt>
      <trkpt lat="38.868505" lon="1.38919167">
        <ele>-7.0</ele>
        <time>2020-06-22T09:27:58.598Z</time>
      </trkpt>
      <trkpt lat="38.868505" lon="1.38919167">
        <ele>-7.0</ele>
        <time>2020-06-22T09:27:59.603Z</time>
      </trkpt>
      <trkpt lat="38.86835667" lon="1.38921833">
        <ele>-7.0</ele>
        <time>2020-06-22T09:28:00.612Z</time>
      </trkpt>
      <trkpt lat="38.86835667" lon="1.38921833">
        <ele>-7.0</ele>
        <time>2020-06-22T09:28:01.619Z</time>
      </trkpt>
      <trkpt lat="38.868205" lon="1.389245">
        <ele>-7.0</ele>
        <time>2020-06-22T09:28:02.626Z</time>
      </trkpt>
      <trkpt lat="38.868205" lon="1.389245">
        <ele>-7.0</ele>
        <time>2020-06-22T09:28:03.632Z</time>
      </trkpt>
      <trkpt lat="38.868055" lon="1.38927">
        <ele>-7.0</ele>
        <time>2020-06-22T09:28:04.599Z</time>
      </trkpt>
      <trkpt lat="38.868055" lon="1.38927">
        <ele>-7.0</ele>
        <time>2020-06-22T09:28:05.606Z</time>
      </trkpt>
      <trkpt lat="38.86790667" lon="1.389295">
        <ele>-7.0</ele>
        <time>2020-06-22T09:28:06.626Z</time>
      </trkpt>
      <trkpt lat="38.86783167" lon="1.38930833">
        <ele>-7.0</ele>
        <time>2020-06-22T09:28:07.597Z</time>
      </trkpt>
      <trkpt lat="38.86783167" lon="1.38930833">
        <ele>-7.0</ele>
        <time>2020-06-22T09:28:08.603Z</time>
      </trkpt>
      <trkpt lat="38.86768167" lon="1.38933333">
        <ele>-7.0</ele>
        <time>2020-06-22T09:28:09.611Z</time>
      </trkpt>
      <trkpt lat="38.86768167" lon="1.38933333">
        <ele>-7.0</ele>
        <time>2020-06-22T09:28:10.616Z</time>
      </trkpt>
      <trkpt lat="38.86753167" lon="1.38936">
        <ele>-7.0</ele>
        <time>2020-06-22T09:28:11.598Z</time>
      </trkpt>
      <trkpt lat="38.867455" lon="1.38937167">
        <ele>-7.0</ele>
        <time>2020-06-22T09:28:12.604Z</time>
      </trkpt>
      <trkpt lat="38.867455" lon="1.38937167">
        <ele>-7.0</ele>
        <time>2020-06-22T09:28:13.610Z</time>
      </trkpt>
      <trkpt lat="38.867305" lon="1.38939333">
        <ele>-7.0</ele>
        <time>2020-06-22T09:28:14.607Z</time>
      </trkpt>
      <trkpt lat="38.86722833" lon="1.38940333">
        <ele>-7.0</ele>
        <time>2020-06-22T09:28:15.613Z</time>
      </trkpt>
      <trkpt lat="38.86722833" lon="1.38940333">
        <ele>-7.0</ele>
        <time>2020-06-22T09:28:16.618Z</time>
      </trkpt>
      <trkpt lat="38.86707667" lon="1.38941833">
        <ele>-7.0</ele>
        <time>2020-06-22T09:28:17.598Z</time>
      </trkpt>
      <trkpt lat="38.86700167" lon="1.38942333">
        <ele>-7.0</ele>
        <time>2020-06-22T09:28:18.604Z</time>
      </trkpt>
      <trkpt lat="38.86700167" lon="1.38942333">
        <ele>-7.0</ele>
        <time>2020-06-22T09:28:19.609Z</time>
      </trkpt>
      <trkpt lat="38.86685167" lon="1.38942">
        <ele>-7.0</ele>
        <time>2020-06-22T09:28:20.597Z</time>
      </trkpt>
      <trkpt lat="38.86677833" lon="1.389415">
        <ele>-7.0</ele>
        <time>2020-06-22T09:28:21.602Z</time>
      </trkpt>
      <trkpt lat="38.86677833" lon="1.389415">
        <ele>-7.0</ele>
        <time>2020-06-22T09:28:22.628Z</time>
      </trkpt>
      <trkpt lat="38.86663167" lon="1.38939167">
        <ele>-7.0</ele>
        <time>2020-06-22T09:28:23.611Z</time>
      </trkpt>
      <trkpt lat="38.86655833" lon="1.38937667">
        <ele>-7.0</ele>
        <time>2020-06-22T09:28:24.617Z</time>
      </trkpt>
      <trkpt lat="38.86655833" lon="1.38937667">
        <ele>-7.0</ele>
        <time>2020-06-22T09:28:25.622Z</time>
      </trkpt>
      <trkpt lat="38.86641333" lon="1.389345">
        <ele>-7.0</ele>
        <time>2020-06-22T09:28:26.596Z</time>
      </trkpt>
      <trkpt lat="38.86634167" lon="1.38933">
        <ele>-7.0</ele>
        <time>2020-06-22T09:28:27.632Z</time>
      </trkpt>
      <trkpt lat="38.86634167" lon="1.38933">
        <ele>-7.0</ele>
        <time>2020-06-22T09:28:28.597Z</time>
      </trkpt>
      <trkpt lat="38.866195" lon="1.38930167">
        <ele>-7.0</ele>
        <time>2020-06-22T09:28:29.606Z</time>
      </trkpt>
      <trkpt lat="38.866195" lon="1.38930167">
        <ele>-7.0</ele>
        <time>2020-06-22T09:28:30.611Z</time>
      </trkpt>
      <trkpt lat="38.86605" lon="1.38927">
        <ele>-7.0</ele>
        <time>2020-06-22T09:28:31.611Z</time>
      </trkpt>
      <trkpt lat="38.86597833" lon="1.38925167">
        <ele>-7.0</ele>
        <time>2020-06-22T09:28:32.628Z</time>
      </trkpt>
      <trkpt lat="38.86597833" lon="1.38925167">
        <ele>-7.0</ele>
        <time>2020-06-22T09:28:33.596Z</time>
      </trkpt>
      <trkpt lat="38.86583" lon="1.38922167">
        <ele>-7.0</ele>
        <time>2020-06-22T09:28:34.606Z</time>
      </trkpt>
      <trkpt lat="38.86575667" lon="1.38920667">
        <ele>-7.0</ele>
        <time>2020-06-22T09:28:35.611Z</time>
      </trkpt>
      <trkpt lat="38.86575667" lon="1.38920667">
        <ele>-7.0</ele>
        <time>2020-06-22T09:28:36.617Z</time>
      </trkpt>
      <trkpt lat="38.86560667" lon="1.38917833">
        <ele>-7.0</ele>
        <time>2020-06-22T09:28:37.594Z</time>
      </trkpt>
      <trkpt lat="38.86560667" lon="1.38917833">
        <ele>-7.0</ele>
        <time>2020-06-22T09:28:38.599Z</time>
      </trkpt>
      <trkpt lat="38.86545667" lon="1.38914333">
        <ele>-7.0</ele>
        <time>2020-06-22T09:28:39.606Z</time>
      </trkpt>
      <trkpt lat="38.86545667" lon="1.38914333">
        <ele>-7.0</ele>
        <time>2020-06-22T09:28:40.611Z</time>
      </trkpt>
      <trkpt lat="38.865305" lon="1.38911">
        <ele>-7.0</ele>
        <time>2020-06-22T09:28:41.602Z</time>
      </trkpt>
      <trkpt lat="38.86523" lon="1.389095">
        <ele>-7.0</ele>
        <time>2020-06-22T09:28:42.609Z</time>
      </trkpt>
      <trkpt lat="38.86523" lon="1.389095">
        <ele>-7.0</ele>
        <time>2020-06-22T09:28:43.595Z</time>
      </trkpt>
      <trkpt lat="38.86508167" lon="1.389065">
        <ele>-6.0</ele>
        <time>2020-06-22T09:28:44.610Z</time>
      </trkpt>
      <trkpt lat="38.86508167" lon="1.389065">
        <ele>-6.0</ele>
        <time>2020-06-22T09:28:45.615Z</time>
      </trkpt>
      <trkpt lat="38.86493333" lon="1.38903167">
        <ele>-7.0</ele>
        <time>2020-06-22T09:28:46.624Z</time>
      </trkpt>
      <trkpt lat="38.86493333" lon="1.38903167">
        <ele>-7.0</ele>
        <time>2020-06-22T09:28:47.595Z</time>
      </trkpt>
      <trkpt lat="38.864785" lon="1.38899833">
        <ele>-7.0</ele>
        <time>2020-06-22T09:28:48.626Z</time>
      </trkpt>
      <trkpt lat="38.864785" lon="1.38899833">
        <ele>-7.0</ele>
        <time>2020-06-22T09:28:49.595Z</time>
      </trkpt>
      <trkpt lat="38.864635" lon="1.38896167">
        <ele>-7.0</ele>
        <time>2020-06-22T09:28:50.602Z</time>
      </trkpt>
      <trkpt lat="38.864635" lon="1.38896167">
        <ele>-7.0</ele>
        <time>2020-06-22T09:28:51.608Z</time>
      </trkpt>
      <trkpt lat="38.864485" lon="1.38891833">
        <ele>-7.0</ele>
        <time>2020-06-22T09:28:52.601Z</time>
      </trkpt>
      <trkpt lat="38.864485" lon="1.38891833">
        <ele>-7.0</ele>
        <time>2020-06-22T09:28:53.606Z</time>
      </trkpt>
      <trkpt lat="38.86434" lon="1.38886667">
        <ele>-7.0</ele>
        <time>2020-06-22T09:28:54.612Z</time>
      </trkpt>
      <trkpt lat="38.86434" lon="1.38886667">
        <ele>-7.0</ele>
        <time>2020-06-22T09:28:55.617Z</time>
      </trkpt>
      <trkpt lat="38.864195" lon="1.38881667">
        <ele>-7.0</ele>
        <time>2020-06-22T09:28:56.609Z</time>
      </trkpt>
      <trkpt lat="38.864195" lon="1.38881667">
        <ele>-7.0</ele>
        <time>2020-06-22T09:28:57.614Z</time>
      </trkpt>
      <trkpt lat="38.86405" lon="1.38876167">
        <ele>-7.0</ele>
        <time>2020-06-22T09:28:58.621Z</time>
      </trkpt>
      <trkpt lat="38.86405" lon="1.38876167">
        <ele>-7.0</ele>
        <time>2020-06-22T09:28:59.626Z</time>
      </trkpt>
      <trkpt lat="38.86390667" lon="1.38870833">
        <ele>-7.0</ele>
        <time>2020-06-22T09:29:00.625Z</time>
      </trkpt>
      <trkpt lat="38.86390667" lon="1.38870833">
        <ele>-7.0</ele>
        <time>2020-06-22T09:29:01.598Z</time>
      </trkpt>
      <trkpt lat="38.86376167" lon="1.38865333">
        <ele>-7.0</ele>
        <time>2020-06-22T09:29:02.605Z</time>
      </trkpt>
      <trkpt lat="38.86376167" lon="1.38865333">
        <ele>-7.0</ele>
        <time>2020-06-22T09:29:03.620Z</time>
      </trkpt>
      <trkpt lat="38.86361667" lon="1.38860167">
        <ele>-7.0</ele>
        <time>2020-06-22T09:29:04.618Z</time>
      </trkpt>
      <trkpt lat="38.86361667" lon="1.38860167">
        <ele>-7.0</ele>
        <time>2020-06-22T09:29:05.623Z</time>
      </trkpt>
      <trkpt lat="38.86347333" lon="1.38854667">
        <ele>-7.0</ele>
        <time>2020-06-22T09:29:06.596Z</time>
      </trkpt>
      <trkpt lat="38.86347333" lon="1.38854667">
        <ele>-7.0</ele>
        <time>2020-06-22T09:29:07.604Z</time>
      </trkpt>
      <trkpt lat="38.86333167" lon="1.38849333">
        <ele>-7.0</ele>
        <time>2020-06-22T09:29:08.605Z</time>
      </trkpt>
      <trkpt lat="38.86333167" lon="1.38849333">
        <ele>-7.0</ele>
        <time>2020-06-22T09:29:09.611Z</time>
      </trkpt>
      <trkpt lat="38.86318833" lon="1.38843833">
        <ele>-8.0</ele>
        <time>2020-06-22T09:29:10.621Z</time>
      </trkpt>
      <trkpt lat="38.86318833" lon="1.38843833">
        <ele>-8.0</ele>
        <time>2020-06-22T09:29:11.626Z</time>
      </trkpt>
      <trkpt lat="38.863045" lon="1.38838667">
        <ele>-8.0</ele>
        <time>2020-06-22T09:29:12.610Z</time>
      </trkpt>
      <trkpt lat="38.863045" lon="1.38838667">
        <ele>-8.0</ele>
        <time>2020-06-22T09:29:13.616Z</time>
      </trkpt>
      <trkpt lat="38.86289833" lon="1.38833333">
        <ele>-8.0</ele>
        <time>2020-06-22T09:29:14.624Z</time>
      </trkpt>
      <trkpt lat="38.86289833" lon="1.38833333">
        <ele>-8.0</ele>
        <time>2020-06-22T09:29:15.631Z</time>
      </trkpt>
      <trkpt lat="38.86275333" lon="1.38827833">
        <ele>-8.0</ele>
        <time>2020-06-22T09:29:16.601Z</time>
      </trkpt>
      <trkpt lat="38.86275333" lon="1.38827833">
        <ele>-8.0</ele>
        <time>2020-06-22T09:29:17.607Z</time>
      </trkpt>
      <trkpt lat="38.86260833" lon="1.38822333">
        <ele>-8.0</ele>
        <time>2020-06-22T09:29:18.613Z</time>
      </trkpt>
      <trkpt lat="38.86260833" lon="1.38822333">
        <ele>-8.0</ele>
        <time>2020-06-22T09:29:19.618Z</time>
      </trkpt>
      <trkpt lat="38.86246167" lon="1.38816833">
        <ele>-8.0</ele>
        <time>2020-06-22T09:29:20.611Z</time>
      </trkpt>
      <trkpt lat="38.86246167" lon="1.38816833">
        <ele>-8.0</ele>
        <time>2020-06-22T09:29:21.616Z</time>
      </trkpt>
      <trkpt lat="38.86231667" lon="1.38811333">
        <ele>-8.0</ele>
        <time>2020-06-22T09:29:22.614Z</time>
      </trkpt>
      <trkpt lat="38.862245" lon="1.38808667">
        <ele>-8.0</ele>
        <time>2020-06-22T09:29:23.596Z</time>
      </trkpt>
      <trkpt lat="38.86217167" lon="1.38805833">
        <ele>-8.0</ele>
        <time>2020-06-22T09:29:24.602Z</time>
      </trkpt>
      <trkpt lat="38.86217167" lon="1.38805833">
        <ele>-8.0</ele>
        <time>2020-06-22T09:29:25.608Z</time>
      </trkpt>
      <trkpt lat="38.862025" lon="1.388005">
        <ele>-8.0</ele>
        <time>2020-06-22T09:29:26.615Z</time>
      </trkpt>
      <trkpt lat="38.86195333" lon="1.387975">
        <ele>-8.0</ele>
        <time>2020-06-22T09:29:27.622Z</time>
      </trkpt>
      <trkpt lat="38.86188167" lon="1.387945">
        <ele>-8.0</ele>
        <time>2020-06-22T09:29:28.594Z</time>
      </trkpt>
      <trkpt lat="38.86188167" lon="1.387945">
        <ele>-8.0</ele>
        <time>2020-06-22T09:29:29.599Z</time>
      </trkpt>
      <trkpt lat="38.86174167" lon="1.38788333">
        <ele>-7.0</ele>
        <time>2020-06-22T09:29:30.608Z</time>
      </trkpt>
      <trkpt lat="38.86174167" lon="1.38788333">
        <ele>-7.0</ele>
        <time>2020-06-22T09:29:31.613Z</time>
      </trkpt>
      <trkpt lat="38.86160333" lon="1.38781833">
        <ele>-8.0</ele>
        <time>2020-06-22T09:29:32.632Z</time>
      </trkpt>
      <trkpt lat="38.86160333" lon="1.38781833">
        <ele>-8.0</ele>
        <time>2020-06-22T09:29:33.598Z</time>
      </trkpt>
      <trkpt lat="38.86147" lon="1.38774667">
        <ele>-7.0</ele>
        <time>2020-06-22T09:29:34.609Z</time>
      </trkpt>
      <trkpt lat="38.86147" lon="1.38774667">
        <ele>-7.0</ele>
        <time>2020-06-22T09:29:35.614Z</time>
      </trkpt>
      <trkpt lat="38.86133833" lon="1.38767167">
        <ele>-7.0</ele>
        <time>2020-06-22T09:29:36.627Z</time>
      </trkpt>
      <trkpt lat="38.86133833" lon="1.38767167">
        <ele>-7.0</ele>
        <time>2020-06-22T09:29:37.632Z</time>
      </trkpt>
      <trkpt lat="38.86120667" lon="1.38759833">
        <ele>-7.0</ele>
        <time>2020-06-22T09:29:38.600Z</time>
      </trkpt>
      <trkpt lat="38.86120667" lon="1.38759833">
        <ele>-7.0</ele>
        <time>2020-06-22T09:29:39.606Z</time>
      </trkpt>
      <trkpt lat="38.86107667" lon="1.38752167">
        <ele>-7.0</ele>
        <time>2020-06-22T09:29:40.596Z</time>
      </trkpt>
      <trkpt lat="38.86107667" lon="1.38752167">
        <ele>-7.0</ele>
        <time>2020-06-22T09:29:41.615Z</time>
      </trkpt>
      <trkpt lat="38.86095" lon="1.38744167">
        <ele>-7.0</ele>
        <time>2020-06-22T09:29:42.623Z</time>
      </trkpt>
      <trkpt lat="38.86095" lon="1.38744167">
        <ele>-7.0</ele>
        <time>2020-06-22T09:29:43.628Z</time>
      </trkpt>
      <trkpt lat="38.860825" lon="1.387365">
        <ele>-7.0</ele>
        <time>2020-06-22T09:29:44.612Z</time>
      </trkpt>
      <trkpt lat="38.860825" lon="1.387365">
        <ele>-7.0</ele>
        <time>2020-06-22T09:29:45.618Z</time>
      </trkpt>
      <trkpt lat="38.86070333" lon="1.38728">
        <ele>-7.0</ele>
        <time>2020-06-22T09:29:46.624Z</time>
      </trkpt>
      <trkpt lat="38.86070333" lon="1.38728">
        <ele>-7.0</ele>
        <time>2020-06-22T09:29:47.598Z</time>
      </trkpt>
      <trkpt lat="38.86058" lon="1.3872">
        <ele>-7.0</ele>
        <time>2020-06-22T09:29:48.630Z</time>
      </trkpt>
      <trkpt lat="38.86058" lon="1.3872">
        <ele>-7.0</ele>
        <time>2020-06-22T09:29:49.597Z</time>
      </trkpt>
      <trkpt lat="38.860455" lon="1.38712167">
        <ele>-7.0</ele>
        <time>2020-06-22T09:29:50.606Z</time>
      </trkpt>
      <trkpt lat="38.86039333" lon="1.38708">
        <ele>-7.0</ele>
        <time>2020-06-22T09:29:51.610Z</time>
      </trkpt>
      <trkpt lat="38.86039333" lon="1.38708">
        <ele>-7.0</ele>
        <time>2020-06-22T09:29:52.616Z</time>
      </trkpt>
      <trkpt lat="38.86026667" lon="1.38699833">
        <ele>-7.0</ele>
        <time>2020-06-22T09:29:53.628Z</time>
      </trkpt>
      <trkpt lat="38.86020333" lon="1.386955">
        <ele>-7.0</ele>
        <time>2020-06-22T09:29:54.617Z</time>
      </trkpt>
      <trkpt lat="38.86020333" lon="1.386955">
        <ele>-7.0</ele>
        <time>2020-06-22T09:29:55.622Z</time>
      </trkpt>
      <trkpt lat="38.86008" lon="1.386875">
        <ele>-7.0</ele>
        <time>2020-06-22T09:29:56.628Z</time>
      </trkpt>
      <trkpt lat="38.86008" lon="1.386875">
        <ele>-7.0</ele>
        <time>2020-06-22T09:29:57.596Z</time>
      </trkpt>
      <trkpt lat="38.859955" lon="1.38680333">
        <ele>-7.0</ele>
        <time>2020-06-22T09:29:58.626Z</time>
      </trkpt>
      <trkpt lat="38.859955" lon="1.38680333">
        <ele>-7.0</ele>
        <time>2020-06-22T09:29:59.595Z</time>
      </trkpt>
      <trkpt lat="38.85983167" lon="1.38672167">
        <ele>-6.0</ele>
        <time>2020-06-22T09:30:00.606Z</time>
      </trkpt>
      <trkpt lat="38.85983167" lon="1.38672167">
        <ele>-6.0</ele>
        <time>2020-06-22T09:30:01.611Z</time>
      </trkpt>
      <trkpt lat="38.85970167" lon="1.38664333">
        <ele>-6.0</ele>
        <time>2020-06-22T09:30:02.606Z</time>
      </trkpt>
      <trkpt lat="38.85970167" lon="1.38664333">
        <ele>-6.0</ele>
        <time>2020-06-22T09:30:03.612Z</time>
      </trkpt>
      <trkpt lat="38.85957833" lon="1.38656">
        <ele>-6.0</ele>
        <time>2020-06-22T09:30:04.618Z</time>
      </trkpt>
      <trkpt lat="38.85957833" lon="1.38656">
        <ele>-6.0</ele>
        <time>2020-06-22T09:30:05.623Z</time>
      </trkpt>
      <trkpt lat="38.85945333" lon="1.38648333">
        <ele>-6.0</ele>
        <time>2020-06-22T09:30:06.595Z</time>
      </trkpt>
      <trkpt lat="38.85945333" lon="1.38648333">
        <ele>-6.0</ele>
        <time>2020-06-22T09:30:07.601Z</time>
      </trkpt>
      <trkpt lat="38.85933167" lon="1.38641167">
        <ele>-5.0</ele>
        <time>2020-06-22T09:30:08.608Z</time>
      </trkpt>
      <trkpt lat="38.85927" lon="1.38637333">
        <ele>-5.0</ele>
        <time>2020-06-22T09:30:09.614Z</time>
      </trkpt>
      <trkpt lat="38.85927" lon="1.38637333">
        <ele>-5.0</ele>
        <time>2020-06-22T09:30:10.619Z</time>
      </trkpt>
      <trkpt lat="38.85915" lon="1.38629667">
        <ele>-5.0</ele>
        <time>2020-06-22T09:30:11.612Z</time>
      </trkpt>
      <trkpt lat="38.85908833" lon="1.38625833">
        <ele>-5.0</ele>
        <time>2020-06-22T09:30:12.618Z</time>
      </trkpt>
      <trkpt lat="38.85908833" lon="1.38625833">
        <ele>-5.0</ele>
        <time>2020-06-22T09:30:13.623Z</time>
      </trkpt>
      <trkpt lat="38.85896333" lon="1.38618667">
        <ele>-5.0</ele>
        <time>2020-06-22T09:30:14.617Z</time>
      </trkpt>
      <trkpt lat="38.85896333" lon="1.38618667">
        <ele>-5.0</ele>
        <time>2020-06-22T09:30:15.622Z</time>
      </trkpt>
      <trkpt lat="38.858835" lon="1.38612333">
        <ele>-5.0</ele>
        <time>2020-06-22T09:30:16.628Z</time>
      </trkpt>
      <trkpt lat="38.858835" lon="1.38612333">
        <ele>-5.0</ele>
        <time>2020-06-22T09:30:17.596Z</time>
      </trkpt>
      <trkpt lat="38.85870167" lon="1.386075">
        <ele>-5.0</ele>
        <time>2020-06-22T09:30:18.614Z</time>
      </trkpt>
      <trkpt lat="38.85870167" lon="1.386075">
        <ele>-5.0</ele>
        <time>2020-06-22T09:30:19.619Z</time>
      </trkpt>
      <trkpt lat="38.85856833" lon="1.38603333">
        <ele>-5.0</ele>
        <time>2020-06-22T09:30:20.626Z</time>
      </trkpt>
      <trkpt lat="38.85856833" lon="1.38603333">
        <ele>-5.0</ele>
        <time>2020-06-22T09:30:21.596Z</time>
      </trkpt>
      <trkpt lat="38.85843167" lon="1.38600333">
        <ele>-5.0</ele>
        <time>2020-06-22T09:30:22.633Z</time>
      </trkpt>
      <trkpt lat="38.85836667" lon="1.38598833">
        <ele>-5.0</ele>
        <time>2020-06-22T09:30:23.607Z</time>
      </trkpt>
      <trkpt lat="38.85836667" lon="1.38598833">
        <ele>-5.0</ele>
        <time>2020-06-22T09:30:24.612Z</time>
      </trkpt>
      <trkpt lat="38.858235" lon="1.38596667">
        <ele>-4.0</ele>
        <time>2020-06-22T09:30:25.619Z</time>
      </trkpt>
      <trkpt lat="38.85816667" lon="1.38595833">
        <ele>-5.0</ele>
        <time>2020-06-22T09:30:26.608Z</time>
      </trkpt>
      <trkpt lat="38.85816667" lon="1.38595833">
        <ele>-5.0</ele>
        <time>2020-06-22T09:30:27.614Z</time>
      </trkpt>
      <trkpt lat="38.85802833" lon="1.38594333">
        <ele>-5.0</ele>
        <time>2020-06-22T09:30:28.620Z</time>
      </trkpt>
      <trkpt lat="38.85795667" lon="1.38593667">
        <ele>-5.0</ele>
        <time>2020-06-22T09:30:29.604Z</time>
      </trkpt>
      <trkpt lat="38.85795667" lon="1.38593667">
        <ele>-5.0</ele>
        <time>2020-06-22T09:30:30.610Z</time>
      </trkpt>
      <trkpt lat="38.85781" lon="1.38593">
        <ele>-5.0</ele>
        <time>2020-06-22T09:30:31.620Z</time>
      </trkpt>
      <trkpt lat="38.85773667" lon="1.38592833">
        <ele>-5.0</ele>
        <time>2020-06-22T09:30:32.626Z</time>
      </trkpt>
      <trkpt lat="38.85766333" lon="1.385925">
        <ele>-5.0</ele>
        <time>2020-06-22T09:30:33.632Z</time>
      </trkpt>
      <trkpt lat="38.85759" lon="1.385925">
        <ele>-5.0</ele>
        <time>2020-06-22T09:30:34.598Z</time>
      </trkpt>
      <trkpt lat="38.85759" lon="1.385925">
        <ele>-5.0</ele>
        <time>2020-06-22T09:30:35.603Z</time>
      </trkpt>
      <trkpt lat="38.85744667" lon="1.38592833">
        <ele>-5.0</ele>
        <time>2020-06-22T09:30:36.607Z</time>
      </trkpt>
      <trkpt lat="38.85744667" lon="1.38592833">
        <ele>-5.0</ele>
        <time>2020-06-22T09:30:37.612Z</time>
      </trkpt>
      <trkpt lat="38.857305" lon="1.38594833">
        <ele>-5.0</ele>
        <time>2020-06-22T09:30:38.619Z</time>
      </trkpt>
      <trkpt lat="38.857305" lon="1.38594833">
        <ele>-5.0</ele>
        <time>2020-06-22T09:30:39.624Z</time>
      </trkpt>
      <trkpt lat="38.85717" lon="1.38598333">
        <ele>-5.0</ele>
        <time>2020-06-22T09:30:40.608Z</time>
      </trkpt>
      <trkpt lat="38.85717" lon="1.38598333">
        <ele>-5.0</ele>
        <time>2020-06-22T09:30:41.613Z</time>
      </trkpt>
      <trkpt lat="38.85703833" lon="1.38603667">
        <ele>-5.0</ele>
        <time>2020-06-22T09:30:42.619Z</time>
      </trkpt>
      <trkpt lat="38.85703833" lon="1.38603667">
        <ele>-5.0</ele>
        <time>2020-06-22T09:30:43.617Z</time>
      </trkpt>
      <trkpt lat="38.85691167" lon="1.38610167">
        <ele>-5.0</ele>
        <time>2020-06-22T09:30:44.598Z</time>
      </trkpt>
      <trkpt lat="38.85691167" lon="1.38610167">
        <ele>-5.0</ele>
        <time>2020-06-22T09:30:45.605Z</time>
      </trkpt>
      <trkpt lat="38.85678833" lon="1.38617833">
        <ele>-4.0</ele>
        <time>2020-06-22T09:30:46.612Z</time>
      </trkpt>
      <trkpt lat="38.85672667" lon="1.38622">
        <ele>-4.0</ele>
        <time>2020-06-22T09:30:47.614Z</time>
      </trkpt>
      <trkpt lat="38.856665" lon="1.38626167">
        <ele>-4.0</ele>
        <time>2020-06-22T09:30:48.619Z</time>
      </trkpt>
      <trkpt lat="38.856665" lon="1.38626167">
        <ele>-4.0</ele>
        <time>2020-06-22T09:30:49.625Z</time>
      </trkpt>
      <trkpt lat="38.85654167" lon="1.38634333">
        <ele>-4.0</ele>
        <time>2020-06-22T09:30:50.606Z</time>
      </trkpt>
      <trkpt lat="38.85654167" lon="1.38634333">
        <ele>-4.0</ele>
        <time>2020-06-22T09:30:51.614Z</time>
      </trkpt>
      <trkpt lat="38.85641833" lon="1.38642833">
        <ele>-4.0</ele>
        <time>2020-06-22T09:30:52.621Z</time>
      </trkpt>
      <trkpt lat="38.85635667" lon="1.38646833">
        <ele>-4.0</ele>
        <time>2020-06-22T09:30:53.607Z</time>
      </trkpt>
      <trkpt lat="38.85629333" lon="1.38651167">
        <ele>-4.0</ele>
        <time>2020-06-22T09:30:54.612Z</time>
      </trkpt>
      <trkpt lat="38.85629333" lon="1.38651167">
        <ele>-4.0</ele>
        <time>2020-06-22T09:30:55.618Z</time>
      </trkpt>
      <trkpt lat="38.85617" lon="1.38659667">
        <ele>-4.0</ele>
        <time>2020-06-22T09:30:56.628Z</time>
      </trkpt>
      <trkpt lat="38.85610833" lon="1.38663833">
        <ele>-4.0</ele>
        <time>2020-06-22T09:30:57.599Z</time>
      </trkpt>
      <trkpt lat="38.85610833" lon="1.38663833">
        <ele>-4.0</ele>
        <time>2020-06-22T09:30:58.611Z</time>
      </trkpt>
      <trkpt lat="38.85598333" lon="1.38672333">
        <ele>-4.0</ele>
        <time>2020-06-22T09:30:59.619Z</time>
      </trkpt>
      <trkpt lat="38.85592" lon="1.38676333">
        <ele>-3.0</ele>
        <time>2020-06-22T09:31:00.596Z</time>
      </trkpt>
      <trkpt lat="38.85592" lon="1.38676333">
        <ele>-3.0</ele>
        <time>2020-06-22T09:31:01.619Z</time>
      </trkpt>
      <trkpt lat="38.85579667" lon="1.38684667">
        <ele>-3.0</ele>
        <time>2020-06-22T09:31:02.610Z</time>
      </trkpt>
      <trkpt lat="38.85579667" lon="1.38684667">
        <ele>-3.0</ele>
        <time>2020-06-22T09:31:03.615Z</time>
      </trkpt>
      <trkpt lat="38.85567333" lon="1.38693333">
        <ele>-3.0</ele>
        <time>2020-06-22T09:31:04.630Z</time>
      </trkpt>
      <trkpt lat="38.85567333" lon="1.38693333">
        <ele>-3.0</ele>
        <time>2020-06-22T09:31:05.597Z</time>
      </trkpt>
      <trkpt lat="38.85555" lon="1.38701833">
        <ele>-3.0</ele>
        <time>2020-06-22T09:31:06.594Z</time>
      </trkpt>
      <trkpt lat="38.85555" lon="1.38701833">
        <ele>-3.0</ele>
        <time>2020-06-22T09:31:07.600Z</time>
      </trkpt>
      <trkpt lat="38.85542333" lon="1.38710167">
        <ele>-3.0</ele>
        <time>2020-06-22T09:31:08.608Z</time>
      </trkpt>
      <trkpt lat="38.85535833" lon="1.387145">
        <ele>-3.0</ele>
        <time>2020-06-22T09:31:09.613Z</time>
      </trkpt>
      <trkpt lat="38.85535833" lon="1.387145">
        <ele>-3.0</ele>
        <time>2020-06-22T09:31:10.620Z</time>
      </trkpt>
      <trkpt lat="38.85523333" lon="1.38723">
        <ele>-3.0</ele>
        <time>2020-06-22T09:31:11.616Z</time>
      </trkpt>
      <trkpt lat="38.85516833" lon="1.38727">
        <ele>-3.0</ele>
        <time>2020-06-22T09:31:12.621Z</time>
      </trkpt>
      <trkpt lat="38.85516833" lon="1.38727">
        <ele>-3.0</ele>
        <time>2020-06-22T09:31:13.626Z</time>
      </trkpt>
      <trkpt lat="38.85504167" lon="1.38735">
        <ele>-3.0</ele>
        <time>2020-06-22T09:31:14.613Z</time>
      </trkpt>
      <trkpt lat="38.85498167" lon="1.38739167">
        <ele>-3.0</ele>
        <time>2020-06-22T09:31:15.618Z</time>
      </trkpt>
      <trkpt lat="38.85498167" lon="1.38739167">
        <ele>-3.0</ele>
        <time>2020-06-22T09:31:16.624Z</time>
      </trkpt>
      <trkpt lat="38.85485667" lon="1.38747833">
        <ele>-4.0</ele>
        <time>2020-06-22T09:31:17.617Z</time>
      </trkpt>
      <trkpt lat="38.85479333" lon="1.38752">
        <ele>-4.0</ele>
        <time>2020-06-22T09:31:18.623Z</time>
      </trkpt>
      <trkpt lat="38.85479333" lon="1.38752">
        <ele>-4.0</ele>
        <time>2020-06-22T09:31:19.628Z</time>
      </trkpt>
      <trkpt lat="38.85466333" lon="1.38760833">
        <ele>-4.0</ele>
        <time>2020-06-22T09:31:20.627Z</time>
      </trkpt>
      <trkpt lat="38.85459833" lon="1.38765167">
        <ele>-4.0</ele>
        <time>2020-06-22T09:31:21.633Z</time>
      </trkpt>
      <trkpt lat="38.85459833" lon="1.38765167">
        <ele>-4.0</ele>
        <time>2020-06-22T09:31:22.594Z</time>
      </trkpt>
      <trkpt lat="38.85446667" lon="1.38774">
        <ele>-4.0</ele>
        <time>2020-06-22T09:31:23.603Z</time>
      </trkpt>
      <trkpt lat="38.85440167" lon="1.38778333">
        <ele>-4.0</ele>
        <time>2020-06-22T09:31:24.624Z</time>
      </trkpt>
      <trkpt lat="38.85440167" lon="1.38778333">
        <ele>-4.0</ele>
        <time>2020-06-22T09:31:25.634Z</time>
      </trkpt>
      <trkpt lat="38.85427333" lon="1.38787333">
        <ele>-4.0</ele>
        <time>2020-06-22T09:31:26.602Z</time>
      </trkpt>
      <trkpt lat="38.85420833" lon="1.38791833">
        <ele>-4.0</ele>
        <time>2020-06-22T09:31:27.608Z</time>
      </trkpt>
      <trkpt lat="38.85414333" lon="1.38796333">
        <ele>-4.0</ele>
        <time>2020-06-22T09:31:28.614Z</time>
      </trkpt>
      <trkpt lat="38.85414333" lon="1.38796333">
        <ele>-4.0</ele>
        <time>2020-06-22T09:31:29.619Z</time>
      </trkpt>
      <trkpt lat="38.85401" lon="1.38805333">
        <ele>-4.0</ele>
        <time>2020-06-22T09:31:30.625Z</time>
      </trkpt>
      <trkpt lat="38.85401" lon="1.38805333">
        <ele>-4.0</ele>
        <time>2020-06-22T09:31:31.597Z</time>
      </trkpt>
      <trkpt lat="38.853875" lon="1.38814333">
        <ele>-4.0</ele>
        <time>2020-06-22T09:31:32.627Z</time>
      </trkpt>
      <trkpt lat="38.853875" lon="1.38814333">
        <ele>-4.0</ele>
        <time>2020-06-22T09:31:33.597Z</time>
      </trkpt>
      <trkpt lat="38.85374167" lon="1.38823667">
        <ele>-5.0</ele>
        <time>2020-06-22T09:31:34.602Z</time>
      </trkpt>
      <trkpt lat="38.85367333" lon="1.388285">
        <ele>-5.0</ele>
        <time>2020-06-22T09:31:35.631Z</time>
      </trkpt>
      <trkpt lat="38.85360833" lon="1.38833333">
        <ele>-5.0</ele>
        <time>2020-06-22T09:31:36.605Z</time>
      </trkpt>
      <trkpt lat="38.85360833" lon="1.38833333">
        <ele>-5.0</ele>
        <time>2020-06-22T09:31:37.611Z</time>
      </trkpt>
      <trkpt lat="38.853475" lon="1.38843667">
        <ele>-5.0</ele>
        <time>2020-06-22T09:31:38.618Z</time>
      </trkpt>
      <trkpt lat="38.85340833" lon="1.388485">
        <ele>-5.0</ele>
        <time>2020-06-22T09:31:39.606Z</time>
      </trkpt>
      <trkpt lat="38.85340833" lon="1.388485">
        <ele>-5.0</ele>
        <time>2020-06-22T09:31:40.622Z</time>
      </trkpt>
      <trkpt lat="38.85326667" lon="1.38857">
        <ele>-5.0</ele>
        <time>2020-06-22T09:31:41.628Z</time>
      </trkpt>
      <trkpt lat="38.853195" lon="1.38861">
        <ele>-5.0</ele>
        <time>2020-06-22T09:31:42.628Z</time>
      </trkpt>
      <trkpt lat="38.853195" lon="1.38861">
        <ele>-5.0</ele>
        <time>2020-06-22T09:31:43.594Z</time>
      </trkpt>
      <trkpt lat="38.85305667" lon="1.38869667">
        <ele>-5.0</ele>
        <time>2020-06-22T09:31:44.607Z</time>
      </trkpt>
      <trkpt lat="38.85299" lon="1.38874167">
        <ele>-5.0</ele>
        <time>2020-06-22T09:31:45.629Z</time>
      </trkpt>
      <trkpt lat="38.85292333" lon="1.38878667">
        <ele>-5.0</ele>
        <time>2020-06-22T09:31:46.616Z</time>
      </trkpt>
      <trkpt lat="38.85292333" lon="1.38878667">
        <ele>-5.0</ele>
        <time>2020-06-22T09:31:47.621Z</time>
      </trkpt>
      <trkpt lat="38.85279" lon="1.388875">
        <ele>-5.0</ele>
        <time>2020-06-22T09:31:48.628Z</time>
      </trkpt>
      <trkpt lat="38.85279" lon="1.388875">
        <ele>-5.0</ele>
        <time>2020-06-22T09:31:49.594Z</time>
      </trkpt>
      <trkpt lat="38.85265667" lon="1.388965">
        <ele>-5.0</ele>
        <time>2020-06-22T09:31:50.596Z</time>
      </trkpt>
      <trkpt lat="38.85265667" lon="1.388965">
        <ele>-5.0</ele>
        <time>2020-06-22T09:31:51.601Z</time>
      </trkpt>
      <trkpt lat="38.85252" lon="1.389055">
        <ele>-5.0</ele>
        <time>2020-06-22T09:31:52.607Z</time>
      </trkpt>
      <trkpt lat="38.85252" lon="1.389055">
        <ele>-5.0</ele>
        <time>2020-06-22T09:31:53.618Z</time>
      </trkpt>
      <trkpt lat="38.85238333" lon="1.38914">
        <ele>-6.0</ele>
        <time>2020-06-22T09:31:54.594Z</time>
      </trkpt>
      <trkpt lat="38.85238333" lon="1.38914">
        <ele>-6.0</ele>
        <time>2020-06-22T09:31:55.599Z</time>
      </trkpt>
      <trkpt lat="38.85224833" lon="1.38922167">
        <ele>-6.0</ele>
        <time>2020-06-22T09:31:56.607Z</time>
      </trkpt>
      <trkpt lat="38.85224833" lon="1.38922167">
        <ele>-6.0</ele>
        <time>2020-06-22T09:31:57.612Z</time>
      </trkpt>
      <trkpt lat="38.85211667" lon="1.38930167">
        <ele>-6.0</ele>
        <time>2020-06-22T09:31:58.603Z</time>
      </trkpt>
      <trkpt lat="38.85211667" lon="1.38930167">
        <ele>-6.0</ele>
        <time>2020-06-22T09:31:59.608Z</time>
      </trkpt>
      <trkpt lat="38.85198167" lon="1.38937167">
        <ele>-6.0</ele>
        <time>2020-06-22T09:32:00.617Z</time>
      </trkpt>
      <trkpt lat="38.85198167" lon="1.38937167">
        <ele>-6.0</ele>
        <time>2020-06-22T09:32:01.622Z</time>
      </trkpt>
      <trkpt lat="38.85184" lon="1.389425">
        <ele>-6.0</ele>
        <time>2020-06-22T09:32:02.627Z</time>
      </trkpt>
      <trkpt lat="38.85184" lon="1.389425">
        <ele>-6.0</ele>
        <time>2020-06-22T09:32:03.632Z</time>
      </trkpt>
      <trkpt lat="38.85169167" lon="1.38943">
        <ele>-6.0</ele>
        <time>2020-06-22T09:32:04.600Z</time>
      </trkpt>
      <trkpt lat="38.85169167" lon="1.38943">
        <ele>-6.0</ele>
        <time>2020-06-22T09:32:05.608Z</time>
      </trkpt>
      <trkpt lat="38.85155167" lon="1.38936833">
        <ele>-6.0</ele>
        <time>2020-06-22T09:32:06.606Z</time>
      </trkpt>
      <trkpt lat="38.85155167" lon="1.38936833">
        <ele>-6.0</ele>
        <time>2020-06-22T09:32:07.611Z</time>
      </trkpt>
      <trkpt lat="38.85141333" lon="1.38929833">
        <ele>-7.0</ele>
        <time>2020-06-22T09:32:08.619Z</time>
      </trkpt>
      <trkpt lat="38.85134333" lon="1.389265">
        <ele>-7.0</ele>
        <time>2020-06-22T09:32:09.625Z</time>
      </trkpt>
      <trkpt lat="38.85127333" lon="1.38923">
        <ele>-6.0</ele>
        <time>2020-06-22T09:32:10.631Z</time>
      </trkpt>
      <trkpt lat="38.85127333" lon="1.38923">
        <ele>-6.0</ele>
        <time>2020-06-22T09:32:11.598Z</time>
      </trkpt>
      <trkpt lat="38.851135" lon="1.38915833">
        <ele>-6.0</ele>
        <time>2020-06-22T09:32:12.605Z</time>
      </trkpt>
      <trkpt lat="38.851135" lon="1.38915833">
        <ele>-6.0</ele>
        <time>2020-06-22T09:32:13.610Z</time>
      </trkpt>
      <trkpt lat="38.850995" lon="1.38909">
        <ele>-6.0</ele>
        <time>2020-06-22T09:32:14.606Z</time>
      </trkpt>
      <trkpt lat="38.850995" lon="1.38909">
        <ele>-6.0</ele>
        <time>2020-06-22T09:32:15.612Z</time>
      </trkpt>
      <trkpt lat="38.850855" lon="1.38902333">
        <ele>-6.0</ele>
        <time>2020-06-22T09:32:16.618Z</time>
      </trkpt>
      <trkpt lat="38.850855" lon="1.38902333">
        <ele>-6.0</ele>
        <time>2020-06-22T09:32:17.623Z</time>
      </trkpt>
      <trkpt lat="38.85071333" lon="1.38896">
        <ele>-6.0</ele>
        <time>2020-06-22T09:32:18.622Z</time>
      </trkpt>
      <trkpt lat="38.85071333" lon="1.38896">
        <ele>-6.0</ele>
        <time>2020-06-22T09:32:19.627Z</time>
      </trkpt>
      <trkpt lat="38.85057" lon="1.38890167">
        <ele>-6.0</ele>
        <time>2020-06-22T09:32:20.601Z</time>
      </trkpt>
      <trkpt lat="38.85049833" lon="1.38887667">
        <ele>-6.0</ele>
        <time>2020-06-22T09:32:21.628Z</time>
      </trkpt>
      <trkpt lat="38.85049833" lon="1.38887667">
        <ele>-6.0</ele>
        <time>2020-06-22T09:32:22.598Z</time>
      </trkpt>
      <trkpt lat="38.85035333" lon="1.38883">
        <ele>-6.0</ele>
        <time>2020-06-22T09:32:23.628Z</time>
      </trkpt>
      <trkpt lat="38.85028167" lon="1.38880833">
        <ele>-6.0</ele>
        <time>2020-06-22T09:32:24.601Z</time>
      </trkpt>
      <trkpt lat="38.85028167" lon="1.38880833">
        <ele>-6.0</ele>
        <time>2020-06-22T09:32:25.606Z</time>
      </trkpt>
      <trkpt lat="38.85013833" lon="1.388765">
        <ele>-6.0</ele>
        <time>2020-06-22T09:32:26.631Z</time>
      </trkpt>
      <trkpt lat="38.85006667" lon="1.38874333">
        <ele>-6.0</ele>
        <time>2020-06-22T09:32:27.633Z</time>
      </trkpt>
      <trkpt lat="38.85006667" lon="1.38874333">
        <ele>-6.0</ele>
        <time>2020-06-22T09:32:28.598Z</time>
      </trkpt>
      <trkpt lat="38.84992167" lon="1.38869667">
        <ele>-6.0</ele>
        <time>2020-06-22T09:32:29.605Z</time>
      </trkpt>
      <trkpt lat="38.84992167" lon="1.38869667">
        <ele>-6.0</ele>
        <time>2020-06-22T09:32:30.610Z</time>
      </trkpt>
      <trkpt lat="38.84977833" lon="1.388655">
        <ele>-6.0</ele>
        <time>2020-06-22T09:32:31.627Z</time>
      </trkpt>
      <trkpt lat="38.84977833" lon="1.388655">
        <ele>-6.0</ele>
        <time>2020-06-22T09:32:32.632Z</time>
      </trkpt>
      <trkpt lat="38.84963333" lon="1.38861667">
        <ele>-6.0</ele>
        <time>2020-06-22T09:32:33.608Z</time>
      </trkpt>
      <trkpt lat="38.84956" lon="1.38859833">
        <ele>-6.0</ele>
        <time>2020-06-22T09:32:34.606Z</time>
      </trkpt>
      <trkpt lat="38.84948667" lon="1.38858167">
        <ele>-6.0</ele>
        <time>2020-06-22T09:32:35.612Z</time>
      </trkpt>
      <trkpt lat="38.84948667" lon="1.38858167">
        <ele>-6.0</ele>
        <time>2020-06-22T09:32:36.617Z</time>
      </trkpt>
      <trkpt lat="38.84934" lon="1.38856333">
        <ele>-6.0</ele>
        <time>2020-06-22T09:32:37.616Z</time>
      </trkpt>
      <trkpt lat="38.84934" lon="1.38856333">
        <ele>-6.0</ele>
        <time>2020-06-22T09:32:38.621Z</time>
      </trkpt>
      <trkpt lat="38.84919167" lon="1.38856167">
        <ele>-6.0</ele>
        <time>2020-06-22T09:32:39.628Z</time>
      </trkpt>
      <trkpt lat="38.84919167" lon="1.38856167">
        <ele>-6.0</ele>
        <time>2020-06-22T09:32:40.600Z</time>
      </trkpt>
      <trkpt lat="38.84904333" lon="1.388565">
        <ele>-6.0</ele>
        <time>2020-06-22T09:32:41.606Z</time>
      </trkpt>
      <trkpt lat="38.84896833" lon="1.38857167">
        <ele>-7.0</ele>
        <time>2020-06-22T09:32:42.625Z</time>
      </trkpt>
      <trkpt lat="38.84896833" lon="1.38857167">
        <ele>-7.0</ele>
        <time>2020-06-22T09:32:43.598Z</time>
      </trkpt>
      <trkpt lat="38.84881667" lon="1.38858667">
        <ele>-7.0</ele>
        <time>2020-06-22T09:32:44.617Z</time>
      </trkpt>
      <trkpt lat="38.84874167" lon="1.388595">
        <ele>-7.0</ele>
        <time>2020-06-22T09:32:45.623Z</time>
      </trkpt>
      <trkpt lat="38.84874167" lon="1.388595">
        <ele>-7.0</ele>
        <time>2020-06-22T09:32:46.629Z</time>
      </trkpt>
      <trkpt lat="38.84859167" lon="1.388615">
        <ele>-7.0</ele>
        <time>2020-06-22T09:32:47.604Z</time>
      </trkpt>
      <trkpt lat="38.84851667" lon="1.388625">
        <ele>-7.0</ele>
        <time>2020-06-22T09:32:48.610Z</time>
      </trkpt>
      <trkpt lat="38.84851667" lon="1.388625">
        <ele>-7.0</ele>
        <time>2020-06-22T09:32:49.616Z</time>
      </trkpt>
      <trkpt lat="38.84836667" lon="1.38864333">
        <ele>-7.0</ele>
        <time>2020-06-22T09:32:50.596Z</time>
      </trkpt>
      <trkpt lat="38.84836667" lon="1.38864333">
        <ele>-7.0</ele>
        <time>2020-06-22T09:32:51.612Z</time>
      </trkpt>
      <trkpt lat="38.848215" lon="1.38866167">
        <ele>-7.0</ele>
        <time>2020-06-22T09:32:52.627Z</time>
      </trkpt>
      <trkpt lat="38.848215" lon="1.38866167">
        <ele>-7.0</ele>
        <time>2020-06-22T09:32:53.632Z</time>
      </trkpt>
      <trkpt lat="38.84806667" lon="1.38867833">
        <ele>-7.0</ele>
        <time>2020-06-22T09:32:54.607Z</time>
      </trkpt>
      <trkpt lat="38.84806667" lon="1.38867833">
        <ele>-7.0</ele>
        <time>2020-06-22T09:32:55.612Z</time>
      </trkpt>
      <trkpt lat="38.84791667" lon="1.388695">
        <ele>-7.0</ele>
        <time>2020-06-22T09:32:56.619Z</time>
      </trkpt>
      <trkpt lat="38.84791667" lon="1.388695">
        <ele>-7.0</ele>
        <time>2020-06-22T09:32:57.624Z</time>
      </trkpt>
      <trkpt lat="38.84776833" lon="1.38870667">
        <ele>-7.0</ele>
        <time>2020-06-22T09:32:58.631Z</time>
      </trkpt>
      <trkpt lat="38.84769333" lon="1.38871">
        <ele>-7.0</ele>
        <time>2020-06-22T09:32:59.600Z</time>
      </trkpt>
      <trkpt lat="38.84769333" lon="1.38871">
        <ele>-7.0</ele>
        <time>2020-06-22T09:33:00.605Z</time>
      </trkpt>
      <trkpt lat="38.84754333" lon="1.38870667">
        <ele>-7.0</ele>
        <time>2020-06-22T09:33:01.596Z</time>
      </trkpt>
      <trkpt lat="38.84754333" lon="1.38870667">
        <ele>-7.0</ele>
        <time>2020-06-22T09:33:02.597Z</time>
      </trkpt>
      <trkpt lat="38.84739167" lon="1.38867833">
        <ele>-8.0</ele>
        <time>2020-06-22T09:33:03.608Z</time>
      </trkpt>
      <trkpt lat="38.84739167" lon="1.38867833">
        <ele>-8.0</ele>
        <time>2020-06-22T09:33:04.613Z</time>
      </trkpt>
      <trkpt lat="38.84724167" lon="1.38863667">
        <ele>-8.0</ele>
        <time>2020-06-22T09:33:05.600Z</time>
      </trkpt>
      <trkpt lat="38.84716667" lon="1.38861333">
        <ele>-8.0</ele>
        <time>2020-06-22T09:33:06.619Z</time>
      </trkpt>
      <trkpt lat="38.84716667" lon="1.38861333">
        <ele>-8.0</ele>
        <time>2020-06-22T09:33:07.626Z</time>
      </trkpt>
      <trkpt lat="38.84702167" lon="1.38856">
        <ele>-8.0</ele>
        <time>2020-06-22T09:33:08.596Z</time>
      </trkpt>
      <trkpt lat="38.84702167" lon="1.38856">
        <ele>-8.0</ele>
        <time>2020-06-22T09:33:09.601Z</time>
      </trkpt>
      <trkpt lat="38.84687667" lon="1.38850667">
        <ele>-8.0</ele>
        <time>2020-06-22T09:33:10.633Z</time>
      </trkpt>
      <trkpt lat="38.84680333" lon="1.38848">
        <ele>-8.0</ele>
        <time>2020-06-22T09:33:11.620Z</time>
      </trkpt>
      <trkpt lat="38.84673167" lon="1.38845167">
        <ele>-8.0</ele>
        <time>2020-06-22T09:33:12.632Z</time>
      </trkpt>
      <trkpt lat="38.84673167" lon="1.38845167">
        <ele>-8.0</ele>
        <time>2020-06-22T09:33:13.597Z</time>
      </trkpt>
      <trkpt lat="38.84658667" lon="1.38839667">
        <ele>-8.0</ele>
        <time>2020-06-22T09:33:14.606Z</time>
      </trkpt>
      <trkpt lat="38.84658667" lon="1.38839667">
        <ele>-8.0</ele>
        <time>2020-06-22T09:33:15.611Z</time>
      </trkpt>
      <trkpt lat="38.84643833" lon="1.38834333">
        <ele>-8.0</ele>
        <time>2020-06-22T09:33:16.604Z</time>
      </trkpt>
      <trkpt lat="38.84643833" lon="1.38834333">
        <ele>-8.0</ele>
        <time>2020-06-22T09:33:17.609Z</time>
      </trkpt>
      <trkpt lat="38.84628833" lon="1.38828667">
        <ele>-8.0</ele>
        <time>2020-06-22T09:33:18.616Z</time>
      </trkpt>
      <trkpt lat="38.84628833" lon="1.38828667">
        <ele>-8.0</ele>
        <time>2020-06-22T09:33:19.621Z</time>
      </trkpt>
      <trkpt lat="38.84613667" lon="1.38823">
        <ele>-8.0</ele>
        <time>2020-06-22T09:33:20.613Z</time>
      </trkpt>
      <trkpt lat="38.84613667" lon="1.38823">
        <ele>-8.0</ele>
        <time>2020-06-22T09:33:21.618Z</time>
      </trkpt>
      <trkpt lat="38.84598833" lon="1.388175">
        <ele>-8.0</ele>
        <time>2020-06-22T09:33:22.606Z</time>
      </trkpt>
      <trkpt lat="38.84598833" lon="1.388175">
        <ele>-8.0</ele>
        <time>2020-06-22T09:33:23.619Z</time>
      </trkpt>
      <trkpt lat="38.84584" lon="1.38812333">
        <ele>-8.0</ele>
        <time>2020-06-22T09:33:24.625Z</time>
      </trkpt>
      <trkpt lat="38.84584" lon="1.38812333">
        <ele>-8.0</ele>
        <time>2020-06-22T09:33:25.597Z</time>
      </trkpt>
      <trkpt lat="38.84569333" lon="1.38807">
        <ele>-8.0</ele>
        <time>2020-06-22T09:33:26.617Z</time>
      </trkpt>
      <trkpt lat="38.84562333" lon="1.388045">
        <ele>-8.0</ele>
        <time>2020-06-22T09:33:27.625Z</time>
      </trkpt>
      <trkpt lat="38.84562333" lon="1.388045">
        <ele>-8.0</ele>
        <time>2020-06-22T09:33:28.596Z</time>
      </trkpt>
      <trkpt lat="38.84547833" lon="1.38799167">
        <ele>-9.0</ele>
        <time>2020-06-22T09:33:29.623Z</time>
      </trkpt>
      <trkpt lat="38.84547833" lon="1.38799167">
        <ele>-9.0</ele>
        <time>2020-06-22T09:33:30.628Z</time>
      </trkpt>
      <trkpt lat="38.84533333" lon="1.38794">
        <ele>-8.0</ele>
        <time>2020-06-22T09:33:31.596Z</time>
      </trkpt>
      <trkpt lat="38.84533333" lon="1.38794">
        <ele>-8.0</ele>
        <time>2020-06-22T09:33:32.605Z</time>
      </trkpt>
      <trkpt lat="38.84519" lon="1.38788">
        <ele>-8.0</ele>
        <time>2020-06-22T09:33:33.631Z</time>
      </trkpt>
      <trkpt lat="38.84519" lon="1.38788">
        <ele>-8.0</ele>
        <time>2020-06-22T09:33:34.598Z</time>
      </trkpt>
      <trkpt lat="38.84504333" lon="1.38782">
        <ele>-8.0</ele>
        <time>2020-06-22T09:33:35.608Z</time>
      </trkpt>
      <trkpt lat="38.84504333" lon="1.38782">
        <ele>-8.0</ele>
        <time>2020-06-22T09:33:36.614Z</time>
      </trkpt>
      <trkpt lat="38.8449" lon="1.38776167">
        <ele>-8.0</ele>
        <time>2020-06-22T09:33:37.616Z</time>
      </trkpt>
      <trkpt lat="38.8449" lon="1.38776167">
        <ele>-8.0</ele>
        <time>2020-06-22T09:33:38.622Z</time>
      </trkpt>
      <trkpt lat="38.84476167" lon="1.38770167">
        <ele>-8.0</ele>
        <time>2020-06-22T09:33:39.628Z</time>
      </trkpt>
      <trkpt lat="38.84476167" lon="1.38770167">
        <ele>-8.0</ele>
        <time>2020-06-22T09:33:40.633Z</time>
      </trkpt>
      <trkpt lat="38.844635" lon="1.38762">
        <ele>-7.0</ele>
        <time>2020-06-22T09:33:41.631Z</time>
      </trkpt>
      <trkpt lat="38.84459667" lon="1.38755333">
        <ele>-6.0</ele>
        <time>2020-06-22T09:33:42.598Z</time>
      </trkpt>
      <trkpt lat="38.84459667" lon="1.38755333">
        <ele>-6.0</ele>
        <time>2020-06-22T09:33:43.604Z</time>
      </trkpt>
      <trkpt lat="38.84454667" lon="1.38739667">
        <ele>-6.0</ele>
        <time>2020-06-22T09:33:44.616Z</time>
      </trkpt>
      <trkpt lat="38.84451" lon="1.38732833">
        <ele>-5.0</ele>
        <time>2020-06-22T09:33:45.605Z</time>
      </trkpt>
      <trkpt lat="38.84451" lon="1.38732833">
        <ele>-5.0</ele>
        <time>2020-06-22T09:33:46.611Z</time>
      </trkpt>
      <trkpt lat="38.844385" lon="1.38723">
        <ele>-5.0</ele>
        <time>2020-06-22T09:33:47.614Z</time>
      </trkpt>
      <trkpt lat="38.84433167" lon="1.38717833">
        <ele>-5.0</ele>
        <time>2020-06-22T09:33:48.620Z</time>
      </trkpt>
      <trkpt lat="38.84433167" lon="1.38717833">
        <ele>-5.0</ele>
        <time>2020-06-22T09:33:49.625Z</time>
      </trkpt>
      <trkpt lat="38.84424167" lon="1.38704">
        <ele>-5.0</ele>
        <time>2020-06-22T09:33:50.608Z</time>
      </trkpt>
      <trkpt lat="38.84424167" lon="1.38704">
        <ele>-5.0</ele>
        <time>2020-06-22T09:33:51.626Z</time>
      </trkpt>
      <trkpt lat="38.84416" lon="1.38688333">
        <ele>-4.0</ele>
        <time>2020-06-22T09:33:52.616Z</time>
      </trkpt>
      <trkpt lat="38.844125" lon="1.38680667">
        <ele>-3.0</ele>
        <time>2020-06-22T09:33:53.594Z</time>
      </trkpt>
      <trkpt lat="38.844125" lon="1.38680667">
        <ele>-3.0</ele>
        <time>2020-06-22T09:33:54.601Z</time>
      </trkpt>
      <trkpt lat="38.844055" lon="1.38665">
        <ele>-3.0</ele>
        <time>2020-06-22T09:33:55.627Z</time>
      </trkpt>
      <trkpt lat="38.844055" lon="1.38665">
        <ele>-3.0</ele>
        <time>2020-06-22T09:33:56.632Z</time>
      </trkpt>
      <trkpt lat="38.84398667" lon="1.38649">
        <ele>-2.0</ele>
        <time>2020-06-22T09:33:57.601Z</time>
      </trkpt>
      <trkpt lat="38.84395333" lon="1.38641167">
        <ele>-2.0</ele>
        <time>2020-06-22T09:33:58.626Z</time>
      </trkpt>
      <trkpt lat="38.84391667" lon="1.38633333">
        <ele>-1.0</ele>
        <time>2020-06-22T09:33:59.594Z</time>
      </trkpt>
      <trkpt lat="38.84388167" lon="1.38626">
        <ele>-1.0</ele>
        <time>2020-06-22T09:34:00.614Z</time>
      </trkpt>
      <trkpt lat="38.84388167" lon="1.38626">
        <ele>-1.0</ele>
        <time>2020-06-22T09:34:01.619Z</time>
      </trkpt>
      <trkpt lat="38.84381333" lon="1.386115">
        <ele>0.0</ele>
        <time>2020-06-22T09:34:02.611Z</time>
      </trkpt>
      <trkpt lat="38.84381333" lon="1.386115">
        <ele>0.0</ele>
        <time>2020-06-22T09:34:03.616Z</time>
      </trkpt>
      <trkpt lat="38.84374667" lon="1.385975">
        <ele>0.0</ele>
        <time>2020-06-22T09:34:04.623Z</time>
      </trkpt>
      <trkpt lat="38.84374667" lon="1.385975">
        <ele>0.0</ele>
        <time>2020-06-22T09:34:05.628Z</time>
      </trkpt>
      <trkpt lat="38.84367833" lon="1.38584167">
        <ele>0.0</ele>
        <time>2020-06-22T09:34:06.594Z</time>
      </trkpt>
      <trkpt lat="38.84364333" lon="1.38577167">
        <ele>0.0</ele>
        <time>2020-06-22T09:34:07.602Z</time>
      </trkpt>
      <trkpt lat="38.84364333" lon="1.38577167">
        <ele>0.0</ele>
        <time>2020-06-22T09:34:08.607Z</time>
      </trkpt>
      <trkpt lat="38.84358" lon="1.38564167">
        <ele>1.0</ele>
        <time>2020-06-22T09:34:09.611Z</time>
      </trkpt>
      <trkpt lat="38.84358" lon="1.38564167">
        <ele>1.0</ele>
        <time>2020-06-22T09:34:10.617Z</time>
      </trkpt>
      <trkpt lat="38.84351833" lon="1.38551333">
        <ele>2.0</ele>
        <time>2020-06-22T09:34:11.623Z</time>
      </trkpt>
      <trkpt lat="38.84351833" lon="1.38551333">
        <ele>2.0</ele>
        <time>2020-06-22T09:34:12.628Z</time>
      </trkpt>
      <trkpt lat="38.84346167" lon="1.385385">
        <ele>2.0</ele>
        <time>2020-06-22T09:34:13.601Z</time>
      </trkpt>
      <trkpt lat="38.84346167" lon="1.385385">
        <ele>2.0</ele>
        <time>2020-06-22T09:34:14.607Z</time>
      </trkpt>
      <trkpt lat="38.84340333" lon="1.38525833">
        <ele>2.0</ele>
        <time>2020-06-22T09:34:15.613Z</time>
      </trkpt>
      <trkpt lat="38.84340333" lon="1.38525833">
        <ele>2.0</ele>
        <time>2020-06-22T09:34:16.618Z</time>
      </trkpt>
      <trkpt lat="38.843345" lon="1.38513333">
        <ele>2.0</ele>
        <time>2020-06-22T09:34:17.607Z</time>
      </trkpt>
      <trkpt lat="38.843345" lon="1.38513333">
        <ele>2.0</ele>
        <time>2020-06-22T09:34:18.612Z</time>
      </trkpt>
      <trkpt lat="38.84328667" lon="1.385005">
        <ele>3.0</ele>
        <time>2020-06-22T09:34:19.618Z</time>
      </trkpt>
      <trkpt lat="38.84328667" lon="1.385005">
        <ele>3.0</ele>
        <time>2020-06-22T09:34:20.623Z</time>
      </trkpt>
      <trkpt lat="38.84323167" lon="1.38487667">
        <ele>3.0</ele>
        <time>2020-06-22T09:34:21.601Z</time>
      </trkpt>
      <trkpt lat="38.84323167" lon="1.38487667">
        <ele>3.0</ele>
        <time>2020-06-22T09:34:22.598Z</time>
      </trkpt>
      <trkpt lat="38.84317333" lon="1.384755">
        <ele>3.0</ele>
        <time>2020-06-22T09:34:23.622Z</time>
      </trkpt>
      <trkpt lat="38.84314167" lon="1.384695">
        <ele>3.0</ele>
        <time>2020-06-22T09:34:24.600Z</time>
      </trkpt>
      <trkpt lat="38.84314167" lon="1.384695">
        <ele>3.0</ele>
        <time>2020-06-22T09:34:25.605Z</time>
      </trkpt>
      <trkpt lat="38.843075" lon="1.38457833">
        <ele>4.0</ele>
        <time>2020-06-22T09:34:26.626Z</time>
      </trkpt>
      <trkpt lat="38.84303833" lon="1.38452333">
        <ele>4.0</ele>
        <time>2020-06-22T09:34:27.610Z</time>
      </trkpt>
      <trkpt lat="38.84303833" lon="1.38452333">
        <ele>4.0</ele>
        <time>2020-06-22T09:34:28.615Z</time>
      </trkpt>
      <trkpt lat="38.84296167" lon="1.38442333">
        <ele>4.0</ele>
        <time>2020-06-22T09:34:29.622Z</time>
      </trkpt>
      <trkpt lat="38.84296167" lon="1.38442333">
        <ele>4.0</ele>
        <time>2020-06-22T09:34:30.627Z</time>
      </trkpt>
      <trkpt lat="38.84287167" lon="1.38433667">
        <ele>4.0</ele>
        <time>2020-06-22T09:34:31.612Z</time>
      </trkpt>
      <trkpt lat="38.84282667" lon="1.3843">
        <ele>4.0</ele>
        <time>2020-06-22T09:34:32.617Z</time>
      </trkpt>
      <trkpt lat="38.84282667" lon="1.3843">
        <ele>4.0</ele>
        <time>2020-06-22T09:34:33.622Z</time>
      </trkpt>
      <trkpt lat="38.84273667" lon="1.38423333">
        <ele>4.0</ele>
        <time>2020-06-22T09:34:34.616Z</time>
      </trkpt>
      <trkpt lat="38.84273667" lon="1.38423333">
        <ele>4.0</ele>
        <time>2020-06-22T09:34:35.621Z</time>
      </trkpt>
      <trkpt lat="38.84265" lon="1.38418667">
        <ele>4.0</ele>
        <time>2020-06-22T09:34:36.629Z</time>
      </trkpt>
      <trkpt lat="38.84265" lon="1.38418667">
        <ele>4.0</ele>
        <time>2020-06-22T09:34:37.594Z</time>
      </trkpt>
      <trkpt lat="38.84256667" lon="1.38413333">
        <ele>4.0</ele>
        <time>2020-06-22T09:34:38.615Z</time>
      </trkpt>
      <trkpt lat="38.84256667" lon="1.38413333">
        <ele>4.0</ele>
        <time>2020-06-22T09:34:39.621Z</time>
      </trkpt>
      <trkpt lat="38.84249167" lon="1.38408">
        <ele>4.0</ele>
        <time>2020-06-22T09:34:40.630Z</time>
      </trkpt>
      <trkpt lat="38.842455" lon="1.38405667">
        <ele>4.0</ele>
        <time>2020-06-22T09:34:41.606Z</time>
      </trkpt>
      <trkpt lat="38.84241833" lon="1.38403333">
        <ele>4.0</ele>
        <time>2020-06-22T09:34:42.608Z</time>
      </trkpt>
      <trkpt lat="38.84241833" lon="1.38403333">
        <ele>4.0</ele>
        <time>2020-06-22T09:34:43.613Z</time>
      </trkpt>
      <trkpt lat="38.84235333" lon="1.38398167">
        <ele>4.0</ele>
        <time>2020-06-22T09:34:44.621Z</time>
      </trkpt>
      <trkpt lat="38.84235333" lon="1.38398167">
        <ele>4.0</ele>
        <time>2020-06-22T09:34:45.626Z</time>
      </trkpt>
      <trkpt lat="38.84229167" lon="1.38394333">
        <ele>5.0</ele>
        <time>2020-06-22T09:34:46.604Z</time>
      </trkpt>
      <trkpt lat="38.84229167" lon="1.38394333">
        <ele>5.0</ele>
        <time>2020-06-22T09:34:47.610Z</time>
      </trkpt>
      <trkpt lat="38.84224" lon="1.38390667">
        <ele>5.0</ele>
        <time>2020-06-22T09:34:48.617Z</time>
      </trkpt>
      <trkpt lat="38.84224" lon="1.38390667">
        <ele>5.0</ele>
        <time>2020-06-22T09:34:49.607Z</time>
      </trkpt>
      <trkpt lat="38.84219167" lon="1.383875">
        <ele>5.0</ele>
        <time>2020-06-22T09:34:50.599Z</time>
      </trkpt>
      <trkpt lat="38.84219167" lon="1.383875">
        <ele>5.0</ele>
        <time>2020-06-22T09:34:51.605Z</time>
      </trkpt>
      <trkpt lat="38.84213667" lon="1.383855">
        <ele>5.0</ele>
        <time>2020-06-22T09:34:52.611Z</time>
      </trkpt>
      <trkpt lat="38.84213667" lon="1.383855">
        <ele>5.0</ele>
        <time>2020-06-22T09:34:53.618Z</time>
      </trkpt>
      <trkpt lat="38.84208333" lon="1.383845">
        <ele>5.0</ele>
        <time>2020-06-22T09:34:54.605Z</time>
      </trkpt>
      <trkpt lat="38.84208333" lon="1.383845">
        <ele>5.0</ele>
        <time>2020-06-22T09:34:55.610Z</time>
      </trkpt>
      <trkpt lat="38.84203333" lon="1.38381667">
        <ele>5.0</ele>
        <time>2020-06-22T09:34:56.621Z</time>
      </trkpt>
      <trkpt lat="38.84203333" lon="1.38381667">
        <ele>5.0</ele>
        <time>2020-06-22T09:34:57.630Z</time>
      </trkpt>
      <trkpt lat="38.842005" lon="1.383765">
        <ele>5.0</ele>
        <time>2020-06-22T09:34:58.611Z</time>
      </trkpt>
      <trkpt lat="38.842005" lon="1.383765">
        <ele>5.0</ele>
        <time>2020-06-22T09:34:59.616Z</time>
      </trkpt>
      <trkpt lat="38.84201167" lon="1.38375833">
        <ele>4.0</ele>
        <time>2020-06-22T09:35:00.629Z</time>
      </trkpt>
      <trkpt lat="38.84202" lon="1.38377333">
        <ele>4.0</ele>
        <time>2020-06-22T09:35:01.613Z</time>
      </trkpt>
      <trkpt lat="38.84202" lon="1.38377333">
        <ele>4.0</ele>
        <time>2020-06-22T09:35:02.618Z</time>
      </trkpt>
      <trkpt lat="38.84202" lon="1.38378333">
        <ele>4.0</ele>
        <time>2020-06-22T09:35:03.624Z</time>
      </trkpt>
      <trkpt lat="38.84201833" lon="1.383785">
        <ele>4.0</ele>
        <time>2020-06-22T09:35:47.769Z</time>
      </trkpt>
      <trkpt lat="38.84205333" lon="1.38381833">
        <ele>5.0</ele>
        <time>2020-06-22T09:35:48.773Z</time>
      </trkpt>
      <trkpt lat="38.84205333" lon="1.38381833">
        <ele>5.0</ele>
        <time>2020-06-22T09:35:49.766Z</time>
      </trkpt>
      <trkpt lat="38.84208667" lon="1.38385167">
        <ele>5.0</ele>
        <time>2020-06-22T09:35:50.749Z</time>
      </trkpt>
      <trkpt lat="38.84208667" lon="1.38385167">
        <ele>5.0</ele>
        <time>2020-06-22T09:35:51.770Z</time>
      </trkpt>
      <trkpt lat="38.84217" lon="1.38390333">
        <ele>4.0</ele>
        <time>2020-06-22T09:35:52.788Z</time>
      </trkpt>
      <trkpt lat="38.84222" lon="1.38392667">
        <ele>4.0</ele>
        <time>2020-06-22T09:35:53.760Z</time>
      </trkpt>
      <trkpt lat="38.84222" lon="1.38392667">
        <ele>4.0</ele>
        <time>2020-06-22T09:35:54.767Z</time>
      </trkpt>
      <trkpt lat="38.84232833" lon="1.38400167">
        <ele>4.0</ele>
        <time>2020-06-22T09:35:55.786Z</time>
      </trkpt>
      <trkpt lat="38.84238" lon="1.38404167">
        <ele>4.0</ele>
        <time>2020-06-22T09:35:56.761Z</time>
      </trkpt>
      <trkpt lat="38.84238" lon="1.38404167">
        <ele>4.0</ele>
        <time>2020-06-22T09:35:57.781Z</time>
      </trkpt>
      <trkpt lat="38.84248667" lon="1.38411167">
        <ele>4.0</ele>
        <time>2020-06-22T09:35:58.781Z</time>
      </trkpt>
      <trkpt lat="38.84248667" lon="1.38411167">
        <ele>4.0</ele>
        <time>2020-06-22T09:35:59.749Z</time>
      </trkpt>
      <trkpt lat="38.84260167" lon="1.38418">
        <ele>4.0</ele>
        <time>2020-06-22T09:36:00.767Z</time>
      </trkpt>
      <trkpt lat="38.84260167" lon="1.38418">
        <ele>4.0</ele>
        <time>2020-06-22T09:36:01.776Z</time>
      </trkpt>
      <trkpt lat="38.84271667" lon="1.384255">
        <ele>4.0</ele>
        <time>2020-06-22T09:36:02.756Z</time>
      </trkpt>
      <trkpt lat="38.84271667" lon="1.384255">
        <ele>4.0</ele>
        <time>2020-06-22T09:36:03.766Z</time>
      </trkpt>
      <trkpt lat="38.84282667" lon="1.38434167">
        <ele>3.0</ele>
        <time>2020-06-22T09:36:04.778Z</time>
      </trkpt>
      <trkpt lat="38.84282667" lon="1.38434167">
        <ele>3.0</ele>
        <time>2020-06-22T09:36:05.789Z</time>
      </trkpt>
      <trkpt lat="38.84293667" lon="1.38444833">
        <ele>3.0</ele>
        <time>2020-06-22T09:36:06.761Z</time>
      </trkpt>
      <trkpt lat="38.84293667" lon="1.38444833">
        <ele>3.0</ele>
        <time>2020-06-22T09:36:07.776Z</time>
      </trkpt>
      <trkpt lat="38.843035" lon="1.38457667">
        <ele>3.0</ele>
        <time>2020-06-22T09:36:08.786Z</time>
      </trkpt>
      <trkpt lat="38.84307833" lon="1.38465">
        <ele>3.0</ele>
        <time>2020-06-22T09:36:09.758Z</time>
      </trkpt>
      <trkpt lat="38.84307833" lon="1.38465">
        <ele>3.0</ele>
        <time>2020-06-22T09:36:10.766Z</time>
      </trkpt>
      <trkpt lat="38.84315667" lon="1.38480333">
        <ele>2.0</ele>
        <time>2020-06-22T09:36:11.753Z</time>
      </trkpt>
      <trkpt lat="38.84319333" lon="1.38488333">
        <ele>2.0</ele>
        <time>2020-06-22T09:36:12.764Z</time>
      </trkpt>
      <trkpt lat="38.84319333" lon="1.38488333">
        <ele>2.0</ele>
        <time>2020-06-22T09:36:13.770Z</time>
      </trkpt>
      <trkpt lat="38.843265" lon="1.38504333">
        <ele>1.0</ele>
        <time>2020-06-22T09:36:14.765Z</time>
      </trkpt>
      <trkpt lat="38.84330167" lon="1.38512333">
        <ele>1.0</ele>
        <time>2020-06-22T09:36:15.775Z</time>
      </trkpt>
      <trkpt lat="38.84330167" lon="1.38512333">
        <ele>1.0</ele>
        <time>2020-06-22T09:36:16.785Z</time>
      </trkpt>
      <trkpt lat="38.84337667" lon="1.38528167">
        <ele>1.0</ele>
        <time>2020-06-22T09:36:17.763Z</time>
      </trkpt>
      <trkpt lat="38.84341167" lon="1.38536167">
        <ele>1.0</ele>
        <time>2020-06-22T09:36:18.772Z</time>
      </trkpt>
      <trkpt lat="38.84341167" lon="1.38536167">
        <ele>1.0</ele>
        <time>2020-06-22T09:36:19.781Z</time>
      </trkpt>
      <trkpt lat="38.843485" lon="1.38552167">
        <ele>1.0</ele>
        <time>2020-06-22T09:36:20.782Z</time>
      </trkpt>
      <trkpt lat="38.843485" lon="1.38552167">
        <ele>1.0</ele>
        <time>2020-06-22T09:36:21.749Z</time>
      </trkpt>
      <trkpt lat="38.84355833" lon="1.385685">
        <ele>0.0</ele>
        <time>2020-06-22T09:36:22.757Z</time>
      </trkpt>
      <trkpt lat="38.84355833" lon="1.385685">
        <ele>0.0</ele>
        <time>2020-06-22T09:36:23.765Z</time>
      </trkpt>
      <trkpt lat="38.84363167" lon="1.38584833">
        <ele>0.0</ele>
        <time>2020-06-22T09:36:24.760Z</time>
      </trkpt>
      <trkpt lat="38.84363167" lon="1.38584833">
        <ele>0.0</ele>
        <time>2020-06-22T09:36:25.767Z</time>
      </trkpt>
      <trkpt lat="38.84371" lon="1.38600833">
        <ele>0.0</ele>
        <time>2020-06-22T09:36:26.774Z</time>
      </trkpt>
      <trkpt lat="38.84374667" lon="1.38609167">
        <ele>0.0</ele>
        <time>2020-06-22T09:36:27.783Z</time>
      </trkpt>
      <trkpt lat="38.84374667" lon="1.38609167">
        <ele>0.0</ele>
        <time>2020-06-22T09:36:28.749Z</time>
      </trkpt>
      <trkpt lat="38.84382" lon="1.38625667">
        <ele>-1.0</ele>
        <time>2020-06-22T09:36:29.757Z</time>
      </trkpt>
      <trkpt lat="38.84386" lon="1.38633667">
        <ele>-1.0</ele>
        <time>2020-06-22T09:36:30.765Z</time>
      </trkpt>
      <trkpt lat="38.84386" lon="1.38633667">
        <ele>-1.0</ele>
        <time>2020-06-22T09:36:31.765Z</time>
      </trkpt>
      <trkpt lat="38.84393833" lon="1.3865">
        <ele>-1.0</ele>
        <time>2020-06-22T09:36:32.759Z</time>
      </trkpt>
      <trkpt lat="38.84393833" lon="1.3865">
        <ele>-1.0</ele>
        <time>2020-06-22T09:36:33.765Z</time>
      </trkpt>
      <trkpt lat="38.844015" lon="1.38666333">
        <ele>-1.0</ele>
        <time>2020-06-22T09:36:34.771Z</time>
      </trkpt>
      <trkpt lat="38.84405667" lon="1.38674167">
        <ele>-1.0</ele>
        <time>2020-06-22T09:36:35.751Z</time>
      </trkpt>
      <trkpt lat="38.84409833" lon="1.38682167">
        <ele>-1.0</ele>
        <time>2020-06-22T09:36:36.757Z</time>
      </trkpt>
      <trkpt lat="38.84413833" lon="1.38690167">
        <ele>-1.0</ele>
        <time>2020-06-22T09:36:37.767Z</time>
      </trkpt>
      <trkpt lat="38.84413833" lon="1.38690167">
        <ele>-1.0</ele>
        <time>2020-06-22T09:36:38.772Z</time>
      </trkpt>
      <trkpt lat="38.844215" lon="1.387065">
        <ele>0.0</ele>
        <time>2020-06-22T09:36:39.780Z</time>
      </trkpt>
      <trkpt lat="38.844215" lon="1.387065">
        <ele>0.0</ele>
        <time>2020-06-22T09:36:40.786Z</time>
      </trkpt>
      <trkpt lat="38.844275" lon="1.38723">
        <ele>0.0</ele>
        <time>2020-06-22T09:36:41.774Z</time>
      </trkpt>
      <trkpt lat="38.84428833" lon="1.38731667">
        <ele>1.0</ele>
        <time>2020-06-22T09:36:42.780Z</time>
      </trkpt>
      <trkpt lat="38.84428833" lon="1.38731667">
        <ele>1.0</ele>
        <time>2020-06-22T09:36:43.787Z</time>
      </trkpt>
      <trkpt lat="38.844305" lon="1.387485">
        <ele>1.0</ele>
        <time>2020-06-22T09:36:44.786Z</time>
      </trkpt>
      <trkpt lat="38.844305" lon="1.387485">
        <ele>1.0</ele>
        <time>2020-06-22T09:36:45.759Z</time>
      </trkpt>
      <trkpt lat="38.8444" lon="1.38761333">
        <ele>1.0</ele>
        <time>2020-06-22T09:36:46.768Z</time>
      </trkpt>
      <trkpt lat="38.8444" lon="1.38761333">
        <ele>1.0</ele>
        <time>2020-06-22T09:36:47.776Z</time>
      </trkpt>
      <trkpt lat="38.84452833" lon="1.38768667">
        <ele>1.0</ele>
        <time>2020-06-22T09:36:48.759Z</time>
      </trkpt>
      <trkpt lat="38.84452833" lon="1.38768667">
        <ele>1.0</ele>
        <time>2020-06-22T09:36:49.765Z</time>
      </trkpt>
      <trkpt lat="38.84466833" lon="1.38774667">
        <ele>1.0</ele>
        <time>2020-06-22T09:36:50.777Z</time>
      </trkpt>
      <trkpt lat="38.84466833" lon="1.38774667">
        <ele>1.0</ele>
        <time>2020-06-22T09:36:51.784Z</time>
      </trkpt>
      <trkpt lat="38.84481333" lon="1.387805">
        <ele>0.0</ele>
        <time>2020-06-22T09:36:52.763Z</time>
      </trkpt>
      <trkpt lat="38.84481333" lon="1.387805">
        <ele>0.0</ele>
        <time>2020-06-22T09:36:53.769Z</time>
      </trkpt>
      <trkpt lat="38.84495833" lon="1.38786333">
        <ele>-1.0</ele>
        <time>2020-06-22T09:36:54.781Z</time>
      </trkpt>
      <trkpt lat="38.84495833" lon="1.38786333">
        <ele>-1.0</ele>
        <time>2020-06-22T09:36:55.788Z</time>
      </trkpt>
      <trkpt lat="38.84510167" lon="1.38792">
        <ele>-1.0</ele>
        <time>2020-06-22T09:36:56.765Z</time>
      </trkpt>
      <trkpt lat="38.84517" lon="1.38794833">
        <ele>-1.0</ele>
        <time>2020-06-22T09:36:57.772Z</time>
      </trkpt>
      <trkpt lat="38.84517" lon="1.38794833">
        <ele>-1.0</ele>
        <time>2020-06-22T09:36:58.779Z</time>
      </trkpt>
      <trkpt lat="38.84531333" lon="1.38800333">
        <ele>-2.0</ele>
        <time>2020-06-22T09:36:59.786Z</time>
      </trkpt>
      <trkpt lat="38.84531333" lon="1.38800333">
        <ele>-2.0</ele>
        <time>2020-06-22T09:37:00.757Z</time>
      </trkpt>
      <trkpt lat="38.845455" lon="1.38805667">
        <ele>-2.0</ele>
        <time>2020-06-22T09:37:01.773Z</time>
      </trkpt>
      <trkpt lat="38.845455" lon="1.38805667">
        <ele>-2.0</ele>
        <time>2020-06-22T09:37:02.781Z</time>
      </trkpt>
      <trkpt lat="38.84558833" lon="1.38811167">
        <ele>-2.0</ele>
        <time>2020-06-22T09:37:03.752Z</time>
      </trkpt>
      <trkpt lat="38.84558833" lon="1.38811167">
        <ele>-2.0</ele>
        <time>2020-06-22T09:37:04.759Z</time>
      </trkpt>
      <trkpt lat="38.845725" lon="1.38816167">
        <ele>-2.0</ele>
        <time>2020-06-22T09:37:05.788Z</time>
      </trkpt>
      <trkpt lat="38.845725" lon="1.38816167">
        <ele>-2.0</ele>
        <time>2020-06-22T09:37:06.783Z</time>
      </trkpt>
      <trkpt lat="38.84586167" lon="1.388215">
        <ele>-2.0</ele>
        <time>2020-06-22T09:37:07.751Z</time>
      </trkpt>
      <trkpt lat="38.84586167" lon="1.388215">
        <ele>-2.0</ele>
        <time>2020-06-22T09:37:08.759Z</time>
      </trkpt>
      <trkpt lat="38.84599833" lon="1.38826667">
        <ele>-2.0</ele>
        <time>2020-06-22T09:37:09.768Z</time>
      </trkpt>
      <trkpt lat="38.84599833" lon="1.38826667">
        <ele>-2.0</ele>
        <time>2020-06-22T09:37:10.773Z</time>
      </trkpt>
      <trkpt lat="38.84613667" lon="1.388315">
        <ele>-3.0</ele>
        <time>2020-06-22T09:37:11.751Z</time>
      </trkpt>
      <trkpt lat="38.84620833" lon="1.38834">
        <ele>-3.0</ele>
        <time>2020-06-22T09:37:12.765Z</time>
      </trkpt>
      <trkpt lat="38.84620833" lon="1.38834">
        <ele>-3.0</ele>
        <time>2020-06-22T09:37:13.772Z</time>
      </trkpt>
      <trkpt lat="38.84635" lon="1.38839333">
        <ele>-3.0</ele>
        <time>2020-06-22T09:37:14.786Z</time>
      </trkpt>
      <trkpt lat="38.84635" lon="1.38839333">
        <ele>-3.0</ele>
        <time>2020-06-22T09:37:15.758Z</time>
      </trkpt>
      <trkpt lat="38.84648833" lon="1.38844333">
        <ele>-3.0</ele>
        <time>2020-06-22T09:37:16.783Z</time>
      </trkpt>
      <trkpt lat="38.84648833" lon="1.38844333">
        <ele>-3.0</ele>
        <time>2020-06-22T09:37:17.751Z</time>
      </trkpt>
      <trkpt lat="38.84663" lon="1.38849">
        <ele>-3.0</ele>
        <time>2020-06-22T09:37:18.767Z</time>
      </trkpt>
      <trkpt lat="38.84663" lon="1.38849">
        <ele>-3.0</ele>
        <time>2020-06-22T09:37:19.773Z</time>
      </trkpt>
      <trkpt lat="38.84677" lon="1.38854167">
        <ele>-3.0</ele>
        <time>2020-06-22T09:37:20.785Z</time>
      </trkpt>
      <trkpt lat="38.84677" lon="1.38854167">
        <ele>-3.0</ele>
        <time>2020-06-22T09:37:21.757Z</time>
      </trkpt>
      <trkpt lat="38.84691" lon="1.38858833">
        <ele>-3.0</ele>
        <time>2020-06-22T09:37:22.749Z</time>
      </trkpt>
      <trkpt lat="38.84691" lon="1.38858833">
        <ele>-3.0</ele>
        <time>2020-06-22T09:37:23.757Z</time>
      </trkpt>
      <trkpt lat="38.84704833" lon="1.38864">
        <ele>-3.0</ele>
        <time>2020-06-22T09:37:24.771Z</time>
      </trkpt>
      <trkpt lat="38.84704833" lon="1.38864">
        <ele>-3.0</ele>
        <time>2020-06-22T09:37:25.777Z</time>
      </trkpt>
      <trkpt lat="38.847185" lon="1.38868833">
        <ele>-3.0</ele>
        <time>2020-06-22T09:37:26.771Z</time>
      </trkpt>
      <trkpt lat="38.847185" lon="1.38868833">
        <ele>-3.0</ele>
        <time>2020-06-22T09:37:27.776Z</time>
      </trkpt>
      <trkpt lat="38.84732167" lon="1.38873333">
        <ele>-3.0</ele>
        <time>2020-06-22T09:37:28.783Z</time>
      </trkpt>
      <trkpt lat="38.84739167" lon="1.38875167">
        <ele>-3.0</ele>
        <time>2020-06-22T09:37:29.786Z</time>
      </trkpt>
      <trkpt lat="38.84746" lon="1.38876667">
        <ele>-3.0</ele>
        <time>2020-06-22T09:37:30.753Z</time>
      </trkpt>
      <trkpt lat="38.84746" lon="1.38876667">
        <ele>-3.0</ele>
        <time>2020-06-22T09:37:31.760Z</time>
      </trkpt>
      <trkpt lat="38.8476" lon="1.38878667">
        <ele>-3.0</ele>
        <time>2020-06-22T09:37:32.779Z</time>
      </trkpt>
      <trkpt lat="38.8476" lon="1.38878667">
        <ele>-3.0</ele>
        <time>2020-06-22T09:37:33.785Z</time>
      </trkpt>
      <trkpt lat="38.84773833" lon="1.38879167">
        <ele>-3.0</ele>
        <time>2020-06-22T09:37:34.775Z</time>
      </trkpt>
      <trkpt lat="38.84773833" lon="1.38879167">
        <ele>-3.0</ele>
        <time>2020-06-22T09:37:35.782Z</time>
      </trkpt>
      <trkpt lat="38.84787833" lon="1.388785">
        <ele>-3.0</ele>
        <time>2020-06-22T09:37:36.765Z</time>
      </trkpt>
      <trkpt lat="38.84794667" lon="1.38878">
        <ele>-3.0</ele>
        <time>2020-06-22T09:37:37.771Z</time>
      </trkpt>
      <trkpt lat="38.84794667" lon="1.38878">
        <ele>-3.0</ele>
        <time>2020-06-22T09:37:38.779Z</time>
      </trkpt>
      <trkpt lat="38.84808667" lon="1.388765">
        <ele>-4.0</ele>
        <time>2020-06-22T09:37:39.772Z</time>
      </trkpt>
      <trkpt lat="38.84808667" lon="1.388765">
        <ele>-4.0</ele>
        <time>2020-06-22T09:37:40.778Z</time>
      </trkpt>
      <trkpt lat="38.84822833" lon="1.38874667">
        <ele>-4.0</ele>
        <time>2020-06-22T09:37:41.785Z</time>
      </trkpt>
      <trkpt lat="38.84829833" lon="1.38873667">
        <ele>-4.0</ele>
        <time>2020-06-22T09:37:42.781Z</time>
      </trkpt>
      <trkpt lat="38.84829833" lon="1.38873667">
        <ele>-4.0</ele>
        <time>2020-06-22T09:37:43.787Z</time>
      </trkpt>
      <trkpt lat="38.84844" lon="1.38872">
        <ele>-4.0</ele>
        <time>2020-06-22T09:37:44.769Z</time>
      </trkpt>
      <trkpt lat="38.84851" lon="1.38871333">
        <ele>-4.0</ele>
        <time>2020-06-22T09:37:45.755Z</time>
      </trkpt>
      <trkpt lat="38.84851" lon="1.38871333">
        <ele>-4.0</ele>
        <time>2020-06-22T09:37:46.766Z</time>
      </trkpt>
      <trkpt lat="38.84865167" lon="1.38869833">
        <ele>-3.0</ele>
        <time>2020-06-22T09:37:47.773Z</time>
      </trkpt>
      <trkpt lat="38.84872333" lon="1.38868833">
        <ele>-3.0</ele>
        <time>2020-06-22T09:37:48.775Z</time>
      </trkpt>
      <trkpt lat="38.84872333" lon="1.38868833">
        <ele>-3.0</ele>
        <time>2020-06-22T09:37:49.781Z</time>
      </trkpt>
      <trkpt lat="38.84886833" lon="1.38867">
        <ele>-4.0</ele>
        <time>2020-06-22T09:37:50.761Z</time>
      </trkpt>
      <trkpt lat="38.84894167" lon="1.38866167">
        <ele>-4.0</ele>
        <time>2020-06-22T09:37:51.767Z</time>
      </trkpt>
      <trkpt lat="38.84894167" lon="1.38866167">
        <ele>-4.0</ele>
        <time>2020-06-22T09:37:52.773Z</time>
      </trkpt>
      <trkpt lat="38.84909" lon="1.38864833">
        <ele>-4.0</ele>
        <time>2020-06-22T09:37:53.780Z</time>
      </trkpt>
      <trkpt lat="38.849165" lon="1.38864333">
        <ele>-4.0</ele>
        <time>2020-06-22T09:37:54.777Z</time>
      </trkpt>
      <trkpt lat="38.849165" lon="1.38864333">
        <ele>-4.0</ele>
        <time>2020-06-22T09:37:55.783Z</time>
      </trkpt>
      <trkpt lat="38.84931333" lon="1.38863833">
        <ele>-4.0</ele>
        <time>2020-06-22T09:37:56.749Z</time>
      </trkpt>
      <trkpt lat="38.84938667" lon="1.38864333">
        <ele>-4.0</ele>
        <time>2020-06-22T09:37:57.765Z</time>
      </trkpt>
      <trkpt lat="38.84938667" lon="1.38864333">
        <ele>-4.0</ele>
        <time>2020-06-22T09:37:58.770Z</time>
      </trkpt>
      <trkpt lat="38.84953667" lon="1.38866667">
        <ele>-4.0</ele>
        <time>2020-06-22T09:37:59.778Z</time>
      </trkpt>
      <trkpt lat="38.84961167" lon="1.38868167">
        <ele>-4.0</ele>
        <time>2020-06-22T09:38:00.752Z</time>
      </trkpt>
      <trkpt lat="38.84961167" lon="1.38868167">
        <ele>-4.0</ele>
        <time>2020-06-22T09:38:01.766Z</time>
      </trkpt>
      <trkpt lat="38.84976" lon="1.388715">
        <ele>-4.0</ele>
        <time>2020-06-22T09:38:02.754Z</time>
      </trkpt>
      <trkpt lat="38.84976" lon="1.388715">
        <ele>-4.0</ele>
        <time>2020-06-22T09:38:03.760Z</time>
      </trkpt>
      <trkpt lat="38.849905" lon="1.38875833">
        <ele>-4.0</ele>
        <time>2020-06-22T09:38:04.768Z</time>
      </trkpt>
      <trkpt lat="38.849905" lon="1.38875833">
        <ele>-4.0</ele>
        <time>2020-06-22T09:38:05.760Z</time>
      </trkpt>
      <trkpt lat="38.85004833" lon="1.38880167">
        <ele>-4.0</ele>
        <time>2020-06-22T09:38:06.781Z</time>
      </trkpt>
      <trkpt lat="38.85004833" lon="1.38880167">
        <ele>-4.0</ele>
        <time>2020-06-22T09:38:07.788Z</time>
      </trkpt>
      <trkpt lat="38.85019167" lon="1.38884167">
        <ele>-4.0</ele>
        <time>2020-06-22T09:38:08.759Z</time>
      </trkpt>
      <trkpt lat="38.85019167" lon="1.38884167">
        <ele>-4.0</ele>
        <time>2020-06-22T09:38:09.765Z</time>
      </trkpt>
      <trkpt lat="38.85033333" lon="1.38888">
        <ele>-4.0</ele>
        <time>2020-06-22T09:38:10.755Z</time>
      </trkpt>
      <trkpt lat="38.850405" lon="1.3889">
        <ele>-4.0</ele>
        <time>2020-06-22T09:38:11.767Z</time>
      </trkpt>
      <trkpt lat="38.85047667" lon="1.38892167">
        <ele>-4.0</ele>
        <time>2020-06-22T09:38:12.752Z</time>
      </trkpt>
      <trkpt lat="38.85047667" lon="1.38892167">
        <ele>-4.0</ele>
        <time>2020-06-22T09:38:13.760Z</time>
      </trkpt>
      <trkpt lat="38.85061667" lon="1.38897">
        <ele>-4.0</ele>
        <time>2020-06-22T09:38:14.771Z</time>
      </trkpt>
      <trkpt lat="38.85061667" lon="1.38897">
        <ele>-4.0</ele>
        <time>2020-06-22T09:38:15.777Z</time>
      </trkpt>
      <trkpt lat="38.85075333" lon="1.38902833">
        <ele>-4.0</ele>
        <time>2020-06-22T09:38:16.761Z</time>
      </trkpt>
      <trkpt lat="38.85082167" lon="1.38905833">
        <ele>-5.0</ele>
        <time>2020-06-22T09:38:17.788Z</time>
      </trkpt>
      <trkpt lat="38.85082167" lon="1.38905833">
        <ele>-5.0</ele>
        <time>2020-06-22T09:38:18.756Z</time>
      </trkpt>
      <trkpt lat="38.85095667" lon="1.38912">
        <ele>-5.0</ele>
        <time>2020-06-22T09:38:19.749Z</time>
      </trkpt>
      <trkpt lat="38.85095667" lon="1.38912">
        <ele>-5.0</ele>
        <time>2020-06-22T09:38:20.756Z</time>
      </trkpt>
      <trkpt lat="38.85109167" lon="1.38918167">
        <ele>-5.0</ele>
        <time>2020-06-22T09:38:21.766Z</time>
      </trkpt>
      <trkpt lat="38.85109167" lon="1.38918167">
        <ele>-5.0</ele>
        <time>2020-06-22T09:38:22.772Z</time>
      </trkpt>
      <trkpt lat="38.85122833" lon="1.38924333">
        <ele>-5.0</ele>
        <time>2020-06-22T09:38:23.754Z</time>
      </trkpt>
      <trkpt lat="38.851295" lon="1.38927167">
        <ele>-5.0</ele>
        <time>2020-06-22T09:38:24.763Z</time>
      </trkpt>
      <trkpt lat="38.851295" lon="1.38927167">
        <ele>-5.0</ele>
        <time>2020-06-22T09:38:25.769Z</time>
      </trkpt>
      <trkpt lat="38.85142833" lon="1.38933667">
        <ele>-5.0</ele>
        <time>2020-06-22T09:38:26.761Z</time>
      </trkpt>
      <trkpt lat="38.85142833" lon="1.38933667">
        <ele>-5.0</ele>
        <time>2020-06-22T09:38:27.768Z</time>
      </trkpt>
      <trkpt lat="38.85155833" lon="1.38940167">
        <ele>-5.0</ele>
        <time>2020-06-22T09:38:28.753Z</time>
      </trkpt>
      <trkpt lat="38.85162333" lon="1.38943167">
        <ele>-5.0</ele>
        <time>2020-06-22T09:38:29.756Z</time>
      </trkpt>
      <trkpt lat="38.85169" lon="1.38945833">
        <ele>-4.0</ele>
        <time>2020-06-22T09:38:30.764Z</time>
      </trkpt>
      <trkpt lat="38.85169" lon="1.38945833">
        <ele>-4.0</ele>
        <time>2020-06-22T09:38:31.769Z</time>
      </trkpt>
      <trkpt lat="38.85182333" lon="1.38948833">
        <ele>-4.0</ele>
        <time>2020-06-22T09:38:32.766Z</time>
      </trkpt>
      <trkpt lat="38.85182333" lon="1.38948833">
        <ele>-4.0</ele>
        <time>2020-06-22T09:38:33.773Z</time>
      </trkpt>
      <trkpt lat="38.85195833" lon="1.38947167">
        <ele>-4.0</ele>
        <time>2020-06-22T09:38:34.786Z</time>
      </trkpt>
      <trkpt lat="38.85195833" lon="1.38947167">
        <ele>-4.0</ele>
        <time>2020-06-22T09:38:35.754Z</time>
      </trkpt>
      <trkpt lat="38.85209167" lon="1.38942167">
        <ele>-4.0</ele>
        <time>2020-06-22T09:38:36.772Z</time>
      </trkpt>
      <trkpt lat="38.85209167" lon="1.38942167">
        <ele>-4.0</ele>
        <time>2020-06-22T09:38:37.778Z</time>
      </trkpt>
      <trkpt lat="38.852225" lon="1.38935667">
        <ele>-4.0</ele>
        <time>2020-06-22T09:38:38.785Z</time>
      </trkpt>
      <trkpt lat="38.852225" lon="1.38935667">
        <ele>-4.0</ele>
        <time>2020-06-22T09:38:39.756Z</time>
      </trkpt>
      <trkpt lat="38.85235667" lon="1.38927833">
        <ele>-5.0</ele>
        <time>2020-06-22T09:38:40.749Z</time>
      </trkpt>
      <trkpt lat="38.85242167" lon="1.38923333">
        <ele>-5.0</ele>
        <time>2020-06-22T09:38:41.760Z</time>
      </trkpt>
      <trkpt lat="38.85248833" lon="1.38918667">
        <ele>-5.0</ele>
        <time>2020-06-22T09:38:42.768Z</time>
      </trkpt>
      <trkpt lat="38.85248833" lon="1.38918667">
        <ele>-5.0</ele>
        <time>2020-06-22T09:38:43.774Z</time>
      </trkpt>
      <trkpt lat="38.85262167" lon="1.3891">
        <ele>-5.0</ele>
        <time>2020-06-22T09:38:44.780Z</time>
      </trkpt>
      <trkpt lat="38.85262167" lon="1.3891">
        <ele>-5.0</ele>
        <time>2020-06-22T09:38:45.786Z</time>
      </trkpt>
      <trkpt lat="38.852755" lon="1.38901167">
        <ele>-5.0</ele>
        <time>2020-06-22T09:38:46.783Z</time>
      </trkpt>
      <trkpt lat="38.852755" lon="1.38901167">
        <ele>-5.0</ele>
        <time>2020-06-22T09:38:47.750Z</time>
      </trkpt>
      <trkpt lat="38.85289" lon="1.38891667">
        <ele>-5.0</ele>
        <time>2020-06-22T09:38:48.765Z</time>
      </trkpt>
      <trkpt lat="38.85289" lon="1.38891667">
        <ele>-5.0</ele>
        <time>2020-06-22T09:38:49.767Z</time>
      </trkpt>
      <trkpt lat="38.85302333" lon="1.38882833">
        <ele>-5.0</ele>
        <time>2020-06-22T09:38:50.788Z</time>
      </trkpt>
      <trkpt lat="38.85302333" lon="1.38882833">
        <ele>-5.0</ele>
        <time>2020-06-22T09:38:51.756Z</time>
      </trkpt>
      <trkpt lat="38.85316" lon="1.38873">
        <ele>-5.0</ele>
        <time>2020-06-22T09:38:52.763Z</time>
      </trkpt>
      <trkpt lat="38.85316" lon="1.38873">
        <ele>-5.0</ele>
        <time>2020-06-22T09:38:53.776Z</time>
      </trkpt>
      <trkpt lat="38.853295" lon="1.38863333">
        <ele>-4.0</ele>
        <time>2020-06-22T09:38:54.755Z</time>
      </trkpt>
      <trkpt lat="38.853295" lon="1.38863333">
        <ele>-4.0</ele>
        <time>2020-06-22T09:38:55.761Z</time>
      </trkpt>
      <trkpt lat="38.85343167" lon="1.38854333">
        <ele>-5.0</ele>
        <time>2020-06-22T09:38:56.769Z</time>
      </trkpt>
      <trkpt lat="38.85349833" lon="1.3885">
        <ele>-5.0</ele>
        <time>2020-06-22T09:38:57.785Z</time>
      </trkpt>
      <trkpt lat="38.85349833" lon="1.3885">
        <ele>-5.0</ele>
        <time>2020-06-22T09:38:58.755Z</time>
      </trkpt>
      <trkpt lat="38.85363167" lon="1.38840667">
        <ele>-4.0</ele>
        <time>2020-06-22T09:38:59.762Z</time>
      </trkpt>
      <trkpt lat="38.85369833" lon="1.38836">
        <ele>-4.0</ele>
        <time>2020-06-22T09:39:00.780Z</time>
      </trkpt>
      <trkpt lat="38.85369833" lon="1.38836">
        <ele>-4.0</ele>
        <time>2020-06-22T09:39:01.786Z</time>
      </trkpt>
      <trkpt lat="38.853835" lon="1.38827167">
        <ele>-4.0</ele>
        <time>2020-06-22T09:39:02.762Z</time>
      </trkpt>
      <trkpt lat="38.85390333" lon="1.38822667">
        <ele>-4.0</ele>
        <time>2020-06-22T09:39:03.774Z</time>
      </trkpt>
      <trkpt lat="38.85390333" lon="1.38822667">
        <ele>-4.0</ele>
        <time>2020-06-22T09:39:04.779Z</time>
      </trkpt>
      <trkpt lat="38.85403833" lon="1.38813">
        <ele>-3.0</ele>
        <time>2020-06-22T09:39:05.751Z</time>
      </trkpt>
      <trkpt lat="38.854105" lon="1.38808333">
        <ele>-3.0</ele>
        <time>2020-06-22T09:39:06.766Z</time>
      </trkpt>
      <trkpt lat="38.85417" lon="1.38803667">
        <ele>-3.0</ele>
        <time>2020-06-22T09:39:07.773Z</time>
      </trkpt>
      <trkpt lat="38.85417" lon="1.38803667">
        <ele>-3.0</ele>
        <time>2020-06-22T09:39:08.779Z</time>
      </trkpt>
      <trkpt lat="38.854305" lon="1.38794667">
        <ele>-3.0</ele>
        <time>2020-06-22T09:39:09.754Z</time>
      </trkpt>
      <trkpt lat="38.854305" lon="1.38794667">
        <ele>-3.0</ele>
        <time>2020-06-22T09:39:10.762Z</time>
      </trkpt>
      <trkpt lat="38.85444167" lon="1.38785333">
        <ele>-2.0</ele>
        <time>2020-06-22T09:39:11.777Z</time>
      </trkpt>
      <trkpt lat="38.85450667" lon="1.387805">
        <ele>-2.0</ele>
        <time>2020-06-22T09:39:12.764Z</time>
      </trkpt>
      <trkpt lat="38.85450667" lon="1.387805">
        <ele>-2.0</ele>
        <time>2020-06-22T09:39:13.771Z</time>
      </trkpt>
      <trkpt lat="38.85464167" lon="1.38771667">
        <ele>-2.0</ele>
        <time>2020-06-22T09:39:14.778Z</time>
      </trkpt>
      <trkpt lat="38.85471167" lon="1.387665">
        <ele>-1.0</ele>
        <time>2020-06-22T09:39:15.765Z</time>
      </trkpt>
      <trkpt lat="38.85471167" lon="1.387665">
        <ele>-1.0</ele>
        <time>2020-06-22T09:39:16.772Z</time>
      </trkpt>
      <trkpt lat="38.85485" lon="1.38757167">
        <ele>0.0</ele>
        <time>2020-06-22T09:39:17.780Z</time>
      </trkpt>
      <trkpt lat="38.85485" lon="1.38757167">
        <ele>0.0</ele>
        <time>2020-06-22T09:39:18.786Z</time>
      </trkpt>
      <trkpt lat="38.85498333" lon="1.38747833">
        <ele>0.0</ele>
        <time>2020-06-22T09:39:19.765Z</time>
      </trkpt>
      <trkpt lat="38.85498333" lon="1.38747833">
        <ele>0.0</ele>
        <time>2020-06-22T09:39:20.770Z</time>
      </trkpt>
      <trkpt lat="38.855115" lon="1.38738333">
        <ele>0.0</ele>
        <time>2020-06-22T09:39:21.777Z</time>
      </trkpt>
      <trkpt lat="38.855115" lon="1.38738333">
        <ele>0.0</ele>
        <time>2020-06-22T09:39:22.782Z</time>
      </trkpt>
      <trkpt lat="38.85525167" lon="1.38729">
        <ele>0.0</ele>
        <time>2020-06-22T09:39:23.765Z</time>
      </trkpt>
      <trkpt lat="38.85525167" lon="1.38729">
        <ele>0.0</ele>
        <time>2020-06-22T09:39:24.770Z</time>
      </trkpt>
      <trkpt lat="38.85539167" lon="1.38719667">
        <ele>0.0</ele>
        <time>2020-06-22T09:39:25.785Z</time>
      </trkpt>
      <trkpt lat="38.85539167" lon="1.38719667">
        <ele>0.0</ele>
        <time>2020-06-22T09:39:26.759Z</time>
      </trkpt>
      <trkpt lat="38.85553" lon="1.38710333">
        <ele>0.0</ele>
        <time>2020-06-22T09:39:27.763Z</time>
      </trkpt>
      <trkpt lat="38.85559833" lon="1.38705667">
        <ele>0.0</ele>
        <time>2020-06-22T09:39:28.749Z</time>
      </trkpt>
      <trkpt lat="38.85559833" lon="1.38705667">
        <ele>0.0</ele>
        <time>2020-06-22T09:39:29.757Z</time>
      </trkpt>
      <trkpt lat="38.85574" lon="1.38696333">
        <ele>0.0</ele>
        <time>2020-06-22T09:39:30.764Z</time>
      </trkpt>
      <trkpt lat="38.85574" lon="1.38696333">
        <ele>0.0</ele>
        <time>2020-06-22T09:39:31.769Z</time>
      </trkpt>
      <trkpt lat="38.85588167" lon="1.38686833">
        <ele>0.0</ele>
        <time>2020-06-22T09:39:32.760Z</time>
      </trkpt>
      <trkpt lat="38.85588167" lon="1.38686833">
        <ele>0.0</ele>
        <time>2020-06-22T09:39:33.766Z</time>
      </trkpt>
      <trkpt lat="38.85602333" lon="1.38677">
        <ele>0.0</ele>
        <time>2020-06-22T09:39:34.772Z</time>
      </trkpt>
      <trkpt lat="38.85602333" lon="1.38677">
        <ele>0.0</ele>
        <time>2020-06-22T09:39:35.778Z</time>
      </trkpt>
      <trkpt lat="38.85616" lon="1.38667">
        <ele>0.0</ele>
        <time>2020-06-22T09:39:36.762Z</time>
      </trkpt>
      <trkpt lat="38.85616" lon="1.38667">
        <ele>0.0</ele>
        <time>2020-06-22T09:39:37.768Z</time>
      </trkpt>
      <trkpt lat="38.8563" lon="1.38657833">
        <ele>1.0</ele>
        <time>2020-06-22T09:39:38.775Z</time>
      </trkpt>
      <trkpt lat="38.85637" lon="1.38653">
        <ele>1.0</ele>
        <time>2020-06-22T09:39:39.781Z</time>
      </trkpt>
      <trkpt lat="38.85637" lon="1.38653">
        <ele>1.0</ele>
        <time>2020-06-22T09:39:40.776Z</time>
      </trkpt>
      <trkpt lat="38.85651" lon="1.386435">
        <ele>1.0</ele>
        <time>2020-06-22T09:39:41.773Z</time>
      </trkpt>
      <trkpt lat="38.85658" lon="1.38639">
        <ele>1.0</ele>
        <time>2020-06-22T09:39:42.767Z</time>
      </trkpt>
      <trkpt lat="38.85658" lon="1.38639">
        <ele>1.0</ele>
        <time>2020-06-22T09:39:43.773Z</time>
      </trkpt>
      <trkpt lat="38.85672" lon="1.38629833">
        <ele>1.0</ele>
        <time>2020-06-22T09:39:44.780Z</time>
      </trkpt>
      <trkpt lat="38.85679167" lon="1.38625333">
        <ele>1.0</ele>
        <time>2020-06-22T09:39:45.763Z</time>
      </trkpt>
      <trkpt lat="38.85686" lon="1.38621">
        <ele>1.0</ele>
        <time>2020-06-22T09:39:46.769Z</time>
      </trkpt>
      <trkpt lat="38.85686" lon="1.38621">
        <ele>1.0</ele>
        <time>2020-06-22T09:39:47.776Z</time>
      </trkpt>
      <trkpt lat="38.857005" lon="1.38613333">
        <ele>1.0</ele>
        <time>2020-06-22T09:39:48.764Z</time>
      </trkpt>
      <trkpt lat="38.857005" lon="1.38613333">
        <ele>1.0</ele>
        <time>2020-06-22T09:39:49.770Z</time>
      </trkpt>
      <trkpt lat="38.85715833" lon="1.38607167">
        <ele>0.0</ele>
        <time>2020-06-22T09:39:50.764Z</time>
      </trkpt>
      <trkpt lat="38.85715833" lon="1.38607167">
        <ele>0.0</ele>
        <time>2020-06-22T09:39:51.770Z</time>
      </trkpt>
      <trkpt lat="38.85732" lon="1.38603167">
        <ele>-1.0</ele>
        <time>2020-06-22T09:39:52.772Z</time>
      </trkpt>
      <trkpt lat="38.85732" lon="1.38603167">
        <ele>-1.0</ele>
        <time>2020-06-22T09:39:53.778Z</time>
      </trkpt>
      <trkpt lat="38.85748333" lon="1.38601667">
        <ele>-1.0</ele>
        <time>2020-06-22T09:39:54.785Z</time>
      </trkpt>
      <trkpt lat="38.85748333" lon="1.38601667">
        <ele>-1.0</ele>
        <time>2020-06-22T09:39:55.754Z</time>
      </trkpt>
      <trkpt lat="38.85765" lon="1.386015">
        <ele>-1.0</ele>
        <time>2020-06-22T09:39:56.779Z</time>
      </trkpt>
      <trkpt lat="38.85773167" lon="1.38601833">
        <ele>-1.0</ele>
        <time>2020-06-22T09:39:57.785Z</time>
      </trkpt>
      <trkpt lat="38.85773167" lon="1.38601833">
        <ele>-1.0</ele>
        <time>2020-06-22T09:39:58.757Z</time>
      </trkpt>
      <trkpt lat="38.85790167" lon="1.38603333">
        <ele>-1.0</ele>
        <time>2020-06-22T09:39:59.761Z</time>
      </trkpt>
      <trkpt lat="38.85790167" lon="1.38603333">
        <ele>-1.0</ele>
        <time>2020-06-22T09:40:00.767Z</time>
      </trkpt>
      <trkpt lat="38.85807167" lon="1.38605">
        <ele>-2.0</ele>
        <time>2020-06-22T09:40:01.778Z</time>
      </trkpt>
      <trkpt lat="38.85807167" lon="1.38605">
        <ele>-2.0</ele>
        <time>2020-06-22T09:40:02.784Z</time>
      </trkpt>
      <trkpt lat="38.858235" lon="1.38606833">
        <ele>-2.0</ele>
        <time>2020-06-22T09:40:03.749Z</time>
      </trkpt>
      <trkpt lat="38.858235" lon="1.38606833">
        <ele>-2.0</ele>
        <time>2020-06-22T09:40:04.758Z</time>
      </trkpt>
      <trkpt lat="38.85839667" lon="1.3861">
        <ele>-3.0</ele>
        <time>2020-06-22T09:40:05.786Z</time>
      </trkpt>
      <trkpt lat="38.85848667" lon="1.38612667">
        <ele>-3.0</ele>
        <time>2020-06-22T09:40:06.784Z</time>
      </trkpt>
      <trkpt lat="38.85848667" lon="1.38612667">
        <ele>-3.0</ele>
        <time>2020-06-22T09:40:07.749Z</time>
      </trkpt>
      <trkpt lat="38.85864333" lon="1.38616667">
        <ele>-3.0</ele>
        <time>2020-06-22T09:40:08.757Z</time>
      </trkpt>
      <trkpt lat="38.85872167" lon="1.38619">
        <ele>-2.0</ele>
        <time>2020-06-22T09:40:09.772Z</time>
      </trkpt>
      <trkpt lat="38.85872167" lon="1.38619">
        <ele>-2.0</ele>
        <time>2020-06-22T09:40:10.778Z</time>
      </trkpt>
      <trkpt lat="38.85887833" lon="1.38625">
        <ele>-2.0</ele>
        <time>2020-06-22T09:40:11.786Z</time>
      </trkpt>
      <trkpt lat="38.85887833" lon="1.38625">
        <ele>-2.0</ele>
        <time>2020-06-22T09:40:12.758Z</time>
      </trkpt>
      <trkpt lat="38.85903" lon="1.38633333">
        <ele>-2.0</ele>
        <time>2020-06-22T09:40:13.765Z</time>
      </trkpt>
      <trkpt lat="38.85903" lon="1.38633333">
        <ele>-2.0</ele>
        <time>2020-06-22T09:40:14.770Z</time>
      </trkpt>
      <trkpt lat="38.85917833" lon="1.38642167">
        <ele>-2.0</ele>
        <time>2020-06-22T09:40:15.777Z</time>
      </trkpt>
      <trkpt lat="38.85917833" lon="1.38642167">
        <ele>-2.0</ele>
        <time>2020-06-22T09:40:16.783Z</time>
      </trkpt>
      <trkpt lat="38.85932667" lon="1.38652">
        <ele>-2.0</ele>
        <time>2020-06-22T09:40:17.772Z</time>
      </trkpt>
      <trkpt lat="38.85932667" lon="1.38652">
        <ele>-2.0</ele>
        <time>2020-06-22T09:40:18.777Z</time>
      </trkpt>
      <trkpt lat="38.85948" lon="1.38661167">
        <ele>-2.0</ele>
        <time>2020-06-22T09:40:19.784Z</time>
      </trkpt>
      <trkpt lat="38.85948" lon="1.38661167">
        <ele>-2.0</ele>
        <time>2020-06-22T09:40:20.749Z</time>
      </trkpt>
      <trkpt lat="38.85963333" lon="1.38670333">
        <ele>-1.0</ele>
        <time>2020-06-22T09:40:21.775Z</time>
      </trkpt>
      <trkpt lat="38.85970833" lon="1.38675">
        <ele>-1.0</ele>
        <time>2020-06-22T09:40:22.781Z</time>
      </trkpt>
      <trkpt lat="38.85970833" lon="1.38675">
        <ele>-1.0</ele>
        <time>2020-06-22T09:40:23.787Z</time>
      </trkpt>
      <trkpt lat="38.85985667" lon="1.38684833">
        <ele>-1.0</ele>
        <time>2020-06-22T09:40:24.758Z</time>
      </trkpt>
      <trkpt lat="38.85985667" lon="1.38684833">
        <ele>-1.0</ele>
        <time>2020-06-22T09:40:25.774Z</time>
      </trkpt>
      <trkpt lat="38.86000167" lon="1.38695">
        <ele>-1.0</ele>
        <time>2020-06-22T09:40:26.769Z</time>
      </trkpt>
      <trkpt lat="38.86000167" lon="1.38695">
        <ele>-1.0</ele>
        <time>2020-06-22T09:40:27.775Z</time>
      </trkpt>
      <trkpt lat="38.86014833" lon="1.38705333">
        <ele>-2.0</ele>
        <time>2020-06-22T09:40:28.754Z</time>
      </trkpt>
      <trkpt lat="38.86014833" lon="1.38705333">
        <ele>-2.0</ele>
        <time>2020-06-22T09:40:29.759Z</time>
      </trkpt>
      <trkpt lat="38.860295" lon="1.38715167">
        <ele>-2.0</ele>
        <time>2020-06-22T09:40:30.754Z</time>
      </trkpt>
      <trkpt lat="38.860295" lon="1.38715167">
        <ele>-2.0</ele>
        <time>2020-06-22T09:40:31.760Z</time>
      </trkpt>
      <trkpt lat="38.86044333" lon="1.38724667">
        <ele>-2.0</ele>
        <time>2020-06-22T09:40:32.770Z</time>
      </trkpt>
      <trkpt lat="38.86044333" lon="1.38724667">
        <ele>-2.0</ele>
        <time>2020-06-22T09:40:33.775Z</time>
      </trkpt>
      <trkpt lat="38.86059333" lon="1.38733833">
        <ele>-2.0</ele>
        <time>2020-06-22T09:40:34.754Z</time>
      </trkpt>
      <trkpt lat="38.86059333" lon="1.38733833">
        <ele>-2.0</ele>
        <time>2020-06-22T09:40:35.760Z</time>
      </trkpt>
      <trkpt lat="38.860745" lon="1.38742333">
        <ele>-2.0</ele>
        <time>2020-06-22T09:40:36.767Z</time>
      </trkpt>
      <trkpt lat="38.860745" lon="1.38742333">
        <ele>-2.0</ele>
        <time>2020-06-22T09:40:37.774Z</time>
      </trkpt>
      <trkpt lat="38.86089333" lon="1.387515">
        <ele>-1.0</ele>
        <time>2020-06-22T09:40:38.785Z</time>
      </trkpt>
      <trkpt lat="38.86089333" lon="1.387515">
        <ele>-1.0</ele>
        <time>2020-06-22T09:40:39.751Z</time>
      </trkpt>
      <trkpt lat="38.86104" lon="1.38760167">
        <ele>-1.0</ele>
        <time>2020-06-22T09:40:40.759Z</time>
      </trkpt>
      <trkpt lat="38.86111167" lon="1.38764833">
        <ele>-1.0</ele>
        <time>2020-06-22T09:40:41.765Z</time>
      </trkpt>
      <trkpt lat="38.861185" lon="1.387695">
        <ele>-1.0</ele>
        <time>2020-06-22T09:40:42.751Z</time>
      </trkpt>
      <trkpt lat="38.861185" lon="1.387695">
        <ele>-1.0</ele>
        <time>2020-06-22T09:40:43.757Z</time>
      </trkpt>
      <trkpt lat="38.861325" lon="1.387785">
        <ele>-1.0</ele>
        <time>2020-06-22T09:40:44.764Z</time>
      </trkpt>
      <trkpt lat="38.86139833" lon="1.38782667">
        <ele>-1.0</ele>
        <time>2020-06-22T09:40:45.770Z</time>
      </trkpt>
      <trkpt lat="38.86139833" lon="1.38782667">
        <ele>-1.0</ele>
        <time>2020-06-22T09:40:46.775Z</time>
      </trkpt>
      <trkpt lat="38.86153833" lon="1.38791">
        <ele>-1.0</ele>
        <time>2020-06-22T09:40:47.758Z</time>
      </trkpt>
      <trkpt lat="38.86153833" lon="1.38791">
        <ele>-1.0</ele>
        <time>2020-06-22T09:40:48.764Z</time>
      </trkpt>
      <trkpt lat="38.861675" lon="1.387985">
        <ele>-2.0</ele>
        <time>2020-06-22T09:40:49.778Z</time>
      </trkpt>
      <trkpt lat="38.861675" lon="1.387985">
        <ele>-2.0</ele>
        <time>2020-06-22T09:40:50.783Z</time>
      </trkpt>
      <trkpt lat="38.86181833" lon="1.38804833">
        <ele>-2.0</ele>
        <time>2020-06-22T09:40:51.773Z</time>
      </trkpt>
      <trkpt lat="38.86181833" lon="1.38804833">
        <ele>-2.0</ele>
        <time>2020-06-22T09:40:52.779Z</time>
      </trkpt>
      <trkpt lat="38.86196333" lon="1.38810333">
        <ele>-2.0</ele>
        <time>2020-06-22T09:40:53.786Z</time>
      </trkpt>
      <trkpt lat="38.86203667" lon="1.38813167">
        <ele>-2.0</ele>
        <time>2020-06-22T09:40:54.757Z</time>
      </trkpt>
      <trkpt lat="38.86203667" lon="1.38813167">
        <ele>-2.0</ele>
        <time>2020-06-22T09:40:55.762Z</time>
      </trkpt>
      <trkpt lat="38.86218333" lon="1.38817667">
        <ele>-1.0</ele>
        <time>2020-06-22T09:40:56.769Z</time>
      </trkpt>
      <trkpt lat="38.86218333" lon="1.38817667">
        <ele>-1.0</ele>
        <time>2020-06-22T09:40:57.776Z</time>
      </trkpt>
      <trkpt lat="38.86233" lon="1.38822667">
        <ele>-1.0</ele>
        <time>2020-06-22T09:40:58.770Z</time>
      </trkpt>
      <trkpt lat="38.86233" lon="1.38822667">
        <ele>-1.0</ele>
        <time>2020-06-22T09:40:59.776Z</time>
      </trkpt>
      <trkpt lat="38.86247667" lon="1.38827667">
        <ele>0.0</ele>
        <time>2020-06-22T09:41:00.786Z</time>
      </trkpt>
      <trkpt lat="38.86247667" lon="1.38827667">
        <ele>0.0</ele>
        <time>2020-06-22T09:41:01.757Z</time>
      </trkpt>
      <trkpt lat="38.86262667" lon="1.38832833">
        <ele>0.0</ele>
        <time>2020-06-22T09:41:02.762Z</time>
      </trkpt>
      <trkpt lat="38.86262667" lon="1.38832833">
        <ele>0.0</ele>
        <time>2020-06-22T09:41:03.767Z</time>
      </trkpt>
      <trkpt lat="38.862775" lon="1.38838">
        <ele>0.0</ele>
        <time>2020-06-22T09:41:04.774Z</time>
      </trkpt>
      <trkpt lat="38.862775" lon="1.38838">
        <ele>0.0</ele>
        <time>2020-06-22T09:41:05.759Z</time>
      </trkpt>
      <trkpt lat="38.86292333" lon="1.38842833">
        <ele>0.0</ele>
        <time>2020-06-22T09:41:06.756Z</time>
      </trkpt>
      <trkpt lat="38.86292333" lon="1.38842833">
        <ele>0.0</ele>
        <time>2020-06-22T09:41:07.761Z</time>
      </trkpt>
      <trkpt lat="38.86307167" lon="1.388475">
        <ele>0.0</ele>
        <time>2020-06-22T09:41:08.770Z</time>
      </trkpt>
      <trkpt lat="38.863145" lon="1.3885">
        <ele>0.0</ele>
        <time>2020-06-22T09:41:09.776Z</time>
      </trkpt>
      <trkpt lat="38.863145" lon="1.3885">
        <ele>0.0</ele>
        <time>2020-06-22T09:41:10.781Z</time>
      </trkpt>
      <trkpt lat="38.86329167" lon="1.38855167">
        <ele>0.0</ele>
        <time>2020-06-22T09:41:11.762Z</time>
      </trkpt>
      <trkpt lat="38.86329167" lon="1.38855167">
        <ele>0.0</ele>
        <time>2020-06-22T09:41:12.768Z</time>
      </trkpt>
      <trkpt lat="38.86343333" lon="1.38860333">
        <ele>0.0</ele>
        <time>2020-06-22T09:41:13.779Z</time>
      </trkpt>
      <trkpt lat="38.86343333" lon="1.38860333">
        <ele>0.0</ele>
        <time>2020-06-22T09:41:14.784Z</time>
      </trkpt>
      <trkpt lat="38.86357667" lon="1.388655">
        <ele>0.0</ele>
        <time>2020-06-22T09:41:15.761Z</time>
      </trkpt>
      <trkpt lat="38.86357667" lon="1.388655">
        <ele>0.0</ele>
        <time>2020-06-22T09:41:16.767Z</time>
      </trkpt>
      <trkpt lat="38.86372" lon="1.388705">
        <ele>1.0</ele>
        <time>2020-06-22T09:41:17.773Z</time>
      </trkpt>
      <trkpt lat="38.86379333" lon="1.38873">
        <ele>1.0</ele>
        <time>2020-06-22T09:41:18.765Z</time>
      </trkpt>
      <trkpt lat="38.86379333" lon="1.38873">
        <ele>1.0</ele>
        <time>2020-06-22T09:41:19.770Z</time>
      </trkpt>
      <trkpt lat="38.86393667" lon="1.38878333">
        <ele>1.0</ele>
        <time>2020-06-22T09:41:20.776Z</time>
      </trkpt>
      <trkpt lat="38.86393667" lon="1.38878333">
        <ele>1.0</ele>
        <time>2020-06-22T09:41:21.781Z</time>
      </trkpt>
      <trkpt lat="38.86408" lon="1.38883667">
        <ele>1.0</ele>
        <time>2020-06-22T09:41:22.769Z</time>
      </trkpt>
      <trkpt lat="38.86408" lon="1.38883667">
        <ele>1.0</ele>
        <time>2020-06-22T09:41:23.774Z</time>
      </trkpt>
      <trkpt lat="38.86422333" lon="1.388895">
        <ele>1.0</ele>
        <time>2020-06-22T09:41:24.780Z</time>
      </trkpt>
      <trkpt lat="38.86422333" lon="1.388895">
        <ele>1.0</ele>
        <time>2020-06-22T09:41:25.786Z</time>
      </trkpt>
      <trkpt lat="38.86436667" lon="1.38895">
        <ele>1.0</ele>
        <time>2020-06-22T09:41:26.778Z</time>
      </trkpt>
      <trkpt lat="38.86436667" lon="1.38895">
        <ele>1.0</ele>
        <time>2020-06-22T09:41:27.783Z</time>
      </trkpt>
      <trkpt lat="38.86451" lon="1.38900333">
        <ele>1.0</ele>
        <time>2020-06-22T09:41:28.750Z</time>
      </trkpt>
      <trkpt lat="38.86451" lon="1.38900333">
        <ele>1.0</ele>
        <time>2020-06-22T09:41:29.768Z</time>
      </trkpt>
      <trkpt lat="38.864655" lon="1.38904167">
        <ele>1.0</ele>
        <time>2020-06-22T09:41:30.766Z</time>
      </trkpt>
      <trkpt lat="38.864655" lon="1.38904167">
        <ele>1.0</ele>
        <time>2020-06-22T09:41:31.771Z</time>
      </trkpt>
      <trkpt lat="38.86480167" lon="1.389075">
        <ele>1.0</ele>
        <time>2020-06-22T09:41:32.778Z</time>
      </trkpt>
      <trkpt lat="38.86487333" lon="1.38909333">
        <ele>1.0</ele>
        <time>2020-06-22T09:41:33.769Z</time>
      </trkpt>
      <trkpt lat="38.86487333" lon="1.38909333">
        <ele>1.0</ele>
        <time>2020-06-22T09:41:34.775Z</time>
      </trkpt>
      <trkpt lat="38.86501833" lon="1.38912667">
        <ele>1.0</ele>
        <time>2020-06-22T09:41:35.781Z</time>
      </trkpt>
      <trkpt lat="38.86509167" lon="1.38914167">
        <ele>1.0</ele>
        <time>2020-06-22T09:41:36.768Z</time>
      </trkpt>
      <trkpt lat="38.86509167" lon="1.38914167">
        <ele>1.0</ele>
        <time>2020-06-22T09:41:37.774Z</time>
      </trkpt>
      <trkpt lat="38.86523833" lon="1.38917333">
        <ele>1.0</ele>
        <time>2020-06-22T09:41:38.781Z</time>
      </trkpt>
      <trkpt lat="38.86531167" lon="1.38919">
        <ele>1.0</ele>
        <time>2020-06-22T09:41:39.779Z</time>
      </trkpt>
      <trkpt lat="38.86531167" lon="1.38919">
        <ele>1.0</ele>
        <time>2020-06-22T09:41:40.785Z</time>
      </trkpt>
      <trkpt lat="38.86546167" lon="1.38922167">
        <ele>1.0</ele>
        <time>2020-06-22T09:41:41.752Z</time>
      </trkpt>
      <trkpt lat="38.86553833" lon="1.38923667">
        <ele>0.0</ele>
        <time>2020-06-22T09:41:42.770Z</time>
      </trkpt>
      <trkpt lat="38.86553833" lon="1.38923667">
        <ele>0.0</ele>
        <time>2020-06-22T09:41:43.776Z</time>
      </trkpt>
      <trkpt lat="38.86569" lon="1.38927">
        <ele>0.0</ele>
        <time>2020-06-22T09:41:44.783Z</time>
      </trkpt>
      <trkpt lat="38.86569" lon="1.38927">
        <ele>0.0</ele>
        <time>2020-06-22T09:41:45.788Z</time>
      </trkpt>
      <trkpt lat="38.86584167" lon="1.38930333">
        <ele>0.0</ele>
        <time>2020-06-22T09:41:46.778Z</time>
      </trkpt>
      <trkpt lat="38.86584167" lon="1.38930333">
        <ele>0.0</ele>
        <time>2020-06-22T09:41:47.784Z</time>
      </trkpt>
      <trkpt lat="38.865995" lon="1.38933667">
        <ele>0.0</ele>
        <time>2020-06-22T09:41:48.750Z</time>
      </trkpt>
      <trkpt lat="38.865995" lon="1.38933667">
        <ele>0.0</ele>
        <time>2020-06-22T09:41:49.758Z</time>
      </trkpt>
      <trkpt lat="38.86614667" lon="1.38937167">
        <ele>-1.0</ele>
        <time>2020-06-22T09:41:50.756Z</time>
      </trkpt>
      <trkpt lat="38.86614667" lon="1.38937167">
        <ele>-1.0</ele>
        <time>2020-06-22T09:41:51.763Z</time>
      </trkpt>
      <trkpt lat="38.86630167" lon="1.38940333">
        <ele>-1.0</ele>
        <time>2020-06-22T09:41:52.778Z</time>
      </trkpt>
      <trkpt lat="38.86630167" lon="1.38940333">
        <ele>-1.0</ele>
        <time>2020-06-22T09:41:53.783Z</time>
      </trkpt>
      <trkpt lat="38.866455" lon="1.38943167">
        <ele>-1.0</ele>
        <time>2020-06-22T09:41:54.775Z</time>
      </trkpt>
      <trkpt lat="38.866455" lon="1.38943167">
        <ele>-1.0</ele>
        <time>2020-06-22T09:41:55.780Z</time>
      </trkpt>
      <trkpt lat="38.86660833" lon="1.38946">
        <ele>-1.0</ele>
        <time>2020-06-22T09:41:56.787Z</time>
      </trkpt>
      <trkpt lat="38.86668333" lon="1.38947333">
        <ele>-1.0</ele>
        <time>2020-06-22T09:41:57.771Z</time>
      </trkpt>
      <trkpt lat="38.86675833" lon="1.389485">
        <ele>-1.0</ele>
        <time>2020-06-22T09:41:58.777Z</time>
      </trkpt>
      <trkpt lat="38.86675833" lon="1.389485">
        <ele>-1.0</ele>
        <time>2020-06-22T09:41:59.783Z</time>
      </trkpt>
      <trkpt lat="38.86690667" lon="1.3895">
        <ele>-1.0</ele>
        <time>2020-06-22T09:42:00.772Z</time>
      </trkpt>
      <trkpt lat="38.86690667" lon="1.3895">
        <ele>-1.0</ele>
        <time>2020-06-22T09:42:01.778Z</time>
      </trkpt>
      <trkpt lat="38.86705333" lon="1.38950667">
        <ele>-1.0</ele>
        <time>2020-06-22T09:42:02.784Z</time>
      </trkpt>
      <trkpt lat="38.86705333" lon="1.38950667">
        <ele>-1.0</ele>
        <time>2020-06-22T09:42:03.751Z</time>
      </trkpt>
      <trkpt lat="38.86720167" lon="1.38950167">
        <ele>-1.0</ele>
        <time>2020-06-22T09:42:04.775Z</time>
      </trkpt>
      <trkpt lat="38.86720167" lon="1.38950167">
        <ele>-1.0</ele>
        <time>2020-06-22T09:42:05.752Z</time>
      </trkpt>
      <trkpt lat="38.86734833" lon="1.38948333">
        <ele>-1.0</ele>
        <time>2020-06-22T09:42:06.787Z</time>
      </trkpt>
      <trkpt lat="38.86742" lon="1.38947167">
        <ele>-2.0</ele>
        <time>2020-06-22T09:42:07.754Z</time>
      </trkpt>
      <trkpt lat="38.86742" lon="1.38947167">
        <ele>-2.0</ele>
        <time>2020-06-22T09:42:08.760Z</time>
      </trkpt>
      <trkpt lat="38.86757" lon="1.38945">
        <ele>-1.0</ele>
        <time>2020-06-22T09:42:09.776Z</time>
      </trkpt>
      <trkpt lat="38.86757" lon="1.38945">
        <ele>-1.0</ele>
        <time>2020-06-22T09:42:10.773Z</time>
      </trkpt>
      <trkpt lat="38.86772333" lon="1.389425">
        <ele>-2.0</ele>
        <time>2020-06-22T09:42:11.777Z</time>
      </trkpt>
      <trkpt lat="38.8678" lon="1.38941167">
        <ele>-2.0</ele>
        <time>2020-06-22T09:42:12.786Z</time>
      </trkpt>
      <trkpt lat="38.8678" lon="1.38941167">
        <ele>-2.0</ele>
        <time>2020-06-22T09:42:13.755Z</time>
      </trkpt>
      <trkpt lat="38.86795667" lon="1.38938">
        <ele>-2.0</ele>
        <time>2020-06-22T09:42:14.780Z</time>
      </trkpt>
      <trkpt lat="38.86803667" lon="1.389365">
        <ele>-2.0</ele>
        <time>2020-06-22T09:42:15.786Z</time>
      </trkpt>
      <trkpt lat="38.86803667" lon="1.389365">
        <ele>-2.0</ele>
        <time>2020-06-22T09:42:16.751Z</time>
      </trkpt>
      <trkpt lat="38.86819167" lon="1.38933833">
        <ele>-2.0</ele>
        <time>2020-06-22T09:42:17.774Z</time>
      </trkpt>
      <trkpt lat="38.86819167" lon="1.38933833">
        <ele>-2.0</ele>
        <time>2020-06-22T09:42:18.779Z</time>
      </trkpt>
      <trkpt lat="38.868345" lon="1.38931333">
        <ele>-2.0</ele>
        <time>2020-06-22T09:42:19.786Z</time>
      </trkpt>
      <trkpt lat="38.868345" lon="1.38931333">
        <ele>-2.0</ele>
        <time>2020-06-22T09:42:20.759Z</time>
      </trkpt>
      <trkpt lat="38.86849667" lon="1.38929167">
        <ele>-2.0</ele>
        <time>2020-06-22T09:42:21.779Z</time>
      </trkpt>
      <trkpt lat="38.86857167" lon="1.38928">
        <ele>-2.0</ele>
        <time>2020-06-22T09:42:22.785Z</time>
      </trkpt>
      <trkpt lat="38.86857167" lon="1.38928">
        <ele>-2.0</ele>
        <time>2020-06-22T09:42:23.754Z</time>
      </trkpt>
      <trkpt lat="38.86872" lon="1.38925833">
        <ele>-2.0</ele>
        <time>2020-06-22T09:42:24.763Z</time>
      </trkpt>
      <trkpt lat="38.86872" lon="1.38925833">
        <ele>-2.0</ele>
        <time>2020-06-22T09:42:25.769Z</time>
      </trkpt>
      <trkpt lat="38.86886833" lon="1.38923333">
        <ele>-2.0</ele>
        <time>2020-06-22T09:42:26.753Z</time>
      </trkpt>
      <trkpt lat="38.86886833" lon="1.38923333">
        <ele>-2.0</ele>
        <time>2020-06-22T09:42:27.759Z</time>
      </trkpt>
      <trkpt lat="38.869015" lon="1.389215">
        <ele>-3.0</ele>
        <time>2020-06-22T09:42:28.778Z</time>
      </trkpt>
      <trkpt lat="38.869015" lon="1.389215">
        <ele>-3.0</ele>
        <time>2020-06-22T09:42:29.783Z</time>
      </trkpt>
      <trkpt lat="38.86916333" lon="1.38920667">
        <ele>-2.0</ele>
        <time>2020-06-22T09:42:30.786Z</time>
      </trkpt>
      <trkpt lat="38.86916333" lon="1.38920667">
        <ele>-2.0</ele>
        <time>2020-06-22T09:42:31.751Z</time>
      </trkpt>
      <trkpt lat="38.86931" lon="1.38921">
        <ele>-2.0</ele>
        <time>2020-06-22T09:42:32.760Z</time>
      </trkpt>
      <trkpt lat="38.86931" lon="1.38921">
        <ele>-2.0</ele>
        <time>2020-06-22T09:42:33.766Z</time>
      </trkpt>
      <trkpt lat="38.86945833" lon="1.38922667">
        <ele>-2.0</ele>
        <time>2020-06-22T09:42:34.752Z</time>
      </trkpt>
      <trkpt lat="38.86945833" lon="1.38922667">
        <ele>-2.0</ele>
        <time>2020-06-22T09:42:35.758Z</time>
      </trkpt>
      <trkpt lat="38.869605" lon="1.38925667">
        <ele>-2.0</ele>
        <time>2020-06-22T09:42:36.767Z</time>
      </trkpt>
      <trkpt lat="38.869605" lon="1.38925667">
        <ele>-2.0</ele>
        <time>2020-06-22T09:42:37.780Z</time>
      </trkpt>
      <trkpt lat="38.86974667" lon="1.3893">
        <ele>-2.0</ele>
        <time>2020-06-22T09:42:38.759Z</time>
      </trkpt>
      <trkpt lat="38.86974667" lon="1.3893">
        <ele>-2.0</ele>
        <time>2020-06-22T09:42:39.764Z</time>
      </trkpt>
      <trkpt lat="38.86988833" lon="1.38934667">
        <ele>-3.0</ele>
        <time>2020-06-22T09:42:40.771Z</time>
      </trkpt>
      <trkpt lat="38.86995833" lon="1.38937">
        <ele>-3.0</ele>
        <time>2020-06-22T09:42:41.786Z</time>
      </trkpt>
      <trkpt lat="38.87002667" lon="1.38939667">
        <ele>-3.0</ele>
        <time>2020-06-22T09:42:42.756Z</time>
      </trkpt>
      <trkpt lat="38.87002667" lon="1.38939667">
        <ele>-3.0</ele>
        <time>2020-06-22T09:42:43.761Z</time>
      </trkpt>
      <trkpt lat="38.87016667" lon="1.38944833">
        <ele>-3.0</ele>
        <time>2020-06-22T09:42:44.770Z</time>
      </trkpt>
      <trkpt lat="38.87016667" lon="1.38944833">
        <ele>-3.0</ele>
        <time>2020-06-22T09:42:45.775Z</time>
      </trkpt>
      <trkpt lat="38.870305" lon="1.38950167">
        <ele>-3.0</ele>
        <time>2020-06-22T09:42:46.757Z</time>
      </trkpt>
      <trkpt lat="38.870305" lon="1.38950167">
        <ele>-3.0</ele>
        <time>2020-06-22T09:42:47.763Z</time>
      </trkpt>
      <trkpt lat="38.87044333" lon="1.38955">
        <ele>-3.0</ele>
        <time>2020-06-22T09:42:48.769Z</time>
      </trkpt>
      <trkpt lat="38.87044333" lon="1.38955">
        <ele>-3.0</ele>
        <time>2020-06-22T09:42:49.775Z</time>
      </trkpt>
      <trkpt lat="38.87058" lon="1.38960333">
        <ele>-3.0</ele>
        <time>2020-06-22T09:42:50.775Z</time>
      </trkpt>
      <trkpt lat="38.87058" lon="1.38960333">
        <ele>-3.0</ele>
        <time>2020-06-22T09:42:51.780Z</time>
      </trkpt>
      <trkpt lat="38.87071833" lon="1.389655">
        <ele>-3.0</ele>
        <time>2020-06-22T09:42:52.751Z</time>
      </trkpt>
      <trkpt lat="38.87071833" lon="1.389655">
        <ele>-3.0</ele>
        <time>2020-06-22T09:42:53.758Z</time>
      </trkpt>
      <trkpt lat="38.87085833" lon="1.389705">
        <ele>-3.0</ele>
        <time>2020-06-22T09:42:54.777Z</time>
      </trkpt>
      <trkpt lat="38.87085833" lon="1.389705">
        <ele>-3.0</ele>
        <time>2020-06-22T09:42:55.783Z</time>
      </trkpt>
      <trkpt lat="38.870995" lon="1.38975667">
        <ele>-3.0</ele>
        <time>2020-06-22T09:42:56.750Z</time>
      </trkpt>
      <trkpt lat="38.870995" lon="1.38975667">
        <ele>-3.0</ele>
        <time>2020-06-22T09:42:57.765Z</time>
      </trkpt>
      <trkpt lat="38.87113333" lon="1.38980667">
        <ele>-3.0</ele>
        <time>2020-06-22T09:42:58.769Z</time>
      </trkpt>
      <trkpt lat="38.87113333" lon="1.38980667">
        <ele>-3.0</ele>
        <time>2020-06-22T09:42:59.774Z</time>
      </trkpt>
      <trkpt lat="38.87127167" lon="1.38985333">
        <ele>-3.0</ele>
        <time>2020-06-22T09:43:00.787Z</time>
      </trkpt>
      <trkpt lat="38.87127167" lon="1.38985333">
        <ele>-3.0</ele>
        <time>2020-06-22T09:43:01.758Z</time>
      </trkpt>
      <trkpt lat="38.87141167" lon="1.389905">
        <ele>-3.0</ele>
        <time>2020-06-22T09:43:02.769Z</time>
      </trkpt>
      <trkpt lat="38.87141167" lon="1.389905">
        <ele>-3.0</ele>
        <time>2020-06-22T09:43:03.775Z</time>
      </trkpt>
      <trkpt lat="38.87155" lon="1.389955">
        <ele>-3.0</ele>
        <time>2020-06-22T09:43:04.783Z</time>
      </trkpt>
      <trkpt lat="38.87155" lon="1.389955">
        <ele>-3.0</ele>
        <time>2020-06-22T09:43:05.753Z</time>
      </trkpt>
      <trkpt lat="38.87168833" lon="1.39000333">
        <ele>-3.0</ele>
        <time>2020-06-22T09:43:06.776Z</time>
      </trkpt>
      <trkpt lat="38.87168833" lon="1.39000333">
        <ele>-3.0</ele>
        <time>2020-06-22T09:43:07.782Z</time>
      </trkpt>
      <trkpt lat="38.87182667" lon="1.39005333">
        <ele>-3.0</ele>
        <time>2020-06-22T09:43:08.765Z</time>
      </trkpt>
      <trkpt lat="38.871895" lon="1.39007833">
        <ele>-3.0</ele>
        <time>2020-06-22T09:43:09.784Z</time>
      </trkpt>
      <trkpt lat="38.871895" lon="1.39007833">
        <ele>-3.0</ele>
        <time>2020-06-22T09:43:10.749Z</time>
      </trkpt>
      <trkpt lat="38.87203" lon="1.39012833">
        <ele>-3.0</ele>
        <time>2020-06-22T09:43:11.758Z</time>
      </trkpt>
      <trkpt lat="38.87209833" lon="1.39015333">
        <ele>-3.0</ele>
        <time>2020-06-22T09:43:12.784Z</time>
      </trkpt>
      <trkpt lat="38.87209833" lon="1.39015333">
        <ele>-3.0</ele>
        <time>2020-06-22T09:43:13.766Z</time>
      </trkpt>
      <trkpt lat="38.87223667" lon="1.39019667">
        <ele>-3.0</ele>
        <time>2020-06-22T09:43:14.771Z</time>
      </trkpt>
      <trkpt lat="38.87223667" lon="1.39019667">
        <ele>-3.0</ele>
        <time>2020-06-22T09:43:15.776Z</time>
      </trkpt>
      <trkpt lat="38.87237167" lon="1.390245">
        <ele>-3.0</ele>
        <time>2020-06-22T09:43:16.783Z</time>
      </trkpt>
      <trkpt lat="38.87237167" lon="1.390245">
        <ele>-3.0</ele>
        <time>2020-06-22T09:43:17.751Z</time>
      </trkpt>
      <trkpt lat="38.87250667" lon="1.39029833">
        <ele>-3.0</ele>
        <time>2020-06-22T09:43:18.775Z</time>
      </trkpt>
      <trkpt lat="38.87250667" lon="1.39029833">
        <ele>-3.0</ele>
        <time>2020-06-22T09:43:19.780Z</time>
      </trkpt>
      <trkpt lat="38.87264167" lon="1.39034833">
        <ele>-3.0</ele>
        <time>2020-06-22T09:43:20.787Z</time>
      </trkpt>
      <trkpt lat="38.87264167" lon="1.39034833">
        <ele>-3.0</ele>
        <time>2020-06-22T09:43:21.758Z</time>
      </trkpt>
      <trkpt lat="38.87277833" lon="1.390395">
        <ele>-3.0</ele>
        <time>2020-06-22T09:43:22.778Z</time>
      </trkpt>
      <trkpt lat="38.87277833" lon="1.390395">
        <ele>-3.0</ele>
        <time>2020-06-22T09:43:23.785Z</time>
      </trkpt>
      <trkpt lat="38.87291333" lon="1.39044167">
        <ele>-4.0</ele>
        <time>2020-06-22T09:43:24.751Z</time>
      </trkpt>
      <trkpt lat="38.87291333" lon="1.39044167">
        <ele>-4.0</ele>
        <time>2020-06-22T09:43:25.759Z</time>
      </trkpt>
      <trkpt lat="38.87305" lon="1.39048833">
        <ele>-4.0</ele>
        <time>2020-06-22T09:43:26.751Z</time>
      </trkpt>
      <trkpt lat="38.87311833" lon="1.39051167">
        <ele>-4.0</ele>
        <time>2020-06-22T09:43:27.755Z</time>
      </trkpt>
      <trkpt lat="38.87311833" lon="1.39051167">
        <ele>-4.0</ele>
        <time>2020-06-22T09:43:28.761Z</time>
      </trkpt>
      <trkpt lat="38.87325667" lon="1.39056">
        <ele>-4.0</ele>
        <time>2020-06-22T09:43:29.784Z</time>
      </trkpt>
      <trkpt lat="38.87332667" lon="1.390585">
        <ele>-4.0</ele>
        <time>2020-06-22T09:43:30.752Z</time>
      </trkpt>
      <trkpt lat="38.87332667" lon="1.390585">
        <ele>-4.0</ele>
        <time>2020-06-22T09:43:31.758Z</time>
      </trkpt>
      <trkpt lat="38.87346333" lon="1.390635">
        <ele>-4.0</ele>
        <time>2020-06-22T09:43:32.757Z</time>
      </trkpt>
      <trkpt lat="38.87346333" lon="1.390635">
        <ele>-4.0</ele>
        <time>2020-06-22T09:43:33.762Z</time>
      </trkpt>
      <trkpt lat="38.87360167" lon="1.39068333">
        <ele>-4.0</ele>
        <time>2020-06-22T09:43:34.771Z</time>
      </trkpt>
      <trkpt lat="38.87360167" lon="1.39068333">
        <ele>-4.0</ele>
        <time>2020-06-22T09:43:35.777Z</time>
      </trkpt>
      <trkpt lat="38.87373833" lon="1.39073333">
        <ele>-4.0</ele>
        <time>2020-06-22T09:43:36.757Z</time>
      </trkpt>
      <trkpt lat="38.87373833" lon="1.39073333">
        <ele>-4.0</ele>
        <time>2020-06-22T09:43:37.763Z</time>
      </trkpt>
      <trkpt lat="38.873875" lon="1.39078">
        <ele>-4.0</ele>
        <time>2020-06-22T09:43:38.770Z</time>
      </trkpt>
      <trkpt lat="38.87394333" lon="1.390805">
        <ele>-4.0</ele>
        <time>2020-06-22T09:43:39.761Z</time>
      </trkpt>
      <trkpt lat="38.87394333" lon="1.390805">
        <ele>-4.0</ele>
        <time>2020-06-22T09:43:40.767Z</time>
      </trkpt>
      <trkpt lat="38.87408" lon="1.39085333">
        <ele>-4.0</ele>
        <time>2020-06-22T09:43:41.778Z</time>
      </trkpt>
      <trkpt lat="38.87408" lon="1.39085333">
        <ele>-4.0</ele>
        <time>2020-06-22T09:43:42.783Z</time>
      </trkpt>
      <trkpt lat="38.874215" lon="1.39090167">
        <ele>-4.0</ele>
        <time>2020-06-22T09:43:43.750Z</time>
      </trkpt>
      <trkpt lat="38.874215" lon="1.39090167">
        <ele>-4.0</ele>
        <time>2020-06-22T09:43:44.760Z</time>
      </trkpt>
      <trkpt lat="38.87435167" lon="1.39095">
        <ele>-4.0</ele>
        <time>2020-06-22T09:43:45.767Z</time>
      </trkpt>
      <trkpt lat="38.87435167" lon="1.39095">
        <ele>-4.0</ele>
        <time>2020-06-22T09:43:46.773Z</time>
      </trkpt>
      <trkpt lat="38.87449" lon="1.39099833">
        <ele>-4.0</ele>
        <time>2020-06-22T09:43:47.764Z</time>
      </trkpt>
      <trkpt lat="38.87449" lon="1.39099833">
        <ele>-4.0</ele>
        <time>2020-06-22T09:43:48.772Z</time>
      </trkpt>
      <trkpt lat="38.87462833" lon="1.39104833">
        <ele>-4.0</ele>
        <time>2020-06-22T09:43:49.779Z</time>
      </trkpt>
      <trkpt lat="38.87469833" lon="1.39107333">
        <ele>-4.0</ele>
        <time>2020-06-22T09:43:50.786Z</time>
      </trkpt>
      <trkpt lat="38.87469833" lon="1.39107333">
        <ele>-4.0</ele>
        <time>2020-06-22T09:43:51.763Z</time>
      </trkpt>
      <trkpt lat="38.87483667" lon="1.39111833">
        <ele>-4.0</ele>
        <time>2020-06-22T09:43:52.774Z</time>
      </trkpt>
      <trkpt lat="38.87483667" lon="1.39111833">
        <ele>-4.0</ele>
        <time>2020-06-22T09:43:53.780Z</time>
      </trkpt>
      <trkpt lat="38.874975" lon="1.39116667">
        <ele>-3.0</ele>
        <time>2020-06-22T09:43:54.788Z</time>
      </trkpt>
      <trkpt lat="38.874975" lon="1.39116667">
        <ele>-3.0</ele>
        <time>2020-06-22T09:43:55.754Z</time>
      </trkpt>
      <trkpt lat="38.87511167" lon="1.39121">
        <ele>-3.0</ele>
        <time>2020-06-22T09:43:56.765Z</time>
      </trkpt>
      <trkpt lat="38.87511167" lon="1.39121">
        <ele>-3.0</ele>
        <time>2020-06-22T09:43:57.772Z</time>
      </trkpt>
      <trkpt lat="38.87524667" lon="1.39125667">
        <ele>-2.0</ele>
        <time>2020-06-22T09:43:58.780Z</time>
      </trkpt>
      <trkpt lat="38.875315" lon="1.39127667">
        <ele>-2.0</ele>
        <time>2020-06-22T09:43:59.767Z</time>
      </trkpt>
      <trkpt lat="38.875315" lon="1.39127667">
        <ele>-2.0</ele>
        <time>2020-06-22T09:44:00.772Z</time>
      </trkpt>
      <trkpt lat="38.87544833" lon="1.39132333">
        <ele>-2.0</ele>
        <time>2020-06-22T09:44:01.779Z</time>
      </trkpt>
      <trkpt lat="38.87551667" lon="1.391345">
        <ele>-1.0</ele>
        <time>2020-06-22T09:44:02.774Z</time>
      </trkpt>
      <trkpt lat="38.87551667" lon="1.391345">
        <ele>-1.0</ele>
        <time>2020-06-22T09:44:03.780Z</time>
      </trkpt>
      <trkpt lat="38.87565167" lon="1.39139333">
        <ele>-1.0</ele>
        <time>2020-06-22T09:44:04.750Z</time>
      </trkpt>
      <trkpt lat="38.87565167" lon="1.39139333">
        <ele>-1.0</ele>
        <time>2020-06-22T09:44:05.761Z</time>
      </trkpt>
      <trkpt lat="38.87578833" lon="1.39144333">
        <ele>-1.0</ele>
        <time>2020-06-22T09:44:06.761Z</time>
      </trkpt>
      <trkpt lat="38.87578833" lon="1.39144333">
        <ele>-1.0</ele>
        <time>2020-06-22T09:44:07.769Z</time>
      </trkpt>
      <trkpt lat="38.87592667" lon="1.39149333">
        <ele>-1.0</ele>
        <time>2020-06-22T09:44:08.776Z</time>
      </trkpt>
      <trkpt lat="38.875995" lon="1.39152">
        <ele>-1.0</ele>
        <time>2020-06-22T09:44:09.766Z</time>
      </trkpt>
      <trkpt lat="38.875995" lon="1.39152">
        <ele>-1.0</ele>
        <time>2020-06-22T09:44:10.772Z</time>
      </trkpt>
      <trkpt lat="38.87613167" lon="1.391565">
        <ele>-1.0</ele>
        <time>2020-06-22T09:44:11.781Z</time>
      </trkpt>
      <trkpt lat="38.8762" lon="1.39158667">
        <ele>0.0</ele>
        <time>2020-06-22T09:44:12.772Z</time>
      </trkpt>
      <trkpt lat="38.8762" lon="1.39158667">
        <ele>0.0</ele>
        <time>2020-06-22T09:44:13.778Z</time>
      </trkpt>
      <trkpt lat="38.87633667" lon="1.39163667">
        <ele>0.0</ele>
        <time>2020-06-22T09:44:14.785Z</time>
      </trkpt>
      <trkpt lat="38.876405" lon="1.39166167">
        <ele>0.0</ele>
        <time>2020-06-22T09:44:15.754Z</time>
      </trkpt>
      <trkpt lat="38.87647333" lon="1.391685">
        <ele>0.0</ele>
        <time>2020-06-22T09:44:16.750Z</time>
      </trkpt>
      <trkpt lat="38.87647333" lon="1.391685">
        <ele>0.0</ele>
        <time>2020-06-22T09:44:17.759Z</time>
      </trkpt>
      <trkpt lat="38.87660833" lon="1.39173">
        <ele>0.0</ele>
        <time>2020-06-22T09:44:18.782Z</time>
      </trkpt>
      <trkpt lat="38.87660833" lon="1.39173">
        <ele>0.0</ele>
        <time>2020-06-22T09:44:19.787Z</time>
      </trkpt>
      <trkpt lat="38.87674167" lon="1.39177667">
        <ele>0.0</ele>
        <time>2020-06-22T09:44:20.754Z</time>
      </trkpt>
      <trkpt lat="38.87674167" lon="1.39177667">
        <ele>0.0</ele>
        <time>2020-06-22T09:44:21.763Z</time>
      </trkpt>
      <trkpt lat="38.87687667" lon="1.391825">
        <ele>0.0</ele>
        <time>2020-06-22T09:44:22.771Z</time>
      </trkpt>
      <trkpt lat="38.87687667" lon="1.391825">
        <ele>0.0</ele>
        <time>2020-06-22T09:44:23.777Z</time>
      </trkpt>
      <trkpt lat="38.87701167" lon="1.39187167">
        <ele>1.0</ele>
        <time>2020-06-22T09:44:24.765Z</time>
      </trkpt>
      <trkpt lat="38.87701167" lon="1.39187167">
        <ele>1.0</ele>
        <time>2020-06-22T09:44:25.770Z</time>
      </trkpt>
      <trkpt lat="38.87714667" lon="1.39192">
        <ele>1.0</ele>
        <time>2020-06-22T09:44:26.777Z</time>
      </trkpt>
      <trkpt lat="38.877215" lon="1.39194333">
        <ele>1.0</ele>
        <time>2020-06-22T09:44:27.758Z</time>
      </trkpt>
      <trkpt lat="38.877215" lon="1.39194333">
        <ele>1.0</ele>
        <time>2020-06-22T09:44:28.771Z</time>
      </trkpt>
      <trkpt lat="38.87735167" lon="1.39199167">
        <ele>0.0</ele>
        <time>2020-06-22T09:44:29.779Z</time>
      </trkpt>
      <trkpt lat="38.87742" lon="1.39201667">
        <ele>0.0</ele>
        <time>2020-06-22T09:44:30.785Z</time>
      </trkpt>
      <trkpt lat="38.87742" lon="1.39201667">
        <ele>0.0</ele>
        <time>2020-06-22T09:44:31.759Z</time>
      </trkpt>
      <trkpt lat="38.87755833" lon="1.39206667">
        <ele>0.0</ele>
        <time>2020-06-22T09:44:32.765Z</time>
      </trkpt>
      <trkpt lat="38.87755833" lon="1.39206667">
        <ele>0.0</ele>
        <time>2020-06-22T09:44:33.771Z</time>
      </trkpt>
      <trkpt lat="38.87769667" lon="1.39211667">
        <ele>0.0</ele>
        <time>2020-06-22T09:44:34.786Z</time>
      </trkpt>
      <trkpt lat="38.87769667" lon="1.39211667">
        <ele>0.0</ele>
        <time>2020-06-22T09:44:35.751Z</time>
      </trkpt>
      <trkpt lat="38.877835" lon="1.39216833">
        <ele>0.0</ele>
        <time>2020-06-22T09:44:36.759Z</time>
      </trkpt>
      <trkpt lat="38.877835" lon="1.39216833">
        <ele>0.0</ele>
        <time>2020-06-22T09:44:37.765Z</time>
      </trkpt>
      <trkpt lat="38.877975" lon="1.39221667">
        <ele>0.0</ele>
        <time>2020-06-22T09:44:38.753Z</time>
      </trkpt>
      <trkpt lat="38.878045" lon="1.39224333">
        <ele>0.0</ele>
        <time>2020-06-22T09:44:39.760Z</time>
      </trkpt>
      <trkpt lat="38.878045" lon="1.39224333">
        <ele>0.0</ele>
        <time>2020-06-22T09:44:40.765Z</time>
      </trkpt>
      <trkpt lat="38.87818667" lon="1.39229333">
        <ele>0.0</ele>
        <time>2020-06-22T09:44:41.786Z</time>
      </trkpt>
      <trkpt lat="38.87825833" lon="1.39231667">
        <ele>0.0</ele>
        <time>2020-06-22T09:44:42.752Z</time>
      </trkpt>
      <trkpt lat="38.87825833" lon="1.39231667">
        <ele>0.0</ele>
        <time>2020-06-22T09:44:43.759Z</time>
      </trkpt>
      <trkpt lat="38.8784" lon="1.39236167">
        <ele>0.0</ele>
        <time>2020-06-22T09:44:44.768Z</time>
      </trkpt>
      <trkpt lat="38.8784" lon="1.39236167">
        <ele>0.0</ele>
        <time>2020-06-22T09:44:45.773Z</time>
      </trkpt>
      <trkpt lat="38.87854" lon="1.392415">
        <ele>0.0</ele>
        <time>2020-06-22T09:44:46.775Z</time>
      </trkpt>
      <trkpt lat="38.87854" lon="1.392415">
        <ele>0.0</ele>
        <time>2020-06-22T09:44:47.780Z</time>
      </trkpt>
      <trkpt lat="38.87868" lon="1.392465">
        <ele>0.0</ele>
        <time>2020-06-22T09:44:48.760Z</time>
      </trkpt>
      <trkpt lat="38.87868" lon="1.392465">
        <ele>0.0</ele>
        <time>2020-06-22T09:44:49.765Z</time>
      </trkpt>
      <trkpt lat="38.87882167" lon="1.39251667">
        <ele>0.0</ele>
        <time>2020-06-22T09:44:50.764Z</time>
      </trkpt>
      <trkpt lat="38.87882167" lon="1.39251667">
        <ele>0.0</ele>
        <time>2020-06-22T09:44:51.771Z</time>
      </trkpt>
      <trkpt lat="38.87896167" lon="1.39256667">
        <ele>0.0</ele>
        <time>2020-06-22T09:44:52.780Z</time>
      </trkpt>
      <trkpt lat="38.87896167" lon="1.39256667">
        <ele>0.0</ele>
        <time>2020-06-22T09:44:53.786Z</time>
      </trkpt>
      <trkpt lat="38.87910333" lon="1.39261833">
        <ele>0.0</ele>
        <time>2020-06-22T09:44:54.759Z</time>
      </trkpt>
      <trkpt lat="38.87910333" lon="1.39261833">
        <ele>0.0</ele>
        <time>2020-06-22T09:44:55.764Z</time>
      </trkpt>
      <trkpt lat="38.87924667" lon="1.39267">
        <ele>0.0</ele>
        <time>2020-06-22T09:44:56.771Z</time>
      </trkpt>
      <trkpt lat="38.87931667" lon="1.392695">
        <ele>0.0</ele>
        <time>2020-06-22T09:44:57.757Z</time>
      </trkpt>
      <trkpt lat="38.87931667" lon="1.392695">
        <ele>0.0</ele>
        <time>2020-06-22T09:44:58.763Z</time>
      </trkpt>
      <trkpt lat="38.87946167" lon="1.39274667">
        <ele>0.0</ele>
        <time>2020-06-22T09:44:59.770Z</time>
      </trkpt>
      <trkpt lat="38.87953333" lon="1.39277333">
        <ele>0.0</ele>
        <time>2020-06-22T09:45:00.763Z</time>
      </trkpt>
      <trkpt lat="38.87953333" lon="1.39277333">
        <ele>0.0</ele>
        <time>2020-06-22T09:45:01.770Z</time>
      </trkpt>
      <trkpt lat="38.87967667" lon="1.392825">
        <ele>0.0</ele>
        <time>2020-06-22T09:45:02.777Z</time>
      </trkpt>
      <trkpt lat="38.87967667" lon="1.392825">
        <ele>0.0</ele>
        <time>2020-06-22T09:45:03.782Z</time>
      </trkpt>
      <trkpt lat="38.87982167" lon="1.39287667">
        <ele>0.0</ele>
        <time>2020-06-22T09:45:04.765Z</time>
      </trkpt>
      <trkpt lat="38.87982167" lon="1.39287667">
        <ele>0.0</ele>
        <time>2020-06-22T09:45:05.754Z</time>
      </trkpt>
      <trkpt lat="38.87996667" lon="1.39292667">
        <ele>0.0</ele>
        <time>2020-06-22T09:45:06.756Z</time>
      </trkpt>
      <trkpt lat="38.87996667" lon="1.39292667">
        <ele>0.0</ele>
        <time>2020-06-22T09:45:07.761Z</time>
      </trkpt>
      <trkpt lat="38.88011333" lon="1.39297667">
        <ele>0.0</ele>
        <time>2020-06-22T09:45:08.777Z</time>
      </trkpt>
      <trkpt lat="38.88018667" lon="1.39300167">
        <ele>0.0</ele>
        <time>2020-06-22T09:45:09.783Z</time>
      </trkpt>
      <trkpt lat="38.88018667" lon="1.39300167">
        <ele>0.0</ele>
        <time>2020-06-22T09:45:10.788Z</time>
      </trkpt>
      <trkpt lat="38.88033167" lon="1.39305333">
        <ele>0.0</ele>
        <time>2020-06-22T09:45:11.764Z</time>
      </trkpt>
      <trkpt lat="38.88040333" lon="1.39307833">
        <ele>0.0</ele>
        <time>2020-06-22T09:45:12.771Z</time>
      </trkpt>
      <trkpt lat="38.88040333" lon="1.39307833">
        <ele>0.0</ele>
        <time>2020-06-22T09:45:13.776Z</time>
      </trkpt>
      <trkpt lat="38.88054833" lon="1.39312833">
        <ele>0.0</ele>
        <time>2020-06-22T09:45:14.785Z</time>
      </trkpt>
      <trkpt lat="38.88054833" lon="1.39312833">
        <ele>0.0</ele>
        <time>2020-06-22T09:45:15.751Z</time>
      </trkpt>
      <trkpt lat="38.88069167" lon="1.39318">
        <ele>0.0</ele>
        <time>2020-06-22T09:45:16.760Z</time>
      </trkpt>
      <trkpt lat="38.88069167" lon="1.39318">
        <ele>0.0</ele>
        <time>2020-06-22T09:45:17.767Z</time>
      </trkpt>
      <trkpt lat="38.88083333" lon="1.39323333">
        <ele>0.0</ele>
        <time>2020-06-22T09:45:18.761Z</time>
      </trkpt>
      <trkpt lat="38.88083333" lon="1.39323333">
        <ele>0.0</ele>
        <time>2020-06-22T09:45:19.767Z</time>
      </trkpt>
      <trkpt lat="38.88097667" lon="1.39328667">
        <ele>0.0</ele>
        <time>2020-06-22T09:45:20.775Z</time>
      </trkpt>
      <trkpt lat="38.88097667" lon="1.39328667">
        <ele>0.0</ele>
        <time>2020-06-22T09:45:21.780Z</time>
      </trkpt>
      <trkpt lat="38.88112333" lon="1.39334">
        <ele>0.0</ele>
        <time>2020-06-22T09:45:22.768Z</time>
      </trkpt>
      <trkpt lat="38.88112333" lon="1.39334">
        <ele>0.0</ele>
        <time>2020-06-22T09:45:23.774Z</time>
      </trkpt>
      <trkpt lat="38.88127167" lon="1.39339333">
        <ele>0.0</ele>
        <time>2020-06-22T09:45:24.781Z</time>
      </trkpt>
      <trkpt lat="38.88127167" lon="1.39339333">
        <ele>0.0</ele>
        <time>2020-06-22T09:45:25.786Z</time>
      </trkpt>
      <trkpt lat="38.88141667" lon="1.393445">
        <ele>0.0</ele>
        <time>2020-06-22T09:45:26.769Z</time>
      </trkpt>
      <trkpt lat="38.88148833" lon="1.39347167">
        <ele>0.0</ele>
        <time>2020-06-22T09:45:27.775Z</time>
      </trkpt>
      <trkpt lat="38.88148833" lon="1.39347167">
        <ele>0.0</ele>
        <time>2020-06-22T09:45:28.781Z</time>
      </trkpt>
      <trkpt lat="38.88163" lon="1.39352333">
        <ele>0.0</ele>
        <time>2020-06-22T09:45:29.788Z</time>
      </trkpt>
      <trkpt lat="38.88170167" lon="1.39354667">
        <ele>0.0</ele>
        <time>2020-06-22T09:45:30.754Z</time>
      </trkpt>
      <trkpt lat="38.88170167" lon="1.39354667">
        <ele>0.0</ele>
        <time>2020-06-22T09:45:31.761Z</time>
      </trkpt>
      <trkpt lat="38.88184" lon="1.39359667">
        <ele>0.0</ele>
        <time>2020-06-22T09:45:32.755Z</time>
      </trkpt>
      <trkpt lat="38.88191" lon="1.39362">
        <ele>0.0</ele>
        <time>2020-06-22T09:45:33.761Z</time>
      </trkpt>
      <trkpt lat="38.88191" lon="1.39362">
        <ele>0.0</ele>
        <time>2020-06-22T09:45:34.767Z</time>
      </trkpt>
      <trkpt lat="38.88204833" lon="1.39366833">
        <ele>0.0</ele>
        <time>2020-06-22T09:45:35.788Z</time>
      </trkpt>
      <trkpt lat="38.88204833" lon="1.39366833">
        <ele>0.0</ele>
        <time>2020-06-22T09:45:36.763Z</time>
      </trkpt>
      <trkpt lat="38.88219" lon="1.39371833">
        <ele>0.0</ele>
        <time>2020-06-22T09:45:37.760Z</time>
      </trkpt>
      <trkpt lat="38.88219" lon="1.39371833">
        <ele>0.0</ele>
        <time>2020-06-22T09:45:38.765Z</time>
      </trkpt>
      <trkpt lat="38.88233167" lon="1.39377">
        <ele>0.0</ele>
        <time>2020-06-22T09:45:39.772Z</time>
      </trkpt>
      <trkpt lat="38.88233167" lon="1.39377">
        <ele>0.0</ele>
        <time>2020-06-22T09:45:40.778Z</time>
      </trkpt>
      <trkpt lat="38.88247167" lon="1.39382167">
        <ele>0.0</ele>
        <time>2020-06-22T09:45:41.775Z</time>
      </trkpt>
      <trkpt lat="38.88247167" lon="1.39382167">
        <ele>0.0</ele>
        <time>2020-06-22T09:45:42.781Z</time>
      </trkpt>
      <trkpt lat="38.88261333" lon="1.39387333">
        <ele>0.0</ele>
        <time>2020-06-22T09:45:43.788Z</time>
      </trkpt>
      <trkpt lat="38.88261333" lon="1.39387333">
        <ele>0.0</ele>
        <time>2020-06-22T09:45:44.766Z</time>
      </trkpt>
      <trkpt lat="38.88275333" lon="1.39392167">
        <ele>0.0</ele>
        <time>2020-06-22T09:45:45.773Z</time>
      </trkpt>
      <trkpt lat="38.88275333" lon="1.39392167">
        <ele>0.0</ele>
        <time>2020-06-22T09:45:46.781Z</time>
      </trkpt>
      <trkpt lat="38.88289167" lon="1.39397">
        <ele>0.0</ele>
        <time>2020-06-22T09:45:47.749Z</time>
      </trkpt>
      <trkpt lat="38.88296167" lon="1.393995">
        <ele>0.0</ele>
        <time>2020-06-22T09:45:48.774Z</time>
      </trkpt>
      <trkpt lat="38.88296167" lon="1.393995">
        <ele>0.0</ele>
        <time>2020-06-22T09:45:49.780Z</time>
      </trkpt>
      <trkpt lat="38.88309833" lon="1.394045">
        <ele>0.0</ele>
        <time>2020-06-22T09:45:50.755Z</time>
      </trkpt>
      <trkpt lat="38.88309833" lon="1.394045">
        <ele>0.0</ele>
        <time>2020-06-22T09:45:51.761Z</time>
      </trkpt>
      <trkpt lat="38.88323667" lon="1.394095">
        <ele>0.0</ele>
        <time>2020-06-22T09:45:52.780Z</time>
      </trkpt>
      <trkpt lat="38.88323667" lon="1.394095">
        <ele>0.0</ele>
        <time>2020-06-22T09:45:53.785Z</time>
      </trkpt>
      <trkpt lat="38.883375" lon="1.39414833">
        <ele>0.0</ele>
        <time>2020-06-22T09:45:54.753Z</time>
      </trkpt>
      <trkpt lat="38.883375" lon="1.39414833">
        <ele>0.0</ele>
        <time>2020-06-22T09:45:55.759Z</time>
      </trkpt>
      <trkpt lat="38.88351167" lon="1.394195">
        <ele>0.0</ele>
        <time>2020-06-22T09:45:56.777Z</time>
      </trkpt>
      <trkpt lat="38.88351167" lon="1.394195">
        <ele>0.0</ele>
        <time>2020-06-22T09:45:57.783Z</time>
      </trkpt>
      <trkpt lat="38.88364667" lon="1.39424667">
        <ele>0.0</ele>
        <time>2020-06-22T09:45:58.750Z</time>
      </trkpt>
      <trkpt lat="38.883715" lon="1.39427">
        <ele>0.0</ele>
        <time>2020-06-22T09:45:59.785Z</time>
      </trkpt>
      <trkpt lat="38.88378333" lon="1.39429333">
        <ele>0.0</ele>
        <time>2020-06-22T09:46:00.753Z</time>
      </trkpt>
      <trkpt lat="38.88378333" lon="1.39429333">
        <ele>0.0</ele>
        <time>2020-06-22T09:46:01.760Z</time>
      </trkpt>
      <trkpt lat="38.88391667" lon="1.39434">
        <ele>0.0</ele>
        <time>2020-06-22T09:46:02.775Z</time>
      </trkpt>
      <trkpt lat="38.88391667" lon="1.39434">
        <ele>0.0</ele>
        <time>2020-06-22T09:46:03.780Z</time>
      </trkpt>
      <trkpt lat="38.88405167" lon="1.39438833">
        <ele>0.0</ele>
        <time>2020-06-22T09:46:04.787Z</time>
      </trkpt>
      <trkpt lat="38.88405167" lon="1.39438833">
        <ele>0.0</ele>
        <time>2020-06-22T09:46:05.754Z</time>
      </trkpt>
      <trkpt lat="38.88418667" lon="1.39443667">
        <ele>0.0</ele>
        <time>2020-06-22T09:46:06.784Z</time>
      </trkpt>
      <trkpt lat="38.88418667" lon="1.39443667">
        <ele>0.0</ele>
        <time>2020-06-22T09:46:07.750Z</time>
      </trkpt>
      <trkpt lat="38.88432333" lon="1.39448333">
        <ele>0.0</ele>
        <time>2020-06-22T09:46:08.762Z</time>
      </trkpt>
      <trkpt lat="38.88439167" lon="1.394505">
        <ele>0.0</ele>
        <time>2020-06-22T09:46:09.786Z</time>
      </trkpt>
      <trkpt lat="38.88439167" lon="1.394505">
        <ele>0.0</ele>
        <time>2020-06-22T09:46:10.751Z</time>
      </trkpt>
      <trkpt lat="38.88452833" lon="1.39455333">
        <ele>0.0</ele>
        <time>2020-06-22T09:46:11.760Z</time>
      </trkpt>
      <trkpt lat="38.88459667" lon="1.394575">
        <ele>0.0</ele>
        <time>2020-06-22T09:46:12.759Z</time>
      </trkpt>
      <trkpt lat="38.88459667" lon="1.394575">
        <ele>0.0</ele>
        <time>2020-06-22T09:46:13.765Z</time>
      </trkpt>
      <trkpt lat="38.88473333" lon="1.39462167">
        <ele>0.0</ele>
        <time>2020-06-22T09:46:14.771Z</time>
      </trkpt>
      <trkpt lat="38.88480167" lon="1.39464833">
        <ele>1.0</ele>
        <time>2020-06-22T09:46:15.752Z</time>
      </trkpt>
      <trkpt lat="38.88487167" lon="1.394675">
        <ele>1.0</ele>
        <time>2020-06-22T09:46:16.775Z</time>
      </trkpt>
      <trkpt lat="38.88487167" lon="1.394675">
        <ele>1.0</ele>
        <time>2020-06-22T09:46:17.781Z</time>
      </trkpt>
      <trkpt lat="38.88501" lon="1.39472333">
        <ele>1.0</ele>
        <time>2020-06-22T09:46:18.788Z</time>
      </trkpt>
      <trkpt lat="38.88501" lon="1.39472333">
        <ele>1.0</ele>
        <time>2020-06-22T09:46:19.753Z</time>
      </trkpt>
      <trkpt lat="38.88514833" lon="1.39477">
        <ele>1.0</ele>
        <time>2020-06-22T09:46:20.771Z</time>
      </trkpt>
      <trkpt lat="38.88514833" lon="1.39477">
        <ele>1.0</ele>
        <time>2020-06-22T09:46:21.777Z</time>
      </trkpt>
      <trkpt lat="38.88528667" lon="1.39481833">
        <ele>1.0</ele>
        <time>2020-06-22T09:46:22.783Z</time>
      </trkpt>
      <trkpt lat="38.88528667" lon="1.39481833">
        <ele>1.0</ele>
        <time>2020-06-22T09:46:23.752Z</time>
      </trkpt>
      <trkpt lat="38.885425" lon="1.39486167">
        <ele>1.0</ele>
        <time>2020-06-22T09:46:24.776Z</time>
      </trkpt>
      <trkpt lat="38.885425" lon="1.39486167">
        <ele>1.0</ele>
        <time>2020-06-22T09:46:25.781Z</time>
      </trkpt>
      <trkpt lat="38.88556167" lon="1.39490667">
        <ele>1.0</ele>
        <time>2020-06-22T09:46:26.755Z</time>
      </trkpt>
      <trkpt lat="38.88563" lon="1.39493">
        <ele>1.0</ele>
        <time>2020-06-22T09:46:27.770Z</time>
      </trkpt>
      <trkpt lat="38.88563" lon="1.39493">
        <ele>1.0</ele>
        <time>2020-06-22T09:46:28.775Z</time>
      </trkpt>
      <trkpt lat="38.885765" lon="1.39498">
        <ele>2.0</ele>
        <time>2020-06-22T09:46:29.782Z</time>
      </trkpt>
      <trkpt lat="38.88583333" lon="1.395005">
        <ele>2.0</ele>
        <time>2020-06-22T09:46:30.775Z</time>
      </trkpt>
      <trkpt lat="38.88583333" lon="1.395005">
        <ele>2.0</ele>
        <time>2020-06-22T09:46:31.782Z</time>
      </trkpt>
      <trkpt lat="38.885965" lon="1.39505333">
        <ele>2.0</ele>
        <time>2020-06-22T09:46:32.749Z</time>
      </trkpt>
      <trkpt lat="38.885965" lon="1.39505333">
        <ele>2.0</ele>
        <time>2020-06-22T09:46:33.759Z</time>
      </trkpt>
      <trkpt lat="38.88608667" lon="1.39510167">
        <ele>3.0</ele>
        <time>2020-06-22T09:46:34.749Z</time>
      </trkpt>
      <trkpt lat="38.88608667" lon="1.39510167">
        <ele>3.0</ele>
        <time>2020-06-22T09:46:35.760Z</time>
      </trkpt>
      <trkpt lat="38.88619167" lon="1.395175">
        <ele>3.0</ele>
        <time>2020-06-22T09:46:36.767Z</time>
      </trkpt>
      <trkpt lat="38.88619167" lon="1.395175">
        <ele>3.0</ele>
        <time>2020-06-22T09:46:37.773Z</time>
      </trkpt>
      <trkpt lat="38.886265" lon="1.39529833">
        <ele>4.0</ele>
        <time>2020-06-22T09:46:38.778Z</time>
      </trkpt>
      <trkpt lat="38.886265" lon="1.39529833">
        <ele>4.0</ele>
        <time>2020-06-22T09:46:39.784Z</time>
      </trkpt>
      <trkpt lat="38.88634667" lon="1.39542667">
        <ele>4.0</ele>
        <time>2020-06-22T09:46:40.752Z</time>
      </trkpt>
      <trkpt lat="38.88634667" lon="1.39542667">
        <ele>4.0</ele>
        <time>2020-06-22T09:46:41.759Z</time>
      </trkpt>
      <trkpt lat="38.88645333" lon="1.39552">
        <ele>5.0</ele>
        <time>2020-06-22T09:46:42.757Z</time>
      </trkpt>
      <trkpt lat="38.88645333" lon="1.39552">
        <ele>5.0</ele>
        <time>2020-06-22T09:46:43.762Z</time>
      </trkpt>
      <trkpt lat="38.886565" lon="1.39554">
        <ele>6.0</ele>
        <time>2020-06-22T09:46:44.770Z</time>
      </trkpt>
      <trkpt lat="38.88661833" lon="1.39552667">
        <ele>6.0</ele>
        <time>2020-06-22T09:46:45.785Z</time>
      </trkpt>
      <trkpt lat="38.88667" lon="1.3955">
        <ele>6.0</ele>
        <time>2020-06-22T09:46:46.784Z</time>
      </trkpt>
      <trkpt lat="38.88667" lon="1.3955">
        <ele>6.0</ele>
        <time>2020-06-22T09:46:47.750Z</time>
      </trkpt>
      <trkpt lat="38.88674833" lon="1.39542667">
        <ele>5.0</ele>
        <time>2020-06-22T09:46:48.759Z</time>
      </trkpt>
      <trkpt lat="38.88674833" lon="1.39542667">
        <ele>5.0</ele>
        <time>2020-06-22T09:46:49.764Z</time>
      </trkpt>
      <trkpt lat="38.88679333" lon="1.395335">
        <ele>5.0</ele>
        <time>2020-06-22T09:46:50.755Z</time>
      </trkpt>
      <trkpt lat="38.88681833" lon="1.39529667">
        <ele>5.0</ele>
        <time>2020-06-22T09:46:51.763Z</time>
      </trkpt>
      <trkpt lat="38.88681833" lon="1.39529667">
        <ele>5.0</ele>
        <time>2020-06-22T09:46:52.770Z</time>
      </trkpt>
      <trkpt lat="38.88688667" lon="1.39523333">
        <ele>5.0</ele>
        <time>2020-06-22T09:46:53.754Z</time>
      </trkpt>
      <trkpt lat="38.88693167" lon="1.39521833">
        <ele>5.0</ele>
        <time>2020-06-22T09:46:54.762Z</time>
      </trkpt>
      <trkpt lat="38.88693167" lon="1.39521833">
        <ele>5.0</ele>
        <time>2020-06-22T09:46:55.769Z</time>
      </trkpt>
      <trkpt lat="38.887025" lon="1.395255">
        <ele>5.0</ele>
        <time>2020-06-22T09:46:56.750Z</time>
      </trkpt>
      <trkpt lat="38.88706833" lon="1.3953">
        <ele>4.0</ele>
        <time>2020-06-22T09:46:57.759Z</time>
      </trkpt>
      <trkpt lat="38.88706833" lon="1.3953">
        <ele>4.0</ele>
        <time>2020-06-22T09:46:58.764Z</time>
      </trkpt>
      <trkpt lat="38.88716667" lon="1.39540833">
        <ele>4.0</ele>
        <time>2020-06-22T09:46:59.778Z</time>
      </trkpt>
      <trkpt lat="38.88722667" lon="1.39546167">
        <ele>3.0</ele>
        <time>2020-06-22T09:47:00.777Z</time>
      </trkpt>
      <trkpt lat="38.88722667" lon="1.39546167">
        <ele>3.0</ele>
        <time>2020-06-22T09:47:01.782Z</time>
      </trkpt>
      <trkpt lat="38.88735833" lon="1.39555">
        <ele>5.0</ele>
        <time>2020-06-22T09:47:02.753Z</time>
      </trkpt>
      <trkpt lat="38.88742833" lon="1.395585">
        <ele>5.0</ele>
        <time>2020-06-22T09:47:03.758Z</time>
      </trkpt>
      <trkpt lat="38.88742833" lon="1.395585">
        <ele>5.0</ele>
        <time>2020-06-22T09:47:04.763Z</time>
      </trkpt>
      <trkpt lat="38.88757" lon="1.39564667">
        <ele>5.0</ele>
        <time>2020-06-22T09:47:05.758Z</time>
      </trkpt>
      <trkpt lat="38.88764" lon="1.39567667">
        <ele>5.0</ele>
        <time>2020-06-22T09:47:06.781Z</time>
      </trkpt>
      <trkpt lat="38.88764" lon="1.39567667">
        <ele>5.0</ele>
        <time>2020-06-22T09:47:07.757Z</time>
      </trkpt>
      <trkpt lat="38.88777833" lon="1.39573833">
        <ele>6.0</ele>
        <time>2020-06-22T09:47:08.769Z</time>
      </trkpt>
      <trkpt lat="38.887845" lon="1.39577">
        <ele>6.0</ele>
        <time>2020-06-22T09:47:09.776Z</time>
      </trkpt>
      <trkpt lat="38.887845" lon="1.39577">
        <ele>6.0</ele>
        <time>2020-06-22T09:47:10.781Z</time>
      </trkpt>
      <trkpt lat="38.88798833" lon="1.395815">
        <ele>6.0</ele>
        <time>2020-06-22T09:47:11.787Z</time>
      </trkpt>
      <trkpt lat="38.88806167" lon="1.39583">
        <ele>6.0</ele>
        <time>2020-06-22T09:47:12.754Z</time>
      </trkpt>
      <trkpt lat="38.88806167" lon="1.39583">
        <ele>6.0</ele>
        <time>2020-06-22T09:47:13.761Z</time>
      </trkpt>
      <trkpt lat="38.888205" lon="1.39585333">
        <ele>7.0</ele>
        <time>2020-06-22T09:47:14.767Z</time>
      </trkpt>
      <trkpt lat="38.888205" lon="1.39585333">
        <ele>7.0</ele>
        <time>2020-06-22T09:47:15.773Z</time>
      </trkpt>
      <trkpt lat="38.88834667" lon="1.39588333">
        <ele>7.0</ele>
        <time>2020-06-22T09:47:16.779Z</time>
      </trkpt>
      <trkpt lat="38.88841667" lon="1.39590333">
        <ele>7.0</ele>
        <time>2020-06-22T09:47:17.756Z</time>
      </trkpt>
      <trkpt lat="38.88841667" lon="1.39590333">
        <ele>7.0</ele>
        <time>2020-06-22T09:47:18.765Z</time>
      </trkpt>
      <trkpt lat="38.888555" lon="1.395945">
        <ele>7.0</ele>
        <time>2020-06-22T09:47:19.778Z</time>
      </trkpt>
      <trkpt lat="38.888555" lon="1.395945">
        <ele>7.0</ele>
        <time>2020-06-22T09:47:20.783Z</time>
      </trkpt>
      <trkpt lat="38.88869" lon="1.395995">
        <ele>7.0</ele>
        <time>2020-06-22T09:47:21.782Z</time>
      </trkpt>
      <trkpt lat="38.88869" lon="1.395995">
        <ele>7.0</ele>
        <time>2020-06-22T09:47:22.749Z</time>
      </trkpt>
      <trkpt lat="38.88882333" lon="1.39605">
        <ele>7.0</ele>
        <time>2020-06-22T09:47:23.762Z</time>
      </trkpt>
      <trkpt lat="38.88888833" lon="1.39607667">
        <ele>7.0</ele>
        <time>2020-06-22T09:47:24.768Z</time>
      </trkpt>
      <trkpt lat="38.88888833" lon="1.39607667">
        <ele>7.0</ele>
        <time>2020-06-22T09:47:25.773Z</time>
      </trkpt>
      <trkpt lat="38.88902" lon="1.39613">
        <ele>7.0</ele>
        <time>2020-06-22T09:47:26.771Z</time>
      </trkpt>
      <trkpt lat="38.88902" lon="1.39613">
        <ele>7.0</ele>
        <time>2020-06-22T09:47:27.777Z</time>
      </trkpt>
      <trkpt lat="38.88915167" lon="1.39617667">
        <ele>7.0</ele>
        <time>2020-06-22T09:47:28.784Z</time>
      </trkpt>
      <trkpt lat="38.88915167" lon="1.39617667">
        <ele>7.0</ele>
        <time>2020-06-22T09:47:29.753Z</time>
      </trkpt>
      <trkpt lat="38.88928" lon="1.39622">
        <ele>7.0</ele>
        <time>2020-06-22T09:47:30.758Z</time>
      </trkpt>
      <trkpt lat="38.88928" lon="1.39622">
        <ele>7.0</ele>
        <time>2020-06-22T09:47:31.765Z</time>
      </trkpt>
      <trkpt lat="38.88941333" lon="1.39626833">
        <ele>7.0</ele>
        <time>2020-06-22T09:47:32.772Z</time>
      </trkpt>
      <trkpt lat="38.88941333" lon="1.39626833">
        <ele>7.0</ele>
        <time>2020-06-22T09:47:33.778Z</time>
      </trkpt>
      <trkpt lat="38.88955167" lon="1.39631333">
        <ele>7.0</ele>
        <time>2020-06-22T09:47:34.750Z</time>
      </trkpt>
      <trkpt lat="38.88955167" lon="1.39631333">
        <ele>7.0</ele>
        <time>2020-06-22T09:47:35.761Z</time>
      </trkpt>
      <trkpt lat="38.88968667" lon="1.39636667">
        <ele>7.0</ele>
        <time>2020-06-22T09:47:36.776Z</time>
      </trkpt>
      <trkpt lat="38.88968667" lon="1.39636667">
        <ele>7.0</ele>
        <time>2020-06-22T09:47:37.782Z</time>
      </trkpt>
      <trkpt lat="38.88981667" lon="1.39641667">
        <ele>7.0</ele>
        <time>2020-06-22T09:47:38.781Z</time>
      </trkpt>
      <trkpt lat="38.88981667" lon="1.39641667">
        <ele>7.0</ele>
        <time>2020-06-22T09:47:39.786Z</time>
      </trkpt>
      <trkpt lat="38.889945" lon="1.39646333">
        <ele>7.0</ele>
        <time>2020-06-22T09:47:40.752Z</time>
      </trkpt>
      <trkpt lat="38.889945" lon="1.39646333">
        <ele>7.0</ele>
        <time>2020-06-22T09:47:41.759Z</time>
      </trkpt>
      <trkpt lat="38.890075" lon="1.39651">
        <ele>8.0</ele>
        <time>2020-06-22T09:47:42.755Z</time>
      </trkpt>
      <trkpt lat="38.890075" lon="1.39651">
        <ele>8.0</ele>
        <time>2020-06-22T09:47:43.762Z</time>
      </trkpt>
      <trkpt lat="38.890205" lon="1.39655333">
        <ele>8.0</ele>
        <time>2020-06-22T09:47:44.770Z</time>
      </trkpt>
      <trkpt lat="38.89027" lon="1.396575">
        <ele>8.0</ele>
        <time>2020-06-22T09:47:45.775Z</time>
      </trkpt>
      <trkpt lat="38.89027" lon="1.396575">
        <ele>8.0</ele>
        <time>2020-06-22T09:47:46.781Z</time>
      </trkpt>
      <trkpt lat="38.89039833" lon="1.39661833">
        <ele>9.0</ele>
        <time>2020-06-22T09:47:47.772Z</time>
      </trkpt>
      <trkpt lat="38.89046333" lon="1.39664167">
        <ele>8.0</ele>
        <time>2020-06-22T09:47:48.777Z</time>
      </trkpt>
      <trkpt lat="38.89046333" lon="1.39664167">
        <ele>8.0</ele>
        <time>2020-06-22T09:47:49.784Z</time>
      </trkpt>
      <trkpt lat="38.89059" lon="1.39669167">
        <ele>9.0</ele>
        <time>2020-06-22T09:47:50.777Z</time>
      </trkpt>
      <trkpt lat="38.89059" lon="1.39669167">
        <ele>9.0</ele>
        <time>2020-06-22T09:47:51.783Z</time>
      </trkpt>
      <trkpt lat="38.89071667" lon="1.396745">
        <ele>9.0</ele>
        <time>2020-06-22T09:47:52.750Z</time>
      </trkpt>
      <trkpt lat="38.89071667" lon="1.396745">
        <ele>9.0</ele>
        <time>2020-06-22T09:47:53.760Z</time>
      </trkpt>
      <trkpt lat="38.89083833" lon="1.39680167">
        <ele>9.0</ele>
        <time>2020-06-22T09:47:54.786Z</time>
      </trkpt>
      <trkpt lat="38.89083833" lon="1.39680167">
        <ele>9.0</ele>
        <time>2020-06-22T09:47:55.752Z</time>
      </trkpt>
      <trkpt lat="38.89095667" lon="1.39686833">
        <ele>9.0</ele>
        <time>2020-06-22T09:47:56.760Z</time>
      </trkpt>
      <trkpt lat="38.89095667" lon="1.39686833">
        <ele>9.0</ele>
        <time>2020-06-22T09:47:57.766Z</time>
      </trkpt>
      <trkpt lat="38.89107333" lon="1.39695">
        <ele>10.0</ele>
        <time>2020-06-22T09:47:58.772Z</time>
      </trkpt>
      <trkpt lat="38.89107333" lon="1.39695">
        <ele>10.0</ele>
        <time>2020-06-22T09:47:59.778Z</time>
      </trkpt>
      <trkpt lat="38.89119167" lon="1.39703167">
        <ele>10.0</ele>
        <time>2020-06-22T09:48:00.749Z</time>
      </trkpt>
      <trkpt lat="38.89125167" lon="1.397075">
        <ele>10.0</ele>
        <time>2020-06-22T09:48:01.785Z</time>
      </trkpt>
      <trkpt lat="38.89125167" lon="1.397075">
        <ele>10.0</ele>
        <time>2020-06-22T09:48:02.750Z</time>
      </trkpt>
      <trkpt lat="38.89136667" lon="1.39716667">
        <ele>10.0</ele>
        <time>2020-06-22T09:48:03.761Z</time>
      </trkpt>
      <trkpt lat="38.89136667" lon="1.39716667">
        <ele>10.0</ele>
        <time>2020-06-22T09:48:04.767Z</time>
      </trkpt>
      <trkpt lat="38.89147833" lon="1.39726">
        <ele>10.0</ele>
        <time>2020-06-22T09:48:05.756Z</time>
      </trkpt>
      <trkpt lat="38.89147833" lon="1.39726">
        <ele>10.0</ele>
        <time>2020-06-22T09:48:06.761Z</time>
      </trkpt>
      <trkpt lat="38.89159167" lon="1.39735333">
        <ele>10.0</ele>
        <time>2020-06-22T09:48:07.765Z</time>
      </trkpt>
      <trkpt lat="38.89159167" lon="1.39735333">
        <ele>10.0</ele>
        <time>2020-06-22T09:48:08.771Z</time>
      </trkpt>
      <trkpt lat="38.891705" lon="1.39745">
        <ele>10.0</ele>
        <time>2020-06-22T09:48:09.778Z</time>
      </trkpt>
      <trkpt lat="38.891705" lon="1.39745">
        <ele>10.0</ele>
        <time>2020-06-22T09:48:10.753Z</time>
      </trkpt>
      <trkpt lat="38.89181833" lon="1.397545">
        <ele>10.0</ele>
        <time>2020-06-22T09:48:11.784Z</time>
      </trkpt>
      <trkpt lat="38.89181833" lon="1.397545">
        <ele>10.0</ele>
        <time>2020-06-22T09:48:12.750Z</time>
      </trkpt>
      <trkpt lat="38.89193" lon="1.39764333">
        <ele>10.0</ele>
        <time>2020-06-22T09:48:13.758Z</time>
      </trkpt>
      <trkpt lat="38.89193" lon="1.39764333">
        <ele>10.0</ele>
        <time>2020-06-22T09:48:14.764Z</time>
      </trkpt>
      <trkpt lat="38.89204167" lon="1.39774333">
        <ele>10.0</ele>
        <time>2020-06-22T09:48:15.781Z</time>
      </trkpt>
      <trkpt lat="38.89204167" lon="1.39774333">
        <ele>10.0</ele>
        <time>2020-06-22T09:48:16.787Z</time>
      </trkpt>
      <trkpt lat="38.89215667" lon="1.39784333">
        <ele>10.0</ele>
        <time>2020-06-22T09:48:17.760Z</time>
      </trkpt>
      <trkpt lat="38.89221667" lon="1.39789167">
        <ele>10.0</ele>
        <time>2020-06-22T09:48:18.753Z</time>
      </trkpt>
      <trkpt lat="38.89221667" lon="1.39789167">
        <ele>10.0</ele>
        <time>2020-06-22T09:48:19.764Z</time>
      </trkpt>
      <trkpt lat="38.892335" lon="1.39798667">
        <ele>9.0</ele>
        <time>2020-06-22T09:48:20.770Z</time>
      </trkpt>
      <trkpt lat="38.89239167" lon="1.398035">
        <ele>9.0</ele>
        <time>2020-06-22T09:48:21.787Z</time>
      </trkpt>
      <trkpt lat="38.89239167" lon="1.398035">
        <ele>9.0</ele>
        <time>2020-06-22T09:48:22.788Z</time>
      </trkpt>
      <trkpt lat="38.89251" lon="1.39813">
        <ele>9.0</ele>
        <time>2020-06-22T09:48:23.775Z</time>
      </trkpt>
      <trkpt lat="38.89251" lon="1.39813">
        <ele>9.0</ele>
        <time>2020-06-22T09:48:24.781Z</time>
      </trkpt>
      <trkpt lat="38.892625" lon="1.39822833">
        <ele>9.0</ele>
        <time>2020-06-22T09:48:25.786Z</time>
      </trkpt>
      <trkpt lat="38.892625" lon="1.39822833">
        <ele>9.0</ele>
        <time>2020-06-22T09:48:26.753Z</time>
      </trkpt>
      <trkpt lat="38.892735" lon="1.398335">
        <ele>9.0</ele>
        <time>2020-06-22T09:48:27.772Z</time>
      </trkpt>
      <trkpt lat="38.892735" lon="1.398335">
        <ele>9.0</ele>
        <time>2020-06-22T09:48:28.789Z</time>
      </trkpt>
      <trkpt lat="38.89285" lon="1.398435">
        <ele>9.0</ele>
        <time>2020-06-22T09:48:29.756Z</time>
      </trkpt>
      <trkpt lat="38.89290667" lon="1.398485">
        <ele>9.0</ele>
        <time>2020-06-22T09:48:30.765Z</time>
      </trkpt>
      <trkpt lat="38.89290667" lon="1.398485">
        <ele>9.0</ele>
        <time>2020-06-22T09:48:31.770Z</time>
      </trkpt>
      <trkpt lat="38.89301833" lon="1.39858667">
        <ele>9.0</ele>
        <time>2020-06-22T09:48:32.777Z</time>
      </trkpt>
      <trkpt lat="38.89307667" lon="1.398635">
        <ele>9.0</ele>
        <time>2020-06-22T09:48:33.755Z</time>
      </trkpt>
      <trkpt lat="38.89307667" lon="1.398635">
        <ele>9.0</ele>
        <time>2020-06-22T09:48:34.762Z</time>
      </trkpt>
      <trkpt lat="38.89319167" lon="1.39873167">
        <ele>8.0</ele>
        <time>2020-06-22T09:48:35.771Z</time>
      </trkpt>
      <trkpt lat="38.89325" lon="1.39878">
        <ele>8.0</ele>
        <time>2020-06-22T09:48:36.764Z</time>
      </trkpt>
      <trkpt lat="38.89325" lon="1.39878">
        <ele>8.0</ele>
        <time>2020-06-22T09:48:37.782Z</time>
      </trkpt>
      <trkpt lat="38.893365" lon="1.39888">
        <ele>8.0</ele>
        <time>2020-06-22T09:48:38.768Z</time>
      </trkpt>
      <trkpt lat="38.893365" lon="1.39888">
        <ele>8.0</ele>
        <time>2020-06-22T09:48:39.773Z</time>
      </trkpt>
      <trkpt lat="38.89348333" lon="1.39898167">
        <ele>8.0</ele>
        <time>2020-06-22T09:48:40.782Z</time>
      </trkpt>
      <trkpt lat="38.89354167" lon="1.39903333">
        <ele>8.0</ele>
        <time>2020-06-22T09:48:41.754Z</time>
      </trkpt>
      <trkpt lat="38.89360167" lon="1.39908333">
        <ele>8.0</ele>
        <time>2020-06-22T09:48:42.765Z</time>
      </trkpt>
      <trkpt lat="38.89360167" lon="1.39908333">
        <ele>8.0</ele>
        <time>2020-06-22T09:48:43.771Z</time>
      </trkpt>
      <trkpt lat="38.89371833" lon="1.39918833">
        <ele>8.0</ele>
        <time>2020-06-22T09:48:44.777Z</time>
      </trkpt>
      <trkpt lat="38.89371833" lon="1.39918833">
        <ele>8.0</ele>
        <time>2020-06-22T09:48:45.782Z</time>
      </trkpt>
      <trkpt lat="38.89383667" lon="1.39928833">
        <ele>8.0</ele>
        <time>2020-06-22T09:48:46.750Z</time>
      </trkpt>
      <trkpt lat="38.893895" lon="1.39933667">
        <ele>8.0</ele>
        <time>2020-06-22T09:48:47.784Z</time>
      </trkpt>
      <trkpt lat="38.89395333" lon="1.39938833">
        <ele>8.0</ele>
        <time>2020-06-22T09:48:48.758Z</time>
      </trkpt>
      <trkpt lat="38.89395333" lon="1.39938833">
        <ele>8.0</ele>
        <time>2020-06-22T09:48:49.763Z</time>
      </trkpt>
      <trkpt lat="38.89407" lon="1.39949333">
        <ele>8.0</ele>
        <time>2020-06-22T09:48:50.770Z</time>
      </trkpt>
      <trkpt lat="38.89412833" lon="1.399545">
        <ele>8.0</ele>
        <time>2020-06-22T09:48:51.777Z</time>
      </trkpt>
      <trkpt lat="38.89412833" lon="1.399545">
        <ele>8.0</ele>
        <time>2020-06-22T09:48:52.783Z</time>
      </trkpt>
      <trkpt lat="38.894245" lon="1.39964667">
        <ele>8.0</ele>
        <time>2020-06-22T09:48:53.760Z</time>
      </trkpt>
      <trkpt lat="38.894245" lon="1.39964667">
        <ele>8.0</ele>
        <time>2020-06-22T09:48:54.765Z</time>
      </trkpt>
      <trkpt lat="38.89435833" lon="1.39975">
        <ele>8.0</ele>
        <time>2020-06-22T09:48:55.774Z</time>
      </trkpt>
      <trkpt lat="38.89435833" lon="1.39975">
        <ele>8.0</ele>
        <time>2020-06-22T09:48:56.780Z</time>
      </trkpt>
      <trkpt lat="38.89447833" lon="1.39984667">
        <ele>8.0</ele>
        <time>2020-06-22T09:48:57.769Z</time>
      </trkpt>
      <trkpt lat="38.89447833" lon="1.39984667">
        <ele>8.0</ele>
        <time>2020-06-22T09:48:58.774Z</time>
      </trkpt>
      <trkpt lat="38.89459667" lon="1.39994167">
        <ele>8.0</ele>
        <time>2020-06-22T09:48:59.780Z</time>
      </trkpt>
      <trkpt lat="38.89459667" lon="1.39994167">
        <ele>8.0</ele>
        <time>2020-06-22T09:49:00.753Z</time>
      </trkpt>
      <trkpt lat="38.89471667" lon="1.40002">
        <ele>9.0</ele>
        <time>2020-06-22T09:49:01.766Z</time>
      </trkpt>
      <trkpt lat="38.89471667" lon="1.40002">
        <ele>9.0</ele>
        <time>2020-06-22T09:49:02.771Z</time>
      </trkpt>
      <trkpt lat="38.89484667" lon="1.40006333">
        <ele>9.0</ele>
        <time>2020-06-22T09:49:03.779Z</time>
      </trkpt>
      <trkpt lat="38.89484667" lon="1.40006333">
        <ele>9.0</ele>
        <time>2020-06-22T09:49:04.784Z</time>
      </trkpt>
      <trkpt lat="38.894975" lon="1.40008333">
        <ele>9.0</ele>
        <time>2020-06-22T09:49:05.758Z</time>
      </trkpt>
      <trkpt lat="38.894975" lon="1.40008333">
        <ele>9.0</ele>
        <time>2020-06-22T09:49:06.756Z</time>
      </trkpt>
      <trkpt lat="38.89506167" lon="1.40016333">
        <ele>9.0</ele>
        <time>2020-06-22T09:49:07.775Z</time>
      </trkpt>
      <trkpt lat="38.89506167" lon="1.40016333">
        <ele>9.0</ele>
        <time>2020-06-22T09:49:08.780Z</time>
      </trkpt>
      <trkpt lat="38.89512167" lon="1.40027333">
        <ele>9.0</ele>
        <time>2020-06-22T09:49:09.787Z</time>
      </trkpt>
      <trkpt lat="38.89512167" lon="1.40027333">
        <ele>9.0</ele>
        <time>2020-06-22T09:49:10.753Z</time>
      </trkpt>
      <trkpt lat="38.895135" lon="1.400395">
        <ele>8.0</ele>
        <time>2020-06-22T09:49:11.785Z</time>
      </trkpt>
      <trkpt lat="38.89511833" lon="1.400445">
        <ele>8.0</ele>
        <time>2020-06-22T09:49:12.751Z</time>
      </trkpt>
      <trkpt lat="38.89511833" lon="1.400445">
        <ele>8.0</ele>
        <time>2020-06-22T09:49:13.759Z</time>
      </trkpt>
      <trkpt lat="38.89504667" lon="1.40054833">
        <ele>8.0</ele>
        <time>2020-06-22T09:49:14.787Z</time>
      </trkpt>
      <trkpt lat="38.89500833" lon="1.400615">
        <ele>8.0</ele>
        <time>2020-06-22T09:49:15.753Z</time>
      </trkpt>
      <trkpt lat="38.89500833" lon="1.400615">
        <ele>8.0</ele>
        <time>2020-06-22T09:49:16.760Z</time>
      </trkpt>
      <trkpt lat="38.89498333" lon="1.400785">
        <ele>9.0</ele>
        <time>2020-06-22T09:49:17.767Z</time>
      </trkpt>
      <trkpt lat="38.89500667" lon="1.40087167">
        <ele>9.0</ele>
        <time>2020-06-22T09:49:18.774Z</time>
      </trkpt>
      <trkpt lat="38.89500667" lon="1.40087167">
        <ele>9.0</ele>
        <time>2020-06-22T09:49:19.779Z</time>
      </trkpt>
      <trkpt lat="38.89510167" lon="1.40100167">
        <ele>9.0</ele>
        <time>2020-06-22T09:49:20.755Z</time>
      </trkpt>
      <trkpt lat="38.89510167" lon="1.40100167">
        <ele>9.0</ele>
        <time>2020-06-22T09:49:21.761Z</time>
      </trkpt>
      <trkpt lat="38.89523833" lon="1.40102333">
        <ele>9.0</ele>
        <time>2020-06-22T09:49:22.771Z</time>
      </trkpt>
      <trkpt lat="38.89523833" lon="1.40102333">
        <ele>9.0</ele>
        <time>2020-06-22T09:49:23.776Z</time>
      </trkpt>
      <trkpt lat="38.89537167" lon="1.40096">
        <ele>9.0</ele>
        <time>2020-06-22T09:49:24.776Z</time>
      </trkpt>
      <trkpt lat="38.89537167" lon="1.40096">
        <ele>9.0</ele>
        <time>2020-06-22T09:49:25.782Z</time>
      </trkpt>
      <trkpt lat="38.89551667" lon="1.40093167">
        <ele>10.0</ele>
        <time>2020-06-22T09:49:26.788Z</time>
      </trkpt>
      <trkpt lat="38.895585" lon="1.40095333">
        <ele>9.0</ele>
        <time>2020-06-22T09:49:27.755Z</time>
      </trkpt>
      <trkpt lat="38.895585" lon="1.40095333">
        <ele>9.0</ele>
        <time>2020-06-22T09:49:28.762Z</time>
      </trkpt>
      <trkpt lat="38.89571667" lon="1.40101833">
        <ele>9.0</ele>
        <time>2020-06-22T09:49:29.769Z</time>
      </trkpt>
      <trkpt lat="38.89578333" lon="1.40105167">
        <ele>10.0</ele>
        <time>2020-06-22T09:49:30.786Z</time>
      </trkpt>
      <trkpt lat="38.89578333" lon="1.40105167">
        <ele>10.0</ele>
        <time>2020-06-22T09:49:31.752Z</time>
      </trkpt>
      <trkpt lat="38.895915" lon="1.40112">
        <ele>9.0</ele>
        <time>2020-06-22T09:49:32.761Z</time>
      </trkpt>
      <trkpt lat="38.89597833" lon="1.40115833">
        <ele>9.0</ele>
        <time>2020-06-22T09:49:33.767Z</time>
      </trkpt>
      <trkpt lat="38.89604333" lon="1.401195">
        <ele>9.0</ele>
        <time>2020-06-22T09:49:34.758Z</time>
      </trkpt>
      <trkpt lat="38.89604333" lon="1.401195">
        <ele>9.0</ele>
        <time>2020-06-22T09:49:35.763Z</time>
      </trkpt>
      <trkpt lat="38.89617333" lon="1.40127667">
        <ele>9.0</ele>
        <time>2020-06-22T09:49:36.773Z</time>
      </trkpt>
      <trkpt lat="38.89617333" lon="1.40127667">
        <ele>9.0</ele>
        <time>2020-06-22T09:49:37.779Z</time>
      </trkpt>
      <trkpt lat="38.8963" lon="1.40136">
        <ele>10.0</ele>
        <time>2020-06-22T09:49:38.758Z</time>
      </trkpt>
      <trkpt lat="38.8963" lon="1.40136">
        <ele>10.0</ele>
        <time>2020-06-22T09:49:39.764Z</time>
      </trkpt>
      <trkpt lat="38.89642333" lon="1.40144833">
        <ele>10.0</ele>
        <time>2020-06-22T09:49:40.785Z</time>
      </trkpt>
      <trkpt lat="38.89642333" lon="1.40144833">
        <ele>10.0</ele>
        <time>2020-06-22T09:49:41.750Z</time>
      </trkpt>
      <trkpt lat="38.89654667" lon="1.40153667">
        <ele>10.0</ele>
        <time>2020-06-22T09:49:42.760Z</time>
      </trkpt>
      <trkpt lat="38.89654667" lon="1.40153667">
        <ele>10.0</ele>
        <time>2020-06-22T09:49:43.765Z</time>
      </trkpt>
      <trkpt lat="38.89666667" lon="1.40163">
        <ele>10.0</ele>
        <time>2020-06-22T09:49:44.772Z</time>
      </trkpt>
      <trkpt lat="38.89666667" lon="1.40163">
        <ele>10.0</ele>
        <time>2020-06-22T09:49:45.778Z</time>
      </trkpt>
      <trkpt lat="38.896785" lon="1.40171667">
        <ele>9.0</ele>
        <time>2020-06-22T09:49:46.766Z</time>
      </trkpt>
      <trkpt lat="38.89683667" lon="1.40175833">
        <ele>9.0</ele>
        <time>2020-06-22T09:49:47.771Z</time>
      </trkpt>
      <trkpt lat="38.89688333" lon="1.40179833">
        <ele>9.0</ele>
        <time>2020-06-22T09:49:48.777Z</time>
      </trkpt>
      <trkpt lat="38.89688333" lon="1.40179833">
        <ele>9.0</ele>
        <time>2020-06-22T09:49:49.782Z</time>
      </trkpt>
      <trkpt lat="38.89696333" lon="1.40186667">
        <ele>9.0</ele>
        <time>2020-06-22T09:49:50.774Z</time>
      </trkpt>
      <trkpt lat="38.89696333" lon="1.40186667">
        <ele>9.0</ele>
        <time>2020-06-22T09:49:51.780Z</time>
      </trkpt>
      <trkpt lat="38.89699833" lon="1.40191667">
        <ele>9.0</ele>
        <time>2020-06-22T09:49:52.751Z</time>
      </trkpt>
      <trkpt lat="38.89700833" lon="1.401925">
        <ele>9.0</ele>
        <time>2020-06-22T09:49:53.775Z</time>
      </trkpt>
      <trkpt lat="38.897015" lon="1.40193">
        <ele>9.0</ele>
        <time>2020-06-22T09:49:54.781Z</time>
      </trkpt>
      <trkpt lat="38.897015" lon="1.40193">
        <ele>9.0</ele>
        <time>2020-06-22T09:49:55.788Z</time>
      </trkpt>
      <trkpt lat="38.897035" lon="1.40194667">
        <ele>9.0</ele>
        <time>2020-06-22T09:49:56.775Z</time>
      </trkpt>
      <trkpt lat="38.897035" lon="1.40194667">
        <ele>9.0</ele>
        <time>2020-06-22T09:49:57.781Z</time>
      </trkpt>
      <trkpt lat="38.89704833" lon="1.40199333">
        <ele>9.0</ele>
        <time>2020-06-22T09:49:58.788Z</time>
      </trkpt>
      <trkpt lat="38.89704167" lon="1.40203167">
        <ele>9.0</ele>
        <time>2020-06-22T09:49:59.754Z</time>
      </trkpt>
      <trkpt lat="38.89704167" lon="1.40203167">
        <ele>9.0</ele>
        <time>2020-06-22T09:50:00.770Z</time>
      </trkpt>
      <trkpt lat="38.89701167" lon="1.402125">
        <ele>8.0</ele>
        <time>2020-06-22T09:50:01.770Z</time>
      </trkpt>
      <trkpt lat="38.89701667" lon="1.40218">
        <ele>8.0</ele>
        <time>2020-06-22T09:50:02.749Z</time>
      </trkpt>
      <trkpt lat="38.89701667" lon="1.40218">
        <ele>8.0</ele>
        <time>2020-06-22T09:50:03.757Z</time>
      </trkpt>
      <trkpt lat="38.89708833" lon="1.40229167">
        <ele>8.0</ele>
        <time>2020-06-22T09:50:04.764Z</time>
      </trkpt>
      <trkpt lat="38.89708833" lon="1.40229167">
        <ele>8.0</ele>
        <time>2020-06-22T09:50:05.757Z</time>
      </trkpt>
      <trkpt lat="38.89718333" lon="1.402385">
        <ele>8.0</ele>
        <time>2020-06-22T09:50:06.788Z</time>
      </trkpt>
      <trkpt lat="38.89723333" lon="1.40243">
        <ele>8.0</ele>
        <time>2020-06-22T09:50:07.754Z</time>
      </trkpt>
      <trkpt lat="38.89723333" lon="1.40243">
        <ele>8.0</ele>
        <time>2020-06-22T09:50:08.760Z</time>
      </trkpt>
      <trkpt lat="38.89733167" lon="1.40252833">
        <ele>7.0</ele>
        <time>2020-06-22T09:50:09.767Z</time>
      </trkpt>
      <trkpt lat="38.89733167" lon="1.40252833">
        <ele>7.0</ele>
        <time>2020-06-22T09:50:10.773Z</time>
      </trkpt>
      <trkpt lat="38.89743833" lon="1.40262833">
        <ele>8.0</ele>
        <time>2020-06-22T09:50:11.754Z</time>
      </trkpt>
      <trkpt lat="38.89748833" lon="1.402685">
        <ele>8.0</ele>
        <time>2020-06-22T09:50:12.763Z</time>
      </trkpt>
      <trkpt lat="38.89753833" lon="1.40274333">
        <ele>9.0</ele>
        <time>2020-06-22T09:50:13.771Z</time>
      </trkpt>
      <trkpt lat="38.89753833" lon="1.40274333">
        <ele>9.0</ele>
        <time>2020-06-22T09:50:14.777Z</time>
      </trkpt>
      <trkpt lat="38.89761333" lon="1.40288333">
        <ele>9.0</ele>
        <time>2020-06-22T09:50:15.772Z</time>
      </trkpt>
      <trkpt lat="38.89761333" lon="1.40288333">
        <ele>9.0</ele>
        <time>2020-06-22T09:50:16.778Z</time>
      </trkpt>
      <trkpt lat="38.89768333" lon="1.40303167">
        <ele>9.0</ele>
        <time>2020-06-22T09:50:17.754Z</time>
      </trkpt>
      <trkpt lat="38.89773167" lon="1.40309">
        <ele>10.0</ele>
        <time>2020-06-22T09:50:18.773Z</time>
      </trkpt>
      <trkpt lat="38.89773167" lon="1.40309">
        <ele>10.0</ele>
        <time>2020-06-22T09:50:19.779Z</time>
      </trkpt>
      <trkpt lat="38.89785833" lon="1.40314167">
        <ele>11.0</ele>
        <time>2020-06-22T09:50:20.788Z</time>
      </trkpt>
      <trkpt lat="38.89785833" lon="1.40314167">
        <ele>11.0</ele>
        <time>2020-06-22T09:50:21.754Z</time>
      </trkpt>
      <trkpt lat="38.89799667" lon="1.40314167">
        <ele>11.0</ele>
        <time>2020-06-22T09:50:22.767Z</time>
      </trkpt>
      <trkpt lat="38.89807167" lon="1.40314333">
        <ele>11.0</ele>
        <time>2020-06-22T09:50:23.772Z</time>
      </trkpt>
      <trkpt lat="38.89807167" lon="1.40314333">
        <ele>11.0</ele>
        <time>2020-06-22T09:50:24.778Z</time>
      </trkpt>
      <trkpt lat="38.89821333" lon="1.40318333">
        <ele>11.0</ele>
        <time>2020-06-22T09:50:25.766Z</time>
      </trkpt>
      <trkpt lat="38.89821333" lon="1.40318333">
        <ele>11.0</ele>
        <time>2020-06-22T09:50:26.771Z</time>
      </trkpt>
      <trkpt lat="38.89834333" lon="1.403275">
        <ele>12.0</ele>
        <time>2020-06-22T09:50:27.778Z</time>
      </trkpt>
      <trkpt lat="38.898405" lon="1.403325">
        <ele>12.0</ele>
        <time>2020-06-22T09:50:28.785Z</time>
      </trkpt>
      <trkpt lat="38.898405" lon="1.403325">
        <ele>12.0</ele>
        <time>2020-06-22T09:50:29.750Z</time>
      </trkpt>
      <trkpt lat="38.898535" lon="1.40342167">
        <ele>13.0</ele>
        <time>2020-06-22T09:50:30.759Z</time>
      </trkpt>
      <trkpt lat="38.898535" lon="1.40342167">
        <ele>13.0</ele>
        <time>2020-06-22T09:50:31.765Z</time>
      </trkpt>
      <trkpt lat="38.89865667" lon="1.40352333">
        <ele>13.0</ele>
        <time>2020-06-22T09:50:32.763Z</time>
      </trkpt>
      <trkpt lat="38.89865667" lon="1.40352333">
        <ele>13.0</ele>
        <time>2020-06-22T09:50:33.768Z</time>
      </trkpt>
      <trkpt lat="38.89877667" lon="1.40362333">
        <ele>13.0</ele>
        <time>2020-06-22T09:50:34.775Z</time>
      </trkpt>
      <trkpt lat="38.89877667" lon="1.40362333">
        <ele>13.0</ele>
        <time>2020-06-22T09:50:35.780Z</time>
      </trkpt>
      <trkpt lat="38.89889833" lon="1.40372333">
        <ele>14.0</ele>
        <time>2020-06-22T09:50:36.755Z</time>
      </trkpt>
      <trkpt lat="38.89896" lon="1.40377333">
        <ele>14.0</ele>
        <time>2020-06-22T09:50:37.761Z</time>
      </trkpt>
      <trkpt lat="38.89896" lon="1.40377333">
        <ele>14.0</ele>
        <time>2020-06-22T09:50:38.766Z</time>
      </trkpt>
      <trkpt lat="38.89907833" lon="1.403875">
        <ele>14.0</ele>
        <time>2020-06-22T09:50:39.754Z</time>
      </trkpt>
      <trkpt lat="38.89907833" lon="1.403875">
        <ele>14.0</ele>
        <time>2020-06-22T09:50:40.761Z</time>
      </trkpt>
      <trkpt lat="38.899195" lon="1.40398333">
        <ele>14.0</ele>
        <time>2020-06-22T09:50:41.771Z</time>
      </trkpt>
      <trkpt lat="38.89925333" lon="1.40403667">
        <ele>14.0</ele>
        <time>2020-06-22T09:50:42.755Z</time>
      </trkpt>
      <trkpt lat="38.89925333" lon="1.40403667">
        <ele>14.0</ele>
        <time>2020-06-22T09:50:43.761Z</time>
      </trkpt>
      <trkpt lat="38.89936833" lon="1.40414333">
        <ele>14.0</ele>
        <time>2020-06-22T09:50:44.768Z</time>
      </trkpt>
      <trkpt lat="38.89942667" lon="1.40419333">
        <ele>14.0</ele>
        <time>2020-06-22T09:50:45.775Z</time>
      </trkpt>
      <trkpt lat="38.89942667" lon="1.40419333">
        <ele>14.0</ele>
        <time>2020-06-22T09:50:46.781Z</time>
      </trkpt>
      <trkpt lat="38.89954167" lon="1.40429333">
        <ele>14.0</ele>
        <time>2020-06-22T09:50:47.770Z</time>
      </trkpt>
      <trkpt lat="38.89954167" lon="1.40429333">
        <ele>14.0</ele>
        <time>2020-06-22T09:50:48.775Z</time>
      </trkpt>
      <trkpt lat="38.89965667" lon="1.40439167">
        <ele>14.0</ele>
        <time>2020-06-22T09:50:49.782Z</time>
      </trkpt>
      <trkpt lat="38.89971333" lon="1.40444167">
        <ele>14.0</ele>
        <time>2020-06-22T09:50:50.768Z</time>
      </trkpt>
      <trkpt lat="38.89971333" lon="1.40444167">
        <ele>14.0</ele>
        <time>2020-06-22T09:50:51.774Z</time>
      </trkpt>
      <trkpt lat="38.89983" lon="1.40454">
        <ele>15.0</ele>
        <time>2020-06-22T09:50:52.781Z</time>
      </trkpt>
      <trkpt lat="38.89983" lon="1.40454">
        <ele>15.0</ele>
        <time>2020-06-22T09:50:53.786Z</time>
      </trkpt>
      <trkpt lat="38.89994667" lon="1.40464167">
        <ele>15.0</ele>
        <time>2020-06-22T09:50:54.759Z</time>
      </trkpt>
      <trkpt lat="38.89994667" lon="1.40464167">
        <ele>15.0</ele>
        <time>2020-06-22T09:50:55.766Z</time>
      </trkpt>
      <trkpt lat="38.90006" lon="1.40474167">
        <ele>15.0</ele>
        <time>2020-06-22T09:50:56.772Z</time>
      </trkpt>
      <trkpt lat="38.90011667" lon="1.40479">
        <ele>15.0</ele>
        <time>2020-06-22T09:50:57.775Z</time>
      </trkpt>
      <trkpt lat="38.90011667" lon="1.40479">
        <ele>15.0</ele>
        <time>2020-06-22T09:50:58.780Z</time>
      </trkpt>
      <trkpt lat="38.90023" lon="1.404885">
        <ele>15.0</ele>
        <time>2020-06-22T09:50:59.787Z</time>
      </trkpt>
      <trkpt lat="38.90028167" lon="1.40493667">
        <ele>15.0</ele>
        <time>2020-06-22T09:51:00.755Z</time>
      </trkpt>
      <trkpt lat="38.90028167" lon="1.40493667">
        <ele>15.0</ele>
        <time>2020-06-22T09:51:01.765Z</time>
      </trkpt>
      <trkpt lat="38.90037667" lon="1.40505333">
        <ele>16.0</ele>
        <time>2020-06-22T09:51:02.772Z</time>
      </trkpt>
      <trkpt lat="38.90042" lon="1.40511667">
        <ele>16.0</ele>
        <time>2020-06-22T09:51:03.760Z</time>
      </trkpt>
      <trkpt lat="38.90042" lon="1.40511667">
        <ele>16.0</ele>
        <time>2020-06-22T09:51:04.766Z</time>
      </trkpt>
      <trkpt lat="38.900515" lon="1.40523167">
        <ele>16.0</ele>
        <time>2020-06-22T09:51:05.755Z</time>
      </trkpt>
      <trkpt lat="38.90056667" lon="1.40528167">
        <ele>16.0</ele>
        <time>2020-06-22T09:51:06.776Z</time>
      </trkpt>
      <trkpt lat="38.90056667" lon="1.40528167">
        <ele>16.0</ele>
        <time>2020-06-22T09:51:07.783Z</time>
      </trkpt>
      <trkpt lat="38.90066833" lon="1.40538333">
        <ele>16.0</ele>
        <time>2020-06-22T09:51:08.755Z</time>
      </trkpt>
      <trkpt lat="38.90072167" lon="1.40543333">
        <ele>16.0</ele>
        <time>2020-06-22T09:51:09.761Z</time>
      </trkpt>
      <trkpt lat="38.900775" lon="1.40548">
        <ele>16.0</ele>
        <time>2020-06-22T09:51:10.768Z</time>
      </trkpt>
      <trkpt lat="38.900775" lon="1.40548">
        <ele>16.0</ele>
        <time>2020-06-22T09:51:11.774Z</time>
      </trkpt>
      <trkpt lat="38.90088167" lon="1.40557167">
        <ele>16.0</ele>
        <time>2020-06-22T09:51:12.780Z</time>
      </trkpt>
      <trkpt lat="38.90088167" lon="1.40557167">
        <ele>16.0</ele>
        <time>2020-06-22T09:51:13.785Z</time>
      </trkpt>
      <trkpt lat="38.90098667" lon="1.40566333">
        <ele>16.0</ele>
        <time>2020-06-22T09:51:14.775Z</time>
      </trkpt>
      <trkpt lat="38.90098667" lon="1.40566333">
        <ele>16.0</ele>
        <time>2020-06-22T09:51:15.780Z</time>
      </trkpt>
      <trkpt lat="38.90109" lon="1.40575167">
        <ele>16.0</ele>
        <time>2020-06-22T09:51:16.786Z</time>
      </trkpt>
      <trkpt lat="38.90109" lon="1.40575167">
        <ele>16.0</ele>
        <time>2020-06-22T09:51:17.754Z</time>
      </trkpt>
      <trkpt lat="38.90119" lon="1.40584667">
        <ele>17.0</ele>
        <time>2020-06-22T09:51:18.755Z</time>
      </trkpt>
      <trkpt lat="38.90119" lon="1.40584667">
        <ele>17.0</ele>
        <time>2020-06-22T09:51:19.761Z</time>
      </trkpt>
      <trkpt lat="38.90129333" lon="1.40594167">
        <ele>17.0</ele>
        <time>2020-06-22T09:51:20.770Z</time>
      </trkpt>
      <trkpt lat="38.90129333" lon="1.40594167">
        <ele>17.0</ele>
        <time>2020-06-22T09:51:21.775Z</time>
      </trkpt>
      <trkpt lat="38.90139833" lon="1.40603333">
        <ele>17.0</ele>
        <time>2020-06-22T09:51:22.757Z</time>
      </trkpt>
      <trkpt lat="38.90139833" lon="1.40603333">
        <ele>17.0</ele>
        <time>2020-06-22T09:51:23.762Z</time>
      </trkpt>
      <trkpt lat="38.90150667" lon="1.40612333">
        <ele>17.0</ele>
        <time>2020-06-22T09:51:24.769Z</time>
      </trkpt>
      <trkpt lat="38.90150667" lon="1.40612333">
        <ele>17.0</ele>
        <time>2020-06-22T09:51:25.775Z</time>
      </trkpt>
      <trkpt lat="38.90161" lon="1.40622333">
        <ele>17.0</ele>
        <time>2020-06-22T09:51:26.784Z</time>
      </trkpt>
      <trkpt lat="38.90166333" lon="1.40627167">
        <ele>17.0</ele>
        <time>2020-06-22T09:51:27.750Z</time>
      </trkpt>
      <trkpt lat="38.90166333" lon="1.40627167">
        <ele>17.0</ele>
        <time>2020-06-22T09:51:28.763Z</time>
      </trkpt>
      <trkpt lat="38.90177167" lon="1.40636833">
        <ele>17.0</ele>
        <time>2020-06-22T09:51:29.772Z</time>
      </trkpt>
      <trkpt lat="38.90182167" lon="1.40642">
        <ele>17.0</ele>
        <time>2020-06-22T09:51:30.779Z</time>
      </trkpt>
      <trkpt lat="38.90182167" lon="1.40642">
        <ele>17.0</ele>
        <time>2020-06-22T09:51:31.772Z</time>
      </trkpt>
      <trkpt lat="38.90192" lon="1.406525">
        <ele>17.0</ele>
        <time>2020-06-22T09:51:32.777Z</time>
      </trkpt>
      <trkpt lat="38.90192" lon="1.406525">
        <ele>17.0</ele>
        <time>2020-06-22T09:51:33.784Z</time>
      </trkpt>
      <trkpt lat="38.902005" lon="1.40663167">
        <ele>17.0</ele>
        <time>2020-06-22T09:51:34.750Z</time>
      </trkpt>
      <trkpt lat="38.902005" lon="1.40663167">
        <ele>17.0</ele>
        <time>2020-06-22T09:51:35.763Z</time>
      </trkpt>
      <trkpt lat="38.90203" lon="1.40675">
        <ele>17.0</ele>
        <time>2020-06-22T09:51:36.786Z</time>
      </trkpt>
      <trkpt lat="38.90203" lon="1.40675">
        <ele>17.0</ele>
        <time>2020-06-22T09:51:37.751Z</time>
      </trkpt>
      <trkpt lat="38.90195667" lon="1.40685167">
        <ele>17.0</ele>
        <time>2020-06-22T09:51:38.760Z</time>
      </trkpt>
      <trkpt lat="38.90190833" lon="1.4069">
        <ele>17.0</ele>
        <time>2020-06-22T09:51:39.766Z</time>
      </trkpt>
      <trkpt lat="38.90190833" lon="1.4069">
        <ele>17.0</ele>
        <time>2020-06-22T09:51:40.771Z</time>
      </trkpt>
      <trkpt lat="38.90181" lon="1.40700333">
        <ele>16.0</ele>
        <time>2020-06-22T09:51:41.751Z</time>
      </trkpt>
      <trkpt lat="38.90181" lon="1.40700333">
        <ele>16.0</ele>
        <time>2020-06-22T09:51:42.760Z</time>
      </trkpt>
      <trkpt lat="38.90171167" lon="1.40711667">
        <ele>16.0</ele>
        <time>2020-06-22T09:51:43.778Z</time>
      </trkpt>
      <trkpt lat="38.90171167" lon="1.40711667">
        <ele>16.0</ele>
        <time>2020-06-22T09:51:44.783Z</time>
      </trkpt>
      <trkpt lat="38.90161667" lon="1.40723667">
        <ele>15.0</ele>
        <time>2020-06-22T09:51:45.775Z</time>
      </trkpt>
      <trkpt lat="38.90161667" lon="1.40723667">
        <ele>15.0</ele>
        <time>2020-06-22T09:51:46.780Z</time>
      </trkpt>
      <trkpt lat="38.90151833" lon="1.40735333">
        <ele>14.0</ele>
        <time>2020-06-22T09:51:47.787Z</time>
      </trkpt>
      <trkpt lat="38.901465" lon="1.407415">
        <ele>14.0</ele>
        <time>2020-06-22T09:51:48.757Z</time>
      </trkpt>
      <trkpt lat="38.901465" lon="1.407415">
        <ele>14.0</ele>
        <time>2020-06-22T09:51:49.777Z</time>
      </trkpt>
      <trkpt lat="38.90136167" lon="1.40753167">
        <ele>14.0</ele>
        <time>2020-06-22T09:51:50.775Z</time>
      </trkpt>
      <trkpt lat="38.90136167" lon="1.40753167">
        <ele>14.0</ele>
        <time>2020-06-22T09:51:51.780Z</time>
      </trkpt>
      <trkpt lat="38.90125667" lon="1.40765333">
        <ele>14.0</ele>
        <time>2020-06-22T09:51:52.787Z</time>
      </trkpt>
      <trkpt lat="38.90125667" lon="1.40765333">
        <ele>14.0</ele>
        <time>2020-06-22T09:51:53.754Z</time>
      </trkpt>
      <trkpt lat="38.90120833" lon="1.40779333">
        <ele>14.0</ele>
        <time>2020-06-22T09:51:54.756Z</time>
      </trkpt>
      <trkpt lat="38.90120833" lon="1.40779333">
        <ele>14.0</ele>
        <time>2020-06-22T09:51:55.761Z</time>
      </trkpt>
      <trkpt lat="38.90126833" lon="1.40793667">
        <ele>14.0</ele>
        <time>2020-06-22T09:51:56.774Z</time>
      </trkpt>
      <trkpt lat="38.90130667" lon="1.40800167">
        <ele>14.0</ele>
        <time>2020-06-22T09:51:57.788Z</time>
      </trkpt>
      <trkpt lat="38.90130667" lon="1.40800167">
        <ele>14.0</ele>
        <time>2020-06-22T09:51:58.776Z</time>
      </trkpt>
      <trkpt lat="38.90137833" lon="1.40813">
        <ele>14.0</ele>
        <time>2020-06-22T09:51:59.782Z</time>
      </trkpt>
      <trkpt lat="38.90141667" lon="1.408195">
        <ele>14.0</ele>
        <time>2020-06-22T09:52:00.782Z</time>
      </trkpt>
      <trkpt lat="38.90141667" lon="1.408195">
        <ele>14.0</ele>
        <time>2020-06-22T09:52:01.784Z</time>
      </trkpt>
      <trkpt lat="38.90148833" lon="1.408315">
        <ele>14.0</ele>
        <time>2020-06-22T09:52:02.767Z</time>
      </trkpt>
      <trkpt lat="38.90148833" lon="1.408315">
        <ele>14.0</ele>
        <time>2020-06-22T09:52:03.773Z</time>
      </trkpt>
      <trkpt lat="38.90156833" lon="1.408445">
        <ele>14.0</ele>
        <time>2020-06-22T09:52:04.780Z</time>
      </trkpt>
      <trkpt lat="38.90156833" lon="1.408445">
        <ele>14.0</ele>
        <time>2020-06-22T09:52:05.754Z</time>
      </trkpt>
      <trkpt lat="38.90165167" lon="1.40857333">
        <ele>14.0</ele>
        <time>2020-06-22T09:52:06.755Z</time>
      </trkpt>
      <trkpt lat="38.90165167" lon="1.40857333">
        <ele>14.0</ele>
        <time>2020-06-22T09:52:07.762Z</time>
      </trkpt>
      <trkpt lat="38.90174333" lon="1.40870833">
        <ele>14.0</ele>
        <time>2020-06-22T09:52:08.770Z</time>
      </trkpt>
      <trkpt lat="38.90174333" lon="1.40870833">
        <ele>14.0</ele>
        <time>2020-06-22T09:52:09.775Z</time>
      </trkpt>
      <trkpt lat="38.90182833" lon="1.40885833">
        <ele>14.0</ele>
        <time>2020-06-22T09:52:10.783Z</time>
      </trkpt>
      <trkpt lat="38.90182833" lon="1.40885833">
        <ele>14.0</ele>
        <time>2020-06-22T09:52:11.749Z</time>
      </trkpt>
      <trkpt lat="38.90191" lon="1.40900333">
        <ele>14.0</ele>
        <time>2020-06-22T09:52:12.765Z</time>
      </trkpt>
      <trkpt lat="38.90194833" lon="1.40908">
        <ele>14.0</ele>
        <time>2020-06-22T09:52:13.776Z</time>
      </trkpt>
      <trkpt lat="38.90194833" lon="1.40908">
        <ele>14.0</ele>
        <time>2020-06-22T09:52:14.781Z</time>
      </trkpt>
      <trkpt lat="38.90202833" lon="1.40922667">
        <ele>14.0</ele>
        <time>2020-06-22T09:52:15.788Z</time>
      </trkpt>
      <trkpt lat="38.90202833" lon="1.40922667">
        <ele>14.0</ele>
        <time>2020-06-22T09:52:16.754Z</time>
      </trkpt>
      <trkpt lat="38.902095" lon="1.409375">
        <ele>14.0</ele>
        <time>2020-06-22T09:52:17.757Z</time>
      </trkpt>
      <trkpt lat="38.902095" lon="1.409375">
        <ele>14.0</ele>
        <time>2020-06-22T09:52:18.763Z</time>
      </trkpt>
      <trkpt lat="38.90216" lon="1.40952">
        <ele>14.0</ele>
        <time>2020-06-22T09:52:19.773Z</time>
      </trkpt>
      <trkpt lat="38.902195" lon="1.40959">
        <ele>14.0</ele>
        <time>2020-06-22T09:52:20.763Z</time>
      </trkpt>
      <trkpt lat="38.902195" lon="1.40959">
        <ele>14.0</ele>
        <time>2020-06-22T09:52:21.769Z</time>
      </trkpt>
      <trkpt lat="38.90225833" lon="1.40972667">
        <ele>14.0</ele>
        <time>2020-06-22T09:52:22.779Z</time>
      </trkpt>
      <trkpt lat="38.90225833" lon="1.40972667">
        <ele>14.0</ele>
        <time>2020-06-22T09:52:23.784Z</time>
      </trkpt>
      <trkpt lat="38.90231833" lon="1.40984667">
        <ele>14.0</ele>
        <time>2020-06-22T09:52:24.787Z</time>
      </trkpt>
      <trkpt lat="38.90231833" lon="1.40984667">
        <ele>14.0</ele>
        <time>2020-06-22T09:52:25.752Z</time>
      </trkpt>
      <trkpt lat="38.90237333" lon="1.40996667">
        <ele>14.0</ele>
        <time>2020-06-22T09:52:26.760Z</time>
      </trkpt>
      <trkpt lat="38.90240333" lon="1.41001833">
        <ele>13.0</ele>
        <time>2020-06-22T09:52:27.755Z</time>
      </trkpt>
      <trkpt lat="38.90240333" lon="1.41001833">
        <ele>13.0</ele>
        <time>2020-06-22T09:52:28.762Z</time>
      </trkpt>
      <trkpt lat="38.90251" lon="1.41003333">
        <ele>14.0</ele>
        <time>2020-06-22T09:52:29.770Z</time>
      </trkpt>
      <trkpt lat="38.90254833" lon="1.410025">
        <ele>14.0</ele>
        <time>2020-06-22T09:52:30.764Z</time>
      </trkpt>
      <trkpt lat="38.90254833" lon="1.410025">
        <ele>14.0</ele>
        <time>2020-06-22T09:52:31.769Z</time>
      </trkpt>
      <trkpt lat="38.90264" lon="1.41001167">
        <ele>15.0</ele>
        <time>2020-06-22T09:52:32.776Z</time>
      </trkpt>
      <trkpt lat="38.90268333" lon="1.40997167">
        <ele>15.0</ele>
        <time>2020-06-22T09:52:33.766Z</time>
      </trkpt>
      <trkpt lat="38.90268333" lon="1.40997167">
        <ele>15.0</ele>
        <time>2020-06-22T09:52:34.771Z</time>
      </trkpt>
      <trkpt lat="38.90276167" lon="1.40989">
        <ele>16.0</ele>
        <time>2020-06-22T09:52:35.783Z</time>
      </trkpt>
      <trkpt lat="38.902805" lon="1.40984667">
        <ele>16.0</ele>
        <time>2020-06-22T09:52:36.764Z</time>
      </trkpt>
      <trkpt lat="38.902805" lon="1.40984667">
        <ele>16.0</ele>
        <time>2020-06-22T09:52:37.785Z</time>
      </trkpt>
      <trkpt lat="38.90289833" lon="1.40976">
        <ele>15.0</ele>
        <time>2020-06-22T09:52:38.755Z</time>
      </trkpt>
      <trkpt lat="38.90289833" lon="1.40976">
        <ele>15.0</ele>
        <time>2020-06-22T09:52:39.762Z</time>
      </trkpt>
      <trkpt lat="38.90299333" lon="1.40967">
        <ele>15.0</ele>
        <time>2020-06-22T09:52:40.770Z</time>
      </trkpt>
      <trkpt lat="38.90304167" lon="1.409625">
        <ele>15.0</ele>
        <time>2020-06-22T09:52:41.778Z</time>
      </trkpt>
      <trkpt lat="38.90304167" lon="1.409625">
        <ele>15.0</ele>
        <time>2020-06-22T09:52:42.770Z</time>
      </trkpt>
      <trkpt lat="38.90314" lon="1.40954167">
        <ele>15.0</ele>
        <time>2020-06-22T09:52:43.766Z</time>
      </trkpt>
      <trkpt lat="38.90314" lon="1.40954167">
        <ele>15.0</ele>
        <time>2020-06-22T09:52:44.771Z</time>
      </trkpt>
      <trkpt lat="38.903225" lon="1.409455">
        <ele>15.0</ele>
        <time>2020-06-22T09:52:45.779Z</time>
      </trkpt>
      <trkpt lat="38.903225" lon="1.409455">
        <ele>15.0</ele>
        <time>2020-06-22T09:52:46.785Z</time>
      </trkpt>
      <trkpt lat="38.90329167" lon="1.40933667">
        <ele>15.0</ele>
        <time>2020-06-22T09:52:47.776Z</time>
      </trkpt>
      <trkpt lat="38.90330167" lon="1.409275">
        <ele>15.0</ele>
        <time>2020-06-22T09:52:48.783Z</time>
      </trkpt>
      <trkpt lat="38.90330167" lon="1.409275">
        <ele>15.0</ele>
        <time>2020-06-22T09:52:49.749Z</time>
      </trkpt>
      <trkpt lat="38.90329833" lon="1.40913833">
        <ele>14.0</ele>
        <time>2020-06-22T09:52:50.756Z</time>
      </trkpt>
      <trkpt lat="38.90329833" lon="1.40913833">
        <ele>14.0</ele>
        <time>2020-06-22T09:52:51.770Z</time>
      </trkpt>
      <trkpt lat="38.90327" lon="1.40899667">
        <ele>15.0</ele>
        <time>2020-06-22T09:52:52.774Z</time>
      </trkpt>
      <trkpt lat="38.90326667" lon="1.40892">
        <ele>16.0</ele>
        <time>2020-06-22T09:52:53.780Z</time>
      </trkpt>
      <trkpt lat="38.90325" lon="1.40885">
        <ele>16.0</ele>
        <time>2020-06-22T09:52:54.785Z</time>
      </trkpt>
      <trkpt lat="38.90325" lon="1.40885">
        <ele>16.0</ele>
        <time>2020-06-22T09:52:55.750Z</time>
      </trkpt>
      <trkpt lat="38.90322167" lon="1.40871333">
        <ele>17.0</ele>
        <time>2020-06-22T09:52:56.785Z</time>
      </trkpt>
      <trkpt lat="38.903205" lon="1.40864333">
        <ele>17.0</ele>
        <time>2020-06-22T09:52:57.751Z</time>
      </trkpt>
      <trkpt lat="38.903205" lon="1.40864333">
        <ele>17.0</ele>
        <time>2020-06-22T09:52:58.757Z</time>
      </trkpt>
      <trkpt lat="38.90318" lon="1.408505">
        <ele>18.0</ele>
        <time>2020-06-22T09:52:59.786Z</time>
      </trkpt>
      <trkpt lat="38.90318" lon="1.408505">
        <ele>18.0</ele>
        <time>2020-06-22T09:53:00.762Z</time>
      </trkpt>
    </trkseg>
  </trk>
</gpx>
